<?xml version="1.0" encoding="UTF-8" standalone="no" ?>
<gpx xmlns="http://www.topografix.com/GPX/1/1" xmlns:xsi="http://www.w3.org/2001/XMLSchema-instance" xsi:schemaLocation="http://www.topografix.com/GPX/1/1 http://www.topografix.com/GPX/1/1/gpx.xsd" version="1.1" creator="VisuGPX - https://www.visugpx.com">
  <metadata>
    <name>Rando correze Xantrie</name>
  </metadata>
  <trk>
    <name><![CDATA[Rando correze Xantrie_1]]></name>
    <extensions>
      <line xmlns="http://www.topografix.com/GPX/gpx_style/0/2">
        <color>0000FF</color>
        <width>4</width>
      </line>
    </extensions>
    <trkseg>
      <trkpt lat="45.12583" lon="1.89653">
        <ele>209.22</ele>
        <time>2012-08-30T12:45:29Z</time>
      </trkpt>
      <trkpt lat="45.12583" lon="1.89653">
        <ele>209.22</ele>
        <time>2012-08-30T12:45:29Z</time>
      </trkpt>
      <trkpt lat="45.12571" lon="1.89693">
        <ele>209.7</ele>
        <time>2012-08-30T12:45:34Z</time>
      </trkpt>
      <trkpt lat="45.12545" lon="1.89766">
        <ele>209.7</ele>
        <time>2012-08-30T12:45:43Z</time>
      </trkpt>
      <trkpt lat="45.12536" lon="1.89795">
        <ele>208.74</ele>
        <time>2012-08-30T12:45:47Z</time>
      </trkpt>
      <trkpt lat="45.12533" lon="1.89799">
        <ele>208.74</ele>
        <time>2012-08-30T12:45:48Z</time>
      </trkpt>
      <trkpt lat="45.1253" lon="1.89802">
        <ele>208.74</ele>
        <time>2012-08-30T12:45:49Z</time>
      </trkpt>
      <trkpt lat="45.12527" lon="1.89802">
        <ele>208.74</ele>
        <time>2012-08-30T12:45:50Z</time>
      </trkpt>
      <trkpt lat="45.12524" lon="1.89802">
        <ele>208.74</ele>
        <time>2012-08-30T12:45:51Z</time>
      </trkpt>
      <trkpt lat="45.12521" lon="1.898">
        <ele>208.74</ele>
        <time>2012-08-30T12:45:52Z</time>
      </trkpt>
      <trkpt lat="45.12497" lon="1.89787">
        <ele>208.26</ele>
        <time>2012-08-30T12:45:57Z</time>
      </trkpt>
      <trkpt lat="45.12491" lon="1.89783">
        <ele>208.26</ele>
        <time>2012-08-30T12:45:58Z</time>
      </trkpt>
      <trkpt lat="45.12439" lon="1.8975">
        <ele>208.74</ele>
        <time>2012-08-30T12:46:07Z</time>
      </trkpt>
      <trkpt lat="45.12431" lon="1.89744">
        <ele>208.26</ele>
        <time>2012-08-30T12:46:10Z</time>
      </trkpt>
      <trkpt lat="45.12428" lon="1.89745">
        <ele>208.26</ele>
        <time>2012-08-30T12:46:11Z</time>
      </trkpt>
      <trkpt lat="45.12426" lon="1.89749">
        <ele>207.78</ele>
        <time>2012-08-30T12:46:12Z</time>
      </trkpt>
      <trkpt lat="45.12423" lon="1.89754">
        <ele>207.78</ele>
        <time>2012-08-30T12:46:13Z</time>
      </trkpt>
      <trkpt lat="45.12421" lon="1.89761">
        <ele>208.26</ele>
        <time>2012-08-30T12:46:14Z</time>
      </trkpt>
      <trkpt lat="45.12405" lon="1.8981">
        <ele>209.22</ele>
        <time>2012-08-30T12:46:20Z</time>
      </trkpt>
      <trkpt lat="45.12375" lon="1.89893">
        <ele>208.74</ele>
        <time>2012-08-30T12:46:27Z</time>
      </trkpt>
      <trkpt lat="45.12333" lon="1.90004">
        <ele>209.22</ele>
        <time>2012-08-30T12:46:35Z</time>
      </trkpt>
      <trkpt lat="45.12325" lon="1.90025">
        <ele>207.78</ele>
        <time>2012-08-30T12:46:37Z</time>
      </trkpt>
      <trkpt lat="45.12316" lon="1.90048">
        <ele>206.34</ele>
        <time>2012-08-30T12:46:41Z</time>
      </trkpt>
      <trkpt lat="45.12315" lon="1.90051">
        <ele>206.34</ele>
        <time>2012-08-30T12:46:45Z</time>
      </trkpt>
      <trkpt lat="45.12315" lon="1.90051">
        <ele>206.34</ele>
        <time>2012-08-30T12:46:57Z</time>
      </trkpt>
      <trkpt lat="45.12315" lon="1.90051">
        <ele>206.34</ele>
        <time>2012-08-30T12:47:13Z</time>
      </trkpt>
      <trkpt lat="45.12315" lon="1.90052">
        <ele>205.38</ele>
        <time>2012-08-30T12:47:31Z</time>
      </trkpt>
      <trkpt lat="45.12315" lon="1.90052">
        <ele>205.86</ele>
        <time>2012-08-30T12:47:40Z</time>
      </trkpt>
      <trkpt lat="45.12315" lon="1.90052">
        <ele>205.86</ele>
        <time>2012-08-30T12:47:52Z</time>
      </trkpt>
      <trkpt lat="45.12315" lon="1.90053">
        <ele>205.86</ele>
        <time>2012-08-30T12:47:54Z</time>
      </trkpt>
      <trkpt lat="45.12315" lon="1.90055">
        <ele>205.38</ele>
        <time>2012-08-30T12:47:55Z</time>
      </trkpt>
      <trkpt lat="45.12316" lon="1.90057">
        <ele>206.34</ele>
        <time>2012-08-30T12:47:56Z</time>
      </trkpt>
      <trkpt lat="45.12317" lon="1.90059">
        <ele>205.86</ele>
        <time>2012-08-30T12:47:57Z</time>
      </trkpt>
      <trkpt lat="45.12318" lon="1.90061">
        <ele>205.86</ele>
        <time>2012-08-30T12:47:58Z</time>
      </trkpt>
      <trkpt lat="45.12319" lon="1.90062">
        <ele>206.82</ele>
        <time>2012-08-30T12:47:59Z</time>
      </trkpt>
      <trkpt lat="45.1232" lon="1.90064">
        <ele>206.34</ele>
        <time>2012-08-30T12:48:00Z</time>
      </trkpt>
      <trkpt lat="45.12321" lon="1.90066">
        <ele>205.86</ele>
        <time>2012-08-30T12:48:01Z</time>
      </trkpt>
      <trkpt lat="45.12323" lon="1.90068">
        <ele>206.34</ele>
        <time>2012-08-30T12:48:02Z</time>
      </trkpt>
      <trkpt lat="45.12324" lon="1.90069">
        <ele>205.86</ele>
        <time>2012-08-30T12:48:03Z</time>
      </trkpt>
      <trkpt lat="45.12325" lon="1.90071">
        <ele>205.86</ele>
        <time>2012-08-30T12:48:04Z</time>
      </trkpt>
      <trkpt lat="45.12326" lon="1.90074">
        <ele>206.34</ele>
        <time>2012-08-30T12:48:08Z</time>
      </trkpt>
      <trkpt lat="45.12329" lon="1.90083">
        <ele>207.78</ele>
        <time>2012-08-30T12:48:14Z</time>
      </trkpt>
      <trkpt lat="45.12329" lon="1.90084">
        <ele>207.78</ele>
        <time>2012-08-30T12:48:15Z</time>
      </trkpt>
      <trkpt lat="45.12328" lon="1.90086">
        <ele>208.26</ele>
        <time>2012-08-30T12:48:16Z</time>
      </trkpt>
      <trkpt lat="45.12326" lon="1.90089">
        <ele>208.26</ele>
        <time>2012-08-30T12:48:18Z</time>
      </trkpt>
      <trkpt lat="45.12324" lon="1.90091">
        <ele>208.74</ele>
        <time>2012-08-30T12:48:20Z</time>
      </trkpt>
      <trkpt lat="45.12323" lon="1.90093">
        <ele>209.22</ele>
        <time>2012-08-30T12:48:21Z</time>
      </trkpt>
      <trkpt lat="45.12322" lon="1.90095">
        <ele>209.22</ele>
        <time>2012-08-30T12:48:22Z</time>
      </trkpt>
      <trkpt lat="45.1232" lon="1.90097">
        <ele>209.22</ele>
        <time>2012-08-30T12:48:24Z</time>
      </trkpt>
      <trkpt lat="45.12318" lon="1.90099">
        <ele>209.7</ele>
        <time>2012-08-30T12:48:25Z</time>
      </trkpt>
      <trkpt lat="45.12317" lon="1.901">
        <ele>209.7</ele>
        <time>2012-08-30T12:48:26Z</time>
      </trkpt>
      <trkpt lat="45.12316" lon="1.90102">
        <ele>209.7</ele>
        <time>2012-08-30T12:48:27Z</time>
      </trkpt>
      <trkpt lat="45.12315" lon="1.90102">
        <ele>209.7</ele>
        <time>2012-08-30T12:48:28Z</time>
      </trkpt>
      <trkpt lat="45.12311" lon="1.90106">
        <ele>211.15</ele>
        <time>2012-08-30T12:48:34Z</time>
      </trkpt>
      <trkpt lat="45.1231" lon="1.90111">
        <ele>211.15</ele>
        <time>2012-08-30T12:48:37Z</time>
      </trkpt>
      <trkpt lat="45.1231" lon="1.90113">
        <ele>211.15</ele>
        <time>2012-08-30T12:48:38Z</time>
      </trkpt>
      <trkpt lat="45.1231" lon="1.90115">
        <ele>211.15</ele>
        <time>2012-08-30T12:48:39Z</time>
      </trkpt>
      <trkpt lat="45.1231" lon="1.90117">
        <ele>211.15</ele>
        <time>2012-08-30T12:48:40Z</time>
      </trkpt>
      <trkpt lat="45.1231" lon="1.90125">
        <ele>211.63</ele>
        <time>2012-08-30T12:48:45Z</time>
      </trkpt>
      <trkpt lat="45.12309" lon="1.90138">
        <ele>213.07</ele>
        <time>2012-08-30T12:48:52Z</time>
      </trkpt>
      <trkpt lat="45.12308" lon="1.90142">
        <ele>213.55</ele>
        <time>2012-08-30T12:48:54Z</time>
      </trkpt>
      <trkpt lat="45.12308" lon="1.90144">
        <ele>214.03</ele>
        <time>2012-08-30T12:48:55Z</time>
      </trkpt>
      <trkpt lat="45.12308" lon="1.90146">
        <ele>214.03</ele>
        <time>2012-08-30T12:48:56Z</time>
      </trkpt>
      <trkpt lat="45.12309" lon="1.90148">
        <ele>214.51</ele>
        <time>2012-08-30T12:48:57Z</time>
      </trkpt>
      <trkpt lat="45.12309" lon="1.9015">
        <ele>214.51</ele>
        <time>2012-08-30T12:48:58Z</time>
      </trkpt>
      <trkpt lat="45.12309" lon="1.90151">
        <ele>214.51</ele>
        <time>2012-08-30T12:48:59Z</time>
      </trkpt>
      <trkpt lat="45.1231" lon="1.90154">
        <ele>214.99</ele>
        <time>2012-08-30T12:49:00Z</time>
      </trkpt>
      <trkpt lat="45.1231" lon="1.90156">
        <ele>214.51</ele>
        <time>2012-08-30T12:49:01Z</time>
      </trkpt>
      <trkpt lat="45.12314" lon="1.90165">
        <ele>215.95</ele>
        <time>2012-08-30T12:49:08Z</time>
      </trkpt>
      <trkpt lat="45.12317" lon="1.9017">
        <ele>216.43</ele>
        <time>2012-08-30T12:49:12Z</time>
      </trkpt>
      <trkpt lat="45.12317" lon="1.90172">
        <ele>216.43</ele>
        <time>2012-08-30T12:49:13Z</time>
      </trkpt>
      <trkpt lat="45.12318" lon="1.90173">
        <ele>216.91</ele>
        <time>2012-08-30T12:49:14Z</time>
      </trkpt>
      <trkpt lat="45.12321" lon="1.90181">
        <ele>217.4</ele>
        <time>2012-08-30T12:49:21Z</time>
      </trkpt>
      <trkpt lat="45.12326" lon="1.90191">
        <ele>219.32</ele>
        <time>2012-08-30T12:49:29Z</time>
      </trkpt>
      <trkpt lat="45.12331" lon="1.90203">
        <ele>220.28</ele>
        <time>2012-08-30T12:49:36Z</time>
      </trkpt>
      <trkpt lat="45.12338" lon="1.90213">
        <ele>220.76</ele>
        <time>2012-08-30T12:49:45Z</time>
      </trkpt>
      <trkpt lat="45.12343" lon="1.90221">
        <ele>222.68</ele>
        <time>2012-08-30T12:49:53Z</time>
      </trkpt>
      <trkpt lat="45.12347" lon="1.90228">
        <ele>224.61</ele>
        <time>2012-08-30T12:50:03Z</time>
      </trkpt>
      <trkpt lat="45.12352" lon="1.90233">
        <ele>226.05</ele>
        <time>2012-08-30T12:50:12Z</time>
      </trkpt>
      <trkpt lat="45.12359" lon="1.90239">
        <ele>227.97</ele>
        <time>2012-08-30T12:50:22Z</time>
      </trkpt>
      <trkpt lat="45.12369" lon="1.90244">
        <ele>229.89</ele>
        <time>2012-08-30T12:50:32Z</time>
      </trkpt>
      <trkpt lat="45.12374" lon="1.90247">
        <ele>231.81</ele>
        <time>2012-08-30T12:50:42Z</time>
      </trkpt>
      <trkpt lat="45.12367" lon="1.90254">
        <ele>232.78</ele>
        <time>2012-08-30T12:50:51Z</time>
      </trkpt>
      <trkpt lat="45.12363" lon="1.90258">
        <ele>233.74</ele>
        <time>2012-08-30T12:50:58Z</time>
      </trkpt>
      <trkpt lat="45.12359" lon="1.90261">
        <ele>235.66</ele>
        <time>2012-08-30T12:51:05Z</time>
      </trkpt>
      <trkpt lat="45.12352" lon="1.90264">
        <ele>237.1</ele>
        <time>2012-08-30T12:51:13Z</time>
      </trkpt>
      <trkpt lat="45.12347" lon="1.90265">
        <ele>237.58</ele>
        <time>2012-08-30T12:51:16Z</time>
      </trkpt>
      <trkpt lat="45.12335" lon="1.90262">
        <ele>239.02</ele>
        <time>2012-08-30T12:51:25Z</time>
      </trkpt>
      <trkpt lat="45.1233" lon="1.90262">
        <ele>239.99</ele>
        <time>2012-08-30T12:51:33Z</time>
      </trkpt>
      <trkpt lat="45.1232" lon="1.90262">
        <ele>241.43</ele>
        <time>2012-08-30T12:51:42Z</time>
      </trkpt>
      <trkpt lat="45.12314" lon="1.90266">
        <ele>242.39</ele>
        <time>2012-08-30T12:51:50Z</time>
      </trkpt>
      <trkpt lat="45.12313" lon="1.9027">
        <ele>243.83</ele>
        <time>2012-08-30T12:51:57Z</time>
      </trkpt>
      <trkpt lat="45.12314" lon="1.90272">
        <ele>244.79</ele>
        <time>2012-08-30T12:52:07Z</time>
      </trkpt>
      <trkpt lat="45.12318" lon="1.90277">
        <ele>245.75</ele>
        <time>2012-08-30T12:52:15Z</time>
      </trkpt>
      <trkpt lat="45.12325" lon="1.90286">
        <ele>247.68</ele>
        <time>2012-08-30T12:52:25Z</time>
      </trkpt>
      <trkpt lat="45.12339" lon="1.90299">
        <ele>249.6</ele>
        <time>2012-08-30T12:52:35Z</time>
      </trkpt>
      <trkpt lat="45.12348" lon="1.90306">
        <ele>251.52</ele>
        <time>2012-08-30T12:52:44Z</time>
      </trkpt>
      <trkpt lat="45.12354" lon="1.90307">
        <ele>252.96</ele>
        <time>2012-08-30T12:52:53Z</time>
      </trkpt>
      <trkpt lat="45.12359" lon="1.90311">
        <ele>254.89</ele>
        <time>2012-08-30T12:53:02Z</time>
      </trkpt>
      <trkpt lat="45.12361" lon="1.90314">
        <ele>255.37</ele>
        <time>2012-08-30T12:53:04Z</time>
      </trkpt>
      <trkpt lat="45.12369" lon="1.9032">
        <ele>257.29</ele>
        <time>2012-08-30T12:53:14Z</time>
      </trkpt>
      <trkpt lat="45.12376" lon="1.90324">
        <ele>258.25</ele>
        <time>2012-08-30T12:53:23Z</time>
      </trkpt>
      <trkpt lat="45.12378" lon="1.90326">
        <ele>259.69</ele>
        <time>2012-08-30T12:53:31Z</time>
      </trkpt>
      <trkpt lat="45.12375" lon="1.90321">
        <ele>260.65</ele>
        <time>2012-08-30T12:53:39Z</time>
      </trkpt>
      <trkpt lat="45.12371" lon="1.90325">
        <ele>261.62</ele>
        <time>2012-08-30T12:53:46Z</time>
      </trkpt>
      <trkpt lat="45.12363" lon="1.90328">
        <ele>263.06</ele>
        <time>2012-08-30T12:53:54Z</time>
      </trkpt>
      <trkpt lat="45.12356" lon="1.90331">
        <ele>264.02</ele>
        <time>2012-08-30T12:54:02Z</time>
      </trkpt>
      <trkpt lat="45.12351" lon="1.90335">
        <ele>265.94</ele>
        <time>2012-08-30T12:54:11Z</time>
      </trkpt>
      <trkpt lat="45.12354" lon="1.90338">
        <ele>267.38</ele>
        <time>2012-08-30T12:54:22Z</time>
      </trkpt>
      <trkpt lat="45.12356" lon="1.90339">
        <ele>267.38</ele>
        <time>2012-08-30T12:54:25Z</time>
      </trkpt>
      <trkpt lat="45.12362" lon="1.90345">
        <ele>268.83</ele>
        <time>2012-08-30T12:54:34Z</time>
      </trkpt>
      <trkpt lat="45.12364" lon="1.90347">
        <ele>270.27</ele>
        <time>2012-08-30T12:54:42Z</time>
      </trkpt>
      <trkpt lat="45.1237" lon="1.90351">
        <ele>271.23</ele>
        <time>2012-08-30T12:54:50Z</time>
      </trkpt>
      <trkpt lat="45.12378" lon="1.90354">
        <ele>272.67</ele>
        <time>2012-08-30T12:54:58Z</time>
      </trkpt>
      <trkpt lat="45.12381" lon="1.90355">
        <ele>273.63</ele>
        <time>2012-08-30T12:55:06Z</time>
      </trkpt>
      <trkpt lat="45.12394" lon="1.90359">
        <ele>275.56</ele>
        <time>2012-08-30T12:55:15Z</time>
      </trkpt>
      <trkpt lat="45.12398" lon="1.90363">
        <ele>277.48</ele>
        <time>2012-08-30T12:55:23Z</time>
      </trkpt>
      <trkpt lat="45.12394" lon="1.90359">
        <ele>278.92</ele>
        <time>2012-08-30T12:55:31Z</time>
      </trkpt>
      <trkpt lat="45.12392" lon="1.9036">
        <ele>278.92</ele>
        <time>2012-08-30T12:55:33Z</time>
      </trkpt>
      <trkpt lat="45.12387" lon="1.90364">
        <ele>278.92</ele>
        <time>2012-08-30T12:55:41Z</time>
      </trkpt>
      <trkpt lat="45.1238" lon="1.90367">
        <ele>279.4</ele>
        <time>2012-08-30T12:55:48Z</time>
      </trkpt>
      <trkpt lat="45.12373" lon="1.90368">
        <ele>279.88</ele>
        <time>2012-08-30T12:55:55Z</time>
      </trkpt>
      <trkpt lat="45.12368" lon="1.90371">
        <ele>280.84</ele>
        <time>2012-08-30T12:56:00Z</time>
      </trkpt>
      <trkpt lat="45.12363" lon="1.90372">
        <ele>280.84</ele>
        <time>2012-08-30T12:56:06Z</time>
      </trkpt>
      <trkpt lat="45.12358" lon="1.90375">
        <ele>283.25</ele>
        <time>2012-08-30T12:56:14Z</time>
      </trkpt>
      <trkpt lat="45.12348" lon="1.90379">
        <ele>285.17</ele>
        <time>2012-08-30T12:56:23Z</time>
      </trkpt>
      <trkpt lat="45.12347" lon="1.9038">
        <ele>285.17</ele>
        <time>2012-08-30T12:56:25Z</time>
      </trkpt>
      <trkpt lat="45.12338" lon="1.90387">
        <ele>291.9</ele>
        <time>2012-08-30T12:56:34Z</time>
      </trkpt>
      <trkpt lat="45.12338" lon="1.90388">
        <ele>286.13</ele>
        <time>2012-08-30T12:56:35Z</time>
      </trkpt>
      <trkpt lat="45.12337" lon="1.90389">
        <ele>280.36</ele>
        <time>2012-08-30T12:56:38Z</time>
      </trkpt>
      <trkpt lat="45.12337" lon="1.90389">
        <ele>282.77</ele>
        <time>2012-08-30T12:56:39Z</time>
      </trkpt>
      <trkpt lat="45.12337" lon="1.90389">
        <ele>287.57</ele>
        <time>2012-08-30T12:56:40Z</time>
      </trkpt>
      <trkpt lat="45.12337" lon="1.90389">
        <ele>290.94</ele>
        <time>2012-08-30T12:56:44Z</time>
      </trkpt>
      <trkpt lat="45.12337" lon="1.90389">
        <ele>297.67</ele>
        <time>2012-08-30T12:56:45Z</time>
      </trkpt>
      <trkpt lat="45.12337" lon="1.90389">
        <ele>287.09</ele>
        <time>2012-08-30T12:56:46Z</time>
      </trkpt>
      <trkpt lat="45.12337" lon="1.90389">
        <ele>287.09</ele>
        <time>2012-08-30T12:56:47Z</time>
      </trkpt>
      <trkpt lat="45.12337" lon="1.90389">
        <ele>291.42</ele>
        <time>2012-08-30T12:56:50Z</time>
      </trkpt>
      <trkpt lat="45.12337" lon="1.90389">
        <ele>285.65</ele>
        <time>2012-08-30T12:56:51Z</time>
      </trkpt>
      <trkpt lat="45.12336" lon="1.90391">
        <ele>289.49</ele>
        <time>2012-08-30T12:56:53Z</time>
      </trkpt>
      <trkpt lat="45.12334" lon="1.90392">
        <ele>287.09</ele>
        <time>2012-08-30T12:56:54Z</time>
      </trkpt>
      <trkpt lat="45.12325" lon="1.90409">
        <ele>286.13</ele>
        <time>2012-08-30T12:57:02Z</time>
      </trkpt>
      <trkpt lat="45.12316" lon="1.90419">
        <ele>287.09</ele>
        <time>2012-08-30T12:57:09Z</time>
      </trkpt>
      <trkpt lat="45.12313" lon="1.90429">
        <ele>288.05</ele>
        <time>2012-08-30T12:57:16Z</time>
      </trkpt>
      <trkpt lat="45.12318" lon="1.90433">
        <ele>289.01</ele>
        <time>2012-08-30T12:57:24Z</time>
      </trkpt>
      <trkpt lat="45.12325" lon="1.90434">
        <ele>290.46</ele>
        <time>2012-08-30T12:57:32Z</time>
      </trkpt>
      <trkpt lat="45.12334" lon="1.90437">
        <ele>291.9</ele>
        <time>2012-08-30T12:57:40Z</time>
      </trkpt>
      <trkpt lat="45.1234" lon="1.90442">
        <ele>293.34</ele>
        <time>2012-08-30T12:57:47Z</time>
      </trkpt>
      <trkpt lat="45.12342" lon="1.90444">
        <ele>293.82</ele>
        <time>2012-08-30T12:57:53Z</time>
      </trkpt>
      <trkpt lat="45.12349" lon="1.90449">
        <ele>295.26</ele>
        <time>2012-08-30T12:58:01Z</time>
      </trkpt>
      <trkpt lat="45.12358" lon="1.90453">
        <ele>297.18</ele>
        <time>2012-08-30T12:58:08Z</time>
      </trkpt>
      <trkpt lat="45.12364" lon="1.90456">
        <ele>298.15</ele>
        <time>2012-08-30T12:58:15Z</time>
      </trkpt>
      <trkpt lat="45.1237" lon="1.90458">
        <ele>299.11</ele>
        <time>2012-08-30T12:58:22Z</time>
      </trkpt>
      <trkpt lat="45.12377" lon="1.90463">
        <ele>300.55</ele>
        <time>2012-08-30T12:58:29Z</time>
      </trkpt>
      <trkpt lat="45.12383" lon="1.90465">
        <ele>301.51</ele>
        <time>2012-08-30T12:58:35Z</time>
      </trkpt>
      <trkpt lat="45.12387" lon="1.90467">
        <ele>301.51</ele>
        <time>2012-08-30T12:58:42Z</time>
      </trkpt>
      <trkpt lat="45.12394" lon="1.90471">
        <ele>302.95</ele>
        <time>2012-08-30T12:58:50Z</time>
      </trkpt>
      <trkpt lat="45.12394" lon="1.90468">
        <ele>303.91</ele>
        <time>2012-08-30T12:58:55Z</time>
      </trkpt>
      <trkpt lat="45.12391" lon="1.90464">
        <ele>304.88</ele>
        <time>2012-08-30T12:59:01Z</time>
      </trkpt>
      <trkpt lat="45.12386" lon="1.90456">
        <ele>305.84</ele>
        <time>2012-08-30T12:59:08Z</time>
      </trkpt>
      <trkpt lat="45.12385" lon="1.90454">
        <ele>305.36</ele>
        <time>2012-08-30T12:59:10Z</time>
      </trkpt>
      <trkpt lat="45.12382" lon="1.90444">
        <ele>306.32</ele>
        <time>2012-08-30T12:59:16Z</time>
      </trkpt>
      <trkpt lat="45.12382" lon="1.90442">
        <ele>305.84</ele>
        <time>2012-08-30T12:59:18Z</time>
      </trkpt>
      <trkpt lat="45.12384" lon="1.90435">
        <ele>306.8</ele>
        <time>2012-08-30T12:59:26Z</time>
      </trkpt>
      <trkpt lat="45.12389" lon="1.90436">
        <ele>307.76</ele>
        <time>2012-08-30T12:59:33Z</time>
      </trkpt>
      <trkpt lat="45.12389" lon="1.90436">
        <ele>307.76</ele>
        <time>2012-08-30T12:59:42Z</time>
      </trkpt>
      <trkpt lat="45.12389" lon="1.90436">
        <ele>311.12</ele>
        <time>2012-08-30T12:59:49Z</time>
      </trkpt>
      <trkpt lat="45.12389" lon="1.90436">
        <ele>307.28</ele>
        <time>2012-08-30T12:59:52Z</time>
      </trkpt>
      <trkpt lat="45.1239" lon="1.90437">
        <ele>308.72</ele>
        <time>2012-08-30T13:00:04Z</time>
      </trkpt>
      <trkpt lat="45.12391" lon="1.90437">
        <ele>308.24</ele>
        <time>2012-08-30T13:00:11Z</time>
      </trkpt>
      <trkpt lat="45.12397" lon="1.90437">
        <ele>308.24</ele>
        <time>2012-08-30T13:00:19Z</time>
      </trkpt>
      <trkpt lat="45.12404" lon="1.90443">
        <ele>310.16</ele>
        <time>2012-08-30T13:00:26Z</time>
      </trkpt>
      <trkpt lat="45.12408" lon="1.90446">
        <ele>311.12</ele>
        <time>2012-08-30T13:00:31Z</time>
      </trkpt>
      <trkpt lat="45.12418" lon="1.90454">
        <ele>312.57</ele>
        <time>2012-08-30T13:00:39Z</time>
      </trkpt>
      <trkpt lat="45.12423" lon="1.90459">
        <ele>313.53</ele>
        <time>2012-08-30T13:00:45Z</time>
      </trkpt>
      <trkpt lat="45.12431" lon="1.90462">
        <ele>314.97</ele>
        <time>2012-08-30T13:00:52Z</time>
      </trkpt>
      <trkpt lat="45.12431" lon="1.90463">
        <ele>315.93</ele>
        <time>2012-08-30T13:00:55Z</time>
      </trkpt>
      <trkpt lat="45.12441" lon="1.90469">
        <ele>317.85</ele>
        <time>2012-08-30T13:01:03Z</time>
      </trkpt>
      <trkpt lat="45.12446" lon="1.90473">
        <ele>319.78</ele>
        <time>2012-08-30T13:01:10Z</time>
      </trkpt>
      <trkpt lat="45.12452" lon="1.90478">
        <ele>321.7</ele>
        <time>2012-08-30T13:01:18Z</time>
      </trkpt>
      <trkpt lat="45.12458" lon="1.90484">
        <ele>322.18</ele>
        <time>2012-08-30T13:01:27Z</time>
      </trkpt>
      <trkpt lat="45.12461" lon="1.90487">
        <ele>325.54</ele>
        <time>2012-08-30T13:01:34Z</time>
      </trkpt>
      <trkpt lat="45.12466" lon="1.90492">
        <ele>326.02</ele>
        <time>2012-08-30T13:01:42Z</time>
      </trkpt>
      <trkpt lat="45.12468" lon="1.90498">
        <ele>327.95</ele>
        <time>2012-08-30T13:01:48Z</time>
      </trkpt>
      <trkpt lat="45.12473" lon="1.90498">
        <ele>328.91</ele>
        <time>2012-08-30T13:01:54Z</time>
      </trkpt>
      <trkpt lat="45.12477" lon="1.90499">
        <ele>329.39</ele>
        <time>2012-08-30T13:01:59Z</time>
      </trkpt>
      <trkpt lat="45.12483" lon="1.90501">
        <ele>330.83</ele>
        <time>2012-08-30T13:02:04Z</time>
      </trkpt>
      <trkpt lat="45.12484" lon="1.90502">
        <ele>331.79</ele>
        <time>2012-08-30T13:02:08Z</time>
      </trkpt>
      <trkpt lat="45.12487" lon="1.90506">
        <ele>331.79</ele>
        <time>2012-08-30T13:02:12Z</time>
      </trkpt>
      <trkpt lat="45.12493" lon="1.90512">
        <ele>333.23</ele>
        <time>2012-08-30T13:02:19Z</time>
      </trkpt>
      <trkpt lat="45.12499" lon="1.90517">
        <ele>334.68</ele>
        <time>2012-08-30T13:02:25Z</time>
      </trkpt>
      <trkpt lat="45.12502" lon="1.90521">
        <ele>336.12</ele>
        <time>2012-08-30T13:02:32Z</time>
      </trkpt>
      <trkpt lat="45.12507" lon="1.90526">
        <ele>337.56</ele>
        <time>2012-08-30T13:02:40Z</time>
      </trkpt>
      <trkpt lat="45.12509" lon="1.9053">
        <ele>338.04</ele>
        <time>2012-08-30T13:02:48Z</time>
      </trkpt>
      <trkpt lat="45.12509" lon="1.9053">
        <ele>338.52</ele>
        <time>2012-08-30T13:02:53Z</time>
      </trkpt>
      <trkpt lat="45.12516" lon="1.90531">
        <ele>337.56</ele>
        <time>2012-08-30T13:02:58Z</time>
      </trkpt>
      <trkpt lat="45.12523" lon="1.90533">
        <ele>336.12</ele>
        <time>2012-08-30T13:03:07Z</time>
      </trkpt>
      <trkpt lat="45.12524" lon="1.90533">
        <ele>335.64</ele>
        <time>2012-08-30T13:03:08Z</time>
      </trkpt>
      <trkpt lat="45.12532" lon="1.90535">
        <ele>335.64</ele>
        <time>2012-08-30T13:03:18Z</time>
      </trkpt>
      <trkpt lat="45.12538" lon="1.90538">
        <ele>335.16</ele>
        <time>2012-08-30T13:03:26Z</time>
      </trkpt>
      <trkpt lat="45.12541" lon="1.90539">
        <ele>335.16</ele>
        <time>2012-08-30T13:03:36Z</time>
      </trkpt>
      <trkpt lat="45.12544" lon="1.90541">
        <ele>333.71</ele>
        <time>2012-08-30T13:03:41Z</time>
      </trkpt>
      <trkpt lat="45.1255" lon="1.90545">
        <ele>334.2</ele>
        <time>2012-08-30T13:03:48Z</time>
      </trkpt>
      <trkpt lat="45.12551" lon="1.90544">
        <ele>335.16</ele>
        <time>2012-08-30T13:03:55Z</time>
      </trkpt>
      <trkpt lat="45.12551" lon="1.90544">
        <ele>333.71</ele>
        <time>2012-08-30T13:04:13Z</time>
      </trkpt>
      <trkpt lat="45.12551" lon="1.90544">
        <ele>333.71</ele>
        <time>2012-08-30T13:04:27Z</time>
      </trkpt>
      <trkpt lat="45.12554" lon="1.90543">
        <ele>333.71</ele>
        <time>2012-08-30T13:04:40Z</time>
      </trkpt>
      <trkpt lat="45.12555" lon="1.90543">
        <ele>333.23</ele>
        <time>2012-08-30T13:04:46Z</time>
      </trkpt>
      <trkpt lat="45.12559" lon="1.90543">
        <ele>331.79</ele>
        <time>2012-08-30T13:04:52Z</time>
      </trkpt>
      <trkpt lat="45.12577" lon="1.90543">
        <ele>330.35</ele>
        <time>2012-08-30T13:04:58Z</time>
      </trkpt>
      <trkpt lat="45.12595" lon="1.90548">
        <ele>330.35</ele>
        <time>2012-08-30T13:05:05Z</time>
      </trkpt>
      <trkpt lat="45.12611" lon="1.90555">
        <ele>329.39</ele>
        <time>2012-08-30T13:05:11Z</time>
      </trkpt>
      <trkpt lat="45.12632" lon="1.90564">
        <ele>328.43</ele>
        <time>2012-08-30T13:05:20Z</time>
      </trkpt>
      <trkpt lat="45.12644" lon="1.90564">
        <ele>326.5</ele>
        <time>2012-08-30T13:05:27Z</time>
      </trkpt>
      <trkpt lat="45.12655" lon="1.90566">
        <ele>324.58</ele>
        <time>2012-08-30T13:05:36Z</time>
      </trkpt>
      <trkpt lat="45.12659" lon="1.90567">
        <ele>323.62</ele>
        <time>2012-08-30T13:05:40Z</time>
      </trkpt>
      <trkpt lat="45.12668" lon="1.90558">
        <ele>325.06</ele>
        <time>2012-08-30T13:05:48Z</time>
      </trkpt>
      <trkpt lat="45.12668" lon="1.90552">
        <ele>325.54</ele>
        <time>2012-08-30T13:05:53Z</time>
      </trkpt>
      <trkpt lat="45.12668" lon="1.90543">
        <ele>326.02</ele>
        <time>2012-08-30T13:05:59Z</time>
      </trkpt>
      <trkpt lat="45.12668" lon="1.90542">
        <ele>325.54</ele>
        <time>2012-08-30T13:06:00Z</time>
      </trkpt>
      <trkpt lat="45.12667" lon="1.9053">
        <ele>326.02</ele>
        <time>2012-08-30T13:06:07Z</time>
      </trkpt>
      <trkpt lat="45.12667" lon="1.90521">
        <ele>326.02</ele>
        <time>2012-08-30T13:06:11Z</time>
      </trkpt>
      <trkpt lat="45.12664" lon="1.90507">
        <ele>326.99</ele>
        <time>2012-08-30T13:06:18Z</time>
      </trkpt>
      <trkpt lat="45.12661" lon="1.90497">
        <ele>326.99</ele>
        <time>2012-08-30T13:06:24Z</time>
      </trkpt>
      <trkpt lat="45.12654" lon="1.90481">
        <ele>326.99</ele>
        <time>2012-08-30T13:06:32Z</time>
      </trkpt>
      <trkpt lat="45.12647" lon="1.90468">
        <ele>326.99</ele>
        <time>2012-08-30T13:06:40Z</time>
      </trkpt>
      <trkpt lat="45.12644" lon="1.90462">
        <ele>326.99</ele>
        <time>2012-08-30T13:06:45Z</time>
      </trkpt>
      <trkpt lat="45.12639" lon="1.90452">
        <ele>327.47</ele>
        <time>2012-08-30T13:06:51Z</time>
      </trkpt>
      <trkpt lat="45.12633" lon="1.9044">
        <ele>327.47</ele>
        <time>2012-08-30T13:06:58Z</time>
      </trkpt>
      <trkpt lat="45.12632" lon="1.90427">
        <ele>326.5</ele>
        <time>2012-08-30T13:07:04Z</time>
      </trkpt>
      <trkpt lat="45.12629" lon="1.90417">
        <ele>326.5</ele>
        <time>2012-08-30T13:07:10Z</time>
      </trkpt>
      <trkpt lat="45.12626" lon="1.90411">
        <ele>326.5</ele>
        <time>2012-08-30T13:07:14Z</time>
      </trkpt>
      <trkpt lat="45.12625" lon="1.90406">
        <ele>326.5</ele>
        <time>2012-08-30T13:07:17Z</time>
      </trkpt>
      <trkpt lat="45.12619" lon="1.90397">
        <ele>326.99</ele>
        <time>2012-08-30T13:07:23Z</time>
      </trkpt>
      <trkpt lat="45.1262" lon="1.90394">
        <ele>326.99</ele>
        <time>2012-08-30T13:07:25Z</time>
      </trkpt>
      <trkpt lat="45.12624" lon="1.90378">
        <ele>328.43</ele>
        <time>2012-08-30T13:07:33Z</time>
      </trkpt>
      <trkpt lat="45.12625" lon="1.90377">
        <ele>329.39</ele>
        <time>2012-08-30T13:07:40Z</time>
      </trkpt>
      <trkpt lat="45.12625" lon="1.90377">
        <ele>330.35</ele>
        <time>2012-08-30T13:07:41Z</time>
      </trkpt>
      <trkpt lat="45.12628" lon="1.90378">
        <ele>330.83</ele>
        <time>2012-08-30T13:07:45Z</time>
      </trkpt>
      <trkpt lat="45.12634" lon="1.90384">
        <ele>332.75</ele>
        <time>2012-08-30T13:07:53Z</time>
      </trkpt>
      <trkpt lat="45.12642" lon="1.90393">
        <ele>334.68</ele>
        <time>2012-08-30T13:08:01Z</time>
      </trkpt>
      <trkpt lat="45.12647" lon="1.90399">
        <ele>336.12</ele>
        <time>2012-08-30T13:08:07Z</time>
      </trkpt>
      <trkpt lat="45.12651" lon="1.90405">
        <ele>337.56</ele>
        <time>2012-08-30T13:08:14Z</time>
      </trkpt>
      <trkpt lat="45.12655" lon="1.9041">
        <ele>339.48</ele>
        <time>2012-08-30T13:08:20Z</time>
      </trkpt>
      <trkpt lat="45.12656" lon="1.9041">
        <ele>340.44</ele>
        <time>2012-08-30T13:08:26Z</time>
      </trkpt>
      <trkpt lat="45.12658" lon="1.90411">
        <ele>342.37</ele>
        <time>2012-08-30T13:08:34Z</time>
      </trkpt>
      <trkpt lat="45.12658" lon="1.90411">
        <ele>343.33</ele>
        <time>2012-08-30T13:08:40Z</time>
      </trkpt>
      <trkpt lat="45.12658" lon="1.90411">
        <ele>345.25</ele>
        <time>2012-08-30T13:08:49Z</time>
      </trkpt>
      <trkpt lat="45.12659" lon="1.90411">
        <ele>346.69</ele>
        <time>2012-08-30T13:08:57Z</time>
      </trkpt>
      <trkpt lat="45.12661" lon="1.90411">
        <ele>348.13</ele>
        <time>2012-08-30T13:09:05Z</time>
      </trkpt>
      <trkpt lat="45.12661" lon="1.90411">
        <ele>350.06</ele>
        <time>2012-08-30T13:09:14Z</time>
      </trkpt>
      <trkpt lat="45.12664" lon="1.9041">
        <ele>351.5</ele>
        <time>2012-08-30T13:09:21Z</time>
      </trkpt>
      <trkpt lat="45.12664" lon="1.9041">
        <ele>352.94</ele>
        <time>2012-08-30T13:09:30Z</time>
      </trkpt>
      <trkpt lat="45.12664" lon="1.9041">
        <ele>353.42</ele>
        <time>2012-08-30T13:09:37Z</time>
      </trkpt>
      <trkpt lat="45.1267" lon="1.90411">
        <ele>355.83</ele>
        <time>2012-08-30T13:09:46Z</time>
      </trkpt>
      <trkpt lat="45.12677" lon="1.90409">
        <ele>356.79</ele>
        <time>2012-08-30T13:09:51Z</time>
      </trkpt>
      <trkpt lat="45.12697" lon="1.9041">
        <ele>357.75</ele>
        <time>2012-08-30T13:09:58Z</time>
      </trkpt>
      <trkpt lat="45.12711" lon="1.9041">
        <ele>357.75</ele>
        <time>2012-08-30T13:10:03Z</time>
      </trkpt>
      <trkpt lat="45.12718" lon="1.90411">
        <ele>356.31</ele>
        <time>2012-08-30T13:10:10Z</time>
      </trkpt>
      <trkpt lat="45.12718" lon="1.90411">
        <ele>349.1</ele>
        <time>2012-08-30T13:10:11Z</time>
      </trkpt>
      <trkpt lat="45.12718" lon="1.90411">
        <ele>357.75</ele>
        <time>2012-08-30T13:10:12Z</time>
      </trkpt>
      <trkpt lat="45.12718" lon="1.90411">
        <ele>358.23</ele>
        <time>2012-08-30T13:10:13Z</time>
      </trkpt>
      <trkpt lat="45.12718" lon="1.90411">
        <ele>357.27</ele>
        <time>2012-08-30T13:10:23Z</time>
      </trkpt>
      <trkpt lat="45.12718" lon="1.90411">
        <ele>356.31</ele>
        <time>2012-08-30T13:10:29Z</time>
      </trkpt>
      <trkpt lat="45.12742" lon="1.90426">
        <ele>358.23</ele>
        <time>2012-08-30T13:10:39Z</time>
      </trkpt>
      <trkpt lat="45.12748" lon="1.90439">
        <ele>358.71</ele>
        <time>2012-08-30T13:10:46Z</time>
      </trkpt>
      <trkpt lat="45.12754" lon="1.90454">
        <ele>359.19</ele>
        <time>2012-08-30T13:10:53Z</time>
      </trkpt>
      <trkpt lat="45.12759" lon="1.90466">
        <ele>359.67</ele>
        <time>2012-08-30T13:10:59Z</time>
      </trkpt>
      <trkpt lat="45.1276" lon="1.90473">
        <ele>359.67</ele>
        <time>2012-08-30T13:11:03Z</time>
      </trkpt>
      <trkpt lat="45.1276" lon="1.90475">
        <ele>360.15</ele>
        <time>2012-08-30T13:11:05Z</time>
      </trkpt>
      <trkpt lat="45.12758" lon="1.90484">
        <ele>360.15</ele>
        <time>2012-08-30T13:11:12Z</time>
      </trkpt>
      <trkpt lat="45.1276" lon="1.90492">
        <ele>360.63</ele>
        <time>2012-08-30T13:11:20Z</time>
      </trkpt>
      <trkpt lat="45.12759" lon="1.90498">
        <ele>361.11</ele>
        <time>2012-08-30T13:11:26Z</time>
      </trkpt>
      <trkpt lat="45.12763" lon="1.90506">
        <ele>361.59</ele>
        <time>2012-08-30T13:11:32Z</time>
      </trkpt>
      <trkpt lat="45.12764" lon="1.90507">
        <ele>361.59</ele>
        <time>2012-08-30T13:11:33Z</time>
      </trkpt>
      <trkpt lat="45.12769" lon="1.90516">
        <ele>363.04</ele>
        <time>2012-08-30T13:11:39Z</time>
      </trkpt>
      <trkpt lat="45.12782" lon="1.90532">
        <ele>363.52</ele>
        <time>2012-08-30T13:11:46Z</time>
      </trkpt>
      <trkpt lat="45.12789" lon="1.9054">
        <ele>364</ele>
        <time>2012-08-30T13:11:50Z</time>
      </trkpt>
      <trkpt lat="45.12795" lon="1.90546">
        <ele>364.48</ele>
        <time>2012-08-30T13:11:59Z</time>
      </trkpt>
      <trkpt lat="45.128" lon="1.90552">
        <ele>365.92</ele>
        <time>2012-08-30T13:12:06Z</time>
      </trkpt>
      <trkpt lat="45.12804" lon="1.90556">
        <ele>365.92</ele>
        <time>2012-08-30T13:12:08Z</time>
      </trkpt>
      <trkpt lat="45.12815" lon="1.9057">
        <ele>364.96</ele>
        <time>2012-08-30T13:12:14Z</time>
      </trkpt>
      <trkpt lat="45.12819" lon="1.90573">
        <ele>366.88</ele>
        <time>2012-08-30T13:12:18Z</time>
      </trkpt>
      <trkpt lat="45.1282" lon="1.90577">
        <ele>367.36</ele>
        <time>2012-08-30T13:12:25Z</time>
      </trkpt>
      <trkpt lat="45.12827" lon="1.90585">
        <ele>367.84</ele>
        <time>2012-08-30T13:12:31Z</time>
      </trkpt>
      <trkpt lat="45.12835" lon="1.90595">
        <ele>368.8</ele>
        <time>2012-08-30T13:12:38Z</time>
      </trkpt>
      <trkpt lat="45.1284" lon="1.90605">
        <ele>369.28</ele>
        <time>2012-08-30T13:12:46Z</time>
      </trkpt>
      <trkpt lat="45.12841" lon="1.90605">
        <ele>369.28</ele>
        <time>2012-08-30T13:12:49Z</time>
      </trkpt>
      <trkpt lat="45.12842" lon="1.90607">
        <ele>368.8</ele>
        <time>2012-08-30T13:12:55Z</time>
      </trkpt>
      <trkpt lat="45.12843" lon="1.90608">
        <ele>368.32</ele>
        <time>2012-08-30T13:12:56Z</time>
      </trkpt>
      <trkpt lat="45.12846" lon="1.90612">
        <ele>368.8</ele>
        <time>2012-08-30T13:12:58Z</time>
      </trkpt>
      <trkpt lat="45.12852" lon="1.90625">
        <ele>369.28</ele>
        <time>2012-08-30T13:13:06Z</time>
      </trkpt>
      <trkpt lat="45.12852" lon="1.90626">
        <ele>368.8</ele>
        <time>2012-08-30T13:13:15Z</time>
      </trkpt>
      <trkpt lat="45.12853" lon="1.90625">
        <ele>369.28</ele>
        <time>2012-08-30T13:13:28Z</time>
      </trkpt>
      <trkpt lat="45.12851" lon="1.90622">
        <ele>368.32</ele>
        <time>2012-08-30T13:13:34Z</time>
      </trkpt>
      <trkpt lat="45.12853" lon="1.90624">
        <ele>369.28</ele>
        <time>2012-08-30T13:13:40Z</time>
      </trkpt>
      <trkpt lat="45.12855" lon="1.90629">
        <ele>368.8</ele>
        <time>2012-08-30T13:13:45Z</time>
      </trkpt>
      <trkpt lat="45.12855" lon="1.90628">
        <ele>369.76</ele>
        <time>2012-08-30T13:13:53Z</time>
      </trkpt>
      <trkpt lat="45.12855" lon="1.90627">
        <ele>369.28</ele>
        <time>2012-08-30T13:14:04Z</time>
      </trkpt>
      <trkpt lat="45.12856" lon="1.90629">
        <ele>364.96</ele>
        <time>2012-08-30T13:14:10Z</time>
      </trkpt>
      <trkpt lat="45.12856" lon="1.90629">
        <ele>369.76</ele>
        <time>2012-08-30T13:14:11Z</time>
      </trkpt>
      <trkpt lat="45.12858" lon="1.90632">
        <ele>368.8</ele>
        <time>2012-08-30T13:14:17Z</time>
      </trkpt>
      <trkpt lat="45.12864" lon="1.90644">
        <ele>370.24</ele>
        <time>2012-08-30T13:14:23Z</time>
      </trkpt>
      <trkpt lat="45.12882" lon="1.90673">
        <ele>369.76</ele>
        <time>2012-08-30T13:14:33Z</time>
      </trkpt>
      <trkpt lat="45.12898" lon="1.90689">
        <ele>370.24</ele>
        <time>2012-08-30T13:14:40Z</time>
      </trkpt>
      <trkpt lat="45.12908" lon="1.90709">
        <ele>371.69</ele>
        <time>2012-08-30T13:14:48Z</time>
      </trkpt>
      <trkpt lat="45.12912" lon="1.90758">
        <ele>372.17</ele>
        <time>2012-08-30T13:14:57Z</time>
      </trkpt>
      <trkpt lat="45.12926" lon="1.90803">
        <ele>370.24</ele>
        <time>2012-08-30T13:15:05Z</time>
      </trkpt>
      <trkpt lat="45.12943" lon="1.90835">
        <ele>366.4</ele>
        <time>2012-08-30T13:15:10Z</time>
      </trkpt>
      <trkpt lat="45.12973" lon="1.90877">
        <ele>363.04</ele>
        <time>2012-08-30T13:15:16Z</time>
      </trkpt>
      <trkpt lat="45.13001" lon="1.90902">
        <ele>361.59</ele>
        <time>2012-08-30T13:15:21Z</time>
      </trkpt>
      <trkpt lat="45.13033" lon="1.90928">
        <ele>359.19</ele>
        <time>2012-08-30T13:15:27Z</time>
      </trkpt>
      <trkpt lat="45.13069" lon="1.90974">
        <ele>356.79</ele>
        <time>2012-08-30T13:15:35Z</time>
      </trkpt>
      <trkpt lat="45.13083" lon="1.90982">
        <ele>356.31</ele>
        <time>2012-08-30T13:15:37Z</time>
      </trkpt>
      <trkpt lat="45.13091" lon="1.90982">
        <ele>354.86</ele>
        <time>2012-08-30T13:15:38Z</time>
      </trkpt>
      <trkpt lat="45.13098" lon="1.90982">
        <ele>354.86</ele>
        <time>2012-08-30T13:15:39Z</time>
      </trkpt>
      <trkpt lat="45.13113" lon="1.9099">
        <ele>352.46</ele>
        <time>2012-08-30T13:15:43Z</time>
      </trkpt>
      <trkpt lat="45.13114" lon="1.90994">
        <ele>352.46</ele>
        <time>2012-08-30T13:15:44Z</time>
      </trkpt>
      <trkpt lat="45.13114" lon="1.90998">
        <ele>352.94</ele>
        <time>2012-08-30T13:15:45Z</time>
      </trkpt>
      <trkpt lat="45.13113" lon="1.91002">
        <ele>351.98</ele>
        <time>2012-08-30T13:15:46Z</time>
      </trkpt>
      <trkpt lat="45.13112" lon="1.91006">
        <ele>351.98</ele>
        <time>2012-08-30T13:15:47Z</time>
      </trkpt>
      <trkpt lat="45.13102" lon="1.91023">
        <ele>351.02</ele>
        <time>2012-08-30T13:15:51Z</time>
      </trkpt>
      <trkpt lat="45.13099" lon="1.91026">
        <ele>350.06</ele>
        <time>2012-08-30T13:15:52Z</time>
      </trkpt>
      <trkpt lat="45.13096" lon="1.91029">
        <ele>350.06</ele>
        <time>2012-08-30T13:15:53Z</time>
      </trkpt>
      <trkpt lat="45.13088" lon="1.91035">
        <ele>348.13</ele>
        <time>2012-08-30T13:15:55Z</time>
      </trkpt>
      <trkpt lat="45.13074" lon="1.91055">
        <ele>347.17</ele>
        <time>2012-08-30T13:16:00Z</time>
      </trkpt>
      <trkpt lat="45.13054" lon="1.91108">
        <ele>344.29</ele>
        <time>2012-08-30T13:16:09Z</time>
      </trkpt>
      <trkpt lat="45.1304" lon="1.91143">
        <ele>339.96</ele>
        <time>2012-08-30T13:16:14Z</time>
      </trkpt>
      <trkpt lat="45.13038" lon="1.91151">
        <ele>339</ele>
        <time>2012-08-30T13:16:15Z</time>
      </trkpt>
      <trkpt lat="45.13053" lon="1.91169">
        <ele>338.52</ele>
        <time>2012-08-30T13:16:20Z</time>
      </trkpt>
      <trkpt lat="45.13021" lon="1.91191">
        <ele>338.52</ele>
        <time>2012-08-30T13:16:21Z</time>
      </trkpt>
      <trkpt lat="45.13005" lon="1.91219">
        <ele>337.56</ele>
        <time>2012-08-30T13:16:28Z</time>
      </trkpt>
      <trkpt lat="45.13018" lon="1.91195">
        <ele>340.44</ele>
        <time>2012-08-30T13:16:33Z</time>
      </trkpt>
      <trkpt lat="45.13018" lon="1.91195">
        <ele>329.87</ele>
        <time>2012-08-30T13:16:35Z</time>
      </trkpt>
      <trkpt lat="45.13018" lon="1.91195">
        <ele>339.96</ele>
        <time>2012-08-30T13:16:36Z</time>
      </trkpt>
      <trkpt lat="45.13018" lon="1.91195">
        <ele>338.52</ele>
        <time>2012-08-30T13:16:50Z</time>
      </trkpt>
      <trkpt lat="45.13018" lon="1.91195">
        <ele>339</ele>
        <time>2012-08-30T13:16:54Z</time>
      </trkpt>
      <trkpt lat="45.13039" lon="1.9116">
        <ele>339</ele>
        <time>2012-08-30T13:17:45Z</time>
      </trkpt>
      <trkpt lat="45.13039" lon="1.91159">
        <ele>339</ele>
        <time>2012-08-30T13:17:46Z</time>
      </trkpt>
      <trkpt lat="45.13042" lon="1.91159">
        <ele>338.52</ele>
        <time>2012-08-30T13:17:57Z</time>
      </trkpt>
      <trkpt lat="45.13041" lon="1.91162">
        <ele>338.52</ele>
        <time>2012-08-30T13:17:59Z</time>
      </trkpt>
      <trkpt lat="45.13038" lon="1.91172">
        <ele>338.04</ele>
        <time>2012-08-30T13:18:05Z</time>
      </trkpt>
      <trkpt lat="45.13031" lon="1.91185">
        <ele>339</ele>
        <time>2012-08-30T13:18:13Z</time>
      </trkpt>
      <trkpt lat="45.13029" lon="1.91191">
        <ele>339</ele>
        <time>2012-08-30T13:18:18Z</time>
      </trkpt>
      <trkpt lat="45.13028" lon="1.91192">
        <ele>338.04</ele>
        <time>2012-08-30T13:18:19Z</time>
      </trkpt>
      <trkpt lat="45.13023" lon="1.91204">
        <ele>337.56</ele>
        <time>2012-08-30T13:18:25Z</time>
      </trkpt>
      <trkpt lat="45.1302" lon="1.91216">
        <ele>337.08</ele>
        <time>2012-08-30T13:18:31Z</time>
      </trkpt>
      <trkpt lat="45.13016" lon="1.91224">
        <ele>336.12</ele>
        <time>2012-08-30T13:18:38Z</time>
      </trkpt>
      <trkpt lat="45.13016" lon="1.91229">
        <ele>335.16</ele>
        <time>2012-08-30T13:18:40Z</time>
      </trkpt>
      <trkpt lat="45.13014" lon="1.91248">
        <ele>334.68</ele>
        <time>2012-08-30T13:18:46Z</time>
      </trkpt>
      <trkpt lat="45.13012" lon="1.91259">
        <ele>333.23</ele>
        <time>2012-08-30T13:18:51Z</time>
      </trkpt>
      <trkpt lat="45.1301" lon="1.91268">
        <ele>332.27</ele>
        <time>2012-08-30T13:18:56Z</time>
      </trkpt>
      <trkpt lat="45.13011" lon="1.91272">
        <ele>331.79</ele>
        <time>2012-08-30T13:18:57Z</time>
      </trkpt>
      <trkpt lat="45.13014" lon="1.91282">
        <ele>330.35</ele>
        <time>2012-08-30T13:19:03Z</time>
      </trkpt>
      <trkpt lat="45.13014" lon="1.91291">
        <ele>328.91</ele>
        <time>2012-08-30T13:19:08Z</time>
      </trkpt>
      <trkpt lat="45.13017" lon="1.913">
        <ele>327.95</ele>
        <time>2012-08-30T13:19:13Z</time>
      </trkpt>
      <trkpt lat="45.1302" lon="1.91303">
        <ele>327.47</ele>
        <time>2012-08-30T13:19:18Z</time>
      </trkpt>
      <trkpt lat="45.1302" lon="1.91305">
        <ele>326.99</ele>
        <time>2012-08-30T13:19:24Z</time>
      </trkpt>
      <trkpt lat="45.13021" lon="1.91322">
        <ele>325.06</ele>
        <time>2012-08-30T13:19:30Z</time>
      </trkpt>
      <trkpt lat="45.13022" lon="1.91325">
        <ele>325.06</ele>
        <time>2012-08-30T13:19:31Z</time>
      </trkpt>
      <trkpt lat="45.13025" lon="1.91337">
        <ele>323.62</ele>
        <time>2012-08-30T13:19:34Z</time>
      </trkpt>
      <trkpt lat="45.13031" lon="1.91355">
        <ele>321.7</ele>
        <time>2012-08-30T13:19:38Z</time>
      </trkpt>
      <trkpt lat="45.1303" lon="1.91382">
        <ele>318.81</ele>
        <time>2012-08-30T13:19:44Z</time>
      </trkpt>
      <trkpt lat="45.13014" lon="1.91396">
        <ele>315.45</ele>
        <time>2012-08-30T13:19:49Z</time>
      </trkpt>
      <trkpt lat="45.1301" lon="1.91397">
        <ele>315.45</ele>
        <time>2012-08-30T13:19:50Z</time>
      </trkpt>
      <trkpt lat="45.12988" lon="1.9141">
        <ele>312.57</ele>
        <time>2012-08-30T13:19:57Z</time>
      </trkpt>
      <trkpt lat="45.12986" lon="1.91423">
        <ele>310.64</ele>
        <time>2012-08-30T13:20:00Z</time>
      </trkpt>
      <trkpt lat="45.12991" lon="1.9143">
        <ele>309.68</ele>
        <time>2012-08-30T13:20:02Z</time>
      </trkpt>
      <trkpt lat="45.13018" lon="1.91458">
        <ele>307.28</ele>
        <time>2012-08-30T13:20:13Z</time>
      </trkpt>
      <trkpt lat="45.13035" lon="1.91457">
        <ele>304.39</ele>
        <time>2012-08-30T13:20:20Z</time>
      </trkpt>
      <trkpt lat="45.13042" lon="1.91459">
        <ele>302.95</ele>
        <time>2012-08-30T13:20:23Z</time>
      </trkpt>
      <trkpt lat="45.13065" lon="1.91466">
        <ele>300.07</ele>
        <time>2012-08-30T13:20:31Z</time>
      </trkpt>
      <trkpt lat="45.13082" lon="1.91473">
        <ele>297.18</ele>
        <time>2012-08-30T13:20:38Z</time>
      </trkpt>
      <trkpt lat="45.13084" lon="1.91475">
        <ele>287.09</ele>
        <time>2012-08-30T13:20:39Z</time>
      </trkpt>
      <trkpt lat="45.13086" lon="1.91477">
        <ele>299.11</ele>
        <time>2012-08-30T13:20:40Z</time>
      </trkpt>
      <trkpt lat="45.13093" lon="1.91485">
        <ele>295.74</ele>
        <time>2012-08-30T13:20:43Z</time>
      </trkpt>
      <trkpt lat="45.13096" lon="1.91496">
        <ele>294.3</ele>
        <time>2012-08-30T13:20:46Z</time>
      </trkpt>
      <trkpt lat="45.13091" lon="1.9152">
        <ele>290.94</ele>
        <time>2012-08-30T13:20:53Z</time>
      </trkpt>
      <trkpt lat="45.13085" lon="1.91539">
        <ele>289.01</ele>
        <time>2012-08-30T13:21:00Z</time>
      </trkpt>
      <trkpt lat="45.13095" lon="1.91549">
        <ele>286.61</ele>
        <time>2012-08-30T13:21:07Z</time>
      </trkpt>
      <trkpt lat="45.13106" lon="1.91533">
        <ele>283.73</ele>
        <time>2012-08-30T13:21:14Z</time>
      </trkpt>
      <trkpt lat="45.13107" lon="1.91531">
        <ele>284.21</ele>
        <time>2012-08-30T13:21:15Z</time>
      </trkpt>
      <trkpt lat="45.13115" lon="1.91502">
        <ele>279.88</ele>
        <time>2012-08-30T13:21:23Z</time>
      </trkpt>
      <trkpt lat="45.13115" lon="1.91499">
        <ele>279.4</ele>
        <time>2012-08-30T13:21:24Z</time>
      </trkpt>
      <trkpt lat="45.1312" lon="1.91474">
        <ele>276.52</ele>
        <time>2012-08-30T13:21:30Z</time>
      </trkpt>
      <trkpt lat="45.13121" lon="1.91451">
        <ele>275.07</ele>
        <time>2012-08-30T13:21:36Z</time>
      </trkpt>
      <trkpt lat="45.13117" lon="1.91442">
        <ele>273.15</ele>
        <time>2012-08-30T13:21:40Z</time>
      </trkpt>
      <trkpt lat="45.13112" lon="1.91427">
        <ele>273.15</ele>
        <time>2012-08-30T13:21:46Z</time>
      </trkpt>
      <trkpt lat="45.13113" lon="1.91421">
        <ele>272.19</ele>
        <time>2012-08-30T13:21:48Z</time>
      </trkpt>
      <trkpt lat="45.13124" lon="1.91402">
        <ele>269.31</ele>
        <time>2012-08-30T13:21:58Z</time>
      </trkpt>
      <trkpt lat="45.13134" lon="1.91415">
        <ele>267.38</ele>
        <time>2012-08-30T13:22:05Z</time>
      </trkpt>
      <trkpt lat="45.13137" lon="1.91425">
        <ele>265.94</ele>
        <time>2012-08-30T13:22:09Z</time>
      </trkpt>
      <trkpt lat="45.13147" lon="1.91453">
        <ele>263.54</ele>
        <time>2012-08-30T13:22:16Z</time>
      </trkpt>
      <trkpt lat="45.13155" lon="1.91482">
        <ele>260.65</ele>
        <time>2012-08-30T13:22:22Z</time>
      </trkpt>
      <trkpt lat="45.13161" lon="1.91504">
        <ele>257.29</ele>
        <time>2012-08-30T13:22:28Z</time>
      </trkpt>
      <trkpt lat="45.13165" lon="1.91528">
        <ele>254.41</ele>
        <time>2012-08-30T13:22:34Z</time>
      </trkpt>
      <trkpt lat="45.13168" lon="1.91554">
        <ele>251.52</ele>
        <time>2012-08-30T13:22:39Z</time>
      </trkpt>
      <trkpt lat="45.13175" lon="1.91592">
        <ele>248.64</ele>
        <time>2012-08-30T13:22:48Z</time>
      </trkpt>
      <trkpt lat="45.13177" lon="1.91611">
        <ele>247.68</ele>
        <time>2012-08-30T13:22:55Z</time>
      </trkpt>
      <trkpt lat="45.13177" lon="1.91612">
        <ele>247.68</ele>
        <time>2012-08-30T13:22:56Z</time>
      </trkpt>
      <trkpt lat="45.13188" lon="1.91624">
        <ele>247.68</ele>
        <time>2012-08-30T13:23:04Z</time>
      </trkpt>
      <trkpt lat="45.13208" lon="1.91629">
        <ele>248.64</ele>
        <time>2012-08-30T13:23:13Z</time>
      </trkpt>
      <trkpt lat="45.13237" lon="1.91628">
        <ele>249.12</ele>
        <time>2012-08-30T13:23:23Z</time>
      </trkpt>
      <trkpt lat="45.1326" lon="1.91628">
        <ele>248.64</ele>
        <time>2012-08-30T13:23:32Z</time>
      </trkpt>
      <trkpt lat="45.13274" lon="1.91626">
        <ele>248.16</ele>
        <time>2012-08-30T13:23:38Z</time>
      </trkpt>
      <trkpt lat="45.13281" lon="1.91635">
        <ele>247.2</ele>
        <time>2012-08-30T13:23:43Z</time>
      </trkpt>
      <trkpt lat="45.13276" lon="1.91656">
        <ele>248.16</ele>
        <time>2012-08-30T13:23:51Z</time>
      </trkpt>
      <trkpt lat="45.13271" lon="1.91663">
        <ele>248.16</ele>
        <time>2012-08-30T13:23:57Z</time>
      </trkpt>
      <trkpt lat="45.13271" lon="1.91663">
        <ele>249.6</ele>
        <time>2012-08-30T13:24:03Z</time>
      </trkpt>
      <trkpt lat="45.1327" lon="1.91664">
        <ele>249.6</ele>
        <time>2012-08-30T13:24:04Z</time>
      </trkpt>
      <trkpt lat="45.13252" lon="1.91681">
        <ele>252</ele>
        <time>2012-08-30T13:24:13Z</time>
      </trkpt>
      <trkpt lat="45.13254" lon="1.91693">
        <ele>253.93</ele>
        <time>2012-08-30T13:24:18Z</time>
      </trkpt>
      <trkpt lat="45.13256" lon="1.91694">
        <ele>254.89</ele>
        <time>2012-08-30T13:24:19Z</time>
      </trkpt>
      <trkpt lat="45.13266" lon="1.91702">
        <ele>257.29</ele>
        <time>2012-08-30T13:24:28Z</time>
      </trkpt>
      <trkpt lat="45.13278" lon="1.91721">
        <ele>260.17</ele>
        <time>2012-08-30T13:24:37Z</time>
      </trkpt>
      <trkpt lat="45.13287" lon="1.91738">
        <ele>262.58</ele>
        <time>2012-08-30T13:24:45Z</time>
      </trkpt>
      <trkpt lat="45.13292" lon="1.91752">
        <ele>264.5</ele>
        <time>2012-08-30T13:24:52Z</time>
      </trkpt>
      <trkpt lat="45.13297" lon="1.91784">
        <ele>267.86</ele>
        <time>2012-08-30T13:25:03Z</time>
      </trkpt>
      <trkpt lat="45.133" lon="1.91807">
        <ele>269.79</ele>
        <time>2012-08-30T13:25:12Z</time>
      </trkpt>
      <trkpt lat="45.13302" lon="1.91835">
        <ele>271.71</ele>
        <time>2012-08-30T13:25:21Z</time>
      </trkpt>
      <trkpt lat="45.13305" lon="1.91863">
        <ele>274.59</ele>
        <time>2012-08-30T13:25:31Z</time>
      </trkpt>
      <trkpt lat="45.1331" lon="1.91884">
        <ele>276.52</ele>
        <time>2012-08-30T13:25:39Z</time>
      </trkpt>
      <trkpt lat="45.13313" lon="1.91903">
        <ele>277.96</ele>
        <time>2012-08-30T13:25:43Z</time>
      </trkpt>
      <trkpt lat="45.13315" lon="1.91932">
        <ele>281.32</ele>
        <time>2012-08-30T13:25:52Z</time>
      </trkpt>
      <trkpt lat="45.13316" lon="1.91935">
        <ele>280.84</ele>
        <time>2012-08-30T13:25:53Z</time>
      </trkpt>
      <trkpt lat="45.13313" lon="1.91947">
        <ele>283.73</ele>
        <time>2012-08-30T13:25:58Z</time>
      </trkpt>
      <trkpt lat="45.13311" lon="1.91948">
        <ele>284.69</ele>
        <time>2012-08-30T13:26:00Z</time>
      </trkpt>
      <trkpt lat="45.133" lon="1.91942">
        <ele>288.05</ele>
        <time>2012-08-30T13:26:08Z</time>
      </trkpt>
      <trkpt lat="45.13288" lon="1.91931">
        <ele>291.42</ele>
        <time>2012-08-30T13:26:15Z</time>
      </trkpt>
      <trkpt lat="45.1327" lon="1.91921">
        <ele>293.82</ele>
        <time>2012-08-30T13:26:23Z</time>
      </trkpt>
      <trkpt lat="45.13266" lon="1.91922">
        <ele>295.26</ele>
        <time>2012-08-30T13:26:25Z</time>
      </trkpt>
      <trkpt lat="45.13257" lon="1.9192">
        <ele>289.01</ele>
        <time>2012-08-30T13:26:28Z</time>
      </trkpt>
      <trkpt lat="45.13254" lon="1.91919">
        <ele>298.15</ele>
        <time>2012-08-30T13:26:29Z</time>
      </trkpt>
      <trkpt lat="45.13238" lon="1.91906">
        <ele>299.11</ele>
        <time>2012-08-30T13:26:37Z</time>
      </trkpt>
      <trkpt lat="45.13236" lon="1.91901">
        <ele>300.07</ele>
        <time>2012-08-30T13:26:39Z</time>
      </trkpt>
      <trkpt lat="45.13231" lon="1.91895">
        <ele>300.55</ele>
        <time>2012-08-30T13:26:42Z</time>
      </trkpt>
      <trkpt lat="45.13223" lon="1.91901">
        <ele>301.99</ele>
        <time>2012-08-30T13:26:48Z</time>
      </trkpt>
      <trkpt lat="45.13223" lon="1.91901">
        <ele>301.99</ele>
        <time>2012-08-30T13:26:57Z</time>
      </trkpt>
      <trkpt lat="45.13226" lon="1.91922">
        <ele>303.43</ele>
        <time>2012-08-30T13:27:03Z</time>
      </trkpt>
      <trkpt lat="45.1323" lon="1.91956">
        <ele>306.8</ele>
        <time>2012-08-30T13:27:09Z</time>
      </trkpt>
      <trkpt lat="45.13236" lon="1.9199">
        <ele>309.68</ele>
        <time>2012-08-30T13:27:16Z</time>
      </trkpt>
      <trkpt lat="45.13244" lon="1.9201">
        <ele>313.05</ele>
        <time>2012-08-30T13:27:21Z</time>
      </trkpt>
      <trkpt lat="45.1325" lon="1.9202">
        <ele>314.97</ele>
        <time>2012-08-30T13:27:24Z</time>
      </trkpt>
      <trkpt lat="45.13259" lon="1.92035">
        <ele>316.89</ele>
        <time>2012-08-30T13:27:28Z</time>
      </trkpt>
      <trkpt lat="45.13263" lon="1.92065">
        <ele>320.74</ele>
        <time>2012-08-30T13:27:35Z</time>
      </trkpt>
      <trkpt lat="45.13267" lon="1.92085">
        <ele>323.62</ele>
        <time>2012-08-30T13:27:40Z</time>
      </trkpt>
      <trkpt lat="45.13269" lon="1.92097">
        <ele>315.45</ele>
        <time>2012-08-30T13:27:43Z</time>
      </trkpt>
      <trkpt lat="45.13271" lon="1.92101">
        <ele>324.58</ele>
        <time>2012-08-30T13:27:44Z</time>
      </trkpt>
      <trkpt lat="45.13278" lon="1.92121">
        <ele>326.5</ele>
        <time>2012-08-30T13:27:49Z</time>
      </trkpt>
      <trkpt lat="45.13292" lon="1.92139">
        <ele>329.39</ele>
        <time>2012-08-30T13:27:55Z</time>
      </trkpt>
      <trkpt lat="45.13294" lon="1.92141">
        <ele>329.39</ele>
        <time>2012-08-30T13:27:56Z</time>
      </trkpt>
      <trkpt lat="45.13307" lon="1.92169">
        <ele>331.79</ele>
        <time>2012-08-30T13:28:03Z</time>
      </trkpt>
      <trkpt lat="45.13314" lon="1.9219">
        <ele>334.2</ele>
        <time>2012-08-30T13:28:09Z</time>
      </trkpt>
      <trkpt lat="45.13315" lon="1.92193">
        <ele>334.68</ele>
        <time>2012-08-30T13:28:10Z</time>
      </trkpt>
      <trkpt lat="45.13317" lon="1.92217">
        <ele>336.12</ele>
        <time>2012-08-30T13:28:18Z</time>
      </trkpt>
      <trkpt lat="45.13316" lon="1.9222">
        <ele>336.12</ele>
        <time>2012-08-30T13:28:19Z</time>
      </trkpt>
      <trkpt lat="45.13314" lon="1.92222">
        <ele>336.6</ele>
        <time>2012-08-30T13:28:20Z</time>
      </trkpt>
      <trkpt lat="45.13309" lon="1.92222">
        <ele>338.04</ele>
        <time>2012-08-30T13:28:23Z</time>
      </trkpt>
      <trkpt lat="45.13295" lon="1.92209">
        <ele>339.96</ele>
        <time>2012-08-30T13:28:31Z</time>
      </trkpt>
      <trkpt lat="45.13288" lon="1.92204">
        <ele>341.41</ele>
        <time>2012-08-30T13:28:34Z</time>
      </trkpt>
      <trkpt lat="45.13272" lon="1.92192">
        <ele>343.81</ele>
        <time>2012-08-30T13:28:41Z</time>
      </trkpt>
      <trkpt lat="45.13262" lon="1.92182">
        <ele>345.25</ele>
        <time>2012-08-30T13:28:45Z</time>
      </trkpt>
      <trkpt lat="45.1326" lon="1.92181">
        <ele>345.25</ele>
        <time>2012-08-30T13:28:46Z</time>
      </trkpt>
      <trkpt lat="45.13258" lon="1.92181">
        <ele>345.25</ele>
        <time>2012-08-30T13:28:47Z</time>
      </trkpt>
      <trkpt lat="45.13258" lon="1.92184">
        <ele>345.73</ele>
        <time>2012-08-30T13:28:48Z</time>
      </trkpt>
      <trkpt lat="45.13258" lon="1.92186">
        <ele>346.21</ele>
        <time>2012-08-30T13:28:49Z</time>
      </trkpt>
      <trkpt lat="45.13258" lon="1.92189">
        <ele>346.21</ele>
        <time>2012-08-30T13:28:50Z</time>
      </trkpt>
      <trkpt lat="45.13257" lon="1.92183">
        <ele>346.21</ele>
        <time>2012-08-30T13:28:51Z</time>
      </trkpt>
      <trkpt lat="45.13257" lon="1.92182">
        <ele>346.69</ele>
        <time>2012-08-30T13:28:52Z</time>
      </trkpt>
      <trkpt lat="45.13257" lon="1.92183">
        <ele>347.17</ele>
        <time>2012-08-30T13:28:53Z</time>
      </trkpt>
      <trkpt lat="45.13258" lon="1.92185">
        <ele>347.17</ele>
        <time>2012-08-30T13:28:54Z</time>
      </trkpt>
      <trkpt lat="45.13258" lon="1.92187">
        <ele>347.17</ele>
        <time>2012-08-30T13:28:55Z</time>
      </trkpt>
      <trkpt lat="45.1326" lon="1.92189">
        <ele>347.65</ele>
        <time>2012-08-30T13:28:56Z</time>
      </trkpt>
      <trkpt lat="45.1326" lon="1.92192">
        <ele>348.13</ele>
        <time>2012-08-30T13:28:57Z</time>
      </trkpt>
      <trkpt lat="45.13261" lon="1.92194">
        <ele>348.13</ele>
        <time>2012-08-30T13:28:58Z</time>
      </trkpt>
      <trkpt lat="45.13263" lon="1.922">
        <ele>349.58</ele>
        <time>2012-08-30T13:29:00Z</time>
      </trkpt>
      <trkpt lat="45.13266" lon="1.9221">
        <ele>351.02</ele>
        <time>2012-08-30T13:29:03Z</time>
      </trkpt>
      <trkpt lat="45.13273" lon="1.92235">
        <ele>353.42</ele>
        <time>2012-08-30T13:29:10Z</time>
      </trkpt>
      <trkpt lat="45.1328" lon="1.92267">
        <ele>355.34</ele>
        <time>2012-08-30T13:29:17Z</time>
      </trkpt>
      <trkpt lat="45.13281" lon="1.92287">
        <ele>357.75</ele>
        <time>2012-08-30T13:29:22Z</time>
      </trkpt>
      <trkpt lat="45.13279" lon="1.92325">
        <ele>359.67</ele>
        <time>2012-08-30T13:29:30Z</time>
      </trkpt>
      <trkpt lat="45.13279" lon="1.92328">
        <ele>359.67</ele>
        <time>2012-08-30T13:29:31Z</time>
      </trkpt>
      <trkpt lat="45.13279" lon="1.92331">
        <ele>360.15</ele>
        <time>2012-08-30T13:29:32Z</time>
      </trkpt>
      <trkpt lat="45.13281" lon="1.92334">
        <ele>361.59</ele>
        <time>2012-08-30T13:29:34Z</time>
      </trkpt>
      <trkpt lat="45.13282" lon="1.92336">
        <ele>361.11</ele>
        <time>2012-08-30T13:29:35Z</time>
      </trkpt>
      <trkpt lat="45.13293" lon="1.92345">
        <ele>364</ele>
        <time>2012-08-30T13:29:41Z</time>
      </trkpt>
      <trkpt lat="45.13295" lon="1.9235">
        <ele>364</ele>
        <time>2012-08-30T13:29:43Z</time>
      </trkpt>
      <trkpt lat="45.1331" lon="1.9238">
        <ele>365.44</ele>
        <time>2012-08-30T13:29:49Z</time>
      </trkpt>
      <trkpt lat="45.13318" lon="1.9241">
        <ele>365.92</ele>
        <time>2012-08-30T13:29:57Z</time>
      </trkpt>
      <trkpt lat="45.13327" lon="1.92442">
        <ele>367.84</ele>
        <time>2012-08-30T13:30:05Z</time>
      </trkpt>
      <trkpt lat="45.13338" lon="1.92452">
        <ele>367.36</ele>
        <time>2012-08-30T13:30:10Z</time>
      </trkpt>
      <trkpt lat="45.13361" lon="1.92453">
        <ele>369.28</ele>
        <time>2012-08-30T13:30:17Z</time>
      </trkpt>
      <trkpt lat="45.1338" lon="1.92459">
        <ele>369.76</ele>
        <time>2012-08-30T13:30:24Z</time>
      </trkpt>
      <trkpt lat="45.13409" lon="1.92469">
        <ele>371.69</ele>
        <time>2012-08-30T13:30:32Z</time>
      </trkpt>
      <trkpt lat="45.13414" lon="1.9247">
        <ele>372.65</ele>
        <time>2012-08-30T13:30:34Z</time>
      </trkpt>
      <trkpt lat="45.1344" lon="1.92477">
        <ele>375.05</ele>
        <time>2012-08-30T13:30:42Z</time>
      </trkpt>
      <trkpt lat="45.13442" lon="1.92477">
        <ele>366.88</ele>
        <time>2012-08-30T13:30:43Z</time>
      </trkpt>
      <trkpt lat="45.13445" lon="1.92478">
        <ele>375.53</ele>
        <time>2012-08-30T13:30:44Z</time>
      </trkpt>
      <trkpt lat="45.13464" lon="1.92485">
        <ele>375.53</ele>
        <time>2012-08-30T13:30:51Z</time>
      </trkpt>
      <trkpt lat="45.13465" lon="1.92487">
        <ele>376.01</ele>
        <time>2012-08-30T13:30:52Z</time>
      </trkpt>
      <trkpt lat="45.13465" lon="1.9249">
        <ele>376.49</ele>
        <time>2012-08-30T13:30:53Z</time>
      </trkpt>
      <trkpt lat="45.13466" lon="1.9249">
        <ele>376.01</ele>
        <time>2012-08-30T13:30:56Z</time>
      </trkpt>
      <trkpt lat="45.13468" lon="1.92488">
        <ele>378.9</ele>
        <time>2012-08-30T13:31:04Z</time>
      </trkpt>
      <trkpt lat="45.13468" lon="1.92488">
        <ele>375.53</ele>
        <time>2012-08-30T13:31:07Z</time>
      </trkpt>
      <trkpt lat="45.13468" lon="1.92488">
        <ele>368.32</ele>
        <time>2012-08-30T13:31:10Z</time>
      </trkpt>
      <trkpt lat="45.13468" lon="1.92488">
        <ele>376.97</ele>
        <time>2012-08-30T13:31:11Z</time>
      </trkpt>
      <trkpt lat="45.13468" lon="1.92488">
        <ele>372.17</ele>
        <time>2012-08-30T13:31:13Z</time>
      </trkpt>
      <trkpt lat="45.13468" lon="1.92488">
        <ele>378.42</ele>
        <time>2012-08-30T13:31:14Z</time>
      </trkpt>
      <trkpt lat="45.13468" lon="1.92488">
        <ele>373.61</ele>
        <time>2012-08-30T13:31:16Z</time>
      </trkpt>
      <trkpt lat="45.13468" lon="1.92487">
        <ele>375.53</ele>
        <time>2012-08-30T13:31:25Z</time>
      </trkpt>
      <trkpt lat="45.13472" lon="1.92491">
        <ele>373.61</ele>
        <time>2012-08-30T13:31:30Z</time>
      </trkpt>
      <trkpt lat="45.13472" lon="1.92492">
        <ele>376.97</ele>
        <time>2012-08-30T13:31:31Z</time>
      </trkpt>
      <trkpt lat="45.13475" lon="1.92496">
        <ele>376.97</ele>
        <time>2012-08-30T13:31:38Z</time>
      </trkpt>
      <trkpt lat="45.13475" lon="1.92496">
        <ele>374.09</ele>
        <time>2012-08-30T13:31:40Z</time>
      </trkpt>
      <trkpt lat="45.13475" lon="1.92496">
        <ele>377.45</ele>
        <time>2012-08-30T13:31:41Z</time>
      </trkpt>
      <trkpt lat="45.13475" lon="1.92496">
        <ele>378.42</ele>
        <time>2012-08-30T13:31:43Z</time>
      </trkpt>
      <trkpt lat="45.13475" lon="1.92496">
        <ele>374.09</ele>
        <time>2012-08-30T13:31:44Z</time>
      </trkpt>
      <trkpt lat="45.13475" lon="1.92496">
        <ele>376.01</ele>
        <time>2012-08-30T13:31:45Z</time>
      </trkpt>
      <trkpt lat="45.13475" lon="1.92496">
        <ele>372.17</ele>
        <time>2012-08-30T13:31:55Z</time>
      </trkpt>
      <trkpt lat="45.13475" lon="1.92496">
        <ele>376.97</ele>
        <time>2012-08-30T13:31:56Z</time>
      </trkpt>
      <trkpt lat="45.13475" lon="1.92496">
        <ele>370.73</ele>
        <time>2012-08-30T13:31:57Z</time>
      </trkpt>
      <trkpt lat="45.13475" lon="1.92496">
        <ele>378.42</ele>
        <time>2012-08-30T13:31:58Z</time>
      </trkpt>
      <trkpt lat="45.13475" lon="1.92496">
        <ele>376.49</ele>
        <time>2012-08-30T13:32:01Z</time>
      </trkpt>
      <trkpt lat="45.13474" lon="1.9249">
        <ele>379.38</ele>
        <time>2012-08-30T13:32:07Z</time>
      </trkpt>
      <trkpt lat="45.13472" lon="1.92488">
        <ele>376.49</ele>
        <time>2012-08-30T13:32:09Z</time>
      </trkpt>
      <trkpt lat="45.13471" lon="1.92489">
        <ele>375.53</ele>
        <time>2012-08-30T13:32:14Z</time>
      </trkpt>
      <trkpt lat="45.13471" lon="1.92489">
        <ele>379.86</ele>
        <time>2012-08-30T13:32:20Z</time>
      </trkpt>
      <trkpt lat="45.13471" lon="1.92489">
        <ele>378.9</ele>
        <time>2012-08-30T13:32:21Z</time>
      </trkpt>
      <trkpt lat="45.13471" lon="1.92489">
        <ele>376.49</ele>
        <time>2012-08-30T13:32:26Z</time>
      </trkpt>
      <trkpt lat="45.13471" lon="1.92489">
        <ele>376.01</ele>
        <time>2012-08-30T13:32:36Z</time>
      </trkpt>
      <trkpt lat="45.13471" lon="1.92489">
        <ele>376.01</ele>
        <time>2012-08-30T13:32:53Z</time>
      </trkpt>
      <trkpt lat="45.13471" lon="1.92489">
        <ele>375.53</ele>
        <time>2012-08-30T13:33:05Z</time>
      </trkpt>
      <trkpt lat="45.13467" lon="1.92494">
        <ele>376.49</ele>
        <time>2012-08-30T13:33:12Z</time>
      </trkpt>
      <trkpt lat="45.13446" lon="1.92497">
        <ele>377.94</ele>
        <time>2012-08-30T13:33:22Z</time>
      </trkpt>
      <trkpt lat="45.13401" lon="1.92504">
        <ele>380.34</ele>
        <time>2012-08-30T13:33:35Z</time>
      </trkpt>
      <trkpt lat="45.13369" lon="1.92506">
        <ele>382.26</ele>
        <time>2012-08-30T13:33:44Z</time>
      </trkpt>
      <trkpt lat="45.13348" lon="1.92511">
        <ele>384.66</ele>
        <time>2012-08-30T13:33:51Z</time>
      </trkpt>
      <trkpt lat="45.13324" lon="1.92511">
        <ele>387.55</ele>
        <time>2012-08-30T13:33:59Z</time>
      </trkpt>
      <trkpt lat="45.13305" lon="1.92508">
        <ele>388.99</ele>
        <time>2012-08-30T13:34:06Z</time>
      </trkpt>
      <trkpt lat="45.1329" lon="1.9251">
        <ele>390.91</ele>
        <time>2012-08-30T13:34:11Z</time>
      </trkpt>
      <trkpt lat="45.13279" lon="1.92518">
        <ele>393.32</ele>
        <time>2012-08-30T13:34:16Z</time>
      </trkpt>
      <trkpt lat="45.13265" lon="1.92539">
        <ele>393.32</ele>
        <time>2012-08-30T13:34:23Z</time>
      </trkpt>
      <trkpt lat="45.13256" lon="1.92555">
        <ele>393.8</ele>
        <time>2012-08-30T13:34:30Z</time>
      </trkpt>
      <trkpt lat="45.13251" lon="1.92557">
        <ele>394.28</ele>
        <time>2012-08-30T13:34:41Z</time>
      </trkpt>
      <trkpt lat="45.13253" lon="1.92556">
        <ele>394.28</ele>
        <time>2012-08-30T13:34:53Z</time>
      </trkpt>
      <trkpt lat="45.13254" lon="1.92557">
        <ele>394.28</ele>
        <time>2012-08-30T13:34:59Z</time>
      </trkpt>
      <trkpt lat="45.13254" lon="1.92561">
        <ele>394.28</ele>
        <time>2012-08-30T13:35:01Z</time>
      </trkpt>
      <trkpt lat="45.13244" lon="1.92589">
        <ele>394.76</ele>
        <time>2012-08-30T13:35:11Z</time>
      </trkpt>
      <trkpt lat="45.13225" lon="1.92613">
        <ele>395.24</ele>
        <time>2012-08-30T13:35:21Z</time>
      </trkpt>
      <trkpt lat="45.13203" lon="1.92638">
        <ele>394.28</ele>
        <time>2012-08-30T13:35:34Z</time>
      </trkpt>
      <trkpt lat="45.13186" lon="1.92658">
        <ele>394.28</ele>
        <time>2012-08-30T13:35:43Z</time>
      </trkpt>
      <trkpt lat="45.13181" lon="1.92682">
        <ele>393.32</ele>
        <time>2012-08-30T13:35:53Z</time>
      </trkpt>
      <trkpt lat="45.13186" lon="1.92713">
        <ele>391.39</ele>
        <time>2012-08-30T13:36:03Z</time>
      </trkpt>
      <trkpt lat="45.13184" lon="1.9274">
        <ele>389.47</ele>
        <time>2012-08-30T13:36:13Z</time>
      </trkpt>
      <trkpt lat="45.13176" lon="1.92757">
        <ele>388.99</ele>
        <time>2012-08-30T13:36:18Z</time>
      </trkpt>
      <trkpt lat="45.13155" lon="1.92791">
        <ele>386.59</ele>
        <time>2012-08-30T13:36:30Z</time>
      </trkpt>
      <trkpt lat="45.13146" lon="1.92818">
        <ele>386.11</ele>
        <time>2012-08-30T13:36:39Z</time>
      </trkpt>
      <trkpt lat="45.13144" lon="1.92853">
        <ele>383.7</ele>
        <time>2012-08-30T13:36:49Z</time>
      </trkpt>
      <trkpt lat="45.13137" lon="1.92887">
        <ele>382.26</ele>
        <time>2012-08-30T13:36:59Z</time>
      </trkpt>
      <trkpt lat="45.13135" lon="1.92891">
        <ele>381.78</ele>
        <time>2012-08-30T13:37:00Z</time>
      </trkpt>
      <trkpt lat="45.13122" lon="1.92926">
        <ele>380.34</ele>
        <time>2012-08-30T13:37:10Z</time>
      </trkpt>
      <trkpt lat="45.13103" lon="1.92949">
        <ele>379.86</ele>
        <time>2012-08-30T13:37:20Z</time>
      </trkpt>
      <trkpt lat="45.13071" lon="1.92977">
        <ele>379.38</ele>
        <time>2012-08-30T13:37:32Z</time>
      </trkpt>
      <trkpt lat="45.13046" lon="1.92994">
        <ele>378.9</ele>
        <time>2012-08-30T13:37:43Z</time>
      </trkpt>
      <trkpt lat="45.13023" lon="1.92993">
        <ele>377.94</ele>
        <time>2012-08-30T13:37:54Z</time>
      </trkpt>
      <trkpt lat="45.12999" lon="1.92994">
        <ele>376.49</ele>
        <time>2012-08-30T13:38:03Z</time>
      </trkpt>
      <trkpt lat="45.12976" lon="1.92996">
        <ele>376.01</ele>
        <time>2012-08-30T13:38:12Z</time>
      </trkpt>
      <trkpt lat="45.12962" lon="1.92989">
        <ele>374.09</ele>
        <time>2012-08-30T13:38:22Z</time>
      </trkpt>
      <trkpt lat="45.12948" lon="1.92984">
        <ele>372.17</ele>
        <time>2012-08-30T13:38:31Z</time>
      </trkpt>
      <trkpt lat="45.12926" lon="1.92989">
        <ele>370.24</ele>
        <time>2012-08-30T13:38:43Z</time>
      </trkpt>
      <trkpt lat="45.12912" lon="1.92996">
        <ele>369.28</ele>
        <time>2012-08-30T13:38:51Z</time>
      </trkpt>
      <trkpt lat="45.12889" lon="1.93012">
        <ele>369.28</ele>
        <time>2012-08-30T13:39:02Z</time>
      </trkpt>
      <trkpt lat="45.12862" lon="1.93035">
        <ele>367.84</ele>
        <time>2012-08-30T13:39:12Z</time>
      </trkpt>
      <trkpt lat="45.12845" lon="1.93049">
        <ele>366.4</ele>
        <time>2012-08-30T13:39:20Z</time>
      </trkpt>
      <trkpt lat="45.12823" lon="1.93066">
        <ele>364.96</ele>
        <time>2012-08-30T13:39:31Z</time>
      </trkpt>
      <trkpt lat="45.128" lon="1.93084">
        <ele>364.48</ele>
        <time>2012-08-30T13:39:41Z</time>
      </trkpt>
      <trkpt lat="45.12782" lon="1.93096">
        <ele>364</ele>
        <time>2012-08-30T13:39:49Z</time>
      </trkpt>
      <trkpt lat="45.12759" lon="1.93096">
        <ele>364</ele>
        <time>2012-08-30T13:39:59Z</time>
      </trkpt>
      <trkpt lat="45.12728" lon="1.93088">
        <ele>364.48</ele>
        <time>2012-08-30T13:40:11Z</time>
      </trkpt>
      <trkpt lat="45.12706" lon="1.93084">
        <ele>364.48</ele>
        <time>2012-08-30T13:40:21Z</time>
      </trkpt>
      <trkpt lat="45.12698" lon="1.93087">
        <ele>364.48</ele>
        <time>2012-08-30T13:40:26Z</time>
      </trkpt>
      <trkpt lat="45.12697" lon="1.93089">
        <ele>364.48</ele>
        <time>2012-08-30T13:40:27Z</time>
      </trkpt>
      <trkpt lat="45.12697" lon="1.93091">
        <ele>364.96</ele>
        <time>2012-08-30T13:40:28Z</time>
      </trkpt>
      <trkpt lat="45.12697" lon="1.93094">
        <ele>364.96</ele>
        <time>2012-08-30T13:40:29Z</time>
      </trkpt>
      <trkpt lat="45.12696" lon="1.93096">
        <ele>364.48</ele>
        <time>2012-08-30T13:40:30Z</time>
      </trkpt>
      <trkpt lat="45.12696" lon="1.93099">
        <ele>364</ele>
        <time>2012-08-30T13:40:31Z</time>
      </trkpt>
      <trkpt lat="45.1269" lon="1.93134">
        <ele>362.55</ele>
        <time>2012-08-30T13:40:40Z</time>
      </trkpt>
      <trkpt lat="45.12683" lon="1.93171">
        <ele>362.55</ele>
        <time>2012-08-30T13:40:48Z</time>
      </trkpt>
      <trkpt lat="45.12681" lon="1.93199">
        <ele>358.23</ele>
        <time>2012-08-30T13:40:55Z</time>
      </trkpt>
      <trkpt lat="45.1268" lon="1.93203">
        <ele>362.07</ele>
        <time>2012-08-30T13:40:56Z</time>
      </trkpt>
      <trkpt lat="45.12676" lon="1.93212">
        <ele>352.46</ele>
        <time>2012-08-30T13:40:58Z</time>
      </trkpt>
      <trkpt lat="45.12675" lon="1.93216">
        <ele>361.11</ele>
        <time>2012-08-30T13:40:59Z</time>
      </trkpt>
      <trkpt lat="45.12671" lon="1.93232">
        <ele>364</ele>
        <time>2012-08-30T13:41:02Z</time>
      </trkpt>
      <trkpt lat="45.12667" lon="1.93242">
        <ele>357.27</ele>
        <time>2012-08-30T13:41:04Z</time>
      </trkpt>
      <trkpt lat="45.12666" lon="1.93247">
        <ele>362.07</ele>
        <time>2012-08-30T13:41:05Z</time>
      </trkpt>
      <trkpt lat="45.12661" lon="1.93262">
        <ele>365.44</ele>
        <time>2012-08-30T13:41:09Z</time>
      </trkpt>
      <trkpt lat="45.12659" lon="1.93269">
        <ele>360.63</ele>
        <time>2012-08-30T13:41:11Z</time>
      </trkpt>
      <trkpt lat="45.12657" lon="1.93273">
        <ele>364</ele>
        <time>2012-08-30T13:41:12Z</time>
      </trkpt>
      <trkpt lat="45.12656" lon="1.93277">
        <ele>358.23</ele>
        <time>2012-08-30T13:41:13Z</time>
      </trkpt>
      <trkpt lat="45.12654" lon="1.9328">
        <ele>364.48</ele>
        <time>2012-08-30T13:41:14Z</time>
      </trkpt>
      <trkpt lat="45.12646" lon="1.93308">
        <ele>362.55</ele>
        <time>2012-08-30T13:41:21Z</time>
      </trkpt>
      <trkpt lat="45.12638" lon="1.93333">
        <ele>360.15</ele>
        <time>2012-08-30T13:41:28Z</time>
      </trkpt>
      <trkpt lat="45.12634" lon="1.9335">
        <ele>358.71</ele>
        <time>2012-08-30T13:41:31Z</time>
      </trkpt>
      <trkpt lat="45.12627" lon="1.93377">
        <ele>357.27</ele>
        <time>2012-08-30T13:41:36Z</time>
      </trkpt>
      <trkpt lat="45.12625" lon="1.93391">
        <ele>355.34</ele>
        <time>2012-08-30T13:41:39Z</time>
      </trkpt>
      <trkpt lat="45.12624" lon="1.93401">
        <ele>349.58</ele>
        <time>2012-08-30T13:41:42Z</time>
      </trkpt>
      <trkpt lat="45.12624" lon="1.93405">
        <ele>354.86</ele>
        <time>2012-08-30T13:41:43Z</time>
      </trkpt>
      <trkpt lat="45.12624" lon="1.93414">
        <ele>350.54</ele>
        <time>2012-08-30T13:41:46Z</time>
      </trkpt>
      <trkpt lat="45.12624" lon="1.93419">
        <ele>356.31</ele>
        <time>2012-08-30T13:41:47Z</time>
      </trkpt>
      <trkpt lat="45.12624" lon="1.93423">
        <ele>352.94</ele>
        <time>2012-08-30T13:41:48Z</time>
      </trkpt>
      <trkpt lat="45.12624" lon="1.93429">
        <ele>351.98</ele>
        <time>2012-08-30T13:41:50Z</time>
      </trkpt>
      <trkpt lat="45.12607" lon="1.93465">
        <ele>351.5</ele>
        <time>2012-08-30T13:41:56Z</time>
      </trkpt>
      <trkpt lat="45.12589" lon="1.93507">
        <ele>350.54</ele>
        <time>2012-08-30T13:42:04Z</time>
      </trkpt>
      <trkpt lat="45.12578" lon="1.9353">
        <ele>350.54</ele>
        <time>2012-08-30T13:42:10Z</time>
      </trkpt>
      <trkpt lat="45.1256" lon="1.93554">
        <ele>350.06</ele>
        <time>2012-08-30T13:42:17Z</time>
      </trkpt>
      <trkpt lat="45.12549" lon="1.93576">
        <ele>350.54</ele>
        <time>2012-08-30T13:42:23Z</time>
      </trkpt>
      <trkpt lat="45.12538" lon="1.93614">
        <ele>351.02</ele>
        <time>2012-08-30T13:42:31Z</time>
      </trkpt>
      <trkpt lat="45.12537" lon="1.93635">
        <ele>349.1</ele>
        <time>2012-08-30T13:42:37Z</time>
      </trkpt>
      <trkpt lat="45.12536" lon="1.93655">
        <ele>346.21</ele>
        <time>2012-08-30T13:42:42Z</time>
      </trkpt>
      <trkpt lat="45.12533" lon="1.93675">
        <ele>342.85</ele>
        <time>2012-08-30T13:42:47Z</time>
      </trkpt>
      <trkpt lat="45.12524" lon="1.93714">
        <ele>340.92</ele>
        <time>2012-08-30T13:42:56Z</time>
      </trkpt>
      <trkpt lat="45.12505" lon="1.93745">
        <ele>338.04</ele>
        <time>2012-08-30T13:43:03Z</time>
      </trkpt>
      <trkpt lat="45.12492" lon="1.93768">
        <ele>334.68</ele>
        <time>2012-08-30T13:43:09Z</time>
      </trkpt>
      <trkpt lat="45.12482" lon="1.93788">
        <ele>331.79</ele>
        <time>2012-08-30T13:43:16Z</time>
      </trkpt>
      <trkpt lat="45.12474" lon="1.93805">
        <ele>327.95</ele>
        <time>2012-08-30T13:43:24Z</time>
      </trkpt>
      <trkpt lat="45.12465" lon="1.93827">
        <ele>325.06</ele>
        <time>2012-08-30T13:43:33Z</time>
      </trkpt>
      <trkpt lat="45.12463" lon="1.93844">
        <ele>322.18</ele>
        <time>2012-08-30T13:43:40Z</time>
      </trkpt>
      <trkpt lat="45.12461" lon="1.93862">
        <ele>319.78</ele>
        <time>2012-08-30T13:43:45Z</time>
      </trkpt>
      <trkpt lat="45.12459" lon="1.9388">
        <ele>317.85</ele>
        <time>2012-08-30T13:43:49Z</time>
      </trkpt>
      <trkpt lat="45.12454" lon="1.93913">
        <ele>315.93</ele>
        <time>2012-08-30T13:43:56Z</time>
      </trkpt>
      <trkpt lat="45.12453" lon="1.93943">
        <ele>315.93</ele>
        <time>2012-08-30T13:44:03Z</time>
      </trkpt>
      <trkpt lat="45.12454" lon="1.93954">
        <ele>314.01</ele>
        <time>2012-08-30T13:44:06Z</time>
      </trkpt>
      <trkpt lat="45.12455" lon="1.93965">
        <ele>307.76</ele>
        <time>2012-08-30T13:44:09Z</time>
      </trkpt>
      <trkpt lat="45.12456" lon="1.93969">
        <ele>314.49</ele>
        <time>2012-08-30T13:44:10Z</time>
      </trkpt>
      <trkpt lat="45.12457" lon="1.93977">
        <ele>308.24</ele>
        <time>2012-08-30T13:44:12Z</time>
      </trkpt>
      <trkpt lat="45.12456" lon="1.93981">
        <ele>313.05</ele>
        <time>2012-08-30T13:44:13Z</time>
      </trkpt>
      <trkpt lat="45.12456" lon="1.93991">
        <ele>310.16</ele>
        <time>2012-08-30T13:44:16Z</time>
      </trkpt>
      <trkpt lat="45.12456" lon="1.93996">
        <ele>314.49</ele>
        <time>2012-08-30T13:44:18Z</time>
      </trkpt>
      <trkpt lat="45.12456" lon="1.93999">
        <ele>309.68</ele>
        <time>2012-08-30T13:44:19Z</time>
      </trkpt>
      <trkpt lat="45.12455" lon="1.94026">
        <ele>308.24</ele>
        <time>2012-08-30T13:44:26Z</time>
      </trkpt>
      <trkpt lat="45.12453" lon="1.94032">
        <ele>307.28</ele>
        <time>2012-08-30T13:44:31Z</time>
      </trkpt>
      <trkpt lat="45.12453" lon="1.94032">
        <ele>307.28</ele>
        <time>2012-08-30T13:44:37Z</time>
      </trkpt>
      <trkpt lat="45.12453" lon="1.9404">
        <ele>307.28</ele>
        <time>2012-08-30T13:44:39Z</time>
      </trkpt>
      <trkpt lat="45.12453" lon="1.94046">
        <ele>307.28</ele>
        <time>2012-08-30T13:44:40Z</time>
      </trkpt>
      <trkpt lat="45.12454" lon="1.94062">
        <ele>308.72</ele>
        <time>2012-08-30T13:44:43Z</time>
      </trkpt>
      <trkpt lat="45.12457" lon="1.94066">
        <ele>309.2</ele>
        <time>2012-08-30T13:44:44Z</time>
      </trkpt>
      <trkpt lat="45.1246" lon="1.9407">
        <ele>310.64</ele>
        <time>2012-08-30T13:44:45Z</time>
      </trkpt>
      <trkpt lat="45.12463" lon="1.94073">
        <ele>311.12</ele>
        <time>2012-08-30T13:44:46Z</time>
      </trkpt>
      <trkpt lat="45.12466" lon="1.94077">
        <ele>312.09</ele>
        <time>2012-08-30T13:44:47Z</time>
      </trkpt>
      <trkpt lat="45.12472" lon="1.94086">
        <ele>317.37</ele>
        <time>2012-08-30T13:44:49Z</time>
      </trkpt>
      <trkpt lat="45.12475" lon="1.94091">
        <ele>314.97</ele>
        <time>2012-08-30T13:44:50Z</time>
      </trkpt>
      <trkpt lat="45.12489" lon="1.94116">
        <ele>317.85</ele>
        <time>2012-08-30T13:44:55Z</time>
      </trkpt>
      <trkpt lat="45.1249" lon="1.94123">
        <ele>317.85</ele>
        <time>2012-08-30T13:44:56Z</time>
      </trkpt>
      <trkpt lat="45.12492" lon="1.9413">
        <ele>318.33</ele>
        <time>2012-08-30T13:44:57Z</time>
      </trkpt>
      <trkpt lat="45.12493" lon="1.94138">
        <ele>319.3</ele>
        <time>2012-08-30T13:44:58Z</time>
      </trkpt>
      <trkpt lat="45.12494" lon="1.94145">
        <ele>319.3</ele>
        <time>2012-08-30T13:44:59Z</time>
      </trkpt>
      <trkpt lat="45.12494" lon="1.94152">
        <ele>320.26</ele>
        <time>2012-08-30T13:45:00Z</time>
      </trkpt>
      <trkpt lat="45.12494" lon="1.94159">
        <ele>320.74</ele>
        <time>2012-08-30T13:45:01Z</time>
      </trkpt>
      <trkpt lat="45.12492" lon="1.94165">
        <ele>321.22</ele>
        <time>2012-08-30T13:45:02Z</time>
      </trkpt>
      <trkpt lat="45.12491" lon="1.94171">
        <ele>322.18</ele>
        <time>2012-08-30T13:45:03Z</time>
      </trkpt>
      <trkpt lat="45.12488" lon="1.94177">
        <ele>322.66</ele>
        <time>2012-08-30T13:45:04Z</time>
      </trkpt>
      <trkpt lat="45.12484" lon="1.94183">
        <ele>322.66</ele>
        <time>2012-08-30T13:45:05Z</time>
      </trkpt>
      <trkpt lat="45.12481" lon="1.94188">
        <ele>322.66</ele>
        <time>2012-08-30T13:45:06Z</time>
      </trkpt>
      <trkpt lat="45.12476" lon="1.94193">
        <ele>322.66</ele>
        <time>2012-08-30T13:45:07Z</time>
      </trkpt>
      <trkpt lat="45.12447" lon="1.94233">
        <ele>323.62</ele>
        <time>2012-08-30T13:45:14Z</time>
      </trkpt>
      <trkpt lat="45.12444" lon="1.94241">
        <ele>324.1</ele>
        <time>2012-08-30T13:45:15Z</time>
      </trkpt>
      <trkpt lat="45.1244" lon="1.94249">
        <ele>324.58</ele>
        <time>2012-08-30T13:45:16Z</time>
      </trkpt>
      <trkpt lat="45.1243" lon="1.94272">
        <ele>324.58</ele>
        <time>2012-08-30T13:45:19Z</time>
      </trkpt>
      <trkpt lat="45.12426" lon="1.94277">
        <ele>325.54</ele>
        <time>2012-08-30T13:45:20Z</time>
      </trkpt>
      <trkpt lat="45.12419" lon="1.9429">
        <ele>326.5</ele>
        <time>2012-08-30T13:45:22Z</time>
      </trkpt>
      <trkpt lat="45.12415" lon="1.94297">
        <ele>327.47</ele>
        <time>2012-08-30T13:45:23Z</time>
      </trkpt>
      <trkpt lat="45.12403" lon="1.94317">
        <ele>330.83</ele>
        <time>2012-08-30T13:45:26Z</time>
      </trkpt>
      <trkpt lat="45.12399" lon="1.94323">
        <ele>331.31</ele>
        <time>2012-08-30T13:45:27Z</time>
      </trkpt>
      <trkpt lat="45.12396" lon="1.9433">
        <ele>332.27</ele>
        <time>2012-08-30T13:45:28Z</time>
      </trkpt>
      <trkpt lat="45.12393" lon="1.94337">
        <ele>332.27</ele>
        <time>2012-08-30T13:45:29Z</time>
      </trkpt>
      <trkpt lat="45.12391" lon="1.94345">
        <ele>333.23</ele>
        <time>2012-08-30T13:45:30Z</time>
      </trkpt>
      <trkpt lat="45.12389" lon="1.9436">
        <ele>334.68</ele>
        <time>2012-08-30T13:45:32Z</time>
      </trkpt>
      <trkpt lat="45.12387" lon="1.94367">
        <ele>335.16</ele>
        <time>2012-08-30T13:45:33Z</time>
      </trkpt>
      <trkpt lat="45.12381" lon="1.94387">
        <ele>336.12</ele>
        <time>2012-08-30T13:45:36Z</time>
      </trkpt>
      <trkpt lat="45.12378" lon="1.94392">
        <ele>336.12</ele>
        <time>2012-08-30T13:45:37Z</time>
      </trkpt>
      <trkpt lat="45.12369" lon="1.94411">
        <ele>337.08</ele>
        <time>2012-08-30T13:45:42Z</time>
      </trkpt>
      <trkpt lat="45.12368" lon="1.94413">
        <ele>338.04</ele>
        <time>2012-08-30T13:45:48Z</time>
      </trkpt>
      <trkpt lat="45.12368" lon="1.94413">
        <ele>332.27</ele>
        <time>2012-08-30T13:45:51Z</time>
      </trkpt>
      <trkpt lat="45.12368" lon="1.94413">
        <ele>339</ele>
        <time>2012-08-30T13:45:52Z</time>
      </trkpt>
      <trkpt lat="45.12368" lon="1.94413">
        <ele>333.71</ele>
        <time>2012-08-30T13:45:53Z</time>
      </trkpt>
      <trkpt lat="45.12368" lon="1.94413">
        <ele>337.08</ele>
        <time>2012-08-30T13:45:54Z</time>
      </trkpt>
      <trkpt lat="45.12368" lon="1.94413">
        <ele>339.96</ele>
        <time>2012-08-30T13:45:55Z</time>
      </trkpt>
      <trkpt lat="45.12368" lon="1.94413">
        <ele>337.56</ele>
        <time>2012-08-30T13:45:56Z</time>
      </trkpt>
      <trkpt lat="45.12368" lon="1.94413">
        <ele>340.92</ele>
        <time>2012-08-30T13:46:02Z</time>
      </trkpt>
      <trkpt lat="45.12368" lon="1.94413">
        <ele>337.56</ele>
        <time>2012-08-30T13:46:03Z</time>
      </trkpt>
      <trkpt lat="45.12368" lon="1.94413">
        <ele>345.73</ele>
        <time>2012-08-30T13:46:05Z</time>
      </trkpt>
      <trkpt lat="45.12368" lon="1.94413">
        <ele>338.04</ele>
        <time>2012-08-30T13:46:06Z</time>
      </trkpt>
      <trkpt lat="45.12368" lon="1.94412">
        <ele>338.04</ele>
        <time>2012-08-30T13:46:12Z</time>
      </trkpt>
      <trkpt lat="45.12369" lon="1.94416">
        <ele>337.56</ele>
        <time>2012-08-30T13:46:18Z</time>
      </trkpt>
      <trkpt lat="45.12369" lon="1.94418">
        <ele>338.04</ele>
        <time>2012-08-30T13:46:19Z</time>
      </trkpt>
      <trkpt lat="45.12369" lon="1.9442">
        <ele>338.04</ele>
        <time>2012-08-30T13:46:20Z</time>
      </trkpt>
      <trkpt lat="45.12368" lon="1.94422">
        <ele>338.04</ele>
        <time>2012-08-30T13:46:21Z</time>
      </trkpt>
      <trkpt lat="45.12368" lon="1.94425">
        <ele>338.52</ele>
        <time>2012-08-30T13:46:22Z</time>
      </trkpt>
      <trkpt lat="45.12367" lon="1.94428">
        <ele>338.52</ele>
        <time>2012-08-30T13:46:23Z</time>
      </trkpt>
      <trkpt lat="45.12367" lon="1.94431">
        <ele>339</ele>
        <time>2012-08-30T13:46:24Z</time>
      </trkpt>
      <trkpt lat="45.12367" lon="1.94434">
        <ele>339</ele>
        <time>2012-08-30T13:46:25Z</time>
      </trkpt>
      <trkpt lat="45.12366" lon="1.94436">
        <ele>339.48</ele>
        <time>2012-08-30T13:46:26Z</time>
      </trkpt>
      <trkpt lat="45.12366" lon="1.94439">
        <ele>339</ele>
        <time>2012-08-30T13:46:27Z</time>
      </trkpt>
      <trkpt lat="45.12363" lon="1.94447">
        <ele>339.96</ele>
        <time>2012-08-30T13:46:32Z</time>
      </trkpt>
      <trkpt lat="45.12362" lon="1.94451">
        <ele>339.96</ele>
        <time>2012-08-30T13:46:35Z</time>
      </trkpt>
      <trkpt lat="45.1236" lon="1.94453">
        <ele>339.96</ele>
        <time>2012-08-30T13:46:37Z</time>
      </trkpt>
      <trkpt lat="45.12358" lon="1.94457">
        <ele>340.92</ele>
        <time>2012-08-30T13:46:41Z</time>
      </trkpt>
      <trkpt lat="45.12356" lon="1.94458">
        <ele>341.89</ele>
        <time>2012-08-30T13:46:45Z</time>
      </trkpt>
      <trkpt lat="45.12355" lon="1.94461">
        <ele>341.89</ele>
        <time>2012-08-30T13:46:52Z</time>
      </trkpt>
      <trkpt lat="45.12352" lon="1.94466">
        <ele>342.37</ele>
        <time>2012-08-30T13:46:58Z</time>
      </trkpt>
      <trkpt lat="45.12347" lon="1.9448">
        <ele>343.33</ele>
        <time>2012-08-30T13:47:02Z</time>
      </trkpt>
      <trkpt lat="45.12341" lon="1.9451">
        <ele>342.85</ele>
        <time>2012-08-30T13:47:09Z</time>
      </trkpt>
      <trkpt lat="45.12338" lon="1.94532">
        <ele>343.81</ele>
        <time>2012-08-30T13:47:16Z</time>
      </trkpt>
      <trkpt lat="45.12336" lon="1.94549">
        <ele>343.81</ele>
        <time>2012-08-30T13:47:22Z</time>
      </trkpt>
      <trkpt lat="45.12336" lon="1.94563">
        <ele>344.29</ele>
        <time>2012-08-30T13:47:27Z</time>
      </trkpt>
      <trkpt lat="45.12334" lon="1.94583">
        <ele>344.29</ele>
        <time>2012-08-30T13:47:33Z</time>
      </trkpt>
      <trkpt lat="45.12336" lon="1.94592">
        <ele>344.77</ele>
        <time>2012-08-30T13:47:39Z</time>
      </trkpt>
      <trkpt lat="45.12339" lon="1.94599">
        <ele>345.25</ele>
        <time>2012-08-30T13:47:44Z</time>
      </trkpt>
      <trkpt lat="45.1234" lon="1.94616">
        <ele>345.25</ele>
        <time>2012-08-30T13:47:50Z</time>
      </trkpt>
      <trkpt lat="45.12343" lon="1.94626">
        <ele>345.25</ele>
        <time>2012-08-30T13:47:55Z</time>
      </trkpt>
      <trkpt lat="45.12344" lon="1.94631">
        <ele>345.25</ele>
        <time>2012-08-30T13:47:58Z</time>
      </trkpt>
      <trkpt lat="45.12342" lon="1.94639">
        <ele>344.77</ele>
        <time>2012-08-30T13:48:05Z</time>
      </trkpt>
      <trkpt lat="45.12341" lon="1.94642">
        <ele>345.25</ele>
        <time>2012-08-30T13:48:07Z</time>
      </trkpt>
      <trkpt lat="45.1234" lon="1.94646">
        <ele>344.77</ele>
        <time>2012-08-30T13:48:10Z</time>
      </trkpt>
      <trkpt lat="45.12334" lon="1.9465">
        <ele>344.77</ele>
        <time>2012-08-30T13:48:14Z</time>
      </trkpt>
      <trkpt lat="45.12332" lon="1.94652">
        <ele>344.77</ele>
        <time>2012-08-30T13:48:16Z</time>
      </trkpt>
      <trkpt lat="45.12321" lon="1.9466">
        <ele>344.77</ele>
        <time>2012-08-30T13:48:23Z</time>
      </trkpt>
      <trkpt lat="45.12312" lon="1.94665">
        <ele>344.77</ele>
        <time>2012-08-30T13:48:27Z</time>
      </trkpt>
      <trkpt lat="45.12312" lon="1.94662">
        <ele>344.29</ele>
        <time>2012-08-30T13:48:31Z</time>
      </trkpt>
      <trkpt lat="45.12312" lon="1.94662">
        <ele>344.29</ele>
        <time>2012-08-30T13:48:47Z</time>
      </trkpt>
      <trkpt lat="45.12312" lon="1.94662">
        <ele>343.81</ele>
        <time>2012-08-30T13:49:08Z</time>
      </trkpt>
      <trkpt lat="45.12312" lon="1.94663">
        <ele>343.33</ele>
        <time>2012-08-30T13:49:15Z</time>
      </trkpt>
      <trkpt lat="45.12311" lon="1.94664">
        <ele>350.54</ele>
        <time>2012-08-30T13:49:16Z</time>
      </trkpt>
      <trkpt lat="45.12311" lon="1.94664">
        <ele>346.21</ele>
        <time>2012-08-30T13:49:17Z</time>
      </trkpt>
      <trkpt lat="45.12311" lon="1.94664">
        <ele>342.37</ele>
        <time>2012-08-30T13:49:18Z</time>
      </trkpt>
      <trkpt lat="45.1231" lon="1.94666">
        <ele>335.64</ele>
        <time>2012-08-30T13:49:19Z</time>
      </trkpt>
      <trkpt lat="45.1231" lon="1.94667">
        <ele>351.02</ele>
        <time>2012-08-30T13:49:20Z</time>
      </trkpt>
      <trkpt lat="45.12309" lon="1.94668">
        <ele>346.21</ele>
        <time>2012-08-30T13:49:21Z</time>
      </trkpt>
      <trkpt lat="45.12309" lon="1.9467">
        <ele>345.73</ele>
        <time>2012-08-30T13:49:22Z</time>
      </trkpt>
      <trkpt lat="45.12308" lon="1.94671">
        <ele>345.73</ele>
        <time>2012-08-30T13:49:23Z</time>
      </trkpt>
      <trkpt lat="45.12308" lon="1.94672">
        <ele>339.48</ele>
        <time>2012-08-30T13:49:24Z</time>
      </trkpt>
      <trkpt lat="45.12307" lon="1.94673">
        <ele>348.13</ele>
        <time>2012-08-30T13:49:25Z</time>
      </trkpt>
      <trkpt lat="45.12307" lon="1.94674">
        <ele>343.81</ele>
        <time>2012-08-30T13:49:26Z</time>
      </trkpt>
      <trkpt lat="45.12307" lon="1.94675">
        <ele>347.17</ele>
        <time>2012-08-30T13:49:27Z</time>
      </trkpt>
      <trkpt lat="45.12307" lon="1.94676">
        <ele>351.5</ele>
        <time>2012-08-30T13:49:28Z</time>
      </trkpt>
      <trkpt lat="45.12306" lon="1.94677">
        <ele>345.25</ele>
        <time>2012-08-30T13:49:29Z</time>
      </trkpt>
      <trkpt lat="45.12306" lon="1.94677">
        <ele>345.25</ele>
        <time>2012-08-30T13:49:30Z</time>
      </trkpt>
      <trkpt lat="45.12305" lon="1.9468">
        <ele>346.21</ele>
        <time>2012-08-30T13:49:32Z</time>
      </trkpt>
      <trkpt lat="45.12301" lon="1.94685">
        <ele>346.21</ele>
        <time>2012-08-30T13:49:38Z</time>
      </trkpt>
      <trkpt lat="45.12293" lon="1.94695">
        <ele>347.17</ele>
        <time>2012-08-30T13:49:46Z</time>
      </trkpt>
      <trkpt lat="45.12285" lon="1.94703">
        <ele>346.69</ele>
        <time>2012-08-30T13:49:56Z</time>
      </trkpt>
      <trkpt lat="45.12276" lon="1.94714">
        <ele>347.65</ele>
        <time>2012-08-30T13:50:03Z</time>
      </trkpt>
      <trkpt lat="45.12272" lon="1.94721">
        <ele>347.65</ele>
        <time>2012-08-30T13:50:10Z</time>
      </trkpt>
      <trkpt lat="45.1227" lon="1.94729">
        <ele>348.62</ele>
        <time>2012-08-30T13:50:17Z</time>
      </trkpt>
      <trkpt lat="45.12269" lon="1.94742">
        <ele>348.62</ele>
        <time>2012-08-30T13:50:24Z</time>
      </trkpt>
      <trkpt lat="45.12269" lon="1.94745">
        <ele>348.62</ele>
        <time>2012-08-30T13:50:25Z</time>
      </trkpt>
      <trkpt lat="45.12269" lon="1.94749">
        <ele>348.62</ele>
        <time>2012-08-30T13:50:26Z</time>
      </trkpt>
      <trkpt lat="45.12269" lon="1.94753">
        <ele>348.62</ele>
        <time>2012-08-30T13:50:27Z</time>
      </trkpt>
      <trkpt lat="45.1227" lon="1.94772">
        <ele>347.65</ele>
        <time>2012-08-30T13:50:33Z</time>
      </trkpt>
      <trkpt lat="45.1227" lon="1.94791">
        <ele>347.65</ele>
        <time>2012-08-30T13:50:39Z</time>
      </trkpt>
      <trkpt lat="45.12268" lon="1.94807">
        <ele>348.62</ele>
        <time>2012-08-30T13:50:45Z</time>
      </trkpt>
      <trkpt lat="45.12264" lon="1.94828">
        <ele>348.13</ele>
        <time>2012-08-30T13:50:52Z</time>
      </trkpt>
      <trkpt lat="45.12261" lon="1.94846">
        <ele>348.13</ele>
        <time>2012-08-30T13:50:59Z</time>
      </trkpt>
      <trkpt lat="45.12259" lon="1.94851">
        <ele>348.13</ele>
        <time>2012-08-30T13:51:04Z</time>
      </trkpt>
      <trkpt lat="45.12258" lon="1.94852">
        <ele>348.62</ele>
        <time>2012-08-30T13:51:07Z</time>
      </trkpt>
      <trkpt lat="45.12257" lon="1.94853">
        <ele>348.13</ele>
        <time>2012-08-30T13:51:09Z</time>
      </trkpt>
      <trkpt lat="45.12256" lon="1.94855">
        <ele>348.13</ele>
        <time>2012-08-30T13:51:10Z</time>
      </trkpt>
      <trkpt lat="45.12255" lon="1.94857">
        <ele>347.65</ele>
        <time>2012-08-30T13:51:11Z</time>
      </trkpt>
      <trkpt lat="45.12255" lon="1.94859">
        <ele>347.65</ele>
        <time>2012-08-30T13:51:12Z</time>
      </trkpt>
      <trkpt lat="45.12254" lon="1.94862">
        <ele>348.13</ele>
        <time>2012-08-30T13:51:13Z</time>
      </trkpt>
      <trkpt lat="45.12254" lon="1.94864">
        <ele>348.13</ele>
        <time>2012-08-30T13:51:14Z</time>
      </trkpt>
      <trkpt lat="45.12253" lon="1.94867">
        <ele>347.65</ele>
        <time>2012-08-30T13:51:15Z</time>
      </trkpt>
      <trkpt lat="45.12252" lon="1.9487">
        <ele>347.17</ele>
        <time>2012-08-30T13:51:16Z</time>
      </trkpt>
      <trkpt lat="45.12252" lon="1.94873">
        <ele>347.17</ele>
        <time>2012-08-30T13:51:17Z</time>
      </trkpt>
      <trkpt lat="45.12247" lon="1.94889">
        <ele>347.65</ele>
        <time>2012-08-30T13:51:23Z</time>
      </trkpt>
      <trkpt lat="45.12246" lon="1.949">
        <ele>346.21</ele>
        <time>2012-08-30T13:51:28Z</time>
      </trkpt>
      <trkpt lat="45.12245" lon="1.94918">
        <ele>345.73</ele>
        <time>2012-08-30T13:51:34Z</time>
      </trkpt>
      <trkpt lat="45.12243" lon="1.94924">
        <ele>345.73</ele>
        <time>2012-08-30T13:51:36Z</time>
      </trkpt>
      <trkpt lat="45.12241" lon="1.94924">
        <ele>345.25</ele>
        <time>2012-08-30T13:51:37Z</time>
      </trkpt>
      <trkpt lat="45.1224" lon="1.94925">
        <ele>345.25</ele>
        <time>2012-08-30T13:51:38Z</time>
      </trkpt>
      <trkpt lat="45.12231" lon="1.94935">
        <ele>344.77</ele>
        <time>2012-08-30T13:51:43Z</time>
      </trkpt>
      <trkpt lat="45.12223" lon="1.94938">
        <ele>344.29</ele>
        <time>2012-08-30T13:51:48Z</time>
      </trkpt>
      <trkpt lat="45.12219" lon="1.94938">
        <ele>343.81</ele>
        <time>2012-08-30T13:51:53Z</time>
      </trkpt>
      <trkpt lat="45.12219" lon="1.94937">
        <ele>342.85</ele>
        <time>2012-08-30T13:51:59Z</time>
      </trkpt>
      <trkpt lat="45.12216" lon="1.94933">
        <ele>343.33</ele>
        <time>2012-08-30T13:52:03Z</time>
      </trkpt>
      <trkpt lat="45.12215" lon="1.94931">
        <ele>343.33</ele>
        <time>2012-08-30T13:52:04Z</time>
      </trkpt>
      <trkpt lat="45.12213" lon="1.94928">
        <ele>342.37</ele>
        <time>2012-08-30T13:52:05Z</time>
      </trkpt>
      <trkpt lat="45.1221" lon="1.94928">
        <ele>342.37</ele>
        <time>2012-08-30T13:52:06Z</time>
      </trkpt>
      <trkpt lat="45.12207" lon="1.94927">
        <ele>342.85</ele>
        <time>2012-08-30T13:52:07Z</time>
      </trkpt>
      <trkpt lat="45.12204" lon="1.94928">
        <ele>342.37</ele>
        <time>2012-08-30T13:52:08Z</time>
      </trkpt>
      <trkpt lat="45.12201" lon="1.94927">
        <ele>342.37</ele>
        <time>2012-08-30T13:52:09Z</time>
      </trkpt>
      <trkpt lat="45.12198" lon="1.94925">
        <ele>342.85</ele>
        <time>2012-08-30T13:52:10Z</time>
      </trkpt>
      <trkpt lat="45.1219" lon="1.94923">
        <ele>342.37</ele>
        <time>2012-08-30T13:52:12Z</time>
      </trkpt>
      <trkpt lat="45.12186" lon="1.94921">
        <ele>341.89</ele>
        <time>2012-08-30T13:52:13Z</time>
      </trkpt>
      <trkpt lat="45.12185" lon="1.9492">
        <ele>341.89</ele>
        <time>2012-08-30T13:52:14Z</time>
      </trkpt>
      <trkpt lat="45.12183" lon="1.94919">
        <ele>342.85</ele>
        <time>2012-08-30T13:52:15Z</time>
      </trkpt>
      <trkpt lat="45.12182" lon="1.94917">
        <ele>342.37</ele>
        <time>2012-08-30T13:52:22Z</time>
      </trkpt>
      <trkpt lat="45.12182" lon="1.94917">
        <ele>342.37</ele>
        <time>2012-08-30T13:52:29Z</time>
      </trkpt>
      <trkpt lat="45.12182" lon="1.94917">
        <ele>341.41</ele>
        <time>2012-08-30T13:52:36Z</time>
      </trkpt>
      <trkpt lat="45.12182" lon="1.94917">
        <ele>341.89</ele>
        <time>2012-08-30T13:52:46Z</time>
      </trkpt>
      <trkpt lat="45.1218" lon="1.94916">
        <ele>341.89</ele>
        <time>2012-08-30T13:53:05Z</time>
      </trkpt>
      <trkpt lat="45.12169" lon="1.94914">
        <ele>344.77</ele>
        <time>2012-08-30T13:53:11Z</time>
      </trkpt>
      <trkpt lat="45.12166" lon="1.94917">
        <ele>340.44</ele>
        <time>2012-08-30T13:53:12Z</time>
      </trkpt>
      <trkpt lat="45.12162" lon="1.94919">
        <ele>342.37</ele>
        <time>2012-08-30T13:53:13Z</time>
      </trkpt>
      <trkpt lat="45.12155" lon="1.94926">
        <ele>342.85</ele>
        <time>2012-08-30T13:53:15Z</time>
      </trkpt>
      <trkpt lat="45.12132" lon="1.94947">
        <ele>347.17</ele>
        <time>2012-08-30T13:53:21Z</time>
      </trkpt>
      <trkpt lat="45.12123" lon="1.94952">
        <ele>343.33</ele>
        <time>2012-08-30T13:53:23Z</time>
      </trkpt>
      <trkpt lat="45.1212" lon="1.94956">
        <ele>344.29</ele>
        <time>2012-08-30T13:53:24Z</time>
      </trkpt>
      <trkpt lat="45.12114" lon="1.94965">
        <ele>345.73</ele>
        <time>2012-08-30T13:53:26Z</time>
      </trkpt>
      <trkpt lat="45.12111" lon="1.94969">
        <ele>345.73</ele>
        <time>2012-08-30T13:53:27Z</time>
      </trkpt>
      <trkpt lat="45.12107" lon="1.94972">
        <ele>342.85</ele>
        <time>2012-08-30T13:53:28Z</time>
      </trkpt>
      <trkpt lat="45.12102" lon="1.94975">
        <ele>345.73</ele>
        <time>2012-08-30T13:53:29Z</time>
      </trkpt>
      <trkpt lat="45.12086" lon="1.94983">
        <ele>350.54</ele>
        <time>2012-08-30T13:53:32Z</time>
      </trkpt>
      <trkpt lat="45.1208" lon="1.94985">
        <ele>340.44</ele>
        <time>2012-08-30T13:53:33Z</time>
      </trkpt>
      <trkpt lat="45.12075" lon="1.94987">
        <ele>345.73</ele>
        <time>2012-08-30T13:53:34Z</time>
      </trkpt>
      <trkpt lat="45.12046" lon="1.94989">
        <ele>341.89</ele>
        <time>2012-08-30T13:53:39Z</time>
      </trkpt>
      <trkpt lat="45.12041" lon="1.94989">
        <ele>346.69</ele>
        <time>2012-08-30T13:53:40Z</time>
      </trkpt>
      <trkpt lat="45.12035" lon="1.94989">
        <ele>337.56</ele>
        <time>2012-08-30T13:53:41Z</time>
      </trkpt>
      <trkpt lat="45.1203" lon="1.94988">
        <ele>343.33</ele>
        <time>2012-08-30T13:53:42Z</time>
      </trkpt>
      <trkpt lat="45.12009" lon="1.94988">
        <ele>345.25</ele>
        <time>2012-08-30T13:53:46Z</time>
      </trkpt>
      <trkpt lat="45.12005" lon="1.94989">
        <ele>340.44</ele>
        <time>2012-08-30T13:53:47Z</time>
      </trkpt>
      <trkpt lat="45.12" lon="1.94992">
        <ele>341.89</ele>
        <time>2012-08-30T13:53:48Z</time>
      </trkpt>
      <trkpt lat="45.11996" lon="1.94995">
        <ele>337.08</ele>
        <time>2012-08-30T13:53:49Z</time>
      </trkpt>
      <trkpt lat="45.11992" lon="1.94999">
        <ele>343.33</ele>
        <time>2012-08-30T13:53:50Z</time>
      </trkpt>
      <trkpt lat="45.11988" lon="1.95003">
        <ele>340.44</ele>
        <time>2012-08-30T13:53:51Z</time>
      </trkpt>
      <trkpt lat="45.1198" lon="1.95011">
        <ele>339.48</ele>
        <time>2012-08-30T13:53:53Z</time>
      </trkpt>
      <trkpt lat="45.11957" lon="1.95032">
        <ele>335.16</ele>
        <time>2012-08-30T13:53:58Z</time>
      </trkpt>
      <trkpt lat="45.11953" lon="1.95036">
        <ele>335.16</ele>
        <time>2012-08-30T13:53:59Z</time>
      </trkpt>
      <trkpt lat="45.11944" lon="1.95043">
        <ele>337.08</ele>
        <time>2012-08-30T13:54:01Z</time>
      </trkpt>
      <trkpt lat="45.11913" lon="1.95074">
        <ele>337.56</ele>
        <time>2012-08-30T13:54:08Z</time>
      </trkpt>
      <trkpt lat="45.11886" lon="1.95098">
        <ele>334.2</ele>
        <time>2012-08-30T13:54:15Z</time>
      </trkpt>
      <trkpt lat="45.11881" lon="1.95101">
        <ele>337.56</ele>
        <time>2012-08-30T13:54:16Z</time>
      </trkpt>
      <trkpt lat="45.11873" lon="1.95105">
        <ele>338.52</ele>
        <time>2012-08-30T13:54:18Z</time>
      </trkpt>
      <trkpt lat="45.11838" lon="1.95117">
        <ele>341.89</ele>
        <time>2012-08-30T13:54:27Z</time>
      </trkpt>
      <trkpt lat="45.11805" lon="1.95126">
        <ele>344.77</ele>
        <time>2012-08-30T13:54:35Z</time>
      </trkpt>
      <trkpt lat="45.11776" lon="1.95131">
        <ele>343.81</ele>
        <time>2012-08-30T13:54:42Z</time>
      </trkpt>
      <trkpt lat="45.11762" lon="1.95134">
        <ele>342.37</ele>
        <time>2012-08-30T13:54:45Z</time>
      </trkpt>
      <trkpt lat="45.11749" lon="1.95137">
        <ele>341.89</ele>
        <time>2012-08-30T13:54:48Z</time>
      </trkpt>
      <trkpt lat="45.11746" lon="1.95139">
        <ele>341.41</ele>
        <time>2012-08-30T13:54:49Z</time>
      </trkpt>
      <trkpt lat="45.11742" lon="1.95142">
        <ele>340.92</ele>
        <time>2012-08-30T13:54:50Z</time>
      </trkpt>
      <trkpt lat="45.11739" lon="1.95146">
        <ele>341.41</ele>
        <time>2012-08-30T13:54:51Z</time>
      </trkpt>
      <trkpt lat="45.11736" lon="1.95151">
        <ele>340.92</ele>
        <time>2012-08-30T13:54:52Z</time>
      </trkpt>
      <trkpt lat="45.11733" lon="1.95155">
        <ele>340.92</ele>
        <time>2012-08-30T13:54:53Z</time>
      </trkpt>
      <trkpt lat="45.1173" lon="1.95159">
        <ele>340.92</ele>
        <time>2012-08-30T13:54:54Z</time>
      </trkpt>
      <trkpt lat="45.11727" lon="1.95163">
        <ele>340.92</ele>
        <time>2012-08-30T13:54:55Z</time>
      </trkpt>
      <trkpt lat="45.11724" lon="1.95165">
        <ele>340.44</ele>
        <time>2012-08-30T13:54:56Z</time>
      </trkpt>
      <trkpt lat="45.1172" lon="1.95168">
        <ele>340.92</ele>
        <time>2012-08-30T13:54:57Z</time>
      </trkpt>
      <trkpt lat="45.11697" lon="1.95175">
        <ele>339</ele>
        <time>2012-08-30T13:55:03Z</time>
      </trkpt>
      <trkpt lat="45.11692" lon="1.95175">
        <ele>338.52</ele>
        <time>2012-08-30T13:55:04Z</time>
      </trkpt>
      <trkpt lat="45.11689" lon="1.95175">
        <ele>338.04</ele>
        <time>2012-08-30T13:55:05Z</time>
      </trkpt>
      <trkpt lat="45.11686" lon="1.95173">
        <ele>338.04</ele>
        <time>2012-08-30T13:55:06Z</time>
      </trkpt>
      <trkpt lat="45.11683" lon="1.95172">
        <ele>338.04</ele>
        <time>2012-08-30T13:55:07Z</time>
      </trkpt>
      <trkpt lat="45.1168" lon="1.95169">
        <ele>338.52</ele>
        <time>2012-08-30T13:55:08Z</time>
      </trkpt>
      <trkpt lat="45.11677" lon="1.95166">
        <ele>338.04</ele>
        <time>2012-08-30T13:55:09Z</time>
      </trkpt>
      <trkpt lat="45.11674" lon="1.95161">
        <ele>337.56</ele>
        <time>2012-08-30T13:55:10Z</time>
      </trkpt>
      <trkpt lat="45.11672" lon="1.95157">
        <ele>337.56</ele>
        <time>2012-08-30T13:55:11Z</time>
      </trkpt>
      <trkpt lat="45.1167" lon="1.95153">
        <ele>337.56</ele>
        <time>2012-08-30T13:55:12Z</time>
      </trkpt>
      <trkpt lat="45.11668" lon="1.95149">
        <ele>337.08</ele>
        <time>2012-08-30T13:55:13Z</time>
      </trkpt>
      <trkpt lat="45.11653" lon="1.95117">
        <ele>334.68</ele>
        <time>2012-08-30T13:55:20Z</time>
      </trkpt>
      <trkpt lat="45.11629" lon="1.95088">
        <ele>333.71</ele>
        <time>2012-08-30T13:55:28Z</time>
      </trkpt>
      <trkpt lat="45.11599" lon="1.95075">
        <ele>331.31</ele>
        <time>2012-08-30T13:55:36Z</time>
      </trkpt>
      <trkpt lat="45.11578" lon="1.95079">
        <ele>329.87</ele>
        <time>2012-08-30T13:55:42Z</time>
      </trkpt>
      <trkpt lat="45.11553" lon="1.95081">
        <ele>328.43</ele>
        <time>2012-08-30T13:55:50Z</time>
      </trkpt>
      <trkpt lat="45.1152" lon="1.95073">
        <ele>326.99</ele>
        <time>2012-08-30T13:56:00Z</time>
      </trkpt>
      <trkpt lat="45.11498" lon="1.95064">
        <ele>325.06</ele>
        <time>2012-08-30T13:56:07Z</time>
      </trkpt>
      <trkpt lat="45.11478" lon="1.9505">
        <ele>323.62</ele>
        <time>2012-08-30T13:56:14Z</time>
      </trkpt>
      <trkpt lat="45.11459" lon="1.9504">
        <ele>322.18</ele>
        <time>2012-08-30T13:56:20Z</time>
      </trkpt>
      <trkpt lat="45.1144" lon="1.95035">
        <ele>319.3</ele>
        <time>2012-08-30T13:56:27Z</time>
      </trkpt>
      <trkpt lat="45.11418" lon="1.95036">
        <ele>316.89</ele>
        <time>2012-08-30T13:56:35Z</time>
      </trkpt>
      <trkpt lat="45.11401" lon="1.95038">
        <ele>313.53</ele>
        <time>2012-08-30T13:56:42Z</time>
      </trkpt>
      <trkpt lat="45.11385" lon="1.9504">
        <ele>311.12</ele>
        <time>2012-08-30T13:56:48Z</time>
      </trkpt>
      <trkpt lat="45.11365" lon="1.9505">
        <ele>308.72</ele>
        <time>2012-08-30T13:56:56Z</time>
      </trkpt>
      <trkpt lat="45.11358" lon="1.9505">
        <ele>307.28</ele>
        <time>2012-08-30T13:56:59Z</time>
      </trkpt>
      <trkpt lat="45.11341" lon="1.95041">
        <ele>304.88</ele>
        <time>2012-08-30T13:57:07Z</time>
      </trkpt>
      <trkpt lat="45.11312" lon="1.95012">
        <ele>301.99</ele>
        <time>2012-08-30T13:57:17Z</time>
      </trkpt>
      <trkpt lat="45.11286" lon="1.94971">
        <ele>299.11</ele>
        <time>2012-08-30T13:57:28Z</time>
      </trkpt>
      <trkpt lat="45.11264" lon="1.94939">
        <ele>296.7</ele>
        <time>2012-08-30T13:57:35Z</time>
      </trkpt>
      <trkpt lat="45.1124" lon="1.94914">
        <ele>293.82</ele>
        <time>2012-08-30T13:57:43Z</time>
      </trkpt>
      <trkpt lat="45.1122" lon="1.94916">
        <ele>290.46</ele>
        <time>2012-08-30T13:57:50Z</time>
      </trkpt>
      <trkpt lat="45.11201" lon="1.94936">
        <ele>287.09</ele>
        <time>2012-08-30T13:57:57Z</time>
      </trkpt>
      <trkpt lat="45.11182" lon="1.94935">
        <ele>284.69</ele>
        <time>2012-08-30T13:58:01Z</time>
      </trkpt>
      <trkpt lat="45.11173" lon="1.94934">
        <ele>283.25</ele>
        <time>2012-08-30T13:58:03Z</time>
      </trkpt>
      <trkpt lat="45.11158" lon="1.94932">
        <ele>281.8</ele>
        <time>2012-08-30T13:58:07Z</time>
      </trkpt>
      <trkpt lat="45.11128" lon="1.9493">
        <ele>279.88</ele>
        <time>2012-08-30T13:58:15Z</time>
      </trkpt>
      <trkpt lat="45.11105" lon="1.94916">
        <ele>277</ele>
        <time>2012-08-30T13:58:22Z</time>
      </trkpt>
      <trkpt lat="45.11079" lon="1.94895">
        <ele>274.11</ele>
        <time>2012-08-30T13:58:30Z</time>
      </trkpt>
      <trkpt lat="45.11057" lon="1.94877">
        <ele>273.15</ele>
        <time>2012-08-30T13:58:37Z</time>
      </trkpt>
      <trkpt lat="45.1103" lon="1.94869">
        <ele>269.31</ele>
        <time>2012-08-30T13:58:44Z</time>
      </trkpt>
      <trkpt lat="45.11026" lon="1.94868">
        <ele>265.94</ele>
        <time>2012-08-30T13:58:45Z</time>
      </trkpt>
      <trkpt lat="45.11023" lon="1.94868">
        <ele>271.23</ele>
        <time>2012-08-30T13:58:46Z</time>
      </trkpt>
      <trkpt lat="45.11016" lon="1.94865">
        <ele>264.98</ele>
        <time>2012-08-30T13:58:48Z</time>
      </trkpt>
      <trkpt lat="45.11012" lon="1.94862">
        <ele>267.86</ele>
        <time>2012-08-30T13:58:49Z</time>
      </trkpt>
      <trkpt lat="45.11004" lon="1.94857">
        <ele>264.02</ele>
        <time>2012-08-30T13:58:51Z</time>
      </trkpt>
      <trkpt lat="45.11" lon="1.94854">
        <ele>268.35</ele>
        <time>2012-08-30T13:58:52Z</time>
      </trkpt>
      <trkpt lat="45.10986" lon="1.94849">
        <ele>264.98</ele>
        <time>2012-08-30T13:58:56Z</time>
      </trkpt>
      <trkpt lat="45.10964" lon="1.94842">
        <ele>263.06</ele>
        <time>2012-08-30T13:59:03Z</time>
      </trkpt>
      <trkpt lat="45.1095" lon="1.94837">
        <ele>260.65</ele>
        <time>2012-08-30T13:59:11Z</time>
      </trkpt>
      <trkpt lat="45.10939" lon="1.94821">
        <ele>259.69</ele>
        <time>2012-08-30T13:59:18Z</time>
      </trkpt>
      <trkpt lat="45.10929" lon="1.94798">
        <ele>258.73</ele>
        <time>2012-08-30T13:59:26Z</time>
      </trkpt>
      <trkpt lat="45.10925" lon="1.94786">
        <ele>258.25</ele>
        <time>2012-08-30T13:59:31Z</time>
      </trkpt>
      <trkpt lat="45.10924" lon="1.94773">
        <ele>257.29</ele>
        <time>2012-08-30T13:59:42Z</time>
      </trkpt>
      <trkpt lat="45.10924" lon="1.94773">
        <ele>256.81</ele>
        <time>2012-08-30T13:59:58Z</time>
      </trkpt>
      <trkpt lat="45.10924" lon="1.94773">
        <ele>257.29</ele>
        <time>2012-08-30T14:00:11Z</time>
      </trkpt>
      <trkpt lat="45.10926" lon="1.9476">
        <ele>256.33</ele>
        <time>2012-08-30T14:00:22Z</time>
      </trkpt>
      <trkpt lat="45.1092" lon="1.94736">
        <ele>253.93</ele>
        <time>2012-08-30T14:00:33Z</time>
      </trkpt>
      <trkpt lat="45.10924" lon="1.94725">
        <ele>251.04</ele>
        <time>2012-08-30T14:00:43Z</time>
      </trkpt>
      <trkpt lat="45.10926" lon="1.94729">
        <ele>250.56</ele>
        <time>2012-08-30T14:00:46Z</time>
      </trkpt>
      <trkpt lat="45.10941" lon="1.94747">
        <ele>249.12</ele>
        <time>2012-08-30T14:00:56Z</time>
      </trkpt>
      <trkpt lat="45.10947" lon="1.94764">
        <ele>247.68</ele>
        <time>2012-08-30T14:01:07Z</time>
      </trkpt>
      <trkpt lat="45.10947" lon="1.94765">
        <ele>247.2</ele>
        <time>2012-08-30T14:01:21Z</time>
      </trkpt>
      <trkpt lat="45.10949" lon="1.94769">
        <ele>248.16</ele>
        <time>2012-08-30T14:01:33Z</time>
      </trkpt>
      <trkpt lat="45.1095" lon="1.94769">
        <ele>248.64</ele>
        <time>2012-08-30T14:01:47Z</time>
      </trkpt>
      <trkpt lat="45.10955" lon="1.94769">
        <ele>248.16</ele>
        <time>2012-08-30T14:01:57Z</time>
      </trkpt>
      <trkpt lat="45.10955" lon="1.94769">
        <ele>247.68</ele>
        <time>2012-08-30T14:01:58Z</time>
      </trkpt>
      <trkpt lat="45.10959" lon="1.94768">
        <ele>247.68</ele>
        <time>2012-08-30T14:02:02Z</time>
      </trkpt>
      <trkpt lat="45.10967" lon="1.94768">
        <ele>246.23</ele>
        <time>2012-08-30T14:02:07Z</time>
      </trkpt>
      <trkpt lat="45.1097" lon="1.94767">
        <ele>245.27</ele>
        <time>2012-08-30T14:02:09Z</time>
      </trkpt>
      <trkpt lat="45.10974" lon="1.94767">
        <ele>245.27</ele>
        <time>2012-08-30T14:02:12Z</time>
      </trkpt>
      <trkpt lat="45.10976" lon="1.94761">
        <ele>244.79</ele>
        <time>2012-08-30T14:02:16Z</time>
      </trkpt>
      <trkpt lat="45.10979" lon="1.94758">
        <ele>243.83</ele>
        <time>2012-08-30T14:02:19Z</time>
      </trkpt>
      <trkpt lat="45.10986" lon="1.94754">
        <ele>242.39</ele>
        <time>2012-08-30T14:02:27Z</time>
      </trkpt>
      <trkpt lat="45.10986" lon="1.94754">
        <ele>242.39</ele>
        <time>2012-08-30T14:02:28Z</time>
      </trkpt>
      <trkpt lat="45.10992" lon="1.94747">
        <ele>241.91</ele>
        <time>2012-08-30T14:02:34Z</time>
      </trkpt>
      <trkpt lat="45.10994" lon="1.94744">
        <ele>240.47</ele>
        <time>2012-08-30T14:02:40Z</time>
      </trkpt>
      <trkpt lat="45.10997" lon="1.94741">
        <ele>238.54</ele>
        <time>2012-08-30T14:02:48Z</time>
      </trkpt>
      <trkpt lat="45.11" lon="1.94738">
        <ele>237.1</ele>
        <time>2012-08-30T14:02:55Z</time>
      </trkpt>
      <trkpt lat="45.11004" lon="1.94736">
        <ele>236.62</ele>
        <time>2012-08-30T14:02:57Z</time>
      </trkpt>
      <trkpt lat="45.11015" lon="1.94733">
        <ele>234.7</ele>
        <time>2012-08-30T14:03:03Z</time>
      </trkpt>
      <trkpt lat="45.11019" lon="1.94731">
        <ele>238.54</ele>
        <time>2012-08-30T14:03:08Z</time>
      </trkpt>
      <trkpt lat="45.11019" lon="1.94731">
        <ele>231.81</ele>
        <time>2012-08-30T14:03:09Z</time>
      </trkpt>
      <trkpt lat="45.11019" lon="1.94731">
        <ele>236.14</ele>
        <time>2012-08-30T14:03:10Z</time>
      </trkpt>
      <trkpt lat="45.11019" lon="1.94731">
        <ele>234.22</ele>
        <time>2012-08-30T14:03:13Z</time>
      </trkpt>
      <trkpt lat="45.1102" lon="1.94715">
        <ele>233.26</ele>
        <time>2012-08-30T14:03:21Z</time>
      </trkpt>
      <trkpt lat="45.1102" lon="1.94713">
        <ele>232.78</ele>
        <time>2012-08-30T14:03:22Z</time>
      </trkpt>
      <trkpt lat="45.11015" lon="1.94698">
        <ele>231.81</ele>
        <time>2012-08-30T14:03:30Z</time>
      </trkpt>
      <trkpt lat="45.11006" lon="1.94686">
        <ele>229.41</ele>
        <time>2012-08-30T14:03:38Z</time>
      </trkpt>
      <trkpt lat="45.10993" lon="1.9468">
        <ele>228.45</ele>
        <time>2012-08-30T14:03:46Z</time>
      </trkpt>
      <trkpt lat="45.10988" lon="1.94681">
        <ele>228.45</ele>
        <time>2012-08-30T14:03:51Z</time>
      </trkpt>
      <trkpt lat="45.10985" lon="1.9468">
        <ele>226.05</ele>
        <time>2012-08-30T14:04:00Z</time>
      </trkpt>
      <trkpt lat="45.10986" lon="1.94678">
        <ele>226.05</ele>
        <time>2012-08-30T14:04:02Z</time>
      </trkpt>
      <trkpt lat="45.10989" lon="1.94675">
        <ele>225.09</ele>
        <time>2012-08-30T14:04:04Z</time>
      </trkpt>
      <trkpt lat="45.10994" lon="1.94662">
        <ele>224.12</ele>
        <time>2012-08-30T14:04:09Z</time>
      </trkpt>
      <trkpt lat="45.10995" lon="1.9466">
        <ele>224.12</ele>
        <time>2012-08-30T14:04:10Z</time>
      </trkpt>
      <trkpt lat="45.10993" lon="1.94651">
        <ele>223.16</ele>
        <time>2012-08-30T14:04:16Z</time>
      </trkpt>
      <trkpt lat="45.10996" lon="1.94646">
        <ele>221.72</ele>
        <time>2012-08-30T14:04:24Z</time>
      </trkpt>
      <trkpt lat="45.11002" lon="1.94639">
        <ele>221.24</ele>
        <time>2012-08-30T14:04:31Z</time>
      </trkpt>
      <trkpt lat="45.11002" lon="1.94632">
        <ele>218.84</ele>
        <time>2012-08-30T14:04:40Z</time>
      </trkpt>
      <trkpt lat="45.10999" lon="1.94623">
        <ele>218.84</ele>
        <time>2012-08-30T14:04:46Z</time>
      </trkpt>
      <trkpt lat="45.10994" lon="1.9461">
        <ele>217.4</ele>
        <time>2012-08-30T14:04:51Z</time>
      </trkpt>
      <trkpt lat="45.10991" lon="1.9459">
        <ele>217.88</ele>
        <time>2012-08-30T14:04:58Z</time>
      </trkpt>
      <trkpt lat="45.1099" lon="1.94582">
        <ele>217.4</ele>
        <time>2012-08-30T14:05:01Z</time>
      </trkpt>
      <trkpt lat="45.10991" lon="1.94571">
        <ele>216.91</ele>
        <time>2012-08-30T14:05:06Z</time>
      </trkpt>
      <trkpt lat="45.11" lon="1.94553">
        <ele>216.43</ele>
        <time>2012-08-30T14:05:14Z</time>
      </trkpt>
      <trkpt lat="45.11001" lon="1.94551">
        <ele>215.95</ele>
        <time>2012-08-30T14:05:15Z</time>
      </trkpt>
      <trkpt lat="45.10997" lon="1.94541">
        <ele>215.95</ele>
        <time>2012-08-30T14:05:20Z</time>
      </trkpt>
      <trkpt lat="45.10993" lon="1.94537">
        <ele>214.51</ele>
        <time>2012-08-30T14:05:27Z</time>
      </trkpt>
      <trkpt lat="45.10994" lon="1.94535">
        <ele>214.51</ele>
        <time>2012-08-30T14:05:29Z</time>
      </trkpt>
      <trkpt lat="45.10992" lon="1.94531">
        <ele>212.59</ele>
        <time>2012-08-30T14:05:37Z</time>
      </trkpt>
      <trkpt lat="45.10992" lon="1.94521">
        <ele>211.63</ele>
        <time>2012-08-30T14:05:45Z</time>
      </trkpt>
      <trkpt lat="45.10993" lon="1.94519">
        <ele>211.15</ele>
        <time>2012-08-30T14:05:46Z</time>
      </trkpt>
      <trkpt lat="45.10999" lon="1.94506">
        <ele>210.19</ele>
        <time>2012-08-30T14:05:51Z</time>
      </trkpt>
      <trkpt lat="45.11005" lon="1.94496">
        <ele>209.7</ele>
        <time>2012-08-30T14:05:54Z</time>
      </trkpt>
      <trkpt lat="45.11009" lon="1.94474">
        <ele>208.74</ele>
        <time>2012-08-30T14:06:02Z</time>
      </trkpt>
      <trkpt lat="45.11011" lon="1.94461">
        <ele>207.3</ele>
        <time>2012-08-30T14:06:10Z</time>
      </trkpt>
      <trkpt lat="45.1101" lon="1.94455">
        <ele>206.82</ele>
        <time>2012-08-30T14:06:17Z</time>
      </trkpt>
      <trkpt lat="45.11007" lon="1.94446">
        <ele>204.9</ele>
        <time>2012-08-30T14:06:24Z</time>
      </trkpt>
      <trkpt lat="45.11007" lon="1.94439">
        <ele>204.42</ele>
        <time>2012-08-30T14:06:31Z</time>
      </trkpt>
      <trkpt lat="45.11007" lon="1.94432">
        <ele>203.94</ele>
        <time>2012-08-30T14:06:36Z</time>
      </trkpt>
      <trkpt lat="45.11003" lon="1.94423">
        <ele>202.49</ele>
        <time>2012-08-30T14:06:43Z</time>
      </trkpt>
      <trkpt lat="45.10996" lon="1.94405">
        <ele>200.57</ele>
        <time>2012-08-30T14:06:50Z</time>
      </trkpt>
      <trkpt lat="45.10994" lon="1.94392">
        <ele>200.09</ele>
        <time>2012-08-30T14:06:57Z</time>
      </trkpt>
      <trkpt lat="45.10996" lon="1.94387">
        <ele>200.57</ele>
        <time>2012-08-30T14:07:04Z</time>
      </trkpt>
      <trkpt lat="45.10996" lon="1.94387">
        <ele>203.46</ele>
        <time>2012-08-30T14:07:08Z</time>
      </trkpt>
      <trkpt lat="45.10996" lon="1.94387">
        <ele>200.57</ele>
        <time>2012-08-30T14:07:09Z</time>
      </trkpt>
      <trkpt lat="45.10996" lon="1.94387">
        <ele>202.98</ele>
        <time>2012-08-30T14:07:24Z</time>
      </trkpt>
      <trkpt lat="45.10996" lon="1.94387">
        <ele>199.61</ele>
        <time>2012-08-30T14:07:25Z</time>
      </trkpt>
      <trkpt lat="45.10996" lon="1.94387">
        <ele>203.46</ele>
        <time>2012-08-30T14:07:28Z</time>
      </trkpt>
      <trkpt lat="45.10997" lon="1.94386">
        <ele>199.13</ele>
        <time>2012-08-30T14:07:37Z</time>
      </trkpt>
      <trkpt lat="45.10997" lon="1.94386">
        <ele>201.53</ele>
        <time>2012-08-30T14:07:51Z</time>
      </trkpt>
      <trkpt lat="45.10997" lon="1.94386">
        <ele>194.32</ele>
        <time>2012-08-30T14:07:53Z</time>
      </trkpt>
      <trkpt lat="45.10997" lon="1.94386">
        <ele>202.01</ele>
        <time>2012-08-30T14:07:54Z</time>
      </trkpt>
      <trkpt lat="45.10997" lon="1.94386">
        <ele>197.21</ele>
        <time>2012-08-30T14:07:55Z</time>
      </trkpt>
      <trkpt lat="45.10997" lon="1.94386">
        <ele>203.46</ele>
        <time>2012-08-30T14:07:58Z</time>
      </trkpt>
      <trkpt lat="45.10997" lon="1.94386">
        <ele>201.05</ele>
        <time>2012-08-30T14:07:59Z</time>
      </trkpt>
      <trkpt lat="45.10997" lon="1.94385">
        <ele>200.57</ele>
        <time>2012-08-30T14:08:11Z</time>
      </trkpt>
      <trkpt lat="45.10997" lon="1.94385">
        <ele>201.53</ele>
        <time>2012-08-30T14:08:25Z</time>
      </trkpt>
      <trkpt lat="45.10997" lon="1.94385">
        <ele>206.34</ele>
        <time>2012-08-30T14:08:26Z</time>
      </trkpt>
      <trkpt lat="45.10997" lon="1.94385">
        <ele>201.05</ele>
        <time>2012-08-30T14:08:27Z</time>
      </trkpt>
      <trkpt lat="45.10997" lon="1.94385">
        <ele>200.57</ele>
        <time>2012-08-30T14:08:29Z</time>
      </trkpt>
      <trkpt lat="45.10997" lon="1.94385">
        <ele>200.57</ele>
        <time>2012-08-30T14:08:41Z</time>
      </trkpt>
      <trkpt lat="45.10997" lon="1.94379">
        <ele>200.09</ele>
        <time>2012-08-30T14:08:49Z</time>
      </trkpt>
      <trkpt lat="45.10996" lon="1.94377">
        <ele>200.57</ele>
        <time>2012-08-30T14:08:58Z</time>
      </trkpt>
      <trkpt lat="45.10992" lon="1.94373">
        <ele>201.05</ele>
        <time>2012-08-30T14:09:09Z</time>
      </trkpt>
      <trkpt lat="45.10992" lon="1.94373">
        <ele>200.57</ele>
        <time>2012-08-30T14:09:20Z</time>
      </trkpt>
      <trkpt lat="45.10991" lon="1.94373">
        <ele>201.05</ele>
        <time>2012-08-30T14:09:33Z</time>
      </trkpt>
      <trkpt lat="45.10993" lon="1.94377">
        <ele>200.57</ele>
        <time>2012-08-30T14:09:42Z</time>
      </trkpt>
      <trkpt lat="45.10993" lon="1.94378">
        <ele>201.05</ele>
        <time>2012-08-30T14:09:43Z</time>
      </trkpt>
      <trkpt lat="45.10992" lon="1.94381">
        <ele>200.57</ele>
        <time>2012-08-30T14:09:49Z</time>
      </trkpt>
      <trkpt lat="45.10993" lon="1.9438">
        <ele>200.09</ele>
        <time>2012-08-30T14:09:55Z</time>
      </trkpt>
      <trkpt lat="45.10994" lon="1.9438">
        <ele>200.57</ele>
        <time>2012-08-30T14:09:56Z</time>
      </trkpt>
      <trkpt lat="45.10997" lon="1.9438">
        <ele>200.09</ele>
        <time>2012-08-30T14:10:01Z</time>
      </trkpt>
      <trkpt lat="45.10993" lon="1.94382">
        <ele>199.61</ele>
        <time>2012-08-30T14:10:10Z</time>
      </trkpt>
      <trkpt lat="45.10984" lon="1.94376">
        <ele>201.05</ele>
        <time>2012-08-30T14:10:14Z</time>
      </trkpt>
      <trkpt lat="45.10979" lon="1.94376">
        <ele>201.05</ele>
        <time>2012-08-30T14:10:15Z</time>
      </trkpt>
      <trkpt lat="45.10941" lon="1.94377">
        <ele>202.01</ele>
        <time>2012-08-30T14:10:21Z</time>
      </trkpt>
      <trkpt lat="45.10877" lon="1.94383">
        <ele>200.57</ele>
        <time>2012-08-30T14:10:29Z</time>
      </trkpt>
      <trkpt lat="45.10869" lon="1.94386">
        <ele>200.09</ele>
        <time>2012-08-30T14:10:30Z</time>
      </trkpt>
      <trkpt lat="45.10801" lon="1.94409">
        <ele>200.57</ele>
        <time>2012-08-30T14:10:37Z</time>
      </trkpt>
      <trkpt lat="45.10702" lon="1.94438">
        <ele>197.69</ele>
        <time>2012-08-30T14:10:46Z</time>
      </trkpt>
      <trkpt lat="45.10691" lon="1.94437">
        <ele>197.21</ele>
        <time>2012-08-30T14:10:47Z</time>
      </trkpt>
      <trkpt lat="45.1068" lon="1.94435">
        <ele>196.73</ele>
        <time>2012-08-30T14:10:48Z</time>
      </trkpt>
      <trkpt lat="45.10669" lon="1.94432">
        <ele>196.25</ele>
        <time>2012-08-30T14:10:49Z</time>
      </trkpt>
      <trkpt lat="45.10659" lon="1.94428">
        <ele>195.77</ele>
        <time>2012-08-30T14:10:50Z</time>
      </trkpt>
      <trkpt lat="45.1059" lon="1.94408">
        <ele>194.32</ele>
        <time>2012-08-30T14:10:57Z</time>
      </trkpt>
      <trkpt lat="45.10577" lon="1.94399">
        <ele>193.36</ele>
        <time>2012-08-30T14:10:59Z</time>
      </trkpt>
      <trkpt lat="45.10573" lon="1.94393">
        <ele>192.88</ele>
        <time>2012-08-30T14:11:00Z</time>
      </trkpt>
      <trkpt lat="45.1057" lon="1.94388">
        <ele>192.88</ele>
        <time>2012-08-30T14:11:01Z</time>
      </trkpt>
      <trkpt lat="45.10569" lon="1.94382">
        <ele>193.36</ele>
        <time>2012-08-30T14:11:02Z</time>
      </trkpt>
      <trkpt lat="45.10568" lon="1.94378">
        <ele>192.88</ele>
        <time>2012-08-30T14:11:03Z</time>
      </trkpt>
      <trkpt lat="45.10569" lon="1.94374">
        <ele>192.88</ele>
        <time>2012-08-30T14:11:04Z</time>
      </trkpt>
      <trkpt lat="45.1057" lon="1.94371">
        <ele>192.4</ele>
        <time>2012-08-30T14:11:05Z</time>
      </trkpt>
      <trkpt lat="45.10577" lon="1.94356">
        <ele>193.36</ele>
        <time>2012-08-30T14:11:08Z</time>
      </trkpt>
      <trkpt lat="45.1058" lon="1.94348">
        <ele>193.84</ele>
        <time>2012-08-30T14:11:09Z</time>
      </trkpt>
      <trkpt lat="45.10584" lon="1.94316">
        <ele>198.65</ele>
        <time>2012-08-30T14:11:12Z</time>
      </trkpt>
      <trkpt lat="45.10584" lon="1.94304">
        <ele>192.4</ele>
        <time>2012-08-30T14:11:13Z</time>
      </trkpt>
      <trkpt lat="45.10585" lon="1.94291">
        <ele>202.01</ele>
        <time>2012-08-30T14:11:14Z</time>
      </trkpt>
      <trkpt lat="45.10586" lon="1.94278">
        <ele>195.77</ele>
        <time>2012-08-30T14:11:15Z</time>
      </trkpt>
      <trkpt lat="45.10585" lon="1.94171">
        <ele>194.32</ele>
        <time>2012-08-30T14:11:23Z</time>
      </trkpt>
      <trkpt lat="45.10584" lon="1.94149">
        <ele>190</ele>
        <time>2012-08-30T14:11:25Z</time>
      </trkpt>
      <trkpt lat="45.10584" lon="1.94141">
        <ele>193.36</ele>
        <time>2012-08-30T14:11:26Z</time>
      </trkpt>
      <trkpt lat="45.1058" lon="1.94127">
        <ele>191.92</ele>
        <time>2012-08-30T14:11:29Z</time>
      </trkpt>
      <trkpt lat="45.10578" lon="1.94126">
        <ele>192.4</ele>
        <time>2012-08-30T14:11:30Z</time>
      </trkpt>
      <trkpt lat="45.10576" lon="1.94126">
        <ele>192.4</ele>
        <time>2012-08-30T14:11:31Z</time>
      </trkpt>
      <trkpt lat="45.10574" lon="1.94127">
        <ele>192.4</ele>
        <time>2012-08-30T14:11:32Z</time>
      </trkpt>
      <trkpt lat="45.10572" lon="1.94128">
        <ele>192.4</ele>
        <time>2012-08-30T14:11:33Z</time>
      </trkpt>
      <trkpt lat="45.1057" lon="1.94129">
        <ele>192.4</ele>
        <time>2012-08-30T14:11:34Z</time>
      </trkpt>
      <trkpt lat="45.10542" lon="1.94139">
        <ele>192.4</ele>
        <time>2012-08-30T14:11:43Z</time>
      </trkpt>
      <trkpt lat="45.10513" lon="1.94148">
        <ele>192.4</ele>
        <time>2012-08-30T14:11:51Z</time>
      </trkpt>
      <trkpt lat="45.10477" lon="1.94162">
        <ele>192.4</ele>
        <time>2012-08-30T14:12:00Z</time>
      </trkpt>
      <trkpt lat="45.10433" lon="1.9418">
        <ele>191.44</ele>
        <time>2012-08-30T14:12:10Z</time>
      </trkpt>
      <trkpt lat="45.10378" lon="1.94204">
        <ele>191.92</ele>
        <time>2012-08-30T14:12:21Z</time>
      </trkpt>
      <trkpt lat="45.10328" lon="1.94228">
        <ele>191.92</ele>
        <time>2012-08-30T14:12:31Z</time>
      </trkpt>
      <trkpt lat="45.10292" lon="1.94245">
        <ele>191.44</ele>
        <time>2012-08-30T14:12:39Z</time>
      </trkpt>
      <trkpt lat="45.10275" lon="1.9425">
        <ele>190.96</ele>
        <time>2012-08-30T14:12:46Z</time>
      </trkpt>
      <trkpt lat="45.10273" lon="1.94251">
        <ele>190.48</ele>
        <time>2012-08-30T14:12:57Z</time>
      </trkpt>
      <trkpt lat="45.1027" lon="1.9425">
        <ele>191.44</ele>
        <time>2012-08-30T14:13:04Z</time>
      </trkpt>
      <trkpt lat="45.10268" lon="1.94248">
        <ele>191.92</ele>
        <time>2012-08-30T14:13:05Z</time>
      </trkpt>
      <trkpt lat="45.10265" lon="1.94245">
        <ele>191.44</ele>
        <time>2012-08-30T14:13:06Z</time>
      </trkpt>
      <trkpt lat="45.10255" lon="1.94231">
        <ele>192.88</ele>
        <time>2012-08-30T14:13:09Z</time>
      </trkpt>
      <trkpt lat="45.10226" lon="1.94184">
        <ele>194.32</ele>
        <time>2012-08-30T14:13:15Z</time>
      </trkpt>
      <trkpt lat="45.10182" lon="1.94116">
        <ele>193.84</ele>
        <time>2012-08-30T14:13:22Z</time>
      </trkpt>
      <trkpt lat="45.10174" lon="1.94109">
        <ele>193.84</ele>
        <time>2012-08-30T14:13:23Z</time>
      </trkpt>
      <trkpt lat="45.10165" lon="1.94102">
        <ele>194.8</ele>
        <time>2012-08-30T14:13:24Z</time>
      </trkpt>
      <trkpt lat="45.10157" lon="1.94096">
        <ele>195.28</ele>
        <time>2012-08-30T14:13:25Z</time>
      </trkpt>
      <trkpt lat="45.10148" lon="1.94093">
        <ele>195.28</ele>
        <time>2012-08-30T14:13:26Z</time>
      </trkpt>
      <trkpt lat="45.10138" lon="1.9409">
        <ele>195.28</ele>
        <time>2012-08-30T14:13:27Z</time>
      </trkpt>
      <trkpt lat="45.10053" lon="1.94058">
        <ele>197.21</ele>
        <time>2012-08-30T14:13:36Z</time>
      </trkpt>
      <trkpt lat="45.10015" lon="1.94038">
        <ele>194.32</ele>
        <time>2012-08-30T14:13:41Z</time>
      </trkpt>
      <trkpt lat="45.10009" lon="1.94037">
        <ele>192.88</ele>
        <time>2012-08-30T14:13:42Z</time>
      </trkpt>
      <trkpt lat="45.10004" lon="1.94039">
        <ele>192.88</ele>
        <time>2012-08-30T14:13:43Z</time>
      </trkpt>
      <trkpt lat="45.10001" lon="1.94043">
        <ele>192.88</ele>
        <time>2012-08-30T14:13:44Z</time>
      </trkpt>
      <trkpt lat="45.09999" lon="1.9405">
        <ele>191.92</ele>
        <time>2012-08-30T14:13:45Z</time>
      </trkpt>
      <trkpt lat="45.09998" lon="1.94057">
        <ele>192.4</ele>
        <time>2012-08-30T14:13:46Z</time>
      </trkpt>
      <trkpt lat="45.09996" lon="1.94064">
        <ele>192.88</ele>
        <time>2012-08-30T14:13:47Z</time>
      </trkpt>
      <trkpt lat="45.09993" lon="1.94071">
        <ele>192.4</ele>
        <time>2012-08-30T14:13:48Z</time>
      </trkpt>
      <trkpt lat="45.0999" lon="1.94078">
        <ele>192.88</ele>
        <time>2012-08-30T14:13:49Z</time>
      </trkpt>
      <trkpt lat="45.09987" lon="1.94084">
        <ele>192.4</ele>
        <time>2012-08-30T14:13:50Z</time>
      </trkpt>
      <trkpt lat="45.09982" lon="1.94091">
        <ele>191.92</ele>
        <time>2012-08-30T14:13:51Z</time>
      </trkpt>
      <trkpt lat="45.09967" lon="1.94113">
        <ele>191.44</ele>
        <time>2012-08-30T14:13:54Z</time>
      </trkpt>
      <trkpt lat="45.09963" lon="1.94122">
        <ele>192.88</ele>
        <time>2012-08-30T14:13:55Z</time>
      </trkpt>
      <trkpt lat="45.09936" lon="1.94207">
        <ele>193.84</ele>
        <time>2012-08-30T14:14:03Z</time>
      </trkpt>
      <trkpt lat="45.09906" lon="1.94292">
        <ele>193.36</ele>
        <time>2012-08-30T14:14:12Z</time>
      </trkpt>
      <trkpt lat="45.09902" lon="1.94301">
        <ele>193.84</ele>
        <time>2012-08-30T14:14:13Z</time>
      </trkpt>
      <trkpt lat="45.09897" lon="1.94308">
        <ele>194.32</ele>
        <time>2012-08-30T14:14:14Z</time>
      </trkpt>
      <trkpt lat="45.09891" lon="1.94314">
        <ele>193.84</ele>
        <time>2012-08-30T14:14:15Z</time>
      </trkpt>
      <trkpt lat="45.09884" lon="1.94318">
        <ele>192.88</ele>
        <time>2012-08-30T14:14:16Z</time>
      </trkpt>
      <trkpt lat="45.09878" lon="1.94322">
        <ele>192.4</ele>
        <time>2012-08-30T14:14:17Z</time>
      </trkpt>
      <trkpt lat="45.09871" lon="1.94325">
        <ele>192.4</ele>
        <time>2012-08-30T14:14:18Z</time>
      </trkpt>
      <trkpt lat="45.09864" lon="1.94326">
        <ele>192.4</ele>
        <time>2012-08-30T14:14:19Z</time>
      </trkpt>
      <trkpt lat="45.09857" lon="1.94326">
        <ele>192.4</ele>
        <time>2012-08-30T14:14:20Z</time>
      </trkpt>
      <trkpt lat="45.0985" lon="1.94325">
        <ele>192.88</ele>
        <time>2012-08-30T14:14:21Z</time>
      </trkpt>
      <trkpt lat="45.09842" lon="1.94323">
        <ele>192.4</ele>
        <time>2012-08-30T14:14:22Z</time>
      </trkpt>
      <trkpt lat="45.09794" lon="1.94309">
        <ele>191.92</ele>
        <time>2012-08-30T14:14:28Z</time>
      </trkpt>
      <trkpt lat="45.09719" lon="1.94297">
        <ele>191.44</ele>
        <time>2012-08-30T14:14:38Z</time>
      </trkpt>
      <trkpt lat="45.09681" lon="1.94293">
        <ele>190</ele>
        <time>2012-08-30T14:14:44Z</time>
      </trkpt>
      <trkpt lat="45.09673" lon="1.94291">
        <ele>190</ele>
        <time>2012-08-30T14:14:48Z</time>
      </trkpt>
      <trkpt lat="45.09673" lon="1.94291">
        <ele>189.52</ele>
        <time>2012-08-30T14:15:03Z</time>
      </trkpt>
      <trkpt lat="45.09674" lon="1.94291">
        <ele>189.52</ele>
        <time>2012-08-30T14:15:08Z</time>
      </trkpt>
      <trkpt lat="45.09669" lon="1.94291">
        <ele>189.52</ele>
        <time>2012-08-30T14:15:14Z</time>
      </trkpt>
      <trkpt lat="45.09659" lon="1.9429">
        <ele>197.21</ele>
        <time>2012-08-30T14:15:21Z</time>
      </trkpt>
      <trkpt lat="45.09657" lon="1.94291">
        <ele>186.15</ele>
        <time>2012-08-30T14:15:22Z</time>
      </trkpt>
      <trkpt lat="45.09656" lon="1.94291">
        <ele>189.04</ele>
        <time>2012-08-30T14:15:23Z</time>
      </trkpt>
      <trkpt lat="45.09652" lon="1.94291">
        <ele>193.84</ele>
        <time>2012-08-30T14:15:26Z</time>
      </trkpt>
      <trkpt lat="45.09651" lon="1.94291">
        <ele>183.27</ele>
        <time>2012-08-30T14:15:27Z</time>
      </trkpt>
      <trkpt lat="45.0965" lon="1.94291">
        <ele>190</ele>
        <time>2012-08-30T14:15:28Z</time>
      </trkpt>
      <trkpt lat="45.09647" lon="1.94291">
        <ele>181.83</ele>
        <time>2012-08-30T14:15:30Z</time>
      </trkpt>
      <trkpt lat="45.09646" lon="1.94291">
        <ele>190</ele>
        <time>2012-08-30T14:15:31Z</time>
      </trkpt>
      <trkpt lat="45.09643" lon="1.94291">
        <ele>193.84</ele>
        <time>2012-08-30T14:15:34Z</time>
      </trkpt>
      <trkpt lat="45.09642" lon="1.94291">
        <ele>188.56</ele>
        <time>2012-08-30T14:15:35Z</time>
      </trkpt>
      <trkpt lat="45.09637" lon="1.94292">
        <ele>192.88</ele>
        <time>2012-08-30T14:15:39Z</time>
      </trkpt>
      <trkpt lat="45.09636" lon="1.94292">
        <ele>187.11</ele>
        <time>2012-08-30T14:15:40Z</time>
      </trkpt>
      <trkpt lat="45.09625" lon="1.94292">
        <ele>183.27</ele>
        <time>2012-08-30T14:15:48Z</time>
      </trkpt>
      <trkpt lat="45.09623" lon="1.94293">
        <ele>191.92</ele>
        <time>2012-08-30T14:15:49Z</time>
      </trkpt>
      <trkpt lat="45.09622" lon="1.94292">
        <ele>188.56</ele>
        <time>2012-08-30T14:15:50Z</time>
      </trkpt>
      <trkpt lat="45.09607" lon="1.94293">
        <ele>187.59</ele>
        <time>2012-08-30T14:16:00Z</time>
      </trkpt>
      <trkpt lat="45.09603" lon="1.94292">
        <ele>187.59</ele>
        <time>2012-08-30T14:16:04Z</time>
      </trkpt>
      <trkpt lat="45.09601" lon="1.94292">
        <ele>188.08</ele>
        <time>2012-08-30T14:16:05Z</time>
      </trkpt>
      <trkpt lat="45.09594" lon="1.94293">
        <ele>187.59</ele>
        <time>2012-08-30T14:16:12Z</time>
      </trkpt>
      <trkpt lat="45.09584" lon="1.94293">
        <ele>187.59</ele>
        <time>2012-08-30T14:16:21Z</time>
      </trkpt>
      <trkpt lat="45.0958" lon="1.94294">
        <ele>187.11</ele>
        <time>2012-08-30T14:16:29Z</time>
      </trkpt>
      <trkpt lat="45.09576" lon="1.94294">
        <ele>187.11</ele>
        <time>2012-08-30T14:16:38Z</time>
      </trkpt>
      <trkpt lat="45.09564" lon="1.94293">
        <ele>187.11</ele>
        <time>2012-08-30T14:16:47Z</time>
      </trkpt>
      <trkpt lat="45.09544" lon="1.94293">
        <ele>186.63</ele>
        <time>2012-08-30T14:16:56Z</time>
      </trkpt>
      <trkpt lat="45.09529" lon="1.94289">
        <ele>188.08</ele>
        <time>2012-08-30T14:17:06Z</time>
      </trkpt>
      <trkpt lat="45.09509" lon="1.94289">
        <ele>187.59</ele>
        <time>2012-08-30T14:17:17Z</time>
      </trkpt>
      <trkpt lat="45.09491" lon="1.94286">
        <ele>187.11</ele>
        <time>2012-08-30T14:17:25Z</time>
      </trkpt>
      <trkpt lat="45.09487" lon="1.94288">
        <ele>187.11</ele>
        <time>2012-08-30T14:17:28Z</time>
      </trkpt>
      <trkpt lat="45.09486" lon="1.9429">
        <ele>187.59</ele>
        <time>2012-08-30T14:17:29Z</time>
      </trkpt>
      <trkpt lat="45.09484" lon="1.94291">
        <ele>187.11</ele>
        <time>2012-08-30T14:17:30Z</time>
      </trkpt>
      <trkpt lat="45.09482" lon="1.94294">
        <ele>187.11</ele>
        <time>2012-08-30T14:17:31Z</time>
      </trkpt>
      <trkpt lat="45.0948" lon="1.94296">
        <ele>187.11</ele>
        <time>2012-08-30T14:17:32Z</time>
      </trkpt>
      <trkpt lat="45.09478" lon="1.94298">
        <ele>186.63</ele>
        <time>2012-08-30T14:17:33Z</time>
      </trkpt>
      <trkpt lat="45.09469" lon="1.94306">
        <ele>185.67</ele>
        <time>2012-08-30T14:17:40Z</time>
      </trkpt>
      <trkpt lat="45.09459" lon="1.94311">
        <ele>184.23</ele>
        <time>2012-08-30T14:17:48Z</time>
      </trkpt>
      <trkpt lat="45.09456" lon="1.94313">
        <ele>183.75</ele>
        <time>2012-08-30T14:17:50Z</time>
      </trkpt>
      <trkpt lat="45.09448" lon="1.94316">
        <ele>183.27</ele>
        <time>2012-08-30T14:17:56Z</time>
      </trkpt>
      <trkpt lat="45.0944" lon="1.94322">
        <ele>182.31</ele>
        <time>2012-08-30T14:18:02Z</time>
      </trkpt>
      <trkpt lat="45.09432" lon="1.94328">
        <ele>180.87</ele>
        <time>2012-08-30T14:18:11Z</time>
      </trkpt>
      <trkpt lat="45.0943" lon="1.9433">
        <ele>180.38</ele>
        <time>2012-08-30T14:18:17Z</time>
      </trkpt>
      <trkpt lat="45.09423" lon="1.94329">
        <ele>179.9</ele>
        <time>2012-08-30T14:18:25Z</time>
      </trkpt>
      <trkpt lat="45.09416" lon="1.94332">
        <ele>179.9</ele>
        <time>2012-08-30T14:18:32Z</time>
      </trkpt>
      <trkpt lat="45.09413" lon="1.94333">
        <ele>179.42</ele>
        <time>2012-08-30T14:18:37Z</time>
      </trkpt>
      <trkpt lat="45.09412" lon="1.94336">
        <ele>179.9</ele>
        <time>2012-08-30T14:18:44Z</time>
      </trkpt>
      <trkpt lat="45.09407" lon="1.9434">
        <ele>179.42</ele>
        <time>2012-08-30T14:18:51Z</time>
      </trkpt>
      <trkpt lat="45.09394" lon="1.9434">
        <ele>179.42</ele>
        <time>2012-08-30T14:18:59Z</time>
      </trkpt>
      <trkpt lat="45.09393" lon="1.9434">
        <ele>178.94</ele>
        <time>2012-08-30T14:19:00Z</time>
      </trkpt>
      <trkpt lat="45.09382" lon="1.94338">
        <ele>179.42</ele>
        <time>2012-08-30T14:19:07Z</time>
      </trkpt>
      <trkpt lat="45.09369" lon="1.94331">
        <ele>178.94</ele>
        <time>2012-08-30T14:19:13Z</time>
      </trkpt>
      <trkpt lat="45.09366" lon="1.94329">
        <ele>179.42</ele>
        <time>2012-08-30T14:19:14Z</time>
      </trkpt>
      <trkpt lat="45.09349" lon="1.94316">
        <ele>178.94</ele>
        <time>2012-08-30T14:19:21Z</time>
      </trkpt>
      <trkpt lat="45.09338" lon="1.94305">
        <ele>178.94</ele>
        <time>2012-08-30T14:19:27Z</time>
      </trkpt>
      <trkpt lat="45.09326" lon="1.94293">
        <ele>178.46</ele>
        <time>2012-08-30T14:19:34Z</time>
      </trkpt>
      <trkpt lat="45.09318" lon="1.94281">
        <ele>178.46</ele>
        <time>2012-08-30T14:19:40Z</time>
      </trkpt>
      <trkpt lat="45.0931" lon="1.94267">
        <ele>177.98</ele>
        <time>2012-08-30T14:19:47Z</time>
      </trkpt>
      <trkpt lat="45.09302" lon="1.9425">
        <ele>177.98</ele>
        <time>2012-08-30T14:19:55Z</time>
      </trkpt>
      <trkpt lat="45.09299" lon="1.94237">
        <ele>177.98</ele>
        <time>2012-08-30T14:20:02Z</time>
      </trkpt>
      <trkpt lat="45.093" lon="1.94225">
        <ele>177.5</ele>
        <time>2012-08-30T14:20:10Z</time>
      </trkpt>
      <trkpt lat="45.09301" lon="1.94225">
        <ele>177.5</ele>
        <time>2012-08-30T14:20:16Z</time>
      </trkpt>
      <trkpt lat="45.09301" lon="1.94225">
        <ele>179.9</ele>
        <time>2012-08-30T14:20:19Z</time>
      </trkpt>
      <trkpt lat="45.09301" lon="1.94225">
        <ele>176.54</ele>
        <time>2012-08-30T14:20:22Z</time>
      </trkpt>
      <trkpt lat="45.09301" lon="1.94225">
        <ele>176.54</ele>
        <time>2012-08-30T14:20:37Z</time>
      </trkpt>
      <trkpt lat="45.09302" lon="1.94225">
        <ele>177.02</ele>
        <time>2012-08-30T14:20:40Z</time>
      </trkpt>
      <trkpt lat="45.09304" lon="1.94219">
        <ele>172.69</ele>
        <time>2012-08-30T14:20:45Z</time>
      </trkpt>
      <trkpt lat="45.09304" lon="1.94217">
        <ele>178.46</ele>
        <time>2012-08-30T14:20:46Z</time>
      </trkpt>
      <trkpt lat="45.09305" lon="1.94205">
        <ele>177.98</ele>
        <time>2012-08-30T14:20:55Z</time>
      </trkpt>
      <trkpt lat="45.09305" lon="1.94204">
        <ele>182.31</ele>
        <time>2012-08-30T14:21:03Z</time>
      </trkpt>
      <trkpt lat="45.09305" lon="1.94204">
        <ele>178.46</ele>
        <time>2012-08-30T14:21:04Z</time>
      </trkpt>
      <trkpt lat="45.09305" lon="1.94202">
        <ele>173.17</ele>
        <time>2012-08-30T14:21:15Z</time>
      </trkpt>
      <trkpt lat="45.09305" lon="1.94202">
        <ele>178.94</ele>
        <time>2012-08-30T14:21:16Z</time>
      </trkpt>
      <trkpt lat="45.09305" lon="1.94202">
        <ele>176.06</ele>
        <time>2012-08-30T14:21:24Z</time>
      </trkpt>
      <trkpt lat="45.09305" lon="1.94202">
        <ele>179.42</ele>
        <time>2012-08-30T14:21:26Z</time>
      </trkpt>
      <trkpt lat="45.09305" lon="1.94202">
        <ele>177.98</ele>
        <time>2012-08-30T14:21:29Z</time>
      </trkpt>
      <trkpt lat="45.09305" lon="1.94202">
        <ele>178.94</ele>
        <time>2012-08-30T14:21:30Z</time>
      </trkpt>
      <trkpt lat="45.09305" lon="1.942">
        <ele>174.14</ele>
        <time>2012-08-30T14:21:34Z</time>
      </trkpt>
      <trkpt lat="45.09305" lon="1.94199">
        <ele>177.98</ele>
        <time>2012-08-30T14:21:35Z</time>
      </trkpt>
      <trkpt lat="45.09304" lon="1.94187">
        <ele>177.98</ele>
        <time>2012-08-30T14:21:41Z</time>
      </trkpt>
      <trkpt lat="45.09304" lon="1.94174">
        <ele>169.81</ele>
        <time>2012-08-30T14:21:48Z</time>
      </trkpt>
      <trkpt lat="45.09304" lon="1.94172">
        <ele>179.42</ele>
        <time>2012-08-30T14:21:49Z</time>
      </trkpt>
      <trkpt lat="45.09304" lon="1.94163">
        <ele>173.17</ele>
        <time>2012-08-30T14:21:55Z</time>
      </trkpt>
      <trkpt lat="45.09304" lon="1.94161">
        <ele>180.87</ele>
        <time>2012-08-30T14:21:56Z</time>
      </trkpt>
      <trkpt lat="45.09303" lon="1.94158">
        <ele>175.58</ele>
        <time>2012-08-30T14:21:58Z</time>
      </trkpt>
      <trkpt lat="45.09303" lon="1.94156">
        <ele>181.83</ele>
        <time>2012-08-30T14:21:59Z</time>
      </trkpt>
      <trkpt lat="45.09303" lon="1.94154">
        <ele>178.94</ele>
        <time>2012-08-30T14:22:00Z</time>
      </trkpt>
      <trkpt lat="45.09302" lon="1.94153">
        <ele>170.29</ele>
        <time>2012-08-30T14:22:01Z</time>
      </trkpt>
      <trkpt lat="45.09302" lon="1.94152">
        <ele>179.9</ele>
        <time>2012-08-30T14:22:02Z</time>
      </trkpt>
      <trkpt lat="45.09298" lon="1.94142">
        <ele>185.19</ele>
        <time>2012-08-30T14:22:08Z</time>
      </trkpt>
      <trkpt lat="45.09297" lon="1.9414">
        <ele>178.94</ele>
        <time>2012-08-30T14:22:09Z</time>
      </trkpt>
      <trkpt lat="45.09296" lon="1.94139">
        <ele>182.79</ele>
        <time>2012-08-30T14:22:10Z</time>
      </trkpt>
      <trkpt lat="45.09296" lon="1.94137">
        <ele>179.42</ele>
        <time>2012-08-30T14:22:11Z</time>
      </trkpt>
      <trkpt lat="45.09293" lon="1.94135">
        <ele>178.94</ele>
        <time>2012-08-30T14:22:14Z</time>
      </trkpt>
      <trkpt lat="45.09287" lon="1.94126">
        <ele>178.46</ele>
        <time>2012-08-30T14:22:22Z</time>
      </trkpt>
      <trkpt lat="45.09281" lon="1.94118">
        <ele>178.94</ele>
        <time>2012-08-30T14:22:27Z</time>
      </trkpt>
      <trkpt lat="45.09273" lon="1.94108">
        <ele>178.46</ele>
        <time>2012-08-30T14:22:33Z</time>
      </trkpt>
      <trkpt lat="45.09271" lon="1.94102">
        <ele>177.98</ele>
        <time>2012-08-30T14:22:37Z</time>
      </trkpt>
      <trkpt lat="45.09267" lon="1.94094">
        <ele>174.14</ele>
        <time>2012-08-30T14:22:42Z</time>
      </trkpt>
      <trkpt lat="45.09266" lon="1.94093">
        <ele>175.58</ele>
        <time>2012-08-30T14:22:43Z</time>
      </trkpt>
      <trkpt lat="45.09265" lon="1.9409">
        <ele>177.02</ele>
        <time>2012-08-30T14:22:45Z</time>
      </trkpt>
      <trkpt lat="45.09259" lon="1.94072">
        <ele>177.98</ele>
        <time>2012-08-30T14:22:56Z</time>
      </trkpt>
      <trkpt lat="45.09255" lon="1.94061">
        <ele>178.46</ele>
        <time>2012-08-30T14:23:03Z</time>
      </trkpt>
      <trkpt lat="45.09254" lon="1.9406">
        <ele>174.62</ele>
        <time>2012-08-30T14:23:04Z</time>
      </trkpt>
      <trkpt lat="45.09253" lon="1.94058">
        <ele>175.1</ele>
        <time>2012-08-30T14:23:05Z</time>
      </trkpt>
      <trkpt lat="45.09252" lon="1.94057">
        <ele>177.98</ele>
        <time>2012-08-30T14:23:06Z</time>
      </trkpt>
      <trkpt lat="45.09251" lon="1.94055">
        <ele>177.5</ele>
        <time>2012-08-30T14:23:07Z</time>
      </trkpt>
      <trkpt lat="45.09245" lon="1.94042">
        <ele>177.98</ele>
        <time>2012-08-30T14:23:16Z</time>
      </trkpt>
      <trkpt lat="45.09241" lon="1.94028">
        <ele>181.35</ele>
        <time>2012-08-30T14:23:24Z</time>
      </trkpt>
      <trkpt lat="45.09241" lon="1.94027">
        <ele>177.98</ele>
        <time>2012-08-30T14:23:25Z</time>
      </trkpt>
      <trkpt lat="45.09241" lon="1.94022">
        <ele>177.98</ele>
        <time>2012-08-30T14:23:30Z</time>
      </trkpt>
      <trkpt lat="45.09243" lon="1.94016">
        <ele>177.5</ele>
        <time>2012-08-30T14:23:36Z</time>
      </trkpt>
      <trkpt lat="45.09241" lon="1.94007">
        <ele>177.98</ele>
        <time>2012-08-30T14:23:42Z</time>
      </trkpt>
      <trkpt lat="45.0924" lon="1.94006">
        <ele>177.98</ele>
        <time>2012-08-30T14:23:43Z</time>
      </trkpt>
      <trkpt lat="45.09228" lon="1.93987">
        <ele>177.5</ele>
        <time>2012-08-30T14:23:52Z</time>
      </trkpt>
      <trkpt lat="45.09218" lon="1.93971">
        <ele>177.02</ele>
        <time>2012-08-30T14:23:59Z</time>
      </trkpt>
      <trkpt lat="45.09216" lon="1.93969">
        <ele>177.5</ele>
        <time>2012-08-30T14:24:00Z</time>
      </trkpt>
      <trkpt lat="45.09209" lon="1.93953">
        <ele>177.02</ele>
        <time>2012-08-30T14:24:06Z</time>
      </trkpt>
      <trkpt lat="45.09203" lon="1.93937">
        <ele>176.54</ele>
        <time>2012-08-30T14:24:12Z</time>
      </trkpt>
      <trkpt lat="45.09195" lon="1.93928">
        <ele>176.54</ele>
        <time>2012-08-30T14:24:17Z</time>
      </trkpt>
      <trkpt lat="45.09185" lon="1.93912">
        <ele>176.54</ele>
        <time>2012-08-30T14:24:24Z</time>
      </trkpt>
      <trkpt lat="45.09177" lon="1.93896">
        <ele>176.06</ele>
        <time>2012-08-30T14:24:30Z</time>
      </trkpt>
      <trkpt lat="45.09171" lon="1.93887">
        <ele>176.54</ele>
        <time>2012-08-30T14:24:36Z</time>
      </trkpt>
      <trkpt lat="45.09169" lon="1.93879">
        <ele>176.06</ele>
        <time>2012-08-30T14:24:41Z</time>
      </trkpt>
      <trkpt lat="45.09166" lon="1.93867">
        <ele>176.06</ele>
        <time>2012-08-30T14:24:46Z</time>
      </trkpt>
      <trkpt lat="45.09161" lon="1.93858">
        <ele>176.06</ele>
        <time>2012-08-30T14:24:52Z</time>
      </trkpt>
      <trkpt lat="45.09156" lon="1.93852">
        <ele>176.54</ele>
        <time>2012-08-30T14:24:58Z</time>
      </trkpt>
      <trkpt lat="45.09159" lon="1.93847">
        <ele>176.06</ele>
        <time>2012-08-30T14:25:03Z</time>
      </trkpt>
      <trkpt lat="45.09164" lon="1.93842">
        <ele>177.5</ele>
        <time>2012-08-30T14:25:10Z</time>
      </trkpt>
      <trkpt lat="45.09166" lon="1.93836">
        <ele>171.73</ele>
        <time>2012-08-30T14:25:16Z</time>
      </trkpt>
      <trkpt lat="45.09166" lon="1.93835">
        <ele>172.69</ele>
        <time>2012-08-30T14:25:17Z</time>
      </trkpt>
      <trkpt lat="45.09166" lon="1.93834">
        <ele>179.42</ele>
        <time>2012-08-30T14:25:18Z</time>
      </trkpt>
      <trkpt lat="45.09165" lon="1.93832">
        <ele>175.58</ele>
        <time>2012-08-30T14:25:19Z</time>
      </trkpt>
      <trkpt lat="45.09159" lon="1.93819">
        <ele>175.58</ele>
        <time>2012-08-30T14:25:27Z</time>
      </trkpt>
      <trkpt lat="45.09153" lon="1.93802">
        <ele>175.58</ele>
        <time>2012-08-30T14:25:37Z</time>
      </trkpt>
      <trkpt lat="45.09149" lon="1.93787">
        <ele>175.1</ele>
        <time>2012-08-30T14:25:46Z</time>
      </trkpt>
      <trkpt lat="45.09147" lon="1.9378">
        <ele>174.62</ele>
        <time>2012-08-30T14:25:55Z</time>
      </trkpt>
      <trkpt lat="45.09147" lon="1.9378">
        <ele>178.46</ele>
        <time>2012-08-30T14:25:56Z</time>
      </trkpt>
      <trkpt lat="45.09147" lon="1.9378">
        <ele>178.46</ele>
        <time>2012-08-30T14:25:57Z</time>
      </trkpt>
      <trkpt lat="45.09147" lon="1.9378">
        <ele>174.62</ele>
        <time>2012-08-30T14:25:58Z</time>
      </trkpt>
      <trkpt lat="45.09147" lon="1.9378">
        <ele>178.94</ele>
        <time>2012-08-30T14:25:59Z</time>
      </trkpt>
      <trkpt lat="45.09147" lon="1.9378">
        <ele>174.62</ele>
        <time>2012-08-30T14:26:01Z</time>
      </trkpt>
      <trkpt lat="45.09147" lon="1.9378">
        <ele>178.46</ele>
        <time>2012-08-30T14:26:02Z</time>
      </trkpt>
      <trkpt lat="45.09147" lon="1.93776">
        <ele>173.66</ele>
        <time>2012-08-30T14:26:06Z</time>
      </trkpt>
      <trkpt lat="45.09145" lon="1.93768">
        <ele>176.54</ele>
        <time>2012-08-30T14:26:10Z</time>
      </trkpt>
      <trkpt lat="45.09145" lon="1.93766">
        <ele>176.54</ele>
        <time>2012-08-30T14:26:11Z</time>
      </trkpt>
      <trkpt lat="45.09143" lon="1.93762">
        <ele>175.58</ele>
        <time>2012-08-30T14:26:17Z</time>
      </trkpt>
      <trkpt lat="45.09142" lon="1.93759">
        <ele>175.58</ele>
        <time>2012-08-30T14:26:23Z</time>
      </trkpt>
      <trkpt lat="45.09143" lon="1.93753">
        <ele>175.58</ele>
        <time>2012-08-30T14:26:28Z</time>
      </trkpt>
      <trkpt lat="45.09146" lon="1.9375">
        <ele>175.58</ele>
        <time>2012-08-30T14:26:33Z</time>
      </trkpt>
      <trkpt lat="45.09153" lon="1.93747">
        <ele>175.1</ele>
        <time>2012-08-30T14:26:42Z</time>
      </trkpt>
      <trkpt lat="45.09153" lon="1.93741">
        <ele>175.1</ele>
        <time>2012-08-30T14:26:47Z</time>
      </trkpt>
      <trkpt lat="45.09153" lon="1.9373">
        <ele>175.58</ele>
        <time>2012-08-30T14:26:54Z</time>
      </trkpt>
      <trkpt lat="45.09152" lon="1.93723">
        <ele>175.58</ele>
        <time>2012-08-30T14:27:00Z</time>
      </trkpt>
      <trkpt lat="45.09152" lon="1.93714">
        <ele>175.58</ele>
        <time>2012-08-30T14:27:05Z</time>
      </trkpt>
      <trkpt lat="45.0915" lon="1.93706">
        <ele>175.1</ele>
        <time>2012-08-30T14:27:08Z</time>
      </trkpt>
      <trkpt lat="45.09138" lon="1.93678">
        <ele>175.58</ele>
        <time>2012-08-30T14:27:14Z</time>
      </trkpt>
      <trkpt lat="45.09129" lon="1.93662">
        <ele>175.1</ele>
        <time>2012-08-30T14:27:18Z</time>
      </trkpt>
      <trkpt lat="45.09115" lon="1.93636">
        <ele>175.1</ele>
        <time>2012-08-30T14:27:23Z</time>
      </trkpt>
      <trkpt lat="45.09108" lon="1.93608">
        <ele>175.1</ele>
        <time>2012-08-30T14:27:30Z</time>
      </trkpt>
      <trkpt lat="45.09106" lon="1.93602">
        <ele>175.1</ele>
        <time>2012-08-30T14:27:34Z</time>
      </trkpt>
      <trkpt lat="45.09103" lon="1.93601">
        <ele>175.1</ele>
        <time>2012-08-30T14:27:40Z</time>
      </trkpt>
      <trkpt lat="45.09103" lon="1.93599">
        <ele>175.1</ele>
        <time>2012-08-30T14:27:45Z</time>
      </trkpt>
      <trkpt lat="45.09103" lon="1.93597">
        <ele>174.62</ele>
        <time>2012-08-30T14:27:46Z</time>
      </trkpt>
      <trkpt lat="45.091" lon="1.93587">
        <ele>175.58</ele>
        <time>2012-08-30T14:27:50Z</time>
      </trkpt>
      <trkpt lat="45.091" lon="1.93586">
        <ele>175.1</ele>
        <time>2012-08-30T14:27:51Z</time>
      </trkpt>
      <trkpt lat="45.09099" lon="1.93583">
        <ele>174.62</ele>
        <time>2012-08-30T14:27:57Z</time>
      </trkpt>
      <trkpt lat="45.09099" lon="1.93583">
        <ele>174.62</ele>
        <time>2012-08-30T14:27:59Z</time>
      </trkpt>
      <trkpt lat="45.09102" lon="1.93581">
        <ele>175.1</ele>
        <time>2012-08-30T14:28:05Z</time>
      </trkpt>
      <trkpt lat="45.09104" lon="1.93575">
        <ele>175.1</ele>
        <time>2012-08-30T14:28:11Z</time>
      </trkpt>
      <trkpt lat="45.09105" lon="1.93573">
        <ele>175.1</ele>
        <time>2012-08-30T14:28:12Z</time>
      </trkpt>
      <trkpt lat="45.09101" lon="1.93552">
        <ele>175.1</ele>
        <time>2012-08-30T14:28:17Z</time>
      </trkpt>
      <trkpt lat="45.09098" lon="1.93546">
        <ele>175.1</ele>
        <time>2012-08-30T14:28:18Z</time>
      </trkpt>
      <trkpt lat="45.09097" lon="1.93541">
        <ele>174.62</ele>
        <time>2012-08-30T14:28:19Z</time>
      </trkpt>
      <trkpt lat="45.09096" lon="1.93537">
        <ele>175.1</ele>
        <time>2012-08-30T14:28:20Z</time>
      </trkpt>
      <trkpt lat="45.09095" lon="1.93532">
        <ele>174.62</ele>
        <time>2012-08-30T14:28:21Z</time>
      </trkpt>
      <trkpt lat="45.09095" lon="1.93528">
        <ele>175.1</ele>
        <time>2012-08-30T14:28:22Z</time>
      </trkpt>
      <trkpt lat="45.09094" lon="1.93525">
        <ele>175.1</ele>
        <time>2012-08-30T14:28:23Z</time>
      </trkpt>
      <trkpt lat="45.09094" lon="1.93522">
        <ele>175.58</ele>
        <time>2012-08-30T14:28:24Z</time>
      </trkpt>
      <trkpt lat="45.09093" lon="1.93521">
        <ele>176.06</ele>
        <time>2012-08-30T14:28:25Z</time>
      </trkpt>
      <trkpt lat="45.09092" lon="1.9352">
        <ele>175.58</ele>
        <time>2012-08-30T14:28:26Z</time>
      </trkpt>
      <trkpt lat="45.09092" lon="1.93516">
        <ele>175.58</ele>
        <time>2012-08-30T14:28:28Z</time>
      </trkpt>
      <trkpt lat="45.09094" lon="1.93513">
        <ele>177.02</ele>
        <time>2012-08-30T14:28:34Z</time>
      </trkpt>
      <trkpt lat="45.09094" lon="1.9351">
        <ele>177.5</ele>
        <time>2012-08-30T14:28:37Z</time>
      </trkpt>
      <trkpt lat="45.09094" lon="1.93508">
        <ele>177.98</ele>
        <time>2012-08-30T14:28:38Z</time>
      </trkpt>
      <trkpt lat="45.09094" lon="1.93505">
        <ele>177.5</ele>
        <time>2012-08-30T14:28:39Z</time>
      </trkpt>
      <trkpt lat="45.09094" lon="1.93501">
        <ele>177.5</ele>
        <time>2012-08-30T14:28:40Z</time>
      </trkpt>
      <trkpt lat="45.09095" lon="1.93497">
        <ele>177.98</ele>
        <time>2012-08-30T14:28:41Z</time>
      </trkpt>
      <trkpt lat="45.09095" lon="1.93494">
        <ele>177.98</ele>
        <time>2012-08-30T14:28:42Z</time>
      </trkpt>
      <trkpt lat="45.09095" lon="1.93492">
        <ele>178.46</ele>
        <time>2012-08-30T14:28:47Z</time>
      </trkpt>
      <trkpt lat="45.09094" lon="1.93487">
        <ele>179.9</ele>
        <time>2012-08-30T14:28:49Z</time>
      </trkpt>
      <trkpt lat="45.09095" lon="1.93481">
        <ele>179.9</ele>
        <time>2012-08-30T14:28:54Z</time>
      </trkpt>
      <trkpt lat="45.09093" lon="1.9347">
        <ele>179.42</ele>
        <time>2012-08-30T14:28:59Z</time>
      </trkpt>
      <trkpt lat="45.09092" lon="1.93468">
        <ele>179.42</ele>
        <time>2012-08-30T14:29:00Z</time>
      </trkpt>
      <trkpt lat="45.0909" lon="1.93467">
        <ele>179.9</ele>
        <time>2012-08-30T14:29:01Z</time>
      </trkpt>
      <trkpt lat="45.09089" lon="1.93462">
        <ele>178.94</ele>
        <time>2012-08-30T14:29:09Z</time>
      </trkpt>
      <trkpt lat="45.09089" lon="1.93455">
        <ele>179.42</ele>
        <time>2012-08-30T14:29:13Z</time>
      </trkpt>
      <trkpt lat="45.0909" lon="1.93452">
        <ele>178.94</ele>
        <time>2012-08-30T14:29:17Z</time>
      </trkpt>
      <trkpt lat="45.0909" lon="1.93451">
        <ele>179.42</ele>
        <time>2012-08-30T14:29:18Z</time>
      </trkpt>
      <trkpt lat="45.0909" lon="1.93446">
        <ele>178.94</ele>
        <time>2012-08-30T14:29:22Z</time>
      </trkpt>
      <trkpt lat="45.0909" lon="1.93444">
        <ele>178.94</ele>
        <time>2012-08-30T14:29:24Z</time>
      </trkpt>
      <trkpt lat="45.0909" lon="1.93435">
        <ele>178.46</ele>
        <time>2012-08-30T14:29:28Z</time>
      </trkpt>
      <trkpt lat="45.09088" lon="1.93423">
        <ele>178.46</ele>
        <time>2012-08-30T14:29:33Z</time>
      </trkpt>
      <trkpt lat="45.09084" lon="1.93414">
        <ele>177.98</ele>
        <time>2012-08-30T14:29:38Z</time>
      </trkpt>
      <trkpt lat="45.09081" lon="1.9341">
        <ele>177.5</ele>
        <time>2012-08-30T14:29:40Z</time>
      </trkpt>
      <trkpt lat="45.09079" lon="1.93407">
        <ele>177.98</ele>
        <time>2012-08-30T14:29:41Z</time>
      </trkpt>
      <trkpt lat="45.09074" lon="1.93396">
        <ele>177.5</ele>
        <time>2012-08-30T14:29:44Z</time>
      </trkpt>
      <trkpt lat="45.09073" lon="1.93393">
        <ele>177.98</ele>
        <time>2012-08-30T14:29:45Z</time>
      </trkpt>
      <trkpt lat="45.09073" lon="1.93391">
        <ele>177.5</ele>
        <time>2012-08-30T14:29:46Z</time>
      </trkpt>
      <trkpt lat="45.09071" lon="1.93388">
        <ele>177.5</ele>
        <time>2012-08-30T14:29:47Z</time>
      </trkpt>
      <trkpt lat="45.09069" lon="1.93386">
        <ele>177.5</ele>
        <time>2012-08-30T14:29:48Z</time>
      </trkpt>
      <trkpt lat="45.09068" lon="1.93383">
        <ele>177.02</ele>
        <time>2012-08-30T14:29:49Z</time>
      </trkpt>
      <trkpt lat="45.09066" lon="1.93379">
        <ele>177.5</ele>
        <time>2012-08-30T14:29:50Z</time>
      </trkpt>
      <trkpt lat="45.09066" lon="1.93376">
        <ele>177.02</ele>
        <time>2012-08-30T14:29:51Z</time>
      </trkpt>
      <trkpt lat="45.09065" lon="1.93373">
        <ele>177.5</ele>
        <time>2012-08-30T14:29:52Z</time>
      </trkpt>
      <trkpt lat="45.09063" lon="1.9337">
        <ele>177.02</ele>
        <time>2012-08-30T14:29:53Z</time>
      </trkpt>
      <trkpt lat="45.09058" lon="1.93353">
        <ele>177.5</ele>
        <time>2012-08-30T14:29:58Z</time>
      </trkpt>
      <trkpt lat="45.09053" lon="1.9334">
        <ele>177.5</ele>
        <time>2012-08-30T14:30:04Z</time>
      </trkpt>
      <trkpt lat="45.0905" lon="1.93328">
        <ele>177.98</ele>
        <time>2012-08-30T14:30:11Z</time>
      </trkpt>
      <trkpt lat="45.0905" lon="1.93315">
        <ele>177.02</ele>
        <time>2012-08-30T14:30:19Z</time>
      </trkpt>
      <trkpt lat="45.09044" lon="1.93301">
        <ele>176.54</ele>
        <time>2012-08-30T14:30:24Z</time>
      </trkpt>
      <trkpt lat="45.09038" lon="1.93292">
        <ele>176.06</ele>
        <time>2012-08-30T14:30:30Z</time>
      </trkpt>
      <trkpt lat="45.09031" lon="1.93281">
        <ele>177.02</ele>
        <time>2012-08-30T14:30:36Z</time>
      </trkpt>
      <trkpt lat="45.09029" lon="1.93277">
        <ele>176.54</ele>
        <time>2012-08-30T14:30:38Z</time>
      </trkpt>
      <trkpt lat="45.09028" lon="1.93277">
        <ele>175.58</ele>
        <time>2012-08-30T14:30:39Z</time>
      </trkpt>
      <trkpt lat="45.09026" lon="1.93267">
        <ele>175.58</ele>
        <time>2012-08-30T14:30:43Z</time>
      </trkpt>
      <trkpt lat="45.09024" lon="1.9326">
        <ele>175.1</ele>
        <time>2012-08-30T14:30:46Z</time>
      </trkpt>
      <trkpt lat="45.09018" lon="1.93241">
        <ele>174.62</ele>
        <time>2012-08-30T14:30:52Z</time>
      </trkpt>
      <trkpt lat="45.09015" lon="1.93239">
        <ele>175.1</ele>
        <time>2012-08-30T14:30:54Z</time>
      </trkpt>
      <trkpt lat="45.09014" lon="1.93237">
        <ele>174.62</ele>
        <time>2012-08-30T14:30:55Z</time>
      </trkpt>
      <trkpt lat="45.09012" lon="1.93235">
        <ele>174.62</ele>
        <time>2012-08-30T14:30:56Z</time>
      </trkpt>
      <trkpt lat="45.09011" lon="1.93234">
        <ele>175.1</ele>
        <time>2012-08-30T14:30:57Z</time>
      </trkpt>
      <trkpt lat="45.09011" lon="1.93233">
        <ele>174.62</ele>
        <time>2012-08-30T14:30:58Z</time>
      </trkpt>
      <trkpt lat="45.0901" lon="1.93229">
        <ele>174.62</ele>
        <time>2012-08-30T14:30:59Z</time>
      </trkpt>
      <trkpt lat="45.09009" lon="1.93226">
        <ele>174.62</ele>
        <time>2012-08-30T14:31:00Z</time>
      </trkpt>
      <trkpt lat="45.09004" lon="1.93213">
        <ele>174.14</ele>
        <time>2012-08-30T14:31:06Z</time>
      </trkpt>
      <trkpt lat="45.08998" lon="1.93199">
        <ele>174.62</ele>
        <time>2012-08-30T14:31:11Z</time>
      </trkpt>
      <trkpt lat="45.08993" lon="1.93186">
        <ele>175.1</ele>
        <time>2012-08-30T14:31:15Z</time>
      </trkpt>
      <trkpt lat="45.08992" lon="1.93184">
        <ele>175.1</ele>
        <time>2012-08-30T14:31:16Z</time>
      </trkpt>
      <trkpt lat="45.08992" lon="1.93183">
        <ele>174.62</ele>
        <time>2012-08-30T14:31:17Z</time>
      </trkpt>
      <trkpt lat="45.08992" lon="1.93183">
        <ele>174.62</ele>
        <time>2012-08-30T14:31:18Z</time>
      </trkpt>
      <trkpt lat="45.08992" lon="1.93182">
        <ele>174.62</ele>
        <time>2012-08-30T14:31:19Z</time>
      </trkpt>
      <trkpt lat="45.08991" lon="1.9318">
        <ele>174.62</ele>
        <time>2012-08-30T14:31:20Z</time>
      </trkpt>
      <trkpt lat="45.0899" lon="1.93178">
        <ele>175.1</ele>
        <time>2012-08-30T14:31:21Z</time>
      </trkpt>
      <trkpt lat="45.08987" lon="1.93176">
        <ele>175.1</ele>
        <time>2012-08-30T14:31:22Z</time>
      </trkpt>
      <trkpt lat="45.08986" lon="1.93175">
        <ele>175.1</ele>
        <time>2012-08-30T14:31:23Z</time>
      </trkpt>
      <trkpt lat="45.08986" lon="1.93173">
        <ele>174.62</ele>
        <time>2012-08-30T14:31:24Z</time>
      </trkpt>
      <trkpt lat="45.08985" lon="1.93171">
        <ele>174.62</ele>
        <time>2012-08-30T14:31:25Z</time>
      </trkpt>
      <trkpt lat="45.08986" lon="1.93171">
        <ele>174.62</ele>
        <time>2012-08-30T14:31:27Z</time>
      </trkpt>
      <trkpt lat="45.08987" lon="1.93172">
        <ele>175.1</ele>
        <time>2012-08-30T14:31:31Z</time>
      </trkpt>
      <trkpt lat="45.08987" lon="1.93172">
        <ele>174.62</ele>
        <time>2012-08-30T14:31:42Z</time>
      </trkpt>
      <trkpt lat="45.08987" lon="1.93173">
        <ele>175.1</ele>
        <time>2012-08-30T14:31:44Z</time>
      </trkpt>
      <trkpt lat="45.08987" lon="1.93173">
        <ele>173.66</ele>
        <time>2012-08-30T14:31:46Z</time>
      </trkpt>
      <trkpt lat="45.08988" lon="1.93173">
        <ele>174.62</ele>
        <time>2012-08-30T14:31:48Z</time>
      </trkpt>
      <trkpt lat="45.08988" lon="1.93173">
        <ele>170.77</ele>
        <time>2012-08-30T14:31:49Z</time>
      </trkpt>
      <trkpt lat="45.08989" lon="1.93174">
        <ele>177.02</ele>
        <time>2012-08-30T14:31:50Z</time>
      </trkpt>
      <trkpt lat="45.0899" lon="1.93174">
        <ele>170.77</ele>
        <time>2012-08-30T14:31:57Z</time>
      </trkpt>
      <trkpt lat="45.0899" lon="1.93174">
        <ele>175.1</ele>
        <time>2012-08-30T14:31:58Z</time>
      </trkpt>
      <trkpt lat="45.0899" lon="1.93174">
        <ele>171.25</ele>
        <time>2012-08-30T14:32:01Z</time>
      </trkpt>
      <trkpt lat="45.0899" lon="1.93174">
        <ele>175.58</ele>
        <time>2012-08-30T14:32:02Z</time>
      </trkpt>
      <trkpt lat="45.0899" lon="1.93174">
        <ele>176.54</ele>
        <time>2012-08-30T14:32:06Z</time>
      </trkpt>
      <trkpt lat="45.0899" lon="1.93174">
        <ele>171.25</ele>
        <time>2012-08-30T14:32:07Z</time>
      </trkpt>
      <trkpt lat="45.0899" lon="1.93174">
        <ele>176.06</ele>
        <time>2012-08-30T14:32:08Z</time>
      </trkpt>
      <trkpt lat="45.0899" lon="1.93174">
        <ele>170.77</ele>
        <time>2012-08-30T14:32:16Z</time>
      </trkpt>
      <trkpt lat="45.0899" lon="1.93174">
        <ele>175.58</ele>
        <time>2012-08-30T14:32:17Z</time>
      </trkpt>
      <trkpt lat="45.0899" lon="1.93174">
        <ele>175.1</ele>
        <time>2012-08-30T14:32:30Z</time>
      </trkpt>
      <trkpt lat="45.08991" lon="1.93174">
        <ele>171.25</ele>
        <time>2012-08-30T14:32:36Z</time>
      </trkpt>
      <trkpt lat="45.08991" lon="1.93174">
        <ele>175.1</ele>
        <time>2012-08-30T14:32:37Z</time>
      </trkpt>
      <trkpt lat="45.08992" lon="1.93174">
        <ele>174.62</ele>
        <time>2012-08-30T14:32:41Z</time>
      </trkpt>
      <trkpt lat="45.08999" lon="1.93173">
        <ele>174.14</ele>
        <time>2012-08-30T14:32:48Z</time>
      </trkpt>
      <trkpt lat="45.09002" lon="1.93167">
        <ele>179.42</ele>
        <time>2012-08-30T14:32:54Z</time>
      </trkpt>
      <trkpt lat="45.09003" lon="1.93166">
        <ele>175.1</ele>
        <time>2012-08-30T14:32:55Z</time>
      </trkpt>
      <trkpt lat="45.09003" lon="1.93163">
        <ele>174.14</ele>
        <time>2012-08-30T14:32:57Z</time>
      </trkpt>
      <trkpt lat="45.09002" lon="1.93151">
        <ele>174.14</ele>
        <time>2012-08-30T14:33:06Z</time>
      </trkpt>
      <trkpt lat="45.09002" lon="1.93146">
        <ele>172.69</ele>
        <time>2012-08-30T14:33:14Z</time>
      </trkpt>
      <trkpt lat="45.09001" lon="1.93143">
        <ele>175.1</ele>
        <time>2012-08-30T14:33:17Z</time>
      </trkpt>
      <trkpt lat="45.09001" lon="1.9314">
        <ele>175.1</ele>
        <time>2012-08-30T14:33:25Z</time>
      </trkpt>
      <trkpt lat="45.09" lon="1.93139">
        <ele>174.62</ele>
        <time>2012-08-30T14:33:35Z</time>
      </trkpt>
      <trkpt lat="45.08999" lon="1.93136">
        <ele>174.62</ele>
        <time>2012-08-30T14:33:48Z</time>
      </trkpt>
      <trkpt lat="45.08999" lon="1.93135">
        <ele>178.46</ele>
        <time>2012-08-30T14:33:49Z</time>
      </trkpt>
      <trkpt lat="45.08997" lon="1.93132">
        <ele>175.1</ele>
        <time>2012-08-30T14:33:51Z</time>
      </trkpt>
      <trkpt lat="45.08997" lon="1.93129">
        <ele>169.81</ele>
        <time>2012-08-30T14:33:53Z</time>
      </trkpt>
      <trkpt lat="45.08996" lon="1.93128">
        <ele>175.58</ele>
        <time>2012-08-30T14:33:54Z</time>
      </trkpt>
      <trkpt lat="45.08994" lon="1.93117">
        <ele>174.62</ele>
        <time>2012-08-30T14:34:01Z</time>
      </trkpt>
      <trkpt lat="45.08993" lon="1.9311">
        <ele>174.62</ele>
        <time>2012-08-30T14:34:06Z</time>
      </trkpt>
      <trkpt lat="45.08992" lon="1.93107">
        <ele>175.58</ele>
        <time>2012-08-30T14:34:08Z</time>
      </trkpt>
      <trkpt lat="45.08988" lon="1.93096">
        <ele>175.1</ele>
        <time>2012-08-30T14:34:16Z</time>
      </trkpt>
      <trkpt lat="45.08987" lon="1.93092">
        <ele>175.1</ele>
        <time>2012-08-30T14:34:23Z</time>
      </trkpt>
      <trkpt lat="45.08987" lon="1.93092">
        <ele>170.29</ele>
        <time>2012-08-30T14:34:26Z</time>
      </trkpt>
      <trkpt lat="45.08987" lon="1.93092">
        <ele>177.02</ele>
        <time>2012-08-30T14:34:27Z</time>
      </trkpt>
      <trkpt lat="45.08987" lon="1.93092">
        <ele>177.98</ele>
        <time>2012-08-30T14:34:40Z</time>
      </trkpt>
      <trkpt lat="45.08986" lon="1.93089">
        <ele>175.1</ele>
        <time>2012-08-30T14:34:42Z</time>
      </trkpt>
      <trkpt lat="45.08982" lon="1.93076">
        <ele>175.1</ele>
        <time>2012-08-30T14:34:50Z</time>
      </trkpt>
      <trkpt lat="45.08982" lon="1.93073">
        <ele>174.62</ele>
        <time>2012-08-30T14:34:52Z</time>
      </trkpt>
      <trkpt lat="45.08981" lon="1.93066">
        <ele>175.58</ele>
        <time>2012-08-30T14:34:57Z</time>
      </trkpt>
      <trkpt lat="45.08981" lon="1.93064">
        <ele>175.1</ele>
        <time>2012-08-30T14:34:58Z</time>
      </trkpt>
      <trkpt lat="45.08981" lon="1.93063">
        <ele>175.1</ele>
        <time>2012-08-30T14:34:59Z</time>
      </trkpt>
      <trkpt lat="45.08978" lon="1.93053">
        <ele>171.73</ele>
        <time>2012-08-30T14:35:05Z</time>
      </trkpt>
      <trkpt lat="45.08978" lon="1.93051">
        <ele>175.58</ele>
        <time>2012-08-30T14:35:06Z</time>
      </trkpt>
      <trkpt lat="45.08977" lon="1.93046">
        <ele>175.1</ele>
        <time>2012-08-30T14:35:10Z</time>
      </trkpt>
      <trkpt lat="45.08976" lon="1.93044">
        <ele>176.54</ele>
        <time>2012-08-30T14:35:11Z</time>
      </trkpt>
      <trkpt lat="45.08976" lon="1.93042">
        <ele>176.06</ele>
        <time>2012-08-30T14:35:12Z</time>
      </trkpt>
      <trkpt lat="45.08975" lon="1.93041">
        <ele>177.02</ele>
        <time>2012-08-30T14:35:13Z</time>
      </trkpt>
      <trkpt lat="45.08974" lon="1.93038">
        <ele>173.66</ele>
        <time>2012-08-30T14:35:15Z</time>
      </trkpt>
      <trkpt lat="45.08973" lon="1.93035">
        <ele>175.1</ele>
        <time>2012-08-30T14:35:17Z</time>
      </trkpt>
      <trkpt lat="45.08971" lon="1.93028">
        <ele>176.06</ele>
        <time>2012-08-30T14:35:24Z</time>
      </trkpt>
      <trkpt lat="45.08967" lon="1.93014">
        <ele>175.58</ele>
        <time>2012-08-30T14:35:31Z</time>
      </trkpt>
      <trkpt lat="45.08962" lon="1.93004">
        <ele>175.58</ele>
        <time>2012-08-30T14:35:37Z</time>
      </trkpt>
      <trkpt lat="45.08962" lon="1.93001">
        <ele>175.58</ele>
        <time>2012-08-30T14:35:38Z</time>
      </trkpt>
      <trkpt lat="45.08962" lon="1.92998">
        <ele>176.06</ele>
        <time>2012-08-30T14:35:39Z</time>
      </trkpt>
      <trkpt lat="45.08958" lon="1.92987">
        <ele>176.06</ele>
        <time>2012-08-30T14:35:44Z</time>
      </trkpt>
      <trkpt lat="45.08958" lon="1.92983">
        <ele>176.06</ele>
        <time>2012-08-30T14:35:50Z</time>
      </trkpt>
      <trkpt lat="45.08953" lon="1.92968">
        <ele>175.58</ele>
        <time>2012-08-30T14:35:58Z</time>
      </trkpt>
      <trkpt lat="45.08951" lon="1.92959">
        <ele>175.58</ele>
        <time>2012-08-30T14:36:03Z</time>
      </trkpt>
      <trkpt lat="45.08951" lon="1.92951">
        <ele>176.06</ele>
        <time>2012-08-30T14:36:06Z</time>
      </trkpt>
      <trkpt lat="45.08951" lon="1.92949">
        <ele>175.58</ele>
        <time>2012-08-30T14:36:07Z</time>
      </trkpt>
      <trkpt lat="45.0895" lon="1.92944">
        <ele>176.06</ele>
        <time>2012-08-30T14:36:13Z</time>
      </trkpt>
      <trkpt lat="45.08948" lon="1.92939">
        <ele>176.06</ele>
        <time>2012-08-30T14:36:18Z</time>
      </trkpt>
      <trkpt lat="45.08945" lon="1.92933">
        <ele>176.54</ele>
        <time>2012-08-30T14:36:21Z</time>
      </trkpt>
      <trkpt lat="45.08944" lon="1.92931">
        <ele>176.54</ele>
        <time>2012-08-30T14:36:22Z</time>
      </trkpt>
      <trkpt lat="45.08944" lon="1.92929">
        <ele>176.54</ele>
        <time>2012-08-30T14:36:23Z</time>
      </trkpt>
      <trkpt lat="45.08941" lon="1.92915">
        <ele>176.54</ele>
        <time>2012-08-30T14:36:31Z</time>
      </trkpt>
      <trkpt lat="45.0894" lon="1.92905">
        <ele>177.02</ele>
        <time>2012-08-30T14:36:37Z</time>
      </trkpt>
      <trkpt lat="45.08941" lon="1.92904">
        <ele>177.02</ele>
        <time>2012-08-30T14:36:38Z</time>
      </trkpt>
      <trkpt lat="45.08942" lon="1.92903">
        <ele>177.5</ele>
        <time>2012-08-30T14:36:39Z</time>
      </trkpt>
      <trkpt lat="45.08943" lon="1.92901">
        <ele>177.02</ele>
        <time>2012-08-30T14:36:40Z</time>
      </trkpt>
      <trkpt lat="45.08943" lon="1.92898">
        <ele>177.5</ele>
        <time>2012-08-30T14:36:41Z</time>
      </trkpt>
      <trkpt lat="45.08941" lon="1.92893">
        <ele>178.94</ele>
        <time>2012-08-30T14:36:46Z</time>
      </trkpt>
      <trkpt lat="45.0894" lon="1.9289">
        <ele>179.42</ele>
        <time>2012-08-30T14:36:47Z</time>
      </trkpt>
      <trkpt lat="45.08941" lon="1.92882">
        <ele>179.9</ele>
        <time>2012-08-30T14:36:53Z</time>
      </trkpt>
      <trkpt lat="45.08939" lon="1.9287">
        <ele>180.38</ele>
        <time>2012-08-30T14:37:01Z</time>
      </trkpt>
      <trkpt lat="45.08939" lon="1.92868">
        <ele>180.38</ele>
        <time>2012-08-30T14:37:09Z</time>
      </trkpt>
      <trkpt lat="45.08936" lon="1.92862">
        <ele>180.38</ele>
        <time>2012-08-30T14:37:19Z</time>
      </trkpt>
      <trkpt lat="45.08935" lon="1.92858">
        <ele>180.87</ele>
        <time>2012-08-30T14:37:26Z</time>
      </trkpt>
      <trkpt lat="45.08934" lon="1.92857">
        <ele>181.83</ele>
        <time>2012-08-30T14:37:34Z</time>
      </trkpt>
      <trkpt lat="45.08934" lon="1.92857">
        <ele>178.46</ele>
        <time>2012-08-30T14:37:39Z</time>
      </trkpt>
      <trkpt lat="45.08934" lon="1.92857">
        <ele>179.42</ele>
        <time>2012-08-30T14:37:56Z</time>
      </trkpt>
      <trkpt lat="45.08935" lon="1.92859">
        <ele>178.94</ele>
        <time>2012-08-30T14:38:10Z</time>
      </trkpt>
      <trkpt lat="45.08936" lon="1.92856">
        <ele>177.98</ele>
        <time>2012-08-30T14:38:16Z</time>
      </trkpt>
      <trkpt lat="45.08936" lon="1.92855">
        <ele>178.46</ele>
        <time>2012-08-30T14:38:17Z</time>
      </trkpt>
      <trkpt lat="45.08936" lon="1.92852">
        <ele>178.46</ele>
        <time>2012-08-30T14:38:18Z</time>
      </trkpt>
      <trkpt lat="45.08935" lon="1.9285">
        <ele>177.98</ele>
        <time>2012-08-30T14:38:19Z</time>
      </trkpt>
      <trkpt lat="45.08934" lon="1.92847">
        <ele>177.98</ele>
        <time>2012-08-30T14:38:20Z</time>
      </trkpt>
      <trkpt lat="45.08934" lon="1.92845">
        <ele>177.98</ele>
        <time>2012-08-30T14:38:21Z</time>
      </trkpt>
      <trkpt lat="45.08932" lon="1.92843">
        <ele>179.42</ele>
        <time>2012-08-30T14:38:22Z</time>
      </trkpt>
      <trkpt lat="45.08916" lon="1.92806">
        <ele>177.98</ele>
        <time>2012-08-30T14:38:30Z</time>
      </trkpt>
      <trkpt lat="45.08909" lon="1.92784">
        <ele>177.5</ele>
        <time>2012-08-30T14:38:36Z</time>
      </trkpt>
      <trkpt lat="45.08908" lon="1.92775">
        <ele>177.5</ele>
        <time>2012-08-30T14:38:40Z</time>
      </trkpt>
      <trkpt lat="45.08907" lon="1.92769">
        <ele>177.5</ele>
        <time>2012-08-30T14:38:41Z</time>
      </trkpt>
      <trkpt lat="45.08904" lon="1.92763">
        <ele>177.02</ele>
        <time>2012-08-30T14:38:42Z</time>
      </trkpt>
      <trkpt lat="45.08899" lon="1.92757">
        <ele>177.5</ele>
        <time>2012-08-30T14:38:43Z</time>
      </trkpt>
      <trkpt lat="45.08893" lon="1.92751">
        <ele>177.98</ele>
        <time>2012-08-30T14:38:44Z</time>
      </trkpt>
      <trkpt lat="45.08887" lon="1.92745">
        <ele>177.98</ele>
        <time>2012-08-30T14:38:45Z</time>
      </trkpt>
      <trkpt lat="45.0888" lon="1.9274">
        <ele>178.94</ele>
        <time>2012-08-30T14:38:46Z</time>
      </trkpt>
      <trkpt lat="45.08864" lon="1.92727">
        <ele>179.9</ele>
        <time>2012-08-30T14:38:48Z</time>
      </trkpt>
      <trkpt lat="45.08818" lon="1.92694">
        <ele>181.35</ele>
        <time>2012-08-30T14:38:54Z</time>
      </trkpt>
      <trkpt lat="45.08809" lon="1.9269">
        <ele>181.35</ele>
        <time>2012-08-30T14:38:55Z</time>
      </trkpt>
      <trkpt lat="45.088" lon="1.92689">
        <ele>181.35</ele>
        <time>2012-08-30T14:38:56Z</time>
      </trkpt>
      <trkpt lat="45.08791" lon="1.92689">
        <ele>182.79</ele>
        <time>2012-08-30T14:38:57Z</time>
      </trkpt>
      <trkpt lat="45.08781" lon="1.92691">
        <ele>183.75</ele>
        <time>2012-08-30T14:38:58Z</time>
      </trkpt>
      <trkpt lat="45.08772" lon="1.92695">
        <ele>183.75</ele>
        <time>2012-08-30T14:38:59Z</time>
      </trkpt>
      <trkpt lat="45.08763" lon="1.92699">
        <ele>184.23</ele>
        <time>2012-08-30T14:39:00Z</time>
      </trkpt>
      <trkpt lat="45.08683" lon="1.92735">
        <ele>185.67</ele>
        <time>2012-08-30T14:39:09Z</time>
      </trkpt>
      <trkpt lat="45.08664" lon="1.92744">
        <ele>187.11</ele>
        <time>2012-08-30T14:39:11Z</time>
      </trkpt>
      <trkpt lat="45.08597" lon="1.92767">
        <ele>185.67</ele>
        <time>2012-08-30T14:39:17Z</time>
      </trkpt>
      <trkpt lat="45.08543" lon="1.92785">
        <ele>182.79</ele>
        <time>2012-08-30T14:39:22Z</time>
      </trkpt>
      <trkpt lat="45.08511" lon="1.92796">
        <ele>179.9</ele>
        <time>2012-08-30T14:39:26Z</time>
      </trkpt>
      <trkpt lat="45.08506" lon="1.92796">
        <ele>179.9</ele>
        <time>2012-08-30T14:39:27Z</time>
      </trkpt>
      <trkpt lat="45.08498" lon="1.92793">
        <ele>178.94</ele>
        <time>2012-08-30T14:39:31Z</time>
      </trkpt>
      <trkpt lat="45.08496" lon="1.9279">
        <ele>179.9</ele>
        <time>2012-08-30T14:39:38Z</time>
      </trkpt>
      <trkpt lat="45.08494" lon="1.92788">
        <ele>180.38</ele>
        <time>2012-08-30T14:39:39Z</time>
      </trkpt>
      <trkpt lat="45.08492" lon="1.92785">
        <ele>180.87</ele>
        <time>2012-08-30T14:39:40Z</time>
      </trkpt>
      <trkpt lat="45.08489" lon="1.92782">
        <ele>181.83</ele>
        <time>2012-08-30T14:39:42Z</time>
      </trkpt>
      <trkpt lat="45.08482" lon="1.92775">
        <ele>186.15</ele>
        <time>2012-08-30T14:39:46Z</time>
      </trkpt>
      <trkpt lat="45.0848" lon="1.92774">
        <ele>183.27</ele>
        <time>2012-08-30T14:39:47Z</time>
      </trkpt>
      <trkpt lat="45.08474" lon="1.92765">
        <ele>184.71</ele>
        <time>2012-08-30T14:39:51Z</time>
      </trkpt>
      <trkpt lat="45.08468" lon="1.92752">
        <ele>185.19</ele>
        <time>2012-08-30T14:39:59Z</time>
      </trkpt>
      <trkpt lat="45.08463" lon="1.9274">
        <ele>187.11</ele>
        <time>2012-08-30T14:40:07Z</time>
      </trkpt>
      <trkpt lat="45.08455" lon="1.92719">
        <ele>189.52</ele>
        <time>2012-08-30T14:40:16Z</time>
      </trkpt>
      <trkpt lat="45.0845" lon="1.92705">
        <ele>190.96</ele>
        <time>2012-08-30T14:40:22Z</time>
      </trkpt>
      <trkpt lat="45.08449" lon="1.92682">
        <ele>192.88</ele>
        <time>2012-08-30T14:40:29Z</time>
      </trkpt>
      <trkpt lat="45.08446" lon="1.92646">
        <ele>195.28</ele>
        <time>2012-08-30T14:40:36Z</time>
      </trkpt>
      <trkpt lat="45.08442" lon="1.92619">
        <ele>197.69</ele>
        <time>2012-08-30T14:40:45Z</time>
      </trkpt>
      <trkpt lat="45.0844" lon="1.92612">
        <ele>199.61</ele>
        <time>2012-08-30T14:40:53Z</time>
      </trkpt>
      <trkpt lat="45.08439" lon="1.92607">
        <ele>200.09</ele>
        <time>2012-08-30T14:40:55Z</time>
      </trkpt>
      <trkpt lat="45.08432" lon="1.92584">
        <ele>202.49</ele>
        <time>2012-08-30T14:41:03Z</time>
      </trkpt>
      <trkpt lat="45.08429" lon="1.92557">
        <ele>204.42</ele>
        <time>2012-08-30T14:41:11Z</time>
      </trkpt>
      <trkpt lat="45.08424" lon="1.92542">
        <ele>207.78</ele>
        <time>2012-08-30T14:41:18Z</time>
      </trkpt>
      <trkpt lat="45.08422" lon="1.92538">
        <ele>208.26</ele>
        <time>2012-08-30T14:41:26Z</time>
      </trkpt>
      <trkpt lat="45.08427" lon="1.92541">
        <ele>207.78</ele>
        <time>2012-08-30T14:41:39Z</time>
      </trkpt>
      <trkpt lat="45.08431" lon="1.9254">
        <ele>208.26</ele>
        <time>2012-08-30T14:41:48Z</time>
      </trkpt>
      <trkpt lat="45.08431" lon="1.92541">
        <ele>207.78</ele>
        <time>2012-08-30T14:41:57Z</time>
      </trkpt>
      <trkpt lat="45.08429" lon="1.92539">
        <ele>208.26</ele>
        <time>2012-08-30T14:42:05Z</time>
      </trkpt>
      <trkpt lat="45.08426" lon="1.92534">
        <ele>208.74</ele>
        <time>2012-08-30T14:42:09Z</time>
      </trkpt>
      <trkpt lat="45.08429" lon="1.92529">
        <ele>210.19</ele>
        <time>2012-08-30T14:42:13Z</time>
      </trkpt>
      <trkpt lat="45.08432" lon="1.92524">
        <ele>212.11</ele>
        <time>2012-08-30T14:42:20Z</time>
      </trkpt>
      <trkpt lat="45.08426" lon="1.92509">
        <ele>214.03</ele>
        <time>2012-08-30T14:42:29Z</time>
      </trkpt>
      <trkpt lat="45.08423" lon="1.92492">
        <ele>214.51</ele>
        <time>2012-08-30T14:42:36Z</time>
      </trkpt>
      <trkpt lat="45.08414" lon="1.9248">
        <ele>216.91</ele>
        <time>2012-08-30T14:42:45Z</time>
      </trkpt>
      <trkpt lat="45.08413" lon="1.92476">
        <ele>217.88</ele>
        <time>2012-08-30T14:42:48Z</time>
      </trkpt>
      <trkpt lat="45.08408" lon="1.92471">
        <ele>225.57</ele>
        <time>2012-08-30T14:42:51Z</time>
      </trkpt>
      <trkpt lat="45.08407" lon="1.9247">
        <ele>217.88</ele>
        <time>2012-08-30T14:42:52Z</time>
      </trkpt>
      <trkpt lat="45.08406" lon="1.92464">
        <ele>218.84</ele>
        <time>2012-08-30T14:42:56Z</time>
      </trkpt>
      <trkpt lat="45.08402" lon="1.92457">
        <ele>220.28</ele>
        <time>2012-08-30T14:43:03Z</time>
      </trkpt>
      <trkpt lat="45.08399" lon="1.92449">
        <ele>221.24</ele>
        <time>2012-08-30T14:43:09Z</time>
      </trkpt>
      <trkpt lat="45.08402" lon="1.92451">
        <ele>222.68</ele>
        <time>2012-08-30T14:43:16Z</time>
      </trkpt>
      <trkpt lat="45.08404" lon="1.92454">
        <ele>223.16</ele>
        <time>2012-08-30T14:43:19Z</time>
      </trkpt>
      <trkpt lat="45.08411" lon="1.92461">
        <ele>224.12</ele>
        <time>2012-08-30T14:43:28Z</time>
      </trkpt>
      <trkpt lat="45.08413" lon="1.92463">
        <ele>224.61</ele>
        <time>2012-08-30T14:43:29Z</time>
      </trkpt>
      <trkpt lat="45.08419" lon="1.92472">
        <ele>225.57</ele>
        <time>2012-08-30T14:43:38Z</time>
      </trkpt>
      <trkpt lat="45.08422" lon="1.92475">
        <ele>226.05</ele>
        <time>2012-08-30T14:43:41Z</time>
      </trkpt>
      <trkpt lat="45.08426" lon="1.92481">
        <ele>227.01</ele>
        <time>2012-08-30T14:43:48Z</time>
      </trkpt>
      <trkpt lat="45.08431" lon="1.92486">
        <ele>227.97</ele>
        <time>2012-08-30T14:43:53Z</time>
      </trkpt>
      <trkpt lat="45.08432" lon="1.92487">
        <ele>228.45</ele>
        <time>2012-08-30T14:43:57Z</time>
      </trkpt>
      <trkpt lat="45.08439" lon="1.92493">
        <ele>229.89</ele>
        <time>2012-08-30T14:44:04Z</time>
      </trkpt>
      <trkpt lat="45.08444" lon="1.92502">
        <ele>230.37</ele>
        <time>2012-08-30T14:44:09Z</time>
      </trkpt>
      <trkpt lat="45.0845" lon="1.92509">
        <ele>231.81</ele>
        <time>2012-08-30T14:44:16Z</time>
      </trkpt>
      <trkpt lat="45.08454" lon="1.92514">
        <ele>233.26</ele>
        <time>2012-08-30T14:44:22Z</time>
      </trkpt>
      <trkpt lat="45.0846" lon="1.92519">
        <ele>234.22</ele>
        <time>2012-08-30T14:44:26Z</time>
      </trkpt>
      <trkpt lat="45.08461" lon="1.92521">
        <ele>233.74</ele>
        <time>2012-08-30T14:44:29Z</time>
      </trkpt>
      <trkpt lat="45.08468" lon="1.92525">
        <ele>235.66</ele>
        <time>2012-08-30T14:44:36Z</time>
      </trkpt>
      <trkpt lat="45.08465" lon="1.92519">
        <ele>237.1</ele>
        <time>2012-08-30T14:44:42Z</time>
      </trkpt>
      <trkpt lat="45.08464" lon="1.92514">
        <ele>238.06</ele>
        <time>2012-08-30T14:44:47Z</time>
      </trkpt>
      <trkpt lat="45.08462" lon="1.92506">
        <ele>239.51</ele>
        <time>2012-08-30T14:44:53Z</time>
      </trkpt>
      <trkpt lat="45.0846" lon="1.92495">
        <ele>240.47</ele>
        <time>2012-08-30T14:45:00Z</time>
      </trkpt>
      <trkpt lat="45.08461" lon="1.92484">
        <ele>241.91</ele>
        <time>2012-08-30T14:45:05Z</time>
      </trkpt>
      <trkpt lat="45.08458" lon="1.92472">
        <ele>242.87</ele>
        <time>2012-08-30T14:45:13Z</time>
      </trkpt>
      <trkpt lat="45.08457" lon="1.92468">
        <ele>244.31</ele>
        <time>2012-08-30T14:45:18Z</time>
      </trkpt>
      <trkpt lat="45.08456" lon="1.92464">
        <ele>244.79</ele>
        <time>2012-08-30T14:45:21Z</time>
      </trkpt>
      <trkpt lat="45.08456" lon="1.92457">
        <ele>245.75</ele>
        <time>2012-08-30T14:45:27Z</time>
      </trkpt>
      <trkpt lat="45.08455" lon="1.92449">
        <ele>246.23</ele>
        <time>2012-08-30T14:45:32Z</time>
      </trkpt>
      <trkpt lat="45.08455" lon="1.92441">
        <ele>247.68</ele>
        <time>2012-08-30T14:45:37Z</time>
      </trkpt>
      <trkpt lat="45.08453" lon="1.92432">
        <ele>248.16</ele>
        <time>2012-08-30T14:45:42Z</time>
      </trkpt>
      <trkpt lat="45.08451" lon="1.92422">
        <ele>250.08</ele>
        <time>2012-08-30T14:45:48Z</time>
      </trkpt>
      <trkpt lat="45.08451" lon="1.92418">
        <ele>250.08</ele>
        <time>2012-08-30T14:45:51Z</time>
      </trkpt>
      <trkpt lat="45.08452" lon="1.92412">
        <ele>251.04</ele>
        <time>2012-08-30T14:45:56Z</time>
      </trkpt>
      <trkpt lat="45.08452" lon="1.92403">
        <ele>251.52</ele>
        <time>2012-08-30T14:46:01Z</time>
      </trkpt>
      <trkpt lat="45.08449" lon="1.92394">
        <ele>252.96</ele>
        <time>2012-08-30T14:46:06Z</time>
      </trkpt>
      <trkpt lat="45.0845" lon="1.9239">
        <ele>253.44</ele>
        <time>2012-08-30T14:46:12Z</time>
      </trkpt>
      <trkpt lat="45.08451" lon="1.92389">
        <ele>253.93</ele>
        <time>2012-08-30T14:46:15Z</time>
      </trkpt>
      <trkpt lat="45.08454" lon="1.92387">
        <ele>254.41</ele>
        <time>2012-08-30T14:46:20Z</time>
      </trkpt>
      <trkpt lat="45.08455" lon="1.92391">
        <ele>255.37</ele>
        <time>2012-08-30T14:46:25Z</time>
      </trkpt>
      <trkpt lat="45.08455" lon="1.92392">
        <ele>255.37</ele>
        <time>2012-08-30T14:46:27Z</time>
      </trkpt>
      <trkpt lat="45.08458" lon="1.92403">
        <ele>256.33</ele>
        <time>2012-08-30T14:46:33Z</time>
      </trkpt>
      <trkpt lat="45.08458" lon="1.92405">
        <ele>256.81</ele>
        <time>2012-08-30T14:46:38Z</time>
      </trkpt>
      <trkpt lat="45.08464" lon="1.92417">
        <ele>257.29</ele>
        <time>2012-08-30T14:46:44Z</time>
      </trkpt>
      <trkpt lat="45.08465" lon="1.92421">
        <ele>258.73</ele>
        <time>2012-08-30T14:46:50Z</time>
      </trkpt>
      <trkpt lat="45.08469" lon="1.92429">
        <ele>259.21</ele>
        <time>2012-08-30T14:46:57Z</time>
      </trkpt>
      <trkpt lat="45.08477" lon="1.92437">
        <ele>259.69</ele>
        <time>2012-08-30T14:47:03Z</time>
      </trkpt>
      <trkpt lat="45.08478" lon="1.92441">
        <ele>260.65</ele>
        <time>2012-08-30T14:47:09Z</time>
      </trkpt>
      <trkpt lat="45.08484" lon="1.92445">
        <ele>261.62</ele>
        <time>2012-08-30T14:47:13Z</time>
      </trkpt>
      <trkpt lat="45.08489" lon="1.92446">
        <ele>262.1</ele>
        <time>2012-08-30T14:47:19Z</time>
      </trkpt>
      <trkpt lat="45.08494" lon="1.92453">
        <ele>263.06</ele>
        <time>2012-08-30T14:47:25Z</time>
      </trkpt>
      <trkpt lat="45.08501" lon="1.92459">
        <ele>263.54</ele>
        <time>2012-08-30T14:47:30Z</time>
      </trkpt>
      <trkpt lat="45.08507" lon="1.92465">
        <ele>265.46</ele>
        <time>2012-08-30T14:47:36Z</time>
      </trkpt>
      <trkpt lat="45.08511" lon="1.92469">
        <ele>265.46</ele>
        <time>2012-08-30T14:47:41Z</time>
      </trkpt>
      <trkpt lat="45.08515" lon="1.92475">
        <ele>266.42</ele>
        <time>2012-08-30T14:47:46Z</time>
      </trkpt>
      <trkpt lat="45.0852" lon="1.92479">
        <ele>266.42</ele>
        <time>2012-08-30T14:47:51Z</time>
      </trkpt>
      <trkpt lat="45.08523" lon="1.92484">
        <ele>266.9</ele>
        <time>2012-08-30T14:47:56Z</time>
      </trkpt>
      <trkpt lat="45.08527" lon="1.92487">
        <ele>267.86</ele>
        <time>2012-08-30T14:48:02Z</time>
      </trkpt>
      <trkpt lat="45.08533" lon="1.92492">
        <ele>268.83</ele>
        <time>2012-08-30T14:48:08Z</time>
      </trkpt>
      <trkpt lat="45.0854" lon="1.925">
        <ele>269.79</ele>
        <time>2012-08-30T14:48:14Z</time>
      </trkpt>
      <trkpt lat="45.08542" lon="1.92504">
        <ele>270.27</ele>
        <time>2012-08-30T14:48:19Z</time>
      </trkpt>
      <trkpt lat="45.08546" lon="1.92506">
        <ele>272.19</ele>
        <time>2012-08-30T14:48:25Z</time>
      </trkpt>
      <trkpt lat="45.0855" lon="1.92509">
        <ele>273.15</ele>
        <time>2012-08-30T14:48:31Z</time>
      </trkpt>
      <trkpt lat="45.08554" lon="1.92513">
        <ele>274.59</ele>
        <time>2012-08-30T14:48:37Z</time>
      </trkpt>
      <trkpt lat="45.08557" lon="1.92515">
        <ele>276.04</ele>
        <time>2012-08-30T14:48:42Z</time>
      </trkpt>
      <trkpt lat="45.08565" lon="1.92518">
        <ele>276.52</ele>
        <time>2012-08-30T14:48:48Z</time>
      </trkpt>
      <trkpt lat="45.08574" lon="1.92522">
        <ele>277</ele>
        <time>2012-08-30T14:48:54Z</time>
      </trkpt>
      <trkpt lat="45.08579" lon="1.92523">
        <ele>277</ele>
        <time>2012-08-30T14:49:00Z</time>
      </trkpt>
      <trkpt lat="45.08588" lon="1.92522">
        <ele>277</ele>
        <time>2012-08-30T14:49:04Z</time>
      </trkpt>
      <trkpt lat="45.08594" lon="1.9252">
        <ele>277.96</ele>
        <time>2012-08-30T14:49:10Z</time>
      </trkpt>
      <trkpt lat="45.08593" lon="1.92519">
        <ele>278.92</ele>
        <time>2012-08-30T14:49:16Z</time>
      </trkpt>
      <trkpt lat="45.08595" lon="1.92517">
        <ele>277.96</ele>
        <time>2012-08-30T14:49:19Z</time>
      </trkpt>
      <trkpt lat="45.08599" lon="1.92508">
        <ele>278.44</ele>
        <time>2012-08-30T14:49:24Z</time>
      </trkpt>
      <trkpt lat="45.08599" lon="1.92508">
        <ele>279.4</ele>
        <time>2012-08-30T14:49:26Z</time>
      </trkpt>
      <trkpt lat="45.08598" lon="1.92504">
        <ele>279.88</ele>
        <time>2012-08-30T14:49:28Z</time>
      </trkpt>
      <trkpt lat="45.08598" lon="1.92501">
        <ele>281.32</ele>
        <time>2012-08-30T14:49:31Z</time>
      </trkpt>
      <trkpt lat="45.08596" lon="1.92495">
        <ele>282.28</ele>
        <time>2012-08-30T14:49:36Z</time>
      </trkpt>
      <trkpt lat="45.08596" lon="1.92495">
        <ele>282.77</ele>
        <time>2012-08-30T14:49:37Z</time>
      </trkpt>
      <trkpt lat="45.08593" lon="1.92489">
        <ele>284.21</ele>
        <time>2012-08-30T14:49:41Z</time>
      </trkpt>
      <trkpt lat="45.08593" lon="1.92485">
        <ele>285.17</ele>
        <time>2012-08-30T14:49:46Z</time>
      </trkpt>
      <trkpt lat="45.08593" lon="1.92481">
        <ele>286.61</ele>
        <time>2012-08-30T14:49:52Z</time>
      </trkpt>
      <trkpt lat="45.08592" lon="1.92467">
        <ele>288.05</ele>
        <time>2012-08-30T14:49:59Z</time>
      </trkpt>
      <trkpt lat="45.08593" lon="1.92463">
        <ele>284.69</ele>
        <time>2012-08-30T14:50:03Z</time>
      </trkpt>
      <trkpt lat="45.08593" lon="1.92462">
        <ele>289.97</ele>
        <time>2012-08-30T14:50:04Z</time>
      </trkpt>
      <trkpt lat="45.08594" lon="1.92463">
        <ele>290.46</ele>
        <time>2012-08-30T14:50:06Z</time>
      </trkpt>
      <trkpt lat="45.08596" lon="1.92453">
        <ele>291.9</ele>
        <time>2012-08-30T14:50:13Z</time>
      </trkpt>
      <trkpt lat="45.08597" lon="1.9245">
        <ele>291.9</ele>
        <time>2012-08-30T14:50:16Z</time>
      </trkpt>
      <trkpt lat="45.08591" lon="1.92443">
        <ele>292.86</ele>
        <time>2012-08-30T14:50:20Z</time>
      </trkpt>
      <trkpt lat="45.08586" lon="1.92437">
        <ele>293.34</ele>
        <time>2012-08-30T14:50:26Z</time>
      </trkpt>
      <trkpt lat="45.08579" lon="1.92428">
        <ele>294.3</ele>
        <time>2012-08-30T14:50:33Z</time>
      </trkpt>
      <trkpt lat="45.08579" lon="1.92427">
        <ele>295.74</ele>
        <time>2012-08-30T14:50:35Z</time>
      </trkpt>
      <trkpt lat="45.08583" lon="1.92422">
        <ele>296.7</ele>
        <time>2012-08-30T14:50:40Z</time>
      </trkpt>
      <trkpt lat="45.08584" lon="1.9242">
        <ele>296.7</ele>
        <time>2012-08-30T14:50:44Z</time>
      </trkpt>
      <trkpt lat="45.08582" lon="1.92412">
        <ele>297.67</ele>
        <time>2012-08-30T14:50:49Z</time>
      </trkpt>
      <trkpt lat="45.08581" lon="1.92402">
        <ele>298.15</ele>
        <time>2012-08-30T14:50:54Z</time>
      </trkpt>
      <trkpt lat="45.08582" lon="1.92402">
        <ele>299.11</ele>
        <time>2012-08-30T14:50:57Z</time>
      </trkpt>
      <trkpt lat="45.08579" lon="1.92391">
        <ele>300.07</ele>
        <time>2012-08-30T14:51:03Z</time>
      </trkpt>
      <trkpt lat="45.0858" lon="1.9239">
        <ele>300.07</ele>
        <time>2012-08-30T14:51:05Z</time>
      </trkpt>
      <trkpt lat="45.08574" lon="1.9238">
        <ele>301.03</ele>
        <time>2012-08-30T14:51:10Z</time>
      </trkpt>
      <trkpt lat="45.08574" lon="1.92379">
        <ele>301.03</ele>
        <time>2012-08-30T14:51:11Z</time>
      </trkpt>
      <trkpt lat="45.08575" lon="1.92376">
        <ele>301.99</ele>
        <time>2012-08-30T14:51:14Z</time>
      </trkpt>
      <trkpt lat="45.08566" lon="1.92366">
        <ele>302.47</ele>
        <time>2012-08-30T14:51:20Z</time>
      </trkpt>
      <trkpt lat="45.08565" lon="1.92364">
        <ele>302.47</ele>
        <time>2012-08-30T14:51:22Z</time>
      </trkpt>
      <trkpt lat="45.08567" lon="1.92364">
        <ele>302.95</ele>
        <time>2012-08-30T14:51:27Z</time>
      </trkpt>
      <trkpt lat="45.08564" lon="1.92354">
        <ele>303.91</ele>
        <time>2012-08-30T14:51:33Z</time>
      </trkpt>
      <trkpt lat="45.08561" lon="1.92347">
        <ele>303.91</ele>
        <time>2012-08-30T14:51:38Z</time>
      </trkpt>
      <trkpt lat="45.08558" lon="1.92335">
        <ele>304.88</ele>
        <time>2012-08-30T14:51:43Z</time>
      </trkpt>
      <trkpt lat="45.08558" lon="1.92334">
        <ele>305.36</ele>
        <time>2012-08-30T14:51:45Z</time>
      </trkpt>
      <trkpt lat="45.08556" lon="1.92327">
        <ele>306.32</ele>
        <time>2012-08-30T14:51:50Z</time>
      </trkpt>
      <trkpt lat="45.08555" lon="1.92323">
        <ele>306.32</ele>
        <time>2012-08-30T14:51:53Z</time>
      </trkpt>
      <trkpt lat="45.08554" lon="1.92309">
        <ele>307.76</ele>
        <time>2012-08-30T14:51:58Z</time>
      </trkpt>
      <trkpt lat="45.08553" lon="1.92306">
        <ele>308.24</ele>
        <time>2012-08-30T14:52:02Z</time>
      </trkpt>
      <trkpt lat="45.08556" lon="1.92305">
        <ele>308.72</ele>
        <time>2012-08-30T14:52:08Z</time>
      </trkpt>
      <trkpt lat="45.08558" lon="1.92304">
        <ele>308.72</ele>
        <time>2012-08-30T14:52:09Z</time>
      </trkpt>
      <trkpt lat="45.08564" lon="1.92295">
        <ele>309.2</ele>
        <time>2012-08-30T14:52:16Z</time>
      </trkpt>
      <trkpt lat="45.08567" lon="1.92292">
        <ele>310.64</ele>
        <time>2012-08-30T14:52:19Z</time>
      </trkpt>
      <trkpt lat="45.08569" lon="1.92281">
        <ele>311.6</ele>
        <time>2012-08-30T14:52:25Z</time>
      </trkpt>
      <trkpt lat="45.08566" lon="1.92278">
        <ele>311.6</ele>
        <time>2012-08-30T14:52:28Z</time>
      </trkpt>
      <trkpt lat="45.08572" lon="1.92274">
        <ele>312.09</ele>
        <time>2012-08-30T14:52:34Z</time>
      </trkpt>
      <trkpt lat="45.08572" lon="1.92272">
        <ele>312.57</ele>
        <time>2012-08-30T14:52:37Z</time>
      </trkpt>
      <trkpt lat="45.08575" lon="1.92263">
        <ele>314.01</ele>
        <time>2012-08-30T14:52:43Z</time>
      </trkpt>
      <trkpt lat="45.08579" lon="1.92257">
        <ele>315.93</ele>
        <time>2012-08-30T14:52:48Z</time>
      </trkpt>
      <trkpt lat="45.08582" lon="1.92252">
        <ele>315.45</ele>
        <time>2012-08-30T14:52:53Z</time>
      </trkpt>
      <trkpt lat="45.08584" lon="1.92251">
        <ele>316.41</ele>
        <time>2012-08-30T14:52:55Z</time>
      </trkpt>
      <trkpt lat="45.08585" lon="1.92245">
        <ele>316.41</ele>
        <time>2012-08-30T14:52:58Z</time>
      </trkpt>
      <trkpt lat="45.08586" lon="1.9224">
        <ele>317.85</ele>
        <time>2012-08-30T14:53:04Z</time>
      </trkpt>
      <trkpt lat="45.08586" lon="1.9224">
        <ele>317.85</ele>
        <time>2012-08-30T14:53:10Z</time>
      </trkpt>
      <trkpt lat="45.08586" lon="1.92239">
        <ele>317.85</ele>
        <time>2012-08-30T14:53:13Z</time>
      </trkpt>
      <trkpt lat="45.08582" lon="1.92237">
        <ele>319.3</ele>
        <time>2012-08-30T14:53:17Z</time>
      </trkpt>
      <trkpt lat="45.0858" lon="1.92235">
        <ele>319.78</ele>
        <time>2012-08-30T14:53:21Z</time>
      </trkpt>
      <trkpt lat="45.0858" lon="1.92234">
        <ele>319.78</ele>
        <time>2012-08-30T14:53:23Z</time>
      </trkpt>
      <trkpt lat="45.08577" lon="1.92233">
        <ele>320.74</ele>
        <time>2012-08-30T14:53:29Z</time>
      </trkpt>
      <trkpt lat="45.08573" lon="1.9223">
        <ele>322.66</ele>
        <time>2012-08-30T14:53:34Z</time>
      </trkpt>
      <trkpt lat="45.08572" lon="1.92229">
        <ele>322.66</ele>
        <time>2012-08-30T14:53:35Z</time>
      </trkpt>
      <trkpt lat="45.08571" lon="1.92226">
        <ele>323.62</ele>
        <time>2012-08-30T14:53:39Z</time>
      </trkpt>
      <trkpt lat="45.0857" lon="1.92223">
        <ele>324.1</ele>
        <time>2012-08-30T14:53:44Z</time>
      </trkpt>
      <trkpt lat="45.08568" lon="1.92221">
        <ele>325.06</ele>
        <time>2012-08-30T14:53:46Z</time>
      </trkpt>
      <trkpt lat="45.08566" lon="1.92219">
        <ele>326.02</ele>
        <time>2012-08-30T14:53:50Z</time>
      </trkpt>
      <trkpt lat="45.08564" lon="1.92217">
        <ele>326.02</ele>
        <time>2012-08-30T14:53:54Z</time>
      </trkpt>
      <trkpt lat="45.08561" lon="1.92214">
        <ele>326.5</ele>
        <time>2012-08-30T14:53:58Z</time>
      </trkpt>
      <trkpt lat="45.08558" lon="1.92211">
        <ele>326.99</ele>
        <time>2012-08-30T14:54:02Z</time>
      </trkpt>
      <trkpt lat="45.08556" lon="1.92207">
        <ele>327.47</ele>
        <time>2012-08-30T14:54:05Z</time>
      </trkpt>
      <trkpt lat="45.08553" lon="1.92203">
        <ele>328.43</ele>
        <time>2012-08-30T14:54:10Z</time>
      </trkpt>
      <trkpt lat="45.08553" lon="1.92201">
        <ele>329.39</ele>
        <time>2012-08-30T14:54:14Z</time>
      </trkpt>
      <trkpt lat="45.08551" lon="1.92195">
        <ele>330.83</ele>
        <time>2012-08-30T14:54:20Z</time>
      </trkpt>
      <trkpt lat="45.08552" lon="1.9219">
        <ele>331.79</ele>
        <time>2012-08-30T14:54:26Z</time>
      </trkpt>
      <trkpt lat="45.08549" lon="1.92183">
        <ele>332.27</ele>
        <time>2012-08-30T14:54:30Z</time>
      </trkpt>
      <trkpt lat="45.08549" lon="1.92174">
        <ele>333.71</ele>
        <time>2012-08-30T14:54:38Z</time>
      </trkpt>
      <trkpt lat="45.08546" lon="1.92165">
        <ele>334.2</ele>
        <time>2012-08-30T14:54:43Z</time>
      </trkpt>
      <trkpt lat="45.08545" lon="1.92157">
        <ele>335.16</ele>
        <time>2012-08-30T14:54:49Z</time>
      </trkpt>
      <trkpt lat="45.08545" lon="1.92157">
        <ele>336.12</ele>
        <time>2012-08-30T14:54:51Z</time>
      </trkpt>
      <trkpt lat="45.08543" lon="1.92155">
        <ele>337.56</ele>
        <time>2012-08-30T14:54:54Z</time>
      </trkpt>
      <trkpt lat="45.08539" lon="1.92147">
        <ele>337.56</ele>
        <time>2012-08-30T14:55:00Z</time>
      </trkpt>
      <trkpt lat="45.08537" lon="1.9214">
        <ele>338.52</ele>
        <time>2012-08-30T14:55:05Z</time>
      </trkpt>
      <trkpt lat="45.08535" lon="1.92137">
        <ele>339</ele>
        <time>2012-08-30T14:55:08Z</time>
      </trkpt>
      <trkpt lat="45.08536" lon="1.92135">
        <ele>339.48</ele>
        <time>2012-08-30T14:55:11Z</time>
      </trkpt>
      <trkpt lat="45.0853" lon="1.92131">
        <ele>341.41</ele>
        <time>2012-08-30T14:55:17Z</time>
      </trkpt>
      <trkpt lat="45.08527" lon="1.92129">
        <ele>341.89</ele>
        <time>2012-08-30T14:55:22Z</time>
      </trkpt>
      <trkpt lat="45.08525" lon="1.92126">
        <ele>342.37</ele>
        <time>2012-08-30T14:55:26Z</time>
      </trkpt>
      <trkpt lat="45.08521" lon="1.92124">
        <ele>342.85</ele>
        <time>2012-08-30T14:55:29Z</time>
      </trkpt>
      <trkpt lat="45.08518" lon="1.92116">
        <ele>343.33</ele>
        <time>2012-08-30T14:55:35Z</time>
      </trkpt>
      <trkpt lat="45.08516" lon="1.92111">
        <ele>344.77</ele>
        <time>2012-08-30T14:55:40Z</time>
      </trkpt>
      <trkpt lat="45.08516" lon="1.9211">
        <ele>344.77</ele>
        <time>2012-08-30T14:55:41Z</time>
      </trkpt>
      <trkpt lat="45.08515" lon="1.92101">
        <ele>345.73</ele>
        <time>2012-08-30T14:55:47Z</time>
      </trkpt>
      <trkpt lat="45.08514" lon="1.92096">
        <ele>347.17</ele>
        <time>2012-08-30T14:55:52Z</time>
      </trkpt>
      <trkpt lat="45.08514" lon="1.92084">
        <ele>347.65</ele>
        <time>2012-08-30T14:55:58Z</time>
      </trkpt>
      <trkpt lat="45.08514" lon="1.92083">
        <ele>347.65</ele>
        <time>2012-08-30T14:55:59Z</time>
      </trkpt>
      <trkpt lat="45.08509" lon="1.92081">
        <ele>348.13</ele>
        <time>2012-08-30T14:56:05Z</time>
      </trkpt>
      <trkpt lat="45.08505" lon="1.92081">
        <ele>349.1</ele>
        <time>2012-08-30T14:56:12Z</time>
      </trkpt>
      <trkpt lat="45.08502" lon="1.92082">
        <ele>349.1</ele>
        <time>2012-08-30T14:56:15Z</time>
      </trkpt>
      <trkpt lat="45.08491" lon="1.92082">
        <ele>349.58</ele>
        <time>2012-08-30T14:56:19Z</time>
      </trkpt>
      <trkpt lat="45.08484" lon="1.92077">
        <ele>350.06</ele>
        <time>2012-08-30T14:56:24Z</time>
      </trkpt>
      <trkpt lat="45.08482" lon="1.92076">
        <ele>350.06</ele>
        <time>2012-08-30T14:56:29Z</time>
      </trkpt>
      <trkpt lat="45.08476" lon="1.92072">
        <ele>351.02</ele>
        <time>2012-08-30T14:56:35Z</time>
      </trkpt>
      <trkpt lat="45.08473" lon="1.9207">
        <ele>351.5</ele>
        <time>2012-08-30T14:56:41Z</time>
      </trkpt>
      <trkpt lat="45.08466" lon="1.92059">
        <ele>351.98</ele>
        <time>2012-08-30T14:56:48Z</time>
      </trkpt>
      <trkpt lat="45.08467" lon="1.92055">
        <ele>352.94</ele>
        <time>2012-08-30T14:56:53Z</time>
      </trkpt>
      <trkpt lat="45.08467" lon="1.92045">
        <ele>354.38</ele>
        <time>2012-08-30T14:56:59Z</time>
      </trkpt>
      <trkpt lat="45.08467" lon="1.92039">
        <ele>354.38</ele>
        <time>2012-08-30T14:57:06Z</time>
      </trkpt>
      <trkpt lat="45.08467" lon="1.92039">
        <ele>350.06</ele>
        <time>2012-08-30T14:57:11Z</time>
      </trkpt>
      <trkpt lat="45.08467" lon="1.92039">
        <ele>353.9</ele>
        <time>2012-08-30T14:57:12Z</time>
      </trkpt>
      <trkpt lat="45.08467" lon="1.92039">
        <ele>358.23</ele>
        <time>2012-08-30T14:57:25Z</time>
      </trkpt>
      <trkpt lat="45.08467" lon="1.92039">
        <ele>355.34</ele>
        <time>2012-08-30T14:57:26Z</time>
      </trkpt>
      <trkpt lat="45.08467" lon="1.92038">
        <ele>354.38</ele>
        <time>2012-08-30T14:57:28Z</time>
      </trkpt>
      <trkpt lat="45.08467" lon="1.92038">
        <ele>344.77</ele>
        <time>2012-08-30T14:57:36Z</time>
      </trkpt>
      <trkpt lat="45.08467" lon="1.92038">
        <ele>355.83</ele>
        <time>2012-08-30T14:57:37Z</time>
      </trkpt>
      <trkpt lat="45.08467" lon="1.92038">
        <ele>354.38</ele>
        <time>2012-08-30T14:57:38Z</time>
      </trkpt>
      <trkpt lat="45.08466" lon="1.92037">
        <ele>354.86</ele>
        <time>2012-08-30T14:57:47Z</time>
      </trkpt>
      <trkpt lat="45.08466" lon="1.92037">
        <ele>354.38</ele>
        <time>2012-08-30T14:57:49Z</time>
      </trkpt>
      <trkpt lat="45.08466" lon="1.92037">
        <ele>354.86</ele>
        <time>2012-08-30T14:58:03Z</time>
      </trkpt>
      <trkpt lat="45.08466" lon="1.92037">
        <ele>354.38</ele>
        <time>2012-08-30T14:58:13Z</time>
      </trkpt>
      <trkpt lat="45.08463" lon="1.92023">
        <ele>354.38</ele>
        <time>2012-08-30T14:58:19Z</time>
      </trkpt>
      <trkpt lat="45.0846" lon="1.92011">
        <ele>353.9</ele>
        <time>2012-08-30T14:58:26Z</time>
      </trkpt>
      <trkpt lat="45.08455" lon="1.91994">
        <ele>353.42</ele>
        <time>2012-08-30T14:58:32Z</time>
      </trkpt>
      <trkpt lat="45.08453" lon="1.9199">
        <ele>353.42</ele>
        <time>2012-08-30T14:58:36Z</time>
      </trkpt>
      <trkpt lat="45.08447" lon="1.91979">
        <ele>354.38</ele>
        <time>2012-08-30T14:58:43Z</time>
      </trkpt>
      <trkpt lat="45.08444" lon="1.91972">
        <ele>353.9</ele>
        <time>2012-08-30T14:58:48Z</time>
      </trkpt>
      <trkpt lat="45.08443" lon="1.9197">
        <ele>353.42</ele>
        <time>2012-08-30T14:58:50Z</time>
      </trkpt>
      <trkpt lat="45.08437" lon="1.91955">
        <ele>352.94</ele>
        <time>2012-08-30T14:58:56Z</time>
      </trkpt>
      <trkpt lat="45.08429" lon="1.91938">
        <ele>351.98</ele>
        <time>2012-08-30T14:59:02Z</time>
      </trkpt>
      <trkpt lat="45.08425" lon="1.91928">
        <ele>350.54</ele>
        <time>2012-08-30T14:59:07Z</time>
      </trkpt>
      <trkpt lat="45.08417" lon="1.91919">
        <ele>350.54</ele>
        <time>2012-08-30T14:59:13Z</time>
      </trkpt>
      <trkpt lat="45.08416" lon="1.91915">
        <ele>350.06</ele>
        <time>2012-08-30T14:59:18Z</time>
      </trkpt>
      <trkpt lat="45.08418" lon="1.9191">
        <ele>348.13</ele>
        <time>2012-08-30T14:59:25Z</time>
      </trkpt>
      <trkpt lat="45.08416" lon="1.91902">
        <ele>346.69</ele>
        <time>2012-08-30T14:59:32Z</time>
      </trkpt>
      <trkpt lat="45.08411" lon="1.91895">
        <ele>345.73</ele>
        <time>2012-08-30T14:59:40Z</time>
      </trkpt>
      <trkpt lat="45.0841" lon="1.91895">
        <ele>345.25</ele>
        <time>2012-08-30T14:59:46Z</time>
      </trkpt>
      <trkpt lat="45.08405" lon="1.91884">
        <ele>344.29</ele>
        <time>2012-08-30T14:59:52Z</time>
      </trkpt>
      <trkpt lat="45.08403" lon="1.91882">
        <ele>343.33</ele>
        <time>2012-08-30T15:00:00Z</time>
      </trkpt>
      <trkpt lat="45.08402" lon="1.91882">
        <ele>344.29</ele>
        <time>2012-08-30T15:00:14Z</time>
      </trkpt>
      <trkpt lat="45.08398" lon="1.91878">
        <ele>343.33</ele>
        <time>2012-08-30T15:00:29Z</time>
      </trkpt>
      <trkpt lat="45.08396" lon="1.91874">
        <ele>343.33</ele>
        <time>2012-08-30T15:00:32Z</time>
      </trkpt>
      <trkpt lat="45.08373" lon="1.91853">
        <ele>343.81</ele>
        <time>2012-08-30T15:00:40Z</time>
      </trkpt>
      <trkpt lat="45.08352" lon="1.91828">
        <ele>344.77</ele>
        <time>2012-08-30T15:00:47Z</time>
      </trkpt>
      <trkpt lat="45.08348" lon="1.91804">
        <ele>347.17</ele>
        <time>2012-08-30T15:00:51Z</time>
      </trkpt>
      <trkpt lat="45.08346" lon="1.91759">
        <ele>350.54</ele>
        <time>2012-08-30T15:00:56Z</time>
      </trkpt>
      <trkpt lat="45.08351" lon="1.91743">
        <ele>349.1</ele>
        <time>2012-08-30T15:00:58Z</time>
      </trkpt>
      <trkpt lat="45.08357" lon="1.91726">
        <ele>350.54</ele>
        <time>2012-08-30T15:01:00Z</time>
      </trkpt>
      <trkpt lat="45.08359" lon="1.91719">
        <ele>351.02</ele>
        <time>2012-08-30T15:01:01Z</time>
      </trkpt>
      <trkpt lat="45.0836" lon="1.91713">
        <ele>350.54</ele>
        <time>2012-08-30T15:01:02Z</time>
      </trkpt>
      <trkpt lat="45.08359" lon="1.91709">
        <ele>351.5</ele>
        <time>2012-08-30T15:01:03Z</time>
      </trkpt>
      <trkpt lat="45.08356" lon="1.91707">
        <ele>351.5</ele>
        <time>2012-08-30T15:01:04Z</time>
      </trkpt>
      <trkpt lat="45.08353" lon="1.91706">
        <ele>352.46</ele>
        <time>2012-08-30T15:01:05Z</time>
      </trkpt>
      <trkpt lat="45.0835" lon="1.91708">
        <ele>352.46</ele>
        <time>2012-08-30T15:01:06Z</time>
      </trkpt>
      <trkpt lat="45.08346" lon="1.9171">
        <ele>352.94</ele>
        <time>2012-08-30T15:01:07Z</time>
      </trkpt>
      <trkpt lat="45.08343" lon="1.91713">
        <ele>353.9</ele>
        <time>2012-08-30T15:01:08Z</time>
      </trkpt>
      <trkpt lat="45.08323" lon="1.91737">
        <ele>356.31</ele>
        <time>2012-08-30T15:01:15Z</time>
      </trkpt>
      <trkpt lat="45.08318" lon="1.91745">
        <ele>357.75</ele>
        <time>2012-08-30T15:01:17Z</time>
      </trkpt>
      <trkpt lat="45.08307" lon="1.91761">
        <ele>359.67</ele>
        <time>2012-08-30T15:01:21Z</time>
      </trkpt>
      <trkpt lat="45.08293" lon="1.9178">
        <ele>362.55</ele>
        <time>2012-08-30T15:01:25Z</time>
      </trkpt>
      <trkpt lat="45.08278" lon="1.918">
        <ele>365.92</ele>
        <time>2012-08-30T15:01:29Z</time>
      </trkpt>
      <trkpt lat="45.08268" lon="1.9181">
        <ele>366.88</ele>
        <time>2012-08-30T15:01:31Z</time>
      </trkpt>
      <trkpt lat="45.08249" lon="1.91826">
        <ele>370.24</ele>
        <time>2012-08-30T15:01:36Z</time>
      </trkpt>
      <trkpt lat="45.08245" lon="1.9183">
        <ele>371.21</ele>
        <time>2012-08-30T15:01:37Z</time>
      </trkpt>
      <trkpt lat="45.08224" lon="1.91854">
        <ele>375.05</ele>
        <time>2012-08-30T15:01:42Z</time>
      </trkpt>
      <trkpt lat="45.0822" lon="1.91858">
        <ele>375.53</ele>
        <time>2012-08-30T15:01:43Z</time>
      </trkpt>
      <trkpt lat="45.08207" lon="1.91868">
        <ele>379.38</ele>
        <time>2012-08-30T15:01:46Z</time>
      </trkpt>
      <trkpt lat="45.08202" lon="1.91871">
        <ele>379.38</ele>
        <time>2012-08-30T15:01:47Z</time>
      </trkpt>
      <trkpt lat="45.08178" lon="1.91882">
        <ele>383.22</ele>
        <time>2012-08-30T15:01:52Z</time>
      </trkpt>
      <trkpt lat="45.08169" lon="1.91886">
        <ele>384.66</ele>
        <time>2012-08-30T15:01:54Z</time>
      </trkpt>
      <trkpt lat="45.08166" lon="1.91891">
        <ele>385.63</ele>
        <time>2012-08-30T15:01:55Z</time>
      </trkpt>
      <trkpt lat="45.08164" lon="1.91897">
        <ele>386.11</ele>
        <time>2012-08-30T15:01:56Z</time>
      </trkpt>
      <trkpt lat="45.08163" lon="1.91904">
        <ele>388.03</ele>
        <time>2012-08-30T15:01:57Z</time>
      </trkpt>
      <trkpt lat="45.08162" lon="1.9191">
        <ele>388.99</ele>
        <time>2012-08-30T15:01:58Z</time>
      </trkpt>
      <trkpt lat="45.08161" lon="1.91917">
        <ele>389.95</ele>
        <time>2012-08-30T15:01:59Z</time>
      </trkpt>
      <trkpt lat="45.08161" lon="1.91925">
        <ele>390.91</ele>
        <time>2012-08-30T15:02:00Z</time>
      </trkpt>
      <trkpt lat="45.08161" lon="1.91932">
        <ele>391.39</ele>
        <time>2012-08-30T15:02:01Z</time>
      </trkpt>
      <trkpt lat="45.08161" lon="1.9194">
        <ele>392.36</ele>
        <time>2012-08-30T15:02:02Z</time>
      </trkpt>
      <trkpt lat="45.08162" lon="1.91964">
        <ele>395.24</ele>
        <time>2012-08-30T15:02:05Z</time>
      </trkpt>
      <trkpt lat="45.08165" lon="1.91995">
        <ele>399.08</ele>
        <time>2012-08-30T15:02:09Z</time>
      </trkpt>
      <trkpt lat="45.08167" lon="1.92009">
        <ele>400.05</ele>
        <time>2012-08-30T15:02:11Z</time>
      </trkpt>
      <trkpt lat="45.0817" lon="1.92033">
        <ele>399.57</ele>
        <time>2012-08-30T15:02:17Z</time>
      </trkpt>
      <trkpt lat="45.0817" lon="1.92033">
        <ele>399.57</ele>
        <time>2012-08-30T15:02:26Z</time>
      </trkpt>
      <trkpt lat="45.0817" lon="1.92033">
        <ele>399.57</ele>
        <time>2012-08-30T15:02:41Z</time>
      </trkpt>
      <trkpt lat="45.0817" lon="1.92033">
        <ele>399.57</ele>
        <time>2012-08-30T15:02:52Z</time>
      </trkpt>
      <trkpt lat="45.08169" lon="1.92033">
        <ele>400.05</ele>
        <time>2012-08-30T15:02:57Z</time>
      </trkpt>
      <trkpt lat="45.0817" lon="1.92035">
        <ele>400.05</ele>
        <time>2012-08-30T15:03:03Z</time>
      </trkpt>
      <trkpt lat="45.0817" lon="1.92037">
        <ele>399.57</ele>
        <time>2012-08-30T15:03:10Z</time>
      </trkpt>
      <trkpt lat="45.0817" lon="1.92037">
        <ele>400.05</ele>
        <time>2012-08-30T15:03:31Z</time>
      </trkpt>
      <trkpt lat="45.0817" lon="1.92037">
        <ele>399.57</ele>
        <time>2012-08-30T15:03:41Z</time>
      </trkpt>
      <trkpt lat="45.0817" lon="1.92037">
        <ele>399.57</ele>
        <time>2012-08-30T15:03:51Z</time>
      </trkpt>
      <trkpt lat="45.08168" lon="1.92044">
        <ele>399.08</ele>
        <time>2012-08-30T15:03:57Z</time>
      </trkpt>
      <trkpt lat="45.08168" lon="1.92044">
        <ele>397.64</ele>
        <time>2012-08-30T15:04:03Z</time>
      </trkpt>
      <trkpt lat="45.08168" lon="1.92044">
        <ele>396.68</ele>
        <time>2012-08-30T15:04:08Z</time>
      </trkpt>
      <trkpt lat="45.08167" lon="1.92056">
        <ele>395.72</ele>
        <time>2012-08-30T15:04:14Z</time>
      </trkpt>
      <trkpt lat="45.08168" lon="1.92062">
        <ele>395.24</ele>
        <time>2012-08-30T15:04:20Z</time>
      </trkpt>
      <trkpt lat="45.08168" lon="1.92062">
        <ele>394.76</ele>
        <time>2012-08-30T15:04:21Z</time>
      </trkpt>
      <trkpt lat="45.08167" lon="1.92074">
        <ele>395.72</ele>
        <time>2012-08-30T15:04:27Z</time>
      </trkpt>
      <trkpt lat="45.08166" lon="1.92082">
        <ele>396.2</ele>
        <time>2012-08-30T15:04:32Z</time>
      </trkpt>
      <trkpt lat="45.08165" lon="1.92084">
        <ele>395.72</ele>
        <time>2012-08-30T15:04:37Z</time>
      </trkpt>
      <trkpt lat="45.08165" lon="1.92086">
        <ele>398.6</ele>
        <time>2012-08-30T15:04:43Z</time>
      </trkpt>
      <trkpt lat="45.08165" lon="1.92086">
        <ele>394.76</ele>
        <time>2012-08-30T15:04:45Z</time>
      </trkpt>
      <trkpt lat="45.08165" lon="1.92086">
        <ele>395.24</ele>
        <time>2012-08-30T15:04:46Z</time>
      </trkpt>
      <trkpt lat="45.08165" lon="1.92086">
        <ele>396.2</ele>
        <time>2012-08-30T15:04:51Z</time>
      </trkpt>
      <trkpt lat="45.08165" lon="1.92086">
        <ele>395.24</ele>
        <time>2012-08-30T15:04:54Z</time>
      </trkpt>
      <trkpt lat="45.08165" lon="1.92086">
        <ele>396.2</ele>
        <time>2012-08-30T15:05:05Z</time>
      </trkpt>
      <trkpt lat="45.08165" lon="1.92089">
        <ele>395.24</ele>
        <time>2012-08-30T15:05:10Z</time>
      </trkpt>
      <trkpt lat="45.08164" lon="1.9211">
        <ele>395.72</ele>
        <time>2012-08-30T15:05:22Z</time>
      </trkpt>
      <trkpt lat="45.08164" lon="1.92114">
        <ele>395.24</ele>
        <time>2012-08-30T15:05:33Z</time>
      </trkpt>
      <trkpt lat="45.08164" lon="1.92114">
        <ele>394.76</ele>
        <time>2012-08-30T15:05:46Z</time>
      </trkpt>
      <trkpt lat="45.08164" lon="1.92114">
        <ele>394.28</ele>
        <time>2012-08-30T15:05:58Z</time>
      </trkpt>
      <trkpt lat="45.08163" lon="1.92115">
        <ele>393.8</ele>
        <time>2012-08-30T15:06:06Z</time>
      </trkpt>
      <trkpt lat="45.08163" lon="1.92115">
        <ele>393.32</ele>
        <time>2012-08-30T15:06:14Z</time>
      </trkpt>
      <trkpt lat="45.08163" lon="1.92115">
        <ele>393.8</ele>
        <time>2012-08-30T15:06:31Z</time>
      </trkpt>
      <trkpt lat="45.08163" lon="1.92115">
        <ele>397.64</ele>
        <time>2012-08-30T15:06:44Z</time>
      </trkpt>
      <trkpt lat="45.08163" lon="1.92115">
        <ele>394.28</ele>
        <time>2012-08-30T15:06:45Z</time>
      </trkpt>
      <trkpt lat="45.08161" lon="1.92121">
        <ele>393.32</ele>
        <time>2012-08-30T15:06:53Z</time>
      </trkpt>
      <trkpt lat="45.08161" lon="1.92121">
        <ele>393.32</ele>
        <time>2012-08-30T15:07:03Z</time>
      </trkpt>
      <trkpt lat="45.08161" lon="1.92121">
        <ele>393.8</ele>
        <time>2012-08-30T15:07:21Z</time>
      </trkpt>
      <trkpt lat="45.08156" lon="1.92128">
        <ele>393.32</ele>
        <time>2012-08-30T15:07:37Z</time>
      </trkpt>
      <trkpt lat="45.08156" lon="1.92128">
        <ele>393.32</ele>
        <time>2012-08-30T15:07:44Z</time>
      </trkpt>
      <trkpt lat="45.08156" lon="1.92128">
        <ele>393.8</ele>
        <time>2012-08-30T15:07:50Z</time>
      </trkpt>
      <trkpt lat="45.08156" lon="1.92131">
        <ele>393.8</ele>
        <time>2012-08-30T15:07:55Z</time>
      </trkpt>
      <trkpt lat="45.08156" lon="1.92131">
        <ele>393.8</ele>
        <time>2012-08-30T15:07:57Z</time>
      </trkpt>
      <trkpt lat="45.08157" lon="1.92134">
        <ele>393.32</ele>
        <time>2012-08-30T15:08:02Z</time>
      </trkpt>
      <trkpt lat="45.08159" lon="1.92135">
        <ele>394.76</ele>
        <time>2012-08-30T15:08:12Z</time>
      </trkpt>
      <trkpt lat="45.08162" lon="1.92133">
        <ele>395.72</ele>
        <time>2012-08-30T15:08:17Z</time>
      </trkpt>
      <trkpt lat="45.08166" lon="1.9213">
        <ele>395.72</ele>
        <time>2012-08-30T15:08:22Z</time>
      </trkpt>
      <trkpt lat="45.08167" lon="1.92129">
        <ele>396.68</ele>
        <time>2012-08-30T15:08:28Z</time>
      </trkpt>
      <trkpt lat="45.08167" lon="1.92129">
        <ele>396.68</ele>
        <time>2012-08-30T15:08:44Z</time>
      </trkpt>
      <trkpt lat="45.08167" lon="1.92129">
        <ele>396.68</ele>
        <time>2012-08-30T15:08:54Z</time>
      </trkpt>
      <trkpt lat="45.08168" lon="1.92122">
        <ele>397.64</ele>
        <time>2012-08-30T15:09:02Z</time>
      </trkpt>
      <trkpt lat="45.08168" lon="1.92121">
        <ele>397.64</ele>
        <time>2012-08-30T15:09:04Z</time>
      </trkpt>
      <trkpt lat="45.08168" lon="1.9211">
        <ele>396.2</ele>
        <time>2012-08-30T15:09:09Z</time>
      </trkpt>
      <trkpt lat="45.08168" lon="1.92107">
        <ele>396.68</ele>
        <time>2012-08-30T15:09:12Z</time>
      </trkpt>
      <trkpt lat="45.08169" lon="1.92102">
        <ele>396.68</ele>
        <time>2012-08-30T15:09:17Z</time>
      </trkpt>
      <trkpt lat="45.08169" lon="1.92099">
        <ele>397.64</ele>
        <time>2012-08-30T15:09:19Z</time>
      </trkpt>
      <trkpt lat="45.0817" lon="1.92093">
        <ele>397.64</ele>
        <time>2012-08-30T15:09:24Z</time>
      </trkpt>
      <trkpt lat="45.08169" lon="1.9209">
        <ele>397.16</ele>
        <time>2012-08-30T15:09:27Z</time>
      </trkpt>
      <trkpt lat="45.08171" lon="1.92073">
        <ele>397.16</ele>
        <time>2012-08-30T15:09:32Z</time>
      </trkpt>
      <trkpt lat="45.08173" lon="1.92071">
        <ele>397.16</ele>
        <time>2012-08-30T15:09:36Z</time>
      </trkpt>
      <trkpt lat="45.08174" lon="1.92063">
        <ele>398.12</ele>
        <time>2012-08-30T15:09:41Z</time>
      </trkpt>
      <trkpt lat="45.08174" lon="1.92062">
        <ele>398.6</ele>
        <time>2012-08-30T15:09:44Z</time>
      </trkpt>
      <trkpt lat="45.08174" lon="1.9205">
        <ele>400.05</ele>
        <time>2012-08-30T15:09:51Z</time>
      </trkpt>
      <trkpt lat="45.08174" lon="1.92046">
        <ele>400.53</ele>
        <time>2012-08-30T15:09:55Z</time>
      </trkpt>
      <trkpt lat="45.08174" lon="1.92041">
        <ele>401.97</ele>
        <time>2012-08-30T15:10:02Z</time>
      </trkpt>
      <trkpt lat="45.08172" lon="1.92036">
        <ele>402.45</ele>
        <time>2012-08-30T15:10:10Z</time>
      </trkpt>
      <trkpt lat="45.08172" lon="1.92034">
        <ele>402.45</ele>
        <time>2012-08-30T15:10:19Z</time>
      </trkpt>
      <trkpt lat="45.08178" lon="1.92029">
        <ele>401.97</ele>
        <time>2012-08-30T15:10:26Z</time>
      </trkpt>
      <trkpt lat="45.08178" lon="1.92029">
        <ele>401.97</ele>
        <time>2012-08-30T15:10:43Z</time>
      </trkpt>
      <trkpt lat="45.08178" lon="1.92029">
        <ele>401.97</ele>
        <time>2012-08-30T15:10:58Z</time>
      </trkpt>
      <trkpt lat="45.08178" lon="1.92028">
        <ele>401.97</ele>
        <time>2012-08-30T15:11:17Z</time>
      </trkpt>
      <trkpt lat="45.08178" lon="1.92028">
        <ele>402.45</ele>
        <time>2012-08-30T15:11:32Z</time>
      </trkpt>
      <trkpt lat="45.08178" lon="1.92028">
        <ele>401.97</ele>
        <time>2012-08-30T15:11:37Z</time>
      </trkpt>
      <trkpt lat="45.08174" lon="1.92028">
        <ele>402.45</ele>
        <time>2012-08-30T15:11:42Z</time>
      </trkpt>
      <trkpt lat="45.08168" lon="1.92031">
        <ele>402.45</ele>
        <time>2012-08-30T15:11:48Z</time>
      </trkpt>
      <trkpt lat="45.08167" lon="1.92034">
        <ele>401.49</ele>
        <time>2012-08-30T15:11:54Z</time>
      </trkpt>
      <trkpt lat="45.08165" lon="1.92035">
        <ele>401.49</ele>
        <time>2012-08-30T15:12:01Z</time>
      </trkpt>
      <trkpt lat="45.08165" lon="1.92034">
        <ele>401.49</ele>
        <time>2012-08-30T15:12:09Z</time>
      </trkpt>
      <trkpt lat="45.08173" lon="1.92027">
        <ele>401.97</ele>
        <time>2012-08-30T15:12:15Z</time>
      </trkpt>
      <trkpt lat="45.08173" lon="1.92026">
        <ele>401.97</ele>
        <time>2012-08-30T15:12:17Z</time>
      </trkpt>
      <trkpt lat="45.08173" lon="1.92027">
        <ele>401.49</ele>
        <time>2012-08-30T15:12:24Z</time>
      </trkpt>
      <trkpt lat="45.08172" lon="1.92026">
        <ele>401.97</ele>
        <time>2012-08-30T15:12:25Z</time>
      </trkpt>
      <trkpt lat="45.08165" lon="1.92003">
        <ele>400.53</ele>
        <time>2012-08-30T15:12:31Z</time>
      </trkpt>
      <trkpt lat="45.08163" lon="1.91973">
        <ele>398.6</ele>
        <time>2012-08-30T15:12:36Z</time>
      </trkpt>
      <trkpt lat="45.08166" lon="1.91942">
        <ele>394.76</ele>
        <time>2012-08-30T15:12:40Z</time>
      </trkpt>
      <trkpt lat="45.08165" lon="1.91913">
        <ele>391.39</ele>
        <time>2012-08-30T15:12:43Z</time>
      </trkpt>
      <trkpt lat="45.08165" lon="1.91886">
        <ele>388.03</ele>
        <time>2012-08-30T15:12:46Z</time>
      </trkpt>
      <trkpt lat="45.08168" lon="1.91866">
        <ele>384.18</ele>
        <time>2012-08-30T15:12:49Z</time>
      </trkpt>
      <trkpt lat="45.08172" lon="1.91861">
        <ele>384.66</ele>
        <time>2012-08-30T15:12:50Z</time>
      </trkpt>
      <trkpt lat="45.08176" lon="1.91857">
        <ele>383.7</ele>
        <time>2012-08-30T15:12:51Z</time>
      </trkpt>
      <trkpt lat="45.08181" lon="1.91854">
        <ele>382.74</ele>
        <time>2012-08-30T15:12:52Z</time>
      </trkpt>
      <trkpt lat="45.08186" lon="1.91851">
        <ele>381.3</ele>
        <time>2012-08-30T15:12:53Z</time>
      </trkpt>
      <trkpt lat="45.08193" lon="1.91849">
        <ele>379.86</ele>
        <time>2012-08-30T15:12:54Z</time>
      </trkpt>
      <trkpt lat="45.08209" lon="1.91844">
        <ele>377.45</ele>
        <time>2012-08-30T15:12:56Z</time>
      </trkpt>
      <trkpt lat="45.08218" lon="1.9184">
        <ele>376.01</ele>
        <time>2012-08-30T15:12:57Z</time>
      </trkpt>
      <trkpt lat="45.08226" lon="1.91835">
        <ele>376.01</ele>
        <time>2012-08-30T15:12:58Z</time>
      </trkpt>
      <trkpt lat="45.08233" lon="1.91829">
        <ele>375.05</ele>
        <time>2012-08-30T15:12:59Z</time>
      </trkpt>
      <trkpt lat="45.08239" lon="1.91822">
        <ele>374.57</ele>
        <time>2012-08-30T15:13:00Z</time>
      </trkpt>
      <trkpt lat="45.08268" lon="1.91797">
        <ele>370.24</ele>
        <time>2012-08-30T15:13:04Z</time>
      </trkpt>
      <trkpt lat="45.08291" lon="1.91774">
        <ele>366.4</ele>
        <time>2012-08-30T15:13:07Z</time>
      </trkpt>
      <trkpt lat="45.08312" lon="1.91748">
        <ele>362.55</ele>
        <time>2012-08-30T15:13:10Z</time>
      </trkpt>
      <trkpt lat="45.08331" lon="1.91725">
        <ele>358.71</ele>
        <time>2012-08-30T15:13:13Z</time>
      </trkpt>
      <trkpt lat="45.08352" lon="1.91702">
        <ele>354.86</ele>
        <time>2012-08-30T15:13:17Z</time>
      </trkpt>
      <trkpt lat="45.08357" lon="1.91698">
        <ele>354.86</ele>
        <time>2012-08-30T15:13:18Z</time>
      </trkpt>
      <trkpt lat="45.08373" lon="1.91686">
        <ele>352.94</ele>
        <time>2012-08-30T15:13:23Z</time>
      </trkpt>
      <trkpt lat="45.08396" lon="1.91674">
        <ele>353.42</ele>
        <time>2012-08-30T15:13:33Z</time>
      </trkpt>
      <trkpt lat="45.08411" lon="1.91666">
        <ele>352.46</ele>
        <time>2012-08-30T15:13:39Z</time>
      </trkpt>
      <trkpt lat="45.08424" lon="1.9165">
        <ele>353.42</ele>
        <time>2012-08-30T15:13:47Z</time>
      </trkpt>
      <trkpt lat="45.08439" lon="1.91631">
        <ele>354.38</ele>
        <time>2012-08-30T15:13:55Z</time>
      </trkpt>
      <trkpt lat="45.08462" lon="1.91613">
        <ele>352.94</ele>
        <time>2012-08-30T15:14:03Z</time>
      </trkpt>
      <trkpt lat="45.08485" lon="1.91597">
        <ele>350.54</ele>
        <time>2012-08-30T15:14:11Z</time>
      </trkpt>
      <trkpt lat="45.08496" lon="1.91584">
        <ele>350.06</ele>
        <time>2012-08-30T15:14:16Z</time>
      </trkpt>
      <trkpt lat="45.08512" lon="1.91573">
        <ele>350.06</ele>
        <time>2012-08-30T15:14:23Z</time>
      </trkpt>
      <trkpt lat="45.08538" lon="1.91564">
        <ele>350.54</ele>
        <time>2012-08-30T15:14:30Z</time>
      </trkpt>
      <trkpt lat="45.08563" lon="1.91551">
        <ele>354.38</ele>
        <time>2012-08-30T15:14:38Z</time>
      </trkpt>
      <trkpt lat="45.08579" lon="1.91539">
        <ele>355.34</ele>
        <time>2012-08-30T15:14:44Z</time>
      </trkpt>
      <trkpt lat="45.08592" lon="1.91521">
        <ele>354.86</ele>
        <time>2012-08-30T15:14:51Z</time>
      </trkpt>
      <trkpt lat="45.08598" lon="1.91512">
        <ele>353.9</ele>
        <time>2012-08-30T15:14:54Z</time>
      </trkpt>
      <trkpt lat="45.08611" lon="1.91498">
        <ele>352.94</ele>
        <time>2012-08-30T15:15:00Z</time>
      </trkpt>
      <trkpt lat="45.08632" lon="1.91481">
        <ele>351.5</ele>
        <time>2012-08-30T15:15:09Z</time>
      </trkpt>
      <trkpt lat="45.08643" lon="1.91469">
        <ele>351.98</ele>
        <time>2012-08-30T15:15:16Z</time>
      </trkpt>
      <trkpt lat="45.08664" lon="1.91466">
        <ele>353.9</ele>
        <time>2012-08-30T15:15:23Z</time>
      </trkpt>
      <trkpt lat="45.0868" lon="1.91467">
        <ele>356.31</ele>
        <time>2012-08-30T15:15:27Z</time>
      </trkpt>
      <trkpt lat="45.08704" lon="1.91467">
        <ele>357.27</ele>
        <time>2012-08-30T15:15:33Z</time>
      </trkpt>
      <trkpt lat="45.08725" lon="1.91468">
        <ele>359.19</ele>
        <time>2012-08-30T15:15:41Z</time>
      </trkpt>
      <trkpt lat="45.08743" lon="1.91468">
        <ele>359.19</ele>
        <time>2012-08-30T15:15:48Z</time>
      </trkpt>
      <trkpt lat="45.08759" lon="1.9147">
        <ele>358.71</ele>
        <time>2012-08-30T15:15:55Z</time>
      </trkpt>
      <trkpt lat="45.08761" lon="1.91471">
        <ele>358.71</ele>
        <time>2012-08-30T15:16:02Z</time>
      </trkpt>
      <trkpt lat="45.08761" lon="1.91471">
        <ele>358.23</ele>
        <time>2012-08-30T15:16:21Z</time>
      </trkpt>
      <trkpt lat="45.08761" lon="1.91471">
        <ele>359.19</ele>
        <time>2012-08-30T15:16:33Z</time>
      </trkpt>
      <trkpt lat="45.08765" lon="1.91471">
        <ele>358.71</ele>
        <time>2012-08-30T15:16:40Z</time>
      </trkpt>
      <trkpt lat="45.08769" lon="1.91471">
        <ele>358.71</ele>
        <time>2012-08-30T15:16:43Z</time>
      </trkpt>
      <trkpt lat="45.08772" lon="1.91473">
        <ele>358.71</ele>
        <time>2012-08-30T15:16:45Z</time>
      </trkpt>
      <trkpt lat="45.08774" lon="1.91476">
        <ele>358.71</ele>
        <time>2012-08-30T15:16:50Z</time>
      </trkpt>
      <trkpt lat="45.0879" lon="1.91481">
        <ele>357.75</ele>
        <time>2012-08-30T15:16:57Z</time>
      </trkpt>
      <trkpt lat="45.08795" lon="1.91482">
        <ele>358.23</ele>
        <time>2012-08-30T15:17:00Z</time>
      </trkpt>
      <trkpt lat="45.08797" lon="1.9148">
        <ele>357.75</ele>
        <time>2012-08-30T15:17:07Z</time>
      </trkpt>
      <trkpt lat="45.08799" lon="1.91482">
        <ele>356.79</ele>
        <time>2012-08-30T15:17:13Z</time>
      </trkpt>
      <trkpt lat="45.08799" lon="1.91482">
        <ele>356.31</ele>
        <time>2012-08-30T15:17:14Z</time>
      </trkpt>
      <trkpt lat="45.0881" lon="1.91487">
        <ele>354.86</ele>
        <time>2012-08-30T15:17:22Z</time>
      </trkpt>
      <trkpt lat="45.08826" lon="1.9149">
        <ele>354.38</ele>
        <time>2012-08-30T15:17:27Z</time>
      </trkpt>
      <trkpt lat="45.08848" lon="1.91491">
        <ele>354.86</ele>
        <time>2012-08-30T15:17:35Z</time>
      </trkpt>
      <trkpt lat="45.08851" lon="1.9149">
        <ele>354.86</ele>
        <time>2012-08-30T15:17:37Z</time>
      </trkpt>
      <trkpt lat="45.08855" lon="1.91486">
        <ele>353.42</ele>
        <time>2012-08-30T15:17:42Z</time>
      </trkpt>
      <trkpt lat="45.08865" lon="1.91484">
        <ele>352.94</ele>
        <time>2012-08-30T15:17:50Z</time>
      </trkpt>
      <trkpt lat="45.0887" lon="1.91491">
        <ele>351.98</ele>
        <time>2012-08-30T15:17:57Z</time>
      </trkpt>
      <trkpt lat="45.08876" lon="1.91494">
        <ele>351.98</ele>
        <time>2012-08-30T15:18:02Z</time>
      </trkpt>
      <trkpt lat="45.08881" lon="1.91496">
        <ele>351.5</ele>
        <time>2012-08-30T15:18:07Z</time>
      </trkpt>
      <trkpt lat="45.08883" lon="1.91496">
        <ele>351.5</ele>
        <time>2012-08-30T15:18:08Z</time>
      </trkpt>
      <trkpt lat="45.08891" lon="1.91495">
        <ele>351.02</ele>
        <time>2012-08-30T15:18:13Z</time>
      </trkpt>
      <trkpt lat="45.08896" lon="1.91495">
        <ele>350.06</ele>
        <time>2012-08-30T15:18:16Z</time>
      </trkpt>
      <trkpt lat="45.08903" lon="1.91496">
        <ele>350.06</ele>
        <time>2012-08-30T15:18:22Z</time>
      </trkpt>
      <trkpt lat="45.08909" lon="1.91501">
        <ele>348.62</ele>
        <time>2012-08-30T15:18:26Z</time>
      </trkpt>
      <trkpt lat="45.08915" lon="1.91501">
        <ele>348.13</ele>
        <time>2012-08-30T15:18:34Z</time>
      </trkpt>
      <trkpt lat="45.08915" lon="1.91501">
        <ele>348.13</ele>
        <time>2012-08-30T15:18:53Z</time>
      </trkpt>
      <trkpt lat="45.08915" lon="1.91501">
        <ele>348.13</ele>
        <time>2012-08-30T15:19:09Z</time>
      </trkpt>
      <trkpt lat="45.08915" lon="1.915">
        <ele>347.17</ele>
        <time>2012-08-30T15:19:18Z</time>
      </trkpt>
      <trkpt lat="45.08916" lon="1.91502">
        <ele>348.13</ele>
        <time>2012-08-30T15:19:21Z</time>
      </trkpt>
      <trkpt lat="45.08918" lon="1.91502">
        <ele>347.65</ele>
        <time>2012-08-30T15:19:23Z</time>
      </trkpt>
      <trkpt lat="45.08922" lon="1.91504">
        <ele>346.69</ele>
        <time>2012-08-30T15:19:29Z</time>
      </trkpt>
      <trkpt lat="45.08923" lon="1.91506">
        <ele>345.73</ele>
        <time>2012-08-30T15:19:36Z</time>
      </trkpt>
      <trkpt lat="45.08925" lon="1.91506">
        <ele>343.81</ele>
        <time>2012-08-30T15:19:42Z</time>
      </trkpt>
      <trkpt lat="45.08928" lon="1.91508">
        <ele>343.33</ele>
        <time>2012-08-30T15:19:48Z</time>
      </trkpt>
      <trkpt lat="45.08934" lon="1.91511">
        <ele>341.89</ele>
        <time>2012-08-30T15:19:55Z</time>
      </trkpt>
      <trkpt lat="45.08945" lon="1.91514">
        <ele>341.41</ele>
        <time>2012-08-30T15:20:01Z</time>
      </trkpt>
      <trkpt lat="45.08946" lon="1.91514">
        <ele>340.92</ele>
        <time>2012-08-30T15:20:02Z</time>
      </trkpt>
      <trkpt lat="45.08961" lon="1.9152">
        <ele>340.92</ele>
        <time>2012-08-30T15:20:05Z</time>
      </trkpt>
      <trkpt lat="45.08972" lon="1.9152">
        <ele>340.92</ele>
        <time>2012-08-30T15:20:10Z</time>
      </trkpt>
      <trkpt lat="45.08973" lon="1.91514">
        <ele>340.44</ele>
        <time>2012-08-30T15:20:15Z</time>
      </trkpt>
      <trkpt lat="45.08973" lon="1.91503">
        <ele>340.44</ele>
        <time>2012-08-30T15:20:18Z</time>
      </trkpt>
      <trkpt lat="45.08973" lon="1.91496">
        <ele>339.96</ele>
        <time>2012-08-30T15:20:21Z</time>
      </trkpt>
      <trkpt lat="45.08971" lon="1.91483">
        <ele>338.04</ele>
        <time>2012-08-30T15:20:26Z</time>
      </trkpt>
      <trkpt lat="45.0897" lon="1.9148">
        <ele>338.04</ele>
        <time>2012-08-30T15:20:27Z</time>
      </trkpt>
      <trkpt lat="45.08966" lon="1.91466">
        <ele>337.08</ele>
        <time>2012-08-30T15:20:33Z</time>
      </trkpt>
      <trkpt lat="45.08966" lon="1.91463">
        <ele>335.64</ele>
        <time>2012-08-30T15:20:41Z</time>
      </trkpt>
      <trkpt lat="45.08965" lon="1.91457">
        <ele>333.23</ele>
        <time>2012-08-30T15:20:48Z</time>
      </trkpt>
      <trkpt lat="45.0896" lon="1.91449">
        <ele>332.27</ele>
        <time>2012-08-30T15:20:54Z</time>
      </trkpt>
      <trkpt lat="45.08956" lon="1.91443">
        <ele>331.79</ele>
        <time>2012-08-30T15:20:57Z</time>
      </trkpt>
      <trkpt lat="45.08945" lon="1.91433">
        <ele>330.35</ele>
        <time>2012-08-30T15:21:02Z</time>
      </trkpt>
      <trkpt lat="45.08937" lon="1.91423">
        <ele>329.39</ele>
        <time>2012-08-30T15:21:08Z</time>
      </trkpt>
      <trkpt lat="45.08931" lon="1.91411">
        <ele>327.47</ele>
        <time>2012-08-30T15:21:16Z</time>
      </trkpt>
      <trkpt lat="45.08929" lon="1.91407">
        <ele>325.54</ele>
        <time>2012-08-30T15:21:22Z</time>
      </trkpt>
      <trkpt lat="45.08926" lon="1.91404">
        <ele>324.1</ele>
        <time>2012-08-30T15:21:28Z</time>
      </trkpt>
      <trkpt lat="45.08917" lon="1.91392">
        <ele>322.66</ele>
        <time>2012-08-30T15:21:34Z</time>
      </trkpt>
      <trkpt lat="45.08906" lon="1.91381">
        <ele>321.22</ele>
        <time>2012-08-30T15:21:40Z</time>
      </trkpt>
      <trkpt lat="45.08895" lon="1.91372">
        <ele>320.26</ele>
        <time>2012-08-30T15:21:46Z</time>
      </trkpt>
      <trkpt lat="45.08881" lon="1.91363">
        <ele>318.81</ele>
        <time>2012-08-30T15:21:53Z</time>
      </trkpt>
      <trkpt lat="45.08875" lon="1.91362">
        <ele>318.33</ele>
        <time>2012-08-30T15:21:58Z</time>
      </trkpt>
      <trkpt lat="45.08872" lon="1.91357">
        <ele>317.85</ele>
        <time>2012-08-30T15:22:04Z</time>
      </trkpt>
      <trkpt lat="45.08867" lon="1.91358">
        <ele>318.81</ele>
        <time>2012-08-30T15:22:09Z</time>
      </trkpt>
      <trkpt lat="45.08865" lon="1.9136">
        <ele>319.78</ele>
        <time>2012-08-30T15:22:15Z</time>
      </trkpt>
      <trkpt lat="45.08861" lon="1.9136">
        <ele>320.74</ele>
        <time>2012-08-30T15:22:22Z</time>
      </trkpt>
      <trkpt lat="45.08856" lon="1.9136">
        <ele>320.26</ele>
        <time>2012-08-30T15:22:26Z</time>
      </trkpt>
      <trkpt lat="45.08852" lon="1.91356">
        <ele>318.81</ele>
        <time>2012-08-30T15:22:33Z</time>
      </trkpt>
      <trkpt lat="45.08849" lon="1.91353">
        <ele>316.89</ele>
        <time>2012-08-30T15:22:39Z</time>
      </trkpt>
      <trkpt lat="45.08838" lon="1.91341">
        <ele>314.97</ele>
        <time>2012-08-30T15:22:45Z</time>
      </trkpt>
      <trkpt lat="45.0883" lon="1.91335">
        <ele>314.49</ele>
        <time>2012-08-30T15:22:50Z</time>
      </trkpt>
      <trkpt lat="45.08821" lon="1.91328">
        <ele>312.57</ele>
        <time>2012-08-30T15:22:57Z</time>
      </trkpt>
      <trkpt lat="45.08817" lon="1.91328">
        <ele>311.6</ele>
        <time>2012-08-30T15:23:03Z</time>
      </trkpt>
      <trkpt lat="45.08814" lon="1.91326">
        <ele>310.64</ele>
        <time>2012-08-30T15:23:07Z</time>
      </trkpt>
      <trkpt lat="45.08807" lon="1.91325">
        <ele>310.64</ele>
        <time>2012-08-30T15:23:13Z</time>
      </trkpt>
      <trkpt lat="45.08803" lon="1.91324">
        <ele>309.2</ele>
        <time>2012-08-30T15:23:18Z</time>
      </trkpt>
      <trkpt lat="45.08793" lon="1.91319">
        <ele>307.28</ele>
        <time>2012-08-30T15:23:25Z</time>
      </trkpt>
      <trkpt lat="45.08793" lon="1.91319">
        <ele>306.32</ele>
        <time>2012-08-30T15:23:26Z</time>
      </trkpt>
      <trkpt lat="45.08797" lon="1.91318">
        <ele>304.88</ele>
        <time>2012-08-30T15:23:33Z</time>
      </trkpt>
      <trkpt lat="45.08802" lon="1.91319">
        <ele>304.88</ele>
        <time>2012-08-30T15:23:38Z</time>
      </trkpt>
      <trkpt lat="45.08808" lon="1.91315">
        <ele>302.95</ele>
        <time>2012-08-30T15:23:43Z</time>
      </trkpt>
      <trkpt lat="45.08812" lon="1.91311">
        <ele>301.51</ele>
        <time>2012-08-30T15:23:48Z</time>
      </trkpt>
      <trkpt lat="45.08817" lon="1.91309">
        <ele>300.07</ele>
        <time>2012-08-30T15:23:55Z</time>
      </trkpt>
      <trkpt lat="45.08821" lon="1.91303">
        <ele>295.74</ele>
        <time>2012-08-30T15:24:02Z</time>
      </trkpt>
      <trkpt lat="45.08822" lon="1.91302">
        <ele>299.59</ele>
        <time>2012-08-30T15:24:03Z</time>
      </trkpt>
      <trkpt lat="45.08822" lon="1.91302">
        <ele>295.74</ele>
        <time>2012-08-30T15:24:04Z</time>
      </trkpt>
      <trkpt lat="45.08822" lon="1.91301">
        <ele>298.63</ele>
        <time>2012-08-30T15:24:05Z</time>
      </trkpt>
      <trkpt lat="45.08822" lon="1.91301">
        <ele>295.74</ele>
        <time>2012-08-30T15:24:13Z</time>
      </trkpt>
      <trkpt lat="45.08822" lon="1.91301">
        <ele>298.63</ele>
        <time>2012-08-30T15:24:14Z</time>
      </trkpt>
      <trkpt lat="45.08822" lon="1.91301">
        <ele>300.55</ele>
        <time>2012-08-30T15:24:15Z</time>
      </trkpt>
      <trkpt lat="45.08822" lon="1.91301">
        <ele>299.59</ele>
        <time>2012-08-30T15:24:16Z</time>
      </trkpt>
      <trkpt lat="45.08822" lon="1.91301">
        <ele>296.22</ele>
        <time>2012-08-30T15:24:18Z</time>
      </trkpt>
      <trkpt lat="45.08822" lon="1.91301">
        <ele>297.18</ele>
        <time>2012-08-30T15:24:26Z</time>
      </trkpt>
      <trkpt lat="45.0883" lon="1.91294">
        <ele>296.22</ele>
        <time>2012-08-30T15:24:31Z</time>
      </trkpt>
      <trkpt lat="45.0883" lon="1.91292">
        <ele>295.74</ele>
        <time>2012-08-30T15:24:32Z</time>
      </trkpt>
      <trkpt lat="45.08832" lon="1.91286">
        <ele>294.3</ele>
        <time>2012-08-30T15:24:37Z</time>
      </trkpt>
      <trkpt lat="45.08833" lon="1.91285">
        <ele>294.3</ele>
        <time>2012-08-30T15:24:38Z</time>
      </trkpt>
      <trkpt lat="45.08841" lon="1.91271">
        <ele>291.9</ele>
        <time>2012-08-30T15:24:45Z</time>
      </trkpt>
      <trkpt lat="45.08851" lon="1.91263">
        <ele>289.97</ele>
        <time>2012-08-30T15:24:52Z</time>
      </trkpt>
      <trkpt lat="45.08855" lon="1.91262">
        <ele>288.53</ele>
        <time>2012-08-30T15:24:57Z</time>
      </trkpt>
      <trkpt lat="45.08857" lon="1.91262">
        <ele>288.05</ele>
        <time>2012-08-30T15:24:59Z</time>
      </trkpt>
      <trkpt lat="45.08869" lon="1.91255">
        <ele>286.61</ele>
        <time>2012-08-30T15:25:04Z</time>
      </trkpt>
      <trkpt lat="45.08872" lon="1.91251">
        <ele>286.13</ele>
        <time>2012-08-30T15:25:07Z</time>
      </trkpt>
      <trkpt lat="45.0887" lon="1.91243">
        <ele>284.69</ele>
        <time>2012-08-30T15:25:12Z</time>
      </trkpt>
      <trkpt lat="45.08871" lon="1.91242">
        <ele>283.73</ele>
        <time>2012-08-30T15:25:15Z</time>
      </trkpt>
      <trkpt lat="45.08876" lon="1.91234">
        <ele>281.8</ele>
        <time>2012-08-30T15:25:21Z</time>
      </trkpt>
      <trkpt lat="45.08878" lon="1.91224">
        <ele>282.28</ele>
        <time>2012-08-30T15:25:24Z</time>
      </trkpt>
      <trkpt lat="45.08881" lon="1.91215">
        <ele>279.88</ele>
        <time>2012-08-30T15:25:30Z</time>
      </trkpt>
      <trkpt lat="45.08876" lon="1.91203">
        <ele>277.96</ele>
        <time>2012-08-30T15:25:36Z</time>
      </trkpt>
      <trkpt lat="45.08873" lon="1.91197">
        <ele>277</ele>
        <time>2012-08-30T15:25:41Z</time>
      </trkpt>
      <trkpt lat="45.08872" lon="1.91195">
        <ele>276.52</ele>
        <time>2012-08-30T15:25:43Z</time>
      </trkpt>
      <trkpt lat="45.08867" lon="1.9119">
        <ele>274.11</ele>
        <time>2012-08-30T15:25:51Z</time>
      </trkpt>
      <trkpt lat="45.08864" lon="1.91189">
        <ele>273.15</ele>
        <time>2012-08-30T15:25:57Z</time>
      </trkpt>
      <trkpt lat="45.08859" lon="1.91189">
        <ele>271.71</ele>
        <time>2012-08-30T15:25:59Z</time>
      </trkpt>
      <trkpt lat="45.08852" lon="1.91193">
        <ele>270.75</ele>
        <time>2012-08-30T15:26:05Z</time>
      </trkpt>
      <trkpt lat="45.08851" lon="1.91195">
        <ele>269.79</ele>
        <time>2012-08-30T15:26:08Z</time>
      </trkpt>
      <trkpt lat="45.08846" lon="1.91201">
        <ele>268.35</ele>
        <time>2012-08-30T15:26:14Z</time>
      </trkpt>
      <trkpt lat="45.08842" lon="1.91202">
        <ele>267.38</ele>
        <time>2012-08-30T15:26:19Z</time>
      </trkpt>
      <trkpt lat="45.08841" lon="1.91201">
        <ele>266.9</ele>
        <time>2012-08-30T15:26:20Z</time>
      </trkpt>
      <trkpt lat="45.08843" lon="1.91193">
        <ele>266.9</ele>
        <time>2012-08-30T15:26:25Z</time>
      </trkpt>
      <trkpt lat="45.08845" lon="1.91188">
        <ele>265.94</ele>
        <time>2012-08-30T15:26:29Z</time>
      </trkpt>
      <trkpt lat="45.08835" lon="1.91186">
        <ele>265.46</ele>
        <time>2012-08-30T15:26:36Z</time>
      </trkpt>
      <trkpt lat="45.08828" lon="1.91184">
        <ele>263.54</ele>
        <time>2012-08-30T15:26:42Z</time>
      </trkpt>
      <trkpt lat="45.08828" lon="1.91187">
        <ele>262.1</ele>
        <time>2012-08-30T15:26:49Z</time>
      </trkpt>
      <trkpt lat="45.08827" lon="1.91187">
        <ele>260.65</ele>
        <time>2012-08-30T15:26:55Z</time>
      </trkpt>
      <trkpt lat="45.08824" lon="1.91187">
        <ele>259.69</ele>
        <time>2012-08-30T15:26:59Z</time>
      </trkpt>
      <trkpt lat="45.08817" lon="1.91182">
        <ele>258.73</ele>
        <time>2012-08-30T15:27:03Z</time>
      </trkpt>
      <trkpt lat="45.0881" lon="1.91182">
        <ele>257.77</ele>
        <time>2012-08-30T15:27:06Z</time>
      </trkpt>
      <trkpt lat="45.08799" lon="1.91177">
        <ele>257.29</ele>
        <time>2012-08-30T15:27:13Z</time>
      </trkpt>
      <trkpt lat="45.08799" lon="1.91176">
        <ele>256.33</ele>
        <time>2012-08-30T15:27:14Z</time>
      </trkpt>
      <trkpt lat="45.08794" lon="1.91171">
        <ele>256.33</ele>
        <time>2012-08-30T15:27:18Z</time>
      </trkpt>
      <trkpt lat="45.08786" lon="1.91161">
        <ele>254.89</ele>
        <time>2012-08-30T15:27:24Z</time>
      </trkpt>
      <trkpt lat="45.08782" lon="1.91148">
        <ele>253.93</ele>
        <time>2012-08-30T15:27:30Z</time>
      </trkpt>
      <trkpt lat="45.08781" lon="1.91131">
        <ele>252.96</ele>
        <time>2012-08-30T15:27:37Z</time>
      </trkpt>
      <trkpt lat="45.08778" lon="1.91116">
        <ele>252.48</ele>
        <time>2012-08-30T15:27:43Z</time>
      </trkpt>
      <trkpt lat="45.08775" lon="1.91106">
        <ele>251.52</ele>
        <time>2012-08-30T15:27:50Z</time>
      </trkpt>
      <trkpt lat="45.08769" lon="1.91099">
        <ele>250.08</ele>
        <time>2012-08-30T15:27:58Z</time>
      </trkpt>
      <trkpt lat="45.08766" lon="1.91095">
        <ele>249.6</ele>
        <time>2012-08-30T15:28:05Z</time>
      </trkpt>
      <trkpt lat="45.08764" lon="1.9109">
        <ele>248.64</ele>
        <time>2012-08-30T15:28:12Z</time>
      </trkpt>
      <trkpt lat="45.08762" lon="1.91081">
        <ele>248.64</ele>
        <time>2012-08-30T15:28:17Z</time>
      </trkpt>
      <trkpt lat="45.08759" lon="1.9107">
        <ele>247.68</ele>
        <time>2012-08-30T15:28:23Z</time>
      </trkpt>
      <trkpt lat="45.08756" lon="1.91061">
        <ele>246.72</ele>
        <time>2012-08-30T15:28:30Z</time>
      </trkpt>
      <trkpt lat="45.08751" lon="1.91049">
        <ele>245.75</ele>
        <time>2012-08-30T15:28:37Z</time>
      </trkpt>
      <trkpt lat="45.08746" lon="1.91038">
        <ele>243.35</ele>
        <time>2012-08-30T15:28:44Z</time>
      </trkpt>
      <trkpt lat="45.08743" lon="1.91034">
        <ele>242.87</ele>
        <time>2012-08-30T15:28:46Z</time>
      </trkpt>
      <trkpt lat="45.08736" lon="1.91015">
        <ele>241.91</ele>
        <time>2012-08-30T15:28:52Z</time>
      </trkpt>
      <trkpt lat="45.08726" lon="1.90995">
        <ele>239.99</ele>
        <time>2012-08-30T15:29:00Z</time>
      </trkpt>
      <trkpt lat="45.08721" lon="1.90983">
        <ele>239.02</ele>
        <time>2012-08-30T15:29:06Z</time>
      </trkpt>
      <trkpt lat="45.08718" lon="1.90978">
        <ele>238.06</ele>
        <time>2012-08-30T15:29:11Z</time>
      </trkpt>
      <trkpt lat="45.08717" lon="1.90973">
        <ele>237.58</ele>
        <time>2012-08-30T15:29:18Z</time>
      </trkpt>
      <trkpt lat="45.08714" lon="1.90967">
        <ele>235.66</ele>
        <time>2012-08-30T15:29:24Z</time>
      </trkpt>
      <trkpt lat="45.0871" lon="1.90959">
        <ele>234.22</ele>
        <time>2012-08-30T15:29:32Z</time>
      </trkpt>
      <trkpt lat="45.08709" lon="1.90957">
        <ele>234.22</ele>
        <time>2012-08-30T15:29:33Z</time>
      </trkpt>
      <trkpt lat="45.08701" lon="1.90938">
        <ele>232.78</ele>
        <time>2012-08-30T15:29:41Z</time>
      </trkpt>
      <trkpt lat="45.08699" lon="1.90934">
        <ele>233.26</ele>
        <time>2012-08-30T15:29:43Z</time>
      </trkpt>
      <trkpt lat="45.0869" lon="1.90914">
        <ele>230.37</ele>
        <time>2012-08-30T15:29:52Z</time>
      </trkpt>
      <trkpt lat="45.08683" lon="1.90903">
        <ele>229.41</ele>
        <time>2012-08-30T15:29:59Z</time>
      </trkpt>
      <trkpt lat="45.08679" lon="1.90894">
        <ele>227.01</ele>
        <time>2012-08-30T15:30:07Z</time>
      </trkpt>
      <trkpt lat="45.08678" lon="1.90893">
        <ele>227.01</ele>
        <time>2012-08-30T15:30:08Z</time>
      </trkpt>
      <trkpt lat="45.08671" lon="1.90886">
        <ele>226.53</ele>
        <time>2012-08-30T15:30:15Z</time>
      </trkpt>
      <trkpt lat="45.08661" lon="1.90877">
        <ele>225.09</ele>
        <time>2012-08-30T15:30:21Z</time>
      </trkpt>
      <trkpt lat="45.08653" lon="1.9087">
        <ele>223.16</ele>
        <time>2012-08-30T15:30:28Z</time>
      </trkpt>
      <trkpt lat="45.08645" lon="1.90862">
        <ele>222.68</ele>
        <time>2012-08-30T15:30:33Z</time>
      </trkpt>
      <trkpt lat="45.08635" lon="1.90852">
        <ele>221.72</ele>
        <time>2012-08-30T15:30:40Z</time>
      </trkpt>
      <trkpt lat="45.08628" lon="1.90849">
        <ele>219.8</ele>
        <time>2012-08-30T15:30:46Z</time>
      </trkpt>
      <trkpt lat="45.08625" lon="1.90848">
        <ele>218.84</ele>
        <time>2012-08-30T15:30:48Z</time>
      </trkpt>
      <trkpt lat="45.08617" lon="1.90843">
        <ele>217.88</ele>
        <time>2012-08-30T15:30:55Z</time>
      </trkpt>
      <trkpt lat="45.08615" lon="1.90843">
        <ele>215.95</ele>
        <time>2012-08-30T15:31:02Z</time>
      </trkpt>
      <trkpt lat="45.08609" lon="1.90844">
        <ele>214.03</ele>
        <time>2012-08-30T15:31:10Z</time>
      </trkpt>
      <trkpt lat="45.08605" lon="1.90843">
        <ele>212.59</ele>
        <time>2012-08-30T15:31:15Z</time>
      </trkpt>
      <trkpt lat="45.08598" lon="1.90842">
        <ele>212.11</ele>
        <time>2012-08-30T15:31:21Z</time>
      </trkpt>
      <trkpt lat="45.08598" lon="1.90842">
        <ele>211.63</ele>
        <time>2012-08-30T15:31:23Z</time>
      </trkpt>
      <trkpt lat="45.08591" lon="1.9084">
        <ele>210.19</ele>
        <time>2012-08-30T15:31:28Z</time>
      </trkpt>
      <trkpt lat="45.08585" lon="1.90839">
        <ele>209.22</ele>
        <time>2012-08-30T15:31:30Z</time>
      </trkpt>
      <trkpt lat="45.08574" lon="1.90833">
        <ele>208.74</ele>
        <time>2012-08-30T15:31:36Z</time>
      </trkpt>
      <trkpt lat="45.08572" lon="1.90835">
        <ele>208.26</ele>
        <time>2012-08-30T15:31:41Z</time>
      </trkpt>
      <trkpt lat="45.08569" lon="1.90837">
        <ele>207.3</ele>
        <time>2012-08-30T15:31:47Z</time>
      </trkpt>
      <trkpt lat="45.08566" lon="1.90835">
        <ele>207.78</ele>
        <time>2012-08-30T15:31:52Z</time>
      </trkpt>
      <trkpt lat="45.08561" lon="1.90834">
        <ele>206.82</ele>
        <time>2012-08-30T15:31:59Z</time>
      </trkpt>
      <trkpt lat="45.08546" lon="1.90831">
        <ele>205.38</ele>
        <time>2012-08-30T15:32:05Z</time>
      </trkpt>
      <trkpt lat="45.08536" lon="1.90825">
        <ele>204.9</ele>
        <time>2012-08-30T15:32:12Z</time>
      </trkpt>
      <trkpt lat="45.08527" lon="1.9082">
        <ele>204.42</ele>
        <time>2012-08-30T15:32:20Z</time>
      </trkpt>
      <trkpt lat="45.08516" lon="1.90813">
        <ele>203.94</ele>
        <time>2012-08-30T15:32:28Z</time>
      </trkpt>
      <trkpt lat="45.08504" lon="1.90807">
        <ele>203.94</ele>
        <time>2012-08-30T15:32:33Z</time>
      </trkpt>
      <trkpt lat="45.08495" lon="1.90799">
        <ele>202.98</ele>
        <time>2012-08-30T15:32:37Z</time>
      </trkpt>
      <trkpt lat="45.08488" lon="1.90791">
        <ele>202.98</ele>
        <time>2012-08-30T15:32:43Z</time>
      </trkpt>
      <trkpt lat="45.08477" lon="1.90778">
        <ele>202.49</ele>
        <time>2012-08-30T15:32:49Z</time>
      </trkpt>
      <trkpt lat="45.0847" lon="1.90767">
        <ele>202.49</ele>
        <time>2012-08-30T15:32:55Z</time>
      </trkpt>
      <trkpt lat="45.0847" lon="1.90768">
        <ele>202.49</ele>
        <time>2012-08-30T15:33:01Z</time>
      </trkpt>
      <trkpt lat="45.0847" lon="1.90768">
        <ele>201.53</ele>
        <time>2012-08-30T15:33:04Z</time>
      </trkpt>
      <trkpt lat="45.08469" lon="1.90769">
        <ele>201.53</ele>
        <time>2012-08-30T15:33:08Z</time>
      </trkpt>
      <trkpt lat="45.08466" lon="1.90767">
        <ele>201.53</ele>
        <time>2012-08-30T15:33:11Z</time>
      </trkpt>
      <trkpt lat="45.08457" lon="1.9076">
        <ele>201.53</ele>
        <time>2012-08-30T15:33:17Z</time>
      </trkpt>
      <trkpt lat="45.0845" lon="1.90749">
        <ele>201.05</ele>
        <time>2012-08-30T15:33:25Z</time>
      </trkpt>
      <trkpt lat="45.08445" lon="1.90739">
        <ele>202.01</ele>
        <time>2012-08-30T15:33:31Z</time>
      </trkpt>
      <trkpt lat="45.08437" lon="1.90727">
        <ele>200.57</ele>
        <time>2012-08-30T15:33:39Z</time>
      </trkpt>
      <trkpt lat="45.0843" lon="1.90717">
        <ele>201.05</ele>
        <time>2012-08-30T15:33:45Z</time>
      </trkpt>
      <trkpt lat="45.08423" lon="1.90715">
        <ele>201.05</ele>
        <time>2012-08-30T15:33:52Z</time>
      </trkpt>
      <trkpt lat="45.08422" lon="1.90715">
        <ele>201.05</ele>
        <time>2012-08-30T15:33:53Z</time>
      </trkpt>
      <trkpt lat="45.08418" lon="1.90712">
        <ele>200.09</ele>
        <time>2012-08-30T15:33:57Z</time>
      </trkpt>
      <trkpt lat="45.0841" lon="1.90702">
        <ele>201.05</ele>
        <time>2012-08-30T15:34:04Z</time>
      </trkpt>
      <trkpt lat="45.08406" lon="1.90692">
        <ele>200.57</ele>
        <time>2012-08-30T15:34:09Z</time>
      </trkpt>
      <trkpt lat="45.08404" lon="1.90681">
        <ele>199.61</ele>
        <time>2012-08-30T15:34:15Z</time>
      </trkpt>
      <trkpt lat="45.08402" lon="1.90674">
        <ele>199.61</ele>
        <time>2012-08-30T15:34:21Z</time>
      </trkpt>
      <trkpt lat="45.08401" lon="1.90673">
        <ele>200.09</ele>
        <time>2012-08-30T15:34:22Z</time>
      </trkpt>
      <trkpt lat="45.08398" lon="1.90667">
        <ele>200.09</ele>
        <time>2012-08-30T15:34:27Z</time>
      </trkpt>
      <trkpt lat="45.08395" lon="1.9066">
        <ele>199.61</ele>
        <time>2012-08-30T15:34:33Z</time>
      </trkpt>
      <trkpt lat="45.0839" lon="1.90654">
        <ele>199.13</ele>
        <time>2012-08-30T15:34:39Z</time>
      </trkpt>
      <trkpt lat="45.08386" lon="1.90649">
        <ele>199.61</ele>
        <time>2012-08-30T15:34:43Z</time>
      </trkpt>
      <trkpt lat="45.08382" lon="1.90644">
        <ele>199.61</ele>
        <time>2012-08-30T15:34:49Z</time>
      </trkpt>
      <trkpt lat="45.08381" lon="1.90642">
        <ele>199.13</ele>
        <time>2012-08-30T15:34:50Z</time>
      </trkpt>
      <trkpt lat="45.08366" lon="1.90631">
        <ele>199.13</ele>
        <time>2012-08-30T15:34:56Z</time>
      </trkpt>
      <trkpt lat="45.08359" lon="1.90622">
        <ele>199.13</ele>
        <time>2012-08-30T15:35:00Z</time>
      </trkpt>
      <trkpt lat="45.08359" lon="1.90621">
        <ele>199.13</ele>
        <time>2012-08-30T15:35:13Z</time>
      </trkpt>
      <trkpt lat="45.08357" lon="1.90619">
        <ele>199.13</ele>
        <time>2012-08-30T15:35:22Z</time>
      </trkpt>
      <trkpt lat="45.08356" lon="1.90618">
        <ele>200.57</ele>
        <time>2012-08-30T15:35:29Z</time>
      </trkpt>
      <trkpt lat="45.0835" lon="1.90616">
        <ele>200.09</ele>
        <time>2012-08-30T15:35:38Z</time>
      </trkpt>
      <trkpt lat="45.08333" lon="1.90619">
        <ele>199.13</ele>
        <time>2012-08-30T15:35:44Z</time>
      </trkpt>
      <trkpt lat="45.0832" lon="1.90615">
        <ele>199.13</ele>
        <time>2012-08-30T15:35:48Z</time>
      </trkpt>
      <trkpt lat="45.08315" lon="1.90613">
        <ele>198.17</ele>
        <time>2012-08-30T15:35:49Z</time>
      </trkpt>
      <trkpt lat="45.0831" lon="1.90611">
        <ele>198.17</ele>
        <time>2012-08-30T15:35:50Z</time>
      </trkpt>
      <trkpt lat="45.08275" lon="1.90599">
        <ele>196.25</ele>
        <time>2012-08-30T15:35:58Z</time>
      </trkpt>
      <trkpt lat="45.0826" lon="1.90595">
        <ele>197.69</ele>
        <time>2012-08-30T15:36:04Z</time>
      </trkpt>
      <trkpt lat="45.08259" lon="1.90591">
        <ele>197.21</ele>
        <time>2012-08-30T15:36:05Z</time>
      </trkpt>
      <trkpt lat="45.08259" lon="1.90586">
        <ele>197.21</ele>
        <time>2012-08-30T15:36:06Z</time>
      </trkpt>
      <trkpt lat="45.08266" lon="1.90546">
        <ele>200.09</ele>
        <time>2012-08-30T15:36:10Z</time>
      </trkpt>
      <trkpt lat="45.0828" lon="1.9046">
        <ele>202.98</ele>
        <time>2012-08-30T15:36:16Z</time>
      </trkpt>
      <trkpt lat="45.08286" lon="1.90426">
        <ele>204.42</ele>
        <time>2012-08-30T15:36:18Z</time>
      </trkpt>
      <trkpt lat="45.08299" lon="1.90336">
        <ele>204.42</ele>
        <time>2012-08-30T15:36:24Z</time>
      </trkpt>
      <trkpt lat="45.083" lon="1.90294">
        <ele>203.94</ele>
        <time>2012-08-30T15:36:28Z</time>
      </trkpt>
      <trkpt lat="45.08296" lon="1.90268">
        <ele>203.94</ele>
        <time>2012-08-30T15:36:32Z</time>
      </trkpt>
      <trkpt lat="45.08293" lon="1.90264">
        <ele>204.42</ele>
        <time>2012-08-30T15:36:33Z</time>
      </trkpt>
      <trkpt lat="45.08289" lon="1.9026">
        <ele>204.42</ele>
        <time>2012-08-30T15:36:34Z</time>
      </trkpt>
      <trkpt lat="45.08215" lon="1.90298">
        <ele>199.1</ele>
        <time>2012-09-20T08:13:32Z</time>
      </trkpt>
      <trkpt lat="45.08215" lon="1.90298">
        <ele>199.1</ele>
        <time>2012-09-20T08:13:32Z</time>
      </trkpt>
      <trkpt lat="45.08217" lon="1.90295">
        <ele>199.1</ele>
        <time>2012-09-20T08:13:34Z</time>
      </trkpt>
      <trkpt lat="45.08228" lon="1.90279">
        <ele>198.6</ele>
        <time>2012-09-20T08:13:40Z</time>
      </trkpt>
      <trkpt lat="45.08235" lon="1.90276">
        <ele>196.7</ele>
        <time>2012-09-20T08:13:46Z</time>
      </trkpt>
      <trkpt lat="45.08235" lon="1.90276">
        <ele>196.2</ele>
        <time>2012-09-20T08:13:52Z</time>
      </trkpt>
      <trkpt lat="45.08236" lon="1.90275">
        <ele>196.2</ele>
        <time>2012-09-20T08:14:01Z</time>
      </trkpt>
      <trkpt lat="45.08238" lon="1.90275">
        <ele>196.7</ele>
        <time>2012-09-20T08:14:20Z</time>
      </trkpt>
      <trkpt lat="45.08237" lon="1.90274">
        <ele>196.7</ele>
        <time>2012-09-20T08:14:40Z</time>
      </trkpt>
      <trkpt lat="45.08238" lon="1.90274">
        <ele>197.7</ele>
        <time>2012-09-20T08:15:02Z</time>
      </trkpt>
      <trkpt lat="45.08238" lon="1.90274">
        <ele>196.7</ele>
        <time>2012-09-20T08:15:22Z</time>
      </trkpt>
      <trkpt lat="45.08238" lon="1.90274">
        <ele>197.7</ele>
        <time>2012-09-20T08:15:44Z</time>
      </trkpt>
      <trkpt lat="45.08237" lon="1.90274">
        <ele>197.7</ele>
        <time>2012-09-20T08:16:06Z</time>
      </trkpt>
      <trkpt lat="45.08237" lon="1.90274">
        <ele>197.2</ele>
        <time>2012-09-20T08:16:27Z</time>
      </trkpt>
      <trkpt lat="45.08237" lon="1.90274">
        <ele>197.7</ele>
        <time>2012-09-20T08:16:45Z</time>
      </trkpt>
      <trkpt lat="45.08238" lon="1.90274">
        <ele>197.7</ele>
        <time>2012-09-20T08:17:08Z</time>
      </trkpt>
      <trkpt lat="45.08238" lon="1.90274">
        <ele>197.7</ele>
        <time>2012-09-20T08:17:26Z</time>
      </trkpt>
      <trkpt lat="45.08238" lon="1.90274">
        <ele>198.2</ele>
        <time>2012-09-20T08:17:46Z</time>
      </trkpt>
      <trkpt lat="45.08238" lon="1.90274">
        <ele>198.2</ele>
        <time>2012-09-20T08:18:03Z</time>
      </trkpt>
      <trkpt lat="45.08238" lon="1.90274">
        <ele>198.6</ele>
        <time>2012-09-20T08:18:21Z</time>
      </trkpt>
      <trkpt lat="45.08238" lon="1.90274">
        <ele>198.2</ele>
        <time>2012-09-20T08:18:38Z</time>
      </trkpt>
      <trkpt lat="45.08238" lon="1.90274">
        <ele>199.1</ele>
        <time>2012-09-20T08:18:56Z</time>
      </trkpt>
      <trkpt lat="45.08238" lon="1.90274">
        <ele>197.7</ele>
        <time>2012-09-20T08:19:10Z</time>
      </trkpt>
      <trkpt lat="45.08238" lon="1.90274">
        <ele>199.1</ele>
        <time>2012-09-20T08:19:13Z</time>
      </trkpt>
      <trkpt lat="45.0824" lon="1.90273">
        <ele>198.6</ele>
        <time>2012-09-20T08:19:22Z</time>
      </trkpt>
      <trkpt lat="45.08247" lon="1.90277">
        <ele>195.3</ele>
        <time>2012-09-20T08:19:27Z</time>
      </trkpt>
      <trkpt lat="45.08249" lon="1.90276">
        <ele>196.7</ele>
        <time>2012-09-20T08:19:28Z</time>
      </trkpt>
      <trkpt lat="45.08257" lon="1.90267">
        <ele>196.2</ele>
        <time>2012-09-20T08:19:31Z</time>
      </trkpt>
      <trkpt lat="45.08263" lon="1.90256">
        <ele>195.3</ele>
        <time>2012-09-20T08:19:34Z</time>
      </trkpt>
      <trkpt lat="45.08272" lon="1.90255">
        <ele>194.3</ele>
        <time>2012-09-20T08:19:37Z</time>
      </trkpt>
      <trkpt lat="45.08286" lon="1.90267">
        <ele>191</ele>
        <time>2012-09-20T08:19:41Z</time>
      </trkpt>
      <trkpt lat="45.08289" lon="1.90269">
        <ele>194.8</ele>
        <time>2012-09-20T08:19:42Z</time>
      </trkpt>
      <trkpt lat="45.08296" lon="1.90284">
        <ele>184.7</ele>
        <time>2012-09-20T08:19:46Z</time>
      </trkpt>
      <trkpt lat="45.08296" lon="1.9029">
        <ele>194.3</ele>
        <time>2012-09-20T08:19:47Z</time>
      </trkpt>
      <trkpt lat="45.08296" lon="1.90337">
        <ele>190.5</ele>
        <time>2012-09-20T08:19:52Z</time>
      </trkpt>
      <trkpt lat="45.08295" lon="1.90348">
        <ele>190.5</ele>
        <time>2012-09-20T08:19:53Z</time>
      </trkpt>
      <trkpt lat="45.08285" lon="1.90424">
        <ele>189</ele>
        <time>2012-09-20T08:19:59Z</time>
      </trkpt>
      <trkpt lat="45.08268" lon="1.90526">
        <ele>187.6</ele>
        <time>2012-09-20T08:20:06Z</time>
      </trkpt>
      <trkpt lat="45.08254" lon="1.90624">
        <ele>185.7</ele>
        <time>2012-09-20T08:20:13Z</time>
      </trkpt>
      <trkpt lat="45.08239" lon="1.9071">
        <ele>184.2</ele>
        <time>2012-09-20T08:20:20Z</time>
      </trkpt>
      <trkpt lat="45.08235" lon="1.90733">
        <ele>184.7</ele>
        <time>2012-09-20T08:20:22Z</time>
      </trkpt>
      <trkpt lat="45.08222" lon="1.90773">
        <ele>183.8</ele>
        <time>2012-09-20T08:20:26Z</time>
      </trkpt>
      <trkpt lat="45.08218" lon="1.90778">
        <ele>183.8</ele>
        <time>2012-09-20T08:20:27Z</time>
      </trkpt>
      <trkpt lat="45.08214" lon="1.90781">
        <ele>183.8</ele>
        <time>2012-09-20T08:20:28Z</time>
      </trkpt>
      <trkpt lat="45.0821" lon="1.90783">
        <ele>184.2</ele>
        <time>2012-09-20T08:20:29Z</time>
      </trkpt>
      <trkpt lat="45.08203" lon="1.90786">
        <ele>183.8</ele>
        <time>2012-09-20T08:20:30Z</time>
      </trkpt>
      <trkpt lat="45.08196" lon="1.90791">
        <ele>184.2</ele>
        <time>2012-09-20T08:20:31Z</time>
      </trkpt>
      <trkpt lat="45.08134" lon="1.90836">
        <ele>183.3</ele>
        <time>2012-09-20T08:20:39Z</time>
      </trkpt>
      <trkpt lat="45.08071" lon="1.909">
        <ele>182.8</ele>
        <time>2012-09-20T08:20:46Z</time>
      </trkpt>
      <trkpt lat="45.08026" lon="1.90943">
        <ele>181.4</ele>
        <time>2012-09-20T08:20:51Z</time>
      </trkpt>
      <trkpt lat="45.08016" lon="1.90948">
        <ele>180.9</ele>
        <time>2012-09-20T08:20:52Z</time>
      </trkpt>
      <trkpt lat="45.08007" lon="1.90952">
        <ele>180.9</ele>
        <time>2012-09-20T08:20:53Z</time>
      </trkpt>
      <trkpt lat="45.07997" lon="1.90955">
        <ele>181.4</ele>
        <time>2012-09-20T08:20:54Z</time>
      </trkpt>
      <trkpt lat="45.07987" lon="1.90956">
        <ele>181.4</ele>
        <time>2012-09-20T08:20:55Z</time>
      </trkpt>
      <trkpt lat="45.07977" lon="1.90956">
        <ele>180.9</ele>
        <time>2012-09-20T08:20:56Z</time>
      </trkpt>
      <trkpt lat="45.07903" lon="1.90964">
        <ele>179.9</ele>
        <time>2012-09-20T08:21:03Z</time>
      </trkpt>
      <trkpt lat="45.07846" lon="1.90991">
        <ele>179.4</ele>
        <time>2012-09-20T08:21:08Z</time>
      </trkpt>
      <trkpt lat="45.07775" lon="1.91022">
        <ele>178.9</ele>
        <time>2012-09-20T08:21:14Z</time>
      </trkpt>
      <trkpt lat="45.07709" lon="1.91038">
        <ele>178</ele>
        <time>2012-09-20T08:21:20Z</time>
      </trkpt>
      <trkpt lat="45.07689" lon="1.91043">
        <ele>176.5</ele>
        <time>2012-09-20T08:21:24Z</time>
      </trkpt>
      <trkpt lat="45.07686" lon="1.91047">
        <ele>176.5</ele>
        <time>2012-09-20T08:21:28Z</time>
      </trkpt>
      <trkpt lat="45.07686" lon="1.91052">
        <ele>176.5</ele>
        <time>2012-09-20T08:21:29Z</time>
      </trkpt>
      <trkpt lat="45.07686" lon="1.91064">
        <ele>176.5</ele>
        <time>2012-09-20T08:21:31Z</time>
      </trkpt>
      <trkpt lat="45.07686" lon="1.91071">
        <ele>176.5</ele>
        <time>2012-09-20T08:21:32Z</time>
      </trkpt>
      <trkpt lat="45.07689" lon="1.9113">
        <ele>178</ele>
        <time>2012-09-20T08:21:38Z</time>
      </trkpt>
      <trkpt lat="45.07692" lon="1.9119">
        <ele>177</ele>
        <time>2012-09-20T08:21:44Z</time>
      </trkpt>
      <trkpt lat="45.07691" lon="1.91196">
        <ele>177</ele>
        <time>2012-09-20T08:21:45Z</time>
      </trkpt>
      <trkpt lat="45.07689" lon="1.91201">
        <ele>177</ele>
        <time>2012-09-20T08:21:46Z</time>
      </trkpt>
      <trkpt lat="45.07687" lon="1.91205">
        <ele>177.5</ele>
        <time>2012-09-20T08:21:47Z</time>
      </trkpt>
      <trkpt lat="45.07684" lon="1.91207">
        <ele>177.5</ele>
        <time>2012-09-20T08:21:48Z</time>
      </trkpt>
      <trkpt lat="45.0768" lon="1.91209">
        <ele>177</ele>
        <time>2012-09-20T08:21:49Z</time>
      </trkpt>
      <trkpt lat="45.07676" lon="1.9121">
        <ele>177</ele>
        <time>2012-09-20T08:21:50Z</time>
      </trkpt>
      <trkpt lat="45.07672" lon="1.91212">
        <ele>177</ele>
        <time>2012-09-20T08:21:51Z</time>
      </trkpt>
      <trkpt lat="45.07644" lon="1.91221">
        <ele>178</ele>
        <time>2012-09-20T08:21:58Z</time>
      </trkpt>
      <trkpt lat="45.07616" lon="1.9123">
        <ele>178.9</ele>
        <time>2012-09-20T08:22:04Z</time>
      </trkpt>
      <trkpt lat="45.07558" lon="1.91248">
        <ele>178.5</ele>
        <time>2012-09-20T08:22:14Z</time>
      </trkpt>
      <trkpt lat="45.07536" lon="1.91255">
        <ele>179.4</ele>
        <time>2012-09-20T08:22:18Z</time>
      </trkpt>
      <trkpt lat="45.07531" lon="1.91259">
        <ele>178.9</ele>
        <time>2012-09-20T08:22:19Z</time>
      </trkpt>
      <trkpt lat="45.07527" lon="1.91263">
        <ele>179.4</ele>
        <time>2012-09-20T08:22:20Z</time>
      </trkpt>
      <trkpt lat="45.07524" lon="1.91269">
        <ele>178.9</ele>
        <time>2012-09-20T08:22:21Z</time>
      </trkpt>
      <trkpt lat="45.07522" lon="1.91276">
        <ele>179.9</ele>
        <time>2012-09-20T08:22:22Z</time>
      </trkpt>
      <trkpt lat="45.07521" lon="1.91284">
        <ele>179.4</ele>
        <time>2012-09-20T08:22:23Z</time>
      </trkpt>
      <trkpt lat="45.07522" lon="1.91292">
        <ele>179.4</ele>
        <time>2012-09-20T08:22:24Z</time>
      </trkpt>
      <trkpt lat="45.07523" lon="1.913">
        <ele>179.9</ele>
        <time>2012-09-20T08:22:25Z</time>
      </trkpt>
      <trkpt lat="45.07525" lon="1.91309">
        <ele>179.9</ele>
        <time>2012-09-20T08:22:26Z</time>
      </trkpt>
      <trkpt lat="45.07538" lon="1.91382">
        <ele>180.4</ele>
        <time>2012-09-20T08:22:33Z</time>
      </trkpt>
      <trkpt lat="45.07549" lon="1.9147">
        <ele>180.4</ele>
        <time>2012-09-20T08:22:40Z</time>
      </trkpt>
      <trkpt lat="45.07543" lon="1.91561">
        <ele>180.4</ele>
        <time>2012-09-20T08:22:47Z</time>
      </trkpt>
      <trkpt lat="45.07524" lon="1.9169">
        <ele>181.4</ele>
        <time>2012-09-20T08:22:57Z</time>
      </trkpt>
      <trkpt lat="45.07521" lon="1.91703">
        <ele>181.4</ele>
        <time>2012-09-20T08:22:58Z</time>
      </trkpt>
      <trkpt lat="45.075" lon="1.91773">
        <ele>181.4</ele>
        <time>2012-09-20T08:23:04Z</time>
      </trkpt>
      <trkpt lat="45.07498" lon="1.91786">
        <ele>181.8</ele>
        <time>2012-09-20T08:23:05Z</time>
      </trkpt>
      <trkpt lat="45.07488" lon="1.91902">
        <ele>181.8</ele>
        <time>2012-09-20T08:23:14Z</time>
      </trkpt>
      <trkpt lat="45.07481" lon="1.91948">
        <ele>180.9</ele>
        <time>2012-09-20T08:23:19Z</time>
      </trkpt>
      <trkpt lat="45.07481" lon="1.91956">
        <ele>181.4</ele>
        <time>2012-09-20T08:23:20Z</time>
      </trkpt>
      <trkpt lat="45.07481" lon="1.91962">
        <ele>181.4</ele>
        <time>2012-09-20T08:23:21Z</time>
      </trkpt>
      <trkpt lat="45.07481" lon="1.91983">
        <ele>180.9</ele>
        <time>2012-09-20T08:23:25Z</time>
      </trkpt>
      <trkpt lat="45.07478" lon="1.91984">
        <ele>180.9</ele>
        <time>2012-09-20T08:23:26Z</time>
      </trkpt>
      <trkpt lat="45.07476" lon="1.91985">
        <ele>180.9</ele>
        <time>2012-09-20T08:23:27Z</time>
      </trkpt>
      <trkpt lat="45.07457" lon="1.9199">
        <ele>181.4</ele>
        <time>2012-09-20T08:23:33Z</time>
      </trkpt>
      <trkpt lat="45.07453" lon="1.91992">
        <ele>180.9</ele>
        <time>2012-09-20T08:23:34Z</time>
      </trkpt>
      <trkpt lat="45.07449" lon="1.91996">
        <ele>180.9</ele>
        <time>2012-09-20T08:23:35Z</time>
      </trkpt>
      <trkpt lat="45.07423" lon="1.92023">
        <ele>180.9</ele>
        <time>2012-09-20T08:23:42Z</time>
      </trkpt>
      <trkpt lat="45.0741" lon="1.92032">
        <ele>180.9</ele>
        <time>2012-09-20T08:23:45Z</time>
      </trkpt>
      <trkpt lat="45.07377" lon="1.92067">
        <ele>182.3</ele>
        <time>2012-09-20T08:23:54Z</time>
      </trkpt>
      <trkpt lat="45.07356" lon="1.92086">
        <ele>183.3</ele>
        <time>2012-09-20T08:23:59Z</time>
      </trkpt>
      <trkpt lat="45.07351" lon="1.92088">
        <ele>182.3</ele>
        <time>2012-09-20T08:24:00Z</time>
      </trkpt>
      <trkpt lat="45.07304" lon="1.92099">
        <ele>182.3</ele>
        <time>2012-09-20T08:24:09Z</time>
      </trkpt>
      <trkpt lat="45.0729" lon="1.92104">
        <ele>182.8</ele>
        <time>2012-09-20T08:24:12Z</time>
      </trkpt>
      <trkpt lat="45.07286" lon="1.92108">
        <ele>182.3</ele>
        <time>2012-09-20T08:24:13Z</time>
      </trkpt>
      <trkpt lat="45.07282" lon="1.92112">
        <ele>182.8</ele>
        <time>2012-09-20T08:24:14Z</time>
      </trkpt>
      <trkpt lat="45.07279" lon="1.92117">
        <ele>182.8</ele>
        <time>2012-09-20T08:24:15Z</time>
      </trkpt>
      <trkpt lat="45.07277" lon="1.92123">
        <ele>183.3</ele>
        <time>2012-09-20T08:24:16Z</time>
      </trkpt>
      <trkpt lat="45.07274" lon="1.92129">
        <ele>183.3</ele>
        <time>2012-09-20T08:24:17Z</time>
      </trkpt>
      <trkpt lat="45.0727" lon="1.92134">
        <ele>183.8</ele>
        <time>2012-09-20T08:24:18Z</time>
      </trkpt>
      <trkpt lat="45.07267" lon="1.92139">
        <ele>183.8</ele>
        <time>2012-09-20T08:24:19Z</time>
      </trkpt>
      <trkpt lat="45.07262" lon="1.92144">
        <ele>184.2</ele>
        <time>2012-09-20T08:24:20Z</time>
      </trkpt>
      <trkpt lat="45.07258" lon="1.92148">
        <ele>183.8</ele>
        <time>2012-09-20T08:24:21Z</time>
      </trkpt>
      <trkpt lat="45.07223" lon="1.92183">
        <ele>185.2</ele>
        <time>2012-09-20T08:24:30Z</time>
      </trkpt>
      <trkpt lat="45.07204" lon="1.92199">
        <ele>187.1</ele>
        <time>2012-09-20T08:24:36Z</time>
      </trkpt>
      <trkpt lat="45.07202" lon="1.92205">
        <ele>187.1</ele>
        <time>2012-09-20T08:24:40Z</time>
      </trkpt>
      <trkpt lat="45.07202" lon="1.92207">
        <ele>186.6</ele>
        <time>2012-09-20T08:24:41Z</time>
      </trkpt>
      <trkpt lat="45.07203" lon="1.9221">
        <ele>187.1</ele>
        <time>2012-09-20T08:24:42Z</time>
      </trkpt>
      <trkpt lat="45.07203" lon="1.92214">
        <ele>187.1</ele>
        <time>2012-09-20T08:24:48Z</time>
      </trkpt>
      <trkpt lat="45.07203" lon="1.92214">
        <ele>186.6</ele>
        <time>2012-09-20T08:25:02Z</time>
      </trkpt>
      <trkpt lat="45.07203" lon="1.92214">
        <ele>187.1</ele>
        <time>2012-09-20T08:25:18Z</time>
      </trkpt>
      <trkpt lat="45.07202" lon="1.92216">
        <ele>187.6</ele>
        <time>2012-09-20T08:25:30Z</time>
      </trkpt>
      <trkpt lat="45.07196" lon="1.92221">
        <ele>187.6</ele>
        <time>2012-09-20T08:25:36Z</time>
      </trkpt>
      <trkpt lat="45.07192" lon="1.92225">
        <ele>195.8</ele>
        <time>2012-09-20T08:25:41Z</time>
      </trkpt>
      <trkpt lat="45.07191" lon="1.92225">
        <ele>188.6</ele>
        <time>2012-09-20T08:25:42Z</time>
      </trkpt>
      <trkpt lat="45.07189" lon="1.92228">
        <ele>196.2</ele>
        <time>2012-09-20T08:25:45Z</time>
      </trkpt>
      <trkpt lat="45.07189" lon="1.92229">
        <ele>192.4</ele>
        <time>2012-09-20T08:25:46Z</time>
      </trkpt>
      <trkpt lat="45.07187" lon="1.92231">
        <ele>197.2</ele>
        <time>2012-09-20T08:25:49Z</time>
      </trkpt>
      <trkpt lat="45.07187" lon="1.92232">
        <ele>189.5</ele>
        <time>2012-09-20T08:25:50Z</time>
      </trkpt>
      <trkpt lat="45.07184" lon="1.92233">
        <ele>185.7</ele>
        <time>2012-09-20T08:25:53Z</time>
      </trkpt>
      <trkpt lat="45.07183" lon="1.92234">
        <ele>194.8</ele>
        <time>2012-09-20T08:25:54Z</time>
      </trkpt>
      <trkpt lat="45.07182" lon="1.92234">
        <ele>189</ele>
        <time>2012-09-20T08:25:55Z</time>
      </trkpt>
      <trkpt lat="45.07182" lon="1.92235">
        <ele>194.3</ele>
        <time>2012-09-20T08:25:56Z</time>
      </trkpt>
      <trkpt lat="45.07181" lon="1.92237">
        <ele>191.4</ele>
        <time>2012-09-20T08:25:59Z</time>
      </trkpt>
      <trkpt lat="45.07181" lon="1.92238">
        <ele>185.7</ele>
        <time>2012-09-20T08:26:00Z</time>
      </trkpt>
      <trkpt lat="45.0718" lon="1.92239">
        <ele>190</ele>
        <time>2012-09-20T08:26:01Z</time>
      </trkpt>
      <trkpt lat="45.07178" lon="1.92241">
        <ele>193.8</ele>
        <time>2012-09-20T08:26:04Z</time>
      </trkpt>
      <trkpt lat="45.07176" lon="1.92243">
        <ele>190</ele>
        <time>2012-09-20T08:26:06Z</time>
      </trkpt>
      <trkpt lat="45.07175" lon="1.92244">
        <ele>195.8</ele>
        <time>2012-09-20T08:26:07Z</time>
      </trkpt>
      <trkpt lat="45.07174" lon="1.92245">
        <ele>192.4</ele>
        <time>2012-09-20T08:26:08Z</time>
      </trkpt>
      <trkpt lat="45.07174" lon="1.92246">
        <ele>188.6</ele>
        <time>2012-09-20T08:26:09Z</time>
      </trkpt>
      <trkpt lat="45.07173" lon="1.92247">
        <ele>194.8</ele>
        <time>2012-09-20T08:26:10Z</time>
      </trkpt>
      <trkpt lat="45.07172" lon="1.92248">
        <ele>186.6</ele>
        <time>2012-09-20T08:26:11Z</time>
      </trkpt>
      <trkpt lat="45.07172" lon="1.9225">
        <ele>191.4</ele>
        <time>2012-09-20T08:26:12Z</time>
      </trkpt>
      <trkpt lat="45.07171" lon="1.92251">
        <ele>196.2</ele>
        <time>2012-09-20T08:26:13Z</time>
      </trkpt>
      <trkpt lat="45.07169" lon="1.92254">
        <ele>191.9</ele>
        <time>2012-09-20T08:26:17Z</time>
      </trkpt>
      <trkpt lat="45.07168" lon="1.92254">
        <ele>195.8</ele>
        <time>2012-09-20T08:26:18Z</time>
      </trkpt>
      <trkpt lat="45.07163" lon="1.92258">
        <ele>198.2</ele>
        <time>2012-09-20T08:26:23Z</time>
      </trkpt>
      <trkpt lat="45.07163" lon="1.92259">
        <ele>194.8</ele>
        <time>2012-09-20T08:26:24Z</time>
      </trkpt>
      <trkpt lat="45.07162" lon="1.92259">
        <ele>196.2</ele>
        <time>2012-09-20T08:26:25Z</time>
      </trkpt>
      <trkpt lat="45.07159" lon="1.92262">
        <ele>192.4</ele>
        <time>2012-09-20T08:26:34Z</time>
      </trkpt>
      <trkpt lat="45.07159" lon="1.92262">
        <ele>197.7</ele>
        <time>2012-09-20T08:26:35Z</time>
      </trkpt>
      <trkpt lat="45.07159" lon="1.92262">
        <ele>197.2</ele>
        <time>2012-09-20T08:26:40Z</time>
      </trkpt>
      <trkpt lat="45.07159" lon="1.92262">
        <ele>192.4</ele>
        <time>2012-09-20T08:26:58Z</time>
      </trkpt>
      <trkpt lat="45.07159" lon="1.92262">
        <ele>194.8</ele>
        <time>2012-09-20T08:26:59Z</time>
      </trkpt>
      <trkpt lat="45.07159" lon="1.92262">
        <ele>201.1</ele>
        <time>2012-09-20T08:27:00Z</time>
      </trkpt>
      <trkpt lat="45.07159" lon="1.92262">
        <ele>197.2</ele>
        <time>2012-09-20T08:27:01Z</time>
      </trkpt>
      <trkpt lat="45.07159" lon="1.92262">
        <ele>203.9</ele>
        <time>2012-09-20T08:27:04Z</time>
      </trkpt>
      <trkpt lat="45.07159" lon="1.92262">
        <ele>196.7</ele>
        <time>2012-09-20T08:27:05Z</time>
      </trkpt>
      <trkpt lat="45.07158" lon="1.9227">
        <ele>196.7</ele>
        <time>2012-09-20T08:27:12Z</time>
      </trkpt>
      <trkpt lat="45.0716" lon="1.92276">
        <ele>198.2</ele>
        <time>2012-09-20T08:27:20Z</time>
      </trkpt>
      <trkpt lat="45.07157" lon="1.9227">
        <ele>196.7</ele>
        <time>2012-09-20T08:27:27Z</time>
      </trkpt>
      <trkpt lat="45.07155" lon="1.92264">
        <ele>195.8</ele>
        <time>2012-09-20T08:27:33Z</time>
      </trkpt>
      <trkpt lat="45.07152" lon="1.92262">
        <ele>195.8</ele>
        <time>2012-09-20T08:27:41Z</time>
      </trkpt>
      <trkpt lat="45.07149" lon="1.92264">
        <ele>195.8</ele>
        <time>2012-09-20T08:27:45Z</time>
      </trkpt>
      <trkpt lat="45.07145" lon="1.92269">
        <ele>197.2</ele>
        <time>2012-09-20T08:27:53Z</time>
      </trkpt>
      <trkpt lat="45.07142" lon="1.92271">
        <ele>198.2</ele>
        <time>2012-09-20T08:27:55Z</time>
      </trkpt>
      <trkpt lat="45.0713" lon="1.92276">
        <ele>199.6</ele>
        <time>2012-09-20T08:28:02Z</time>
      </trkpt>
      <trkpt lat="45.07129" lon="1.92278">
        <ele>201.1</ele>
        <time>2012-09-20T08:28:05Z</time>
      </trkpt>
      <trkpt lat="45.07123" lon="1.92285">
        <ele>203</ele>
        <time>2012-09-20T08:28:12Z</time>
      </trkpt>
      <trkpt lat="45.0712" lon="1.92293">
        <ele>204.9</ele>
        <time>2012-09-20T08:28:19Z</time>
      </trkpt>
      <trkpt lat="45.07117" lon="1.92293">
        <ele>205.4</ele>
        <time>2012-09-20T08:28:21Z</time>
      </trkpt>
      <trkpt lat="45.07112" lon="1.92298">
        <ele>207.3</ele>
        <time>2012-09-20T08:28:27Z</time>
      </trkpt>
      <trkpt lat="45.0711" lon="1.92303">
        <ele>209.2</ele>
        <time>2012-09-20T08:28:34Z</time>
      </trkpt>
      <trkpt lat="45.07107" lon="1.92307">
        <ele>210.2</ele>
        <time>2012-09-20T08:28:38Z</time>
      </trkpt>
      <trkpt lat="45.07104" lon="1.92309">
        <ele>211.6</ele>
        <time>2012-09-20T08:28:45Z</time>
      </trkpt>
      <trkpt lat="45.07099" lon="1.92314">
        <ele>212.1</ele>
        <time>2012-09-20T08:28:52Z</time>
      </trkpt>
      <trkpt lat="45.07098" lon="1.92316">
        <ele>212.1</ele>
        <time>2012-09-20T08:28:53Z</time>
      </trkpt>
      <trkpt lat="45.07092" lon="1.92326">
        <ele>213.1</ele>
        <time>2012-09-20T08:28:59Z</time>
      </trkpt>
      <trkpt lat="45.07089" lon="1.92327">
        <ele>214.5</ele>
        <time>2012-09-20T08:29:02Z</time>
      </trkpt>
      <trkpt lat="45.07088" lon="1.92334">
        <ele>215</ele>
        <time>2012-09-20T08:29:06Z</time>
      </trkpt>
      <trkpt lat="45.07089" lon="1.92343">
        <ele>217.4</ele>
        <time>2012-09-20T08:29:12Z</time>
      </trkpt>
      <trkpt lat="45.07087" lon="1.92349">
        <ele>218.4</ele>
        <time>2012-09-20T08:29:19Z</time>
      </trkpt>
      <trkpt lat="45.07085" lon="1.92352">
        <ele>220.3</ele>
        <time>2012-09-20T08:29:24Z</time>
      </trkpt>
      <trkpt lat="45.07081" lon="1.92356">
        <ele>221.2</ele>
        <time>2012-09-20T08:29:30Z</time>
      </trkpt>
      <trkpt lat="45.07079" lon="1.9236">
        <ele>223.2</ele>
        <time>2012-09-20T08:29:36Z</time>
      </trkpt>
      <trkpt lat="45.07076" lon="1.92362">
        <ele>224.1</ele>
        <time>2012-09-20T08:29:42Z</time>
      </trkpt>
      <trkpt lat="45.07072" lon="1.92365">
        <ele>226.1</ele>
        <time>2012-09-20T08:29:49Z</time>
      </trkpt>
      <trkpt lat="45.07071" lon="1.92364">
        <ele>226.1</ele>
        <time>2012-09-20T08:29:54Z</time>
      </trkpt>
      <trkpt lat="45.07066" lon="1.92367">
        <ele>228.9</ele>
        <time>2012-09-20T08:30:00Z</time>
      </trkpt>
      <trkpt lat="45.07064" lon="1.92366">
        <ele>228.9</ele>
        <time>2012-09-20T08:30:06Z</time>
      </trkpt>
      <trkpt lat="45.07064" lon="1.92366">
        <ele>229.4</ele>
        <time>2012-09-20T08:30:07Z</time>
      </trkpt>
      <trkpt lat="45.07061" lon="1.92367">
        <ele>229.9</ele>
        <time>2012-09-20T08:30:10Z</time>
      </trkpt>
      <trkpt lat="45.07056" lon="1.92368">
        <ele>230.9</ele>
        <time>2012-09-20T08:30:15Z</time>
      </trkpt>
      <trkpt lat="45.07054" lon="1.92369">
        <ele>231.8</ele>
        <time>2012-09-20T08:30:20Z</time>
      </trkpt>
      <trkpt lat="45.07052" lon="1.9237">
        <ele>232.8</ele>
        <time>2012-09-20T08:30:24Z</time>
      </trkpt>
      <trkpt lat="45.07049" lon="1.92373">
        <ele>234.2</ele>
        <time>2012-09-20T08:30:30Z</time>
      </trkpt>
      <trkpt lat="45.07047" lon="1.92375">
        <ele>235.7</ele>
        <time>2012-09-20T08:30:36Z</time>
      </trkpt>
      <trkpt lat="45.07042" lon="1.92378">
        <ele>236.1</ele>
        <time>2012-09-20T08:30:40Z</time>
      </trkpt>
      <trkpt lat="45.07037" lon="1.92382">
        <ele>236.6</ele>
        <time>2012-09-20T08:30:44Z</time>
      </trkpt>
      <trkpt lat="45.07034" lon="1.92383">
        <ele>237.6</ele>
        <time>2012-09-20T08:30:49Z</time>
      </trkpt>
      <trkpt lat="45.07031" lon="1.92383">
        <ele>238.1</ele>
        <time>2012-09-20T08:30:52Z</time>
      </trkpt>
      <trkpt lat="45.07025" lon="1.92386">
        <ele>239.5</ele>
        <time>2012-09-20T08:30:58Z</time>
      </trkpt>
      <trkpt lat="45.07023" lon="1.92388">
        <ele>240.5</ele>
        <time>2012-09-20T08:31:02Z</time>
      </trkpt>
      <trkpt lat="45.07022" lon="1.9239">
        <ele>240.9</ele>
        <time>2012-09-20T08:31:05Z</time>
      </trkpt>
      <trkpt lat="45.07016" lon="1.92392">
        <ele>242.4</ele>
        <time>2012-09-20T08:31:11Z</time>
      </trkpt>
      <trkpt lat="45.07011" lon="1.92398">
        <ele>243.4</ele>
        <time>2012-09-20T08:31:18Z</time>
      </trkpt>
      <trkpt lat="45.0701" lon="1.92404">
        <ele>244.3</ele>
        <time>2012-09-20T08:31:23Z</time>
      </trkpt>
      <trkpt lat="45.07006" lon="1.92408">
        <ele>245.8</ele>
        <time>2012-09-20T08:31:30Z</time>
      </trkpt>
      <trkpt lat="45.07004" lon="1.92409">
        <ele>246.2</ele>
        <time>2012-09-20T08:31:34Z</time>
      </trkpt>
      <trkpt lat="45.06999" lon="1.92412">
        <ele>247.7</ele>
        <time>2012-09-20T08:31:40Z</time>
      </trkpt>
      <trkpt lat="45.06995" lon="1.92418">
        <ele>249.1</ele>
        <time>2012-09-20T08:31:46Z</time>
      </trkpt>
      <trkpt lat="45.06993" lon="1.92421">
        <ele>250.6</ele>
        <time>2012-09-20T08:31:52Z</time>
      </trkpt>
      <trkpt lat="45.06992" lon="1.92422">
        <ele>250.6</ele>
        <time>2012-09-20T08:31:54Z</time>
      </trkpt>
      <trkpt lat="45.06989" lon="1.92427">
        <ele>252.5</ele>
        <time>2012-09-20T08:32:00Z</time>
      </trkpt>
      <trkpt lat="45.06986" lon="1.9243">
        <ele>253</ele>
        <time>2012-09-20T08:32:04Z</time>
      </trkpt>
      <trkpt lat="45.06986" lon="1.9243">
        <ele>253.4</ele>
        <time>2012-09-20T08:32:06Z</time>
      </trkpt>
      <trkpt lat="45.06981" lon="1.92437">
        <ele>253.9</ele>
        <time>2012-09-20T08:32:12Z</time>
      </trkpt>
      <trkpt lat="45.06979" lon="1.92441">
        <ele>255.9</ele>
        <time>2012-09-20T08:32:17Z</time>
      </trkpt>
      <trkpt lat="45.06977" lon="1.92446">
        <ele>256.8</ele>
        <time>2012-09-20T08:32:23Z</time>
      </trkpt>
      <trkpt lat="45.06975" lon="1.9245">
        <ele>258.2</ele>
        <time>2012-09-20T08:32:29Z</time>
      </trkpt>
      <trkpt lat="45.06972" lon="1.92452">
        <ele>258.7</ele>
        <time>2012-09-20T08:32:35Z</time>
      </trkpt>
      <trkpt lat="45.06971" lon="1.92452">
        <ele>259.7</ele>
        <time>2012-09-20T08:32:36Z</time>
      </trkpt>
      <trkpt lat="45.06966" lon="1.92458">
        <ele>260.2</ele>
        <time>2012-09-20T08:32:43Z</time>
      </trkpt>
      <trkpt lat="45.06963" lon="1.92461">
        <ele>261.6</ele>
        <time>2012-09-20T08:32:49Z</time>
      </trkpt>
      <trkpt lat="45.06961" lon="1.92465">
        <ele>262.6</ele>
        <time>2012-09-20T08:32:53Z</time>
      </trkpt>
      <trkpt lat="45.06963" lon="1.92472">
        <ele>263.5</ele>
        <time>2012-09-20T08:32:58Z</time>
      </trkpt>
      <trkpt lat="45.06963" lon="1.92481">
        <ele>265</ele>
        <time>2012-09-20T08:33:03Z</time>
      </trkpt>
      <trkpt lat="45.06961" lon="1.92485">
        <ele>265.9</ele>
        <time>2012-09-20T08:33:08Z</time>
      </trkpt>
      <trkpt lat="45.06958" lon="1.92486">
        <ele>267.4</ele>
        <time>2012-09-20T08:33:15Z</time>
      </trkpt>
      <trkpt lat="45.06957" lon="1.92486">
        <ele>267.9</ele>
        <time>2012-09-20T08:33:16Z</time>
      </trkpt>
      <trkpt lat="45.06951" lon="1.92489">
        <ele>267.9</ele>
        <time>2012-09-20T08:33:21Z</time>
      </trkpt>
      <trkpt lat="45.06947" lon="1.9249">
        <ele>268.8</ele>
        <time>2012-09-20T08:33:25Z</time>
      </trkpt>
      <trkpt lat="45.06943" lon="1.92497">
        <ele>269.8</ele>
        <time>2012-09-20T08:33:32Z</time>
      </trkpt>
      <trkpt lat="45.06941" lon="1.925">
        <ele>271.7</ele>
        <time>2012-09-20T08:33:37Z</time>
      </trkpt>
      <trkpt lat="45.06941" lon="1.92503">
        <ele>272.2</ele>
        <time>2012-09-20T08:33:41Z</time>
      </trkpt>
      <trkpt lat="45.06941" lon="1.92503">
        <ele>272.2</ele>
        <time>2012-09-20T08:33:42Z</time>
      </trkpt>
      <trkpt lat="45.06936" lon="1.92508">
        <ele>273.1</ele>
        <time>2012-09-20T08:33:48Z</time>
      </trkpt>
      <trkpt lat="45.06935" lon="1.92509">
        <ele>274.1</ele>
        <time>2012-09-20T08:33:50Z</time>
      </trkpt>
      <trkpt lat="45.06932" lon="1.92514">
        <ele>274.6</ele>
        <time>2012-09-20T08:33:56Z</time>
      </trkpt>
      <trkpt lat="45.06931" lon="1.92515">
        <ele>275.6</ele>
        <time>2012-09-20T08:33:58Z</time>
      </trkpt>
      <trkpt lat="45.06926" lon="1.92518">
        <ele>277</ele>
        <time>2012-09-20T08:34:04Z</time>
      </trkpt>
      <trkpt lat="45.06926" lon="1.92518">
        <ele>276.5</ele>
        <time>2012-09-20T08:34:05Z</time>
      </trkpt>
      <trkpt lat="45.06924" lon="1.92524">
        <ele>277</ele>
        <time>2012-09-20T08:34:08Z</time>
      </trkpt>
      <trkpt lat="45.06919" lon="1.9253">
        <ele>278</ele>
        <time>2012-09-20T08:34:15Z</time>
      </trkpt>
      <trkpt lat="45.06916" lon="1.92534">
        <ele>279.4</ele>
        <time>2012-09-20T08:34:19Z</time>
      </trkpt>
      <trkpt lat="45.06912" lon="1.92541">
        <ele>280.4</ele>
        <time>2012-09-20T08:34:25Z</time>
      </trkpt>
      <trkpt lat="45.06908" lon="1.92545">
        <ele>281.8</ele>
        <time>2012-09-20T08:34:31Z</time>
      </trkpt>
      <trkpt lat="45.06907" lon="1.92546">
        <ele>282.3</ele>
        <time>2012-09-20T08:34:33Z</time>
      </trkpt>
      <trkpt lat="45.06904" lon="1.9255">
        <ele>283.2</ele>
        <time>2012-09-20T08:34:38Z</time>
      </trkpt>
      <trkpt lat="45.06904" lon="1.92554">
        <ele>283.7</ele>
        <time>2012-09-20T08:34:41Z</time>
      </trkpt>
      <trkpt lat="45.06903" lon="1.92556">
        <ele>284.2</ele>
        <time>2012-09-20T08:34:43Z</time>
      </trkpt>
      <trkpt lat="45.06901" lon="1.92562">
        <ele>284.7</ele>
        <time>2012-09-20T08:34:49Z</time>
      </trkpt>
      <trkpt lat="45.06901" lon="1.92563">
        <ele>285.2</ele>
        <time>2012-09-20T08:34:52Z</time>
      </trkpt>
      <trkpt lat="45.069" lon="1.92575">
        <ele>284.7</ele>
        <time>2012-09-20T08:34:56Z</time>
      </trkpt>
      <trkpt lat="45.06893" lon="1.92586">
        <ele>283.2</ele>
        <time>2012-09-20T08:35:02Z</time>
      </trkpt>
      <trkpt lat="45.06892" lon="1.92586">
        <ele>282.8</ele>
        <time>2012-09-20T08:35:05Z</time>
      </trkpt>
      <trkpt lat="45.06889" lon="1.92588">
        <ele>282.3</ele>
        <time>2012-09-20T08:35:07Z</time>
      </trkpt>
      <trkpt lat="45.06884" lon="1.92588">
        <ele>280.8</ele>
        <time>2012-09-20T08:35:14Z</time>
      </trkpt>
      <trkpt lat="45.0688" lon="1.92589">
        <ele>279.4</ele>
        <time>2012-09-20T08:35:20Z</time>
      </trkpt>
      <trkpt lat="45.06874" lon="1.92591">
        <ele>279.4</ele>
        <time>2012-09-20T08:35:25Z</time>
      </trkpt>
      <trkpt lat="45.06865" lon="1.92592">
        <ele>278</ele>
        <time>2012-09-20T08:35:31Z</time>
      </trkpt>
      <trkpt lat="45.06862" lon="1.92594">
        <ele>277</ele>
        <time>2012-09-20T08:35:37Z</time>
      </trkpt>
      <trkpt lat="45.06857" lon="1.92597">
        <ele>277</ele>
        <time>2012-09-20T08:35:40Z</time>
      </trkpt>
      <trkpt lat="45.0685" lon="1.926">
        <ele>276.5</ele>
        <time>2012-09-20T08:35:46Z</time>
      </trkpt>
      <trkpt lat="45.06844" lon="1.92603">
        <ele>275.1</ele>
        <time>2012-09-20T08:35:52Z</time>
      </trkpt>
      <trkpt lat="45.06839" lon="1.92606">
        <ele>274.6</ele>
        <time>2012-09-20T08:35:55Z</time>
      </trkpt>
      <trkpt lat="45.06832" lon="1.92609">
        <ele>273.6</ele>
        <time>2012-09-20T08:35:59Z</time>
      </trkpt>
      <trkpt lat="45.06825" lon="1.92617">
        <ele>273.1</ele>
        <time>2012-09-20T08:36:06Z</time>
      </trkpt>
      <trkpt lat="45.0682" lon="1.92621">
        <ele>271.2</ele>
        <time>2012-09-20T08:36:13Z</time>
      </trkpt>
      <trkpt lat="45.06813" lon="1.92631">
        <ele>271.2</ele>
        <time>2012-09-20T08:36:22Z</time>
      </trkpt>
      <trkpt lat="45.06807" lon="1.92643">
        <ele>271.7</ele>
        <time>2012-09-20T08:36:30Z</time>
      </trkpt>
      <trkpt lat="45.06803" lon="1.92652">
        <ele>272.2</ele>
        <time>2012-09-20T08:36:37Z</time>
      </trkpt>
      <trkpt lat="45.06799" lon="1.92657">
        <ele>271.7</ele>
        <time>2012-09-20T08:36:42Z</time>
      </trkpt>
      <trkpt lat="45.06786" lon="1.9266">
        <ele>270.8</ele>
        <time>2012-09-20T08:36:50Z</time>
      </trkpt>
      <trkpt lat="45.06776" lon="1.92661">
        <ele>270.8</ele>
        <time>2012-09-20T08:36:57Z</time>
      </trkpt>
      <trkpt lat="45.06768" lon="1.92668">
        <ele>270.8</ele>
        <time>2012-09-20T08:37:04Z</time>
      </trkpt>
      <trkpt lat="45.06759" lon="1.92675">
        <ele>270.8</ele>
        <time>2012-09-20T08:37:11Z</time>
      </trkpt>
      <trkpt lat="45.06755" lon="1.92685">
        <ele>270.8</ele>
        <time>2012-09-20T08:37:18Z</time>
      </trkpt>
      <trkpt lat="45.06749" lon="1.92693">
        <ele>270.8</ele>
        <time>2012-09-20T08:37:24Z</time>
      </trkpt>
      <trkpt lat="45.06742" lon="1.92701">
        <ele>270.8</ele>
        <time>2012-09-20T08:37:31Z</time>
      </trkpt>
      <trkpt lat="45.06736" lon="1.92707">
        <ele>270.8</ele>
        <time>2012-09-20T08:37:37Z</time>
      </trkpt>
      <trkpt lat="45.06734" lon="1.92708">
        <ele>270.8</ele>
        <time>2012-09-20T08:37:38Z</time>
      </trkpt>
      <trkpt lat="45.0672" lon="1.92712">
        <ele>271.7</ele>
        <time>2012-09-20T08:37:46Z</time>
      </trkpt>
      <trkpt lat="45.06709" lon="1.92715">
        <ele>271.2</ele>
        <time>2012-09-20T08:37:54Z</time>
      </trkpt>
      <trkpt lat="45.06705" lon="1.92719">
        <ele>271.2</ele>
        <time>2012-09-20T08:37:57Z</time>
      </trkpt>
      <trkpt lat="45.06696" lon="1.92724">
        <ele>270.3</ele>
        <time>2012-09-20T08:38:06Z</time>
      </trkpt>
      <trkpt lat="45.06688" lon="1.92728">
        <ele>270.8</ele>
        <time>2012-09-20T08:38:14Z</time>
      </trkpt>
      <trkpt lat="45.06686" lon="1.92729">
        <ele>270.3</ele>
        <time>2012-09-20T08:38:15Z</time>
      </trkpt>
      <trkpt lat="45.06675" lon="1.92735">
        <ele>270.3</ele>
        <time>2012-09-20T08:38:23Z</time>
      </trkpt>
      <trkpt lat="45.06669" lon="1.9274">
        <ele>270.3</ele>
        <time>2012-09-20T08:38:27Z</time>
      </trkpt>
      <trkpt lat="45.06663" lon="1.92755">
        <ele>270.8</ele>
        <time>2012-09-20T08:38:35Z</time>
      </trkpt>
      <trkpt lat="45.06661" lon="1.92761">
        <ele>271.2</ele>
        <time>2012-09-20T08:38:39Z</time>
      </trkpt>
      <trkpt lat="45.06649" lon="1.92777">
        <ele>271.7</ele>
        <time>2012-09-20T08:38:48Z</time>
      </trkpt>
      <trkpt lat="45.06647" lon="1.92779">
        <ele>268.8</ele>
        <time>2012-09-20T08:38:50Z</time>
      </trkpt>
      <trkpt lat="45.06645" lon="1.92782">
        <ele>278</ele>
        <time>2012-09-20T08:38:52Z</time>
      </trkpt>
      <trkpt lat="45.06644" lon="1.92785">
        <ele>268.4</ele>
        <time>2012-09-20T08:38:54Z</time>
      </trkpt>
      <trkpt lat="45.06643" lon="1.92786">
        <ele>273.1</ele>
        <time>2012-09-20T08:38:55Z</time>
      </trkpt>
      <trkpt lat="45.06639" lon="1.92795">
        <ele>273.1</ele>
        <time>2012-09-20T08:39:02Z</time>
      </trkpt>
      <trkpt lat="45.06636" lon="1.92797">
        <ele>273.6</ele>
        <time>2012-09-20T08:39:05Z</time>
      </trkpt>
      <trkpt lat="45.06628" lon="1.92803">
        <ele>275.1</ele>
        <time>2012-09-20T08:39:14Z</time>
      </trkpt>
      <trkpt lat="45.06624" lon="1.92805">
        <ele>272.2</ele>
        <time>2012-09-20T08:39:24Z</time>
      </trkpt>
      <trkpt lat="45.06622" lon="1.92806">
        <ele>276.5</ele>
        <time>2012-09-20T08:39:25Z</time>
      </trkpt>
      <trkpt lat="45.0662" lon="1.92806">
        <ele>282.3</ele>
        <time>2012-09-20T08:39:26Z</time>
      </trkpt>
      <trkpt lat="45.06618" lon="1.92807">
        <ele>275.6</ele>
        <time>2012-09-20T08:39:27Z</time>
      </trkpt>
      <trkpt lat="45.06614" lon="1.92809">
        <ele>272.2</ele>
        <time>2012-09-20T08:39:29Z</time>
      </trkpt>
      <trkpt lat="45.06612" lon="1.92811">
        <ele>278</ele>
        <time>2012-09-20T08:39:30Z</time>
      </trkpt>
      <trkpt lat="45.0661" lon="1.92812">
        <ele>276.5</ele>
        <time>2012-09-20T08:39:31Z</time>
      </trkpt>
      <trkpt lat="45.06606" lon="1.92815">
        <ele>272.2</ele>
        <time>2012-09-20T08:39:33Z</time>
      </trkpt>
      <trkpt lat="45.06604" lon="1.92816">
        <ele>273.1</ele>
        <time>2012-09-20T08:39:34Z</time>
      </trkpt>
      <trkpt lat="45.06599" lon="1.92817">
        <ele>275.1</ele>
        <time>2012-09-20T08:39:36Z</time>
      </trkpt>
      <trkpt lat="45.06595" lon="1.92819">
        <ele>274.1</ele>
        <time>2012-09-20T08:39:38Z</time>
      </trkpt>
      <trkpt lat="45.06578" lon="1.92822">
        <ele>274.1</ele>
        <time>2012-09-20T08:39:45Z</time>
      </trkpt>
      <trkpt lat="45.06564" lon="1.92835">
        <ele>275.6</ele>
        <time>2012-09-20T08:39:53Z</time>
      </trkpt>
      <trkpt lat="45.06545" lon="1.92862">
        <ele>277</ele>
        <time>2012-09-20T08:40:03Z</time>
      </trkpt>
      <trkpt lat="45.06518" lon="1.92879">
        <ele>278.4</ele>
        <time>2012-09-20T08:40:12Z</time>
      </trkpt>
      <trkpt lat="45.06514" lon="1.92885">
        <ele>286.6</ele>
        <time>2012-09-20T08:40:14Z</time>
      </trkpt>
      <trkpt lat="45.06513" lon="1.92887">
        <ele>281.3</ele>
        <time>2012-09-20T08:40:15Z</time>
      </trkpt>
      <trkpt lat="45.06506" lon="1.92899">
        <ele>281.8</ele>
        <time>2012-09-20T08:40:22Z</time>
      </trkpt>
      <trkpt lat="45.06505" lon="1.92901">
        <ele>282.8</ele>
        <time>2012-09-20T08:40:23Z</time>
      </trkpt>
      <trkpt lat="45.06493" lon="1.92921">
        <ele>284.7</ele>
        <time>2012-09-20T08:40:33Z</time>
      </trkpt>
      <trkpt lat="45.06486" lon="1.9293">
        <ele>285.6</ele>
        <time>2012-09-20T08:40:40Z</time>
      </trkpt>
      <trkpt lat="45.06476" lon="1.92944">
        <ele>287.1</ele>
        <time>2012-09-20T08:40:49Z</time>
      </trkpt>
      <trkpt lat="45.06474" lon="1.92947">
        <ele>288.5</ele>
        <time>2012-09-20T08:40:51Z</time>
      </trkpt>
      <trkpt lat="45.06469" lon="1.92955">
        <ele>289.5</ele>
        <time>2012-09-20T08:40:55Z</time>
      </trkpt>
      <trkpt lat="45.06455" lon="1.92969">
        <ele>291.4</ele>
        <time>2012-09-20T08:41:05Z</time>
      </trkpt>
      <trkpt lat="45.06443" lon="1.92977">
        <ele>293.8</ele>
        <time>2012-09-20T08:41:14Z</time>
      </trkpt>
      <trkpt lat="45.06436" lon="1.92975">
        <ele>294.8</ele>
        <time>2012-09-20T08:41:22Z</time>
      </trkpt>
      <trkpt lat="45.06438" lon="1.92972">
        <ele>295.7</ele>
        <time>2012-09-20T08:41:27Z</time>
      </trkpt>
      <trkpt lat="45.06442" lon="1.92956">
        <ele>297.2</ele>
        <time>2012-09-20T08:41:37Z</time>
      </trkpt>
      <trkpt lat="45.06442" lon="1.92948">
        <ele>297.2</ele>
        <time>2012-09-20T08:41:40Z</time>
      </trkpt>
      <trkpt lat="45.0644" lon="1.92924">
        <ele>299.6</ele>
        <time>2012-09-20T08:41:51Z</time>
      </trkpt>
      <trkpt lat="45.06433" lon="1.92901">
        <ele>302</ele>
        <time>2012-09-20T08:42:01Z</time>
      </trkpt>
      <trkpt lat="45.06426" lon="1.92888">
        <ele>303.9</ele>
        <time>2012-09-20T08:42:08Z</time>
      </trkpt>
      <trkpt lat="45.06414" lon="1.9287">
        <ele>306.8</ele>
        <time>2012-09-20T08:42:19Z</time>
      </trkpt>
      <trkpt lat="45.06413" lon="1.92869">
        <ele>306.8</ele>
        <time>2012-09-20T08:42:20Z</time>
      </trkpt>
      <trkpt lat="45.06402" lon="1.92864">
        <ele>308.7</ele>
        <time>2012-09-20T08:42:26Z</time>
      </trkpt>
      <trkpt lat="45.06388" lon="1.92866">
        <ele>312.1</ele>
        <time>2012-09-20T08:42:34Z</time>
      </trkpt>
      <trkpt lat="45.06376" lon="1.92867">
        <ele>315</ele>
        <time>2012-09-20T08:42:41Z</time>
      </trkpt>
      <trkpt lat="45.06358" lon="1.92863">
        <ele>317.9</ele>
        <time>2012-09-20T08:42:50Z</time>
      </trkpt>
      <trkpt lat="45.06344" lon="1.92857">
        <ele>319.8</ele>
        <time>2012-09-20T08:42:58Z</time>
      </trkpt>
      <trkpt lat="45.06331" lon="1.92852">
        <ele>321.7</ele>
        <time>2012-09-20T08:43:07Z</time>
      </trkpt>
      <trkpt lat="45.06315" lon="1.92862">
        <ele>325.1</ele>
        <time>2012-09-20T08:43:18Z</time>
      </trkpt>
      <trkpt lat="45.06302" lon="1.92871">
        <ele>328</ele>
        <time>2012-09-20T08:43:27Z</time>
      </trkpt>
      <trkpt lat="45.0629" lon="1.92886">
        <ele>331.3</ele>
        <time>2012-09-20T08:43:38Z</time>
      </trkpt>
      <trkpt lat="45.06276" lon="1.92901">
        <ele>334.2</ele>
        <time>2012-09-20T08:43:49Z</time>
      </trkpt>
      <trkpt lat="45.06275" lon="1.92902">
        <ele>334.2</ele>
        <time>2012-09-20T08:43:50Z</time>
      </trkpt>
      <trkpt lat="45.06257" lon="1.9292">
        <ele>336.1</ele>
        <time>2012-09-20T08:44:04Z</time>
      </trkpt>
      <trkpt lat="45.06245" lon="1.92924">
        <ele>338</ele>
        <time>2012-09-20T08:44:12Z</time>
      </trkpt>
      <trkpt lat="45.06224" lon="1.92927">
        <ele>340.9</ele>
        <time>2012-09-20T08:44:23Z</time>
      </trkpt>
      <trkpt lat="45.062" lon="1.92935">
        <ele>344.3</ele>
        <time>2012-09-20T08:44:34Z</time>
      </trkpt>
      <trkpt lat="45.0618" lon="1.92944">
        <ele>347.2</ele>
        <time>2012-09-20T08:44:45Z</time>
      </trkpt>
      <trkpt lat="45.06167" lon="1.92962">
        <ele>350.5</ele>
        <time>2012-09-20T08:44:56Z</time>
      </trkpt>
      <trkpt lat="45.0615" lon="1.92968">
        <ele>354.4</ele>
        <time>2012-09-20T08:45:07Z</time>
      </trkpt>
      <trkpt lat="45.06148" lon="1.92968">
        <ele>354.9</ele>
        <time>2012-09-20T08:45:08Z</time>
      </trkpt>
      <trkpt lat="45.06128" lon="1.92982">
        <ele>357.8</ele>
        <time>2012-09-20T08:45:21Z</time>
      </trkpt>
      <trkpt lat="45.0611" lon="1.92987">
        <ele>360.6</ele>
        <time>2012-09-20T08:45:31Z</time>
      </trkpt>
      <trkpt lat="45.06097" lon="1.92986">
        <ele>362.5</ele>
        <time>2012-09-20T08:45:37Z</time>
      </trkpt>
      <trkpt lat="45.0608" lon="1.92987">
        <ele>365.4</ele>
        <time>2012-09-20T08:45:46Z</time>
      </trkpt>
      <trkpt lat="45.06056" lon="1.92989">
        <ele>368.3</ele>
        <time>2012-09-20T08:45:58Z</time>
      </trkpt>
      <trkpt lat="45.06034" lon="1.92987">
        <ele>371.2</ele>
        <time>2012-09-20T08:46:08Z</time>
      </trkpt>
      <trkpt lat="45.06018" lon="1.92987">
        <ele>374.6</ele>
        <time>2012-09-20T08:46:15Z</time>
      </trkpt>
      <trkpt lat="45.06018" lon="1.92987">
        <ele>374.6</ele>
        <time>2012-09-20T08:46:15Z</time>
      </trkpt>
      <trkpt lat="45.06004" lon="1.9299">
        <ele>377</ele>
        <time>2012-09-20T08:46:25Z</time>
      </trkpt>
      <trkpt lat="45.05991" lon="1.92996">
        <ele>379.4</ele>
        <time>2012-09-20T08:46:35Z</time>
      </trkpt>
      <trkpt lat="45.05976" lon="1.93001">
        <ele>382.3</ele>
        <time>2012-09-20T08:46:43Z</time>
      </trkpt>
      <trkpt lat="45.05962" lon="1.93005">
        <ele>385.1</ele>
        <time>2012-09-20T08:46:51Z</time>
      </trkpt>
      <trkpt lat="45.05945" lon="1.93008">
        <ele>388.5</ele>
        <time>2012-09-20T08:47:00Z</time>
      </trkpt>
      <trkpt lat="45.05934" lon="1.93005">
        <ele>391.9</ele>
        <time>2012-09-20T08:47:09Z</time>
      </trkpt>
      <trkpt lat="45.05917" lon="1.93005">
        <ele>395.2</ele>
        <time>2012-09-20T08:47:20Z</time>
      </trkpt>
      <trkpt lat="45.05911" lon="1.93009">
        <ele>397.2</ele>
        <time>2012-09-20T08:47:26Z</time>
      </trkpt>
      <trkpt lat="45.05898" lon="1.93016">
        <ele>398.6</ele>
        <time>2012-09-20T08:47:37Z</time>
      </trkpt>
      <trkpt lat="45.05894" lon="1.9302">
        <ele>399.6</ele>
        <time>2012-09-20T08:47:40Z</time>
      </trkpt>
      <trkpt lat="45.0588" lon="1.93044">
        <ele>402.5</ele>
        <time>2012-09-20T08:47:52Z</time>
      </trkpt>
      <trkpt lat="45.05867" lon="1.93057">
        <ele>403.9</ele>
        <time>2012-09-20T08:48:02Z</time>
      </trkpt>
      <trkpt lat="45.05866" lon="1.93057">
        <ele>403.9</ele>
        <time>2012-09-20T08:48:03Z</time>
      </trkpt>
      <trkpt lat="45.05846" lon="1.93073">
        <ele>405.8</ele>
        <time>2012-09-20T08:48:12Z</time>
      </trkpt>
      <trkpt lat="45.05819" lon="1.93105">
        <ele>411.1</ele>
        <time>2012-09-20T08:48:19Z</time>
      </trkpt>
      <trkpt lat="45.05804" lon="1.93121">
        <ele>405.8</ele>
        <time>2012-09-20T08:48:23Z</time>
      </trkpt>
      <trkpt lat="45.05801" lon="1.93125">
        <ele>409.2</ele>
        <time>2012-09-20T08:48:24Z</time>
      </trkpt>
      <trkpt lat="45.05785" lon="1.93146">
        <ele>410.1</ele>
        <time>2012-09-20T08:48:32Z</time>
      </trkpt>
      <trkpt lat="45.05779" lon="1.93155">
        <ele>400.5</ele>
        <time>2012-09-20T08:48:37Z</time>
      </trkpt>
      <trkpt lat="45.05777" lon="1.93156">
        <ele>413</ele>
        <time>2012-09-20T08:48:38Z</time>
      </trkpt>
      <trkpt lat="45.05767" lon="1.93155">
        <ele>413</ele>
        <time>2012-09-20T08:48:46Z</time>
      </trkpt>
      <trkpt lat="45.05755" lon="1.93154">
        <ele>415</ele>
        <time>2012-09-20T08:48:55Z</time>
      </trkpt>
      <trkpt lat="45.05741" lon="1.93171">
        <ele>417.8</ele>
        <time>2012-09-20T08:49:06Z</time>
      </trkpt>
      <trkpt lat="45.05739" lon="1.93173">
        <ele>417.8</ele>
        <time>2012-09-20T08:49:07Z</time>
      </trkpt>
      <trkpt lat="45.05734" lon="1.93184">
        <ele>419.3</ele>
        <time>2012-09-20T08:49:11Z</time>
      </trkpt>
      <trkpt lat="45.0572" lon="1.93198">
        <ele>420.7</ele>
        <time>2012-09-20T08:49:19Z</time>
      </trkpt>
      <trkpt lat="45.057" lon="1.93203">
        <ele>422.6</ele>
        <time>2012-09-20T08:49:29Z</time>
      </trkpt>
      <trkpt lat="45.05681" lon="1.93214">
        <ele>424.1</ele>
        <time>2012-09-20T08:49:39Z</time>
      </trkpt>
      <trkpt lat="45.05667" lon="1.93229">
        <ele>426.5</ele>
        <time>2012-09-20T08:49:48Z</time>
      </trkpt>
      <trkpt lat="45.05655" lon="1.93241">
        <ele>429.4</ele>
        <time>2012-09-20T08:49:55Z</time>
      </trkpt>
      <trkpt lat="45.0565" lon="1.93244">
        <ele>430.3</ele>
        <time>2012-09-20T08:49:57Z</time>
      </trkpt>
      <trkpt lat="45.0563" lon="1.93259">
        <ele>433.7</ele>
        <time>2012-09-20T08:50:06Z</time>
      </trkpt>
      <trkpt lat="45.05619" lon="1.93268">
        <ele>435.6</ele>
        <time>2012-09-20T08:50:15Z</time>
      </trkpt>
      <trkpt lat="45.05611" lon="1.93278">
        <ele>438</ele>
        <time>2012-09-20T08:50:24Z</time>
      </trkpt>
      <trkpt lat="45.05611" lon="1.9328">
        <ele>438</ele>
        <time>2012-09-20T08:50:25Z</time>
      </trkpt>
      <trkpt lat="45.05605" lon="1.93298">
        <ele>441.9</ele>
        <time>2012-09-20T08:50:35Z</time>
      </trkpt>
      <trkpt lat="45.05594" lon="1.93315">
        <ele>445.2</ele>
        <time>2012-09-20T08:50:45Z</time>
      </trkpt>
      <trkpt lat="45.05591" lon="1.93319">
        <ele>446.2</ele>
        <time>2012-09-20T08:50:47Z</time>
      </trkpt>
      <trkpt lat="45.05589" lon="1.93321">
        <ele>446.2</ele>
        <time>2012-09-20T08:50:48Z</time>
      </trkpt>
      <trkpt lat="45.05567" lon="1.93436">
        <ele>447</ele>
        <time>2012-09-20T08:51:00Z</time>
      </trkpt>
      <trkpt lat="45.05499" lon="1.93444">
        <ele>454.3</ele>
        <time>2012-09-20T08:59:16Z</time>
      </trkpt>
      <trkpt lat="45.05454" lon="1.93455">
        <ele>459.8</ele>
        <time>2012-09-20T08:59:23Z</time>
      </trkpt>
      <trkpt lat="45.05417" lon="1.93476">
        <ele>464.1</ele>
        <time>2012-09-20T09:04:15Z</time>
      </trkpt>
      <trkpt lat="45.05397" lon="1.93499">
        <ele>468.8</ele>
        <time>2012-09-20T09:04:22Z</time>
      </trkpt>
      <trkpt lat="45.05375" lon="1.93531">
        <ele>475.1</ele>
        <time>2012-09-20T09:04:30Z</time>
      </trkpt>
      <trkpt lat="45.05353" lon="1.93565">
        <ele>481.3</ele>
        <time>2012-09-20T09:04:38Z</time>
      </trkpt>
      <trkpt lat="45.05334" lon="1.93601">
        <ele>485.5</ele>
        <time>2012-09-20T09:04:45Z</time>
      </trkpt>
      <trkpt lat="45.05311" lon="1.93608">
        <ele>489</ele>
        <time>2012-09-20T09:04:47Z</time>
      </trkpt>
      <trkpt lat="45.05275" lon="1.93598">
        <ele>495.1</ele>
        <time>2012-09-20T09:04:48Z</time>
      </trkpt>
      <trkpt lat="45.05172" lon="1.93559">
        <ele>506.4</ele>
        <time>2012-09-20T09:04:53Z</time>
      </trkpt>
      <trkpt lat="45.05114" lon="1.93634">
        <ele>516</ele>
        <time>2012-09-20T09:05:01Z</time>
      </trkpt>
      <trkpt lat="45.05089" lon="1.93666">
        <ele>518.7</ele>
        <time>2012-09-20T09:05:12Z</time>
      </trkpt>
      <trkpt lat="45.05036" lon="1.93666">
        <ele>516.1</ele>
        <time>2012-09-20T09:05:21Z</time>
      </trkpt>
      <trkpt lat="45.04996" lon="1.93653">
        <ele>513.9</ele>
        <time>2012-09-20T09:05:30Z</time>
      </trkpt>
      <trkpt lat="45.04962" lon="1.93658">
        <ele>514.4</ele>
        <time>2012-09-20T09:05:40Z</time>
      </trkpt>
      <trkpt lat="45.04913" lon="1.9367">
        <ele>514.5</ele>
        <time>2012-09-20T09:05:49Z</time>
      </trkpt>
      <trkpt lat="45.04892" lon="1.93688">
        <ele>511.2</ele>
        <time>2012-09-20T09:05:59Z</time>
      </trkpt>
      <trkpt lat="45.04864" lon="1.93714">
        <ele>507.6</ele>
        <time>2012-09-20T09:06:15Z</time>
      </trkpt>
      <trkpt lat="45.04836" lon="1.93715">
        <ele>519.2</ele>
        <time>2012-09-20T09:06:24Z</time>
      </trkpt>
      <trkpt lat="45.04837" lon="1.93721">
        <ele>517.8</ele>
        <time>2012-09-20T09:06:31Z</time>
      </trkpt>
      <trkpt lat="45.04836" lon="1.93723">
        <ele>518.3</ele>
        <time>2012-09-20T09:06:37Z</time>
      </trkpt>
      <trkpt lat="45.04834" lon="1.93724">
        <ele>518.3</ele>
        <time>2012-09-20T09:06:38Z</time>
      </trkpt>
      <trkpt lat="45.04817" lon="1.93734">
        <ele>519.7</ele>
        <time>2012-09-20T09:06:43Z</time>
      </trkpt>
      <trkpt lat="45.04778" lon="1.93757">
        <ele>522.1</ele>
        <time>2012-09-20T09:06:50Z</time>
      </trkpt>
      <trkpt lat="45.04726" lon="1.93788">
        <ele>525</ele>
        <time>2012-09-20T09:06:58Z</time>
      </trkpt>
      <trkpt lat="45.04719" lon="1.93791">
        <ele>525</ele>
        <time>2012-09-20T09:06:59Z</time>
      </trkpt>
      <trkpt lat="45.04711" lon="1.93793">
        <ele>525.5</ele>
        <time>2012-09-20T09:07:00Z</time>
      </trkpt>
      <trkpt lat="45.04696" lon="1.93797">
        <ele>526.9</ele>
        <time>2012-09-20T09:07:02Z</time>
      </trkpt>
      <trkpt lat="45.04635" lon="1.93814">
        <ele>527.9</ele>
        <time>2012-09-20T09:07:10Z</time>
      </trkpt>
      <trkpt lat="45.04583" lon="1.93823">
        <ele>527.4</ele>
        <time>2012-09-20T09:07:17Z</time>
      </trkpt>
      <trkpt lat="45.04556" lon="1.93823">
        <ele>528.4</ele>
        <time>2012-09-20T09:07:21Z</time>
      </trkpt>
      <trkpt lat="45.04534" lon="1.93826">
        <ele>527.9</ele>
        <time>2012-09-20T09:07:24Z</time>
      </trkpt>
      <trkpt lat="45.04527" lon="1.93829">
        <ele>527.4</ele>
        <time>2012-09-20T09:07:25Z</time>
      </trkpt>
      <trkpt lat="45.0452" lon="1.93834">
        <ele>527.9</ele>
        <time>2012-09-20T09:07:26Z</time>
      </trkpt>
      <trkpt lat="45.04514" lon="1.93841">
        <ele>528.9</ele>
        <time>2012-09-20T09:07:27Z</time>
      </trkpt>
      <trkpt lat="45.04508" lon="1.93848">
        <ele>528.9</ele>
        <time>2012-09-20T09:07:28Z</time>
      </trkpt>
      <trkpt lat="45.04497" lon="1.93861">
        <ele>530.8</ele>
        <time>2012-09-20T09:07:30Z</time>
      </trkpt>
      <trkpt lat="45.04444" lon="1.9391">
        <ele>534.2</ele>
        <time>2012-09-20T09:07:39Z</time>
      </trkpt>
      <trkpt lat="45.04438" lon="1.93914">
        <ele>534.6</ele>
        <time>2012-09-20T09:07:40Z</time>
      </trkpt>
      <trkpt lat="45.04394" lon="1.93919">
        <ele>535.6</ele>
        <time>2012-09-20T09:07:46Z</time>
      </trkpt>
      <trkpt lat="45.04339" lon="1.93901">
        <ele>535.1</ele>
        <time>2012-09-20T09:07:53Z</time>
      </trkpt>
      <trkpt lat="45.04315" lon="1.93894">
        <ele>534.6</ele>
        <time>2012-09-20T09:07:56Z</time>
      </trkpt>
      <trkpt lat="45.04307" lon="1.93894">
        <ele>534.2</ele>
        <time>2012-09-20T09:07:57Z</time>
      </trkpt>
      <trkpt lat="45.04299" lon="1.93896">
        <ele>534.6</ele>
        <time>2012-09-20T09:07:58Z</time>
      </trkpt>
      <trkpt lat="45.04292" lon="1.939">
        <ele>535.1</ele>
        <time>2012-09-20T09:07:59Z</time>
      </trkpt>
      <trkpt lat="45.04285" lon="1.93904">
        <ele>535.1</ele>
        <time>2012-09-20T09:08:00Z</time>
      </trkpt>
      <trkpt lat="45.04237" lon="1.93931">
        <ele>537.5</ele>
        <time>2012-09-20T09:08:06Z</time>
      </trkpt>
      <trkpt lat="45.04166" lon="1.93957">
        <ele>541.4</ele>
        <time>2012-09-20T09:08:14Z</time>
      </trkpt>
      <trkpt lat="45.04147" lon="1.93961">
        <ele>542.3</ele>
        <time>2012-09-20T09:08:16Z</time>
      </trkpt>
      <trkpt lat="45.04137" lon="1.93961">
        <ele>542.8</ele>
        <time>2012-09-20T09:08:17Z</time>
      </trkpt>
      <trkpt lat="45.04106" lon="1.9396">
        <ele>546.2</ele>
        <time>2012-09-20T09:08:20Z</time>
      </trkpt>
      <trkpt lat="45.0407" lon="1.93954">
        <ele>549.5</ele>
        <time>2012-09-20T09:08:24Z</time>
      </trkpt>
      <trkpt lat="45.04062" lon="1.93951">
        <ele>549.5</ele>
        <time>2012-09-20T09:08:25Z</time>
      </trkpt>
      <trkpt lat="45.0401" lon="1.93924">
        <ele>550.5</ele>
        <time>2012-09-20T09:08:31Z</time>
      </trkpt>
      <trkpt lat="45.03964" lon="1.93906">
        <ele>553.9</ele>
        <time>2012-09-20T09:08:36Z</time>
      </trkpt>
      <trkpt lat="45.03926" lon="1.93891">
        <ele>556.7</ele>
        <time>2012-09-20T09:08:40Z</time>
      </trkpt>
      <trkpt lat="45.03888" lon="1.93864">
        <ele>557.7</ele>
        <time>2012-09-20T09:08:45Z</time>
      </trkpt>
      <trkpt lat="45.03834" lon="1.93805">
        <ele>558.7</ele>
        <time>2012-09-20T09:08:54Z</time>
      </trkpt>
      <trkpt lat="45.03791" lon="1.93745">
        <ele>556.7</ele>
        <time>2012-09-20T09:09:03Z</time>
      </trkpt>
      <trkpt lat="45.03787" lon="1.93741">
        <ele>556.3</ele>
        <time>2012-09-20T09:09:04Z</time>
      </trkpt>
      <trkpt lat="45.03784" lon="1.93739">
        <ele>556.3</ele>
        <time>2012-09-20T09:09:05Z</time>
      </trkpt>
      <trkpt lat="45.03781" lon="1.93739">
        <ele>556.3</ele>
        <time>2012-09-20T09:09:06Z</time>
      </trkpt>
      <trkpt lat="45.03778" lon="1.9374">
        <ele>556.3</ele>
        <time>2012-09-20T09:09:07Z</time>
      </trkpt>
      <trkpt lat="45.03772" lon="1.93746">
        <ele>557.2</ele>
        <time>2012-09-20T09:09:09Z</time>
      </trkpt>
      <trkpt lat="45.03733" lon="1.93795">
        <ele>559.6</ele>
        <time>2012-09-20T09:09:22Z</time>
      </trkpt>
      <trkpt lat="45.03721" lon="1.93815">
        <ele>559.1</ele>
        <time>2012-09-20T09:09:28Z</time>
      </trkpt>
      <trkpt lat="45.03709" lon="1.93811">
        <ele>558.2</ele>
        <time>2012-09-20T09:09:33Z</time>
      </trkpt>
      <trkpt lat="45.0369" lon="1.93785">
        <ele>556.7</ele>
        <time>2012-09-20T09:09:39Z</time>
      </trkpt>
      <trkpt lat="45.03652" lon="1.93734">
        <ele>555.8</ele>
        <time>2012-09-20T09:09:51Z</time>
      </trkpt>
      <trkpt lat="45.0364" lon="1.9371">
        <ele>555.3</ele>
        <time>2012-09-20T09:09:58Z</time>
      </trkpt>
      <trkpt lat="45.03633" lon="1.93679">
        <ele>555.8</ele>
        <time>2012-09-20T09:10:06Z</time>
      </trkpt>
      <trkpt lat="45.03631" lon="1.9363">
        <ele>556.7</ele>
        <time>2012-09-20T09:10:18Z</time>
      </trkpt>
      <trkpt lat="45.03633" lon="1.93613">
        <ele>555.8</ele>
        <time>2012-09-20T09:10:22Z</time>
      </trkpt>
      <trkpt lat="45.03634" lon="1.93594">
        <ele>553.9</ele>
        <time>2012-09-20T09:10:26Z</time>
      </trkpt>
      <trkpt lat="45.03628" lon="1.93573">
        <ele>552.9</ele>
        <time>2012-09-20T09:10:32Z</time>
      </trkpt>
      <trkpt lat="45.03608" lon="1.93566">
        <ele>552.9</ele>
        <time>2012-09-20T09:10:41Z</time>
      </trkpt>
      <trkpt lat="45.036" lon="1.93565">
        <ele>552.9</ele>
        <time>2012-09-20T09:10:45Z</time>
      </trkpt>
      <trkpt lat="45.03596" lon="1.93566">
        <ele>543.8</ele>
        <time>2012-09-20T09:10:46Z</time>
      </trkpt>
      <trkpt lat="45.03592" lon="1.93568">
        <ele>555.3</ele>
        <time>2012-09-20T09:10:47Z</time>
      </trkpt>
      <trkpt lat="45.03586" lon="1.93571">
        <ele>558.2</ele>
        <time>2012-09-20T09:10:48Z</time>
      </trkpt>
      <trkpt lat="45.03581" lon="1.93574">
        <ele>554.8</ele>
        <time>2012-09-20T09:10:49Z</time>
      </trkpt>
      <trkpt lat="45.03573" lon="1.93576">
        <ele>554.8</ele>
        <time>2012-09-20T09:10:50Z</time>
      </trkpt>
      <trkpt lat="45.03565" lon="1.93577">
        <ele>551.9</ele>
        <time>2012-09-20T09:10:51Z</time>
      </trkpt>
      <trkpt lat="45.03556" lon="1.93577">
        <ele>555.3</ele>
        <time>2012-09-20T09:10:52Z</time>
      </trkpt>
      <trkpt lat="45.03548" lon="1.93577">
        <ele>558.7</ele>
        <time>2012-09-20T09:10:53Z</time>
      </trkpt>
      <trkpt lat="45.03538" lon="1.93577">
        <ele>549</ele>
        <time>2012-09-20T09:10:54Z</time>
      </trkpt>
      <trkpt lat="45.03528" lon="1.93576">
        <ele>556.7</ele>
        <time>2012-09-20T09:10:55Z</time>
      </trkpt>
      <trkpt lat="45.03517" lon="1.93576">
        <ele>560.1</ele>
        <time>2012-09-20T09:10:56Z</time>
      </trkpt>
      <trkpt lat="45.03505" lon="1.93576">
        <ele>556.7</ele>
        <time>2012-09-20T09:10:57Z</time>
      </trkpt>
      <trkpt lat="45.03481" lon="1.93575">
        <ele>551</ele>
        <time>2012-09-20T09:10:59Z</time>
      </trkpt>
      <trkpt lat="45.03469" lon="1.93575">
        <ele>559.6</ele>
        <time>2012-09-20T09:11:00Z</time>
      </trkpt>
      <trkpt lat="45.03457" lon="1.93574">
        <ele>559.1</ele>
        <time>2012-09-20T09:11:01Z</time>
      </trkpt>
      <trkpt lat="45.03397" lon="1.93569">
        <ele>555.8</ele>
        <time>2012-09-20T09:11:07Z</time>
      </trkpt>
      <trkpt lat="45.03388" lon="1.93566">
        <ele>554.3</ele>
        <time>2012-09-20T09:11:10Z</time>
      </trkpt>
      <trkpt lat="45.03387" lon="1.93566">
        <ele>554.8</ele>
        <time>2012-09-20T09:11:20Z</time>
      </trkpt>
      <trkpt lat="45.03386" lon="1.93565">
        <ele>554.8</ele>
        <time>2012-09-20T09:11:26Z</time>
      </trkpt>
      <trkpt lat="45.03385" lon="1.93564">
        <ele>554.3</ele>
        <time>2012-09-20T09:11:27Z</time>
      </trkpt>
      <trkpt lat="45.03372" lon="1.93561">
        <ele>555.3</ele>
        <time>2012-09-20T09:11:31Z</time>
      </trkpt>
      <trkpt lat="45.03336" lon="1.93555">
        <ele>555.3</ele>
        <time>2012-09-20T09:11:37Z</time>
      </trkpt>
      <trkpt lat="45.03303" lon="1.93551">
        <ele>550</ele>
        <time>2012-09-20T09:11:41Z</time>
      </trkpt>
      <trkpt lat="45.03294" lon="1.9355">
        <ele>557.2</ele>
        <time>2012-09-20T09:11:42Z</time>
      </trkpt>
      <trkpt lat="45.03276" lon="1.93549">
        <ele>558.7</ele>
        <time>2012-09-20T09:11:44Z</time>
      </trkpt>
      <trkpt lat="45.03257" lon="1.93546">
        <ele>556.3</ele>
        <time>2012-09-20T09:11:46Z</time>
      </trkpt>
      <trkpt lat="45.03191" lon="1.93534">
        <ele>558.2</ele>
        <time>2012-09-20T09:11:52Z</time>
      </trkpt>
      <trkpt lat="45.03169" lon="1.93529">
        <ele>553.9</ele>
        <time>2012-09-20T09:11:54Z</time>
      </trkpt>
      <trkpt lat="45.03157" lon="1.93527">
        <ele>553.9</ele>
        <time>2012-09-20T09:11:55Z</time>
      </trkpt>
      <trkpt lat="45.03099" lon="1.93522">
        <ele>557.2</ele>
        <time>2012-09-20T09:12:00Z</time>
      </trkpt>
      <trkpt lat="45.03065" lon="1.93525">
        <ele>555.3</ele>
        <time>2012-09-20T09:12:03Z</time>
      </trkpt>
      <trkpt lat="45.03042" lon="1.93527">
        <ele>551.5</ele>
        <time>2012-09-20T09:12:05Z</time>
      </trkpt>
      <trkpt lat="45.0303" lon="1.93528">
        <ele>554.8</ele>
        <time>2012-09-20T09:12:06Z</time>
      </trkpt>
      <trkpt lat="45.0302" lon="1.93529">
        <ele>551</ele>
        <time>2012-09-20T09:12:07Z</time>
      </trkpt>
      <trkpt lat="45.03009" lon="1.93529">
        <ele>554.3</ele>
        <time>2012-09-20T09:12:08Z</time>
      </trkpt>
      <trkpt lat="45.02988" lon="1.93531">
        <ele>548.1</ele>
        <time>2012-09-20T09:12:10Z</time>
      </trkpt>
      <trkpt lat="45.02977" lon="1.93532">
        <ele>555.3</ele>
        <time>2012-09-20T09:12:11Z</time>
      </trkpt>
      <trkpt lat="45.02966" lon="1.93533">
        <ele>551.5</ele>
        <time>2012-09-20T09:12:12Z</time>
      </trkpt>
      <trkpt lat="45.02929" lon="1.93528">
        <ele>548.6</ele>
        <time>2012-09-20T09:12:16Z</time>
      </trkpt>
      <trkpt lat="45.0292" lon="1.93524">
        <ele>547.6</ele>
        <time>2012-09-20T09:12:17Z</time>
      </trkpt>
      <trkpt lat="45.02912" lon="1.93519">
        <ele>547.6</ele>
        <time>2012-09-20T09:12:18Z</time>
      </trkpt>
      <trkpt lat="45.02904" lon="1.93512">
        <ele>547.6</ele>
        <time>2012-09-20T09:12:19Z</time>
      </trkpt>
      <trkpt lat="45.02897" lon="1.93504">
        <ele>546.2</ele>
        <time>2012-09-20T09:12:20Z</time>
      </trkpt>
      <trkpt lat="45.0289" lon="1.93496">
        <ele>545.7</ele>
        <time>2012-09-20T09:12:21Z</time>
      </trkpt>
      <trkpt lat="45.02883" lon="1.93486">
        <ele>545.7</ele>
        <time>2012-09-20T09:12:22Z</time>
      </trkpt>
      <trkpt lat="45.02863" lon="1.93456">
        <ele>544.2</ele>
        <time>2012-09-20T09:12:25Z</time>
      </trkpt>
      <trkpt lat="45.02845" lon="1.93428">
        <ele>539</ele>
        <time>2012-09-20T09:12:28Z</time>
      </trkpt>
      <trkpt lat="45.02836" lon="1.93414">
        <ele>540.4</ele>
        <time>2012-09-20T09:12:30Z</time>
      </trkpt>
      <trkpt lat="45.02831" lon="1.93409">
        <ele>538</ele>
        <time>2012-09-20T09:12:31Z</time>
      </trkpt>
      <trkpt lat="45.02823" lon="1.93404">
        <ele>536.5</ele>
        <time>2012-09-20T09:12:33Z</time>
      </trkpt>
      <trkpt lat="45.02819" lon="1.93404">
        <ele>536.5</ele>
        <time>2012-09-20T09:12:34Z</time>
      </trkpt>
      <trkpt lat="45.02815" lon="1.93404">
        <ele>536.5</ele>
        <time>2012-09-20T09:12:35Z</time>
      </trkpt>
      <trkpt lat="45.0281" lon="1.93405">
        <ele>536.1</ele>
        <time>2012-09-20T09:12:36Z</time>
      </trkpt>
      <trkpt lat="45.02807" lon="1.93407">
        <ele>536.5</ele>
        <time>2012-09-20T09:12:37Z</time>
      </trkpt>
      <trkpt lat="45.02803" lon="1.93409">
        <ele>536.1</ele>
        <time>2012-09-20T09:12:38Z</time>
      </trkpt>
      <trkpt lat="45.0277" lon="1.93429">
        <ele>536.1</ele>
        <time>2012-09-20T09:12:46Z</time>
      </trkpt>
      <trkpt lat="45.02715" lon="1.93462">
        <ele>538</ele>
        <time>2012-09-20T09:12:59Z</time>
      </trkpt>
      <trkpt lat="45.02672" lon="1.93486">
        <ele>537.5</ele>
        <time>2012-09-20T09:13:09Z</time>
      </trkpt>
      <trkpt lat="45.02623" lon="1.9351">
        <ele>539</ele>
        <time>2012-09-20T09:13:19Z</time>
      </trkpt>
      <trkpt lat="45.02579" lon="1.93525">
        <ele>539.4</ele>
        <time>2012-09-20T09:13:28Z</time>
      </trkpt>
      <trkpt lat="45.02536" lon="1.9353">
        <ele>539.4</ele>
        <time>2012-09-20T09:13:37Z</time>
      </trkpt>
      <trkpt lat="45.02491" lon="1.93534">
        <ele>537.5</ele>
        <time>2012-09-20T09:13:47Z</time>
      </trkpt>
      <trkpt lat="45.02453" lon="1.93532">
        <ele>536.1</ele>
        <time>2012-09-20T09:13:55Z</time>
      </trkpt>
      <trkpt lat="45.02448" lon="1.93532">
        <ele>531.3</ele>
        <time>2012-09-20T09:13:56Z</time>
      </trkpt>
      <trkpt lat="45.02443" lon="1.93532">
        <ele>535.6</ele>
        <time>2012-09-20T09:13:57Z</time>
      </trkpt>
      <trkpt lat="45.02424" lon="1.93531">
        <ele>533.7</ele>
        <time>2012-09-20T09:14:01Z</time>
      </trkpt>
      <trkpt lat="45.02419" lon="1.9353">
        <ele>533.2</ele>
        <time>2012-09-20T09:14:02Z</time>
      </trkpt>
      <trkpt lat="45.0238" lon="1.93518">
        <ele>532.2</ele>
        <time>2012-09-20T09:14:10Z</time>
      </trkpt>
      <trkpt lat="45.02346" lon="1.93506">
        <ele>533.7</ele>
        <time>2012-09-20T09:14:18Z</time>
      </trkpt>
      <trkpt lat="45.02342" lon="1.93503">
        <ele>533.7</ele>
        <time>2012-09-20T09:14:19Z</time>
      </trkpt>
      <trkpt lat="45.02338" lon="1.935">
        <ele>533.2</ele>
        <time>2012-09-20T09:14:20Z</time>
      </trkpt>
      <trkpt lat="45.02335" lon="1.93496">
        <ele>533.7</ele>
        <time>2012-09-20T09:14:21Z</time>
      </trkpt>
      <trkpt lat="45.02331" lon="1.93492">
        <ele>533.7</ele>
        <time>2012-09-20T09:14:22Z</time>
      </trkpt>
      <trkpt lat="45.02297" lon="1.93464">
        <ele>534.2</ele>
        <time>2012-09-20T09:14:31Z</time>
      </trkpt>
      <trkpt lat="45.02272" lon="1.93444">
        <ele>537</ele>
        <time>2012-09-20T09:14:38Z</time>
      </trkpt>
      <trkpt lat="45.02245" lon="1.93414">
        <ele>535.6</ele>
        <time>2012-09-20T09:14:45Z</time>
      </trkpt>
      <trkpt lat="45.02212" lon="1.93382">
        <ele>534.6</ele>
        <time>2012-09-20T09:14:54Z</time>
      </trkpt>
      <trkpt lat="45.0218" lon="1.93349">
        <ele>532.2</ele>
        <time>2012-09-20T09:15:02Z</time>
      </trkpt>
      <trkpt lat="45.02147" lon="1.93333">
        <ele>530.8</ele>
        <time>2012-09-20T09:15:10Z</time>
      </trkpt>
      <trkpt lat="45.02132" lon="1.93319">
        <ele>529.3</ele>
        <time>2012-09-20T09:15:14Z</time>
      </trkpt>
      <trkpt lat="45.02129" lon="1.93315">
        <ele>529.3</ele>
        <time>2012-09-20T09:15:15Z</time>
      </trkpt>
      <trkpt lat="45.02111" lon="1.9329">
        <ele>528.4</ele>
        <time>2012-09-20T09:15:22Z</time>
      </trkpt>
      <trkpt lat="45.0211" lon="1.93287">
        <ele>527.9</ele>
        <time>2012-09-20T09:15:28Z</time>
      </trkpt>
      <trkpt lat="45.0211" lon="1.93287">
        <ele>528.9</ele>
        <time>2012-09-20T09:15:47Z</time>
      </trkpt>
      <trkpt lat="45.02111" lon="1.93288">
        <ele>528.9</ele>
        <time>2012-09-20T09:15:57Z</time>
      </trkpt>
      <trkpt lat="45.02111" lon="1.93289">
        <ele>527.9</ele>
        <time>2012-09-20T09:16:04Z</time>
      </trkpt>
      <trkpt lat="45.02103" lon="1.93279">
        <ele>528.9</ele>
        <time>2012-09-20T09:16:09Z</time>
      </trkpt>
      <trkpt lat="45.02101" lon="1.93274">
        <ele>529.3</ele>
        <time>2012-09-20T09:16:10Z</time>
      </trkpt>
      <trkpt lat="45.02095" lon="1.93263">
        <ele>530.3</ele>
        <time>2012-09-20T09:16:12Z</time>
      </trkpt>
      <trkpt lat="45.02085" lon="1.93239">
        <ele>531.8</ele>
        <time>2012-09-20T09:16:16Z</time>
      </trkpt>
      <trkpt lat="45.02084" lon="1.93233">
        <ele>531.3</ele>
        <time>2012-09-20T09:16:17Z</time>
      </trkpt>
      <trkpt lat="45.02081" lon="1.93221">
        <ele>531.3</ele>
        <time>2012-09-20T09:16:21Z</time>
      </trkpt>
      <trkpt lat="45.0208" lon="1.93208">
        <ele>531.8</ele>
        <time>2012-09-20T09:16:27Z</time>
      </trkpt>
      <trkpt lat="45.02079" lon="1.9317">
        <ele>531.8</ele>
        <time>2012-09-20T09:16:32Z</time>
      </trkpt>
      <trkpt lat="45.02083" lon="1.93116">
        <ele>529.8</ele>
        <time>2012-09-20T09:16:37Z</time>
      </trkpt>
      <trkpt lat="45.02088" lon="1.93093">
        <ele>529.8</ele>
        <time>2012-09-20T09:16:39Z</time>
      </trkpt>
      <trkpt lat="45.02092" lon="1.93082">
        <ele>529.3</ele>
        <time>2012-09-20T09:16:40Z</time>
      </trkpt>
      <trkpt lat="45.02102" lon="1.93062">
        <ele>528.4</ele>
        <time>2012-09-20T09:16:42Z</time>
      </trkpt>
      <trkpt lat="45.02108" lon="1.93053">
        <ele>527.4</ele>
        <time>2012-09-20T09:16:43Z</time>
      </trkpt>
      <trkpt lat="45.02122" lon="1.93035">
        <ele>526.9</ele>
        <time>2012-09-20T09:16:45Z</time>
      </trkpt>
      <trkpt lat="45.02136" lon="1.93016">
        <ele>525</ele>
        <time>2012-09-20T09:16:47Z</time>
      </trkpt>
      <trkpt lat="45.02141" lon="1.93005">
        <ele>524.1</ele>
        <time>2012-09-20T09:16:48Z</time>
      </trkpt>
      <trkpt lat="45.02145" lon="1.92994">
        <ele>523.6</ele>
        <time>2012-09-20T09:16:49Z</time>
      </trkpt>
      <trkpt lat="45.02148" lon="1.92982">
        <ele>523.6</ele>
        <time>2012-09-20T09:16:50Z</time>
      </trkpt>
      <trkpt lat="45.0215" lon="1.92972">
        <ele>523.1</ele>
        <time>2012-09-20T09:16:51Z</time>
      </trkpt>
      <trkpt lat="45.02148" lon="1.92961">
        <ele>523.1</ele>
        <time>2012-09-20T09:16:52Z</time>
      </trkpt>
      <trkpt lat="45.02143" lon="1.92952">
        <ele>522.1</ele>
        <time>2012-09-20T09:16:53Z</time>
      </trkpt>
      <trkpt lat="45.0214" lon="1.92946">
        <ele>522.6</ele>
        <time>2012-09-20T09:16:54Z</time>
      </trkpt>
      <trkpt lat="45.02129" lon="1.92929">
        <ele>522.1</ele>
        <time>2012-09-20T09:16:57Z</time>
      </trkpt>
      <trkpt lat="45.02121" lon="1.9292">
        <ele>521.7</ele>
        <time>2012-09-20T09:16:58Z</time>
      </trkpt>
      <trkpt lat="45.02077" lon="1.92867">
        <ele>520.7</ele>
        <time>2012-09-20T09:17:02Z</time>
      </trkpt>
      <trkpt lat="45.02025" lon="1.92784">
        <ele>521.2</ele>
        <time>2012-09-20T09:17:09Z</time>
      </trkpt>
      <trkpt lat="45.02011" lon="1.92734">
        <ele>524.5</ele>
        <time>2012-09-20T09:17:12Z</time>
      </trkpt>
      <trkpt lat="45.02007" lon="1.92716">
        <ele>520.2</ele>
        <time>2012-09-20T09:17:13Z</time>
      </trkpt>
      <trkpt lat="45.01981" lon="1.92627">
        <ele>518.8</ele>
        <time>2012-09-20T09:17:18Z</time>
      </trkpt>
      <trkpt lat="45.01941" lon="1.92535">
        <ele>519.7</ele>
        <time>2012-09-20T09:17:24Z</time>
      </trkpt>
      <trkpt lat="45.01922" lon="1.92494">
        <ele>518.3</ele>
        <time>2012-09-20T09:17:27Z</time>
      </trkpt>
      <trkpt lat="45.01914" lon="1.92482">
        <ele>517.8</ele>
        <time>2012-09-20T09:17:28Z</time>
      </trkpt>
      <trkpt lat="45.01899" lon="1.92458">
        <ele>517.3</ele>
        <time>2012-09-20T09:17:30Z</time>
      </trkpt>
      <trkpt lat="45.01856" lon="1.92409">
        <ele>514.4</ele>
        <time>2012-09-20T09:17:35Z</time>
      </trkpt>
      <trkpt lat="45.01805" lon="1.92372">
        <ele>510.6</ele>
        <time>2012-09-20T09:17:40Z</time>
      </trkpt>
      <trkpt lat="45.01794" lon="1.92365">
        <ele>510.6</ele>
        <time>2012-09-20T09:17:41Z</time>
      </trkpt>
      <trkpt lat="45.0176" lon="1.92342">
        <ele>507.2</ele>
        <time>2012-09-20T09:17:44Z</time>
      </trkpt>
      <trkpt lat="45.01706" lon="1.92293">
        <ele>503.9</ele>
        <time>2012-09-20T09:17:49Z</time>
      </trkpt>
      <trkpt lat="45.01663" lon="1.92264">
        <ele>504.4</ele>
        <time>2012-09-20T09:17:53Z</time>
      </trkpt>
      <trkpt lat="45.01652" lon="1.92259">
        <ele>504.4</ele>
        <time>2012-09-20T09:17:54Z</time>
      </trkpt>
      <trkpt lat="45.01641" lon="1.92257">
        <ele>503.9</ele>
        <time>2012-09-20T09:17:55Z</time>
      </trkpt>
      <trkpt lat="45.01597" lon="1.92254">
        <ele>505.3</ele>
        <time>2012-09-20T09:18:00Z</time>
      </trkpt>
      <trkpt lat="45.01566" lon="1.92256">
        <ele>507.2</ele>
        <time>2012-09-20T09:18:04Z</time>
      </trkpt>
      <trkpt lat="45.01538" lon="1.92261">
        <ele>508.2</ele>
        <time>2012-09-20T09:18:09Z</time>
      </trkpt>
      <trkpt lat="45.01514" lon="1.92256">
        <ele>510.1</ele>
        <time>2012-09-20T09:18:16Z</time>
      </trkpt>
      <trkpt lat="45.0151" lon="1.92252">
        <ele>510.1</ele>
        <time>2012-09-20T09:18:17Z</time>
      </trkpt>
      <trkpt lat="45.01505" lon="1.92248">
        <ele>510.1</ele>
        <time>2012-09-20T09:18:18Z</time>
      </trkpt>
      <trkpt lat="45.015" lon="1.92243">
        <ele>511.1</ele>
        <time>2012-09-20T09:18:19Z</time>
      </trkpt>
      <trkpt lat="45.01467" lon="1.92202">
        <ele>508.7</ele>
        <time>2012-09-20T09:18:25Z</time>
      </trkpt>
      <trkpt lat="45.01447" lon="1.92185">
        <ele>506.8</ele>
        <time>2012-09-20T09:18:28Z</time>
      </trkpt>
      <trkpt lat="45.01434" lon="1.92178">
        <ele>504.4</ele>
        <time>2012-09-20T09:18:30Z</time>
      </trkpt>
      <trkpt lat="45.01411" lon="1.92159">
        <ele>502</ele>
        <time>2012-09-20T09:18:34Z</time>
      </trkpt>
      <trkpt lat="45.01392" lon="1.92135">
        <ele>498.6</ele>
        <time>2012-09-20T09:18:38Z</time>
      </trkpt>
      <trkpt lat="45.01372" lon="1.92105">
        <ele>494.3</ele>
        <time>2012-09-20T09:18:43Z</time>
      </trkpt>
      <trkpt lat="45.01368" lon="1.92102">
        <ele>493.8</ele>
        <time>2012-09-20T09:18:44Z</time>
      </trkpt>
      <trkpt lat="45.01358" lon="1.92096">
        <ele>492.8</ele>
        <time>2012-09-20T09:18:46Z</time>
      </trkpt>
      <trkpt lat="45.01353" lon="1.92094">
        <ele>492.3</ele>
        <time>2012-09-20T09:18:47Z</time>
      </trkpt>
      <trkpt lat="45.01348" lon="1.92093">
        <ele>491.9</ele>
        <time>2012-09-20T09:18:48Z</time>
      </trkpt>
      <trkpt lat="45.01343" lon="1.92092">
        <ele>490.4</ele>
        <time>2012-09-20T09:18:49Z</time>
      </trkpt>
      <trkpt lat="45.01338" lon="1.92092">
        <ele>491.4</ele>
        <time>2012-09-20T09:18:50Z</time>
      </trkpt>
      <trkpt lat="45.01323" lon="1.92091">
        <ele>489.5</ele>
        <time>2012-09-20T09:18:53Z</time>
      </trkpt>
      <trkpt lat="45.01306" lon="1.92091">
        <ele>488</ele>
        <time>2012-09-20T09:18:56Z</time>
      </trkpt>
      <trkpt lat="45.013" lon="1.92091">
        <ele>487.5</ele>
        <time>2012-09-20T09:18:57Z</time>
      </trkpt>
      <trkpt lat="45.01294" lon="1.9209">
        <ele>487</ele>
        <time>2012-09-20T09:18:58Z</time>
      </trkpt>
      <trkpt lat="45.01288" lon="1.92088">
        <ele>486.1</ele>
        <time>2012-09-20T09:18:59Z</time>
      </trkpt>
      <trkpt lat="45.01282" lon="1.92086">
        <ele>485.1</ele>
        <time>2012-09-20T09:19:00Z</time>
      </trkpt>
      <trkpt lat="45.01276" lon="1.92083">
        <ele>485.1</ele>
        <time>2012-09-20T09:19:01Z</time>
      </trkpt>
      <trkpt lat="45.01271" lon="1.92079">
        <ele>483.2</ele>
        <time>2012-09-20T09:19:02Z</time>
      </trkpt>
      <trkpt lat="45.01267" lon="1.92074">
        <ele>482.7</ele>
        <time>2012-09-20T09:19:03Z</time>
      </trkpt>
      <trkpt lat="45.01263" lon="1.9207">
        <ele>481.8</ele>
        <time>2012-09-20T09:19:04Z</time>
      </trkpt>
      <trkpt lat="45.0126" lon="1.92064">
        <ele>481.8</ele>
        <time>2012-09-20T09:19:05Z</time>
      </trkpt>
      <trkpt lat="45.01239" lon="1.92036">
        <ele>480.8</ele>
        <time>2012-09-20T09:19:09Z</time>
      </trkpt>
      <trkpt lat="45.01201" lon="1.91988">
        <ele>478.4</ele>
        <time>2012-09-20T09:19:14Z</time>
      </trkpt>
      <trkpt lat="45.01184" lon="1.91965">
        <ele>476.5</ele>
        <time>2012-09-20T09:19:16Z</time>
      </trkpt>
      <trkpt lat="45.01126" lon="1.91888">
        <ele>474.1</ele>
        <time>2012-09-20T09:19:22Z</time>
      </trkpt>
      <trkpt lat="45.01057" lon="1.91796">
        <ele>473.1</ele>
        <time>2012-09-20T09:19:29Z</time>
      </trkpt>
      <trkpt lat="45.01032" lon="1.91758">
        <ele>473.6</ele>
        <time>2012-09-20T09:19:32Z</time>
      </trkpt>
      <trkpt lat="45.01026" lon="1.91744">
        <ele>474.5</ele>
        <time>2012-09-20T09:19:33Z</time>
      </trkpt>
      <trkpt lat="45.0102" lon="1.91729">
        <ele>475</ele>
        <time>2012-09-20T09:19:34Z</time>
      </trkpt>
      <trkpt lat="45.00989" lon="1.9164">
        <ele>475</ele>
        <time>2012-09-20T09:19:40Z</time>
      </trkpt>
      <trkpt lat="45.00946" lon="1.91544">
        <ele>472.6</ele>
        <time>2012-09-20T09:19:47Z</time>
      </trkpt>
      <trkpt lat="45.0094" lon="1.91531">
        <ele>472.6</ele>
        <time>2012-09-20T09:19:48Z</time>
      </trkpt>
      <trkpt lat="45.00923" lon="1.91491">
        <ele>471.7</ele>
        <time>2012-09-20T09:19:52Z</time>
      </trkpt>
      <trkpt lat="45.00907" lon="1.91436">
        <ele>470.7</ele>
        <time>2012-09-20T09:19:57Z</time>
      </trkpt>
      <trkpt lat="45.00903" lon="1.91389">
        <ele>466.9</ele>
        <time>2012-09-20T09:20:01Z</time>
      </trkpt>
      <trkpt lat="45.009" lon="1.91365">
        <ele>464</ele>
        <time>2012-09-20T09:20:04Z</time>
      </trkpt>
      <trkpt lat="45.009" lon="1.91353">
        <ele>463</ele>
        <time>2012-09-20T09:20:06Z</time>
      </trkpt>
      <trkpt lat="45.00901" lon="1.91348">
        <ele>462.5</ele>
        <time>2012-09-20T09:20:10Z</time>
      </trkpt>
      <trkpt lat="45.00901" lon="1.91348">
        <ele>462</ele>
        <time>2012-09-20T09:20:24Z</time>
      </trkpt>
      <trkpt lat="45.00901" lon="1.91348">
        <ele>461.6</ele>
        <time>2012-09-20T09:20:36Z</time>
      </trkpt>
      <trkpt lat="45.00901" lon="1.91348">
        <ele>461.6</ele>
        <time>2012-09-20T09:20:45Z</time>
      </trkpt>
      <trkpt lat="45.00901" lon="1.91346">
        <ele>461.1</ele>
        <time>2012-09-20T09:20:49Z</time>
      </trkpt>
      <trkpt lat="45.009" lon="1.91345">
        <ele>461.1</ele>
        <time>2012-09-20T09:20:50Z</time>
      </trkpt>
      <trkpt lat="45.00898" lon="1.91345">
        <ele>451</ele>
        <time>2012-09-20T09:20:51Z</time>
      </trkpt>
      <trkpt lat="45.00897" lon="1.91344">
        <ele>459.6</ele>
        <time>2012-09-20T09:20:52Z</time>
      </trkpt>
      <trkpt lat="45.00895" lon="1.91342">
        <ele>466.4</ele>
        <time>2012-09-20T09:20:54Z</time>
      </trkpt>
      <trkpt lat="45.00893" lon="1.91341">
        <ele>464</ele>
        <time>2012-09-20T09:20:55Z</time>
      </trkpt>
      <trkpt lat="45.00888" lon="1.91336">
        <ele>465.9</ele>
        <time>2012-09-20T09:21:00Z</time>
      </trkpt>
      <trkpt lat="45.00887" lon="1.91336">
        <ele>464.9</ele>
        <time>2012-09-20T09:21:01Z</time>
      </trkpt>
      <trkpt lat="45.00886" lon="1.91336">
        <ele>462</ele>
        <time>2012-09-20T09:21:02Z</time>
      </trkpt>
      <trkpt lat="45.00885" lon="1.91335">
        <ele>461.6</ele>
        <time>2012-09-20T09:21:03Z</time>
      </trkpt>
      <trkpt lat="45.00884" lon="1.91334">
        <ele>461.6</ele>
        <time>2012-09-20T09:21:04Z</time>
      </trkpt>
      <trkpt lat="45.00882" lon="1.91333">
        <ele>465.4</ele>
        <time>2012-09-20T09:21:05Z</time>
      </trkpt>
      <trkpt lat="45.00881" lon="1.91333">
        <ele>462.5</ele>
        <time>2012-09-20T09:21:06Z</time>
      </trkpt>
      <trkpt lat="45.0088" lon="1.91331">
        <ele>455.8</ele>
        <time>2012-09-20T09:21:08Z</time>
      </trkpt>
      <trkpt lat="45.00879" lon="1.9133">
        <ele>463</ele>
        <time>2012-09-20T09:21:09Z</time>
      </trkpt>
      <trkpt lat="45.00875" lon="1.91325">
        <ele>469.3</ele>
        <time>2012-09-20T09:21:14Z</time>
      </trkpt>
      <trkpt lat="45.00875" lon="1.91324">
        <ele>462.5</ele>
        <time>2012-09-20T09:21:15Z</time>
      </trkpt>
      <trkpt lat="45.00875" lon="1.91321">
        <ele>461.6</ele>
        <time>2012-09-20T09:21:18Z</time>
      </trkpt>
      <trkpt lat="45.00874" lon="1.91315">
        <ele>461.1</ele>
        <time>2012-09-20T09:21:20Z</time>
      </trkpt>
      <trkpt lat="45.00873" lon="1.91311">
        <ele>460.6</ele>
        <time>2012-09-20T09:21:25Z</time>
      </trkpt>
      <trkpt lat="45.00873" lon="1.91311">
        <ele>461.6</ele>
        <time>2012-09-20T09:21:26Z</time>
      </trkpt>
      <trkpt lat="45.00874" lon="1.91304">
        <ele>460.6</ele>
        <time>2012-09-20T09:21:28Z</time>
      </trkpt>
      <trkpt lat="45.00873" lon="1.913">
        <ele>460.6</ele>
        <time>2012-09-20T09:21:29Z</time>
      </trkpt>
      <trkpt lat="45.00872" lon="1.91295">
        <ele>460.6</ele>
        <time>2012-09-20T09:21:30Z</time>
      </trkpt>
      <trkpt lat="45.00872" lon="1.91291">
        <ele>461.1</ele>
        <time>2012-09-20T09:21:31Z</time>
      </trkpt>
      <trkpt lat="45.00872" lon="1.91286">
        <ele>461.1</ele>
        <time>2012-09-20T09:21:32Z</time>
      </trkpt>
      <trkpt lat="45.00871" lon="1.91282">
        <ele>460.1</ele>
        <time>2012-09-20T09:21:33Z</time>
      </trkpt>
      <trkpt lat="45.00871" lon="1.91278">
        <ele>461.1</ele>
        <time>2012-09-20T09:21:34Z</time>
      </trkpt>
      <trkpt lat="45.00872" lon="1.91256">
        <ele>461.6</ele>
        <time>2012-09-20T09:21:40Z</time>
      </trkpt>
      <trkpt lat="45.00874" lon="1.91234">
        <ele>461.6</ele>
        <time>2012-09-20T09:21:46Z</time>
      </trkpt>
      <trkpt lat="45.00875" lon="1.91231">
        <ele>461.1</ele>
        <time>2012-09-20T09:21:50Z</time>
      </trkpt>
      <trkpt lat="45.00874" lon="1.91232">
        <ele>461.1</ele>
        <time>2012-09-20T09:21:53Z</time>
      </trkpt>
      <trkpt lat="45.00874" lon="1.9123">
        <ele>461.6</ele>
        <time>2012-09-20T09:21:54Z</time>
      </trkpt>
      <trkpt lat="45.00876" lon="1.91215">
        <ele>460.6</ele>
        <time>2012-09-20T09:21:59Z</time>
      </trkpt>
      <trkpt lat="45.00876" lon="1.91207">
        <ele>461.1</ele>
        <time>2012-09-20T09:22:04Z</time>
      </trkpt>
      <trkpt lat="45.00875" lon="1.91209">
        <ele>460.1</ele>
        <time>2012-09-20T09:22:09Z</time>
      </trkpt>
      <trkpt lat="45.00881" lon="1.91189">
        <ele>460.1</ele>
        <time>2012-09-20T09:22:15Z</time>
      </trkpt>
      <trkpt lat="45.00884" lon="1.91175">
        <ele>460.6</ele>
        <time>2012-09-20T09:22:21Z</time>
      </trkpt>
      <trkpt lat="45.00885" lon="1.91171">
        <ele>460.6</ele>
        <time>2012-09-20T09:22:23Z</time>
      </trkpt>
      <trkpt lat="45.00887" lon="1.91168">
        <ele>460.6</ele>
        <time>2012-09-20T09:22:25Z</time>
      </trkpt>
      <trkpt lat="45.00888" lon="1.91166">
        <ele>460.1</ele>
        <time>2012-09-20T09:22:31Z</time>
      </trkpt>
      <trkpt lat="45.0089" lon="1.91162">
        <ele>460.1</ele>
        <time>2012-09-20T09:22:35Z</time>
      </trkpt>
      <trkpt lat="45.00889" lon="1.91138">
        <ele>458.2</ele>
        <time>2012-09-20T09:22:41Z</time>
      </trkpt>
      <trkpt lat="45.0089" lon="1.91134">
        <ele>458.2</ele>
        <time>2012-09-20T09:22:44Z</time>
      </trkpt>
      <trkpt lat="45.0089" lon="1.91135">
        <ele>457.2</ele>
        <time>2012-09-20T09:22:48Z</time>
      </trkpt>
      <trkpt lat="45.00892" lon="1.91114">
        <ele>457.2</ele>
        <time>2012-09-20T09:22:53Z</time>
      </trkpt>
      <trkpt lat="45.00891" lon="1.911">
        <ele>456.3</ele>
        <time>2012-09-20T09:22:57Z</time>
      </trkpt>
      <trkpt lat="45.0089" lon="1.91096">
        <ele>456.8</ele>
        <time>2012-09-20T09:23:00Z</time>
      </trkpt>
      <trkpt lat="45.00888" lon="1.91098">
        <ele>456.3</ele>
        <time>2012-09-20T09:23:03Z</time>
      </trkpt>
      <trkpt lat="45.00888" lon="1.91089">
        <ele>455.3</ele>
        <time>2012-09-20T09:23:07Z</time>
      </trkpt>
      <trkpt lat="45.00885" lon="1.9107">
        <ele>453.9</ele>
        <time>2012-09-20T09:23:13Z</time>
      </trkpt>
      <trkpt lat="45.00885" lon="1.91059">
        <ele>452.4</ele>
        <time>2012-09-20T09:23:18Z</time>
      </trkpt>
      <trkpt lat="45.00886" lon="1.91055">
        <ele>451</ele>
        <time>2012-09-20T09:23:26Z</time>
      </trkpt>
      <trkpt lat="45.00885" lon="1.91051">
        <ele>449.1</ele>
        <time>2012-09-20T09:23:32Z</time>
      </trkpt>
      <trkpt lat="45.00885" lon="1.91044">
        <ele>448.1</ele>
        <time>2012-09-20T09:23:36Z</time>
      </trkpt>
      <trkpt lat="45.00884" lon="1.91036">
        <ele>447.6</ele>
        <time>2012-09-20T09:23:38Z</time>
      </trkpt>
      <trkpt lat="45.00882" lon="1.91014">
        <ele>446.2</ele>
        <time>2012-09-20T09:23:44Z</time>
      </trkpt>
      <trkpt lat="45.00881" lon="1.91005">
        <ele>446.2</ele>
        <time>2012-09-20T09:23:47Z</time>
      </trkpt>
      <trkpt lat="45.00881" lon="1.90998">
        <ele>444.8</ele>
        <time>2012-09-20T09:23:55Z</time>
      </trkpt>
      <trkpt lat="45.00881" lon="1.90988">
        <ele>444.3</ele>
        <time>2012-09-20T09:23:59Z</time>
      </trkpt>
      <trkpt lat="45.00874" lon="1.90964">
        <ele>443.3</ele>
        <time>2012-09-20T09:24:06Z</time>
      </trkpt>
      <trkpt lat="45.00871" lon="1.90958">
        <ele>441.9</ele>
        <time>2012-09-20T09:24:10Z</time>
      </trkpt>
      <trkpt lat="45.0087" lon="1.90951">
        <ele>441.9</ele>
        <time>2012-09-20T09:24:14Z</time>
      </trkpt>
      <trkpt lat="45.00866" lon="1.90934">
        <ele>439.9</ele>
        <time>2012-09-20T09:24:21Z</time>
      </trkpt>
      <trkpt lat="45.00864" lon="1.9093">
        <ele>439.5</ele>
        <time>2012-09-20T09:24:24Z</time>
      </trkpt>
      <trkpt lat="45.00865" lon="1.90921">
        <ele>438.5</ele>
        <time>2012-09-20T09:24:30Z</time>
      </trkpt>
      <trkpt lat="45.00863" lon="1.90917">
        <ele>436.6</ele>
        <time>2012-09-20T09:24:38Z</time>
      </trkpt>
      <trkpt lat="45.00863" lon="1.90913">
        <ele>436.1</ele>
        <time>2012-09-20T09:24:41Z</time>
      </trkpt>
      <trkpt lat="45.00864" lon="1.90896">
        <ele>434.6</ele>
        <time>2012-09-20T09:24:47Z</time>
      </trkpt>
      <trkpt lat="45.00865" lon="1.90883">
        <ele>434.2</ele>
        <time>2012-09-20T09:24:50Z</time>
      </trkpt>
      <trkpt lat="45.00856" lon="1.90863">
        <ele>432.7</ele>
        <time>2012-09-20T09:24:56Z</time>
      </trkpt>
      <trkpt lat="45.00848" lon="1.90851">
        <ele>431.8</ele>
        <time>2012-09-20T09:25:01Z</time>
      </trkpt>
      <trkpt lat="45.00851" lon="1.90848">
        <ele>430.3</ele>
        <time>2012-09-20T09:25:08Z</time>
      </trkpt>
      <trkpt lat="45.00854" lon="1.90846">
        <ele>428.9</ele>
        <time>2012-09-20T09:25:14Z</time>
      </trkpt>
      <trkpt lat="45.00853" lon="1.90843">
        <ele>427</ele>
        <time>2012-09-20T09:25:22Z</time>
      </trkpt>
      <trkpt lat="45.00851" lon="1.90842">
        <ele>427</ele>
        <time>2012-09-20T09:25:25Z</time>
      </trkpt>
      <trkpt lat="45.0085" lon="1.90834">
        <ele>425.5</ele>
        <time>2012-09-20T09:25:32Z</time>
      </trkpt>
      <trkpt lat="45.0085" lon="1.90829">
        <ele>426</ele>
        <time>2012-09-20T09:25:37Z</time>
      </trkpt>
      <trkpt lat="45.00855" lon="1.90821">
        <ele>426</ele>
        <time>2012-09-20T09:25:43Z</time>
      </trkpt>
      <trkpt lat="45.00855" lon="1.90819">
        <ele>425</ele>
        <time>2012-09-20T09:25:51Z</time>
      </trkpt>
      <trkpt lat="45.00855" lon="1.90819">
        <ele>424.6</ele>
        <time>2012-09-20T09:26:05Z</time>
      </trkpt>
      <trkpt lat="45.00855" lon="1.90819">
        <ele>425</ele>
        <time>2012-09-20T09:26:24Z</time>
      </trkpt>
      <trkpt lat="45.00855" lon="1.90819">
        <ele>426</ele>
        <time>2012-09-20T09:26:35Z</time>
      </trkpt>
      <trkpt lat="45.00857" lon="1.90816">
        <ele>425.5</ele>
        <time>2012-09-20T09:26:38Z</time>
      </trkpt>
      <trkpt lat="45.00862" lon="1.90808">
        <ele>425.5</ele>
        <time>2012-09-20T09:26:42Z</time>
      </trkpt>
      <trkpt lat="45.00866" lon="1.90799">
        <ele>425</ele>
        <time>2012-09-20T09:26:47Z</time>
      </trkpt>
      <trkpt lat="45.00868" lon="1.90794">
        <ele>424.6</ele>
        <time>2012-09-20T09:26:49Z</time>
      </trkpt>
      <trkpt lat="45.00867" lon="1.90794">
        <ele>424.1</ele>
        <time>2012-09-20T09:26:53Z</time>
      </trkpt>
      <trkpt lat="45.00865" lon="1.90792">
        <ele>422.6</ele>
        <time>2012-09-20T09:26:57Z</time>
      </trkpt>
      <trkpt lat="45.0087" lon="1.90774">
        <ele>421.7</ele>
        <time>2012-09-20T09:27:04Z</time>
      </trkpt>
      <trkpt lat="45.00876" lon="1.90766">
        <ele>419.8</ele>
        <time>2012-09-20T09:27:10Z</time>
      </trkpt>
      <trkpt lat="45.00887" lon="1.90749">
        <ele>416.9</ele>
        <time>2012-09-20T09:27:16Z</time>
      </trkpt>
      <trkpt lat="45.00888" lon="1.90745">
        <ele>416.9</ele>
        <time>2012-09-20T09:27:19Z</time>
      </trkpt>
      <trkpt lat="45.00892" lon="1.90742">
        <ele>415.9</ele>
        <time>2012-09-20T09:27:22Z</time>
      </trkpt>
      <trkpt lat="45.00894" lon="1.90738">
        <ele>415</ele>
        <time>2012-09-20T09:27:27Z</time>
      </trkpt>
      <trkpt lat="45.00904" lon="1.90742">
        <ele>413.5</ele>
        <time>2012-09-20T09:27:33Z</time>
      </trkpt>
      <trkpt lat="45.00905" lon="1.90742">
        <ele>412.1</ele>
        <time>2012-09-20T09:27:36Z</time>
      </trkpt>
      <trkpt lat="45.00906" lon="1.90744">
        <ele>411.6</ele>
        <time>2012-09-20T09:27:39Z</time>
      </trkpt>
      <trkpt lat="45.0091" lon="1.90749">
        <ele>411.1</ele>
        <time>2012-09-20T09:27:42Z</time>
      </trkpt>
      <trkpt lat="45.00925" lon="1.90758">
        <ele>411.1</ele>
        <time>2012-09-20T09:27:48Z</time>
      </trkpt>
      <trkpt lat="45.0093" lon="1.90761">
        <ele>409.2</ele>
        <time>2012-09-20T09:27:54Z</time>
      </trkpt>
      <trkpt lat="45.00935" lon="1.90764">
        <ele>408.2</ele>
        <time>2012-09-20T09:27:59Z</time>
      </trkpt>
      <trkpt lat="45.00938" lon="1.90762">
        <ele>406.8</ele>
        <time>2012-09-20T09:28:03Z</time>
      </trkpt>
      <trkpt lat="45.00939" lon="1.9076">
        <ele>406.3</ele>
        <time>2012-09-20T09:28:05Z</time>
      </trkpt>
      <trkpt lat="45.00937" lon="1.90752">
        <ele>404.9</ele>
        <time>2012-09-20T09:28:09Z</time>
      </trkpt>
      <trkpt lat="45.00934" lon="1.90744">
        <ele>403.9</ele>
        <time>2012-09-20T09:28:14Z</time>
      </trkpt>
      <trkpt lat="45.00934" lon="1.9074">
        <ele>402.9</ele>
        <time>2012-09-20T09:28:18Z</time>
      </trkpt>
      <trkpt lat="45.00934" lon="1.90734">
        <ele>401</ele>
        <time>2012-09-20T09:28:26Z</time>
      </trkpt>
      <trkpt lat="45.00934" lon="1.90727">
        <ele>399.6</ele>
        <time>2012-09-20T09:28:32Z</time>
      </trkpt>
      <trkpt lat="45.00933" lon="1.9072">
        <ele>398.6</ele>
        <time>2012-09-20T09:28:37Z</time>
      </trkpt>
      <trkpt lat="45.00933" lon="1.90717">
        <ele>398.6</ele>
        <time>2012-09-20T09:28:38Z</time>
      </trkpt>
      <trkpt lat="45.00932" lon="1.90703">
        <ele>398.1</ele>
        <time>2012-09-20T09:28:43Z</time>
      </trkpt>
      <trkpt lat="45.00934" lon="1.90695">
        <ele>396.2</ele>
        <time>2012-09-20T09:28:47Z</time>
      </trkpt>
      <trkpt lat="45.00933" lon="1.90691">
        <ele>395.7</ele>
        <time>2012-09-20T09:28:52Z</time>
      </trkpt>
      <trkpt lat="45.00932" lon="1.90687">
        <ele>395.2</ele>
        <time>2012-09-20T09:28:58Z</time>
      </trkpt>
      <trkpt lat="45.00933" lon="1.90682">
        <ele>394.3</ele>
        <time>2012-09-20T09:29:03Z</time>
      </trkpt>
      <trkpt lat="45.00933" lon="1.9068">
        <ele>393.8</ele>
        <time>2012-09-20T09:29:04Z</time>
      </trkpt>
      <trkpt lat="45.00927" lon="1.90666">
        <ele>392.4</ele>
        <time>2012-09-20T09:29:12Z</time>
      </trkpt>
      <trkpt lat="45.00925" lon="1.9066">
        <ele>391.4</ele>
        <time>2012-09-20T09:29:18Z</time>
      </trkpt>
      <trkpt lat="45.00925" lon="1.90656">
        <ele>390.9</ele>
        <time>2012-09-20T09:29:25Z</time>
      </trkpt>
      <trkpt lat="45.00921" lon="1.90645">
        <ele>390</ele>
        <time>2012-09-20T09:29:36Z</time>
      </trkpt>
      <trkpt lat="45.00919" lon="1.90647">
        <ele>390.4</ele>
        <time>2012-09-20T09:29:45Z</time>
      </trkpt>
      <trkpt lat="45.00919" lon="1.90647">
        <ele>381.8</ele>
        <time>2012-09-20T09:29:50Z</time>
      </trkpt>
      <trkpt lat="45.00919" lon="1.90647">
        <ele>386.1</ele>
        <time>2012-09-20T09:29:51Z</time>
      </trkpt>
      <trkpt lat="45.00919" lon="1.90647">
        <ele>397.2</ele>
        <time>2012-09-20T09:29:53Z</time>
      </trkpt>
      <trkpt lat="45.00919" lon="1.90647">
        <ele>403.9</ele>
        <time>2012-09-20T09:29:54Z</time>
      </trkpt>
      <trkpt lat="45.00919" lon="1.90647">
        <ele>391.9</ele>
        <time>2012-09-20T09:29:55Z</time>
      </trkpt>
      <trkpt lat="45.00919" lon="1.90647">
        <ele>390.4</ele>
        <time>2012-09-20T09:29:58Z</time>
      </trkpt>
      <trkpt lat="45.00919" lon="1.90647">
        <ele>390.4</ele>
        <time>2012-09-20T09:30:11Z</time>
      </trkpt>
      <trkpt lat="45.00919" lon="1.90647">
        <ele>390.4</ele>
        <time>2012-09-20T09:30:19Z</time>
      </trkpt>
      <trkpt lat="45.00927" lon="1.90614">
        <ele>391.4</ele>
        <time>2012-09-20T09:30:28Z</time>
      </trkpt>
      <trkpt lat="45.00932" lon="1.90593">
        <ele>394.8</ele>
        <time>2012-09-20T09:30:33Z</time>
      </trkpt>
      <trkpt lat="45.00934" lon="1.90589">
        <ele>394.8</ele>
        <time>2012-09-20T09:30:34Z</time>
      </trkpt>
      <trkpt lat="45.00951" lon="1.9057">
        <ele>397.6</ele>
        <time>2012-09-20T09:30:41Z</time>
      </trkpt>
      <trkpt lat="45.00963" lon="1.90559">
        <ele>400.5</ele>
        <time>2012-09-20T09:30:46Z</time>
      </trkpt>
      <trkpt lat="45.00986" lon="1.90544">
        <ele>403.9</ele>
        <time>2012-09-20T09:30:53Z</time>
      </trkpt>
      <trkpt lat="45.01003" lon="1.90525">
        <ele>406.3</ele>
        <time>2012-09-20T09:31:00Z</time>
      </trkpt>
      <trkpt lat="45.01025" lon="1.90501">
        <ele>408.2</ele>
        <time>2012-09-20T09:31:08Z</time>
      </trkpt>
      <trkpt lat="45.01034" lon="1.90487">
        <ele>406.8</ele>
        <time>2012-09-20T09:31:14Z</time>
      </trkpt>
      <trkpt lat="45.01034" lon="1.90482">
        <ele>406.3</ele>
        <time>2012-09-20T09:31:16Z</time>
      </trkpt>
      <trkpt lat="45.01022" lon="1.90472">
        <ele>403.9</ele>
        <time>2012-09-20T09:31:23Z</time>
      </trkpt>
      <trkpt lat="45.01014" lon="1.90469">
        <ele>402</ele>
        <time>2012-09-20T09:31:27Z</time>
      </trkpt>
      <trkpt lat="45.00993" lon="1.90469">
        <ele>401</ele>
        <time>2012-09-20T09:31:35Z</time>
      </trkpt>
      <trkpt lat="45.00977" lon="1.90484">
        <ele>402</ele>
        <time>2012-09-20T09:31:42Z</time>
      </trkpt>
      <trkpt lat="45.00961" lon="1.90504">
        <ele>404.9</ele>
        <time>2012-09-20T09:31:50Z</time>
      </trkpt>
      <trkpt lat="45.00952" lon="1.90511">
        <ele>405.8</ele>
        <time>2012-09-20T09:31:56Z</time>
      </trkpt>
      <trkpt lat="45.00932" lon="1.90519">
        <ele>409.2</ele>
        <time>2012-09-20T09:32:04Z</time>
      </trkpt>
      <trkpt lat="45.00915" lon="1.90528">
        <ele>411.1</ele>
        <time>2012-09-20T09:32:12Z</time>
      </trkpt>
      <trkpt lat="45.00913" lon="1.90529">
        <ele>411.6</ele>
        <time>2012-09-20T09:32:13Z</time>
      </trkpt>
      <trkpt lat="45.00892" lon="1.90527">
        <ele>414.5</ele>
        <time>2012-09-20T09:32:21Z</time>
      </trkpt>
      <trkpt lat="45.00877" lon="1.90508">
        <ele>416.9</ele>
        <time>2012-09-20T09:32:29Z</time>
      </trkpt>
      <trkpt lat="45.00876" lon="1.90501">
        <ele>417.8</ele>
        <time>2012-09-20T09:32:31Z</time>
      </trkpt>
      <trkpt lat="45.00872" lon="1.90471">
        <ele>418.8</ele>
        <time>2012-09-20T09:32:38Z</time>
      </trkpt>
      <trkpt lat="45.00869" lon="1.90452">
        <ele>420.7</ele>
        <time>2012-09-20T09:32:42Z</time>
      </trkpt>
      <trkpt lat="45.00867" lon="1.9042">
        <ele>423.1</ele>
        <time>2012-09-20T09:32:50Z</time>
      </trkpt>
      <trkpt lat="45.00862" lon="1.90395">
        <ele>425.5</ele>
        <time>2012-09-20T09:32:57Z</time>
      </trkpt>
      <trkpt lat="45.00853" lon="1.90375">
        <ele>427.4</ele>
        <time>2012-09-20T09:33:03Z</time>
      </trkpt>
      <trkpt lat="45.0084" lon="1.90357">
        <ele>429.9</ele>
        <time>2012-09-20T09:33:11Z</time>
      </trkpt>
      <trkpt lat="45.00826" lon="1.90344">
        <ele>432.7</ele>
        <time>2012-09-20T09:33:19Z</time>
      </trkpt>
      <trkpt lat="45.00799" lon="1.90315">
        <ele>435.6</ele>
        <time>2012-09-20T09:33:28Z</time>
      </trkpt>
      <trkpt lat="45.00773" lon="1.90289">
        <ele>437.1</ele>
        <time>2012-09-20T09:33:36Z</time>
      </trkpt>
      <trkpt lat="45.00742" lon="1.90263">
        <ele>439.5</ele>
        <time>2012-09-20T09:33:46Z</time>
      </trkpt>
      <trkpt lat="45.00726" lon="1.90253">
        <ele>441.9</ele>
        <time>2012-09-20T09:33:53Z</time>
      </trkpt>
      <trkpt lat="45.00713" lon="1.90241">
        <ele>443.3</ele>
        <time>2012-09-20T09:34:00Z</time>
      </trkpt>
      <trkpt lat="45.00693" lon="1.90229">
        <ele>446.7</ele>
        <time>2012-09-20T09:34:07Z</time>
      </trkpt>
      <trkpt lat="45.0067" lon="1.90213">
        <ele>447.1</ele>
        <time>2012-09-20T09:34:14Z</time>
      </trkpt>
      <trkpt lat="45.00665" lon="1.90208">
        <ele>447.6</ele>
        <time>2012-09-20T09:34:16Z</time>
      </trkpt>
      <trkpt lat="45.00654" lon="1.90174">
        <ele>449.5</ele>
        <time>2012-09-20T09:34:22Z</time>
      </trkpt>
      <trkpt lat="45.00645" lon="1.90149">
        <ele>451</ele>
        <time>2012-09-20T09:34:29Z</time>
      </trkpt>
      <trkpt lat="45.00637" lon="1.90128">
        <ele>452.4</ele>
        <time>2012-09-20T09:34:35Z</time>
      </trkpt>
      <trkpt lat="45.00623" lon="1.90106">
        <ele>454.4</ele>
        <time>2012-09-20T09:34:42Z</time>
      </trkpt>
      <trkpt lat="45.00603" lon="1.90086">
        <ele>457.2</ele>
        <time>2012-09-20T09:34:50Z</time>
      </trkpt>
      <trkpt lat="45.00579" lon="1.9007">
        <ele>459.2</ele>
        <time>2012-09-20T09:34:58Z</time>
      </trkpt>
      <trkpt lat="45.0056" lon="1.90041">
        <ele>460.6</ele>
        <time>2012-09-20T09:35:06Z</time>
      </trkpt>
      <trkpt lat="45.00548" lon="1.90011">
        <ele>462.5</ele>
        <time>2012-09-20T09:35:13Z</time>
      </trkpt>
      <trkpt lat="45.00539" lon="1.89987">
        <ele>465.4</ele>
        <time>2012-09-20T09:35:20Z</time>
      </trkpt>
      <trkpt lat="45.00535" lon="1.89951">
        <ele>466.9</ele>
        <time>2012-09-20T09:35:26Z</time>
      </trkpt>
      <trkpt lat="45.00538" lon="1.89923">
        <ele>469.3</ele>
        <time>2012-09-20T09:35:32Z</time>
      </trkpt>
      <trkpt lat="45.00543" lon="1.89893">
        <ele>471.2</ele>
        <time>2012-09-20T09:35:39Z</time>
      </trkpt>
      <trkpt lat="45.0055" lon="1.89831">
        <ele>472.6</ele>
        <time>2012-09-20T09:35:50Z</time>
      </trkpt>
      <trkpt lat="45.00545" lon="1.89808">
        <ele>474.1</ele>
        <time>2012-09-20T09:35:55Z</time>
      </trkpt>
      <trkpt lat="45.00537" lon="1.8978">
        <ele>475.5</ele>
        <time>2012-09-20T09:36:02Z</time>
      </trkpt>
      <trkpt lat="45.0052" lon="1.8973">
        <ele>477.9</ele>
        <time>2012-09-20T09:36:11Z</time>
      </trkpt>
      <trkpt lat="45.00501" lon="1.89691">
        <ele>478.9</ele>
        <time>2012-09-20T09:36:20Z</time>
      </trkpt>
      <trkpt lat="45.00489" lon="1.89668">
        <ele>480.3</ele>
        <time>2012-09-20T09:36:25Z</time>
      </trkpt>
      <trkpt lat="45.00472" lon="1.89641">
        <ele>479.8</ele>
        <time>2012-09-20T09:36:31Z</time>
      </trkpt>
      <trkpt lat="45.00454" lon="1.89593">
        <ele>478.9</ele>
        <time>2012-09-20T09:36:40Z</time>
      </trkpt>
      <trkpt lat="45.00448" lon="1.89556">
        <ele>477.4</ele>
        <time>2012-09-20T09:36:47Z</time>
      </trkpt>
      <trkpt lat="45.00448" lon="1.89525">
        <ele>477.4</ele>
        <time>2012-09-20T09:36:53Z</time>
      </trkpt>
      <trkpt lat="45.00452" lon="1.89479">
        <ele>476</ele>
        <time>2012-09-20T09:37:01Z</time>
      </trkpt>
      <trkpt lat="45.00446" lon="1.89439">
        <ele>476.5</ele>
        <time>2012-09-20T09:37:09Z</time>
      </trkpt>
      <trkpt lat="45.00434" lon="1.89411">
        <ele>476.5</ele>
        <time>2012-09-20T09:37:17Z</time>
      </trkpt>
      <trkpt lat="45.00423" lon="1.89386">
        <ele>477.9</ele>
        <time>2012-09-20T09:37:25Z</time>
      </trkpt>
      <trkpt lat="45.00415" lon="1.89361">
        <ele>480.3</ele>
        <time>2012-09-20T09:37:33Z</time>
      </trkpt>
      <trkpt lat="45.00415" lon="1.89358">
        <ele>480.3</ele>
        <time>2012-09-20T09:37:34Z</time>
      </trkpt>
      <trkpt lat="45.00413" lon="1.89336">
        <ele>483.2</ele>
        <time>2012-09-20T09:37:41Z</time>
      </trkpt>
      <trkpt lat="45.00414" lon="1.8931">
        <ele>483.7</ele>
        <time>2012-09-20T09:37:46Z</time>
      </trkpt>
      <trkpt lat="45.00414" lon="1.89304">
        <ele>484.6</ele>
        <time>2012-09-20T09:37:47Z</time>
      </trkpt>
      <trkpt lat="45.00412" lon="1.89296">
        <ele>484.2</ele>
        <time>2012-09-20T09:37:48Z</time>
      </trkpt>
      <trkpt lat="45.00411" lon="1.89289">
        <ele>485.1</ele>
        <time>2012-09-20T09:37:49Z</time>
      </trkpt>
      <trkpt lat="45.00408" lon="1.89281">
        <ele>484.6</ele>
        <time>2012-09-20T09:37:50Z</time>
      </trkpt>
      <trkpt lat="45.00404" lon="1.89274">
        <ele>485.6</ele>
        <time>2012-09-20T09:37:51Z</time>
      </trkpt>
      <trkpt lat="45.004" lon="1.89267">
        <ele>485.6</ele>
        <time>2012-09-20T09:37:52Z</time>
      </trkpt>
      <trkpt lat="45.00371" lon="1.89218">
        <ele>486.6</ele>
        <time>2012-09-20T09:37:59Z</time>
      </trkpt>
      <trkpt lat="45.00357" lon="1.89194">
        <ele>487.5</ele>
        <time>2012-09-20T09:38:03Z</time>
      </trkpt>
      <trkpt lat="45.00355" lon="1.89188">
        <ele>486.1</ele>
        <time>2012-09-20T09:38:04Z</time>
      </trkpt>
      <trkpt lat="45.00353" lon="1.89183">
        <ele>487.5</ele>
        <time>2012-09-20T09:38:05Z</time>
      </trkpt>
      <trkpt lat="45.0034" lon="1.89164">
        <ele>488</ele>
        <time>2012-09-20T09:38:10Z</time>
      </trkpt>
      <trkpt lat="45.00315" lon="1.8915">
        <ele>489</ele>
        <time>2012-09-20T09:38:17Z</time>
      </trkpt>
      <trkpt lat="45.00311" lon="1.89148">
        <ele>489</ele>
        <time>2012-09-20T09:38:18Z</time>
      </trkpt>
      <trkpt lat="45.00277" lon="1.89129">
        <ele>487</ele>
        <time>2012-09-20T09:38:26Z</time>
      </trkpt>
      <trkpt lat="45.00269" lon="1.89124">
        <ele>486.6</ele>
        <time>2012-09-20T09:38:28Z</time>
      </trkpt>
      <trkpt lat="45.00251" lon="1.89116">
        <ele>486.6</ele>
        <time>2012-09-20T09:38:32Z</time>
      </trkpt>
      <trkpt lat="45.00241" lon="1.89112">
        <ele>486.6</ele>
        <time>2012-09-20T09:38:37Z</time>
      </trkpt>
      <trkpt lat="45.0023" lon="1.89105">
        <ele>489.5</ele>
        <time>2012-09-20T09:38:45Z</time>
      </trkpt>
      <trkpt lat="45.00217" lon="1.89097">
        <ele>491.4</ele>
        <time>2012-09-20T09:38:52Z</time>
      </trkpt>
      <trkpt lat="45.00197" lon="1.89093">
        <ele>490.4</ele>
        <time>2012-09-20T09:38:59Z</time>
      </trkpt>
      <trkpt lat="45.00185" lon="1.89087">
        <ele>491.4</ele>
        <time>2012-09-20T09:39:05Z</time>
      </trkpt>
      <trkpt lat="45.00161" lon="1.89087">
        <ele>492.8</ele>
        <time>2012-09-20T09:39:12Z</time>
      </trkpt>
      <trkpt lat="45.00134" lon="1.89084">
        <ele>493.3</ele>
        <time>2012-09-20T09:39:18Z</time>
      </trkpt>
      <trkpt lat="45.00108" lon="1.89057">
        <ele>494.7</ele>
        <time>2012-09-20T09:39:27Z</time>
      </trkpt>
      <trkpt lat="45.001" lon="1.89032">
        <ele>495.2</ele>
        <time>2012-09-20T09:39:34Z</time>
      </trkpt>
      <trkpt lat="45.001" lon="1.88991">
        <ele>497.6</ele>
        <time>2012-09-20T09:39:43Z</time>
      </trkpt>
      <trkpt lat="45.00095" lon="1.88959">
        <ele>497.6</ele>
        <time>2012-09-20T09:39:50Z</time>
      </trkpt>
      <trkpt lat="45.00083" lon="1.88927">
        <ele>497.6</ele>
        <time>2012-09-20T09:39:57Z</time>
      </trkpt>
      <trkpt lat="45.00069" lon="1.88893">
        <ele>498.6</ele>
        <time>2012-09-20T09:40:05Z</time>
      </trkpt>
      <trkpt lat="45.00053" lon="1.88864">
        <ele>499.5</ele>
        <time>2012-09-20T09:40:14Z</time>
      </trkpt>
      <trkpt lat="45.00041" lon="1.88845">
        <ele>499.1</ele>
        <time>2012-09-20T09:40:21Z</time>
      </trkpt>
      <trkpt lat="45.00036" lon="1.88828">
        <ele>498.1</ele>
        <time>2012-09-20T09:40:28Z</time>
      </trkpt>
      <trkpt lat="45.00039" lon="1.88793">
        <ele>497.1</ele>
        <time>2012-09-20T09:40:36Z</time>
      </trkpt>
      <trkpt lat="45.00036" lon="1.88784">
        <ele>497.1</ele>
        <time>2012-09-20T09:40:39Z</time>
      </trkpt>
      <trkpt lat="45.00014" lon="1.88766">
        <ele>494.7</ele>
        <time>2012-09-20T09:40:47Z</time>
      </trkpt>
      <trkpt lat="44.99973" lon="1.88745">
        <ele>495.2</ele>
        <time>2012-09-20T09:40:59Z</time>
      </trkpt>
      <trkpt lat="44.9995" lon="1.88725">
        <ele>496.2</ele>
        <time>2012-09-20T09:41:07Z</time>
      </trkpt>
      <trkpt lat="44.99935" lon="1.88695">
        <ele>496.7</ele>
        <time>2012-09-20T09:41:15Z</time>
      </trkpt>
      <trkpt lat="44.99922" lon="1.88675">
        <ele>495.7</ele>
        <time>2012-09-20T09:41:23Z</time>
      </trkpt>
      <trkpt lat="44.99909" lon="1.88655">
        <ele>494.3</ele>
        <time>2012-09-20T09:41:33Z</time>
      </trkpt>
      <trkpt lat="44.99901" lon="1.88647">
        <ele>495.2</ele>
        <time>2012-09-20T09:41:37Z</time>
      </trkpt>
      <trkpt lat="44.99892" lon="1.88642">
        <ele>491.9</ele>
        <time>2012-09-20T09:41:39Z</time>
      </trkpt>
      <trkpt lat="44.99881" lon="1.88635">
        <ele>498.6</ele>
        <time>2012-09-20T09:41:41Z</time>
      </trkpt>
      <trkpt lat="44.99875" lon="1.88631">
        <ele>495.7</ele>
        <time>2012-09-20T09:41:42Z</time>
      </trkpt>
      <trkpt lat="44.99867" lon="1.88627">
        <ele>498.6</ele>
        <time>2012-09-20T09:41:43Z</time>
      </trkpt>
      <trkpt lat="44.99859" lon="1.88623">
        <ele>503.9</ele>
        <time>2012-09-20T09:41:44Z</time>
      </trkpt>
      <trkpt lat="44.99851" lon="1.88619">
        <ele>494.3</ele>
        <time>2012-09-20T09:41:45Z</time>
      </trkpt>
      <trkpt lat="44.99843" lon="1.88614">
        <ele>502.4</ele>
        <time>2012-09-20T09:41:46Z</time>
      </trkpt>
      <trkpt lat="44.99834" lon="1.8861">
        <ele>499.5</ele>
        <time>2012-09-20T09:41:47Z</time>
      </trkpt>
      <trkpt lat="44.99826" lon="1.88606">
        <ele>496.2</ele>
        <time>2012-09-20T09:41:48Z</time>
      </trkpt>
      <trkpt lat="44.99818" lon="1.88601">
        <ele>502</ele>
        <time>2012-09-20T09:41:49Z</time>
      </trkpt>
      <trkpt lat="44.9981" lon="1.88596">
        <ele>497.6</ele>
        <time>2012-09-20T09:41:50Z</time>
      </trkpt>
      <trkpt lat="44.99801" lon="1.88592">
        <ele>500.5</ele>
        <time>2012-09-20T09:41:51Z</time>
      </trkpt>
      <trkpt lat="44.99754" lon="1.88564">
        <ele>491.4</ele>
        <time>2012-09-20T09:41:56Z</time>
      </trkpt>
      <trkpt lat="44.99744" lon="1.88558">
        <ele>500.5</ele>
        <time>2012-09-20T09:41:57Z</time>
      </trkpt>
      <trkpt lat="44.99689" lon="1.88533">
        <ele>498.6</ele>
        <time>2012-09-20T09:42:03Z</time>
      </trkpt>
      <trkpt lat="44.99681" lon="1.88532">
        <ele>498.6</ele>
        <time>2012-09-20T09:42:04Z</time>
      </trkpt>
      <trkpt lat="44.99673" lon="1.88533">
        <ele>498.6</ele>
        <time>2012-09-20T09:42:05Z</time>
      </trkpt>
      <trkpt lat="44.99665" lon="1.88535">
        <ele>498.6</ele>
        <time>2012-09-20T09:42:06Z</time>
      </trkpt>
      <trkpt lat="44.99657" lon="1.88539">
        <ele>498.6</ele>
        <time>2012-09-20T09:42:07Z</time>
      </trkpt>
      <trkpt lat="44.99649" lon="1.88543">
        <ele>498.1</ele>
        <time>2012-09-20T09:42:08Z</time>
      </trkpt>
      <trkpt lat="44.99588" lon="1.88569">
        <ele>497.1</ele>
        <time>2012-09-20T09:42:15Z</time>
      </trkpt>
      <trkpt lat="44.99529" lon="1.88597">
        <ele>497.6</ele>
        <time>2012-09-20T09:42:20Z</time>
      </trkpt>
      <trkpt lat="44.99434" lon="1.88639">
        <ele>495.2</ele>
        <time>2012-09-20T09:42:28Z</time>
      </trkpt>
      <trkpt lat="44.99419" lon="1.88641">
        <ele>495.2</ele>
        <time>2012-09-20T09:42:29Z</time>
      </trkpt>
      <trkpt lat="44.99405" lon="1.88638">
        <ele>495.2</ele>
        <time>2012-09-20T09:42:30Z</time>
      </trkpt>
      <trkpt lat="44.99342" lon="1.88613">
        <ele>495.7</ele>
        <time>2012-09-20T09:42:35Z</time>
      </trkpt>
      <trkpt lat="44.99276" lon="1.88589">
        <ele>494.3</ele>
        <time>2012-09-20T09:42:40Z</time>
      </trkpt>
      <trkpt lat="44.99253" lon="1.88575">
        <ele>492.8</ele>
        <time>2012-09-20T09:42:42Z</time>
      </trkpt>
      <trkpt lat="44.99241" lon="1.88567">
        <ele>492.8</ele>
        <time>2012-09-20T09:42:43Z</time>
      </trkpt>
      <trkpt lat="44.99176" lon="1.88517">
        <ele>490.9</ele>
        <time>2012-09-20T09:42:49Z</time>
      </trkpt>
      <trkpt lat="44.99165" lon="1.88511">
        <ele>490.4</ele>
        <time>2012-09-20T09:42:50Z</time>
      </trkpt>
      <trkpt lat="44.99122" lon="1.88495">
        <ele>490.4</ele>
        <time>2012-09-20T09:42:54Z</time>
      </trkpt>
      <trkpt lat="44.99056" lon="1.88485">
        <ele>489.9</ele>
        <time>2012-09-20T09:42:59Z</time>
      </trkpt>
      <trkpt lat="44.99044" lon="1.88482">
        <ele>489.9</ele>
        <time>2012-09-20T09:43:00Z</time>
      </trkpt>
      <trkpt lat="44.99031" lon="1.88479">
        <ele>489.5</ele>
        <time>2012-09-20T09:43:01Z</time>
      </trkpt>
      <trkpt lat="44.98981" lon="1.88468">
        <ele>486.6</ele>
        <time>2012-09-20T09:43:05Z</time>
      </trkpt>
      <trkpt lat="44.98932" lon="1.88461">
        <ele>485.6</ele>
        <time>2012-09-20T09:43:09Z</time>
      </trkpt>
      <trkpt lat="44.98873" lon="1.88469">
        <ele>484.2</ele>
        <time>2012-09-20T09:43:14Z</time>
      </trkpt>
      <trkpt lat="44.98844" lon="1.88474">
        <ele>479.4</ele>
        <time>2012-09-20T09:43:17Z</time>
      </trkpt>
      <trkpt lat="44.98837" lon="1.88475">
        <ele>482.7</ele>
        <time>2012-09-20T09:43:18Z</time>
      </trkpt>
      <trkpt lat="44.98829" lon="1.88474">
        <ele>481.8</ele>
        <time>2012-09-20T09:43:19Z</time>
      </trkpt>
      <trkpt lat="44.98819" lon="1.88474">
        <ele>480.8</ele>
        <time>2012-09-20T09:43:20Z</time>
      </trkpt>
      <trkpt lat="44.98797" lon="1.8847">
        <ele>480.8</ele>
        <time>2012-09-20T09:43:23Z</time>
      </trkpt>
      <trkpt lat="44.98774" lon="1.88458">
        <ele>486.1</ele>
        <time>2012-09-20T09:43:26Z</time>
      </trkpt>
      <trkpt lat="44.98763" lon="1.88446">
        <ele>482.2</ele>
        <time>2012-09-20T09:43:27Z</time>
      </trkpt>
      <trkpt lat="44.98729" lon="1.88382">
        <ele>481.3</ele>
        <time>2012-09-20T09:43:33Z</time>
      </trkpt>
      <trkpt lat="44.98756" lon="1.88215">
        <ele>479.4</ele>
        <time>2012-09-20T09:43:40Z</time>
      </trkpt>
      <trkpt lat="44.98746" lon="1.8819">
        <ele>478.9</ele>
        <time>2012-09-20T09:43:42Z</time>
      </trkpt>
      <trkpt lat="44.98707" lon="1.88119">
        <ele>477.9</ele>
        <time>2012-09-20T09:43:49Z</time>
      </trkpt>
      <trkpt lat="44.98683" lon="1.88073">
        <ele>477</ele>
        <time>2012-09-20T09:43:54Z</time>
      </trkpt>
      <trkpt lat="44.9868" lon="1.88063">
        <ele>476.5</ele>
        <time>2012-09-20T09:43:55Z</time>
      </trkpt>
      <trkpt lat="44.98677" lon="1.88054">
        <ele>476</ele>
        <time>2012-09-20T09:43:56Z</time>
      </trkpt>
      <trkpt lat="44.98675" lon="1.88046">
        <ele>476</ele>
        <time>2012-09-20T09:43:57Z</time>
      </trkpt>
      <trkpt lat="44.98673" lon="1.88032">
        <ele>474.5</ele>
        <time>2012-09-20T09:43:59Z</time>
      </trkpt>
      <trkpt lat="44.98674" lon="1.88025">
        <ele>474.5</ele>
        <time>2012-09-20T09:44:00Z</time>
      </trkpt>
      <trkpt lat="44.98676" lon="1.88017">
        <ele>474.1</ele>
        <time>2012-09-20T09:44:01Z</time>
      </trkpt>
      <trkpt lat="44.98695" lon="1.87971">
        <ele>472.1</ele>
        <time>2012-09-20T09:44:07Z</time>
      </trkpt>
      <trkpt lat="44.98713" lon="1.87942">
        <ele>468.8</ele>
        <time>2012-09-20T09:44:11Z</time>
      </trkpt>
      <trkpt lat="44.98725" lon="1.87923">
        <ele>467.8</ele>
        <time>2012-09-20T09:44:14Z</time>
      </trkpt>
      <trkpt lat="44.98727" lon="1.87917">
        <ele>467.8</ele>
        <time>2012-09-20T09:44:15Z</time>
      </trkpt>
      <trkpt lat="44.98729" lon="1.8791">
        <ele>466.9</ele>
        <time>2012-09-20T09:44:16Z</time>
      </trkpt>
      <trkpt lat="44.9873" lon="1.87904">
        <ele>466.9</ele>
        <time>2012-09-20T09:44:17Z</time>
      </trkpt>
      <trkpt lat="44.98731" lon="1.87898">
        <ele>465.9</ele>
        <time>2012-09-20T09:44:18Z</time>
      </trkpt>
      <trkpt lat="44.98733" lon="1.87893">
        <ele>464.9</ele>
        <time>2012-09-20T09:44:19Z</time>
      </trkpt>
      <trkpt lat="44.98734" lon="1.87889">
        <ele>464.5</ele>
        <time>2012-09-20T09:44:20Z</time>
      </trkpt>
      <trkpt lat="44.98736" lon="1.87886">
        <ele>464.9</ele>
        <time>2012-09-20T09:44:21Z</time>
      </trkpt>
      <trkpt lat="44.9875" lon="1.87855">
        <ele>462</ele>
        <time>2012-09-20T09:44:31Z</time>
      </trkpt>
      <trkpt lat="44.9877" lon="1.87823">
        <ele>461.1</ele>
        <time>2012-09-20T09:44:38Z</time>
      </trkpt>
      <trkpt lat="44.98793" lon="1.87806">
        <ele>457.2</ele>
        <time>2012-09-20T09:44:45Z</time>
      </trkpt>
      <trkpt lat="44.98795" lon="1.87803">
        <ele>457.2</ele>
        <time>2012-09-20T09:44:46Z</time>
      </trkpt>
      <trkpt lat="44.98797" lon="1.87799">
        <ele>456.8</ele>
        <time>2012-09-20T09:44:47Z</time>
      </trkpt>
      <trkpt lat="44.98797" lon="1.87794">
        <ele>455.8</ele>
        <time>2012-09-20T09:44:48Z</time>
      </trkpt>
      <trkpt lat="44.98795" lon="1.87778">
        <ele>453.9</ele>
        <time>2012-09-20T09:44:51Z</time>
      </trkpt>
      <trkpt lat="44.98793" lon="1.87773">
        <ele>453.4</ele>
        <time>2012-09-20T09:44:52Z</time>
      </trkpt>
      <trkpt lat="44.98791" lon="1.87767">
        <ele>452.9</ele>
        <time>2012-09-20T09:44:53Z</time>
      </trkpt>
      <trkpt lat="44.98788" lon="1.87761">
        <ele>452</ele>
        <time>2012-09-20T09:44:54Z</time>
      </trkpt>
      <trkpt lat="44.98785" lon="1.87756">
        <ele>451</ele>
        <time>2012-09-20T09:44:55Z</time>
      </trkpt>
      <trkpt lat="44.98771" lon="1.87733">
        <ele>447.6</ele>
        <time>2012-09-20T09:44:59Z</time>
      </trkpt>
      <trkpt lat="44.98766" lon="1.87721">
        <ele>445.2</ele>
        <time>2012-09-20T09:45:01Z</time>
      </trkpt>
      <trkpt lat="44.98763" lon="1.87716">
        <ele>444.8</ele>
        <time>2012-09-20T09:45:02Z</time>
      </trkpt>
      <trkpt lat="44.98753" lon="1.87692">
        <ele>442.8</ele>
        <time>2012-09-20T09:45:06Z</time>
      </trkpt>
      <trkpt lat="44.98739" lon="1.87665">
        <ele>439.5</ele>
        <time>2012-09-20T09:45:11Z</time>
      </trkpt>
      <trkpt lat="44.98732" lon="1.87655">
        <ele>438.5</ele>
        <time>2012-09-20T09:45:13Z</time>
      </trkpt>
      <trkpt lat="44.98727" lon="1.87652">
        <ele>436.6</ele>
        <time>2012-09-20T09:45:14Z</time>
      </trkpt>
      <trkpt lat="44.98717" lon="1.87649">
        <ele>442.3</ele>
        <time>2012-09-20T09:45:16Z</time>
      </trkpt>
      <trkpt lat="44.98712" lon="1.87647">
        <ele>437.5</ele>
        <time>2012-09-20T09:45:17Z</time>
      </trkpt>
      <trkpt lat="44.98703" lon="1.87645">
        <ele>437.1</ele>
        <time>2012-09-20T09:45:19Z</time>
      </trkpt>
      <trkpt lat="44.98667" lon="1.8764">
        <ele>434.6</ele>
        <time>2012-09-20T09:45:27Z</time>
      </trkpt>
      <trkpt lat="44.98632" lon="1.87628">
        <ele>431.8</ele>
        <time>2012-09-20T09:45:36Z</time>
      </trkpt>
      <trkpt lat="44.98615" lon="1.87609">
        <ele>429.9</ele>
        <time>2012-09-20T09:45:42Z</time>
      </trkpt>
      <trkpt lat="44.98594" lon="1.8759">
        <ele>427.4</ele>
        <time>2012-09-20T09:45:49Z</time>
      </trkpt>
      <trkpt lat="44.9859" lon="1.87567">
        <ele>425</ele>
        <time>2012-09-20T09:45:54Z</time>
      </trkpt>
      <trkpt lat="44.98592" lon="1.87562">
        <ele>424.6</ele>
        <time>2012-09-20T09:45:55Z</time>
      </trkpt>
      <trkpt lat="44.98595" lon="1.87553">
        <ele>424.1</ele>
        <time>2012-09-20T09:45:57Z</time>
      </trkpt>
      <trkpt lat="44.98599" lon="1.8755">
        <ele>423.6</ele>
        <time>2012-09-20T09:45:58Z</time>
      </trkpt>
      <trkpt lat="44.98602" lon="1.87547">
        <ele>423.1</ele>
        <time>2012-09-20T09:45:59Z</time>
      </trkpt>
      <trkpt lat="44.9861" lon="1.87541">
        <ele>422.2</ele>
        <time>2012-09-20T09:46:01Z</time>
      </trkpt>
      <trkpt lat="44.98639" lon="1.87532">
        <ele>419.8</ele>
        <time>2012-09-20T09:46:08Z</time>
      </trkpt>
      <trkpt lat="44.98647" lon="1.87528">
        <ele>418.8</ele>
        <time>2012-09-20T09:46:10Z</time>
      </trkpt>
      <trkpt lat="44.98666" lon="1.87516">
        <ele>417.8</ele>
        <time>2012-09-20T09:46:17Z</time>
      </trkpt>
      <trkpt lat="44.98677" lon="1.87508">
        <ele>416.4</ele>
        <time>2012-09-20T09:46:21Z</time>
      </trkpt>
      <trkpt lat="44.98678" lon="1.87506">
        <ele>415.9</ele>
        <time>2012-09-20T09:46:22Z</time>
      </trkpt>
      <trkpt lat="44.98683" lon="1.87496">
        <ele>414.5</ele>
        <time>2012-09-20T09:46:29Z</time>
      </trkpt>
      <trkpt lat="44.98683" lon="1.87494">
        <ele>415</ele>
        <time>2012-09-20T09:46:33Z</time>
      </trkpt>
      <trkpt lat="44.98682" lon="1.87492">
        <ele>414</ele>
        <time>2012-09-20T09:46:34Z</time>
      </trkpt>
      <trkpt lat="44.98681" lon="1.8749">
        <ele>414</ele>
        <time>2012-09-20T09:46:35Z</time>
      </trkpt>
      <trkpt lat="44.98679" lon="1.87488">
        <ele>414</ele>
        <time>2012-09-20T09:46:36Z</time>
      </trkpt>
      <trkpt lat="44.98677" lon="1.87486">
        <ele>413.5</ele>
        <time>2012-09-20T09:46:37Z</time>
      </trkpt>
      <trkpt lat="44.98675" lon="1.87485">
        <ele>412.5</ele>
        <time>2012-09-20T09:46:38Z</time>
      </trkpt>
      <trkpt lat="44.98674" lon="1.87484">
        <ele>412.1</ele>
        <time>2012-09-20T09:46:39Z</time>
      </trkpt>
      <trkpt lat="44.98672" lon="1.87484">
        <ele>412.1</ele>
        <time>2012-09-20T09:46:40Z</time>
      </trkpt>
      <trkpt lat="44.98661" lon="1.87482">
        <ele>409.7</ele>
        <time>2012-09-20T09:46:49Z</time>
      </trkpt>
      <trkpt lat="44.98641" lon="1.87477">
        <ele>407.7</ele>
        <time>2012-09-20T09:46:55Z</time>
      </trkpt>
      <trkpt lat="44.98626" lon="1.87467">
        <ele>405.8</ele>
        <time>2012-09-20T09:46:59Z</time>
      </trkpt>
      <trkpt lat="44.98599" lon="1.87442">
        <ele>403.4</ele>
        <time>2012-09-20T09:47:06Z</time>
      </trkpt>
      <trkpt lat="44.98591" lon="1.87435">
        <ele>402.9</ele>
        <time>2012-09-20T09:47:08Z</time>
      </trkpt>
      <trkpt lat="44.98572" lon="1.87421">
        <ele>400</ele>
        <time>2012-09-20T09:47:14Z</time>
      </trkpt>
      <trkpt lat="44.98554" lon="1.87412">
        <ele>397.2</ele>
        <time>2012-09-20T09:47:21Z</time>
      </trkpt>
      <trkpt lat="44.98555" lon="1.87402">
        <ele>395.7</ele>
        <time>2012-09-20T09:47:24Z</time>
      </trkpt>
      <trkpt lat="44.98563" lon="1.8739">
        <ele>393.8</ele>
        <time>2012-09-20T09:47:27Z</time>
      </trkpt>
      <trkpt lat="44.9858" lon="1.87373">
        <ele>390.4</ele>
        <time>2012-09-20T09:47:32Z</time>
      </trkpt>
      <trkpt lat="44.98602" lon="1.87366">
        <ele>388</ele>
        <time>2012-09-20T09:47:39Z</time>
      </trkpt>
      <trkpt lat="44.9861" lon="1.87365">
        <ele>386.6</ele>
        <time>2012-09-20T09:47:42Z</time>
      </trkpt>
      <trkpt lat="44.9862" lon="1.87355">
        <ele>385.1</ele>
        <time>2012-09-20T09:47:46Z</time>
      </trkpt>
      <trkpt lat="44.98617" lon="1.87345">
        <ele>383.7</ele>
        <time>2012-09-20T09:47:50Z</time>
      </trkpt>
      <trkpt lat="44.98609" lon="1.87334">
        <ele>382.3</ele>
        <time>2012-09-20T09:47:53Z</time>
      </trkpt>
      <trkpt lat="44.98599" lon="1.87325">
        <ele>380.3</ele>
        <time>2012-09-20T09:47:56Z</time>
      </trkpt>
      <trkpt lat="44.98581" lon="1.87305">
        <ele>377</ele>
        <time>2012-09-20T09:48:02Z</time>
      </trkpt>
      <trkpt lat="44.98579" lon="1.87302">
        <ele>377</ele>
        <time>2012-09-20T09:48:03Z</time>
      </trkpt>
      <trkpt lat="44.98572" lon="1.87297">
        <ele>375.5</ele>
        <time>2012-09-20T09:48:05Z</time>
      </trkpt>
      <trkpt lat="44.98562" lon="1.87291">
        <ele>374.6</ele>
        <time>2012-09-20T09:48:08Z</time>
      </trkpt>
      <trkpt lat="44.98551" lon="1.87291">
        <ele>373.1</ele>
        <time>2012-09-20T09:48:12Z</time>
      </trkpt>
      <trkpt lat="44.98525" lon="1.87296">
        <ele>372.2</ele>
        <time>2012-09-20T09:48:20Z</time>
      </trkpt>
      <trkpt lat="44.98514" lon="1.87279">
        <ele>371.7</ele>
        <time>2012-09-20T09:48:26Z</time>
      </trkpt>
      <trkpt lat="44.98518" lon="1.87252">
        <ele>370.2</ele>
        <time>2012-09-20T09:48:34Z</time>
      </trkpt>
      <trkpt lat="44.98523" lon="1.87219">
        <ele>369.8</ele>
        <time>2012-09-20T09:48:42Z</time>
      </trkpt>
      <trkpt lat="44.98523" lon="1.87185">
        <ele>368.3</ele>
        <time>2012-09-20T09:48:50Z</time>
      </trkpt>
      <trkpt lat="44.98518" lon="1.87157">
        <ele>367.8</ele>
        <time>2012-09-20T09:48:57Z</time>
      </trkpt>
      <trkpt lat="44.98504" lon="1.87124">
        <ele>364</ele>
        <time>2012-09-20T09:49:06Z</time>
      </trkpt>
      <trkpt lat="44.98502" lon="1.8712">
        <ele>364</ele>
        <time>2012-09-20T09:49:07Z</time>
      </trkpt>
      <trkpt lat="44.98489" lon="1.87103">
        <ele>363</ele>
        <time>2012-09-20T09:49:14Z</time>
      </trkpt>
      <trkpt lat="44.98477" lon="1.87091">
        <ele>360.6</ele>
        <time>2012-09-20T09:49:22Z</time>
      </trkpt>
      <trkpt lat="44.98477" lon="1.87089">
        <ele>360.6</ele>
        <time>2012-09-20T09:49:23Z</time>
      </trkpt>
      <trkpt lat="44.98476" lon="1.87086">
        <ele>361.1</ele>
        <time>2012-09-20T09:49:31Z</time>
      </trkpt>
      <trkpt lat="44.98482" lon="1.87089">
        <ele>359.7</ele>
        <time>2012-09-20T09:49:37Z</time>
      </trkpt>
      <trkpt lat="44.98499" lon="1.8709">
        <ele>357.3</ele>
        <time>2012-09-20T09:49:45Z</time>
      </trkpt>
      <trkpt lat="44.98514" lon="1.8708">
        <ele>357.8</ele>
        <time>2012-09-20T09:49:51Z</time>
      </trkpt>
      <trkpt lat="44.98514" lon="1.87055">
        <ele>358.2</ele>
        <time>2012-09-20T09:49:58Z</time>
      </trkpt>
      <trkpt lat="44.98503" lon="1.87036">
        <ele>360.6</ele>
        <time>2012-09-20T09:50:05Z</time>
      </trkpt>
      <trkpt lat="44.98483" lon="1.87003">
        <ele>360.1</ele>
        <time>2012-09-20T09:50:12Z</time>
      </trkpt>
      <trkpt lat="44.98462" lon="1.86966">
        <ele>362.5</ele>
        <time>2012-09-20T09:50:18Z</time>
      </trkpt>
      <trkpt lat="44.98446" lon="1.86933">
        <ele>366.9</ele>
        <time>2012-09-20T09:50:24Z</time>
      </trkpt>
      <trkpt lat="44.98444" lon="1.86927">
        <ele>360.1</ele>
        <time>2012-09-20T09:50:25Z</time>
      </trkpt>
      <trkpt lat="44.98442" lon="1.86922">
        <ele>364</ele>
        <time>2012-09-20T09:50:26Z</time>
      </trkpt>
      <trkpt lat="44.98449" lon="1.86882">
        <ele>365</ele>
        <time>2012-09-20T09:50:32Z</time>
      </trkpt>
      <trkpt lat="44.98461" lon="1.86856">
        <ele>360.6</ele>
        <time>2012-09-20T09:50:35Z</time>
      </trkpt>
      <trkpt lat="44.98465" lon="1.86844">
        <ele>365.4</ele>
        <time>2012-09-20T09:50:37Z</time>
      </trkpt>
      <trkpt lat="44.98467" lon="1.86839">
        <ele>364.5</ele>
        <time>2012-09-20T09:50:38Z</time>
      </trkpt>
      <trkpt lat="44.98476" lon="1.86811">
        <ele>363.5</ele>
        <time>2012-09-20T09:50:42Z</time>
      </trkpt>
      <trkpt lat="44.9848" lon="1.86804">
        <ele>363.5</ele>
        <time>2012-09-20T09:50:43Z</time>
      </trkpt>
      <trkpt lat="44.98507" lon="1.86761">
        <ele>362.5</ele>
        <time>2012-09-20T09:50:50Z</time>
      </trkpt>
      <trkpt lat="44.98547" lon="1.86717">
        <ele>360.6</ele>
        <time>2012-09-20T09:50:58Z</time>
      </trkpt>
      <trkpt lat="44.98583" lon="1.86688">
        <ele>360.6</ele>
        <time>2012-09-20T09:51:05Z</time>
      </trkpt>
      <trkpt lat="44.98589" lon="1.86683">
        <ele>360.6</ele>
        <time>2012-09-20T09:51:06Z</time>
      </trkpt>
      <trkpt lat="44.98594" lon="1.86677">
        <ele>360.1</ele>
        <time>2012-09-20T09:51:07Z</time>
      </trkpt>
      <trkpt lat="44.98602" lon="1.86663">
        <ele>359.2</ele>
        <time>2012-09-20T09:51:09Z</time>
      </trkpt>
      <trkpt lat="44.98637" lon="1.866">
        <ele>356.8</ele>
        <time>2012-09-20T09:51:17Z</time>
      </trkpt>
      <trkpt lat="44.98661" lon="1.86554">
        <ele>353.4</ele>
        <time>2012-09-20T09:51:24Z</time>
      </trkpt>
      <trkpt lat="44.98666" lon="1.86539">
        <ele>352.9</ele>
        <time>2012-09-20T09:51:26Z</time>
      </trkpt>
      <trkpt lat="44.98679" lon="1.86485">
        <ele>352</ele>
        <time>2012-09-20T09:51:33Z</time>
      </trkpt>
      <trkpt lat="44.9869" lon="1.86454">
        <ele>352.9</ele>
        <time>2012-09-20T09:51:39Z</time>
      </trkpt>
      <trkpt lat="44.98691" lon="1.86444">
        <ele>353.9</ele>
        <time>2012-09-20T09:51:42Z</time>
      </trkpt>
      <trkpt lat="44.98689" lon="1.86441">
        <ele>353.9</ele>
        <time>2012-09-20T09:51:43Z</time>
      </trkpt>
      <trkpt lat="44.98686" lon="1.86437">
        <ele>353.9</ele>
        <time>2012-09-20T09:51:44Z</time>
      </trkpt>
      <trkpt lat="44.98659" lon="1.86408">
        <ele>352.5</ele>
        <time>2012-09-20T09:51:52Z</time>
      </trkpt>
      <trkpt lat="44.9865" lon="1.86398">
        <ele>351.5</ele>
        <time>2012-09-20T09:51:57Z</time>
      </trkpt>
      <trkpt lat="44.98639" lon="1.86383">
        <ele>352</ele>
        <time>2012-09-20T09:52:03Z</time>
      </trkpt>
      <trkpt lat="44.9862" lon="1.86372">
        <ele>352</ele>
        <time>2012-09-20T09:52:10Z</time>
      </trkpt>
      <trkpt lat="44.98584" lon="1.86348">
        <ele>353.9</ele>
        <time>2012-09-20T09:52:19Z</time>
      </trkpt>
      <trkpt lat="44.9857" lon="1.86339">
        <ele>356.3</ele>
        <time>2012-09-20T09:52:23Z</time>
      </trkpt>
      <trkpt lat="44.98539" lon="1.86324">
        <ele>359.7</ele>
        <time>2012-09-20T09:52:32Z</time>
      </trkpt>
      <trkpt lat="44.98532" lon="1.86323">
        <ele>360.6</ele>
        <time>2012-09-20T09:52:34Z</time>
      </trkpt>
      <trkpt lat="44.98518" lon="1.86317">
        <ele>362.5</ele>
        <time>2012-09-20T09:52:38Z</time>
      </trkpt>
      <trkpt lat="44.98516" lon="1.86314">
        <ele>363.5</ele>
        <time>2012-09-20T09:52:39Z</time>
      </trkpt>
      <trkpt lat="44.98515" lon="1.8631">
        <ele>364</ele>
        <time>2012-09-20T09:52:40Z</time>
      </trkpt>
      <trkpt lat="44.98515" lon="1.86306">
        <ele>364</ele>
        <time>2012-09-20T09:52:41Z</time>
      </trkpt>
      <trkpt lat="44.98513" lon="1.86285">
        <ele>365</ele>
        <time>2012-09-20T09:52:48Z</time>
      </trkpt>
      <trkpt lat="44.98507" lon="1.86266">
        <ele>363</ele>
        <time>2012-09-20T09:52:53Z</time>
      </trkpt>
      <trkpt lat="44.98504" lon="1.86263">
        <ele>359.2</ele>
        <time>2012-09-20T09:52:54Z</time>
      </trkpt>
      <trkpt lat="44.98502" lon="1.86259">
        <ele>362.5</ele>
        <time>2012-09-20T09:52:55Z</time>
      </trkpt>
      <trkpt lat="44.98491" lon="1.86247">
        <ele>358.7</ele>
        <time>2012-09-20T09:52:58Z</time>
      </trkpt>
      <trkpt lat="44.98486" lon="1.86243">
        <ele>359.7</ele>
        <time>2012-09-20T09:52:59Z</time>
      </trkpt>
      <trkpt lat="44.98476" lon="1.86234">
        <ele>356.3</ele>
        <time>2012-09-20T09:53:02Z</time>
      </trkpt>
      <trkpt lat="44.98472" lon="1.86231">
        <ele>356.8</ele>
        <time>2012-09-20T09:53:03Z</time>
      </trkpt>
      <trkpt lat="44.98454" lon="1.86224">
        <ele>355.8</ele>
        <time>2012-09-20T09:53:10Z</time>
      </trkpt>
      <trkpt lat="44.98455" lon="1.8623">
        <ele>356.3</ele>
        <time>2012-09-20T09:53:19Z</time>
      </trkpt>
      <trkpt lat="44.98459" lon="1.86233">
        <ele>356.8</ele>
        <time>2012-09-20T09:53:28Z</time>
      </trkpt>
      <trkpt lat="44.98461" lon="1.86232">
        <ele>357.8</ele>
        <time>2012-09-20T09:53:36Z</time>
      </trkpt>
      <trkpt lat="44.98462" lon="1.86232">
        <ele>355.8</ele>
        <time>2012-09-20T09:53:38Z</time>
      </trkpt>
      <trkpt lat="44.98462" lon="1.86232">
        <ele>352.5</ele>
        <time>2012-09-20T09:53:48Z</time>
      </trkpt>
      <trkpt lat="44.98462" lon="1.86232">
        <ele>358.2</ele>
        <time>2012-09-20T09:53:50Z</time>
      </trkpt>
      <trkpt lat="44.98462" lon="1.86232">
        <ele>357.3</ele>
        <time>2012-09-20T09:53:51Z</time>
      </trkpt>
      <trkpt lat="44.98465" lon="1.86232">
        <ele>357.3</ele>
        <time>2012-09-20T09:54:05Z</time>
      </trkpt>
      <trkpt lat="44.98469" lon="1.86232">
        <ele>356.3</ele>
        <time>2012-09-20T09:54:12Z</time>
      </trkpt>
      <trkpt lat="44.9847" lon="1.86233">
        <ele>356.3</ele>
        <time>2012-09-20T09:54:19Z</time>
      </trkpt>
      <trkpt lat="44.98468" lon="1.8623">
        <ele>356.3</ele>
        <time>2012-09-20T09:54:27Z</time>
      </trkpt>
      <trkpt lat="44.98467" lon="1.8623">
        <ele>355.8</ele>
        <time>2012-09-20T09:54:28Z</time>
      </trkpt>
      <trkpt lat="44.98452" lon="1.8622">
        <ele>354.4</ele>
        <time>2012-09-20T09:54:33Z</time>
      </trkpt>
      <trkpt lat="44.98422" lon="1.86195">
        <ele>352.5</ele>
        <time>2012-09-20T09:54:39Z</time>
      </trkpt>
      <trkpt lat="44.98405" lon="1.8618">
        <ele>347.2</ele>
        <time>2012-09-20T09:54:42Z</time>
      </trkpt>
      <trkpt lat="44.98399" lon="1.86175">
        <ele>349.6</ele>
        <time>2012-09-20T09:54:43Z</time>
      </trkpt>
      <trkpt lat="44.98363" lon="1.86149">
        <ele>346.2</ele>
        <time>2012-09-20T09:54:49Z</time>
      </trkpt>
      <trkpt lat="44.9833" lon="1.8613">
        <ele>342.9</ele>
        <time>2012-09-20T09:54:54Z</time>
      </trkpt>
      <trkpt lat="44.98307" lon="1.86114">
        <ele>339.5</ele>
        <time>2012-09-20T09:54:58Z</time>
      </trkpt>
      <trkpt lat="44.98295" lon="1.86106">
        <ele>338.5</ele>
        <time>2012-09-20T09:55:01Z</time>
      </trkpt>
      <trkpt lat="44.9828" lon="1.86097">
        <ele>337.1</ele>
        <time>2012-09-20T09:55:05Z</time>
      </trkpt>
      <trkpt lat="44.98276" lon="1.86093">
        <ele>337.1</ele>
        <time>2012-09-20T09:55:06Z</time>
      </trkpt>
      <trkpt lat="44.98272" lon="1.86088">
        <ele>335.6</ele>
        <time>2012-09-20T09:55:07Z</time>
      </trkpt>
      <trkpt lat="44.98269" lon="1.86083">
        <ele>335.6</ele>
        <time>2012-09-20T09:55:08Z</time>
      </trkpt>
      <trkpt lat="44.98266" lon="1.86077">
        <ele>335.6</ele>
        <time>2012-09-20T09:55:09Z</time>
      </trkpt>
      <trkpt lat="44.98263" lon="1.8607">
        <ele>334.7</ele>
        <time>2012-09-20T09:55:10Z</time>
      </trkpt>
      <trkpt lat="44.98262" lon="1.86064">
        <ele>334.7</ele>
        <time>2012-09-20T09:55:11Z</time>
      </trkpt>
      <trkpt lat="44.98262" lon="1.86058">
        <ele>334.7</ele>
        <time>2012-09-20T09:55:12Z</time>
      </trkpt>
      <trkpt lat="44.98262" lon="1.86052">
        <ele>334.7</ele>
        <time>2012-09-20T09:55:13Z</time>
      </trkpt>
      <trkpt lat="44.98264" lon="1.86046">
        <ele>334.7</ele>
        <time>2012-09-20T09:55:14Z</time>
      </trkpt>
      <trkpt lat="44.98266" lon="1.8604">
        <ele>333.7</ele>
        <time>2012-09-20T09:55:15Z</time>
      </trkpt>
      <trkpt lat="44.98269" lon="1.86034">
        <ele>333.7</ele>
        <time>2012-09-20T09:55:16Z</time>
      </trkpt>
      <trkpt lat="44.98272" lon="1.86029">
        <ele>332.8</ele>
        <time>2012-09-20T09:55:17Z</time>
      </trkpt>
      <trkpt lat="44.98285" lon="1.86011">
        <ele>331.3</ele>
        <time>2012-09-20T09:55:22Z</time>
      </trkpt>
      <trkpt lat="44.98291" lon="1.86012">
        <ele>331.3</ele>
        <time>2012-09-20T09:55:27Z</time>
      </trkpt>
      <trkpt lat="44.98291" lon="1.8601">
        <ele>331.3</ele>
        <time>2012-09-20T09:55:28Z</time>
      </trkpt>
      <trkpt lat="44.98292" lon="1.86007">
        <ele>331.8</ele>
        <time>2012-09-20T09:55:29Z</time>
      </trkpt>
      <trkpt lat="44.98302" lon="1.85978">
        <ele>331.3</ele>
        <time>2012-09-20T09:55:34Z</time>
      </trkpt>
      <trkpt lat="44.98314" lon="1.85942">
        <ele>328.9</ele>
        <time>2012-09-20T09:55:38Z</time>
      </trkpt>
      <trkpt lat="44.98328" lon="1.85904">
        <ele>325.5</ele>
        <time>2012-09-20T09:55:42Z</time>
      </trkpt>
      <trkpt lat="44.98338" lon="1.85881">
        <ele>322.2</ele>
        <time>2012-09-20T09:55:45Z</time>
      </trkpt>
      <trkpt lat="44.9835" lon="1.85861">
        <ele>318.3</ele>
        <time>2012-09-20T09:55:50Z</time>
      </trkpt>
      <trkpt lat="44.98356" lon="1.85843">
        <ele>316.4</ele>
        <time>2012-09-20T09:55:56Z</time>
      </trkpt>
      <trkpt lat="44.98355" lon="1.85841">
        <ele>315.5</ele>
        <time>2012-09-20T09:55:57Z</time>
      </trkpt>
      <trkpt lat="44.98353" lon="1.8584">
        <ele>315</ele>
        <time>2012-09-20T09:55:58Z</time>
      </trkpt>
      <trkpt lat="44.98351" lon="1.85839">
        <ele>315</ele>
        <time>2012-09-20T09:55:59Z</time>
      </trkpt>
      <trkpt lat="44.98348" lon="1.85839">
        <ele>315</ele>
        <time>2012-09-20T09:56:00Z</time>
      </trkpt>
      <trkpt lat="44.98345" lon="1.85839">
        <ele>314.5</ele>
        <time>2012-09-20T09:56:01Z</time>
      </trkpt>
      <trkpt lat="44.98343" lon="1.85839">
        <ele>314</ele>
        <time>2012-09-20T09:56:02Z</time>
      </trkpt>
      <trkpt lat="44.9834" lon="1.85839">
        <ele>314</ele>
        <time>2012-09-20T09:56:03Z</time>
      </trkpt>
      <trkpt lat="44.98338" lon="1.85839">
        <ele>314</ele>
        <time>2012-09-20T09:56:04Z</time>
      </trkpt>
      <trkpt lat="44.98335" lon="1.85838">
        <ele>314</ele>
        <time>2012-09-20T09:56:05Z</time>
      </trkpt>
      <trkpt lat="44.98333" lon="1.85838">
        <ele>313.5</ele>
        <time>2012-09-20T09:56:06Z</time>
      </trkpt>
      <trkpt lat="44.98317" lon="1.85824">
        <ele>311.6</ele>
        <time>2012-09-20T09:56:13Z</time>
      </trkpt>
      <trkpt lat="44.98297" lon="1.858">
        <ele>309.7</ele>
        <time>2012-09-20T09:56:23Z</time>
      </trkpt>
      <trkpt lat="44.98285" lon="1.85794">
        <ele>309.2</ele>
        <time>2012-09-20T09:56:28Z</time>
      </trkpt>
      <trkpt lat="44.98282" lon="1.85796">
        <ele>309.2</ele>
        <time>2012-09-20T09:56:29Z</time>
      </trkpt>
      <trkpt lat="44.9828" lon="1.85798">
        <ele>309.7</ele>
        <time>2012-09-20T09:56:30Z</time>
      </trkpt>
      <trkpt lat="44.98278" lon="1.85802">
        <ele>309.2</ele>
        <time>2012-09-20T09:56:31Z</time>
      </trkpt>
      <trkpt lat="44.98277" lon="1.85807">
        <ele>309.7</ele>
        <time>2012-09-20T09:56:32Z</time>
      </trkpt>
      <trkpt lat="44.98275" lon="1.85811">
        <ele>309.7</ele>
        <time>2012-09-20T09:56:33Z</time>
      </trkpt>
      <trkpt lat="44.98264" lon="1.85845">
        <ele>309.7</ele>
        <time>2012-09-20T09:56:42Z</time>
      </trkpt>
      <trkpt lat="44.98247" lon="1.85891">
        <ele>309.2</ele>
        <time>2012-09-20T09:56:52Z</time>
      </trkpt>
      <trkpt lat="44.98231" lon="1.8593">
        <ele>307.3</ele>
        <time>2012-09-20T09:57:02Z</time>
      </trkpt>
      <trkpt lat="44.98228" lon="1.85932">
        <ele>307.3</ele>
        <time>2012-09-20T09:57:04Z</time>
      </trkpt>
      <trkpt lat="44.98227" lon="1.85932">
        <ele>307.3</ele>
        <time>2012-09-20T09:57:07Z</time>
      </trkpt>
      <trkpt lat="44.98227" lon="1.85934">
        <ele>307.3</ele>
        <time>2012-09-20T09:57:08Z</time>
      </trkpt>
      <trkpt lat="44.98214" lon="1.85967">
        <ele>305.4</ele>
        <time>2012-09-20T09:57:16Z</time>
      </trkpt>
      <trkpt lat="44.98195" lon="1.86">
        <ele>303</ele>
        <time>2012-09-20T09:57:24Z</time>
      </trkpt>
      <trkpt lat="44.98179" lon="1.86031">
        <ele>301.5</ele>
        <time>2012-09-20T09:57:31Z</time>
      </trkpt>
      <trkpt lat="44.98159" lon="1.86052">
        <ele>300.1</ele>
        <time>2012-09-20T09:57:38Z</time>
      </trkpt>
      <trkpt lat="44.98151" lon="1.86054">
        <ele>298.6</ele>
        <time>2012-09-20T09:57:41Z</time>
      </trkpt>
      <trkpt lat="44.98128" lon="1.86061">
        <ele>295.3</ele>
        <time>2012-09-20T09:57:48Z</time>
      </trkpt>
      <trkpt lat="44.98106" lon="1.86053">
        <ele>292.4</ele>
        <time>2012-09-20T09:57:55Z</time>
      </trkpt>
      <trkpt lat="44.9808" lon="1.86051">
        <ele>290</ele>
        <time>2012-09-20T09:58:02Z</time>
      </trkpt>
      <trkpt lat="44.98065" lon="1.86042">
        <ele>287.6</ele>
        <time>2012-09-20T09:58:07Z</time>
      </trkpt>
      <trkpt lat="44.98057" lon="1.86035">
        <ele>286.1</ele>
        <time>2012-09-20T09:58:10Z</time>
      </trkpt>
      <trkpt lat="44.98049" lon="1.86024">
        <ele>283.7</ele>
        <time>2012-09-20T09:58:14Z</time>
      </trkpt>
      <trkpt lat="44.9804" lon="1.86002">
        <ele>281.8</ele>
        <time>2012-09-20T09:58:21Z</time>
      </trkpt>
      <trkpt lat="44.98029" lon="1.85978">
        <ele>279.4</ele>
        <time>2012-09-20T09:58:30Z</time>
      </trkpt>
      <trkpt lat="44.98022" lon="1.8596">
        <ele>277</ele>
        <time>2012-09-20T09:58:36Z</time>
      </trkpt>
      <trkpt lat="44.98013" lon="1.85932">
        <ele>274.1</ele>
        <time>2012-09-20T09:58:44Z</time>
      </trkpt>
      <trkpt lat="44.98005" lon="1.85904">
        <ele>270.8</ele>
        <time>2012-09-20T09:58:52Z</time>
      </trkpt>
      <trkpt lat="44.97998" lon="1.85891">
        <ele>268.8</ele>
        <time>2012-09-20T09:58:57Z</time>
      </trkpt>
      <trkpt lat="44.97982" lon="1.85879">
        <ele>265.9</ele>
        <time>2012-09-20T09:59:03Z</time>
      </trkpt>
      <trkpt lat="44.97966" lon="1.85878">
        <ele>263.1</ele>
        <time>2012-09-20T09:59:09Z</time>
      </trkpt>
      <trkpt lat="44.97958" lon="1.85881">
        <ele>261.6</ele>
        <time>2012-09-20T09:59:12Z</time>
      </trkpt>
      <trkpt lat="44.97942" lon="1.8589">
        <ele>258.2</ele>
        <time>2012-09-20T09:59:20Z</time>
      </trkpt>
      <trkpt lat="44.97939" lon="1.85891">
        <ele>258.2</ele>
        <time>2012-09-20T09:59:21Z</time>
      </trkpt>
      <trkpt lat="44.97929" lon="1.85898">
        <ele>256.8</ele>
        <time>2012-09-20T09:59:25Z</time>
      </trkpt>
      <trkpt lat="44.97917" lon="1.85903">
        <ele>255.4</ele>
        <time>2012-09-20T09:59:29Z</time>
      </trkpt>
      <trkpt lat="44.97897" lon="1.85913">
        <ele>252.5</ele>
        <time>2012-09-20T09:59:35Z</time>
      </trkpt>
      <trkpt lat="44.97881" lon="1.85928">
        <ele>250.6</ele>
        <time>2012-09-20T09:59:42Z</time>
      </trkpt>
      <trkpt lat="44.97871" lon="1.85944">
        <ele>247.2</ele>
        <time>2012-09-20T09:59:49Z</time>
      </trkpt>
      <trkpt lat="44.97863" lon="1.8595">
        <ele>242.4</ele>
        <time>2012-09-20T09:59:56Z</time>
      </trkpt>
      <trkpt lat="44.97862" lon="1.8595">
        <ele>248.6</ele>
        <time>2012-09-20T09:59:57Z</time>
      </trkpt>
      <trkpt lat="44.97861" lon="1.85949">
        <ele>243.8</ele>
        <time>2012-09-20T09:59:58Z</time>
      </trkpt>
      <trkpt lat="44.9786" lon="1.85948">
        <ele>245.8</ele>
        <time>2012-09-20T09:59:59Z</time>
      </trkpt>
      <trkpt lat="44.97859" lon="1.85947">
        <ele>253.4</ele>
        <time>2012-09-20T10:00:00Z</time>
      </trkpt>
      <trkpt lat="44.97858" lon="1.85946">
        <ele>245.3</ele>
        <time>2012-09-20T10:00:01Z</time>
      </trkpt>
      <trkpt lat="44.97858" lon="1.85943">
        <ele>244.8</ele>
        <time>2012-09-20T10:00:03Z</time>
      </trkpt>
      <trkpt lat="44.97857" lon="1.85941">
        <ele>244.3</ele>
        <time>2012-09-20T10:00:04Z</time>
      </trkpt>
      <trkpt lat="44.97857" lon="1.85939">
        <ele>243.8</ele>
        <time>2012-09-20T10:00:05Z</time>
      </trkpt>
      <trkpt lat="44.97859" lon="1.85911">
        <ele>242.4</ele>
        <time>2012-09-20T10:00:13Z</time>
      </trkpt>
      <trkpt lat="44.97865" lon="1.85891">
        <ele>239</ele>
        <time>2012-09-20T10:00:17Z</time>
      </trkpt>
      <trkpt lat="44.97868" lon="1.85883">
        <ele>244.3</ele>
        <time>2012-09-20T10:00:19Z</time>
      </trkpt>
      <trkpt lat="44.9787" lon="1.85879">
        <ele>240.5</ele>
        <time>2012-09-20T10:00:20Z</time>
      </trkpt>
      <trkpt lat="44.97884" lon="1.85847">
        <ele>237.1</ele>
        <time>2012-09-20T10:00:28Z</time>
      </trkpt>
      <trkpt lat="44.97886" lon="1.85843">
        <ele>237.1</ele>
        <time>2012-09-20T10:00:29Z</time>
      </trkpt>
      <trkpt lat="44.97905" lon="1.85802">
        <ele>235.7</ele>
        <time>2012-09-20T10:00:39Z</time>
      </trkpt>
      <trkpt lat="44.97926" lon="1.85771">
        <ele>234.2</ele>
        <time>2012-09-20T10:00:47Z</time>
      </trkpt>
      <trkpt lat="44.97949" lon="1.85747">
        <ele>231.3</ele>
        <time>2012-09-20T10:00:56Z</time>
      </trkpt>
      <trkpt lat="44.97952" lon="1.85745">
        <ele>230.9</ele>
        <time>2012-09-20T10:00:57Z</time>
      </trkpt>
      <trkpt lat="44.97969" lon="1.85741">
        <ele>228</ele>
        <time>2012-09-20T10:01:04Z</time>
      </trkpt>
      <trkpt lat="44.97972" lon="1.85742">
        <ele>227.5</ele>
        <time>2012-09-20T10:01:05Z</time>
      </trkpt>
      <trkpt lat="44.97985" lon="1.85749">
        <ele>226.5</ele>
        <time>2012-09-20T10:01:12Z</time>
      </trkpt>
      <trkpt lat="44.97987" lon="1.85749">
        <ele>226.1</ele>
        <time>2012-09-20T10:01:13Z</time>
      </trkpt>
      <trkpt lat="44.97995" lon="1.85748">
        <ele>225.6</ele>
        <time>2012-09-20T10:01:20Z</time>
      </trkpt>
      <trkpt lat="44.97995" lon="1.85747">
        <ele>225.6</ele>
        <time>2012-09-20T10:01:30Z</time>
      </trkpt>
      <trkpt lat="44.97992" lon="1.85741">
        <ele>224.1</ele>
        <time>2012-09-20T10:01:37Z</time>
      </trkpt>
      <trkpt lat="44.97991" lon="1.8574">
        <ele>224.1</ele>
        <time>2012-09-20T10:01:38Z</time>
      </trkpt>
      <trkpt lat="44.97977" lon="1.85728">
        <ele>221.2</ele>
        <time>2012-09-20T10:01:46Z</time>
      </trkpt>
      <trkpt lat="44.97963" lon="1.85715">
        <ele>218.4</ele>
        <time>2012-09-20T10:01:51Z</time>
      </trkpt>
      <trkpt lat="44.97961" lon="1.85713">
        <ele>217.9</ele>
        <time>2012-09-20T10:01:52Z</time>
      </trkpt>
      <trkpt lat="44.97946" lon="1.85695">
        <ele>214</ele>
        <time>2012-09-20T10:01:58Z</time>
      </trkpt>
      <trkpt lat="44.97935" lon="1.8568">
        <ele>211.6</ele>
        <time>2012-09-20T10:02:02Z</time>
      </trkpt>
      <trkpt lat="44.97927" lon="1.85671">
        <ele>210.2</ele>
        <time>2012-09-20T10:02:05Z</time>
      </trkpt>
      <trkpt lat="44.97919" lon="1.85664">
        <ele>208.7</ele>
        <time>2012-09-20T10:02:08Z</time>
      </trkpt>
      <trkpt lat="44.97906" lon="1.8565">
        <ele>205.9</ele>
        <time>2012-09-20T10:02:15Z</time>
      </trkpt>
      <trkpt lat="44.97905" lon="1.85647">
        <ele>205.4</ele>
        <time>2012-09-20T10:02:16Z</time>
      </trkpt>
      <trkpt lat="44.97903" lon="1.85621">
        <ele>203</ele>
        <time>2012-09-20T10:02:22Z</time>
      </trkpt>
      <trkpt lat="44.97903" lon="1.85603">
        <ele>201.5</ele>
        <time>2012-09-20T10:02:25Z</time>
      </trkpt>
      <trkpt lat="44.97902" lon="1.85585">
        <ele>199.6</ele>
        <time>2012-09-20T10:02:29Z</time>
      </trkpt>
      <trkpt lat="44.97901" lon="1.85576">
        <ele>199.6</ele>
        <time>2012-09-20T10:02:32Z</time>
      </trkpt>
      <trkpt lat="44.97903" lon="1.85573">
        <ele>200.6</ele>
        <time>2012-09-20T10:02:33Z</time>
      </trkpt>
      <trkpt lat="44.97906" lon="1.85571">
        <ele>199.1</ele>
        <time>2012-09-20T10:02:34Z</time>
      </trkpt>
      <trkpt lat="44.9791" lon="1.85568">
        <ele>199.1</ele>
        <time>2012-09-20T10:02:35Z</time>
      </trkpt>
      <trkpt lat="44.97915" lon="1.85564">
        <ele>203</ele>
        <time>2012-09-20T10:02:36Z</time>
      </trkpt>
      <trkpt lat="44.97921" lon="1.8556">
        <ele>200.1</ele>
        <time>2012-09-20T10:02:37Z</time>
      </trkpt>
      <trkpt lat="44.97942" lon="1.85544">
        <ele>198.6</ele>
        <time>2012-09-20T10:02:40Z</time>
      </trkpt>
      <trkpt lat="44.9795" lon="1.85537">
        <ele>198.6</ele>
        <time>2012-09-20T10:02:41Z</time>
      </trkpt>
      <trkpt lat="44.97958" lon="1.85528">
        <ele>197.7</ele>
        <time>2012-09-20T10:02:42Z</time>
      </trkpt>
      <trkpt lat="44.97998" lon="1.85465">
        <ele>194.3</ele>
        <time>2012-09-20T10:02:47Z</time>
      </trkpt>
      <trkpt lat="44.98023" lon="1.85423">
        <ele>191</ele>
        <time>2012-09-20T10:02:50Z</time>
      </trkpt>
      <trkpt lat="44.98038" lon="1.85399">
        <ele>187.1</ele>
        <time>2012-09-20T10:02:52Z</time>
      </trkpt>
      <trkpt lat="44.9806" lon="1.85365">
        <ele>183.3</ele>
        <time>2012-09-20T10:02:55Z</time>
      </trkpt>
      <trkpt lat="44.98071" lon="1.85344">
        <ele>179.9</ele>
        <time>2012-09-20T10:02:57Z</time>
      </trkpt>
      <trkpt lat="44.98076" lon="1.85335">
        <ele>178.9</ele>
        <time>2012-09-20T10:02:58Z</time>
      </trkpt>
      <trkpt lat="44.98081" lon="1.85317">
        <ele>175.6</ele>
        <time>2012-09-20T10:03:01Z</time>
      </trkpt>
      <trkpt lat="44.98081" lon="1.85314">
        <ele>175.1</ele>
        <time>2012-09-20T10:03:02Z</time>
      </trkpt>
      <trkpt lat="44.98084" lon="1.85299">
        <ele>175.6</ele>
        <time>2012-09-20T10:03:05Z</time>
      </trkpt>
      <trkpt lat="44.98087" lon="1.85292">
        <ele>175.1</ele>
        <time>2012-09-20T10:03:06Z</time>
      </trkpt>
      <trkpt lat="44.98092" lon="1.85284">
        <ele>174.6</ele>
        <time>2012-09-20T10:03:07Z</time>
      </trkpt>
      <trkpt lat="44.98116" lon="1.85241">
        <ele>171.2</ele>
        <time>2012-09-20T10:03:11Z</time>
      </trkpt>
      <trkpt lat="44.98122" lon="1.85228">
        <ele>172.7</ele>
        <time>2012-09-20T10:03:12Z</time>
      </trkpt>
      <trkpt lat="44.98134" lon="1.85204">
        <ele>171.7</ele>
        <time>2012-09-20T10:03:14Z</time>
      </trkpt>
      <trkpt lat="44.98141" lon="1.85193">
        <ele>167.9</ele>
        <time>2012-09-20T10:03:15Z</time>
      </trkpt>
      <trkpt lat="44.98156" lon="1.85173">
        <ele>164.5</ele>
        <time>2012-09-20T10:03:17Z</time>
      </trkpt>
      <trkpt lat="44.98177" lon="1.85143">
        <ele>161.6</ele>
        <time>2012-09-20T10:03:20Z</time>
      </trkpt>
      <trkpt lat="44.98184" lon="1.85133">
        <ele>160.2</ele>
        <time>2012-09-20T10:03:21Z</time>
      </trkpt>
      <trkpt lat="44.98189" lon="1.85123">
        <ele>157.3</ele>
        <time>2012-09-20T10:03:22Z</time>
      </trkpt>
      <trkpt lat="44.98193" lon="1.85113">
        <ele>160.7</ele>
        <time>2012-09-20T10:03:23Z</time>
      </trkpt>
      <trkpt lat="44.98198" lon="1.85093">
        <ele>157.8</ele>
        <time>2012-09-20T10:03:25Z</time>
      </trkpt>
      <trkpt lat="44.98198" lon="1.85082">
        <ele>155.9</ele>
        <time>2012-09-20T10:03:26Z</time>
      </trkpt>
      <trkpt lat="44.98198" lon="1.8507">
        <ele>154.4</ele>
        <time>2012-09-20T10:03:27Z</time>
      </trkpt>
      <trkpt lat="44.98198" lon="1.85058">
        <ele>159.2</ele>
        <time>2012-09-20T10:03:28Z</time>
      </trkpt>
      <trkpt lat="44.98197" lon="1.85043">
        <ele>157.8</ele>
        <time>2012-09-20T10:03:29Z</time>
      </trkpt>
      <trkpt lat="44.98196" lon="1.85026">
        <ele>157.3</ele>
        <time>2012-09-20T10:03:30Z</time>
      </trkpt>
      <trkpt lat="44.98193" lon="1.84976">
        <ele>153.5</ele>
        <time>2012-09-20T10:03:33Z</time>
      </trkpt>
      <trkpt lat="44.98193" lon="1.84963">
        <ele>153.5</ele>
        <time>2012-09-20T10:03:34Z</time>
      </trkpt>
      <trkpt lat="44.98193" lon="1.84944">
        <ele>151.1</ele>
        <time>2012-09-20T10:03:36Z</time>
      </trkpt>
      <trkpt lat="44.98194" lon="1.84937">
        <ele>150.1</ele>
        <time>2012-09-20T10:03:37Z</time>
      </trkpt>
      <trkpt lat="44.98196" lon="1.84924">
        <ele>148.7</ele>
        <time>2012-09-20T10:03:41Z</time>
      </trkpt>
      <trkpt lat="44.98201" lon="1.84893">
        <ele>150.1</ele>
        <time>2012-09-20T10:03:45Z</time>
      </trkpt>
      <trkpt lat="44.98206" lon="1.84866">
        <ele>151.5</ele>
        <time>2012-09-20T10:03:47Z</time>
      </trkpt>
      <trkpt lat="44.98222" lon="1.84803">
        <ele>151.5</ele>
        <time>2012-09-20T10:03:51Z</time>
      </trkpt>
      <trkpt lat="44.98257" lon="1.84717">
        <ele>150.6</ele>
        <time>2012-09-20T10:03:56Z</time>
      </trkpt>
      <trkpt lat="44.98285" lon="1.84627">
        <ele>150.1</ele>
        <time>2012-09-20T10:04:01Z</time>
      </trkpt>
      <trkpt lat="44.98296" lon="1.84577">
        <ele>147.7</ele>
        <time>2012-09-20T10:04:04Z</time>
      </trkpt>
      <trkpt lat="44.98301" lon="1.84563">
        <ele>147.2</ele>
        <time>2012-09-20T10:04:05Z</time>
      </trkpt>
      <trkpt lat="44.98308" lon="1.8455">
        <ele>147.2</ele>
        <time>2012-09-20T10:04:06Z</time>
      </trkpt>
      <trkpt lat="44.98317" lon="1.84538">
        <ele>147.7</ele>
        <time>2012-09-20T10:04:07Z</time>
      </trkpt>
      <trkpt lat="44.98327" lon="1.84528">
        <ele>147.2</ele>
        <time>2012-09-20T10:04:08Z</time>
      </trkpt>
      <trkpt lat="44.98337" lon="1.84516">
        <ele>147.2</ele>
        <time>2012-09-20T10:04:09Z</time>
      </trkpt>
      <trkpt lat="44.98375" lon="1.84462">
        <ele>147.7</ele>
        <time>2012-09-20T10:04:13Z</time>
      </trkpt>
      <trkpt lat="44.9838" lon="1.84443">
        <ele>148.2</ele>
        <time>2012-09-20T10:04:14Z</time>
      </trkpt>
      <trkpt lat="44.98391" lon="1.84409">
        <ele>148.2</ele>
        <time>2012-09-20T10:04:16Z</time>
      </trkpt>
      <trkpt lat="44.98414" lon="1.84307">
        <ele>148.7</ele>
        <time>2012-09-20T10:04:22Z</time>
      </trkpt>
      <trkpt lat="44.98425" lon="1.84201">
        <ele>149.6</ele>
        <time>2012-09-20T10:04:28Z</time>
      </trkpt>
      <trkpt lat="44.98431" lon="1.84103">
        <ele>147.7</ele>
        <time>2012-09-20T10:04:34Z</time>
      </trkpt>
      <trkpt lat="44.98434" lon="1.84067">
        <ele>140</ele>
        <time>2012-09-20T10:04:37Z</time>
      </trkpt>
      <trkpt lat="44.98434" lon="1.84058">
        <ele>144.3</ele>
        <time>2012-09-20T10:04:38Z</time>
      </trkpt>
      <trkpt lat="44.98435" lon="1.84046">
        <ele>141</ele>
        <time>2012-09-20T10:04:40Z</time>
      </trkpt>
      <trkpt lat="44.98435" lon="1.84042">
        <ele>144.8</ele>
        <time>2012-09-20T10:04:41Z</time>
      </trkpt>
      <trkpt lat="44.98434" lon="1.8404">
        <ele>145.8</ele>
        <time>2012-09-20T10:04:42Z</time>
      </trkpt>
      <trkpt lat="44.98434" lon="1.8404">
        <ele>145.8</ele>
        <time>2012-09-20T10:04:43Z</time>
      </trkpt>
      <trkpt lat="44.98432" lon="1.8404">
        <ele>143.4</ele>
        <time>2012-09-20T10:04:44Z</time>
      </trkpt>
      <trkpt lat="44.98428" lon="1.84041">
        <ele>143.4</ele>
        <time>2012-09-20T10:04:52Z</time>
      </trkpt>
      <trkpt lat="44.98427" lon="1.8404">
        <ele>142.9</ele>
        <time>2012-09-20T10:05:06Z</time>
      </trkpt>
      <trkpt lat="44.98421" lon="1.84038">
        <ele>143.9</ele>
        <time>2012-09-20T10:05:12Z</time>
      </trkpt>
      <trkpt lat="44.98415" lon="1.84038">
        <ele>143.4</ele>
        <time>2012-09-20T10:05:19Z</time>
      </trkpt>
      <trkpt lat="44.98406" lon="1.84039">
        <ele>142.9</ele>
        <time>2012-09-20T10:05:25Z</time>
      </trkpt>
      <trkpt lat="44.98399" lon="1.84037">
        <ele>143.4</ele>
        <time>2012-09-20T10:05:32Z</time>
      </trkpt>
      <trkpt lat="44.98395" lon="1.84035">
        <ele>142.9</ele>
        <time>2012-09-20T10:05:38Z</time>
      </trkpt>
      <trkpt lat="44.98389" lon="1.84036">
        <ele>142.9</ele>
        <time>2012-09-20T10:05:45Z</time>
      </trkpt>
      <trkpt lat="44.98387" lon="1.84037">
        <ele>142.4</ele>
        <time>2012-09-20T10:05:46Z</time>
      </trkpt>
      <trkpt lat="44.98383" lon="1.84036">
        <ele>142.9</ele>
        <time>2012-09-20T10:05:51Z</time>
      </trkpt>
      <trkpt lat="44.9838" lon="1.8404">
        <ele>143.4</ele>
        <time>2012-09-20T10:05:58Z</time>
      </trkpt>
      <trkpt lat="44.98378" lon="1.8404">
        <ele>142.9</ele>
        <time>2012-09-20T10:06:02Z</time>
      </trkpt>
      <trkpt lat="44.98377" lon="1.84039">
        <ele>142.9</ele>
        <time>2012-09-20T10:06:03Z</time>
      </trkpt>
      <trkpt lat="44.98375" lon="1.84039">
        <ele>143.4</ele>
        <time>2012-09-20T10:06:04Z</time>
      </trkpt>
      <trkpt lat="44.98372" lon="1.8404">
        <ele>142.9</ele>
        <time>2012-09-20T10:06:09Z</time>
      </trkpt>
      <trkpt lat="44.98371" lon="1.84041">
        <ele>142.9</ele>
        <time>2012-09-20T10:06:16Z</time>
      </trkpt>
      <trkpt lat="44.9837" lon="1.84042">
        <ele>143.9</ele>
        <time>2012-09-20T10:06:21Z</time>
      </trkpt>
      <trkpt lat="44.98365" lon="1.84044">
        <ele>142.4</ele>
        <time>2012-09-20T10:06:28Z</time>
      </trkpt>
      <trkpt lat="44.98362" lon="1.84044">
        <ele>142.9</ele>
        <time>2012-09-20T10:06:31Z</time>
      </trkpt>
      <trkpt lat="44.98345" lon="1.84043">
        <ele>142.4</ele>
        <time>2012-09-20T10:06:38Z</time>
      </trkpt>
      <trkpt lat="44.98324" lon="1.84037">
        <ele>142.9</ele>
        <time>2012-09-20T10:06:44Z</time>
      </trkpt>
      <trkpt lat="44.98315" lon="1.84028">
        <ele>142.9</ele>
        <time>2012-09-20T10:06:50Z</time>
      </trkpt>
      <trkpt lat="44.98314" lon="1.84027">
        <ele>142.4</ele>
        <time>2012-09-20T10:06:51Z</time>
      </trkpt>
      <trkpt lat="44.98313" lon="1.84025">
        <ele>142.4</ele>
        <time>2012-09-20T10:06:52Z</time>
      </trkpt>
      <trkpt lat="44.98312" lon="1.84023">
        <ele>142.4</ele>
        <time>2012-09-20T10:06:53Z</time>
      </trkpt>
      <trkpt lat="44.98312" lon="1.84021">
        <ele>142.4</ele>
        <time>2012-09-20T10:06:54Z</time>
      </trkpt>
      <trkpt lat="44.98311" lon="1.8402">
        <ele>142.9</ele>
        <time>2012-09-20T10:06:55Z</time>
      </trkpt>
      <trkpt lat="44.9831" lon="1.84018">
        <ele>142.9</ele>
        <time>2012-09-20T10:06:56Z</time>
      </trkpt>
      <trkpt lat="44.98309" lon="1.84016">
        <ele>142.9</ele>
        <time>2012-09-20T10:06:57Z</time>
      </trkpt>
      <trkpt lat="44.98309" lon="1.84015">
        <ele>142.4</ele>
        <time>2012-09-20T10:06:58Z</time>
      </trkpt>
      <trkpt lat="44.98311" lon="1.84005">
        <ele>143.4</ele>
        <time>2012-09-20T10:07:04Z</time>
      </trkpt>
      <trkpt lat="44.98312" lon="1.84004">
        <ele>142.9</ele>
        <time>2012-09-20T10:07:05Z</time>
      </trkpt>
      <trkpt lat="44.98312" lon="1.83997">
        <ele>142.9</ele>
        <time>2012-09-20T10:07:09Z</time>
      </trkpt>
      <trkpt lat="44.98311" lon="1.83995">
        <ele>143.4</ele>
        <time>2012-09-20T10:07:10Z</time>
      </trkpt>
      <trkpt lat="44.98311" lon="1.83994">
        <ele>142.9</ele>
        <time>2012-09-20T10:07:11Z</time>
      </trkpt>
      <trkpt lat="44.98311" lon="1.83992">
        <ele>142.4</ele>
        <time>2012-09-20T10:07:12Z</time>
      </trkpt>
      <trkpt lat="44.98312" lon="1.83991">
        <ele>142.9</ele>
        <time>2012-09-20T10:07:13Z</time>
      </trkpt>
      <trkpt lat="44.98312" lon="1.83989">
        <ele>142.9</ele>
        <time>2012-09-20T10:07:14Z</time>
      </trkpt>
      <trkpt lat="44.98312" lon="1.83987">
        <ele>142.9</ele>
        <time>2012-09-20T10:07:15Z</time>
      </trkpt>
      <trkpt lat="44.98313" lon="1.83976">
        <ele>142.9</ele>
        <time>2012-09-20T10:07:22Z</time>
      </trkpt>
      <trkpt lat="44.98313" lon="1.83974">
        <ele>142.9</ele>
        <time>2012-09-20T10:07:23Z</time>
      </trkpt>
      <trkpt lat="44.98313" lon="1.83972">
        <ele>142.4</ele>
        <time>2012-09-20T10:07:24Z</time>
      </trkpt>
      <trkpt lat="44.98314" lon="1.8397">
        <ele>142.4</ele>
        <time>2012-09-20T10:07:25Z</time>
      </trkpt>
      <trkpt lat="44.98314" lon="1.83968">
        <ele>142.4</ele>
        <time>2012-09-20T10:07:26Z</time>
      </trkpt>
      <trkpt lat="44.98313" lon="1.83957">
        <ele>142.4</ele>
        <time>2012-09-20T10:07:31Z</time>
      </trkpt>
      <trkpt lat="44.98312" lon="1.83956">
        <ele>142.9</ele>
        <time>2012-09-20T10:07:32Z</time>
      </trkpt>
      <trkpt lat="44.98312" lon="1.83954">
        <ele>142.4</ele>
        <time>2012-09-20T10:07:33Z</time>
      </trkpt>
      <trkpt lat="44.98312" lon="1.8395">
        <ele>142.4</ele>
        <time>2012-09-20T10:07:35Z</time>
      </trkpt>
      <trkpt lat="44.98313" lon="1.83945">
        <ele>142.4</ele>
        <time>2012-09-20T10:07:39Z</time>
      </trkpt>
      <trkpt lat="44.98313" lon="1.83943">
        <ele>142.9</ele>
        <time>2012-09-20T10:07:40Z</time>
      </trkpt>
      <trkpt lat="44.98314" lon="1.83934">
        <ele>142.9</ele>
        <time>2012-09-20T10:07:46Z</time>
      </trkpt>
      <trkpt lat="44.98314" lon="1.83932">
        <ele>142.9</ele>
        <time>2012-09-20T10:07:47Z</time>
      </trkpt>
      <trkpt lat="44.98315" lon="1.83916">
        <ele>142.4</ele>
        <time>2012-09-20T10:07:54Z</time>
      </trkpt>
      <trkpt lat="44.98317" lon="1.83902">
        <ele>142.9</ele>
        <time>2012-09-20T10:08:02Z</time>
      </trkpt>
      <trkpt lat="44.9832" lon="1.83888">
        <ele>143.4</ele>
        <time>2012-09-20T10:08:10Z</time>
      </trkpt>
      <trkpt lat="44.9832" lon="1.83885">
        <ele>143.4</ele>
        <time>2012-09-20T10:08:12Z</time>
      </trkpt>
      <trkpt lat="44.98319" lon="1.83871">
        <ele>142.9</ele>
        <time>2012-09-20T10:08:20Z</time>
      </trkpt>
      <trkpt lat="44.98314" lon="1.83852">
        <ele>142.9</ele>
        <time>2012-09-20T10:08:28Z</time>
      </trkpt>
      <trkpt lat="44.98306" lon="1.8384">
        <ele>143.4</ele>
        <time>2012-09-20T10:08:36Z</time>
      </trkpt>
      <trkpt lat="44.98302" lon="1.83839">
        <ele>142.9</ele>
        <time>2012-09-20T10:08:38Z</time>
      </trkpt>
      <trkpt lat="44.98301" lon="1.83839">
        <ele>142.9</ele>
        <time>2012-09-20T10:08:39Z</time>
      </trkpt>
      <trkpt lat="44.98295" lon="1.83841">
        <ele>143.4</ele>
        <time>2012-09-20T10:08:45Z</time>
      </trkpt>
      <trkpt lat="44.98293" lon="1.8384">
        <ele>142.9</ele>
        <time>2012-09-20T10:08:54Z</time>
      </trkpt>
      <trkpt lat="44.98293" lon="1.8384">
        <ele>132.8</ele>
        <time>2012-09-20T10:08:59Z</time>
      </trkpt>
      <trkpt lat="44.98293" lon="1.8384">
        <ele>144.8</ele>
        <time>2012-09-20T10:09:00Z</time>
      </trkpt>
      <trkpt lat="44.98293" lon="1.8384">
        <ele>142.9</ele>
        <time>2012-09-20T10:09:14Z</time>
      </trkpt>
      <trkpt lat="44.98293" lon="1.83841">
        <ele>143.4</ele>
        <time>2012-09-20T10:09:25Z</time>
      </trkpt>
      <trkpt lat="44.98289" lon="1.8384">
        <ele>142.4</ele>
        <time>2012-09-20T10:09:34Z</time>
      </trkpt>
      <trkpt lat="44.98278" lon="1.83842">
        <ele>145.3</ele>
        <time>2012-09-20T10:09:43Z</time>
      </trkpt>
      <trkpt lat="44.98273" lon="1.83843">
        <ele>142.9</ele>
        <time>2012-09-20T10:09:50Z</time>
      </trkpt>
      <trkpt lat="44.9826" lon="1.83845">
        <ele>143.4</ele>
        <time>2012-09-20T10:10:01Z</time>
      </trkpt>
      <trkpt lat="44.98248" lon="1.83845">
        <ele>142.9</ele>
        <time>2012-09-20T10:10:08Z</time>
      </trkpt>
      <trkpt lat="44.98242" lon="1.83846">
        <ele>142.4</ele>
        <time>2012-09-20T10:10:15Z</time>
      </trkpt>
      <trkpt lat="44.98234" lon="1.8385">
        <ele>142.9</ele>
        <time>2012-09-20T10:10:22Z</time>
      </trkpt>
      <trkpt lat="44.98227" lon="1.83851">
        <ele>142.9</ele>
        <time>2012-09-20T10:10:27Z</time>
      </trkpt>
      <trkpt lat="44.98225" lon="1.83851">
        <ele>142.4</ele>
        <time>2012-09-20T10:10:28Z</time>
      </trkpt>
      <trkpt lat="44.98217" lon="1.83852">
        <ele>142.9</ele>
        <time>2012-09-20T10:10:34Z</time>
      </trkpt>
      <trkpt lat="44.98212" lon="1.83854">
        <ele>142.4</ele>
        <time>2012-09-20T10:10:43Z</time>
      </trkpt>
      <trkpt lat="44.982" lon="1.83858">
        <ele>149.1</ele>
        <time>2012-09-20T10:10:50Z</time>
      </trkpt>
      <trkpt lat="44.98198" lon="1.83858">
        <ele>143.4</ele>
        <time>2012-09-20T10:10:51Z</time>
      </trkpt>
      <trkpt lat="44.98196" lon="1.83858">
        <ele>139.1</ele>
        <time>2012-09-20T10:10:52Z</time>
      </trkpt>
      <trkpt lat="44.98195" lon="1.83859">
        <ele>144.3</ele>
        <time>2012-09-20T10:10:53Z</time>
      </trkpt>
      <trkpt lat="44.98194" lon="1.83859">
        <ele>140</ele>
        <time>2012-09-20T10:10:54Z</time>
      </trkpt>
      <trkpt lat="44.98191" lon="1.83859">
        <ele>145.3</ele>
        <time>2012-09-20T10:10:56Z</time>
      </trkpt>
      <trkpt lat="44.98189" lon="1.83859">
        <ele>141.9</ele>
        <time>2012-09-20T10:10:58Z</time>
      </trkpt>
      <trkpt lat="44.98184" lon="1.8386">
        <ele>143.4</ele>
        <time>2012-09-20T10:11:02Z</time>
      </trkpt>
      <trkpt lat="44.98183" lon="1.8386">
        <ele>142.4</ele>
        <time>2012-09-20T10:11:03Z</time>
      </trkpt>
      <trkpt lat="44.98182" lon="1.83859">
        <ele>142.4</ele>
        <time>2012-09-20T10:11:04Z</time>
      </trkpt>
      <trkpt lat="44.98173" lon="1.83849">
        <ele>142.4</ele>
        <time>2012-09-20T10:11:14Z</time>
      </trkpt>
      <trkpt lat="44.98169" lon="1.83839">
        <ele>142.9</ele>
        <time>2012-09-20T10:11:22Z</time>
      </trkpt>
      <trkpt lat="44.98169" lon="1.83838">
        <ele>143.4</ele>
        <time>2012-09-20T10:11:23Z</time>
      </trkpt>
      <trkpt lat="44.9817" lon="1.83836">
        <ele>137.6</ele>
        <time>2012-09-20T10:11:24Z</time>
      </trkpt>
      <trkpt lat="44.98175" lon="1.83824">
        <ele>142.9</ele>
        <time>2012-09-20T10:11:33Z</time>
      </trkpt>
      <trkpt lat="44.98182" lon="1.8381">
        <ele>142.9</ele>
        <time>2012-09-20T10:11:43Z</time>
      </trkpt>
      <trkpt lat="44.98187" lon="1.83795">
        <ele>142.9</ele>
        <time>2012-09-20T10:11:53Z</time>
      </trkpt>
      <trkpt lat="44.9819" lon="1.83782">
        <ele>139.1</ele>
        <time>2012-09-20T10:12:02Z</time>
      </trkpt>
      <trkpt lat="44.98191" lon="1.8378">
        <ele>143.4</ele>
        <time>2012-09-20T10:12:03Z</time>
      </trkpt>
      <trkpt lat="44.98192" lon="1.83778">
        <ele>142.4</ele>
        <time>2012-09-20T10:12:04Z</time>
      </trkpt>
      <trkpt lat="44.98193" lon="1.83776">
        <ele>141.4</ele>
        <time>2012-09-20T10:12:05Z</time>
      </trkpt>
      <trkpt lat="44.98195" lon="1.83753">
        <ele>142.4</ele>
        <time>2012-09-20T10:12:13Z</time>
      </trkpt>
      <trkpt lat="44.98195" lon="1.83751">
        <ele>142.4</ele>
        <time>2012-09-20T10:12:14Z</time>
      </trkpt>
      <trkpt lat="44.98196" lon="1.83749">
        <ele>142.9</ele>
        <time>2012-09-20T10:12:15Z</time>
      </trkpt>
      <trkpt lat="44.98198" lon="1.83742">
        <ele>142.4</ele>
        <time>2012-09-20T10:12:18Z</time>
      </trkpt>
      <trkpt lat="44.982" lon="1.83739">
        <ele>141.9</ele>
        <time>2012-09-20T10:12:21Z</time>
      </trkpt>
      <trkpt lat="44.98201" lon="1.83739">
        <ele>141.9</ele>
        <time>2012-09-20T10:12:22Z</time>
      </trkpt>
      <trkpt lat="44.98202" lon="1.83739">
        <ele>142.4</ele>
        <time>2012-09-20T10:12:28Z</time>
      </trkpt>
      <trkpt lat="44.98203" lon="1.83738">
        <ele>141.9</ele>
        <time>2012-09-20T10:12:30Z</time>
      </trkpt>
      <trkpt lat="44.98204" lon="1.83736">
        <ele>141.9</ele>
        <time>2012-09-20T10:12:31Z</time>
      </trkpt>
      <trkpt lat="44.98205" lon="1.83733">
        <ele>141.9</ele>
        <time>2012-09-20T10:12:32Z</time>
      </trkpt>
      <trkpt lat="44.98206" lon="1.83731">
        <ele>141.4</ele>
        <time>2012-09-20T10:12:33Z</time>
      </trkpt>
      <trkpt lat="44.98207" lon="1.83728">
        <ele>142.4</ele>
        <time>2012-09-20T10:12:34Z</time>
      </trkpt>
      <trkpt lat="44.98209" lon="1.83726">
        <ele>141.4</ele>
        <time>2012-09-20T10:12:35Z</time>
      </trkpt>
      <trkpt lat="44.9821" lon="1.83725">
        <ele>141.9</ele>
        <time>2012-09-20T10:12:36Z</time>
      </trkpt>
      <trkpt lat="44.98212" lon="1.83723">
        <ele>141.4</ele>
        <time>2012-09-20T10:12:37Z</time>
      </trkpt>
      <trkpt lat="44.98213" lon="1.83721">
        <ele>142.4</ele>
        <time>2012-09-20T10:12:38Z</time>
      </trkpt>
      <trkpt lat="44.98213" lon="1.83718">
        <ele>141.9</ele>
        <time>2012-09-20T10:12:39Z</time>
      </trkpt>
      <trkpt lat="44.98214" lon="1.83716">
        <ele>141.9</ele>
        <time>2012-09-20T10:12:41Z</time>
      </trkpt>
      <trkpt lat="44.98216" lon="1.83714">
        <ele>141.9</ele>
        <time>2012-09-20T10:12:46Z</time>
      </trkpt>
      <trkpt lat="44.98218" lon="1.83709">
        <ele>141.4</ele>
        <time>2012-09-20T10:12:49Z</time>
      </trkpt>
      <trkpt lat="44.98217" lon="1.83706">
        <ele>141</ele>
        <time>2012-09-20T10:12:50Z</time>
      </trkpt>
      <trkpt lat="44.98218" lon="1.83703">
        <ele>141.9</ele>
        <time>2012-09-20T10:12:51Z</time>
      </trkpt>
      <trkpt lat="44.98219" lon="1.837">
        <ele>141.9</ele>
        <time>2012-09-20T10:12:52Z</time>
      </trkpt>
      <trkpt lat="44.98219" lon="1.83697">
        <ele>141.4</ele>
        <time>2012-09-20T10:12:53Z</time>
      </trkpt>
      <trkpt lat="44.98219" lon="1.83695">
        <ele>141.4</ele>
        <time>2012-09-20T10:12:54Z</time>
      </trkpt>
      <trkpt lat="44.9822" lon="1.83692">
        <ele>141</ele>
        <time>2012-09-20T10:12:55Z</time>
      </trkpt>
      <trkpt lat="44.9822" lon="1.8369">
        <ele>141.9</ele>
        <time>2012-09-20T10:12:56Z</time>
      </trkpt>
      <trkpt lat="44.9822" lon="1.83688">
        <ele>141.9</ele>
        <time>2012-09-20T10:12:57Z</time>
      </trkpt>
      <trkpt lat="44.98222" lon="1.83683">
        <ele>141.9</ele>
        <time>2012-09-20T10:13:02Z</time>
      </trkpt>
      <trkpt lat="44.98221" lon="1.83679">
        <ele>141.9</ele>
        <time>2012-09-20T10:13:06Z</time>
      </trkpt>
      <trkpt lat="44.98217" lon="1.83665">
        <ele>141.9</ele>
        <time>2012-09-20T10:13:11Z</time>
      </trkpt>
      <trkpt lat="44.98217" lon="1.83662">
        <ele>141.9</ele>
        <time>2012-09-20T10:13:12Z</time>
      </trkpt>
      <trkpt lat="44.98217" lon="1.83655">
        <ele>141.9</ele>
        <time>2012-09-20T10:13:15Z</time>
      </trkpt>
      <trkpt lat="44.98217" lon="1.83653">
        <ele>141.9</ele>
        <time>2012-09-20T10:13:16Z</time>
      </trkpt>
      <trkpt lat="44.98217" lon="1.83651">
        <ele>141.9</ele>
        <time>2012-09-20T10:13:17Z</time>
      </trkpt>
      <trkpt lat="44.98217" lon="1.83649">
        <ele>141.9</ele>
        <time>2012-09-20T10:13:18Z</time>
      </trkpt>
      <trkpt lat="44.98216" lon="1.83647">
        <ele>141.4</ele>
        <time>2012-09-20T10:13:23Z</time>
      </trkpt>
      <trkpt lat="44.98216" lon="1.83646">
        <ele>142.9</ele>
        <time>2012-09-20T10:13:24Z</time>
      </trkpt>
      <trkpt lat="44.98214" lon="1.83644">
        <ele>140.5</ele>
        <time>2012-09-20T10:13:30Z</time>
      </trkpt>
      <trkpt lat="44.98214" lon="1.83644">
        <ele>141.9</ele>
        <time>2012-09-20T10:13:43Z</time>
      </trkpt>
      <trkpt lat="44.98215" lon="1.83644">
        <ele>142.4</ele>
        <time>2012-09-20T10:13:52Z</time>
      </trkpt>
      <trkpt lat="44.98216" lon="1.83643">
        <ele>142.9</ele>
        <time>2012-09-20T10:14:02Z</time>
      </trkpt>
      <trkpt lat="44.98209" lon="1.83637">
        <ele>141.9</ele>
        <time>2012-09-20T10:14:08Z</time>
      </trkpt>
      <trkpt lat="44.98205" lon="1.83632">
        <ele>140.5</ele>
        <time>2012-09-20T10:14:14Z</time>
      </trkpt>
      <trkpt lat="44.98202" lon="1.83631">
        <ele>142.4</ele>
        <time>2012-09-20T10:14:16Z</time>
      </trkpt>
      <trkpt lat="44.98201" lon="1.8363">
        <ele>142.9</ele>
        <time>2012-09-20T10:14:22Z</time>
      </trkpt>
      <trkpt lat="44.98196" lon="1.83628">
        <ele>143.4</ele>
        <time>2012-09-20T10:14:30Z</time>
      </trkpt>
      <trkpt lat="44.98192" lon="1.83627">
        <ele>143.9</ele>
        <time>2012-09-20T10:14:37Z</time>
      </trkpt>
      <trkpt lat="44.98192" lon="1.83628">
        <ele>143.4</ele>
        <time>2012-09-20T10:14:44Z</time>
      </trkpt>
      <trkpt lat="44.98192" lon="1.83628">
        <ele>143.4</ele>
        <time>2012-09-20T10:14:51Z</time>
      </trkpt>
      <trkpt lat="44.9819" lon="1.83633">
        <ele>142.9</ele>
        <time>2012-09-20T10:15:00Z</time>
      </trkpt>
      <trkpt lat="44.98188" lon="1.83636">
        <ele>143.4</ele>
        <time>2012-09-20T10:15:07Z</time>
      </trkpt>
      <trkpt lat="44.98178" lon="1.83631">
        <ele>143.4</ele>
        <time>2012-09-20T10:15:13Z</time>
      </trkpt>
      <trkpt lat="44.98158" lon="1.83634">
        <ele>144.3</ele>
        <time>2012-09-20T10:15:21Z</time>
      </trkpt>
      <trkpt lat="44.98152" lon="1.83636">
        <ele>143.9</ele>
        <time>2012-09-20T10:15:24Z</time>
      </trkpt>
      <trkpt lat="44.98145" lon="1.83629">
        <ele>143.9</ele>
        <time>2012-09-20T10:15:33Z</time>
      </trkpt>
      <trkpt lat="44.98153" lon="1.83622">
        <ele>143.4</ele>
        <time>2012-09-20T10:15:43Z</time>
      </trkpt>
      <trkpt lat="44.98155" lon="1.83625">
        <ele>143.9</ele>
        <time>2012-09-20T10:15:49Z</time>
      </trkpt>
      <trkpt lat="44.98143" lon="1.83645">
        <ele>144.8</ele>
        <time>2012-09-20T10:15:56Z</time>
      </trkpt>
      <trkpt lat="44.98128" lon="1.83652">
        <ele>145.8</ele>
        <time>2012-09-20T10:15:59Z</time>
      </trkpt>
      <trkpt lat="44.98124" lon="1.83653">
        <ele>145.8</ele>
        <time>2012-09-20T10:16:00Z</time>
      </trkpt>
      <trkpt lat="44.9812" lon="1.83652">
        <ele>146.3</ele>
        <time>2012-09-20T10:16:01Z</time>
      </trkpt>
      <trkpt lat="44.98115" lon="1.83651">
        <ele>146.3</ele>
        <time>2012-09-20T10:16:02Z</time>
      </trkpt>
      <trkpt lat="44.98111" lon="1.83651">
        <ele>146.7</ele>
        <time>2012-09-20T10:16:03Z</time>
      </trkpt>
      <trkpt lat="44.98082" lon="1.83655">
        <ele>148.7</ele>
        <time>2012-09-20T10:16:10Z</time>
      </trkpt>
      <trkpt lat="44.98078" lon="1.8366">
        <ele>149.1</ele>
        <time>2012-09-20T10:16:11Z</time>
      </trkpt>
      <trkpt lat="44.98074" lon="1.83666">
        <ele>149.1</ele>
        <time>2012-09-20T10:16:12Z</time>
      </trkpt>
      <trkpt lat="44.98028" lon="1.83732">
        <ele>148.7</ele>
        <time>2012-09-20T10:16:24Z</time>
      </trkpt>
      <trkpt lat="44.98022" lon="1.83739">
        <ele>148.2</ele>
        <time>2012-09-20T10:16:26Z</time>
      </trkpt>
      <trkpt lat="44.98019" lon="1.8374">
        <ele>148.2</ele>
        <time>2012-09-20T10:16:27Z</time>
      </trkpt>
      <trkpt lat="44.98006" lon="1.83751">
        <ele>148.2</ele>
        <time>2012-09-20T10:16:36Z</time>
      </trkpt>
      <trkpt lat="44.98009" lon="1.83753">
        <ele>148.2</ele>
        <time>2012-09-20T10:16:41Z</time>
      </trkpt>
      <trkpt lat="44.98009" lon="1.83752">
        <ele>149.1</ele>
        <time>2012-09-20T10:16:42Z</time>
      </trkpt>
      <trkpt lat="44.98008" lon="1.8375">
        <ele>148.7</ele>
        <time>2012-09-20T10:16:43Z</time>
      </trkpt>
      <trkpt lat="44.97994" lon="1.8373">
        <ele>150.1</ele>
        <time>2012-09-20T10:16:50Z</time>
      </trkpt>
      <trkpt lat="44.97984" lon="1.83718">
        <ele>151.5</ele>
        <time>2012-09-20T10:16:53Z</time>
      </trkpt>
      <trkpt lat="44.9796" lon="1.83704">
        <ele>151.1</ele>
        <time>2012-09-20T10:16:58Z</time>
      </trkpt>
      <trkpt lat="44.97956" lon="1.83701">
        <ele>150.6</ele>
        <time>2012-09-20T10:16:59Z</time>
      </trkpt>
      <trkpt lat="44.97953" lon="1.83699">
        <ele>151.1</ele>
        <time>2012-09-20T10:17:00Z</time>
      </trkpt>
      <trkpt lat="44.97952" lon="1.83697">
        <ele>151.1</ele>
        <time>2012-09-20T10:17:01Z</time>
      </trkpt>
      <trkpt lat="44.9795" lon="1.83692">
        <ele>151.5</ele>
        <time>2012-09-20T10:17:05Z</time>
      </trkpt>
      <trkpt lat="44.97949" lon="1.83692">
        <ele>151.5</ele>
        <time>2012-09-20T10:17:06Z</time>
      </trkpt>
      <trkpt lat="44.97947" lon="1.83692">
        <ele>151.1</ele>
        <time>2012-09-20T10:17:07Z</time>
      </trkpt>
      <trkpt lat="44.97938" lon="1.8369">
        <ele>150.6</ele>
        <time>2012-09-20T10:17:11Z</time>
      </trkpt>
      <trkpt lat="44.97935" lon="1.83686">
        <ele>150.6</ele>
        <time>2012-09-20T10:17:12Z</time>
      </trkpt>
      <trkpt lat="44.97932" lon="1.83681">
        <ele>151.5</ele>
        <time>2012-09-20T10:17:13Z</time>
      </trkpt>
      <trkpt lat="44.97904" lon="1.8364">
        <ele>153.5</ele>
        <time>2012-09-20T10:17:20Z</time>
      </trkpt>
      <trkpt lat="44.97886" lon="1.83611">
        <ele>154.9</ele>
        <time>2012-09-20T10:17:23Z</time>
      </trkpt>
      <trkpt lat="44.97857" lon="1.83556">
        <ele>153.5</ele>
        <time>2012-09-20T10:17:30Z</time>
      </trkpt>
      <trkpt lat="44.97847" lon="1.83543">
        <ele>153.5</ele>
        <time>2012-09-20T10:17:33Z</time>
      </trkpt>
      <trkpt lat="44.97844" lon="1.83542">
        <ele>153</ele>
        <time>2012-09-20T10:17:34Z</time>
      </trkpt>
      <trkpt lat="44.97832" lon="1.83536">
        <ele>153.9</ele>
        <time>2012-09-20T10:17:40Z</time>
      </trkpt>
      <trkpt lat="44.97831" lon="1.83533">
        <ele>153.5</ele>
        <time>2012-09-20T10:17:41Z</time>
      </trkpt>
      <trkpt lat="44.9783" lon="1.83528">
        <ele>154.4</ele>
        <time>2012-09-20T10:17:42Z</time>
      </trkpt>
      <trkpt lat="44.97829" lon="1.83506">
        <ele>155.4</ele>
        <time>2012-09-20T10:17:45Z</time>
      </trkpt>
      <trkpt lat="44.9783" lon="1.83481">
        <ele>156.4</ele>
        <time>2012-09-20T10:17:47Z</time>
      </trkpt>
      <trkpt lat="44.97833" lon="1.83381">
        <ele>158.3</ele>
        <time>2012-09-20T10:17:55Z</time>
      </trkpt>
      <trkpt lat="44.97835" lon="1.83338">
        <ele>160.7</ele>
        <time>2012-09-20T10:17:59Z</time>
      </trkpt>
      <trkpt lat="44.97838" lon="1.83315">
        <ele>160.7</ele>
        <time>2012-09-20T10:18:03Z</time>
      </trkpt>
      <trkpt lat="44.97841" lon="1.83309">
        <ele>161.2</ele>
        <time>2012-09-20T10:18:08Z</time>
      </trkpt>
      <trkpt lat="44.97843" lon="1.83309">
        <ele>161.2</ele>
        <time>2012-09-20T10:18:09Z</time>
      </trkpt>
      <trkpt lat="44.97844" lon="1.83308">
        <ele>161.2</ele>
        <time>2012-09-20T10:18:10Z</time>
      </trkpt>
      <trkpt lat="44.97844" lon="1.833">
        <ele>161.6</ele>
        <time>2012-09-20T10:18:17Z</time>
      </trkpt>
      <trkpt lat="44.97844" lon="1.83299">
        <ele>161.2</ele>
        <time>2012-09-20T10:18:28Z</time>
      </trkpt>
      <trkpt lat="44.97844" lon="1.83299">
        <ele>160.2</ele>
        <time>2012-09-20T10:18:38Z</time>
      </trkpt>
      <trkpt lat="44.97844" lon="1.83299">
        <ele>160.7</ele>
        <time>2012-09-20T10:18:54Z</time>
      </trkpt>
      <trkpt lat="44.97843" lon="1.83299">
        <ele>160.7</ele>
        <time>2012-09-20T10:19:11Z</time>
      </trkpt>
      <trkpt lat="44.97843" lon="1.83299">
        <ele>160.7</ele>
        <time>2012-09-20T10:19:27Z</time>
      </trkpt>
      <trkpt lat="44.97843" lon="1.83299">
        <ele>160.7</ele>
        <time>2012-09-20T10:19:45Z</time>
      </trkpt>
      <trkpt lat="44.97843" lon="1.83299">
        <ele>160.7</ele>
        <time>2012-09-20T10:20:03Z</time>
      </trkpt>
      <trkpt lat="44.97843" lon="1.83299">
        <ele>160.7</ele>
        <time>2012-09-20T10:20:20Z</time>
      </trkpt>
      <trkpt lat="44.97843" lon="1.83299">
        <ele>160.7</ele>
        <time>2012-09-20T10:20:35Z</time>
      </trkpt>
      <trkpt lat="44.97843" lon="1.83299">
        <ele>160.7</ele>
        <time>2012-09-20T10:20:56Z</time>
      </trkpt>
      <trkpt lat="44.97844" lon="1.83299">
        <ele>160.7</ele>
        <time>2012-09-20T10:21:15Z</time>
      </trkpt>
      <trkpt lat="44.97844" lon="1.83299">
        <ele>161.2</ele>
        <time>2012-09-20T10:21:32Z</time>
      </trkpt>
      <trkpt lat="44.97844" lon="1.83298">
        <ele>160.2</ele>
        <time>2012-09-20T10:21:50Z</time>
      </trkpt>
      <trkpt lat="44.97844" lon="1.83298">
        <ele>160.7</ele>
        <time>2012-09-20T10:22:09Z</time>
      </trkpt>
      <trkpt lat="44.97844" lon="1.83298">
        <ele>161.2</ele>
        <time>2012-09-20T10:22:24Z</time>
      </trkpt>
      <trkpt lat="44.97844" lon="1.83298">
        <ele>160.7</ele>
        <time>2012-09-20T10:22:42Z</time>
      </trkpt>
      <trkpt lat="44.97844" lon="1.83298">
        <ele>161.2</ele>
        <time>2012-09-20T10:22:59Z</time>
      </trkpt>
      <trkpt lat="44.97844" lon="1.83297">
        <ele>160.7</ele>
        <time>2012-09-20T10:23:17Z</time>
      </trkpt>
      <trkpt lat="44.97844" lon="1.83297">
        <ele>161.2</ele>
        <time>2012-09-20T10:23:34Z</time>
      </trkpt>
      <trkpt lat="44.97844" lon="1.83298">
        <ele>160.7</ele>
        <time>2012-09-20T10:23:52Z</time>
      </trkpt>
      <trkpt lat="44.97844" lon="1.83298">
        <ele>160.7</ele>
        <time>2012-09-20T10:24:09Z</time>
      </trkpt>
      <trkpt lat="44.97844" lon="1.83298">
        <ele>161.2</ele>
        <time>2012-09-20T10:24:24Z</time>
      </trkpt>
      <trkpt lat="44.97843" lon="1.83296">
        <ele>161.2</ele>
        <time>2012-09-20T10:24:41Z</time>
      </trkpt>
      <trkpt lat="44.97843" lon="1.83296">
        <ele>160.7</ele>
        <time>2012-09-20T10:24:57Z</time>
      </trkpt>
      <trkpt lat="44.97843" lon="1.83295">
        <ele>161.2</ele>
        <time>2012-09-20T10:25:18Z</time>
      </trkpt>
      <trkpt lat="44.97843" lon="1.83295">
        <ele>161.6</ele>
        <time>2012-09-20T10:25:36Z</time>
      </trkpt>
      <trkpt lat="44.97843" lon="1.83295">
        <ele>161.2</ele>
        <time>2012-09-20T10:25:57Z</time>
      </trkpt>
      <trkpt lat="44.97843" lon="1.83295">
        <ele>160.7</ele>
        <time>2012-09-20T10:26:14Z</time>
      </trkpt>
      <trkpt lat="44.97843" lon="1.83295">
        <ele>161.2</ele>
        <time>2012-09-20T10:26:28Z</time>
      </trkpt>
      <trkpt lat="44.97843" lon="1.83296">
        <ele>161.2</ele>
        <time>2012-09-20T10:26:48Z</time>
      </trkpt>
      <trkpt lat="44.97843" lon="1.83296">
        <ele>161.2</ele>
        <time>2012-09-20T10:27:04Z</time>
      </trkpt>
      <trkpt lat="44.97843" lon="1.83296">
        <ele>160.7</ele>
        <time>2012-09-20T10:27:24Z</time>
      </trkpt>
      <trkpt lat="44.97843" lon="1.83296">
        <ele>161.2</ele>
        <time>2012-09-20T10:27:44Z</time>
      </trkpt>
      <trkpt lat="44.97843" lon="1.83296">
        <ele>161.2</ele>
        <time>2012-09-20T10:27:58Z</time>
      </trkpt>
      <trkpt lat="44.97843" lon="1.83296">
        <ele>161.2</ele>
        <time>2012-09-20T10:28:11Z</time>
      </trkpt>
      <trkpt lat="44.97843" lon="1.83296">
        <ele>161.6</ele>
        <time>2012-09-20T10:28:26Z</time>
      </trkpt>
      <trkpt lat="44.97843" lon="1.83296">
        <ele>161.2</ele>
        <time>2012-09-20T10:28:44Z</time>
      </trkpt>
      <trkpt lat="44.97843" lon="1.83296">
        <ele>161.2</ele>
        <time>2012-09-20T10:29:01Z</time>
      </trkpt>
      <trkpt lat="44.97843" lon="1.83296">
        <ele>161.6</ele>
        <time>2012-09-20T10:29:17Z</time>
      </trkpt>
      <trkpt lat="44.97843" lon="1.83296">
        <ele>161.6</ele>
        <time>2012-09-20T10:29:34Z</time>
      </trkpt>
      <trkpt lat="44.97843" lon="1.83296">
        <ele>161.6</ele>
        <time>2012-09-20T10:29:47Z</time>
      </trkpt>
      <trkpt lat="44.97842" lon="1.83297">
        <ele>161.6</ele>
        <time>2012-09-20T10:30:03Z</time>
      </trkpt>
      <trkpt lat="44.97842" lon="1.83297">
        <ele>161.6</ele>
        <time>2012-09-20T10:30:19Z</time>
      </trkpt>
      <trkpt lat="44.97842" lon="1.83297">
        <ele>161.2</ele>
        <time>2012-09-20T10:30:38Z</time>
      </trkpt>
      <trkpt lat="44.97842" lon="1.83297">
        <ele>161.6</ele>
        <time>2012-09-20T10:30:54Z</time>
      </trkpt>
      <trkpt lat="44.97842" lon="1.83297">
        <ele>161.6</ele>
        <time>2012-09-20T10:31:10Z</time>
      </trkpt>
      <trkpt lat="44.97842" lon="1.83297">
        <ele>161.6</ele>
        <time>2012-09-20T10:31:28Z</time>
      </trkpt>
      <trkpt lat="44.97842" lon="1.83297">
        <ele>161.6</ele>
        <time>2012-09-20T10:31:46Z</time>
      </trkpt>
      <trkpt lat="44.97842" lon="1.83297">
        <ele>162.1</ele>
        <time>2012-09-20T10:32:03Z</time>
      </trkpt>
      <trkpt lat="44.97842" lon="1.83297">
        <ele>161.6</ele>
        <time>2012-09-20T10:32:21Z</time>
      </trkpt>
      <trkpt lat="44.97842" lon="1.83297">
        <ele>161.2</ele>
        <time>2012-09-20T10:32:37Z</time>
      </trkpt>
      <trkpt lat="44.97842" lon="1.83297">
        <ele>161.6</ele>
        <time>2012-09-20T10:32:53Z</time>
      </trkpt>
      <trkpt lat="44.97843" lon="1.83297">
        <ele>162.1</ele>
        <time>2012-09-20T10:33:10Z</time>
      </trkpt>
      <trkpt lat="44.97843" lon="1.83297">
        <ele>161.6</ele>
        <time>2012-09-20T10:33:28Z</time>
      </trkpt>
      <trkpt lat="44.97843" lon="1.83297">
        <ele>162.1</ele>
        <time>2012-09-20T10:33:45Z</time>
      </trkpt>
      <trkpt lat="44.97843" lon="1.83296">
        <ele>161.6</ele>
        <time>2012-09-20T10:34:02Z</time>
      </trkpt>
      <trkpt lat="44.97843" lon="1.83296">
        <ele>161.6</ele>
        <time>2012-09-20T10:34:18Z</time>
      </trkpt>
      <trkpt lat="44.97844" lon="1.83295">
        <ele>161.6</ele>
        <time>2012-09-20T10:34:38Z</time>
      </trkpt>
      <trkpt lat="44.97844" lon="1.83295">
        <ele>161.6</ele>
        <time>2012-09-20T10:34:59Z</time>
      </trkpt>
      <trkpt lat="44.97844" lon="1.83295">
        <ele>161.6</ele>
        <time>2012-09-20T10:35:18Z</time>
      </trkpt>
      <trkpt lat="44.97844" lon="1.83295">
        <ele>162.1</ele>
        <time>2012-09-20T10:35:38Z</time>
      </trkpt>
      <trkpt lat="44.97844" lon="1.83294">
        <ele>162.1</ele>
        <time>2012-09-20T10:35:56Z</time>
      </trkpt>
      <trkpt lat="44.97844" lon="1.83294">
        <ele>162.1</ele>
        <time>2012-09-20T10:36:15Z</time>
      </trkpt>
      <trkpt lat="44.97844" lon="1.83294">
        <ele>162.1</ele>
        <time>2012-09-20T10:36:36Z</time>
      </trkpt>
      <trkpt lat="44.97844" lon="1.83294">
        <ele>161.6</ele>
        <time>2012-09-20T10:36:54Z</time>
      </trkpt>
      <trkpt lat="44.97844" lon="1.83294">
        <ele>162.1</ele>
        <time>2012-09-20T10:37:13Z</time>
      </trkpt>
      <trkpt lat="44.97844" lon="1.83294">
        <ele>162.1</ele>
        <time>2012-09-20T10:37:31Z</time>
      </trkpt>
      <trkpt lat="44.97844" lon="1.83294">
        <ele>162.6</ele>
        <time>2012-09-20T10:37:48Z</time>
      </trkpt>
      <trkpt lat="44.97844" lon="1.83294">
        <ele>162.1</ele>
        <time>2012-09-20T10:38:05Z</time>
      </trkpt>
      <trkpt lat="44.97844" lon="1.83294">
        <ele>162.6</ele>
        <time>2012-09-20T10:38:27Z</time>
      </trkpt>
      <trkpt lat="44.97844" lon="1.83294">
        <ele>162.6</ele>
        <time>2012-09-20T10:38:43Z</time>
      </trkpt>
      <trkpt lat="44.97844" lon="1.83294">
        <ele>163.1</ele>
        <time>2012-09-20T10:39:01Z</time>
      </trkpt>
      <trkpt lat="44.97844" lon="1.83294">
        <ele>162.6</ele>
        <time>2012-09-20T10:39:21Z</time>
      </trkpt>
      <trkpt lat="44.97844" lon="1.83294">
        <ele>162.6</ele>
        <time>2012-09-20T10:39:37Z</time>
      </trkpt>
      <trkpt lat="44.97844" lon="1.83294">
        <ele>162.6</ele>
        <time>2012-09-20T10:39:55Z</time>
      </trkpt>
      <trkpt lat="44.97844" lon="1.83294">
        <ele>162.6</ele>
        <time>2012-09-20T10:40:13Z</time>
      </trkpt>
      <trkpt lat="44.97843" lon="1.83294">
        <ele>163.1</ele>
        <time>2012-09-20T10:40:31Z</time>
      </trkpt>
      <trkpt lat="44.97843" lon="1.83294">
        <ele>162.1</ele>
        <time>2012-09-20T10:40:50Z</time>
      </trkpt>
      <trkpt lat="44.97843" lon="1.83294">
        <ele>162.6</ele>
        <time>2012-09-20T10:41:06Z</time>
      </trkpt>
      <trkpt lat="44.97843" lon="1.83294">
        <ele>162.6</ele>
        <time>2012-09-20T10:41:25Z</time>
      </trkpt>
      <trkpt lat="44.97843" lon="1.83294">
        <ele>162.6</ele>
        <time>2012-09-20T10:41:43Z</time>
      </trkpt>
      <trkpt lat="44.97843" lon="1.83294">
        <ele>163.1</ele>
        <time>2012-09-20T10:42:01Z</time>
      </trkpt>
      <trkpt lat="44.97843" lon="1.83294">
        <ele>163.6</ele>
        <time>2012-09-20T10:42:19Z</time>
      </trkpt>
      <trkpt lat="44.97843" lon="1.83295">
        <ele>163.6</ele>
        <time>2012-09-20T10:42:38Z</time>
      </trkpt>
      <trkpt lat="44.97843" lon="1.83295">
        <ele>163.1</ele>
        <time>2012-09-20T10:42:59Z</time>
      </trkpt>
      <trkpt lat="44.97843" lon="1.83295">
        <ele>163.6</ele>
        <time>2012-09-20T10:43:15Z</time>
      </trkpt>
      <trkpt lat="44.97843" lon="1.83295">
        <ele>163.6</ele>
        <time>2012-09-20T10:43:36Z</time>
      </trkpt>
      <trkpt lat="44.97842" lon="1.83295">
        <ele>162.6</ele>
        <time>2012-09-20T10:43:52Z</time>
      </trkpt>
      <trkpt lat="44.97842" lon="1.83295">
        <ele>163.1</ele>
        <time>2012-09-20T10:44:08Z</time>
      </trkpt>
      <trkpt lat="44.97842" lon="1.83295">
        <ele>163.6</ele>
        <time>2012-09-20T10:44:24Z</time>
      </trkpt>
      <trkpt lat="44.97842" lon="1.83295">
        <ele>163.1</ele>
        <time>2012-09-20T10:44:39Z</time>
      </trkpt>
      <trkpt lat="44.97842" lon="1.83295">
        <ele>163.6</ele>
        <time>2012-09-20T10:44:56Z</time>
      </trkpt>
      <trkpt lat="44.97842" lon="1.83296">
        <ele>163.6</ele>
        <time>2012-09-20T10:45:17Z</time>
      </trkpt>
      <trkpt lat="44.97842" lon="1.83296">
        <ele>163.6</ele>
        <time>2012-09-20T10:45:37Z</time>
      </trkpt>
      <trkpt lat="44.97842" lon="1.83296">
        <ele>163.6</ele>
        <time>2012-09-20T10:45:56Z</time>
      </trkpt>
      <trkpt lat="44.97842" lon="1.83296">
        <ele>163.1</ele>
        <time>2012-09-20T10:46:15Z</time>
      </trkpt>
      <trkpt lat="44.97842" lon="1.83296">
        <ele>163.6</ele>
        <time>2012-09-20T10:46:33Z</time>
      </trkpt>
      <trkpt lat="44.97842" lon="1.83296">
        <ele>163.6</ele>
        <time>2012-09-20T10:46:52Z</time>
      </trkpt>
      <trkpt lat="44.97842" lon="1.83296">
        <ele>164</ele>
        <time>2012-09-20T10:47:09Z</time>
      </trkpt>
      <trkpt lat="44.97842" lon="1.83296">
        <ele>163.6</ele>
        <time>2012-09-20T10:47:25Z</time>
      </trkpt>
      <trkpt lat="44.97842" lon="1.83296">
        <ele>163.6</ele>
        <time>2012-09-20T10:47:44Z</time>
      </trkpt>
      <trkpt lat="44.97842" lon="1.83295">
        <ele>164.5</ele>
        <time>2012-09-20T10:48:01Z</time>
      </trkpt>
      <trkpt lat="44.97843" lon="1.83296">
        <ele>164</ele>
        <time>2012-09-20T10:48:09Z</time>
      </trkpt>
      <trkpt lat="44.97843" lon="1.83294">
        <ele>164.5</ele>
        <time>2012-09-20T10:48:13Z</time>
      </trkpt>
      <trkpt lat="44.97843" lon="1.83292">
        <ele>165</ele>
        <time>2012-09-20T10:48:14Z</time>
      </trkpt>
      <trkpt lat="44.97843" lon="1.83289">
        <ele>164.5</ele>
        <time>2012-09-20T10:48:15Z</time>
      </trkpt>
      <trkpt lat="44.9785" lon="1.8326">
        <ele>166.4</ele>
        <time>2012-09-20T10:48:22Z</time>
      </trkpt>
      <trkpt lat="44.97851" lon="1.83256">
        <ele>166.9</ele>
        <time>2012-09-20T10:48:23Z</time>
      </trkpt>
      <trkpt lat="44.97852" lon="1.83252">
        <ele>166.4</ele>
        <time>2012-09-20T10:48:24Z</time>
      </trkpt>
      <trkpt lat="44.97852" lon="1.8325">
        <ele>166.9</ele>
        <time>2012-09-20T10:48:25Z</time>
      </trkpt>
      <trkpt lat="44.97852" lon="1.8325">
        <ele>166.9</ele>
        <time>2012-09-20T10:48:25Z</time>
      </trkpt>
      <trkpt lat="44.97853" lon="1.83251">
        <ele>166.4</ele>
        <time>2012-09-20T10:48:31Z</time>
      </trkpt>
      <trkpt lat="44.97855" lon="1.83255">
        <ele>166.9</ele>
        <time>2012-09-20T10:48:34Z</time>
      </trkpt>
      <trkpt lat="44.97856" lon="1.83257">
        <ele>166.4</ele>
        <time>2012-09-20T10:48:39Z</time>
      </trkpt>
      <trkpt lat="44.97854" lon="1.8326">
        <ele>166.4</ele>
        <time>2012-09-20T10:48:41Z</time>
      </trkpt>
      <trkpt lat="44.97843" lon="1.83283">
        <ele>165</ele>
        <time>2012-09-20T10:48:46Z</time>
      </trkpt>
      <trkpt lat="44.97842" lon="1.83289">
        <ele>165</ele>
        <time>2012-09-20T10:48:47Z</time>
      </trkpt>
      <trkpt lat="44.97844" lon="1.83296">
        <ele>165</ele>
        <time>2012-09-20T10:48:48Z</time>
      </trkpt>
      <trkpt lat="44.97846" lon="1.83301">
        <ele>163.6</ele>
        <time>2012-09-20T10:48:49Z</time>
      </trkpt>
      <trkpt lat="44.97854" lon="1.83309">
        <ele>164</ele>
        <time>2012-09-20T10:48:52Z</time>
      </trkpt>
      <trkpt lat="44.97869" lon="1.83319">
        <ele>158.8</ele>
        <time>2012-09-20T10:48:59Z</time>
      </trkpt>
      <trkpt lat="44.97866" lon="1.83318">
        <ele>166.4</ele>
        <time>2012-09-20T10:49:00Z</time>
      </trkpt>
      <trkpt lat="44.9786" lon="1.83328">
        <ele>163.6</ele>
        <time>2012-09-20T10:49:04Z</time>
      </trkpt>
      <trkpt lat="44.97856" lon="1.83338">
        <ele>163.1</ele>
        <time>2012-09-20T10:49:06Z</time>
      </trkpt>
      <trkpt lat="44.97854" lon="1.83345">
        <ele>163.1</ele>
        <time>2012-09-20T10:49:07Z</time>
      </trkpt>
      <trkpt lat="44.97843" lon="1.83389">
        <ele>160.7</ele>
        <time>2012-09-20T10:49:12Z</time>
      </trkpt>
      <trkpt lat="44.97839" lon="1.83412">
        <ele>160.2</ele>
        <time>2012-09-20T10:49:14Z</time>
      </trkpt>
      <trkpt lat="44.97829" lon="1.83502">
        <ele>158.3</ele>
        <time>2012-09-20T10:49:22Z</time>
      </trkpt>
      <trkpt lat="44.97828" lon="1.83538">
        <ele>156.4</ele>
        <time>2012-09-20T10:49:26Z</time>
      </trkpt>
      <trkpt lat="44.97829" lon="1.83544">
        <ele>155.9</ele>
        <time>2012-09-20T10:49:29Z</time>
      </trkpt>
      <trkpt lat="44.97837" lon="1.83559">
        <ele>155.9</ele>
        <time>2012-09-20T10:49:33Z</time>
      </trkpt>
      <trkpt lat="44.97846" lon="1.83582">
        <ele>157.3</ele>
        <time>2012-09-20T10:49:36Z</time>
      </trkpt>
      <trkpt lat="44.97871" lon="1.83642">
        <ele>156.4</ele>
        <time>2012-09-20T10:49:42Z</time>
      </trkpt>
      <trkpt lat="44.97892" lon="1.83695">
        <ele>154.4</ele>
        <time>2012-09-20T10:49:48Z</time>
      </trkpt>
      <trkpt lat="44.97907" lon="1.83713">
        <ele>152.5</ele>
        <time>2012-09-20T10:49:53Z</time>
      </trkpt>
      <trkpt lat="44.9791" lon="1.83719">
        <ele>152</ele>
        <time>2012-09-20T10:49:56Z</time>
      </trkpt>
      <trkpt lat="44.97894" lon="1.83736">
        <ele>153.5</ele>
        <time>2012-09-20T10:50:00Z</time>
      </trkpt>
      <trkpt lat="44.97878" lon="1.83757">
        <ele>152.5</ele>
        <time>2012-09-20T10:50:04Z</time>
      </trkpt>
      <trkpt lat="44.97855" lon="1.83792">
        <ele>153</ele>
        <time>2012-09-20T10:50:09Z</time>
      </trkpt>
      <trkpt lat="44.97821" lon="1.83867">
        <ele>153.5</ele>
        <time>2012-09-20T10:50:16Z</time>
      </trkpt>
      <trkpt lat="44.97774" lon="1.83966">
        <ele>152.5</ele>
        <time>2012-09-20T10:50:25Z</time>
      </trkpt>
      <trkpt lat="44.97765" lon="1.8399">
        <ele>149.6</ele>
        <time>2012-09-20T10:50:27Z</time>
      </trkpt>
      <trkpt lat="44.97762" lon="1.84003">
        <ele>153</ele>
        <time>2012-09-20T10:50:28Z</time>
      </trkpt>
      <trkpt lat="44.97757" lon="1.84029">
        <ele>149.1</ele>
        <time>2012-09-20T10:50:30Z</time>
      </trkpt>
      <trkpt lat="44.97755" lon="1.84042">
        <ele>154.4</ele>
        <time>2012-09-20T10:50:31Z</time>
      </trkpt>
      <trkpt lat="44.97751" lon="1.84082">
        <ele>151.5</ele>
        <time>2012-09-20T10:50:34Z</time>
      </trkpt>
      <trkpt lat="44.97743" lon="1.842">
        <ele>151.5</ele>
        <time>2012-09-20T10:50:42Z</time>
      </trkpt>
      <trkpt lat="44.97734" lon="1.84329">
        <ele>152.5</ele>
        <time>2012-09-20T10:50:51Z</time>
      </trkpt>
      <trkpt lat="44.97726" lon="1.84411">
        <ele>150.6</ele>
        <time>2012-09-20T10:50:58Z</time>
      </trkpt>
      <trkpt lat="44.97725" lon="1.84419">
        <ele>150.6</ele>
        <time>2012-09-20T10:50:59Z</time>
      </trkpt>
      <trkpt lat="44.97725" lon="1.84445">
        <ele>150.1</ele>
        <time>2012-09-20T10:51:03Z</time>
      </trkpt>
      <trkpt lat="44.97729" lon="1.84449">
        <ele>151.1</ele>
        <time>2012-09-20T10:51:04Z</time>
      </trkpt>
      <trkpt lat="44.97733" lon="1.84451">
        <ele>151.1</ele>
        <time>2012-09-20T10:51:05Z</time>
      </trkpt>
      <trkpt lat="44.97738" lon="1.84452">
        <ele>151.1</ele>
        <time>2012-09-20T10:51:06Z</time>
      </trkpt>
      <trkpt lat="44.97743" lon="1.84453">
        <ele>151.5</ele>
        <time>2012-09-20T10:51:07Z</time>
      </trkpt>
      <trkpt lat="44.97765" lon="1.84451">
        <ele>153</ele>
        <time>2012-09-20T10:51:10Z</time>
      </trkpt>
      <trkpt lat="44.97814" lon="1.84447">
        <ele>154.9</ele>
        <time>2012-09-20T10:51:16Z</time>
      </trkpt>
      <trkpt lat="44.97831" lon="1.84451">
        <ele>154.9</ele>
        <time>2012-09-20T10:51:18Z</time>
      </trkpt>
      <trkpt lat="44.97839" lon="1.84456">
        <ele>155.4</ele>
        <time>2012-09-20T10:51:19Z</time>
      </trkpt>
      <trkpt lat="44.97856" lon="1.8447">
        <ele>155.4</ele>
        <time>2012-09-20T10:51:21Z</time>
      </trkpt>
      <trkpt lat="44.97865" lon="1.84479">
        <ele>155.9</ele>
        <time>2012-09-20T10:51:22Z</time>
      </trkpt>
      <trkpt lat="44.97873" lon="1.84491">
        <ele>156.8</ele>
        <time>2012-09-20T10:51:23Z</time>
      </trkpt>
      <trkpt lat="44.97881" lon="1.84504">
        <ele>157.8</ele>
        <time>2012-09-20T10:51:24Z</time>
      </trkpt>
      <trkpt lat="44.97887" lon="1.84519">
        <ele>157.8</ele>
        <time>2012-09-20T10:51:25Z</time>
      </trkpt>
      <trkpt lat="44.97891" lon="1.84535">
        <ele>157.8</ele>
        <time>2012-09-20T10:51:26Z</time>
      </trkpt>
      <trkpt lat="44.97893" lon="1.84552">
        <ele>157.8</ele>
        <time>2012-09-20T10:51:27Z</time>
      </trkpt>
      <trkpt lat="44.97894" lon="1.8457">
        <ele>157.8</ele>
        <time>2012-09-20T10:51:28Z</time>
      </trkpt>
      <trkpt lat="44.97894" lon="1.84589">
        <ele>158.8</ele>
        <time>2012-09-20T10:51:29Z</time>
      </trkpt>
      <trkpt lat="44.97893" lon="1.84609">
        <ele>159.2</ele>
        <time>2012-09-20T10:51:30Z</time>
      </trkpt>
      <trkpt lat="44.97891" lon="1.8467">
        <ele>161.6</ele>
        <time>2012-09-20T10:51:33Z</time>
      </trkpt>
      <trkpt lat="44.97894" lon="1.84712">
        <ele>162.6</ele>
        <time>2012-09-20T10:51:35Z</time>
      </trkpt>
      <trkpt lat="44.9791" lon="1.84832">
        <ele>163.1</ele>
        <time>2012-09-20T10:51:41Z</time>
      </trkpt>
      <trkpt lat="44.97917" lon="1.84867">
        <ele>162.1</ele>
        <time>2012-09-20T10:51:43Z</time>
      </trkpt>
      <trkpt lat="44.97921" lon="1.84884">
        <ele>162.1</ele>
        <time>2012-09-20T10:51:44Z</time>
      </trkpt>
      <trkpt lat="44.97928" lon="1.84899">
        <ele>161.6</ele>
        <time>2012-09-20T10:51:45Z</time>
      </trkpt>
      <trkpt lat="44.97937" lon="1.84913">
        <ele>163.1</ele>
        <time>2012-09-20T10:51:46Z</time>
      </trkpt>
      <trkpt lat="44.97948" lon="1.84923">
        <ele>164.5</ele>
        <time>2012-09-20T10:51:47Z</time>
      </trkpt>
      <trkpt lat="44.97961" lon="1.8493">
        <ele>165.5</ele>
        <time>2012-09-20T10:51:48Z</time>
      </trkpt>
      <trkpt lat="44.97974" lon="1.84936">
        <ele>167.4</ele>
        <time>2012-09-20T10:51:49Z</time>
      </trkpt>
      <trkpt lat="44.97987" lon="1.84941">
        <ele>167.4</ele>
        <time>2012-09-20T10:51:50Z</time>
      </trkpt>
      <trkpt lat="44.98015" lon="1.84952">
        <ele>168.9</ele>
        <time>2012-09-20T10:51:52Z</time>
      </trkpt>
      <trkpt lat="44.98064" lon="1.84973">
        <ele>169.8</ele>
        <time>2012-09-20T10:51:56Z</time>
      </trkpt>
      <trkpt lat="44.9808" lon="1.84982">
        <ele>171.2</ele>
        <time>2012-09-20T10:51:57Z</time>
      </trkpt>
      <trkpt lat="44.98088" lon="1.84987">
        <ele>170.8</ele>
        <time>2012-09-20T10:51:58Z</time>
      </trkpt>
      <trkpt lat="44.98097" lon="1.84998">
        <ele>170.8</ele>
        <time>2012-09-20T10:51:59Z</time>
      </trkpt>
      <trkpt lat="44.98105" lon="1.8501">
        <ele>172.7</ele>
        <time>2012-09-20T10:52:00Z</time>
      </trkpt>
      <trkpt lat="44.98116" lon="1.85038">
        <ele>172.7</ele>
        <time>2012-09-20T10:52:02Z</time>
      </trkpt>
      <trkpt lat="44.98121" lon="1.85052">
        <ele>172.7</ele>
        <time>2012-09-20T10:52:03Z</time>
      </trkpt>
      <trkpt lat="44.98124" lon="1.85067">
        <ele>172.7</ele>
        <time>2012-09-20T10:52:04Z</time>
      </trkpt>
      <trkpt lat="44.98126" lon="1.85082">
        <ele>173.2</ele>
        <time>2012-09-20T10:52:05Z</time>
      </trkpt>
      <trkpt lat="44.98127" lon="1.85098">
        <ele>173.2</ele>
        <time>2012-09-20T10:52:06Z</time>
      </trkpt>
      <trkpt lat="44.98127" lon="1.85114">
        <ele>173.7</ele>
        <time>2012-09-20T10:52:07Z</time>
      </trkpt>
      <trkpt lat="44.98123" lon="1.85145">
        <ele>175.1</ele>
        <time>2012-09-20T10:52:09Z</time>
      </trkpt>
      <trkpt lat="44.98119" lon="1.8516">
        <ele>175.1</ele>
        <time>2012-09-20T10:52:10Z</time>
      </trkpt>
      <trkpt lat="44.98114" lon="1.85173">
        <ele>175.6</ele>
        <time>2012-09-20T10:52:11Z</time>
      </trkpt>
      <trkpt lat="44.98107" lon="1.85187">
        <ele>177</ele>
        <time>2012-09-20T10:52:12Z</time>
      </trkpt>
      <trkpt lat="44.981" lon="1.852">
        <ele>177.5</ele>
        <time>2012-09-20T10:52:13Z</time>
      </trkpt>
      <trkpt lat="44.98078" lon="1.8524">
        <ele>177.5</ele>
        <time>2012-09-20T10:52:16Z</time>
      </trkpt>
      <trkpt lat="44.98073" lon="1.85253">
        <ele>176.5</ele>
        <time>2012-09-20T10:52:17Z</time>
      </trkpt>
      <trkpt lat="44.98069" lon="1.85267">
        <ele>177</ele>
        <time>2012-09-20T10:52:18Z</time>
      </trkpt>
      <trkpt lat="44.98068" lon="1.8528">
        <ele>177.5</ele>
        <time>2012-09-20T10:52:19Z</time>
      </trkpt>
      <trkpt lat="44.98071" lon="1.85292">
        <ele>177</ele>
        <time>2012-09-20T10:52:20Z</time>
      </trkpt>
      <trkpt lat="44.98074" lon="1.85303">
        <ele>177.5</ele>
        <time>2012-09-20T10:52:21Z</time>
      </trkpt>
      <trkpt lat="44.98078" lon="1.85321">
        <ele>178.5</ele>
        <time>2012-09-20T10:52:23Z</time>
      </trkpt>
      <trkpt lat="44.98079" lon="1.85332">
        <ele>179.4</ele>
        <time>2012-09-20T10:52:24Z</time>
      </trkpt>
      <trkpt lat="44.98079" lon="1.85342">
        <ele>179.9</ele>
        <time>2012-09-20T10:52:25Z</time>
      </trkpt>
      <trkpt lat="44.98077" lon="1.85353">
        <ele>181.4</ele>
        <time>2012-09-20T10:52:26Z</time>
      </trkpt>
      <trkpt lat="44.98071" lon="1.85373">
        <ele>183.3</ele>
        <time>2012-09-20T10:52:28Z</time>
      </trkpt>
      <trkpt lat="44.98056" lon="1.85398">
        <ele>186.6</ele>
        <time>2012-09-20T10:52:31Z</time>
      </trkpt>
      <trkpt lat="44.98038" lon="1.85426">
        <ele>189.5</ele>
        <time>2012-09-20T10:52:33Z</time>
      </trkpt>
      <trkpt lat="44.97999" lon="1.85489">
        <ele>195.3</ele>
        <time>2012-09-20T10:52:38Z</time>
      </trkpt>
      <trkpt lat="44.9797" lon="1.85533">
        <ele>197.7</ele>
        <time>2012-09-20T10:52:42Z</time>
      </trkpt>
      <trkpt lat="44.97962" lon="1.85541">
        <ele>199.1</ele>
        <time>2012-09-20T10:52:43Z</time>
      </trkpt>
      <trkpt lat="44.97953" lon="1.85547">
        <ele>198.6</ele>
        <time>2012-09-20T10:52:44Z</time>
      </trkpt>
      <trkpt lat="44.97935" lon="1.85557">
        <ele>200.6</ele>
        <time>2012-09-20T10:52:46Z</time>
      </trkpt>
      <trkpt lat="44.97908" lon="1.85571">
        <ele>202</ele>
        <time>2012-09-20T10:52:49Z</time>
      </trkpt>
      <trkpt lat="44.97902" lon="1.85577">
        <ele>200.6</ele>
        <time>2012-09-20T10:52:50Z</time>
      </trkpt>
      <trkpt lat="44.97896" lon="1.85584">
        <ele>200.6</ele>
        <time>2012-09-20T10:52:51Z</time>
      </trkpt>
      <trkpt lat="44.97865" lon="1.85632">
        <ele>199.6</ele>
        <time>2012-09-20T10:52:56Z</time>
      </trkpt>
      <trkpt lat="44.9783" lon="1.8568">
        <ele>196.7</ele>
        <time>2012-09-20T10:53:01Z</time>
      </trkpt>
      <trkpt lat="44.97804" lon="1.85712">
        <ele>194.8</ele>
        <time>2012-09-20T10:53:04Z</time>
      </trkpt>
      <trkpt lat="44.97779" lon="1.85745">
        <ele>191.4</ele>
        <time>2012-09-20T10:53:07Z</time>
      </trkpt>
      <trkpt lat="44.97745" lon="1.85784">
        <ele>188.1</ele>
        <time>2012-09-20T10:53:11Z</time>
      </trkpt>
      <trkpt lat="44.97733" lon="1.85798">
        <ele>185.7</ele>
        <time>2012-09-20T10:53:12Z</time>
      </trkpt>
      <trkpt lat="44.97711" lon="1.85824">
        <ele>182.8</ele>
        <time>2012-09-20T10:53:15Z</time>
      </trkpt>
      <trkpt lat="44.97682" lon="1.85855">
        <ele>179.9</ele>
        <time>2012-09-20T10:53:20Z</time>
      </trkpt>
      <trkpt lat="44.9767" lon="1.85865">
        <ele>177</ele>
        <time>2012-09-20T10:53:23Z</time>
      </trkpt>
      <trkpt lat="44.97665" lon="1.85874">
        <ele>177.5</ele>
        <time>2012-09-20T10:53:25Z</time>
      </trkpt>
      <trkpt lat="44.97664" lon="1.85882">
        <ele>177</ele>
        <time>2012-09-20T10:53:26Z</time>
      </trkpt>
      <trkpt lat="44.97661" lon="1.85908">
        <ele>177.5</ele>
        <time>2012-09-20T10:53:29Z</time>
      </trkpt>
      <trkpt lat="44.97655" lon="1.85936">
        <ele>177</ele>
        <time>2012-09-20T10:53:32Z</time>
      </trkpt>
      <trkpt lat="44.97651" lon="1.85944">
        <ele>177.5</ele>
        <time>2012-09-20T10:53:33Z</time>
      </trkpt>
      <trkpt lat="44.97646" lon="1.8595">
        <ele>177.5</ele>
        <time>2012-09-20T10:53:34Z</time>
      </trkpt>
      <trkpt lat="44.97617" lon="1.85978">
        <ele>180.4</ele>
        <time>2012-09-20T10:53:39Z</time>
      </trkpt>
      <trkpt lat="44.97582" lon="1.85998">
        <ele>182.3</ele>
        <time>2012-09-20T10:53:44Z</time>
      </trkpt>
      <trkpt lat="44.97575" lon="1.85998">
        <ele>182.8</ele>
        <time>2012-09-20T10:53:45Z</time>
      </trkpt>
      <trkpt lat="44.97569" lon="1.85996">
        <ele>183.8</ele>
        <time>2012-09-20T10:53:46Z</time>
      </trkpt>
      <trkpt lat="44.97557" lon="1.85993">
        <ele>185.2</ele>
        <time>2012-09-20T10:53:48Z</time>
      </trkpt>
      <trkpt lat="44.97548" lon="1.85991">
        <ele>184.7</ele>
        <time>2012-09-20T10:53:49Z</time>
      </trkpt>
      <trkpt lat="44.97531" lon="1.85991">
        <ele>186.6</ele>
        <time>2012-09-20T10:53:51Z</time>
      </trkpt>
      <trkpt lat="44.97513" lon="1.85995">
        <ele>188.6</ele>
        <time>2012-09-20T10:53:53Z</time>
      </trkpt>
      <trkpt lat="44.97505" lon="1.85999">
        <ele>189.5</ele>
        <time>2012-09-20T10:53:54Z</time>
      </trkpt>
      <trkpt lat="44.97497" lon="1.86004">
        <ele>190.5</ele>
        <time>2012-09-20T10:53:55Z</time>
      </trkpt>
      <trkpt lat="44.97489" lon="1.8601">
        <ele>191</ele>
        <time>2012-09-20T10:53:56Z</time>
      </trkpt>
      <trkpt lat="44.97442" lon="1.86053">
        <ele>194.8</ele>
        <time>2012-09-20T10:54:02Z</time>
      </trkpt>
      <trkpt lat="44.97429" lon="1.86071">
        <ele>195.8</ele>
        <time>2012-09-20T10:54:04Z</time>
      </trkpt>
      <trkpt lat="44.97416" lon="1.86089">
        <ele>198.2</ele>
        <time>2012-09-20T10:54:06Z</time>
      </trkpt>
      <trkpt lat="44.97408" lon="1.86096">
        <ele>199.1</ele>
        <time>2012-09-20T10:54:07Z</time>
      </trkpt>
      <trkpt lat="44.97401" lon="1.86102">
        <ele>199.6</ele>
        <time>2012-09-20T10:54:08Z</time>
      </trkpt>
      <trkpt lat="44.97392" lon="1.86106">
        <ele>200.1</ele>
        <time>2012-09-20T10:54:09Z</time>
      </trkpt>
      <trkpt lat="44.97384" lon="1.86108">
        <ele>200.1</ele>
        <time>2012-09-20T10:54:10Z</time>
      </trkpt>
      <trkpt lat="44.97376" lon="1.86108">
        <ele>199.6</ele>
        <time>2012-09-20T10:54:11Z</time>
      </trkpt>
      <trkpt lat="44.97368" lon="1.86108">
        <ele>199.6</ele>
        <time>2012-09-20T10:54:12Z</time>
      </trkpt>
      <trkpt lat="44.97353" lon="1.86111">
        <ele>200.1</ele>
        <time>2012-09-20T10:54:14Z</time>
      </trkpt>
      <trkpt lat="44.97347" lon="1.86115">
        <ele>201.1</ele>
        <time>2012-09-20T10:54:15Z</time>
      </trkpt>
      <trkpt lat="44.97343" lon="1.86123">
        <ele>200.6</ele>
        <time>2012-09-20T10:54:16Z</time>
      </trkpt>
      <trkpt lat="44.97341" lon="1.86132">
        <ele>201.5</ele>
        <time>2012-09-20T10:54:17Z</time>
      </trkpt>
      <trkpt lat="44.9734" lon="1.8614">
        <ele>202</ele>
        <time>2012-09-20T10:54:18Z</time>
      </trkpt>
      <trkpt lat="44.97342" lon="1.86149">
        <ele>202.5</ele>
        <time>2012-09-20T10:54:19Z</time>
      </trkpt>
      <trkpt lat="44.97345" lon="1.86155">
        <ele>202.5</ele>
        <time>2012-09-20T10:54:20Z</time>
      </trkpt>
      <trkpt lat="44.97357" lon="1.8617">
        <ele>203</ele>
        <time>2012-09-20T10:54:24Z</time>
      </trkpt>
      <trkpt lat="44.97357" lon="1.8618">
        <ele>204.4</ele>
        <time>2012-09-20T10:54:28Z</time>
      </trkpt>
      <trkpt lat="44.97356" lon="1.86182">
        <ele>204.9</ele>
        <time>2012-09-20T10:54:29Z</time>
      </trkpt>
      <trkpt lat="44.97356" lon="1.86183">
        <ele>205.4</ele>
        <time>2012-09-20T10:54:30Z</time>
      </trkpt>
      <trkpt lat="44.97345" lon="1.86194">
        <ele>208.7</ele>
        <time>2012-09-20T10:54:37Z</time>
      </trkpt>
      <trkpt lat="44.97338" lon="1.86203">
        <ele>210.7</ele>
        <time>2012-09-20T10:54:40Z</time>
      </trkpt>
      <trkpt lat="44.97325" lon="1.86231">
        <ele>214</ele>
        <time>2012-09-20T10:54:47Z</time>
      </trkpt>
      <trkpt lat="44.97315" lon="1.86241">
        <ele>217.4</ele>
        <time>2012-09-20T10:54:50Z</time>
      </trkpt>
      <trkpt lat="44.97292" lon="1.86247">
        <ele>216.9</ele>
        <time>2012-09-20T10:54:55Z</time>
      </trkpt>
      <trkpt lat="44.97276" lon="1.86229">
        <ele>218.8</ele>
        <time>2012-09-20T10:55:00Z</time>
      </trkpt>
      <trkpt lat="44.97273" lon="1.86227">
        <ele>219.3</ele>
        <time>2012-09-20T10:55:01Z</time>
      </trkpt>
      <trkpt lat="44.97268" lon="1.8623">
        <ele>220.8</ele>
        <time>2012-09-20T10:55:03Z</time>
      </trkpt>
      <trkpt lat="44.97261" lon="1.86241">
        <ele>222.7</ele>
        <time>2012-09-20T10:55:06Z</time>
      </trkpt>
      <trkpt lat="44.97255" lon="1.86256">
        <ele>224.6</ele>
        <time>2012-09-20T10:55:09Z</time>
      </trkpt>
      <trkpt lat="44.9724" lon="1.86287">
        <ele>227.5</ele>
        <time>2012-09-20T10:55:14Z</time>
      </trkpt>
      <trkpt lat="44.97238" lon="1.86294">
        <ele>227.5</ele>
        <time>2012-09-20T10:55:15Z</time>
      </trkpt>
      <trkpt lat="44.97237" lon="1.86301">
        <ele>227.5</ele>
        <time>2012-09-20T10:55:16Z</time>
      </trkpt>
      <trkpt lat="44.97236" lon="1.86344">
        <ele>228</ele>
        <time>2012-09-20T10:55:23Z</time>
      </trkpt>
      <trkpt lat="44.97236" lon="1.86358">
        <ele>235.2</ele>
        <time>2012-09-20T10:55:25Z</time>
      </trkpt>
      <trkpt lat="44.97235" lon="1.86365">
        <ele>231.3</ele>
        <time>2012-09-20T10:55:26Z</time>
      </trkpt>
      <trkpt lat="44.97231" lon="1.86409">
        <ele>233.3</ele>
        <time>2012-09-20T10:55:34Z</time>
      </trkpt>
      <trkpt lat="44.97222" lon="1.86448">
        <ele>236.6</ele>
        <time>2012-09-20T10:55:43Z</time>
      </trkpt>
      <trkpt lat="44.97212" lon="1.86476">
        <ele>239.5</ele>
        <time>2012-09-20T10:55:50Z</time>
      </trkpt>
      <trkpt lat="44.97196" lon="1.8652">
        <ele>242.9</ele>
        <time>2012-09-20T10:55:59Z</time>
      </trkpt>
      <trkpt lat="44.97191" lon="1.86544">
        <ele>243.8</ele>
        <time>2012-09-20T10:56:04Z</time>
      </trkpt>
      <trkpt lat="44.97191" lon="1.86568">
        <ele>244.8</ele>
        <time>2012-09-20T10:56:09Z</time>
      </trkpt>
      <trkpt lat="44.97188" lon="1.86585">
        <ele>246.2</ele>
        <time>2012-09-20T10:56:14Z</time>
      </trkpt>
      <trkpt lat="44.97186" lon="1.86587">
        <ele>246.7</ele>
        <time>2012-09-20T10:56:15Z</time>
      </trkpt>
      <trkpt lat="44.97163" lon="1.86597">
        <ele>249.6</ele>
        <time>2012-09-20T10:56:23Z</time>
      </trkpt>
      <trkpt lat="44.97147" lon="1.86618">
        <ele>251</ele>
        <time>2012-09-20T10:56:31Z</time>
      </trkpt>
      <trkpt lat="44.97148" lon="1.86622">
        <ele>251.5</ele>
        <time>2012-09-20T10:56:32Z</time>
      </trkpt>
      <trkpt lat="44.9715" lon="1.86624">
        <ele>252.5</ele>
        <time>2012-09-20T10:56:35Z</time>
      </trkpt>
      <trkpt lat="44.97163" lon="1.86617">
        <ele>255.4</ele>
        <time>2012-09-20T10:56:42Z</time>
      </trkpt>
      <trkpt lat="44.97179" lon="1.86618">
        <ele>257.8</ele>
        <time>2012-09-20T10:56:49Z</time>
      </trkpt>
      <trkpt lat="44.97199" lon="1.86626">
        <ele>260.2</ele>
        <time>2012-09-20T10:56:56Z</time>
      </trkpt>
      <trkpt lat="44.97207" lon="1.86629">
        <ele>261.1</ele>
        <time>2012-09-20T10:57:00Z</time>
      </trkpt>
      <trkpt lat="44.97218" lon="1.86619">
        <ele>262.6</ele>
        <time>2012-09-20T10:57:06Z</time>
      </trkpt>
      <trkpt lat="44.97224" lon="1.86595">
        <ele>264.5</ele>
        <time>2012-09-20T10:57:14Z</time>
      </trkpt>
      <trkpt lat="44.97242" lon="1.86569">
        <ele>266.4</ele>
        <time>2012-09-20T10:57:24Z</time>
      </trkpt>
      <trkpt lat="44.97257" lon="1.86554">
        <ele>269.8</ele>
        <time>2012-09-20T10:57:29Z</time>
      </trkpt>
      <trkpt lat="44.97276" lon="1.86539">
        <ele>273.1</ele>
        <time>2012-09-20T10:57:36Z</time>
      </trkpt>
      <trkpt lat="44.97295" lon="1.86522">
        <ele>276.5</ele>
        <time>2012-09-20T10:57:45Z</time>
      </trkpt>
      <trkpt lat="44.97312" lon="1.86506">
        <ele>278</ele>
        <time>2012-09-20T10:57:52Z</time>
      </trkpt>
      <trkpt lat="44.97327" lon="1.86496">
        <ele>279.4</ele>
        <time>2012-09-20T10:58:00Z</time>
      </trkpt>
      <trkpt lat="44.97331" lon="1.86495">
        <ele>280.4</ele>
        <time>2012-09-20T10:58:04Z</time>
      </trkpt>
      <trkpt lat="44.9734" lon="1.86486">
        <ele>275.1</ele>
        <time>2012-09-20T10:58:08Z</time>
      </trkpt>
      <trkpt lat="44.97342" lon="1.86484">
        <ele>284.2</ele>
        <time>2012-09-20T10:58:09Z</time>
      </trkpt>
      <trkpt lat="44.97344" lon="1.86481">
        <ele>280.4</ele>
        <time>2012-09-20T10:58:10Z</time>
      </trkpt>
      <trkpt lat="44.97372" lon="1.8647">
        <ele>282.3</ele>
        <time>2012-09-20T10:58:17Z</time>
      </trkpt>
      <trkpt lat="44.97401" lon="1.86459">
        <ele>284.2</ele>
        <time>2012-09-20T10:58:25Z</time>
      </trkpt>
      <trkpt lat="44.9743" lon="1.8644">
        <ele>286.1</ele>
        <time>2012-09-20T10:58:33Z</time>
      </trkpt>
      <trkpt lat="44.97452" lon="1.86427">
        <ele>290</ele>
        <time>2012-09-20T10:58:41Z</time>
      </trkpt>
      <trkpt lat="44.97469" lon="1.86414">
        <ele>291.4</ele>
        <time>2012-09-20T10:58:48Z</time>
      </trkpt>
      <trkpt lat="44.97493" lon="1.86403">
        <ele>294.3</ele>
        <time>2012-09-20T10:58:55Z</time>
      </trkpt>
      <trkpt lat="44.97524" lon="1.86391">
        <ele>296.7</ele>
        <time>2012-09-20T10:59:05Z</time>
      </trkpt>
      <trkpt lat="44.9754" lon="1.86393">
        <ele>298.1</ele>
        <time>2012-09-20T10:59:12Z</time>
      </trkpt>
      <trkpt lat="44.97556" lon="1.86402">
        <ele>301.5</ele>
        <time>2012-09-20T10:59:20Z</time>
      </trkpt>
      <trkpt lat="44.97572" lon="1.86417">
        <ele>304.4</ele>
        <time>2012-09-20T10:59:27Z</time>
      </trkpt>
      <trkpt lat="44.97579" lon="1.86435">
        <ele>305.8</ele>
        <time>2012-09-20T10:59:32Z</time>
      </trkpt>
      <trkpt lat="44.97576" lon="1.86455">
        <ele>308.2</ele>
        <time>2012-09-20T10:59:38Z</time>
      </trkpt>
      <trkpt lat="44.97566" lon="1.86487">
        <ele>310.2</ele>
        <time>2012-09-20T10:59:46Z</time>
      </trkpt>
      <trkpt lat="44.97556" lon="1.86514">
        <ele>312.1</ele>
        <time>2012-09-20T10:59:54Z</time>
      </trkpt>
      <trkpt lat="44.9755" lon="1.8655">
        <ele>312.6</ele>
        <time>2012-09-20T11:00:01Z</time>
      </trkpt>
      <trkpt lat="44.97549" lon="1.86562">
        <ele>313</ele>
        <time>2012-09-20T11:00:07Z</time>
      </trkpt>
      <trkpt lat="44.97549" lon="1.86562">
        <ele>314.5</ele>
        <time>2012-09-20T11:00:08Z</time>
      </trkpt>
      <trkpt lat="44.97549" lon="1.86562">
        <ele>313.5</ele>
        <time>2012-09-20T11:00:20Z</time>
      </trkpt>
      <trkpt lat="44.97533" lon="1.86586">
        <ele>313.5</ele>
        <time>2012-09-20T11:00:44Z</time>
      </trkpt>
      <trkpt lat="44.97532" lon="1.86585">
        <ele>313</ele>
        <time>2012-09-20T11:00:59Z</time>
      </trkpt>
      <trkpt lat="44.97528" lon="1.86589">
        <ele>317.9</ele>
        <time>2012-09-20T11:01:12Z</time>
      </trkpt>
      <trkpt lat="44.97528" lon="1.86589">
        <ele>308.7</ele>
        <time>2012-09-20T11:01:13Z</time>
      </trkpt>
      <trkpt lat="44.97528" lon="1.86589">
        <ele>315</ele>
        <time>2012-09-20T11:01:14Z</time>
      </trkpt>
      <trkpt lat="44.97528" lon="1.86589">
        <ele>309.7</ele>
        <time>2012-09-20T11:01:15Z</time>
      </trkpt>
      <trkpt lat="44.97528" lon="1.86589">
        <ele>314.5</ele>
        <time>2012-09-20T11:01:16Z</time>
      </trkpt>
      <trkpt lat="44.97527" lon="1.8659">
        <ele>310.2</ele>
        <time>2012-09-20T11:01:18Z</time>
      </trkpt>
      <trkpt lat="44.97527" lon="1.8659">
        <ele>315</ele>
        <time>2012-09-20T11:01:19Z</time>
      </trkpt>
      <trkpt lat="44.97525" lon="1.86592">
        <ele>313</ele>
        <time>2012-09-20T11:01:23Z</time>
      </trkpt>
      <trkpt lat="44.97524" lon="1.86594">
        <ele>309.7</ele>
        <time>2012-09-20T11:01:30Z</time>
      </trkpt>
      <trkpt lat="44.97524" lon="1.86594">
        <ele>314.5</ele>
        <time>2012-09-20T11:01:31Z</time>
      </trkpt>
      <trkpt lat="44.97523" lon="1.86595">
        <ele>313</ele>
        <time>2012-09-20T11:01:44Z</time>
      </trkpt>
      <trkpt lat="44.97523" lon="1.86595">
        <ele>318.8</ele>
        <time>2012-09-20T11:01:48Z</time>
      </trkpt>
      <trkpt lat="44.97523" lon="1.86595">
        <ele>313.5</ele>
        <time>2012-09-20T11:01:49Z</time>
      </trkpt>
      <trkpt lat="44.97523" lon="1.86594">
        <ele>312.6</ele>
        <time>2012-09-20T11:01:57Z</time>
      </trkpt>
      <trkpt lat="44.97523" lon="1.86595">
        <ele>313.5</ele>
        <time>2012-09-20T11:02:08Z</time>
      </trkpt>
      <trkpt lat="44.97523" lon="1.86594">
        <ele>313.5</ele>
        <time>2012-09-20T11:02:25Z</time>
      </trkpt>
      <trkpt lat="44.97522" lon="1.86592">
        <ele>313.5</ele>
        <time>2012-09-20T11:02:40Z</time>
      </trkpt>
      <trkpt lat="44.97522" lon="1.86595">
        <ele>313</ele>
        <time>2012-09-20T11:02:46Z</time>
      </trkpt>
      <trkpt lat="44.97523" lon="1.86597">
        <ele>314.5</ele>
        <time>2012-09-20T11:02:47Z</time>
      </trkpt>
      <trkpt lat="44.97523" lon="1.86599">
        <ele>314</ele>
        <time>2012-09-20T11:02:48Z</time>
      </trkpt>
      <trkpt lat="44.97524" lon="1.86601">
        <ele>314</ele>
        <time>2012-09-20T11:02:49Z</time>
      </trkpt>
      <trkpt lat="44.97524" lon="1.86604">
        <ele>314.5</ele>
        <time>2012-09-20T11:02:50Z</time>
      </trkpt>
      <trkpt lat="44.97525" lon="1.86606">
        <ele>314.5</ele>
        <time>2012-09-20T11:02:51Z</time>
      </trkpt>
      <trkpt lat="44.97525" lon="1.86609">
        <ele>314.5</ele>
        <time>2012-09-20T11:02:52Z</time>
      </trkpt>
      <trkpt lat="44.97526" lon="1.86625">
        <ele>315.5</ele>
        <time>2012-09-20T11:02:58Z</time>
      </trkpt>
      <trkpt lat="44.97525" lon="1.86628">
        <ele>315.5</ele>
        <time>2012-09-20T11:03:01Z</time>
      </trkpt>
      <trkpt lat="44.97524" lon="1.8663">
        <ele>315.5</ele>
        <time>2012-09-20T11:03:02Z</time>
      </trkpt>
      <trkpt lat="44.97524" lon="1.86631">
        <ele>315.9</ele>
        <time>2012-09-20T11:03:03Z</time>
      </trkpt>
      <trkpt lat="44.97523" lon="1.86633">
        <ele>315.9</ele>
        <time>2012-09-20T11:03:04Z</time>
      </trkpt>
      <trkpt lat="44.97524" lon="1.86634">
        <ele>316.4</ele>
        <time>2012-09-20T11:03:05Z</time>
      </trkpt>
      <trkpt lat="44.97524" lon="1.8664">
        <ele>316.9</ele>
        <time>2012-09-20T11:03:11Z</time>
      </trkpt>
      <trkpt lat="44.97525" lon="1.86649">
        <ele>317.9</ele>
        <time>2012-09-20T11:03:18Z</time>
      </trkpt>
      <trkpt lat="44.97524" lon="1.86651">
        <ele>317.9</ele>
        <time>2012-09-20T11:03:19Z</time>
      </trkpt>
      <trkpt lat="44.97524" lon="1.86653">
        <ele>318.3</ele>
        <time>2012-09-20T11:03:20Z</time>
      </trkpt>
      <trkpt lat="44.97524" lon="1.86656">
        <ele>318.3</ele>
        <time>2012-09-20T11:03:21Z</time>
      </trkpt>
      <trkpt lat="44.97524" lon="1.86658">
        <ele>318.3</ele>
        <time>2012-09-20T11:03:22Z</time>
      </trkpt>
      <trkpt lat="44.97525" lon="1.86661">
        <ele>318.3</ele>
        <time>2012-09-20T11:03:23Z</time>
      </trkpt>
      <trkpt lat="44.97525" lon="1.86665">
        <ele>318.8</ele>
        <time>2012-09-20T11:03:24Z</time>
      </trkpt>
      <trkpt lat="44.97526" lon="1.86668">
        <ele>319.3</ele>
        <time>2012-09-20T11:03:25Z</time>
      </trkpt>
      <trkpt lat="44.97526" lon="1.86671">
        <ele>319.8</ele>
        <time>2012-09-20T11:03:26Z</time>
      </trkpt>
      <trkpt lat="44.97527" lon="1.86672">
        <ele>319.3</ele>
        <time>2012-09-20T11:03:27Z</time>
      </trkpt>
      <trkpt lat="44.97527" lon="1.86674">
        <ele>320.7</ele>
        <time>2012-09-20T11:03:28Z</time>
      </trkpt>
      <trkpt lat="44.97527" lon="1.86676">
        <ele>316.9</ele>
        <time>2012-09-20T11:03:29Z</time>
      </trkpt>
      <trkpt lat="44.97527" lon="1.86677">
        <ele>320.3</ele>
        <time>2012-09-20T11:03:30Z</time>
      </trkpt>
      <trkpt lat="44.97527" lon="1.86679">
        <ele>321.7</ele>
        <time>2012-09-20T11:03:31Z</time>
      </trkpt>
      <trkpt lat="44.97528" lon="1.86681">
        <ele>320.7</ele>
        <time>2012-09-20T11:03:32Z</time>
      </trkpt>
      <trkpt lat="44.97528" lon="1.86682">
        <ele>320.7</ele>
        <time>2012-09-20T11:03:33Z</time>
      </trkpt>
      <trkpt lat="44.97528" lon="1.86684">
        <ele>320.3</ele>
        <time>2012-09-20T11:03:34Z</time>
      </trkpt>
      <trkpt lat="44.97529" lon="1.86686">
        <ele>319.8</ele>
        <time>2012-09-20T11:03:35Z</time>
      </trkpt>
      <trkpt lat="44.9753" lon="1.86693">
        <ele>316.4</ele>
        <time>2012-09-20T11:03:39Z</time>
      </trkpt>
      <trkpt lat="44.97531" lon="1.86694">
        <ele>321.7</ele>
        <time>2012-09-20T11:03:40Z</time>
      </trkpt>
      <trkpt lat="44.97532" lon="1.86695">
        <ele>320.7</ele>
        <time>2012-09-20T11:03:41Z</time>
      </trkpt>
      <trkpt lat="44.97533" lon="1.86702">
        <ele>321.7</ele>
        <time>2012-09-20T11:03:46Z</time>
      </trkpt>
      <trkpt lat="44.97535" lon="1.86711">
        <ele>312.6</ele>
        <time>2012-09-20T11:03:52Z</time>
      </trkpt>
      <trkpt lat="44.97535" lon="1.86712">
        <ele>322.7</ele>
        <time>2012-09-20T11:03:53Z</time>
      </trkpt>
      <trkpt lat="44.97537" lon="1.86721">
        <ele>320.7</ele>
        <time>2012-09-20T11:04:00Z</time>
      </trkpt>
      <trkpt lat="44.97543" lon="1.86729">
        <ele>321.2</ele>
        <time>2012-09-20T11:04:08Z</time>
      </trkpt>
      <trkpt lat="44.97545" lon="1.8673">
        <ele>321.2</ele>
        <time>2012-09-20T11:04:09Z</time>
      </trkpt>
      <trkpt lat="44.97555" lon="1.86738">
        <ele>325.1</ele>
        <time>2012-09-20T11:04:16Z</time>
      </trkpt>
      <trkpt lat="44.97556" lon="1.86739">
        <ele>322.7</ele>
        <time>2012-09-20T11:04:17Z</time>
      </trkpt>
      <trkpt lat="44.97557" lon="1.8674">
        <ele>322.2</ele>
        <time>2012-09-20T11:04:18Z</time>
      </trkpt>
      <trkpt lat="44.9756" lon="1.86742">
        <ele>322.2</ele>
        <time>2012-09-20T11:04:19Z</time>
      </trkpt>
      <trkpt lat="44.97561" lon="1.86743">
        <ele>322.2</ele>
        <time>2012-09-20T11:04:20Z</time>
      </trkpt>
      <trkpt lat="44.97563" lon="1.86744">
        <ele>321.7</ele>
        <time>2012-09-20T11:04:21Z</time>
      </trkpt>
      <trkpt lat="44.97572" lon="1.86748">
        <ele>323.1</ele>
        <time>2012-09-20T11:04:28Z</time>
      </trkpt>
      <trkpt lat="44.97574" lon="1.86748">
        <ele>322.7</ele>
        <time>2012-09-20T11:04:29Z</time>
      </trkpt>
      <trkpt lat="44.97589" lon="1.86753">
        <ele>323.1</ele>
        <time>2012-09-20T11:04:36Z</time>
      </trkpt>
      <trkpt lat="44.97594" lon="1.8676">
        <ele>325.1</ele>
        <time>2012-09-20T11:04:43Z</time>
      </trkpt>
      <trkpt lat="44.976" lon="1.86762">
        <ele>327</ele>
        <time>2012-09-20T11:04:51Z</time>
      </trkpt>
      <trkpt lat="44.97611" lon="1.86768">
        <ele>328.4</ele>
        <time>2012-09-20T11:04:59Z</time>
      </trkpt>
      <trkpt lat="44.97618" lon="1.86774">
        <ele>329.4</ele>
        <time>2012-09-20T11:05:05Z</time>
      </trkpt>
      <trkpt lat="44.97626" lon="1.86773">
        <ele>330.4</ele>
        <time>2012-09-20T11:05:14Z</time>
      </trkpt>
      <trkpt lat="44.97631" lon="1.86775">
        <ele>326</ele>
        <time>2012-09-20T11:05:17Z</time>
      </trkpt>
      <trkpt lat="44.97632" lon="1.86775">
        <ele>329.9</ele>
        <time>2012-09-20T11:05:18Z</time>
      </trkpt>
      <trkpt lat="44.97635" lon="1.86776">
        <ele>336.1</ele>
        <time>2012-09-20T11:05:20Z</time>
      </trkpt>
      <trkpt lat="44.97636" lon="1.86777">
        <ele>320.7</ele>
        <time>2012-09-20T11:05:21Z</time>
      </trkpt>
      <trkpt lat="44.97637" lon="1.86777">
        <ele>334.2</ele>
        <time>2012-09-20T11:05:22Z</time>
      </trkpt>
      <trkpt lat="44.97639" lon="1.86778">
        <ele>323.6</ele>
        <time>2012-09-20T11:05:25Z</time>
      </trkpt>
      <trkpt lat="44.9764" lon="1.86779">
        <ele>332.3</ele>
        <time>2012-09-20T11:05:26Z</time>
      </trkpt>
      <trkpt lat="44.97642" lon="1.8678">
        <ele>335.2</ele>
        <time>2012-09-20T11:05:28Z</time>
      </trkpt>
      <trkpt lat="44.97643" lon="1.86781">
        <ele>331.8</ele>
        <time>2012-09-20T11:05:29Z</time>
      </trkpt>
      <trkpt lat="44.97652" lon="1.86784">
        <ele>331.8</ele>
        <time>2012-09-20T11:05:36Z</time>
      </trkpt>
      <trkpt lat="44.97657" lon="1.8679">
        <ele>335.2</ele>
        <time>2012-09-20T11:05:41Z</time>
      </trkpt>
      <trkpt lat="44.97659" lon="1.86794">
        <ele>331.3</ele>
        <time>2012-09-20T11:05:45Z</time>
      </trkpt>
      <trkpt lat="44.97661" lon="1.86795">
        <ele>334.7</ele>
        <time>2012-09-20T11:05:47Z</time>
      </trkpt>
      <trkpt lat="44.97664" lon="1.86802">
        <ele>333.7</ele>
        <time>2012-09-20T11:05:52Z</time>
      </trkpt>
      <trkpt lat="44.97665" lon="1.86804">
        <ele>334.2</ele>
        <time>2012-09-20T11:05:53Z</time>
      </trkpt>
      <trkpt lat="44.9767" lon="1.86809">
        <ele>334.7</ele>
        <time>2012-09-20T11:05:59Z</time>
      </trkpt>
      <trkpt lat="44.97677" lon="1.86822">
        <ele>336.1</ele>
        <time>2012-09-20T11:06:05Z</time>
      </trkpt>
      <trkpt lat="44.9768" lon="1.86837">
        <ele>337.1</ele>
        <time>2012-09-20T11:06:13Z</time>
      </trkpt>
      <trkpt lat="44.9768" lon="1.86838">
        <ele>337.6</ele>
        <time>2012-09-20T11:06:14Z</time>
      </trkpt>
      <trkpt lat="44.97679" lon="1.8684">
        <ele>337.1</ele>
        <time>2012-09-20T11:06:15Z</time>
      </trkpt>
      <trkpt lat="44.97679" lon="1.86842">
        <ele>337.6</ele>
        <time>2012-09-20T11:06:16Z</time>
      </trkpt>
      <trkpt lat="44.97679" lon="1.86857">
        <ele>336.6</ele>
        <time>2012-09-20T11:06:22Z</time>
      </trkpt>
      <trkpt lat="44.97679" lon="1.86858">
        <ele>336.1</ele>
        <time>2012-09-20T11:06:23Z</time>
      </trkpt>
      <trkpt lat="44.97678" lon="1.8686">
        <ele>336.6</ele>
        <time>2012-09-20T11:06:24Z</time>
      </trkpt>
      <trkpt lat="44.97678" lon="1.86877">
        <ele>337.1</ele>
        <time>2012-09-20T11:06:30Z</time>
      </trkpt>
      <trkpt lat="44.97678" lon="1.86886">
        <ele>337.1</ele>
        <time>2012-09-20T11:06:35Z</time>
      </trkpt>
      <trkpt lat="44.97674" lon="1.86898">
        <ele>337.6</ele>
        <time>2012-09-20T11:06:42Z</time>
      </trkpt>
      <trkpt lat="44.97672" lon="1.86913">
        <ele>337.6</ele>
        <time>2012-09-20T11:06:47Z</time>
      </trkpt>
      <trkpt lat="44.97671" lon="1.86929">
        <ele>338.5</ele>
        <time>2012-09-20T11:06:55Z</time>
      </trkpt>
      <trkpt lat="44.97672" lon="1.86947">
        <ele>338</ele>
        <time>2012-09-20T11:07:03Z</time>
      </trkpt>
      <trkpt lat="44.97669" lon="1.8696">
        <ele>339</ele>
        <time>2012-09-20T11:07:10Z</time>
      </trkpt>
      <trkpt lat="44.97669" lon="1.86964">
        <ele>339</ele>
        <time>2012-09-20T11:07:12Z</time>
      </trkpt>
      <trkpt lat="44.97669" lon="1.86966">
        <ele>339.5</ele>
        <time>2012-09-20T11:07:13Z</time>
      </trkpt>
      <trkpt lat="44.9767" lon="1.86968">
        <ele>339.5</ele>
        <time>2012-09-20T11:07:14Z</time>
      </trkpt>
      <trkpt lat="44.97669" lon="1.8697">
        <ele>339</ele>
        <time>2012-09-20T11:07:15Z</time>
      </trkpt>
      <trkpt lat="44.9767" lon="1.86972">
        <ele>339</ele>
        <time>2012-09-20T11:07:16Z</time>
      </trkpt>
      <trkpt lat="44.9767" lon="1.86979">
        <ele>339.5</ele>
        <time>2012-09-20T11:07:20Z</time>
      </trkpt>
      <trkpt lat="44.9767" lon="1.8698">
        <ele>339.5</ele>
        <time>2012-09-20T11:07:21Z</time>
      </trkpt>
      <trkpt lat="44.9767" lon="1.86982">
        <ele>339</ele>
        <time>2012-09-20T11:07:22Z</time>
      </trkpt>
      <trkpt lat="44.9767" lon="1.86984">
        <ele>339</ele>
        <time>2012-09-20T11:07:23Z</time>
      </trkpt>
      <trkpt lat="44.97669" lon="1.86986">
        <ele>339.5</ele>
        <time>2012-09-20T11:07:24Z</time>
      </trkpt>
      <trkpt lat="44.97669" lon="1.86987">
        <ele>339</ele>
        <time>2012-09-20T11:07:25Z</time>
      </trkpt>
      <trkpt lat="44.97669" lon="1.86988">
        <ele>339.5</ele>
        <time>2012-09-20T11:07:26Z</time>
      </trkpt>
      <trkpt lat="44.97669" lon="1.8699">
        <ele>340</ele>
        <time>2012-09-20T11:07:27Z</time>
      </trkpt>
      <trkpt lat="44.97668" lon="1.87004">
        <ele>339</ele>
        <time>2012-09-20T11:07:33Z</time>
      </trkpt>
      <trkpt lat="44.97667" lon="1.87014">
        <ele>339</ele>
        <time>2012-09-20T11:07:38Z</time>
      </trkpt>
      <trkpt lat="44.97666" lon="1.87016">
        <ele>338.5</ele>
        <time>2012-09-20T11:07:39Z</time>
      </trkpt>
      <trkpt lat="44.97665" lon="1.87018">
        <ele>339</ele>
        <time>2012-09-20T11:07:40Z</time>
      </trkpt>
      <trkpt lat="44.97664" lon="1.87019">
        <ele>338.5</ele>
        <time>2012-09-20T11:07:41Z</time>
      </trkpt>
      <trkpt lat="44.97664" lon="1.87021">
        <ele>338.5</ele>
        <time>2012-09-20T11:07:42Z</time>
      </trkpt>
      <trkpt lat="44.97664" lon="1.87023">
        <ele>338.5</ele>
        <time>2012-09-20T11:07:43Z</time>
      </trkpt>
      <trkpt lat="44.97664" lon="1.87025">
        <ele>339</ele>
        <time>2012-09-20T11:07:44Z</time>
      </trkpt>
      <trkpt lat="44.97664" lon="1.87027">
        <ele>338.5</ele>
        <time>2012-09-20T11:07:45Z</time>
      </trkpt>
      <trkpt lat="44.97664" lon="1.87029">
        <ele>339</ele>
        <time>2012-09-20T11:07:46Z</time>
      </trkpt>
      <trkpt lat="44.97664" lon="1.87031">
        <ele>339</ele>
        <time>2012-09-20T11:07:47Z</time>
      </trkpt>
      <trkpt lat="44.97665" lon="1.87033">
        <ele>339</ele>
        <time>2012-09-20T11:07:48Z</time>
      </trkpt>
      <trkpt lat="44.97665" lon="1.87035">
        <ele>338.5</ele>
        <time>2012-09-20T11:07:49Z</time>
      </trkpt>
      <trkpt lat="44.97668" lon="1.87041">
        <ele>325.5</ele>
        <time>2012-09-20T11:07:54Z</time>
      </trkpt>
      <trkpt lat="44.97668" lon="1.87042">
        <ele>340</ele>
        <time>2012-09-20T11:07:55Z</time>
      </trkpt>
      <trkpt lat="44.97671" lon="1.87052">
        <ele>339</ele>
        <time>2012-09-20T11:08:01Z</time>
      </trkpt>
      <trkpt lat="44.97674" lon="1.8706">
        <ele>339.5</ele>
        <time>2012-09-20T11:08:09Z</time>
      </trkpt>
      <trkpt lat="44.97674" lon="1.87071">
        <ele>339</ele>
        <time>2012-09-20T11:08:16Z</time>
      </trkpt>
      <trkpt lat="44.97675" lon="1.87081">
        <ele>339.5</ele>
        <time>2012-09-20T11:08:21Z</time>
      </trkpt>
      <trkpt lat="44.97675" lon="1.87094">
        <ele>339.5</ele>
        <time>2012-09-20T11:08:28Z</time>
      </trkpt>
      <trkpt lat="44.97676" lon="1.87107">
        <ele>339.5</ele>
        <time>2012-09-20T11:08:37Z</time>
      </trkpt>
      <trkpt lat="44.97677" lon="1.87114">
        <ele>339.5</ele>
        <time>2012-09-20T11:08:44Z</time>
      </trkpt>
      <trkpt lat="44.97678" lon="1.87116">
        <ele>340.4</ele>
        <time>2012-09-20T11:08:45Z</time>
      </trkpt>
      <trkpt lat="44.9768" lon="1.87118">
        <ele>340.4</ele>
        <time>2012-09-20T11:08:46Z</time>
      </trkpt>
      <trkpt lat="44.97682" lon="1.87123">
        <ele>336.1</ele>
        <time>2012-09-20T11:08:48Z</time>
      </trkpt>
      <trkpt lat="44.97685" lon="1.87129">
        <ele>344.8</ele>
        <time>2012-09-20T11:08:51Z</time>
      </trkpt>
      <trkpt lat="44.97687" lon="1.87131">
        <ele>339.5</ele>
        <time>2012-09-20T11:08:52Z</time>
      </trkpt>
      <trkpt lat="44.97688" lon="1.87132">
        <ele>347.2</ele>
        <time>2012-09-20T11:08:53Z</time>
      </trkpt>
      <trkpt lat="44.97689" lon="1.87133">
        <ele>331.3</ele>
        <time>2012-09-20T11:08:54Z</time>
      </trkpt>
      <trkpt lat="44.97691" lon="1.87134">
        <ele>340.4</ele>
        <time>2012-09-20T11:08:55Z</time>
      </trkpt>
      <trkpt lat="44.97693" lon="1.87135">
        <ele>354.9</ele>
        <time>2012-09-20T11:08:56Z</time>
      </trkpt>
      <trkpt lat="44.97694" lon="1.87135">
        <ele>334.2</ele>
        <time>2012-09-20T11:08:57Z</time>
      </trkpt>
      <trkpt lat="44.97695" lon="1.87136">
        <ele>351</ele>
        <time>2012-09-20T11:08:58Z</time>
      </trkpt>
      <trkpt lat="44.97696" lon="1.87137">
        <ele>330.4</ele>
        <time>2012-09-20T11:08:59Z</time>
      </trkpt>
      <trkpt lat="44.97697" lon="1.87137">
        <ele>363</ele>
        <time>2012-09-20T11:09:00Z</time>
      </trkpt>
      <trkpt lat="44.97699" lon="1.87138">
        <ele>339.5</ele>
        <time>2012-09-20T11:09:01Z</time>
      </trkpt>
      <trkpt lat="44.977" lon="1.87139">
        <ele>350.5</ele>
        <time>2012-09-20T11:09:02Z</time>
      </trkpt>
      <trkpt lat="44.97701" lon="1.8714">
        <ele>344.8</ele>
        <time>2012-09-20T11:09:03Z</time>
      </trkpt>
      <trkpt lat="44.97707" lon="1.87142">
        <ele>336.6</ele>
        <time>2012-09-20T11:09:08Z</time>
      </trkpt>
      <trkpt lat="44.97707" lon="1.87142">
        <ele>343.8</ele>
        <time>2012-09-20T11:09:09Z</time>
      </trkpt>
      <trkpt lat="44.97717" lon="1.87143">
        <ele>349.1</ele>
        <time>2012-09-20T11:09:15Z</time>
      </trkpt>
      <trkpt lat="44.97718" lon="1.87143">
        <ele>343.3</ele>
        <time>2012-09-20T11:09:16Z</time>
      </trkpt>
      <trkpt lat="44.9772" lon="1.87143">
        <ele>343.8</ele>
        <time>2012-09-20T11:09:18Z</time>
      </trkpt>
      <trkpt lat="44.97722" lon="1.87143">
        <ele>343.3</ele>
        <time>2012-09-20T11:09:19Z</time>
      </trkpt>
      <trkpt lat="44.97723" lon="1.87143">
        <ele>343.3</ele>
        <time>2012-09-20T11:09:20Z</time>
      </trkpt>
      <trkpt lat="44.9773" lon="1.87144">
        <ele>343.8</ele>
        <time>2012-09-20T11:09:26Z</time>
      </trkpt>
      <trkpt lat="44.97732" lon="1.87144">
        <ele>344.3</ele>
        <time>2012-09-20T11:09:27Z</time>
      </trkpt>
      <trkpt lat="44.97733" lon="1.87144">
        <ele>344.3</ele>
        <time>2012-09-20T11:09:28Z</time>
      </trkpt>
      <trkpt lat="44.97741" lon="1.87148">
        <ele>344.8</ele>
        <time>2012-09-20T11:09:34Z</time>
      </trkpt>
      <trkpt lat="44.97745" lon="1.87151">
        <ele>346.2</ele>
        <time>2012-09-20T11:09:40Z</time>
      </trkpt>
      <trkpt lat="44.97746" lon="1.87152">
        <ele>347.2</ele>
        <time>2012-09-20T11:09:41Z</time>
      </trkpt>
      <trkpt lat="44.97752" lon="1.87161">
        <ele>347.6</ele>
        <time>2012-09-20T11:09:49Z</time>
      </trkpt>
      <trkpt lat="44.97754" lon="1.87164">
        <ele>348.6</ele>
        <time>2012-09-20T11:09:51Z</time>
      </trkpt>
      <trkpt lat="44.97756" lon="1.87166">
        <ele>348.6</ele>
        <time>2012-09-20T11:09:52Z</time>
      </trkpt>
      <trkpt lat="44.97757" lon="1.87168">
        <ele>348.6</ele>
        <time>2012-09-20T11:09:53Z</time>
      </trkpt>
      <trkpt lat="44.97758" lon="1.8717">
        <ele>348.6</ele>
        <time>2012-09-20T11:09:54Z</time>
      </trkpt>
      <trkpt lat="44.97761" lon="1.87175">
        <ele>349.6</ele>
        <time>2012-09-20T11:09:59Z</time>
      </trkpt>
      <trkpt lat="44.97762" lon="1.87176">
        <ele>350.1</ele>
        <time>2012-09-20T11:10:00Z</time>
      </trkpt>
      <trkpt lat="44.97763" lon="1.87179">
        <ele>350.5</ele>
        <time>2012-09-20T11:10:01Z</time>
      </trkpt>
      <trkpt lat="44.97763" lon="1.87181">
        <ele>350.5</ele>
        <time>2012-09-20T11:10:02Z</time>
      </trkpt>
      <trkpt lat="44.97765" lon="1.87183">
        <ele>351</ele>
        <time>2012-09-20T11:10:03Z</time>
      </trkpt>
      <trkpt lat="44.97766" lon="1.87189">
        <ele>352</ele>
        <time>2012-09-20T11:10:09Z</time>
      </trkpt>
      <trkpt lat="44.97766" lon="1.87194">
        <ele>352</ele>
        <time>2012-09-20T11:10:11Z</time>
      </trkpt>
      <trkpt lat="44.97766" lon="1.87195">
        <ele>351.5</ele>
        <time>2012-09-20T11:10:12Z</time>
      </trkpt>
      <trkpt lat="44.97766" lon="1.87197">
        <ele>352</ele>
        <time>2012-09-20T11:10:13Z</time>
      </trkpt>
      <trkpt lat="44.97766" lon="1.87201">
        <ele>352.5</ele>
        <time>2012-09-20T11:10:19Z</time>
      </trkpt>
      <trkpt lat="44.97765" lon="1.87213">
        <ele>352.9</ele>
        <time>2012-09-20T11:10:23Z</time>
      </trkpt>
      <trkpt lat="44.97765" lon="1.87216">
        <ele>352.9</ele>
        <time>2012-09-20T11:10:24Z</time>
      </trkpt>
      <trkpt lat="44.97765" lon="1.8722">
        <ele>352.9</ele>
        <time>2012-09-20T11:10:25Z</time>
      </trkpt>
      <trkpt lat="44.97764" lon="1.87222">
        <ele>352.9</ele>
        <time>2012-09-20T11:10:26Z</time>
      </trkpt>
      <trkpt lat="44.97763" lon="1.87224">
        <ele>352.9</ele>
        <time>2012-09-20T11:10:27Z</time>
      </trkpt>
      <trkpt lat="44.97762" lon="1.87226">
        <ele>352.5</ele>
        <time>2012-09-20T11:10:28Z</time>
      </trkpt>
      <trkpt lat="44.9776" lon="1.87233">
        <ele>353.4</ele>
        <time>2012-09-20T11:10:35Z</time>
      </trkpt>
      <trkpt lat="44.97758" lon="1.87237">
        <ele>353.9</ele>
        <time>2012-09-20T11:10:42Z</time>
      </trkpt>
      <trkpt lat="44.97757" lon="1.87242">
        <ele>354.4</ele>
        <time>2012-09-20T11:10:44Z</time>
      </trkpt>
      <trkpt lat="44.97757" lon="1.87244">
        <ele>353.9</ele>
        <time>2012-09-20T11:10:45Z</time>
      </trkpt>
      <trkpt lat="44.97756" lon="1.87247">
        <ele>354.9</ele>
        <time>2012-09-20T11:10:46Z</time>
      </trkpt>
      <trkpt lat="44.97754" lon="1.87255">
        <ele>355.3</ele>
        <time>2012-09-20T11:10:49Z</time>
      </trkpt>
      <trkpt lat="44.97745" lon="1.87267">
        <ele>356.3</ele>
        <time>2012-09-20T11:10:56Z</time>
      </trkpt>
      <trkpt lat="44.97741" lon="1.87275">
        <ele>356.8</ele>
        <time>2012-09-20T11:11:03Z</time>
      </trkpt>
      <trkpt lat="44.9774" lon="1.87276">
        <ele>357.3</ele>
        <time>2012-09-20T11:11:10Z</time>
      </trkpt>
      <trkpt lat="44.97737" lon="1.87284">
        <ele>356.3</ele>
        <time>2012-09-20T11:11:22Z</time>
      </trkpt>
      <trkpt lat="44.97728" lon="1.873">
        <ele>357.3</ele>
        <time>2012-09-20T11:11:30Z</time>
      </trkpt>
      <trkpt lat="44.9772" lon="1.87318">
        <ele>357.3</ele>
        <time>2012-09-20T11:11:38Z</time>
      </trkpt>
      <trkpt lat="44.97707" lon="1.87333">
        <ele>363</ele>
        <time>2012-09-20T11:11:46Z</time>
      </trkpt>
      <trkpt lat="44.97706" lon="1.87334">
        <ele>359.7</ele>
        <time>2012-09-20T11:11:47Z</time>
      </trkpt>
      <trkpt lat="44.97703" lon="1.87337">
        <ele>353.9</ele>
        <time>2012-09-20T11:11:49Z</time>
      </trkpt>
      <trkpt lat="44.97702" lon="1.87339">
        <ele>365</ele>
        <time>2012-09-20T11:11:50Z</time>
      </trkpt>
      <trkpt lat="44.977" lon="1.8734">
        <ele>361.1</ele>
        <time>2012-09-20T11:11:51Z</time>
      </trkpt>
      <trkpt lat="44.97695" lon="1.87347">
        <ele>359.7</ele>
        <time>2012-09-20T11:11:54Z</time>
      </trkpt>
      <trkpt lat="44.97694" lon="1.8735">
        <ele>363</ele>
        <time>2012-09-20T11:11:55Z</time>
      </trkpt>
      <trkpt lat="44.97693" lon="1.87353">
        <ele>362.1</ele>
        <time>2012-09-20T11:11:56Z</time>
      </trkpt>
      <trkpt lat="44.97687" lon="1.87366">
        <ele>364.5</ele>
        <time>2012-09-20T11:12:02Z</time>
      </trkpt>
      <trkpt lat="44.9768" lon="1.87385">
        <ele>367.4</ele>
        <time>2012-09-20T11:12:10Z</time>
      </trkpt>
      <trkpt lat="44.97676" lon="1.87395">
        <ele>370.2</ele>
        <time>2012-09-20T11:12:17Z</time>
      </trkpt>
      <trkpt lat="44.97662" lon="1.87386">
        <ele>373.1</ele>
        <time>2012-09-20T11:12:22Z</time>
      </trkpt>
      <trkpt lat="44.9765" lon="1.87395">
        <ele>376</ele>
        <time>2012-09-20T11:12:29Z</time>
      </trkpt>
      <trkpt lat="44.97638" lon="1.87408">
        <ele>379.4</ele>
        <time>2012-09-20T11:12:35Z</time>
      </trkpt>
      <trkpt lat="44.9762" lon="1.87427">
        <ele>381.3</ele>
        <time>2012-09-20T11:12:37Z</time>
      </trkpt>
      <trkpt lat="44.9759" lon="1.87446">
        <ele>384.7</ele>
        <time>2012-09-20T11:12:44Z</time>
      </trkpt>
      <trkpt lat="44.97574" lon="1.87457">
        <ele>388.5</ele>
        <time>2012-09-20T11:12:50Z</time>
      </trkpt>
      <trkpt lat="44.97565" lon="1.87463">
        <ele>390</ele>
        <time>2012-09-20T11:12:53Z</time>
      </trkpt>
      <trkpt lat="44.97557" lon="1.87469">
        <ele>392.8</ele>
        <time>2012-09-20T11:12:57Z</time>
      </trkpt>
      <trkpt lat="44.97543" lon="1.87477">
        <ele>395.2</ele>
        <time>2012-09-20T11:13:02Z</time>
      </trkpt>
      <trkpt lat="44.97529" lon="1.87484">
        <ele>398.6</ele>
        <time>2012-09-20T11:13:07Z</time>
      </trkpt>
      <trkpt lat="44.97507" lon="1.87486">
        <ele>398.6</ele>
        <time>2012-09-20T11:13:13Z</time>
      </trkpt>
      <trkpt lat="44.97498" lon="1.8749">
        <ele>402</ele>
        <time>2012-09-20T11:13:16Z</time>
      </trkpt>
      <trkpt lat="44.97489" lon="1.87496">
        <ele>400.5</ele>
        <time>2012-09-20T11:13:19Z</time>
      </trkpt>
      <trkpt lat="44.97471" lon="1.87512">
        <ele>393.3</ele>
        <time>2012-09-20T11:13:26Z</time>
      </trkpt>
      <trkpt lat="44.97467" lon="1.87515">
        <ele>399.1</ele>
        <time>2012-09-20T11:13:27Z</time>
      </trkpt>
      <trkpt lat="44.97463" lon="1.87519">
        <ele>396.2</ele>
        <time>2012-09-20T11:13:29Z</time>
      </trkpt>
      <trkpt lat="44.97464" lon="1.8753">
        <ele>399.6</ele>
        <time>2012-09-20T11:13:33Z</time>
      </trkpt>
      <trkpt lat="44.97478" lon="1.87555">
        <ele>397.6</ele>
        <time>2012-09-20T11:13:39Z</time>
      </trkpt>
      <trkpt lat="44.97489" lon="1.87569">
        <ele>399.1</ele>
        <time>2012-09-20T11:13:42Z</time>
      </trkpt>
      <trkpt lat="44.97493" lon="1.87575">
        <ele>399.1</ele>
        <time>2012-09-20T11:13:43Z</time>
      </trkpt>
      <trkpt lat="44.97496" lon="1.87582">
        <ele>399.6</ele>
        <time>2012-09-20T11:13:44Z</time>
      </trkpt>
      <trkpt lat="44.97515" lon="1.87641">
        <ele>402.9</ele>
        <time>2012-09-20T11:13:51Z</time>
      </trkpt>
      <trkpt lat="44.97517" lon="1.8765">
        <ele>397.2</ele>
        <time>2012-09-20T11:13:52Z</time>
      </trkpt>
      <trkpt lat="44.9752" lon="1.87659">
        <ele>402.9</ele>
        <time>2012-09-20T11:13:53Z</time>
      </trkpt>
      <trkpt lat="44.97523" lon="1.87668">
        <ele>401.5</ele>
        <time>2012-09-20T11:13:54Z</time>
      </trkpt>
      <trkpt lat="44.97532" lon="1.87701">
        <ele>402</ele>
        <time>2012-09-20T11:13:58Z</time>
      </trkpt>
      <trkpt lat="44.97533" lon="1.8771">
        <ele>402</ele>
        <time>2012-09-20T11:13:59Z</time>
      </trkpt>
      <trkpt lat="44.97535" lon="1.87727">
        <ele>402.5</ele>
        <time>2012-09-20T11:14:01Z</time>
      </trkpt>
      <trkpt lat="44.97537" lon="1.87736">
        <ele>402.5</ele>
        <time>2012-09-20T11:14:02Z</time>
      </trkpt>
      <trkpt lat="44.97539" lon="1.87744">
        <ele>402.9</ele>
        <time>2012-09-20T11:14:03Z</time>
      </trkpt>
      <trkpt lat="44.97548" lon="1.87764">
        <ele>404.9</ele>
        <time>2012-09-20T11:14:06Z</time>
      </trkpt>
      <trkpt lat="44.97553" lon="1.87786">
        <ele>407.7</ele>
        <time>2012-09-20T11:14:11Z</time>
      </trkpt>
      <trkpt lat="44.97556" lon="1.87808">
        <ele>410.1</ele>
        <time>2012-09-20T11:14:15Z</time>
      </trkpt>
      <trkpt lat="44.97554" lon="1.87813">
        <ele>411.1</ele>
        <time>2012-09-20T11:14:16Z</time>
      </trkpt>
      <trkpt lat="44.97551" lon="1.87818">
        <ele>411.6</ele>
        <time>2012-09-20T11:14:17Z</time>
      </trkpt>
      <trkpt lat="44.97548" lon="1.87822">
        <ele>411.6</ele>
        <time>2012-09-20T11:14:18Z</time>
      </trkpt>
      <trkpt lat="44.97543" lon="1.87827">
        <ele>411.6</ele>
        <time>2012-09-20T11:14:19Z</time>
      </trkpt>
      <trkpt lat="44.97509" lon="1.87859">
        <ele>411.1</ele>
        <time>2012-09-20T11:14:24Z</time>
      </trkpt>
      <trkpt lat="44.97448" lon="1.87898">
        <ele>408.2</ele>
        <time>2012-09-20T11:14:30Z</time>
      </trkpt>
      <trkpt lat="44.97436" lon="1.87904">
        <ele>408.7</ele>
        <time>2012-09-20T11:14:31Z</time>
      </trkpt>
      <trkpt lat="44.97414" lon="1.87917">
        <ele>406.8</ele>
        <time>2012-09-20T11:14:33Z</time>
      </trkpt>
      <trkpt lat="44.97374" lon="1.8794">
        <ele>402.5</ele>
        <time>2012-09-20T11:14:37Z</time>
      </trkpt>
      <trkpt lat="44.97358" lon="1.87946">
        <ele>400.5</ele>
        <time>2012-09-20T11:14:39Z</time>
      </trkpt>
      <trkpt lat="44.97346" lon="1.87948">
        <ele>400</ele>
        <time>2012-09-20T11:14:41Z</time>
      </trkpt>
      <trkpt lat="44.9734" lon="1.87947">
        <ele>399.6</ele>
        <time>2012-09-20T11:14:42Z</time>
      </trkpt>
      <trkpt lat="44.97335" lon="1.87945">
        <ele>399.1</ele>
        <time>2012-09-20T11:14:43Z</time>
      </trkpt>
      <trkpt lat="44.97308" lon="1.87935">
        <ele>397.2</ele>
        <time>2012-09-20T11:14:50Z</time>
      </trkpt>
      <trkpt lat="44.97277" lon="1.87917">
        <ele>396.7</ele>
        <time>2012-09-20T11:14:58Z</time>
      </trkpt>
      <trkpt lat="44.97237" lon="1.8791">
        <ele>395.7</ele>
        <time>2012-09-20T11:15:06Z</time>
      </trkpt>
      <trkpt lat="44.97211" lon="1.87918">
        <ele>393.8</ele>
        <time>2012-09-20T11:15:13Z</time>
      </trkpt>
      <trkpt lat="44.972" lon="1.87929">
        <ele>388.5</ele>
        <time>2012-09-20T11:15:17Z</time>
      </trkpt>
      <trkpt lat="44.97194" lon="1.87933">
        <ele>394.8</ele>
        <time>2012-09-20T11:15:18Z</time>
      </trkpt>
      <trkpt lat="44.9719" lon="1.87937">
        <ele>391.9</ele>
        <time>2012-09-20T11:15:19Z</time>
      </trkpt>
      <trkpt lat="44.97175" lon="1.87951">
        <ele>395.7</ele>
        <time>2012-09-20T11:15:23Z</time>
      </trkpt>
      <trkpt lat="44.97172" lon="1.87954">
        <ele>396.7</ele>
        <time>2012-09-20T11:15:24Z</time>
      </trkpt>
      <trkpt lat="44.97168" lon="1.87957">
        <ele>384.7</ele>
        <time>2012-09-20T11:15:25Z</time>
      </trkpt>
      <trkpt lat="44.97165" lon="1.87959">
        <ele>392.4</ele>
        <time>2012-09-20T11:15:26Z</time>
      </trkpt>
      <trkpt lat="44.97161" lon="1.87961">
        <ele>393.3</ele>
        <time>2012-09-20T11:15:27Z</time>
      </trkpt>
      <trkpt lat="44.97152" lon="1.87968">
        <ele>390</ele>
        <time>2012-09-20T11:15:30Z</time>
      </trkpt>
      <trkpt lat="44.97124" lon="1.87984">
        <ele>388</ele>
        <time>2012-09-20T11:15:39Z</time>
      </trkpt>
      <trkpt lat="44.97097" lon="1.87964">
        <ele>387.1</ele>
        <time>2012-09-20T11:15:45Z</time>
      </trkpt>
      <trkpt lat="44.97085" lon="1.87933">
        <ele>386.1</ele>
        <time>2012-09-20T11:15:51Z</time>
      </trkpt>
      <trkpt lat="44.97086" lon="1.87903">
        <ele>384.7</ele>
        <time>2012-09-20T11:15:57Z</time>
      </trkpt>
      <trkpt lat="44.97101" lon="1.87883">
        <ele>383.2</ele>
        <time>2012-09-20T11:16:03Z</time>
      </trkpt>
      <trkpt lat="44.97124" lon="1.87851">
        <ele>381.3</ele>
        <time>2012-09-20T11:16:12Z</time>
      </trkpt>
      <trkpt lat="44.97142" lon="1.87816">
        <ele>380.3</ele>
        <time>2012-09-20T11:16:20Z</time>
      </trkpt>
      <trkpt lat="44.97161" lon="1.8778">
        <ele>378.9</ele>
        <time>2012-09-20T11:16:28Z</time>
      </trkpt>
      <trkpt lat="44.97175" lon="1.87745">
        <ele>377</ele>
        <time>2012-09-20T11:16:35Z</time>
      </trkpt>
      <trkpt lat="44.97178" lon="1.87697">
        <ele>375.5</ele>
        <time>2012-09-20T11:16:43Z</time>
      </trkpt>
      <trkpt lat="44.97179" lon="1.87656">
        <ele>374.6</ele>
        <time>2012-09-20T11:16:52Z</time>
      </trkpt>
      <trkpt lat="44.97178" lon="1.87653">
        <ele>374.1</ele>
        <time>2012-09-20T11:16:53Z</time>
      </trkpt>
      <trkpt lat="44.97176" lon="1.87651">
        <ele>373.6</ele>
        <time>2012-09-20T11:16:54Z</time>
      </trkpt>
      <trkpt lat="44.97174" lon="1.87648">
        <ele>373.6</ele>
        <time>2012-09-20T11:16:55Z</time>
      </trkpt>
      <trkpt lat="44.97171" lon="1.87646">
        <ele>373.6</ele>
        <time>2012-09-20T11:16:56Z</time>
      </trkpt>
      <trkpt lat="44.97167" lon="1.87645">
        <ele>373.1</ele>
        <time>2012-09-20T11:16:57Z</time>
      </trkpt>
      <trkpt lat="44.97164" lon="1.87644">
        <ele>373.1</ele>
        <time>2012-09-20T11:16:58Z</time>
      </trkpt>
      <trkpt lat="44.97132" lon="1.87637">
        <ele>370.7</ele>
        <time>2012-09-20T11:17:07Z</time>
      </trkpt>
      <trkpt lat="44.97092" lon="1.87638">
        <ele>367.4</ele>
        <time>2012-09-20T11:17:17Z</time>
      </trkpt>
      <trkpt lat="44.97063" lon="1.87631">
        <ele>366.4</ele>
        <time>2012-09-20T11:17:25Z</time>
      </trkpt>
      <trkpt lat="44.97034" lon="1.87618">
        <ele>364</ele>
        <time>2012-09-20T11:17:33Z</time>
      </trkpt>
      <trkpt lat="44.97006" lon="1.87602">
        <ele>362.5</ele>
        <time>2012-09-20T11:17:40Z</time>
      </trkpt>
      <trkpt lat="44.96983" lon="1.87599">
        <ele>360.6</ele>
        <time>2012-09-20T11:17:47Z</time>
      </trkpt>
      <trkpt lat="44.96956" lon="1.87606">
        <ele>359.2</ele>
        <time>2012-09-20T11:17:56Z</time>
      </trkpt>
      <trkpt lat="44.9694" lon="1.87608">
        <ele>357.3</ele>
        <time>2012-09-20T11:18:03Z</time>
      </trkpt>
      <trkpt lat="44.9693" lon="1.87609">
        <ele>357.8</ele>
        <time>2012-09-20T11:18:10Z</time>
      </trkpt>
      <trkpt lat="44.9693" lon="1.87609">
        <ele>354.9</ele>
        <time>2012-09-20T11:18:20Z</time>
      </trkpt>
      <trkpt lat="44.9693" lon="1.87609">
        <ele>359.2</ele>
        <time>2012-09-20T11:18:21Z</time>
      </trkpt>
      <trkpt lat="44.9693" lon="1.87609">
        <ele>355.3</ele>
        <time>2012-09-20T11:18:23Z</time>
      </trkpt>
      <trkpt lat="44.9693" lon="1.87609">
        <ele>356.3</ele>
        <time>2012-09-20T11:18:24Z</time>
      </trkpt>
      <trkpt lat="44.9693" lon="1.87609">
        <ele>352.5</ele>
        <time>2012-09-20T11:18:40Z</time>
      </trkpt>
      <trkpt lat="44.9693" lon="1.87609">
        <ele>359.2</ele>
        <time>2012-09-20T11:18:41Z</time>
      </trkpt>
      <trkpt lat="44.9693" lon="1.87609">
        <ele>356.3</ele>
        <time>2012-09-20T11:18:42Z</time>
      </trkpt>
      <trkpt lat="44.9693" lon="1.87609">
        <ele>359.2</ele>
        <time>2012-09-20T11:18:43Z</time>
      </trkpt>
      <trkpt lat="44.9693" lon="1.87609">
        <ele>354.9</ele>
        <time>2012-09-20T11:18:45Z</time>
      </trkpt>
      <trkpt lat="44.9693" lon="1.87609">
        <ele>358.7</ele>
        <time>2012-09-20T11:18:46Z</time>
      </trkpt>
      <trkpt lat="44.9693" lon="1.87609">
        <ele>353.9</ele>
        <time>2012-09-20T11:18:48Z</time>
      </trkpt>
      <trkpt lat="44.9693" lon="1.87609">
        <ele>355.8</ele>
        <time>2012-09-20T11:18:49Z</time>
      </trkpt>
      <trkpt lat="44.9693" lon="1.87609">
        <ele>359.7</ele>
        <time>2012-09-20T11:18:55Z</time>
      </trkpt>
      <trkpt lat="44.9693" lon="1.87609">
        <ele>353.4</ele>
        <time>2012-09-20T11:19:03Z</time>
      </trkpt>
      <trkpt lat="44.9693" lon="1.87609">
        <ele>362.5</ele>
        <time>2012-09-20T11:19:04Z</time>
      </trkpt>
      <trkpt lat="44.9693" lon="1.87609">
        <ele>358.2</ele>
        <time>2012-09-20T11:19:05Z</time>
      </trkpt>
      <trkpt lat="44.96931" lon="1.87609">
        <ele>357.3</ele>
        <time>2012-09-20T11:19:14Z</time>
      </trkpt>
      <trkpt lat="44.96926" lon="1.87612">
        <ele>357.3</ele>
        <time>2012-09-20T11:19:18Z</time>
      </trkpt>
      <trkpt lat="44.96925" lon="1.87612">
        <ele>357.8</ele>
        <time>2012-09-20T11:19:19Z</time>
      </trkpt>
      <trkpt lat="44.96921" lon="1.87613">
        <ele>358.7</ele>
        <time>2012-09-20T11:19:25Z</time>
      </trkpt>
      <trkpt lat="44.96916" lon="1.87614">
        <ele>359.7</ele>
        <time>2012-09-20T11:19:30Z</time>
      </trkpt>
      <trkpt lat="44.96903" lon="1.87618">
        <ele>360.6</ele>
        <time>2012-09-20T11:19:37Z</time>
      </trkpt>
      <trkpt lat="44.96898" lon="1.87617">
        <ele>362.1</ele>
        <time>2012-09-20T11:19:43Z</time>
      </trkpt>
      <trkpt lat="44.96895" lon="1.87617">
        <ele>362.1</ele>
        <time>2012-09-20T11:19:45Z</time>
      </trkpt>
      <trkpt lat="44.96893" lon="1.87617">
        <ele>362.5</ele>
        <time>2012-09-20T11:19:46Z</time>
      </trkpt>
      <trkpt lat="44.96891" lon="1.87617">
        <ele>362.5</ele>
        <time>2012-09-20T11:19:47Z</time>
      </trkpt>
      <trkpt lat="44.96885" lon="1.87614">
        <ele>363.5</ele>
        <time>2012-09-20T11:19:53Z</time>
      </trkpt>
      <trkpt lat="44.96884" lon="1.87611">
        <ele>363</ele>
        <time>2012-09-20T11:20:00Z</time>
      </trkpt>
      <trkpt lat="44.96884" lon="1.87597">
        <ele>364</ele>
        <time>2012-09-20T11:20:08Z</time>
      </trkpt>
      <trkpt lat="44.96884" lon="1.87592">
        <ele>364.5</ele>
        <time>2012-09-20T11:20:13Z</time>
      </trkpt>
      <trkpt lat="44.96884" lon="1.87589">
        <ele>364</ele>
        <time>2012-09-20T11:20:14Z</time>
      </trkpt>
      <trkpt lat="44.96886" lon="1.87577">
        <ele>365</ele>
        <time>2012-09-20T11:20:19Z</time>
      </trkpt>
      <trkpt lat="44.9689" lon="1.87564">
        <ele>365.4</ele>
        <time>2012-09-20T11:20:26Z</time>
      </trkpt>
      <trkpt lat="44.96892" lon="1.87545">
        <ele>365.9</ele>
        <time>2012-09-20T11:20:33Z</time>
      </trkpt>
      <trkpt lat="44.96892" lon="1.87541">
        <ele>366.4</ele>
        <time>2012-09-20T11:20:35Z</time>
      </trkpt>
      <trkpt lat="44.96894" lon="1.87533">
        <ele>366.9</ele>
        <time>2012-09-20T11:20:40Z</time>
      </trkpt>
      <trkpt lat="44.96895" lon="1.87531">
        <ele>367.4</ele>
        <time>2012-09-20T11:20:41Z</time>
      </trkpt>
      <trkpt lat="44.969" lon="1.8752">
        <ele>368.3</ele>
        <time>2012-09-20T11:20:48Z</time>
      </trkpt>
      <trkpt lat="44.96901" lon="1.87517">
        <ele>369.3</ele>
        <time>2012-09-20T11:20:53Z</time>
      </trkpt>
      <trkpt lat="44.96902" lon="1.87515">
        <ele>368.8</ele>
        <time>2012-09-20T11:20:54Z</time>
      </trkpt>
      <trkpt lat="44.96903" lon="1.87511">
        <ele>369.8</ele>
        <time>2012-09-20T11:20:56Z</time>
      </trkpt>
      <trkpt lat="44.96901" lon="1.87503">
        <ele>371.7</ele>
        <time>2012-09-20T11:21:02Z</time>
      </trkpt>
      <trkpt lat="44.969" lon="1.87501">
        <ele>371.2</ele>
        <time>2012-09-20T11:21:03Z</time>
      </trkpt>
      <trkpt lat="44.96899" lon="1.87499">
        <ele>371.7</ele>
        <time>2012-09-20T11:21:04Z</time>
      </trkpt>
      <trkpt lat="44.96899" lon="1.87497">
        <ele>372.2</ele>
        <time>2012-09-20T11:21:10Z</time>
      </trkpt>
      <trkpt lat="44.96899" lon="1.87497">
        <ele>372.2</ele>
        <time>2012-09-20T11:21:17Z</time>
      </trkpt>
      <trkpt lat="44.96893" lon="1.87499">
        <ele>372.2</ele>
        <time>2012-09-20T11:21:22Z</time>
      </trkpt>
      <trkpt lat="44.96892" lon="1.87501">
        <ele>372.2</ele>
        <time>2012-09-20T11:21:27Z</time>
      </trkpt>
      <trkpt lat="44.96888" lon="1.87504">
        <ele>372.6</ele>
        <time>2012-09-20T11:21:30Z</time>
      </trkpt>
      <trkpt lat="44.9687" lon="1.87504">
        <ele>373.6</ele>
        <time>2012-09-20T11:21:36Z</time>
      </trkpt>
      <trkpt lat="44.96864" lon="1.87501">
        <ele>373.6</ele>
        <time>2012-09-20T11:21:41Z</time>
      </trkpt>
      <trkpt lat="44.96862" lon="1.87501">
        <ele>375</ele>
        <time>2012-09-20T11:21:47Z</time>
      </trkpt>
      <trkpt lat="44.96859" lon="1.875">
        <ele>375</ele>
        <time>2012-09-20T11:21:49Z</time>
      </trkpt>
      <trkpt lat="44.96857" lon="1.87499">
        <ele>374.6</ele>
        <time>2012-09-20T11:21:50Z</time>
      </trkpt>
      <trkpt lat="44.96842" lon="1.87493">
        <ele>376</ele>
        <time>2012-09-20T11:21:57Z</time>
      </trkpt>
      <trkpt lat="44.9684" lon="1.87493">
        <ele>376</ele>
        <time>2012-09-20T11:21:59Z</time>
      </trkpt>
      <trkpt lat="44.96839" lon="1.87494">
        <ele>376</ele>
        <time>2012-09-20T11:22:01Z</time>
      </trkpt>
      <trkpt lat="44.96836" lon="1.87493">
        <ele>375.5</ele>
        <time>2012-09-20T11:22:06Z</time>
      </trkpt>
      <trkpt lat="44.96836" lon="1.87494">
        <ele>376.5</ele>
        <time>2012-09-20T11:22:14Z</time>
      </trkpt>
      <trkpt lat="44.96831" lon="1.87495">
        <ele>376.5</ele>
        <time>2012-09-20T11:22:21Z</time>
      </trkpt>
      <trkpt lat="44.96823" lon="1.87497">
        <ele>376.5</ele>
        <time>2012-09-20T11:22:27Z</time>
      </trkpt>
      <trkpt lat="44.9681" lon="1.87495">
        <ele>377.5</ele>
        <time>2012-09-20T11:22:33Z</time>
      </trkpt>
      <trkpt lat="44.96798" lon="1.87494">
        <ele>377.5</ele>
        <time>2012-09-20T11:22:38Z</time>
      </trkpt>
      <trkpt lat="44.96797" lon="1.87495">
        <ele>377</ele>
        <time>2012-09-20T11:22:39Z</time>
      </trkpt>
      <trkpt lat="44.96784" lon="1.87496">
        <ele>376.5</ele>
        <time>2012-09-20T11:22:46Z</time>
      </trkpt>
      <trkpt lat="44.96779" lon="1.87496">
        <ele>376.5</ele>
        <time>2012-09-20T11:22:49Z</time>
      </trkpt>
      <trkpt lat="44.96777" lon="1.87497">
        <ele>377</ele>
        <time>2012-09-20T11:22:50Z</time>
      </trkpt>
      <trkpt lat="44.96775" lon="1.87498">
        <ele>376.5</ele>
        <time>2012-09-20T11:22:51Z</time>
      </trkpt>
      <trkpt lat="44.96772" lon="1.87498">
        <ele>376</ele>
        <time>2012-09-20T11:22:52Z</time>
      </trkpt>
      <trkpt lat="44.96771" lon="1.87498">
        <ele>376.5</ele>
        <time>2012-09-20T11:22:53Z</time>
      </trkpt>
      <trkpt lat="44.96769" lon="1.87497">
        <ele>376</ele>
        <time>2012-09-20T11:22:54Z</time>
      </trkpt>
      <trkpt lat="44.96767" lon="1.87497">
        <ele>376.5</ele>
        <time>2012-09-20T11:22:55Z</time>
      </trkpt>
      <trkpt lat="44.96766" lon="1.87497">
        <ele>376.5</ele>
        <time>2012-09-20T11:22:56Z</time>
      </trkpt>
      <trkpt lat="44.96765" lon="1.87497">
        <ele>376.5</ele>
        <time>2012-09-20T11:22:57Z</time>
      </trkpt>
      <trkpt lat="44.96751" lon="1.87499">
        <ele>376</ele>
        <time>2012-09-20T11:23:04Z</time>
      </trkpt>
      <trkpt lat="44.96749" lon="1.875">
        <ele>375.5</ele>
        <time>2012-09-20T11:23:05Z</time>
      </trkpt>
      <trkpt lat="44.96743" lon="1.87501">
        <ele>374.6</ele>
        <time>2012-09-20T11:23:09Z</time>
      </trkpt>
      <trkpt lat="44.9674" lon="1.875">
        <ele>374.6</ele>
        <time>2012-09-20T11:23:10Z</time>
      </trkpt>
      <trkpt lat="44.96738" lon="1.875">
        <ele>374.6</ele>
        <time>2012-09-20T11:23:11Z</time>
      </trkpt>
      <trkpt lat="44.96736" lon="1.875">
        <ele>375</ele>
        <time>2012-09-20T11:23:12Z</time>
      </trkpt>
      <trkpt lat="44.96734" lon="1.87501">
        <ele>374.1</ele>
        <time>2012-09-20T11:23:13Z</time>
      </trkpt>
      <trkpt lat="44.96733" lon="1.87502">
        <ele>374.1</ele>
        <time>2012-09-20T11:23:14Z</time>
      </trkpt>
      <trkpt lat="44.96732" lon="1.87502">
        <ele>374.1</ele>
        <time>2012-09-20T11:23:15Z</time>
      </trkpt>
      <trkpt lat="44.96731" lon="1.87502">
        <ele>374.1</ele>
        <time>2012-09-20T11:23:16Z</time>
      </trkpt>
      <trkpt lat="44.96726" lon="1.87501">
        <ele>372.6</ele>
        <time>2012-09-20T11:23:22Z</time>
      </trkpt>
      <trkpt lat="44.96722" lon="1.87501">
        <ele>372.6</ele>
        <time>2012-09-20T11:23:24Z</time>
      </trkpt>
      <trkpt lat="44.96722" lon="1.87501">
        <ele>372.6</ele>
        <time>2012-09-20T11:23:25Z</time>
      </trkpt>
      <trkpt lat="44.96721" lon="1.87503">
        <ele>372.2</ele>
        <time>2012-09-20T11:23:27Z</time>
      </trkpt>
      <trkpt lat="44.96713" lon="1.87504">
        <ele>371.2</ele>
        <time>2012-09-20T11:23:33Z</time>
      </trkpt>
      <trkpt lat="44.96711" lon="1.87505">
        <ele>371.2</ele>
        <time>2012-09-20T11:23:34Z</time>
      </trkpt>
      <trkpt lat="44.9671" lon="1.87505">
        <ele>371.2</ele>
        <time>2012-09-20T11:23:35Z</time>
      </trkpt>
      <trkpt lat="44.96708" lon="1.87506">
        <ele>371.7</ele>
        <time>2012-09-20T11:23:36Z</time>
      </trkpt>
      <trkpt lat="44.96707" lon="1.87506">
        <ele>371.2</ele>
        <time>2012-09-20T11:23:37Z</time>
      </trkpt>
      <trkpt lat="44.96706" lon="1.87507">
        <ele>371.2</ele>
        <time>2012-09-20T11:23:38Z</time>
      </trkpt>
      <trkpt lat="44.96696" lon="1.87513">
        <ele>370.7</ele>
        <time>2012-09-20T11:23:45Z</time>
      </trkpt>
      <trkpt lat="44.96695" lon="1.87514">
        <ele>370.7</ele>
        <time>2012-09-20T11:23:46Z</time>
      </trkpt>
      <trkpt lat="44.96693" lon="1.87514">
        <ele>370.7</ele>
        <time>2012-09-20T11:23:47Z</time>
      </trkpt>
      <trkpt lat="44.96685" lon="1.87517">
        <ele>370.2</ele>
        <time>2012-09-20T11:23:52Z</time>
      </trkpt>
      <trkpt lat="44.96678" lon="1.87522">
        <ele>370.2</ele>
        <time>2012-09-20T11:23:58Z</time>
      </trkpt>
      <trkpt lat="44.9667" lon="1.87527">
        <ele>369.8</ele>
        <time>2012-09-20T11:24:04Z</time>
      </trkpt>
      <trkpt lat="44.96663" lon="1.8753">
        <ele>370.2</ele>
        <time>2012-09-20T11:24:09Z</time>
      </trkpt>
      <trkpt lat="44.96662" lon="1.8753">
        <ele>369.8</ele>
        <time>2012-09-20T11:24:10Z</time>
      </trkpt>
      <trkpt lat="44.96661" lon="1.8753">
        <ele>369.8</ele>
        <time>2012-09-20T11:24:11Z</time>
      </trkpt>
      <trkpt lat="44.9666" lon="1.87531">
        <ele>369.8</ele>
        <time>2012-09-20T11:24:12Z</time>
      </trkpt>
      <trkpt lat="44.96655" lon="1.87531">
        <ele>370.2</ele>
        <time>2012-09-20T11:24:20Z</time>
      </trkpt>
      <trkpt lat="44.96649" lon="1.87533">
        <ele>370.2</ele>
        <time>2012-09-20T11:24:26Z</time>
      </trkpt>
      <trkpt lat="44.96643" lon="1.87534">
        <ele>370.2</ele>
        <time>2012-09-20T11:24:31Z</time>
      </trkpt>
      <trkpt lat="44.96638" lon="1.87536">
        <ele>370.2</ele>
        <time>2012-09-20T11:24:35Z</time>
      </trkpt>
      <trkpt lat="44.96636" lon="1.87538">
        <ele>370.7</ele>
        <time>2012-09-20T11:24:36Z</time>
      </trkpt>
      <trkpt lat="44.96634" lon="1.87539">
        <ele>370.7</ele>
        <time>2012-09-20T11:24:37Z</time>
      </trkpt>
      <trkpt lat="44.96632" lon="1.8754">
        <ele>370.7</ele>
        <time>2012-09-20T11:24:38Z</time>
      </trkpt>
      <trkpt lat="44.9663" lon="1.87541">
        <ele>370.7</ele>
        <time>2012-09-20T11:24:39Z</time>
      </trkpt>
      <trkpt lat="44.96615" lon="1.87552">
        <ele>371.2</ele>
        <time>2012-09-20T11:24:46Z</time>
      </trkpt>
      <trkpt lat="44.966" lon="1.87563">
        <ele>371.7</ele>
        <time>2012-09-20T11:24:53Z</time>
      </trkpt>
      <trkpt lat="44.96587" lon="1.87568">
        <ele>371.7</ele>
        <time>2012-09-20T11:24:59Z</time>
      </trkpt>
      <trkpt lat="44.96578" lon="1.8757">
        <ele>371.7</ele>
        <time>2012-09-20T11:25:05Z</time>
      </trkpt>
      <trkpt lat="44.96577" lon="1.87571">
        <ele>372.2</ele>
        <time>2012-09-20T11:25:07Z</time>
      </trkpt>
      <trkpt lat="44.96576" lon="1.87571">
        <ele>372.2</ele>
        <time>2012-09-20T11:25:08Z</time>
      </trkpt>
      <trkpt lat="44.96576" lon="1.87571">
        <ele>371.7</ele>
        <time>2012-09-20T11:25:09Z</time>
      </trkpt>
      <trkpt lat="44.96575" lon="1.87571">
        <ele>372.2</ele>
        <time>2012-09-20T11:25:10Z</time>
      </trkpt>
      <trkpt lat="44.96574" lon="1.87571">
        <ele>372.2</ele>
        <time>2012-09-20T11:25:11Z</time>
      </trkpt>
      <trkpt lat="44.96573" lon="1.87571">
        <ele>372.2</ele>
        <time>2012-09-20T11:25:12Z</time>
      </trkpt>
      <trkpt lat="44.96573" lon="1.87571">
        <ele>371.7</ele>
        <time>2012-09-20T11:25:13Z</time>
      </trkpt>
      <trkpt lat="44.96572" lon="1.87572">
        <ele>372.2</ele>
        <time>2012-09-20T11:25:14Z</time>
      </trkpt>
      <trkpt lat="44.96571" lon="1.87573">
        <ele>372.2</ele>
        <time>2012-09-20T11:25:15Z</time>
      </trkpt>
      <trkpt lat="44.96569" lon="1.87574">
        <ele>371.7</ele>
        <time>2012-09-20T11:25:16Z</time>
      </trkpt>
      <trkpt lat="44.96567" lon="1.87575">
        <ele>372.2</ele>
        <time>2012-09-20T11:25:17Z</time>
      </trkpt>
      <trkpt lat="44.96565" lon="1.87576">
        <ele>371.7</ele>
        <time>2012-09-20T11:25:18Z</time>
      </trkpt>
      <trkpt lat="44.96552" lon="1.87582">
        <ele>371.2</ele>
        <time>2012-09-20T11:25:24Z</time>
      </trkpt>
      <trkpt lat="44.96538" lon="1.87585">
        <ele>371.7</ele>
        <time>2012-09-20T11:25:30Z</time>
      </trkpt>
      <trkpt lat="44.96537" lon="1.87593">
        <ele>370.2</ele>
        <time>2012-09-20T11:25:35Z</time>
      </trkpt>
      <trkpt lat="44.96536" lon="1.87594">
        <ele>374.6</ele>
        <time>2012-09-20T11:25:36Z</time>
      </trkpt>
      <trkpt lat="44.96535" lon="1.87597">
        <ele>372.6</ele>
        <time>2012-09-20T11:25:39Z</time>
      </trkpt>
      <trkpt lat="44.96534" lon="1.87597">
        <ele>377.5</ele>
        <time>2012-09-20T11:25:40Z</time>
      </trkpt>
      <trkpt lat="44.96534" lon="1.87597">
        <ele>371.7</ele>
        <time>2012-09-20T11:25:41Z</time>
      </trkpt>
      <trkpt lat="44.96528" lon="1.87601">
        <ele>375</ele>
        <time>2012-09-20T11:25:47Z</time>
      </trkpt>
      <trkpt lat="44.96526" lon="1.87601">
        <ele>371.2</ele>
        <time>2012-09-20T11:25:48Z</time>
      </trkpt>
      <trkpt lat="44.96525" lon="1.87599">
        <ele>370.7</ele>
        <time>2012-09-20T11:25:53Z</time>
      </trkpt>
      <trkpt lat="44.96521" lon="1.87602">
        <ele>370.7</ele>
        <time>2012-09-20T11:25:57Z</time>
      </trkpt>
      <trkpt lat="44.96518" lon="1.87604">
        <ele>370.7</ele>
        <time>2012-09-20T11:25:59Z</time>
      </trkpt>
      <trkpt lat="44.96516" lon="1.87605">
        <ele>370.2</ele>
        <time>2012-09-20T11:26:00Z</time>
      </trkpt>
      <trkpt lat="44.96502" lon="1.87617">
        <ele>370.7</ele>
        <time>2012-09-20T11:26:06Z</time>
      </trkpt>
      <trkpt lat="44.96502" lon="1.87619">
        <ele>371.2</ele>
        <time>2012-09-20T11:26:10Z</time>
      </trkpt>
      <trkpt lat="44.96502" lon="1.8762">
        <ele>371.2</ele>
        <time>2012-09-20T11:26:17Z</time>
      </trkpt>
      <trkpt lat="44.96497" lon="1.87628">
        <ele>370.7</ele>
        <time>2012-09-20T11:26:23Z</time>
      </trkpt>
      <trkpt lat="44.96481" lon="1.87645">
        <ele>370.7</ele>
        <time>2012-09-20T11:26:33Z</time>
      </trkpt>
      <trkpt lat="44.96465" lon="1.87639">
        <ele>368.3</ele>
        <time>2012-09-20T11:26:38Z</time>
      </trkpt>
      <trkpt lat="44.9646" lon="1.87636">
        <ele>368.8</ele>
        <time>2012-09-20T11:26:39Z</time>
      </trkpt>
      <trkpt lat="44.96441" lon="1.87629">
        <ele>367.8</ele>
        <time>2012-09-20T11:26:42Z</time>
      </trkpt>
      <trkpt lat="44.9641" lon="1.87622">
        <ele>364.5</ele>
        <time>2012-09-20T11:26:46Z</time>
      </trkpt>
      <trkpt lat="44.96382" lon="1.87621">
        <ele>360.1</ele>
        <time>2012-09-20T11:26:49Z</time>
      </trkpt>
      <trkpt lat="44.96373" lon="1.87623">
        <ele>358.7</ele>
        <time>2012-09-20T11:26:50Z</time>
      </trkpt>
      <trkpt lat="44.96364" lon="1.87629">
        <ele>357.3</ele>
        <time>2012-09-20T11:26:51Z</time>
      </trkpt>
      <trkpt lat="44.96356" lon="1.87635">
        <ele>356.3</ele>
        <time>2012-09-20T11:26:52Z</time>
      </trkpt>
      <trkpt lat="44.96349" lon="1.87642">
        <ele>355.8</ele>
        <time>2012-09-20T11:26:53Z</time>
      </trkpt>
      <trkpt lat="44.96342" lon="1.87647">
        <ele>355.3</ele>
        <time>2012-09-20T11:26:54Z</time>
      </trkpt>
      <trkpt lat="44.96335" lon="1.87652">
        <ele>355.8</ele>
        <time>2012-09-20T11:26:55Z</time>
      </trkpt>
      <trkpt lat="44.96327" lon="1.87655">
        <ele>355.3</ele>
        <time>2012-09-20T11:26:56Z</time>
      </trkpt>
      <trkpt lat="44.96319" lon="1.87657">
        <ele>355.3</ele>
        <time>2012-09-20T11:26:57Z</time>
      </trkpt>
      <trkpt lat="44.96311" lon="1.87658">
        <ele>356.3</ele>
        <time>2012-09-20T11:26:58Z</time>
      </trkpt>
      <trkpt lat="44.96289" lon="1.87662">
        <ele>354.9</ele>
        <time>2012-09-20T11:27:01Z</time>
      </trkpt>
      <trkpt lat="44.96283" lon="1.87664">
        <ele>354.4</ele>
        <time>2012-09-20T11:27:02Z</time>
      </trkpt>
      <trkpt lat="44.96277" lon="1.87668">
        <ele>354.4</ele>
        <time>2012-09-20T11:27:03Z</time>
      </trkpt>
      <trkpt lat="44.96272" lon="1.87672">
        <ele>353.4</ele>
        <time>2012-09-20T11:27:04Z</time>
      </trkpt>
      <trkpt lat="44.96267" lon="1.87676">
        <ele>354.4</ele>
        <time>2012-09-20T11:27:05Z</time>
      </trkpt>
      <trkpt lat="44.96264" lon="1.87681">
        <ele>353.9</ele>
        <time>2012-09-20T11:27:06Z</time>
      </trkpt>
      <trkpt lat="44.96257" lon="1.87689">
        <ele>354.4</ele>
        <time>2012-09-20T11:27:10Z</time>
      </trkpt>
      <trkpt lat="44.96251" lon="1.87695">
        <ele>354.9</ele>
        <time>2012-09-20T11:27:18Z</time>
      </trkpt>
      <trkpt lat="44.96252" lon="1.87696">
        <ele>354.4</ele>
        <time>2012-09-20T11:27:25Z</time>
      </trkpt>
      <trkpt lat="44.96251" lon="1.87698">
        <ele>354.4</ele>
        <time>2012-09-20T11:27:26Z</time>
      </trkpt>
      <trkpt lat="44.96252" lon="1.87702">
        <ele>355.8</ele>
        <time>2012-09-20T11:27:27Z</time>
      </trkpt>
      <trkpt lat="44.96252" lon="1.87705">
        <ele>354.4</ele>
        <time>2012-09-20T11:27:28Z</time>
      </trkpt>
      <trkpt lat="44.96253" lon="1.87708">
        <ele>355.3</ele>
        <time>2012-09-20T11:27:29Z</time>
      </trkpt>
      <trkpt lat="44.96254" lon="1.87712">
        <ele>355.3</ele>
        <time>2012-09-20T11:27:30Z</time>
      </trkpt>
      <trkpt lat="44.96258" lon="1.87735">
        <ele>356.8</ele>
        <time>2012-09-20T11:27:35Z</time>
      </trkpt>
      <trkpt lat="44.96258" lon="1.87769">
        <ele>357.8</ele>
        <time>2012-09-20T11:27:41Z</time>
      </trkpt>
      <trkpt lat="44.96258" lon="1.87784">
        <ele>356.8</ele>
        <time>2012-09-20T11:27:43Z</time>
      </trkpt>
      <trkpt lat="44.96261" lon="1.87808">
        <ele>355.8</ele>
        <time>2012-09-20T11:27:46Z</time>
      </trkpt>
      <trkpt lat="44.96264" lon="1.87816">
        <ele>355.8</ele>
        <time>2012-09-20T11:27:47Z</time>
      </trkpt>
      <trkpt lat="44.96268" lon="1.87823">
        <ele>356.3</ele>
        <time>2012-09-20T11:27:48Z</time>
      </trkpt>
      <trkpt lat="44.96272" lon="1.87829">
        <ele>356.3</ele>
        <time>2012-09-20T11:27:49Z</time>
      </trkpt>
      <trkpt lat="44.96278" lon="1.87835">
        <ele>357.8</ele>
        <time>2012-09-20T11:27:50Z</time>
      </trkpt>
      <trkpt lat="44.96284" lon="1.87841">
        <ele>358.2</ele>
        <time>2012-09-20T11:27:51Z</time>
      </trkpt>
      <trkpt lat="44.9629" lon="1.87846">
        <ele>358.2</ele>
        <time>2012-09-20T11:27:52Z</time>
      </trkpt>
      <trkpt lat="44.96296" lon="1.8785">
        <ele>359.2</ele>
        <time>2012-09-20T11:27:53Z</time>
      </trkpt>
      <trkpt lat="44.96307" lon="1.87857">
        <ele>361.1</ele>
        <time>2012-09-20T11:27:55Z</time>
      </trkpt>
      <trkpt lat="44.96315" lon="1.87864">
        <ele>361.6</ele>
        <time>2012-09-20T11:27:57Z</time>
      </trkpt>
      <trkpt lat="44.96325" lon="1.87871">
        <ele>362.1</ele>
        <time>2012-09-20T11:28:02Z</time>
      </trkpt>
      <trkpt lat="44.96327" lon="1.87873">
        <ele>362.1</ele>
        <time>2012-09-20T11:28:05Z</time>
      </trkpt>
      <trkpt lat="44.96328" lon="1.87875">
        <ele>362.1</ele>
        <time>2012-09-20T11:28:06Z</time>
      </trkpt>
      <trkpt lat="44.96328" lon="1.87877">
        <ele>362.1</ele>
        <time>2012-09-20T11:28:07Z</time>
      </trkpt>
      <trkpt lat="44.96329" lon="1.8788">
        <ele>361.1</ele>
        <time>2012-09-20T11:28:08Z</time>
      </trkpt>
      <trkpt lat="44.96329" lon="1.87883">
        <ele>361.1</ele>
        <time>2012-09-20T11:28:09Z</time>
      </trkpt>
      <trkpt lat="44.9633" lon="1.87886">
        <ele>361.1</ele>
        <time>2012-09-20T11:28:10Z</time>
      </trkpt>
      <trkpt lat="44.96332" lon="1.8789">
        <ele>361.1</ele>
        <time>2012-09-20T11:28:11Z</time>
      </trkpt>
      <trkpt lat="44.96339" lon="1.87907">
        <ele>360.6</ele>
        <time>2012-09-20T11:28:15Z</time>
      </trkpt>
      <trkpt lat="44.96343" lon="1.87912">
        <ele>360.1</ele>
        <time>2012-09-20T11:28:16Z</time>
      </trkpt>
      <trkpt lat="44.96364" lon="1.87936">
        <ele>357.8</ele>
        <time>2012-09-20T11:28:22Z</time>
      </trkpt>
      <trkpt lat="44.96395" lon="1.87951">
        <ele>355.8</ele>
        <time>2012-09-20T11:28:28Z</time>
      </trkpt>
      <trkpt lat="44.96416" lon="1.87957">
        <ele>352.5</ele>
        <time>2012-09-20T11:28:32Z</time>
      </trkpt>
      <trkpt lat="44.96422" lon="1.87959">
        <ele>352.5</ele>
        <time>2012-09-20T11:28:33Z</time>
      </trkpt>
      <trkpt lat="44.96466" lon="1.87965">
        <ele>350.1</ele>
        <time>2012-09-20T11:28:40Z</time>
      </trkpt>
      <trkpt lat="44.965" lon="1.8797">
        <ele>348.6</ele>
        <time>2012-09-20T11:28:46Z</time>
      </trkpt>
      <trkpt lat="44.96519" lon="1.87978">
        <ele>348.1</ele>
        <time>2012-09-20T11:28:50Z</time>
      </trkpt>
      <trkpt lat="44.96541" lon="1.87991">
        <ele>346.2</ele>
        <time>2012-09-20T11:28:55Z</time>
      </trkpt>
      <trkpt lat="44.96543" lon="1.87996">
        <ele>345.7</ele>
        <time>2012-09-20T11:28:56Z</time>
      </trkpt>
      <trkpt lat="44.96544" lon="1.88002">
        <ele>345.7</ele>
        <time>2012-09-20T11:28:57Z</time>
      </trkpt>
      <trkpt lat="44.96545" lon="1.88006">
        <ele>345.7</ele>
        <time>2012-09-20T11:28:58Z</time>
      </trkpt>
      <trkpt lat="44.96544" lon="1.88011">
        <ele>344.8</ele>
        <time>2012-09-20T11:28:59Z</time>
      </trkpt>
      <trkpt lat="44.96544" lon="1.88014">
        <ele>345.2</ele>
        <time>2012-09-20T11:29:00Z</time>
      </trkpt>
      <trkpt lat="44.96543" lon="1.88018">
        <ele>344.8</ele>
        <time>2012-09-20T11:29:01Z</time>
      </trkpt>
      <trkpt lat="44.96542" lon="1.88021">
        <ele>344.8</ele>
        <time>2012-09-20T11:29:02Z</time>
      </trkpt>
      <trkpt lat="44.96534" lon="1.88052">
        <ele>346.2</ele>
        <time>2012-09-20T11:29:09Z</time>
      </trkpt>
      <trkpt lat="44.96527" lon="1.88069">
        <ele>347.6</ele>
        <time>2012-09-20T11:29:13Z</time>
      </trkpt>
      <trkpt lat="44.9652" lon="1.88091">
        <ele>348.6</ele>
        <time>2012-09-20T11:29:19Z</time>
      </trkpt>
      <trkpt lat="44.96508" lon="1.88118">
        <ele>350.1</ele>
        <time>2012-09-20T11:29:25Z</time>
      </trkpt>
      <trkpt lat="44.96499" lon="1.88143">
        <ele>351</ele>
        <time>2012-09-20T11:29:32Z</time>
      </trkpt>
      <trkpt lat="44.96489" lon="1.8817">
        <ele>350.5</ele>
        <time>2012-09-20T11:29:40Z</time>
      </trkpt>
      <trkpt lat="44.96487" lon="1.88175">
        <ele>350.5</ele>
        <time>2012-09-20T11:29:46Z</time>
      </trkpt>
      <trkpt lat="44.96487" lon="1.88179">
        <ele>350.1</ele>
        <time>2012-09-20T11:29:48Z</time>
      </trkpt>
      <trkpt lat="44.96489" lon="1.88187">
        <ele>350.1</ele>
        <time>2012-09-20T11:29:54Z</time>
      </trkpt>
      <trkpt lat="44.96487" lon="1.88186">
        <ele>355.3</ele>
        <time>2012-09-20T11:29:58Z</time>
      </trkpt>
      <trkpt lat="44.96486" lon="1.88187">
        <ele>350.1</ele>
        <time>2012-09-20T11:29:59Z</time>
      </trkpt>
      <trkpt lat="44.96487" lon="1.8819">
        <ele>349.6</ele>
        <time>2012-09-20T11:30:07Z</time>
      </trkpt>
      <trkpt lat="44.96487" lon="1.88191">
        <ele>349.1</ele>
        <time>2012-09-20T11:30:17Z</time>
      </trkpt>
      <trkpt lat="44.96487" lon="1.88191">
        <ele>343.3</ele>
        <time>2012-09-20T11:30:30Z</time>
      </trkpt>
      <trkpt lat="44.96487" lon="1.88191">
        <ele>350.5</ele>
        <time>2012-09-20T11:30:31Z</time>
      </trkpt>
      <trkpt lat="44.96486" lon="1.8819">
        <ele>349.6</ele>
        <time>2012-09-20T11:30:42Z</time>
      </trkpt>
      <trkpt lat="44.96486" lon="1.8819">
        <ele>349.6</ele>
        <time>2012-09-20T11:30:54Z</time>
      </trkpt>
      <trkpt lat="44.96486" lon="1.8819">
        <ele>350.1</ele>
        <time>2012-09-20T11:31:12Z</time>
      </trkpt>
      <trkpt lat="44.96486" lon="1.88189">
        <ele>349.6</ele>
        <time>2012-09-20T11:31:33Z</time>
      </trkpt>
      <trkpt lat="44.96486" lon="1.88188">
        <ele>350.1</ele>
        <time>2012-09-20T11:31:54Z</time>
      </trkpt>
      <trkpt lat="44.96486" lon="1.88188">
        <ele>350.5</ele>
        <time>2012-09-20T11:32:18Z</time>
      </trkpt>
      <trkpt lat="44.96486" lon="1.88189">
        <ele>350.1</ele>
        <time>2012-09-20T11:32:34Z</time>
      </trkpt>
      <trkpt lat="44.96486" lon="1.88189">
        <ele>350.1</ele>
        <time>2012-09-20T11:32:50Z</time>
      </trkpt>
      <trkpt lat="44.96486" lon="1.88189">
        <ele>350.5</ele>
        <time>2012-09-20T11:33:09Z</time>
      </trkpt>
      <trkpt lat="44.96486" lon="1.88189">
        <ele>351</ele>
        <time>2012-09-20T11:33:27Z</time>
      </trkpt>
      <trkpt lat="44.96486" lon="1.88189">
        <ele>350.1</ele>
        <time>2012-09-20T11:33:49Z</time>
      </trkpt>
      <trkpt lat="44.96485" lon="1.88189">
        <ele>350.1</ele>
        <time>2012-09-20T11:34:10Z</time>
      </trkpt>
      <trkpt lat="44.96485" lon="1.88189">
        <ele>350.5</ele>
        <time>2012-09-20T11:34:30Z</time>
      </trkpt>
      <trkpt lat="44.96485" lon="1.88188">
        <ele>351</ele>
        <time>2012-09-20T11:34:53Z</time>
      </trkpt>
      <trkpt lat="44.96485" lon="1.88188">
        <ele>350.5</ele>
        <time>2012-09-20T11:35:11Z</time>
      </trkpt>
      <trkpt lat="44.96485" lon="1.88188">
        <ele>351</ele>
        <time>2012-09-20T11:35:26Z</time>
      </trkpt>
      <trkpt lat="44.96485" lon="1.88188">
        <ele>351</ele>
        <time>2012-09-20T11:35:47Z</time>
      </trkpt>
      <trkpt lat="44.96485" lon="1.88188">
        <ele>351</ele>
        <time>2012-09-20T11:36:04Z</time>
      </trkpt>
      <trkpt lat="44.96485" lon="1.88188">
        <ele>350.5</ele>
        <time>2012-09-20T11:36:20Z</time>
      </trkpt>
      <trkpt lat="44.96485" lon="1.88187">
        <ele>351</ele>
        <time>2012-09-20T11:36:37Z</time>
      </trkpt>
      <trkpt lat="44.96485" lon="1.88187">
        <ele>351</ele>
        <time>2012-09-20T11:36:54Z</time>
      </trkpt>
      <trkpt lat="44.96485" lon="1.88187">
        <ele>352</ele>
        <time>2012-09-20T11:37:11Z</time>
      </trkpt>
      <trkpt lat="44.96485" lon="1.88188">
        <ele>351</ele>
        <time>2012-09-20T11:37:28Z</time>
      </trkpt>
      <trkpt lat="44.96485" lon="1.88188">
        <ele>351.5</ele>
        <time>2012-09-20T11:37:46Z</time>
      </trkpt>
      <trkpt lat="44.96485" lon="1.88188">
        <ele>351.5</ele>
        <time>2012-09-20T11:38:05Z</time>
      </trkpt>
      <trkpt lat="44.96485" lon="1.88188">
        <ele>351</ele>
        <time>2012-09-20T11:38:22Z</time>
      </trkpt>
      <trkpt lat="44.96485" lon="1.88188">
        <ele>351</ele>
        <time>2012-09-20T11:38:41Z</time>
      </trkpt>
      <trkpt lat="44.96485" lon="1.88188">
        <ele>351.5</ele>
        <time>2012-09-20T11:38:59Z</time>
      </trkpt>
      <trkpt lat="44.96485" lon="1.88189">
        <ele>351.5</ele>
        <time>2012-09-20T11:39:15Z</time>
      </trkpt>
      <trkpt lat="44.96485" lon="1.88189">
        <ele>351.5</ele>
        <time>2012-09-20T11:39:35Z</time>
      </trkpt>
      <trkpt lat="44.96485" lon="1.88189">
        <ele>351.5</ele>
        <time>2012-09-20T11:39:51Z</time>
      </trkpt>
      <trkpt lat="44.96485" lon="1.88189">
        <ele>351.5</ele>
        <time>2012-09-20T11:40:10Z</time>
      </trkpt>
      <trkpt lat="44.96485" lon="1.88189">
        <ele>352</ele>
        <time>2012-09-20T11:40:28Z</time>
      </trkpt>
      <trkpt lat="44.96486" lon="1.8819">
        <ele>351</ele>
        <time>2012-09-20T11:40:43Z</time>
      </trkpt>
      <trkpt lat="44.96486" lon="1.8819">
        <ele>352</ele>
        <time>2012-09-20T11:40:59Z</time>
      </trkpt>
      <trkpt lat="44.96485" lon="1.8819">
        <ele>351</ele>
        <time>2012-09-20T11:41:14Z</time>
      </trkpt>
      <trkpt lat="44.96485" lon="1.8819">
        <ele>352</ele>
        <time>2012-09-20T11:41:30Z</time>
      </trkpt>
      <trkpt lat="44.96485" lon="1.8819">
        <ele>352</ele>
        <time>2012-09-20T11:41:47Z</time>
      </trkpt>
      <trkpt lat="44.96486" lon="1.8819">
        <ele>352</ele>
        <time>2012-09-20T11:42:04Z</time>
      </trkpt>
      <trkpt lat="44.96486" lon="1.8819">
        <ele>351.5</ele>
        <time>2012-09-20T11:42:22Z</time>
      </trkpt>
      <trkpt lat="44.96485" lon="1.8819">
        <ele>351.5</ele>
        <time>2012-09-20T11:42:40Z</time>
      </trkpt>
      <trkpt lat="44.96485" lon="1.8819">
        <ele>352</ele>
        <time>2012-09-20T11:42:59Z</time>
      </trkpt>
      <trkpt lat="44.96485" lon="1.88191">
        <ele>351.5</ele>
        <time>2012-09-20T11:43:17Z</time>
      </trkpt>
      <trkpt lat="44.96485" lon="1.88191">
        <ele>352</ele>
        <time>2012-09-20T11:43:39Z</time>
      </trkpt>
      <trkpt lat="44.96485" lon="1.88191">
        <ele>352</ele>
        <time>2012-09-20T11:43:58Z</time>
      </trkpt>
      <trkpt lat="44.96485" lon="1.88191">
        <ele>351.5</ele>
        <time>2012-09-20T11:44:18Z</time>
      </trkpt>
      <trkpt lat="44.96485" lon="1.88191">
        <ele>352</ele>
        <time>2012-09-20T11:44:39Z</time>
      </trkpt>
      <trkpt lat="44.96485" lon="1.88191">
        <ele>351.5</ele>
        <time>2012-09-20T11:44:55Z</time>
      </trkpt>
      <trkpt lat="44.96485" lon="1.88191">
        <ele>352</ele>
        <time>2012-09-20T11:45:12Z</time>
      </trkpt>
      <trkpt lat="44.96485" lon="1.88191">
        <ele>352.5</ele>
        <time>2012-09-20T11:45:28Z</time>
      </trkpt>
      <trkpt lat="44.96485" lon="1.88191">
        <ele>352.5</ele>
        <time>2012-09-20T11:45:46Z</time>
      </trkpt>
      <trkpt lat="44.96485" lon="1.88191">
        <ele>352</ele>
        <time>2012-09-20T11:46:03Z</time>
      </trkpt>
      <trkpt lat="44.96485" lon="1.88191">
        <ele>352</ele>
        <time>2012-09-20T11:46:19Z</time>
      </trkpt>
      <trkpt lat="44.96485" lon="1.88191">
        <ele>352</ele>
        <time>2012-09-20T11:46:40Z</time>
      </trkpt>
      <trkpt lat="44.96485" lon="1.88191">
        <ele>352.5</ele>
        <time>2012-09-20T11:47:00Z</time>
      </trkpt>
      <trkpt lat="44.96485" lon="1.88191">
        <ele>352</ele>
        <time>2012-09-20T11:47:21Z</time>
      </trkpt>
      <trkpt lat="44.96485" lon="1.88191">
        <ele>352.5</ele>
        <time>2012-09-20T11:47:41Z</time>
      </trkpt>
      <trkpt lat="44.96485" lon="1.88191">
        <ele>352.5</ele>
        <time>2012-09-20T11:48:01Z</time>
      </trkpt>
      <trkpt lat="44.96485" lon="1.88191">
        <ele>352.5</ele>
        <time>2012-09-20T11:48:18Z</time>
      </trkpt>
      <trkpt lat="44.96485" lon="1.88191">
        <ele>352.5</ele>
        <time>2012-09-20T11:48:35Z</time>
      </trkpt>
      <trkpt lat="44.96485" lon="1.88191">
        <ele>352.5</ele>
        <time>2012-09-20T11:48:57Z</time>
      </trkpt>
      <trkpt lat="44.96485" lon="1.88191">
        <ele>352.9</ele>
        <time>2012-09-20T11:49:16Z</time>
      </trkpt>
      <trkpt lat="44.96485" lon="1.88191">
        <ele>352.5</ele>
        <time>2012-09-20T11:49:34Z</time>
      </trkpt>
      <trkpt lat="44.96486" lon="1.88191">
        <ele>352.9</ele>
        <time>2012-09-20T11:49:57Z</time>
      </trkpt>
      <trkpt lat="44.96486" lon="1.88191">
        <ele>352.5</ele>
        <time>2012-09-20T11:50:15Z</time>
      </trkpt>
      <trkpt lat="44.96486" lon="1.88191">
        <ele>352.5</ele>
        <time>2012-09-20T11:50:32Z</time>
      </trkpt>
      <trkpt lat="44.96486" lon="1.88191">
        <ele>352.5</ele>
        <time>2012-09-20T11:50:50Z</time>
      </trkpt>
      <trkpt lat="44.96486" lon="1.88191">
        <ele>352.5</ele>
        <time>2012-09-20T11:51:09Z</time>
      </trkpt>
      <trkpt lat="44.96486" lon="1.88191">
        <ele>352.9</ele>
        <time>2012-09-20T11:51:32Z</time>
      </trkpt>
      <trkpt lat="44.96486" lon="1.88191">
        <ele>352.9</ele>
        <time>2012-09-20T11:51:50Z</time>
      </trkpt>
      <trkpt lat="44.96486" lon="1.88191">
        <ele>352.9</ele>
        <time>2012-09-20T11:52:12Z</time>
      </trkpt>
      <trkpt lat="44.96486" lon="1.88191">
        <ele>352.9</ele>
        <time>2012-09-20T11:52:31Z</time>
      </trkpt>
      <trkpt lat="44.96486" lon="1.88191">
        <ele>353.4</ele>
        <time>2012-09-20T11:52:49Z</time>
      </trkpt>
      <trkpt lat="44.96486" lon="1.88191">
        <ele>352.9</ele>
        <time>2012-09-20T11:53:07Z</time>
      </trkpt>
      <trkpt lat="44.96486" lon="1.88191">
        <ele>353.4</ele>
        <time>2012-09-20T11:53:23Z</time>
      </trkpt>
      <trkpt lat="44.96486" lon="1.88191">
        <ele>352.5</ele>
        <time>2012-09-20T11:53:45Z</time>
      </trkpt>
      <trkpt lat="44.96485" lon="1.88191">
        <ele>353.4</ele>
        <time>2012-09-20T11:54:05Z</time>
      </trkpt>
      <trkpt lat="44.96485" lon="1.88191">
        <ele>353.4</ele>
        <time>2012-09-20T11:54:27Z</time>
      </trkpt>
      <trkpt lat="44.96485" lon="1.88191">
        <ele>353.4</ele>
        <time>2012-09-20T11:54:48Z</time>
      </trkpt>
      <trkpt lat="44.96485" lon="1.88191">
        <ele>352.9</ele>
        <time>2012-09-20T11:55:06Z</time>
      </trkpt>
      <trkpt lat="44.96485" lon="1.88191">
        <ele>353.4</ele>
        <time>2012-09-20T11:55:22Z</time>
      </trkpt>
      <trkpt lat="44.96485" lon="1.88191">
        <ele>353.9</ele>
        <time>2012-09-20T11:55:36Z</time>
      </trkpt>
      <trkpt lat="44.96485" lon="1.8819">
        <ele>353.4</ele>
        <time>2012-09-20T11:55:54Z</time>
      </trkpt>
      <trkpt lat="44.96485" lon="1.8819">
        <ele>353.4</ele>
        <time>2012-09-20T11:56:12Z</time>
      </trkpt>
      <trkpt lat="44.96485" lon="1.8819">
        <ele>353.9</ele>
        <time>2012-09-20T11:56:30Z</time>
      </trkpt>
      <trkpt lat="44.96484" lon="1.88191">
        <ele>353.4</ele>
        <time>2012-09-20T11:56:48Z</time>
      </trkpt>
      <trkpt lat="44.96484" lon="1.88191">
        <ele>353.4</ele>
        <time>2012-09-20T11:57:05Z</time>
      </trkpt>
      <trkpt lat="44.96484" lon="1.8819">
        <ele>353.9</ele>
        <time>2012-09-20T11:57:28Z</time>
      </trkpt>
      <trkpt lat="44.96484" lon="1.8819">
        <ele>353.9</ele>
        <time>2012-09-20T11:57:52Z</time>
      </trkpt>
      <trkpt lat="44.96485" lon="1.8819">
        <ele>353.9</ele>
        <time>2012-09-20T11:58:10Z</time>
      </trkpt>
      <trkpt lat="44.96485" lon="1.8819">
        <ele>353.9</ele>
        <time>2012-09-20T11:58:31Z</time>
      </trkpt>
      <trkpt lat="44.96485" lon="1.88191">
        <ele>354.9</ele>
        <time>2012-09-20T11:58:52Z</time>
      </trkpt>
      <trkpt lat="44.96485" lon="1.88191">
        <ele>353.4</ele>
        <time>2012-09-20T11:59:11Z</time>
      </trkpt>
      <trkpt lat="44.96485" lon="1.8819">
        <ele>353.9</ele>
        <time>2012-09-20T11:59:31Z</time>
      </trkpt>
      <trkpt lat="44.96485" lon="1.8819">
        <ele>353.9</ele>
        <time>2012-09-20T11:59:50Z</time>
      </trkpt>
      <trkpt lat="44.96484" lon="1.88191">
        <ele>353.4</ele>
        <time>2012-09-20T12:00:12Z</time>
      </trkpt>
      <trkpt lat="44.96484" lon="1.88191">
        <ele>353.9</ele>
        <time>2012-09-20T12:00:35Z</time>
      </trkpt>
      <trkpt lat="44.96484" lon="1.88191">
        <ele>353.9</ele>
        <time>2012-09-20T12:00:57Z</time>
      </trkpt>
      <trkpt lat="44.96484" lon="1.8819">
        <ele>353.9</ele>
        <time>2012-09-20T12:01:15Z</time>
      </trkpt>
      <trkpt lat="44.96484" lon="1.8819">
        <ele>354.4</ele>
        <time>2012-09-20T12:01:32Z</time>
      </trkpt>
      <trkpt lat="44.96484" lon="1.8819">
        <ele>353.9</ele>
        <time>2012-09-20T12:01:49Z</time>
      </trkpt>
      <trkpt lat="44.96485" lon="1.8819">
        <ele>354.4</ele>
        <time>2012-09-20T12:02:09Z</time>
      </trkpt>
      <trkpt lat="44.96485" lon="1.8819">
        <ele>353.9</ele>
        <time>2012-09-20T12:02:27Z</time>
      </trkpt>
      <trkpt lat="44.96485" lon="1.8819">
        <ele>354.4</ele>
        <time>2012-09-20T12:02:45Z</time>
      </trkpt>
      <trkpt lat="44.96485" lon="1.8819">
        <ele>353.9</ele>
        <time>2012-09-20T12:03:05Z</time>
      </trkpt>
      <trkpt lat="44.96485" lon="1.8819">
        <ele>353.9</ele>
        <time>2012-09-20T12:03:23Z</time>
      </trkpt>
      <trkpt lat="44.96485" lon="1.8819">
        <ele>353.9</ele>
        <time>2012-09-20T12:03:42Z</time>
      </trkpt>
      <trkpt lat="44.96486" lon="1.8819">
        <ele>354.4</ele>
        <time>2012-09-20T12:04:02Z</time>
      </trkpt>
      <trkpt lat="44.96486" lon="1.8819">
        <ele>354.4</ele>
        <time>2012-09-20T12:04:22Z</time>
      </trkpt>
      <trkpt lat="44.96486" lon="1.8819">
        <ele>354.4</ele>
        <time>2012-09-20T12:04:38Z</time>
      </trkpt>
      <trkpt lat="44.96486" lon="1.8819">
        <ele>353.9</ele>
        <time>2012-09-20T12:04:52Z</time>
      </trkpt>
      <trkpt lat="44.96486" lon="1.8819">
        <ele>354.9</ele>
        <time>2012-09-20T12:05:12Z</time>
      </trkpt>
      <trkpt lat="44.96486" lon="1.8819">
        <ele>354.9</ele>
        <time>2012-09-20T12:05:31Z</time>
      </trkpt>
      <trkpt lat="44.96486" lon="1.8819">
        <ele>354.4</ele>
        <time>2012-09-20T12:05:48Z</time>
      </trkpt>
      <trkpt lat="44.96486" lon="1.88191">
        <ele>354.4</ele>
        <time>2012-09-20T12:06:08Z</time>
      </trkpt>
      <trkpt lat="44.96486" lon="1.88191">
        <ele>354.9</ele>
        <time>2012-09-20T12:06:27Z</time>
      </trkpt>
      <trkpt lat="44.96486" lon="1.8819">
        <ele>353.9</ele>
        <time>2012-09-20T12:06:46Z</time>
      </trkpt>
      <trkpt lat="44.96486" lon="1.8819">
        <ele>354.9</ele>
        <time>2012-09-20T12:07:02Z</time>
      </trkpt>
      <trkpt lat="44.96485" lon="1.88191">
        <ele>354.9</ele>
        <time>2012-09-20T12:07:20Z</time>
      </trkpt>
      <trkpt lat="44.96485" lon="1.88191">
        <ele>354.4</ele>
        <time>2012-09-20T12:07:38Z</time>
      </trkpt>
      <trkpt lat="44.96485" lon="1.88191">
        <ele>354.4</ele>
        <time>2012-09-20T12:07:59Z</time>
      </trkpt>
      <trkpt lat="44.96485" lon="1.88191">
        <ele>353.9</ele>
        <time>2012-09-20T12:08:17Z</time>
      </trkpt>
      <trkpt lat="44.96485" lon="1.88191">
        <ele>354.9</ele>
        <time>2012-09-20T12:08:33Z</time>
      </trkpt>
      <trkpt lat="44.96485" lon="1.88191">
        <ele>354.4</ele>
        <time>2012-09-20T12:08:50Z</time>
      </trkpt>
      <trkpt lat="44.96485" lon="1.88191">
        <ele>355.3</ele>
        <time>2012-09-20T12:09:08Z</time>
      </trkpt>
      <trkpt lat="44.96484" lon="1.88189">
        <ele>354.9</ele>
        <time>2012-09-20T12:09:27Z</time>
      </trkpt>
      <trkpt lat="44.96484" lon="1.88189">
        <ele>353.9</ele>
        <time>2012-09-20T12:09:44Z</time>
      </trkpt>
      <trkpt lat="44.96485" lon="1.8819">
        <ele>354.9</ele>
        <time>2012-09-20T12:10:01Z</time>
      </trkpt>
      <trkpt lat="44.96485" lon="1.8819">
        <ele>354.4</ele>
        <time>2012-09-20T12:10:17Z</time>
      </trkpt>
      <trkpt lat="44.96485" lon="1.8819">
        <ele>354.9</ele>
        <time>2012-09-20T12:10:38Z</time>
      </trkpt>
      <trkpt lat="44.96485" lon="1.8819">
        <ele>354.9</ele>
        <time>2012-09-20T12:10:58Z</time>
      </trkpt>
      <trkpt lat="44.96485" lon="1.8819">
        <ele>354.4</ele>
        <time>2012-09-20T12:11:17Z</time>
      </trkpt>
      <trkpt lat="44.96485" lon="1.8819">
        <ele>354.4</ele>
        <time>2012-09-20T12:11:37Z</time>
      </trkpt>
      <trkpt lat="44.96485" lon="1.88189">
        <ele>354.9</ele>
        <time>2012-09-20T12:11:56Z</time>
      </trkpt>
      <trkpt lat="44.96485" lon="1.88189">
        <ele>354.4</ele>
        <time>2012-09-20T12:12:16Z</time>
      </trkpt>
      <trkpt lat="44.96485" lon="1.8819">
        <ele>354.9</ele>
        <time>2012-09-20T12:12:35Z</time>
      </trkpt>
      <trkpt lat="44.96485" lon="1.8819">
        <ele>354.9</ele>
        <time>2012-09-20T12:12:53Z</time>
      </trkpt>
      <trkpt lat="44.96485" lon="1.8819">
        <ele>354.4</ele>
        <time>2012-09-20T12:13:09Z</time>
      </trkpt>
      <trkpt lat="44.96485" lon="1.8819">
        <ele>354.9</ele>
        <time>2012-09-20T12:13:24Z</time>
      </trkpt>
      <trkpt lat="44.96485" lon="1.8819">
        <ele>354.4</ele>
        <time>2012-09-20T12:13:49Z</time>
      </trkpt>
      <trkpt lat="44.96485" lon="1.8819">
        <ele>354.4</ele>
        <time>2012-09-20T12:14:11Z</time>
      </trkpt>
      <trkpt lat="44.96485" lon="1.88189">
        <ele>354.9</ele>
        <time>2012-09-20T12:14:36Z</time>
      </trkpt>
      <trkpt lat="44.96485" lon="1.88189">
        <ele>354.4</ele>
        <time>2012-09-20T12:14:54Z</time>
      </trkpt>
      <trkpt lat="44.96485" lon="1.88189">
        <ele>354.9</ele>
        <time>2012-09-20T12:15:14Z</time>
      </trkpt>
      <trkpt lat="44.96485" lon="1.88189">
        <ele>354.4</ele>
        <time>2012-09-20T12:15:30Z</time>
      </trkpt>
      <trkpt lat="44.96485" lon="1.88189">
        <ele>354.9</ele>
        <time>2012-09-20T12:15:47Z</time>
      </trkpt>
      <trkpt lat="44.96485" lon="1.88189">
        <ele>354.4</ele>
        <time>2012-09-20T12:16:02Z</time>
      </trkpt>
      <trkpt lat="44.96485" lon="1.88189">
        <ele>354.9</ele>
        <time>2012-09-20T12:16:18Z</time>
      </trkpt>
      <trkpt lat="44.96485" lon="1.88189">
        <ele>353.4</ele>
        <time>2012-09-20T12:16:39Z</time>
      </trkpt>
      <trkpt lat="44.96485" lon="1.88189">
        <ele>354.4</ele>
        <time>2012-09-20T12:16:59Z</time>
      </trkpt>
      <trkpt lat="44.96485" lon="1.8819">
        <ele>354.4</ele>
        <time>2012-09-20T12:17:24Z</time>
      </trkpt>
      <trkpt lat="44.96485" lon="1.8819">
        <ele>354.4</ele>
        <time>2012-09-20T12:17:45Z</time>
      </trkpt>
      <trkpt lat="44.96486" lon="1.8819">
        <ele>353.9</ele>
        <time>2012-09-20T12:18:06Z</time>
      </trkpt>
      <trkpt lat="44.96486" lon="1.8819">
        <ele>353.9</ele>
        <time>2012-09-20T12:18:25Z</time>
      </trkpt>
      <trkpt lat="44.96486" lon="1.88189">
        <ele>354.4</ele>
        <time>2012-09-20T12:18:48Z</time>
      </trkpt>
      <trkpt lat="44.96486" lon="1.88189">
        <ele>354.4</ele>
        <time>2012-09-20T12:19:06Z</time>
      </trkpt>
      <trkpt lat="44.96486" lon="1.88188">
        <ele>354.4</ele>
        <time>2012-09-20T12:19:24Z</time>
      </trkpt>
      <trkpt lat="44.96486" lon="1.88188">
        <ele>354.4</ele>
        <time>2012-09-20T12:19:44Z</time>
      </trkpt>
      <trkpt lat="44.96486" lon="1.88189">
        <ele>353.9</ele>
        <time>2012-09-20T12:20:04Z</time>
      </trkpt>
      <trkpt lat="44.96486" lon="1.88189">
        <ele>354.4</ele>
        <time>2012-09-20T12:20:22Z</time>
      </trkpt>
      <trkpt lat="44.96486" lon="1.88188">
        <ele>353.9</ele>
        <time>2012-09-20T12:20:44Z</time>
      </trkpt>
      <trkpt lat="44.96486" lon="1.88188">
        <ele>354.4</ele>
        <time>2012-09-20T12:21:02Z</time>
      </trkpt>
      <trkpt lat="44.96486" lon="1.88188">
        <ele>353.4</ele>
        <time>2012-09-20T12:21:20Z</time>
      </trkpt>
      <trkpt lat="44.96486" lon="1.88188">
        <ele>354.4</ele>
        <time>2012-09-20T12:21:38Z</time>
      </trkpt>
      <trkpt lat="44.96486" lon="1.88188">
        <ele>354.4</ele>
        <time>2012-09-20T12:22:02Z</time>
      </trkpt>
      <trkpt lat="44.96486" lon="1.88188">
        <ele>354.4</ele>
        <time>2012-09-20T12:22:24Z</time>
      </trkpt>
      <trkpt lat="44.96486" lon="1.88188">
        <ele>354.4</ele>
        <time>2012-09-20T12:22:39Z</time>
      </trkpt>
      <trkpt lat="44.96486" lon="1.88188">
        <ele>353.9</ele>
        <time>2012-09-20T12:22:55Z</time>
      </trkpt>
      <trkpt lat="44.96486" lon="1.88188">
        <ele>354.4</ele>
        <time>2012-09-20T12:23:12Z</time>
      </trkpt>
      <trkpt lat="44.96486" lon="1.88188">
        <ele>353.9</ele>
        <time>2012-09-20T12:23:13Z</time>
      </trkpt>
      <trkpt lat="44.9649" lon="1.88191">
        <ele>353.4</ele>
        <time>2012-09-20T12:23:17Z</time>
      </trkpt>
      <trkpt lat="44.96493" lon="1.88194">
        <ele>352.5</ele>
        <time>2012-09-20T12:23:20Z</time>
      </trkpt>
      <trkpt lat="44.96495" lon="1.88195">
        <ele>351</ele>
        <time>2012-09-20T12:23:21Z</time>
      </trkpt>
      <trkpt lat="44.96496" lon="1.88195">
        <ele>352.5</ele>
        <time>2012-09-20T12:23:22Z</time>
      </trkpt>
      <trkpt lat="44.96498" lon="1.88195">
        <ele>350.5</ele>
        <time>2012-09-20T12:23:23Z</time>
      </trkpt>
      <trkpt lat="44.96499" lon="1.88196">
        <ele>347.2</ele>
        <time>2012-09-20T12:23:24Z</time>
      </trkpt>
      <trkpt lat="44.96501" lon="1.88196">
        <ele>353.4</ele>
        <time>2012-09-20T12:23:25Z</time>
      </trkpt>
      <trkpt lat="44.96502" lon="1.88196">
        <ele>352.9</ele>
        <time>2012-09-20T12:23:26Z</time>
      </trkpt>
      <trkpt lat="44.96504" lon="1.88197">
        <ele>349.1</ele>
        <time>2012-09-20T12:23:27Z</time>
      </trkpt>
      <trkpt lat="44.96508" lon="1.88198">
        <ele>354.9</ele>
        <time>2012-09-20T12:23:29Z</time>
      </trkpt>
      <trkpt lat="44.9651" lon="1.88198">
        <ele>351</ele>
        <time>2012-09-20T12:23:30Z</time>
      </trkpt>
      <trkpt lat="44.96532" lon="1.88203">
        <ele>348.6</ele>
        <time>2012-09-20T12:23:39Z</time>
      </trkpt>
      <trkpt lat="44.96558" lon="1.88212">
        <ele>346.2</ele>
        <time>2012-09-20T12:23:49Z</time>
      </trkpt>
      <trkpt lat="44.96594" lon="1.88236">
        <ele>344.8</ele>
        <time>2012-09-20T12:23:57Z</time>
      </trkpt>
      <trkpt lat="44.96623" lon="1.88252">
        <ele>342.9</ele>
        <time>2012-09-20T12:24:06Z</time>
      </trkpt>
      <trkpt lat="44.96646" lon="1.88262">
        <ele>342.4</ele>
        <time>2012-09-20T12:24:14Z</time>
      </trkpt>
      <trkpt lat="44.9666" lon="1.88269">
        <ele>341.9</ele>
        <time>2012-09-20T12:24:21Z</time>
      </trkpt>
      <trkpt lat="44.96661" lon="1.88271">
        <ele>341.4</ele>
        <time>2012-09-20T12:24:22Z</time>
      </trkpt>
      <trkpt lat="44.96672" lon="1.8829">
        <ele>340.4</ele>
        <time>2012-09-20T12:24:31Z</time>
      </trkpt>
      <trkpt lat="44.96673" lon="1.883">
        <ele>340.4</ele>
        <time>2012-09-20T12:24:36Z</time>
      </trkpt>
      <trkpt lat="44.96674" lon="1.88302">
        <ele>340.4</ele>
        <time>2012-09-20T12:24:37Z</time>
      </trkpt>
      <trkpt lat="44.96674" lon="1.88306">
        <ele>340.4</ele>
        <time>2012-09-20T12:24:38Z</time>
      </trkpt>
      <trkpt lat="44.96671" lon="1.88337">
        <ele>338.5</ele>
        <time>2012-09-20T12:24:47Z</time>
      </trkpt>
      <trkpt lat="44.96667" lon="1.88367">
        <ele>335.2</ele>
        <time>2012-09-20T12:24:55Z</time>
      </trkpt>
      <trkpt lat="44.96667" lon="1.88393">
        <ele>332.3</ele>
        <time>2012-09-20T12:25:03Z</time>
      </trkpt>
      <trkpt lat="44.96667" lon="1.88406">
        <ele>330.8</ele>
        <time>2012-09-20T12:25:06Z</time>
      </trkpt>
      <trkpt lat="44.96669" lon="1.88436">
        <ele>329.4</ele>
        <time>2012-09-20T12:25:14Z</time>
      </trkpt>
      <trkpt lat="44.96674" lon="1.88451">
        <ele>328.4</ele>
        <time>2012-09-20T12:25:22Z</time>
      </trkpt>
      <trkpt lat="44.96676" lon="1.88453">
        <ele>328.4</ele>
        <time>2012-09-20T12:25:31Z</time>
      </trkpt>
      <trkpt lat="44.96677" lon="1.88455">
        <ele>328.4</ele>
        <time>2012-09-20T12:25:32Z</time>
      </trkpt>
      <trkpt lat="44.96681" lon="1.88461">
        <ele>328</ele>
        <time>2012-09-20T12:25:36Z</time>
      </trkpt>
      <trkpt lat="44.96686" lon="1.88469">
        <ele>327.5</ele>
        <time>2012-09-20T12:25:45Z</time>
      </trkpt>
      <trkpt lat="44.96686" lon="1.88469">
        <ele>327.5</ele>
        <time>2012-09-20T12:25:48Z</time>
      </trkpt>
      <trkpt lat="44.96689" lon="1.88471">
        <ele>327.5</ele>
        <time>2012-09-20T12:25:50Z</time>
      </trkpt>
      <trkpt lat="44.96695" lon="1.88474">
        <ele>326.5</ele>
        <time>2012-09-20T12:25:55Z</time>
      </trkpt>
      <trkpt lat="44.967" lon="1.88475">
        <ele>325.5</ele>
        <time>2012-09-20T12:25:59Z</time>
      </trkpt>
      <trkpt lat="44.96717" lon="1.88481">
        <ele>323.1</ele>
        <time>2012-09-20T12:26:09Z</time>
      </trkpt>
      <trkpt lat="44.96734" lon="1.88478">
        <ele>321.2</ele>
        <time>2012-09-20T12:26:19Z</time>
      </trkpt>
      <trkpt lat="44.96746" lon="1.88475">
        <ele>319.8</ele>
        <time>2012-09-20T12:26:26Z</time>
      </trkpt>
      <trkpt lat="44.96759" lon="1.88475">
        <ele>312.6</ele>
        <time>2012-09-20T12:26:31Z</time>
      </trkpt>
      <trkpt lat="44.96762" lon="1.88475">
        <ele>316.4</ele>
        <time>2012-09-20T12:26:32Z</time>
      </trkpt>
      <trkpt lat="44.96769" lon="1.88474">
        <ele>312.1</ele>
        <time>2012-09-20T12:26:34Z</time>
      </trkpt>
      <trkpt lat="44.96771" lon="1.88473">
        <ele>317.9</ele>
        <time>2012-09-20T12:26:35Z</time>
      </trkpt>
      <trkpt lat="44.96775" lon="1.88473">
        <ele>319.3</ele>
        <time>2012-09-20T12:26:37Z</time>
      </trkpt>
      <trkpt lat="44.96779" lon="1.88472">
        <ele>315.5</ele>
        <time>2012-09-20T12:26:39Z</time>
      </trkpt>
      <trkpt lat="44.96784" lon="1.88471">
        <ele>312.1</ele>
        <time>2012-09-20T12:26:41Z</time>
      </trkpt>
      <trkpt lat="44.96787" lon="1.8847">
        <ele>303.9</ele>
        <time>2012-09-20T12:26:42Z</time>
      </trkpt>
      <trkpt lat="44.9679" lon="1.8847">
        <ele>315.9</ele>
        <time>2012-09-20T12:26:43Z</time>
      </trkpt>
      <trkpt lat="44.96793" lon="1.88468">
        <ele>313</ele>
        <time>2012-09-20T12:26:45Z</time>
      </trkpt>
      <trkpt lat="44.96812" lon="1.88454">
        <ele>309.7</ele>
        <time>2012-09-20T12:26:56Z</time>
      </trkpt>
      <trkpt lat="44.96817" lon="1.88453">
        <ele>309.2</ele>
        <time>2012-09-20T12:26:58Z</time>
      </trkpt>
      <trkpt lat="44.96825" lon="1.88453">
        <ele>307.3</ele>
        <time>2012-09-20T12:27:01Z</time>
      </trkpt>
      <trkpt lat="44.96846" lon="1.88459">
        <ele>303.9</ele>
        <time>2012-09-20T12:27:10Z</time>
      </trkpt>
      <trkpt lat="44.96854" lon="1.88458">
        <ele>303.4</ele>
        <time>2012-09-20T12:27:12Z</time>
      </trkpt>
      <trkpt lat="44.96877" lon="1.88457">
        <ele>300.1</ele>
        <time>2012-09-20T12:27:19Z</time>
      </trkpt>
      <trkpt lat="44.9688" lon="1.88456">
        <ele>300.1</ele>
        <time>2012-09-20T12:27:20Z</time>
      </trkpt>
      <trkpt lat="44.9689" lon="1.88453">
        <ele>298.6</ele>
        <time>2012-09-20T12:27:23Z</time>
      </trkpt>
      <trkpt lat="44.96898" lon="1.88451">
        <ele>297.2</ele>
        <time>2012-09-20T12:27:27Z</time>
      </trkpt>
      <trkpt lat="44.9691" lon="1.88447">
        <ele>294.8</ele>
        <time>2012-09-20T12:27:32Z</time>
      </trkpt>
      <trkpt lat="44.96935" lon="1.8845">
        <ele>291.9</ele>
        <time>2012-09-20T12:27:41Z</time>
      </trkpt>
      <trkpt lat="44.96959" lon="1.8846">
        <ele>289.5</ele>
        <time>2012-09-20T12:27:50Z</time>
      </trkpt>
      <trkpt lat="44.96965" lon="1.88461">
        <ele>288.5</ele>
        <time>2012-09-20T12:27:53Z</time>
      </trkpt>
      <trkpt lat="44.96992" lon="1.88448">
        <ele>285.2</ele>
        <time>2012-09-20T12:28:05Z</time>
      </trkpt>
      <trkpt lat="44.97009" lon="1.8844">
        <ele>283.2</ele>
        <time>2012-09-20T12:28:13Z</time>
      </trkpt>
      <trkpt lat="44.97025" lon="1.8843">
        <ele>282.8</ele>
        <time>2012-09-20T12:28:22Z</time>
      </trkpt>
      <trkpt lat="44.97043" lon="1.88415">
        <ele>280.8</ele>
        <time>2012-09-20T12:28:32Z</time>
      </trkpt>
      <trkpt lat="44.97045" lon="1.88416">
        <ele>280.8</ele>
        <time>2012-09-20T12:28:33Z</time>
      </trkpt>
      <trkpt lat="44.97078" lon="1.88418">
        <ele>278.9</ele>
        <time>2012-09-20T12:28:44Z</time>
      </trkpt>
      <trkpt lat="44.97102" lon="1.88427">
        <ele>277</ele>
        <time>2012-09-20T12:28:54Z</time>
      </trkpt>
      <trkpt lat="44.97122" lon="1.88435">
        <ele>274.1</ele>
        <time>2012-09-20T12:29:03Z</time>
      </trkpt>
      <trkpt lat="44.97126" lon="1.88437">
        <ele>273.1</ele>
        <time>2012-09-20T12:29:05Z</time>
      </trkpt>
      <trkpt lat="44.97138" lon="1.88443">
        <ele>270.8</ele>
        <time>2012-09-20T12:29:10Z</time>
      </trkpt>
      <trkpt lat="44.97152" lon="1.88447">
        <ele>267.4</ele>
        <time>2012-09-20T12:29:18Z</time>
      </trkpt>
      <trkpt lat="44.97164" lon="1.88444">
        <ele>265.9</ele>
        <time>2012-09-20T12:29:30Z</time>
      </trkpt>
      <trkpt lat="44.97172" lon="1.88446">
        <ele>265</ele>
        <time>2012-09-20T12:29:41Z</time>
      </trkpt>
      <trkpt lat="44.97187" lon="1.88459">
        <ele>265.5</ele>
        <time>2012-09-20T12:29:52Z</time>
      </trkpt>
      <trkpt lat="44.97182" lon="1.88457">
        <ele>265</ele>
        <time>2012-09-20T12:30:03Z</time>
      </trkpt>
      <trkpt lat="44.97179" lon="1.88461">
        <ele>264.5</ele>
        <time>2012-09-20T12:30:07Z</time>
      </trkpt>
      <trkpt lat="44.97158" lon="1.88492">
        <ele>263.1</ele>
        <time>2012-09-20T12:30:18Z</time>
      </trkpt>
      <trkpt lat="44.97139" lon="1.8851">
        <ele>263.5</ele>
        <time>2012-09-20T12:30:27Z</time>
      </trkpt>
      <trkpt lat="44.97139" lon="1.88513">
        <ele>257.3</ele>
        <time>2012-09-20T12:30:28Z</time>
      </trkpt>
      <trkpt lat="44.97137" lon="1.88515">
        <ele>265.9</ele>
        <time>2012-09-20T12:30:29Z</time>
      </trkpt>
      <trkpt lat="44.97136" lon="1.88517">
        <ele>269.3</ele>
        <time>2012-09-20T12:30:30Z</time>
      </trkpt>
      <trkpt lat="44.97135" lon="1.88519">
        <ele>265.5</ele>
        <time>2012-09-20T12:30:31Z</time>
      </trkpt>
      <trkpt lat="44.97133" lon="1.88523">
        <ele>264.5</ele>
        <time>2012-09-20T12:30:33Z</time>
      </trkpt>
      <trkpt lat="44.97128" lon="1.88529">
        <ele>264</ele>
        <time>2012-09-20T12:30:37Z</time>
      </trkpt>
      <trkpt lat="44.97117" lon="1.88537">
        <ele>265</ele>
        <time>2012-09-20T12:30:44Z</time>
      </trkpt>
      <trkpt lat="44.97115" lon="1.88542">
        <ele>265.5</ele>
        <time>2012-09-20T12:30:46Z</time>
      </trkpt>
      <trkpt lat="44.9711" lon="1.88551">
        <ele>265.5</ele>
        <time>2012-09-20T12:30:55Z</time>
      </trkpt>
      <trkpt lat="44.9711" lon="1.88551">
        <ele>265</ele>
        <time>2012-09-20T12:31:11Z</time>
      </trkpt>
      <trkpt lat="44.9711" lon="1.88552">
        <ele>265.5</ele>
        <time>2012-09-20T12:31:19Z</time>
      </trkpt>
      <trkpt lat="44.97108" lon="1.88555">
        <ele>265.9</ele>
        <time>2012-09-20T12:31:28Z</time>
      </trkpt>
      <trkpt lat="44.97104" lon="1.8856">
        <ele>265.5</ele>
        <time>2012-09-20T12:31:36Z</time>
      </trkpt>
      <trkpt lat="44.971" lon="1.88569">
        <ele>265.9</ele>
        <time>2012-09-20T12:31:45Z</time>
      </trkpt>
      <trkpt lat="44.971" lon="1.88572">
        <ele>266.4</ele>
        <time>2012-09-20T12:32:00Z</time>
      </trkpt>
      <trkpt lat="44.97097" lon="1.88578">
        <ele>265.9</ele>
        <time>2012-09-20T12:32:07Z</time>
      </trkpt>
      <trkpt lat="44.97096" lon="1.88583">
        <ele>265.5</ele>
        <time>2012-09-20T12:32:13Z</time>
      </trkpt>
      <trkpt lat="44.97096" lon="1.88583">
        <ele>265.5</ele>
        <time>2012-09-20T12:32:19Z</time>
      </trkpt>
      <trkpt lat="44.97093" lon="1.88585">
        <ele>265.5</ele>
        <time>2012-09-20T12:32:22Z</time>
      </trkpt>
      <trkpt lat="44.97088" lon="1.88593">
        <ele>265.5</ele>
        <time>2012-09-20T12:32:25Z</time>
      </trkpt>
      <trkpt lat="44.9708" lon="1.88601">
        <ele>265.5</ele>
        <time>2012-09-20T12:32:29Z</time>
      </trkpt>
      <trkpt lat="44.97075" lon="1.88605">
        <ele>264.5</ele>
        <time>2012-09-20T12:32:37Z</time>
      </trkpt>
      <trkpt lat="44.97064" lon="1.88626">
        <ele>263.5</ele>
        <time>2012-09-20T12:32:44Z</time>
      </trkpt>
      <trkpt lat="44.97058" lon="1.88639">
        <ele>263.5</ele>
        <time>2012-09-20T12:32:49Z</time>
      </trkpt>
      <trkpt lat="44.97052" lon="1.88646">
        <ele>262.6</ele>
        <time>2012-09-20T12:32:55Z</time>
      </trkpt>
      <trkpt lat="44.9705" lon="1.88652">
        <ele>262.1</ele>
        <time>2012-09-20T12:33:02Z</time>
      </trkpt>
      <trkpt lat="44.97049" lon="1.88656">
        <ele>261.1</ele>
        <time>2012-09-20T12:33:04Z</time>
      </trkpt>
      <trkpt lat="44.97038" lon="1.88669">
        <ele>260.6</ele>
        <time>2012-09-20T12:33:12Z</time>
      </trkpt>
      <trkpt lat="44.97033" lon="1.88674">
        <ele>259.2</ele>
        <time>2012-09-20T12:33:19Z</time>
      </trkpt>
      <trkpt lat="44.9703" lon="1.88682">
        <ele>258.2</ele>
        <time>2012-09-20T12:33:26Z</time>
      </trkpt>
      <trkpt lat="44.97029" lon="1.88684">
        <ele>258.7</ele>
        <time>2012-09-20T12:33:27Z</time>
      </trkpt>
      <trkpt lat="44.97025" lon="1.88692">
        <ele>258.7</ele>
        <time>2012-09-20T12:33:34Z</time>
      </trkpt>
      <trkpt lat="44.97023" lon="1.88696">
        <ele>258.7</ele>
        <time>2012-09-20T12:33:37Z</time>
      </trkpt>
      <trkpt lat="44.97017" lon="1.88705">
        <ele>258.7</ele>
        <time>2012-09-20T12:33:45Z</time>
      </trkpt>
      <trkpt lat="44.97011" lon="1.88707">
        <ele>258.7</ele>
        <time>2012-09-20T12:33:50Z</time>
      </trkpt>
      <trkpt lat="44.97007" lon="1.88713">
        <ele>257.8</ele>
        <time>2012-09-20T12:33:56Z</time>
      </trkpt>
      <trkpt lat="44.96997" lon="1.88725">
        <ele>257.3</ele>
        <time>2012-09-20T12:34:03Z</time>
      </trkpt>
      <trkpt lat="44.96994" lon="1.8873">
        <ele>252</ele>
        <time>2012-09-20T12:34:10Z</time>
      </trkpt>
      <trkpt lat="44.96992" lon="1.88732">
        <ele>260.6</ele>
        <time>2012-09-20T12:34:11Z</time>
      </trkpt>
      <trkpt lat="44.9699" lon="1.88734">
        <ele>256.8</ele>
        <time>2012-09-20T12:34:12Z</time>
      </trkpt>
      <trkpt lat="44.96982" lon="1.88749">
        <ele>256.3</ele>
        <time>2012-09-20T12:34:19Z</time>
      </trkpt>
      <trkpt lat="44.96979" lon="1.88752">
        <ele>255.9</ele>
        <time>2012-09-20T12:34:21Z</time>
      </trkpt>
      <trkpt lat="44.96972" lon="1.88756">
        <ele>255.4</ele>
        <time>2012-09-20T12:34:27Z</time>
      </trkpt>
      <trkpt lat="44.96969" lon="1.88763">
        <ele>254.4</ele>
        <time>2012-09-20T12:34:32Z</time>
      </trkpt>
      <trkpt lat="44.96966" lon="1.8877">
        <ele>253.9</ele>
        <time>2012-09-20T12:34:36Z</time>
      </trkpt>
      <trkpt lat="44.96964" lon="1.88774">
        <ele>253.4</ele>
        <time>2012-09-20T12:34:38Z</time>
      </trkpt>
      <trkpt lat="44.96957" lon="1.88779">
        <ele>252.5</ele>
        <time>2012-09-20T12:34:46Z</time>
      </trkpt>
      <trkpt lat="44.96952" lon="1.88785">
        <ele>251.5</ele>
        <time>2012-09-20T12:34:52Z</time>
      </trkpt>
      <trkpt lat="44.96946" lon="1.88793">
        <ele>251</ele>
        <time>2012-09-20T12:34:58Z</time>
      </trkpt>
      <trkpt lat="44.96943" lon="1.88796">
        <ele>251.5</ele>
        <time>2012-09-20T12:35:02Z</time>
      </trkpt>
      <trkpt lat="44.96939" lon="1.88798">
        <ele>250.6</ele>
        <time>2012-09-20T12:35:05Z</time>
      </trkpt>
      <trkpt lat="44.9693" lon="1.88804">
        <ele>250.6</ele>
        <time>2012-09-20T12:35:13Z</time>
      </trkpt>
      <trkpt lat="44.96922" lon="1.8881">
        <ele>249.6</ele>
        <time>2012-09-20T12:35:20Z</time>
      </trkpt>
      <trkpt lat="44.96916" lon="1.88812">
        <ele>249.6</ele>
        <time>2012-09-20T12:35:26Z</time>
      </trkpt>
      <trkpt lat="44.9691" lon="1.88815">
        <ele>248.6</ele>
        <time>2012-09-20T12:35:30Z</time>
      </trkpt>
      <trkpt lat="44.96903" lon="1.8882">
        <ele>249.1</ele>
        <time>2012-09-20T12:35:38Z</time>
      </trkpt>
      <trkpt lat="44.96896" lon="1.88826">
        <ele>249.6</ele>
        <time>2012-09-20T12:35:46Z</time>
      </trkpt>
      <trkpt lat="44.96891" lon="1.88828">
        <ele>249.6</ele>
        <time>2012-09-20T12:35:50Z</time>
      </trkpt>
      <trkpt lat="44.96878" lon="1.88832">
        <ele>249.6</ele>
        <time>2012-09-20T12:35:58Z</time>
      </trkpt>
      <trkpt lat="44.96869" lon="1.88839">
        <ele>248.6</ele>
        <time>2012-09-20T12:36:07Z</time>
      </trkpt>
      <trkpt lat="44.96861" lon="1.88846">
        <ele>247.2</ele>
        <time>2012-09-20T12:36:15Z</time>
      </trkpt>
      <trkpt lat="44.96853" lon="1.88849">
        <ele>246.7</ele>
        <time>2012-09-20T12:36:22Z</time>
      </trkpt>
      <trkpt lat="44.96853" lon="1.88848">
        <ele>246.7</ele>
        <time>2012-09-20T12:36:29Z</time>
      </trkpt>
      <trkpt lat="44.96851" lon="1.88849">
        <ele>246.7</ele>
        <time>2012-09-20T12:36:34Z</time>
      </trkpt>
      <trkpt lat="44.96848" lon="1.88851">
        <ele>245.8</ele>
        <time>2012-09-20T12:36:40Z</time>
      </trkpt>
      <trkpt lat="44.96842" lon="1.88855">
        <ele>246.2</ele>
        <time>2012-09-20T12:36:48Z</time>
      </trkpt>
      <trkpt lat="44.96841" lon="1.88856">
        <ele>245.3</ele>
        <time>2012-09-20T12:36:59Z</time>
      </trkpt>
      <trkpt lat="44.96841" lon="1.88856">
        <ele>245.8</ele>
        <time>2012-09-20T12:37:18Z</time>
      </trkpt>
      <trkpt lat="44.96841" lon="1.88856">
        <ele>245.8</ele>
        <time>2012-09-20T12:37:31Z</time>
      </trkpt>
      <trkpt lat="44.96841" lon="1.88856">
        <ele>245.8</ele>
        <time>2012-09-20T12:37:49Z</time>
      </trkpt>
      <trkpt lat="44.96841" lon="1.88856">
        <ele>245.3</ele>
        <time>2012-09-20T12:38:09Z</time>
      </trkpt>
      <trkpt lat="44.96839" lon="1.88862">
        <ele>245.3</ele>
        <time>2012-09-20T12:38:25Z</time>
      </trkpt>
      <trkpt lat="44.96834" lon="1.88867">
        <ele>244.8</ele>
        <time>2012-09-20T12:38:31Z</time>
      </trkpt>
      <trkpt lat="44.96831" lon="1.88871">
        <ele>245.3</ele>
        <time>2012-09-20T12:38:36Z</time>
      </trkpt>
      <trkpt lat="44.9683" lon="1.8887">
        <ele>241.4</ele>
        <time>2012-09-20T12:38:42Z</time>
      </trkpt>
      <trkpt lat="44.9683" lon="1.8887">
        <ele>248.2</ele>
        <time>2012-09-20T12:38:43Z</time>
      </trkpt>
      <trkpt lat="44.9683" lon="1.8887">
        <ele>245.3</ele>
        <time>2012-09-20T12:38:44Z</time>
      </trkpt>
      <trkpt lat="44.9683" lon="1.8887">
        <ele>245.3</ele>
        <time>2012-09-20T12:39:01Z</time>
      </trkpt>
      <trkpt lat="44.9683" lon="1.8887">
        <ele>245.3</ele>
        <time>2012-09-20T12:39:21Z</time>
      </trkpt>
      <trkpt lat="44.9683" lon="1.8887">
        <ele>244.8</ele>
        <time>2012-09-20T12:39:41Z</time>
      </trkpt>
      <trkpt lat="44.96829" lon="1.8887">
        <ele>244.8</ele>
        <time>2012-09-20T12:40:01Z</time>
      </trkpt>
      <trkpt lat="44.96829" lon="1.8887">
        <ele>245.3</ele>
        <time>2012-09-20T12:40:20Z</time>
      </trkpt>
      <trkpt lat="44.96829" lon="1.8887">
        <ele>245.3</ele>
        <time>2012-09-20T12:40:40Z</time>
      </trkpt>
      <trkpt lat="44.96829" lon="1.8887">
        <ele>245.3</ele>
        <time>2012-09-20T12:40:55Z</time>
      </trkpt>
      <trkpt lat="44.96829" lon="1.8887">
        <ele>244.8</ele>
        <time>2012-09-20T12:41:13Z</time>
      </trkpt>
      <trkpt lat="44.96828" lon="1.8887">
        <ele>245.3</ele>
        <time>2012-09-20T12:41:34Z</time>
      </trkpt>
      <trkpt lat="44.96828" lon="1.8887">
        <ele>245.3</ele>
        <time>2012-09-20T12:41:53Z</time>
      </trkpt>
      <trkpt lat="44.96828" lon="1.8887">
        <ele>245.3</ele>
        <time>2012-09-20T12:42:12Z</time>
      </trkpt>
      <trkpt lat="44.96828" lon="1.8887">
        <ele>245.3</ele>
        <time>2012-09-20T12:42:31Z</time>
      </trkpt>
      <trkpt lat="44.96828" lon="1.8887">
        <ele>245.3</ele>
        <time>2012-09-20T12:42:48Z</time>
      </trkpt>
      <trkpt lat="44.96828" lon="1.8887">
        <ele>245.3</ele>
        <time>2012-09-20T12:43:03Z</time>
      </trkpt>
      <trkpt lat="44.96828" lon="1.8887">
        <ele>244.8</ele>
        <time>2012-09-20T12:43:21Z</time>
      </trkpt>
      <trkpt lat="44.96828" lon="1.8887">
        <ele>244.3</ele>
        <time>2012-09-20T12:43:39Z</time>
      </trkpt>
      <trkpt lat="44.96828" lon="1.8887">
        <ele>244.8</ele>
        <time>2012-09-20T12:43:56Z</time>
      </trkpt>
      <trkpt lat="44.96827" lon="1.8887">
        <ele>244.8</ele>
        <time>2012-09-20T12:44:13Z</time>
      </trkpt>
      <trkpt lat="44.96827" lon="1.8887">
        <ele>244.8</ele>
        <time>2012-09-20T12:44:29Z</time>
      </trkpt>
      <trkpt lat="44.96827" lon="1.8887">
        <ele>244.8</ele>
        <time>2012-09-20T12:44:45Z</time>
      </trkpt>
      <trkpt lat="44.96827" lon="1.8887">
        <ele>244.8</ele>
        <time>2012-09-20T12:45:08Z</time>
      </trkpt>
      <trkpt lat="44.96827" lon="1.8887">
        <ele>244.8</ele>
        <time>2012-09-20T12:45:24Z</time>
      </trkpt>
      <trkpt lat="44.96827" lon="1.8887">
        <ele>244.3</ele>
        <time>2012-09-20T12:45:43Z</time>
      </trkpt>
      <trkpt lat="44.96827" lon="1.8887">
        <ele>244.8</ele>
        <time>2012-09-20T12:46:02Z</time>
      </trkpt>
      <trkpt lat="44.96827" lon="1.8887">
        <ele>244.8</ele>
        <time>2012-09-20T12:46:22Z</time>
      </trkpt>
      <trkpt lat="44.96826" lon="1.8887">
        <ele>244.3</ele>
        <time>2012-09-20T12:46:40Z</time>
      </trkpt>
      <trkpt lat="44.96826" lon="1.8887">
        <ele>244.3</ele>
        <time>2012-09-20T12:46:59Z</time>
      </trkpt>
      <trkpt lat="44.96826" lon="1.88871">
        <ele>244.3</ele>
        <time>2012-09-20T12:47:17Z</time>
      </trkpt>
      <trkpt lat="44.96824" lon="1.88875">
        <ele>244.3</ele>
        <time>2012-09-20T12:47:26Z</time>
      </trkpt>
      <trkpt lat="44.96824" lon="1.88876">
        <ele>244.3</ele>
        <time>2012-09-20T12:47:27Z</time>
      </trkpt>
      <trkpt lat="44.96809" lon="1.8889">
        <ele>243.4</ele>
        <time>2012-09-20T12:47:37Z</time>
      </trkpt>
      <trkpt lat="44.9679" lon="1.88903">
        <ele>241.9</ele>
        <time>2012-09-20T12:47:46Z</time>
      </trkpt>
      <trkpt lat="44.96774" lon="1.88919">
        <ele>240</ele>
        <time>2012-09-20T12:47:55Z</time>
      </trkpt>
      <trkpt lat="44.96763" lon="1.88932">
        <ele>239.5</ele>
        <time>2012-09-20T12:48:02Z</time>
      </trkpt>
      <trkpt lat="44.96758" lon="1.88938">
        <ele>238.1</ele>
        <time>2012-09-20T12:48:05Z</time>
      </trkpt>
      <trkpt lat="44.96744" lon="1.88948">
        <ele>235.7</ele>
        <time>2012-09-20T12:48:13Z</time>
      </trkpt>
      <trkpt lat="44.9673" lon="1.88953">
        <ele>232.8</ele>
        <time>2012-09-20T12:48:19Z</time>
      </trkpt>
      <trkpt lat="44.96713" lon="1.88949">
        <ele>229.4</ele>
        <time>2012-09-20T12:48:26Z</time>
      </trkpt>
      <trkpt lat="44.96711" lon="1.88948">
        <ele>228.9</ele>
        <time>2012-09-20T12:48:27Z</time>
      </trkpt>
      <trkpt lat="44.96697" lon="1.88949">
        <ele>226.5</ele>
        <time>2012-09-20T12:48:32Z</time>
      </trkpt>
      <trkpt lat="44.96679" lon="1.88959">
        <ele>223.6</ele>
        <time>2012-09-20T12:48:39Z</time>
      </trkpt>
      <trkpt lat="44.96649" lon="1.88979">
        <ele>220.3</ele>
        <time>2012-09-20T12:48:50Z</time>
      </trkpt>
      <trkpt lat="44.96634" lon="1.88993">
        <ele>217.4</ele>
        <time>2012-09-20T12:48:58Z</time>
      </trkpt>
      <trkpt lat="44.96631" lon="1.89013">
        <ele>216.4</ele>
        <time>2012-09-20T12:49:05Z</time>
      </trkpt>
      <trkpt lat="44.96632" lon="1.89053">
        <ele>215.9</ele>
        <time>2012-09-20T12:49:17Z</time>
      </trkpt>
      <trkpt lat="44.96631" lon="1.89091">
        <ele>212.6</ele>
        <time>2012-09-20T12:49:27Z</time>
      </trkpt>
      <trkpt lat="44.9663" lon="1.89096">
        <ele>212.6</ele>
        <time>2012-09-20T12:49:28Z</time>
      </trkpt>
      <trkpt lat="44.96629" lon="1.89108">
        <ele>211.1</ele>
        <time>2012-09-20T12:49:31Z</time>
      </trkpt>
      <trkpt lat="44.96622" lon="1.89137">
        <ele>211.1</ele>
        <time>2012-09-20T12:49:39Z</time>
      </trkpt>
      <trkpt lat="44.96615" lon="1.8917">
        <ele>210.7</ele>
        <time>2012-09-20T12:49:47Z</time>
      </trkpt>
      <trkpt lat="44.96617" lon="1.89205">
        <ele>210.2</ele>
        <time>2012-09-20T12:49:56Z</time>
      </trkpt>
      <trkpt lat="44.9662" lon="1.89237">
        <ele>208.3</ele>
        <time>2012-09-20T12:50:05Z</time>
      </trkpt>
      <trkpt lat="44.96621" lon="1.89252">
        <ele>206.8</ele>
        <time>2012-09-20T12:50:10Z</time>
      </trkpt>
      <trkpt lat="44.96618" lon="1.89278">
        <ele>204.9</ele>
        <time>2012-09-20T12:50:17Z</time>
      </trkpt>
      <trkpt lat="44.96615" lon="1.89292">
        <ele>203</ele>
        <time>2012-09-20T12:50:20Z</time>
      </trkpt>
      <trkpt lat="44.96611" lon="1.89309">
        <ele>200.1</ele>
        <time>2012-09-20T12:50:24Z</time>
      </trkpt>
      <trkpt lat="44.96607" lon="1.89337">
        <ele>196.7</ele>
        <time>2012-09-20T12:50:31Z</time>
      </trkpt>
      <trkpt lat="44.96606" lon="1.89341">
        <ele>196.7</ele>
        <time>2012-09-20T12:50:32Z</time>
      </trkpt>
      <trkpt lat="44.96603" lon="1.89359">
        <ele>192.9</ele>
        <time>2012-09-20T12:50:37Z</time>
      </trkpt>
      <trkpt lat="44.96603" lon="1.89363">
        <ele>192.9</ele>
        <time>2012-09-20T12:50:38Z</time>
      </trkpt>
      <trkpt lat="44.96602" lon="1.8938">
        <ele>191.4</ele>
        <time>2012-09-20T12:50:43Z</time>
      </trkpt>
      <trkpt lat="44.96602" lon="1.89408">
        <ele>188.6</ele>
        <time>2012-09-20T12:50:50Z</time>
      </trkpt>
      <trkpt lat="44.96601" lon="1.89422">
        <ele>186.6</ele>
        <time>2012-09-20T12:50:54Z</time>
      </trkpt>
      <trkpt lat="44.96601" lon="1.89441">
        <ele>184.2</ele>
        <time>2012-09-20T12:51:01Z</time>
      </trkpt>
      <trkpt lat="44.96602" lon="1.89457">
        <ele>181.4</ele>
        <time>2012-09-20T12:51:10Z</time>
      </trkpt>
      <trkpt lat="44.96602" lon="1.89458">
        <ele>181.4</ele>
        <time>2012-09-20T12:51:15Z</time>
      </trkpt>
      <trkpt lat="44.96611" lon="1.89477">
        <ele>181.8</ele>
        <time>2012-09-20T12:51:22Z</time>
      </trkpt>
      <trkpt lat="44.96618" lon="1.89482">
        <ele>182.8</ele>
        <time>2012-09-20T12:51:24Z</time>
      </trkpt>
      <trkpt lat="44.96623" lon="1.89484">
        <ele>183.8</ele>
        <time>2012-09-20T12:51:25Z</time>
      </trkpt>
      <trkpt lat="44.9666" lon="1.89504">
        <ele>186.1</ele>
        <time>2012-09-20T12:51:31Z</time>
      </trkpt>
      <trkpt lat="44.96678" lon="1.89514">
        <ele>186.1</ele>
        <time>2012-09-20T12:51:33Z</time>
      </trkpt>
      <trkpt lat="44.96696" lon="1.89528">
        <ele>186.6</ele>
        <time>2012-09-20T12:51:35Z</time>
      </trkpt>
      <trkpt lat="44.96704" lon="1.89536">
        <ele>186.6</ele>
        <time>2012-09-20T12:51:36Z</time>
      </trkpt>
      <trkpt lat="44.96755" lon="1.896">
        <ele>188.1</ele>
        <time>2012-09-20T12:51:43Z</time>
      </trkpt>
      <trkpt lat="44.9679" lon="1.89678">
        <ele>188.6</ele>
        <time>2012-09-20T12:51:50Z</time>
      </trkpt>
      <trkpt lat="44.96808" lon="1.89763">
        <ele>189.5</ele>
        <time>2012-09-20T12:51:56Z</time>
      </trkpt>
      <trkpt lat="44.96818" lon="1.89793">
        <ele>190</ele>
        <time>2012-09-20T12:51:59Z</time>
      </trkpt>
      <trkpt lat="44.96823" lon="1.89804">
        <ele>189</ele>
        <time>2012-09-20T12:52:00Z</time>
      </trkpt>
      <trkpt lat="44.96829" lon="1.89813">
        <ele>189.5</ele>
        <time>2012-09-20T12:52:01Z</time>
      </trkpt>
      <trkpt lat="44.96837" lon="1.89821">
        <ele>189.5</ele>
        <time>2012-09-20T12:52:02Z</time>
      </trkpt>
      <trkpt lat="44.96846" lon="1.89828">
        <ele>190</ele>
        <time>2012-09-20T12:52:03Z</time>
      </trkpt>
      <trkpt lat="44.96855" lon="1.89832">
        <ele>190</ele>
        <time>2012-09-20T12:52:04Z</time>
      </trkpt>
      <trkpt lat="44.96864" lon="1.89833">
        <ele>190</ele>
        <time>2012-09-20T12:52:05Z</time>
      </trkpt>
      <trkpt lat="44.96874" lon="1.89832">
        <ele>190</ele>
        <time>2012-09-20T12:52:06Z</time>
      </trkpt>
      <trkpt lat="44.96883" lon="1.89829">
        <ele>190.5</ele>
        <time>2012-09-20T12:52:07Z</time>
      </trkpt>
      <trkpt lat="44.96893" lon="1.89826">
        <ele>190.5</ele>
        <time>2012-09-20T12:52:08Z</time>
      </trkpt>
      <trkpt lat="44.96902" lon="1.89821">
        <ele>190.5</ele>
        <time>2012-09-20T12:52:09Z</time>
      </trkpt>
      <trkpt lat="44.96911" lon="1.89816">
        <ele>190.5</ele>
        <time>2012-09-20T12:52:10Z</time>
      </trkpt>
      <trkpt lat="44.96966" lon="1.89782">
        <ele>191.4</ele>
        <time>2012-09-20T12:52:16Z</time>
      </trkpt>
      <trkpt lat="44.96975" lon="1.8978">
        <ele>191.9</ele>
        <time>2012-09-20T12:52:17Z</time>
      </trkpt>
      <trkpt lat="44.96984" lon="1.8978">
        <ele>192.4</ele>
        <time>2012-09-20T12:52:18Z</time>
      </trkpt>
      <trkpt lat="44.96993" lon="1.8978">
        <ele>192.9</ele>
        <time>2012-09-20T12:52:19Z</time>
      </trkpt>
      <trkpt lat="44.97002" lon="1.89782">
        <ele>193.4</ele>
        <time>2012-09-20T12:52:20Z</time>
      </trkpt>
      <trkpt lat="44.97038" lon="1.8979">
        <ele>193.4</ele>
        <time>2012-09-20T12:52:23Z</time>
      </trkpt>
      <trkpt lat="44.97114" lon="1.8982">
        <ele>195.3</ele>
        <time>2012-09-20T12:52:30Z</time>
      </trkpt>
      <trkpt lat="44.97189" lon="1.89831">
        <ele>193.8</ele>
        <time>2012-09-20T12:52:37Z</time>
      </trkpt>
      <trkpt lat="44.972" lon="1.89836">
        <ele>193.8</ele>
        <time>2012-09-20T12:52:38Z</time>
      </trkpt>
      <trkpt lat="44.97211" lon="1.89841">
        <ele>194.3</ele>
        <time>2012-09-20T12:52:39Z</time>
      </trkpt>
      <trkpt lat="44.97242" lon="1.8986">
        <ele>197.7</ele>
        <time>2012-09-20T12:52:42Z</time>
      </trkpt>
      <trkpt lat="44.97265" lon="1.89872">
        <ele>195.3</ele>
        <time>2012-09-20T12:52:44Z</time>
      </trkpt>
      <trkpt lat="44.97277" lon="1.89879">
        <ele>189.5</ele>
        <time>2012-09-20T12:52:45Z</time>
      </trkpt>
      <trkpt lat="44.9729" lon="1.89885">
        <ele>196.2</ele>
        <time>2012-09-20T12:52:46Z</time>
      </trkpt>
      <trkpt lat="44.97332" lon="1.89915">
        <ele>194.8</ele>
        <time>2012-09-20T12:52:50Z</time>
      </trkpt>
      <trkpt lat="44.97335" lon="1.89927">
        <ele>195.3</ele>
        <time>2012-09-20T12:52:51Z</time>
      </trkpt>
      <trkpt lat="44.97331" lon="1.89942">
        <ele>195.3</ele>
        <time>2012-09-20T12:52:52Z</time>
      </trkpt>
      <trkpt lat="44.97328" lon="1.89956">
        <ele>195.8</ele>
        <time>2012-09-20T12:52:53Z</time>
      </trkpt>
      <trkpt lat="44.97324" lon="1.8997">
        <ele>195.8</ele>
        <time>2012-09-20T12:52:54Z</time>
      </trkpt>
      <trkpt lat="44.97316" lon="1.89984">
        <ele>195.3</ele>
        <time>2012-09-20T12:52:55Z</time>
      </trkpt>
      <trkpt lat="44.97308" lon="1.89996">
        <ele>195.8</ele>
        <time>2012-09-20T12:52:56Z</time>
      </trkpt>
      <trkpt lat="44.97307" lon="1.90009">
        <ele>194.3</ele>
        <time>2012-09-20T12:52:57Z</time>
      </trkpt>
      <trkpt lat="44.97307" lon="1.90036">
        <ele>197.7</ele>
        <time>2012-09-20T12:52:59Z</time>
      </trkpt>
      <trkpt lat="44.9731" lon="1.90071">
        <ele>195.8</ele>
        <time>2012-09-20T12:53:02Z</time>
      </trkpt>
      <trkpt lat="44.97312" lon="1.90082">
        <ele>199.1</ele>
        <time>2012-09-20T12:53:03Z</time>
      </trkpt>
      <trkpt lat="44.97316" lon="1.90103">
        <ele>196.2</ele>
        <time>2012-09-20T12:53:05Z</time>
      </trkpt>
      <trkpt lat="44.97335" lon="1.90168">
        <ele>196.7</ele>
        <time>2012-09-20T12:53:11Z</time>
      </trkpt>
      <trkpt lat="44.97344" lon="1.90177">
        <ele>197.2</ele>
        <time>2012-09-20T12:53:12Z</time>
      </trkpt>
      <trkpt lat="44.97353" lon="1.90185">
        <ele>197.2</ele>
        <time>2012-09-20T12:53:13Z</time>
      </trkpt>
      <trkpt lat="44.97363" lon="1.90192">
        <ele>197.2</ele>
        <time>2012-09-20T12:53:14Z</time>
      </trkpt>
      <trkpt lat="44.97372" lon="1.90197">
        <ele>196.7</ele>
        <time>2012-09-20T12:53:15Z</time>
      </trkpt>
      <trkpt lat="44.9738" lon="1.90201">
        <ele>197.7</ele>
        <time>2012-09-20T12:53:16Z</time>
      </trkpt>
      <trkpt lat="44.97402" lon="1.90207">
        <ele>198.6</ele>
        <time>2012-09-20T12:53:19Z</time>
      </trkpt>
      <trkpt lat="44.97469" lon="1.90214">
        <ele>201.1</ele>
        <time>2012-09-20T12:53:26Z</time>
      </trkpt>
      <trkpt lat="44.97515" lon="1.90246">
        <ele>202</ele>
        <time>2012-09-20T12:53:31Z</time>
      </trkpt>
      <trkpt lat="44.97523" lon="1.90254">
        <ele>202</ele>
        <time>2012-09-20T12:53:32Z</time>
      </trkpt>
      <trkpt lat="44.97562" lon="1.90322">
        <ele>203.5</ele>
        <time>2012-09-20T12:53:38Z</time>
      </trkpt>
      <trkpt lat="44.97582" lon="1.90424">
        <ele>204.4</ele>
        <time>2012-09-20T12:53:46Z</time>
      </trkpt>
      <trkpt lat="44.97607" lon="1.90563">
        <ele>204.9</ele>
        <time>2012-09-20T12:53:56Z</time>
      </trkpt>
      <trkpt lat="44.97622" lon="1.90596">
        <ele>204.9</ele>
        <time>2012-09-20T12:53:59Z</time>
      </trkpt>
      <trkpt lat="44.9763" lon="1.90606">
        <ele>205.9</ele>
        <time>2012-09-20T12:54:00Z</time>
      </trkpt>
      <trkpt lat="44.97638" lon="1.90615">
        <ele>205.4</ele>
        <time>2012-09-20T12:54:01Z</time>
      </trkpt>
      <trkpt lat="44.97691" lon="1.90652">
        <ele>206.8</ele>
        <time>2012-09-20T12:54:07Z</time>
      </trkpt>
      <trkpt lat="44.97701" lon="1.90654">
        <ele>207.3</ele>
        <time>2012-09-20T12:54:08Z</time>
      </trkpt>
      <trkpt lat="44.97744" lon="1.9067">
        <ele>208.3</ele>
        <time>2012-09-20T12:54:13Z</time>
      </trkpt>
      <trkpt lat="44.97751" lon="1.90676">
        <ele>208.3</ele>
        <time>2012-09-20T12:54:14Z</time>
      </trkpt>
      <trkpt lat="44.97758" lon="1.90683">
        <ele>207.8</ele>
        <time>2012-09-20T12:54:15Z</time>
      </trkpt>
      <trkpt lat="44.97808" lon="1.90742">
        <ele>208.7</ele>
        <time>2012-09-20T12:54:23Z</time>
      </trkpt>
      <trkpt lat="44.97849" lon="1.9076">
        <ele>207.3</ele>
        <time>2012-09-20T12:54:29Z</time>
      </trkpt>
      <trkpt lat="44.97868" lon="1.90763">
        <ele>207.3</ele>
        <time>2012-09-20T12:54:36Z</time>
      </trkpt>
      <trkpt lat="44.97879" lon="1.90748">
        <ele>207.3</ele>
        <time>2012-09-20T12:54:44Z</time>
      </trkpt>
      <trkpt lat="44.97879" lon="1.90745">
        <ele>210.2</ele>
        <time>2012-09-20T12:54:49Z</time>
      </trkpt>
      <trkpt lat="44.97879" lon="1.90745">
        <ele>200.6</ele>
        <time>2012-09-20T12:54:50Z</time>
      </trkpt>
      <trkpt lat="44.97879" lon="1.90745">
        <ele>206.3</ele>
        <time>2012-09-20T12:54:51Z</time>
      </trkpt>
      <trkpt lat="44.97879" lon="1.90745">
        <ele>208.3</ele>
        <time>2012-09-20T12:54:54Z</time>
      </trkpt>
      <trkpt lat="44.97879" lon="1.90744">
        <ele>203.9</ele>
        <time>2012-09-20T12:54:57Z</time>
      </trkpt>
      <trkpt lat="44.97879" lon="1.90744">
        <ele>208.3</ele>
        <time>2012-09-20T12:54:58Z</time>
      </trkpt>
      <trkpt lat="44.97879" lon="1.90744">
        <ele>207.3</ele>
        <time>2012-09-20T12:55:12Z</time>
      </trkpt>
      <trkpt lat="44.97879" lon="1.90744">
        <ele>206.8</ele>
        <time>2012-09-20T12:55:28Z</time>
      </trkpt>
      <trkpt lat="44.97879" lon="1.90744">
        <ele>206.8</ele>
        <time>2012-09-20T12:55:45Z</time>
      </trkpt>
      <trkpt lat="44.97879" lon="1.90744">
        <ele>206.8</ele>
        <time>2012-09-20T12:56:00Z</time>
      </trkpt>
      <trkpt lat="44.97879" lon="1.90744">
        <ele>207.3</ele>
        <time>2012-09-20T12:56:16Z</time>
      </trkpt>
      <trkpt lat="44.97879" lon="1.90744">
        <ele>206.3</ele>
        <time>2012-09-20T12:56:31Z</time>
      </trkpt>
      <trkpt lat="44.97879" lon="1.90744">
        <ele>206.3</ele>
        <time>2012-09-20T12:56:48Z</time>
      </trkpt>
      <trkpt lat="44.97878" lon="1.90743">
        <ele>206.3</ele>
        <time>2012-09-20T12:57:08Z</time>
      </trkpt>
      <trkpt lat="44.97878" lon="1.90743">
        <ele>211.1</ele>
        <time>2012-09-20T12:57:13Z</time>
      </trkpt>
      <trkpt lat="44.97878" lon="1.90743">
        <ele>206.8</ele>
        <time>2012-09-20T12:57:14Z</time>
      </trkpt>
      <trkpt lat="44.97878" lon="1.90743">
        <ele>205.9</ele>
        <time>2012-09-20T12:57:25Z</time>
      </trkpt>
      <trkpt lat="44.97874" lon="1.90745">
        <ele>205.9</ele>
        <time>2012-09-20T12:57:29Z</time>
      </trkpt>
      <trkpt lat="44.97869" lon="1.90748">
        <ele>212.6</ele>
        <time>2012-09-20T12:57:34Z</time>
      </trkpt>
      <trkpt lat="44.97869" lon="1.90748">
        <ele>209.7</ele>
        <time>2012-09-20T12:57:35Z</time>
      </trkpt>
      <trkpt lat="44.97869" lon="1.90748">
        <ele>206.3</ele>
        <time>2012-09-20T12:57:36Z</time>
      </trkpt>
      <trkpt lat="44.97868" lon="1.90749">
        <ele>200.6</ele>
        <time>2012-09-20T12:57:38Z</time>
      </trkpt>
      <trkpt lat="44.97867" lon="1.9075">
        <ele>206.8</ele>
        <time>2012-09-20T12:57:39Z</time>
      </trkpt>
      <trkpt lat="44.97864" lon="1.90752">
        <ele>203.9</ele>
        <time>2012-09-20T12:57:42Z</time>
      </trkpt>
      <trkpt lat="44.97863" lon="1.90752">
        <ele>196.7</ele>
        <time>2012-09-20T12:57:43Z</time>
      </trkpt>
      <trkpt lat="44.97863" lon="1.90753">
        <ele>205.4</ele>
        <time>2012-09-20T12:57:44Z</time>
      </trkpt>
      <trkpt lat="44.97863" lon="1.90755">
        <ele>204.9</ele>
        <time>2012-09-20T12:57:45Z</time>
      </trkpt>
      <trkpt lat="44.97864" lon="1.90757">
        <ele>204.4</ele>
        <time>2012-09-20T12:57:46Z</time>
      </trkpt>
      <trkpt lat="44.97865" lon="1.90758">
        <ele>204.9</ele>
        <time>2012-09-20T12:57:47Z</time>
      </trkpt>
      <trkpt lat="44.97867" lon="1.9076">
        <ele>204.4</ele>
        <time>2012-09-20T12:57:48Z</time>
      </trkpt>
      <trkpt lat="44.97868" lon="1.90761">
        <ele>203.9</ele>
        <time>2012-09-20T12:57:49Z</time>
      </trkpt>
      <trkpt lat="44.9787" lon="1.90763">
        <ele>204.4</ele>
        <time>2012-09-20T12:57:50Z</time>
      </trkpt>
      <trkpt lat="44.97871" lon="1.90764">
        <ele>203.9</ele>
        <time>2012-09-20T12:57:51Z</time>
      </trkpt>
      <trkpt lat="44.97873" lon="1.90765">
        <ele>203.5</ele>
        <time>2012-09-20T12:57:52Z</time>
      </trkpt>
      <trkpt lat="44.97878" lon="1.90772">
        <ele>203</ele>
        <time>2012-09-20T12:57:58Z</time>
      </trkpt>
      <trkpt lat="44.97885" lon="1.90782">
        <ele>203.5</ele>
        <time>2012-09-20T12:58:04Z</time>
      </trkpt>
      <trkpt lat="44.97889" lon="1.90792">
        <ele>203.9</ele>
        <time>2012-09-20T12:58:09Z</time>
      </trkpt>
      <trkpt lat="44.97887" lon="1.90801">
        <ele>205.9</ele>
        <time>2012-09-20T12:58:15Z</time>
      </trkpt>
      <trkpt lat="44.97884" lon="1.90811">
        <ele>206.3</ele>
        <time>2012-09-20T12:58:23Z</time>
      </trkpt>
      <trkpt lat="44.97881" lon="1.90818">
        <ele>207.3</ele>
        <time>2012-09-20T12:58:31Z</time>
      </trkpt>
      <trkpt lat="44.97879" lon="1.90825">
        <ele>207.8</ele>
        <time>2012-09-20T12:58:35Z</time>
      </trkpt>
      <trkpt lat="44.97878" lon="1.90829">
        <ele>207.8</ele>
        <time>2012-09-20T12:58:36Z</time>
      </trkpt>
      <trkpt lat="44.97877" lon="1.90832">
        <ele>207.8</ele>
        <time>2012-09-20T12:58:37Z</time>
      </trkpt>
      <trkpt lat="44.97877" lon="1.90835">
        <ele>207.8</ele>
        <time>2012-09-20T12:58:38Z</time>
      </trkpt>
      <trkpt lat="44.97876" lon="1.90837">
        <ele>208.3</ele>
        <time>2012-09-20T12:58:39Z</time>
      </trkpt>
      <trkpt lat="44.97875" lon="1.9084">
        <ele>208.3</ele>
        <time>2012-09-20T12:58:40Z</time>
      </trkpt>
      <trkpt lat="44.97875" lon="1.90842">
        <ele>208.3</ele>
        <time>2012-09-20T12:58:41Z</time>
      </trkpt>
      <trkpt lat="44.97871" lon="1.90848">
        <ele>209.2</ele>
        <time>2012-09-20T12:58:47Z</time>
      </trkpt>
      <trkpt lat="44.97867" lon="1.90854">
        <ele>210.2</ele>
        <time>2012-09-20T12:58:54Z</time>
      </trkpt>
      <trkpt lat="44.97864" lon="1.90863">
        <ele>210.2</ele>
        <time>2012-09-20T12:59:02Z</time>
      </trkpt>
      <trkpt lat="44.9786" lon="1.90863">
        <ele>209.2</ele>
        <time>2012-09-20T12:59:07Z</time>
      </trkpt>
      <trkpt lat="44.97858" lon="1.90863">
        <ele>209.7</ele>
        <time>2012-09-20T12:59:18Z</time>
      </trkpt>
      <trkpt lat="44.97858" lon="1.90864">
        <ele>210.7</ele>
        <time>2012-09-20T12:59:26Z</time>
      </trkpt>
      <trkpt lat="44.97857" lon="1.9087">
        <ele>210.7</ele>
        <time>2012-09-20T12:59:30Z</time>
      </trkpt>
      <trkpt lat="44.97853" lon="1.90882">
        <ele>212.1</ele>
        <time>2012-09-20T12:59:38Z</time>
      </trkpt>
      <trkpt lat="44.97846" lon="1.90891">
        <ele>212.6</ele>
        <time>2012-09-20T12:59:45Z</time>
      </trkpt>
      <trkpt lat="44.97839" lon="1.90901">
        <ele>213.6</ele>
        <time>2012-09-20T12:59:54Z</time>
      </trkpt>
      <trkpt lat="44.97839" lon="1.90901">
        <ele>214.5</ele>
        <time>2012-09-20T12:59:56Z</time>
      </trkpt>
      <trkpt lat="44.97832" lon="1.90918">
        <ele>215.5</ele>
        <time>2012-09-20T13:00:05Z</time>
      </trkpt>
      <trkpt lat="44.97825" lon="1.90934">
        <ele>215.5</ele>
        <time>2012-09-20T13:00:12Z</time>
      </trkpt>
      <trkpt lat="44.97822" lon="1.90942">
        <ele>215.9</ele>
        <time>2012-09-20T13:00:18Z</time>
      </trkpt>
      <trkpt lat="44.97824" lon="1.90949">
        <ele>216.4</ele>
        <time>2012-09-20T13:00:24Z</time>
      </trkpt>
      <trkpt lat="44.97825" lon="1.90961">
        <ele>217.4</ele>
        <time>2012-09-20T13:00:32Z</time>
      </trkpt>
      <trkpt lat="44.97825" lon="1.90963">
        <ele>217.4</ele>
        <time>2012-09-20T13:00:33Z</time>
      </trkpt>
      <trkpt lat="44.97823" lon="1.90978">
        <ele>217.9</ele>
        <time>2012-09-20T13:00:39Z</time>
      </trkpt>
      <trkpt lat="44.97823" lon="1.90992">
        <ele>218.8</ele>
        <time>2012-09-20T13:00:46Z</time>
      </trkpt>
      <trkpt lat="44.97825" lon="1.91002">
        <ele>220.3</ele>
        <time>2012-09-20T13:00:55Z</time>
      </trkpt>
      <trkpt lat="44.97825" lon="1.91011">
        <ele>220.8</ele>
        <time>2012-09-20T13:01:00Z</time>
      </trkpt>
      <trkpt lat="44.97827" lon="1.91025">
        <ele>221.2</ele>
        <time>2012-09-20T13:01:07Z</time>
      </trkpt>
      <trkpt lat="44.97831" lon="1.91034">
        <ele>221.7</ele>
        <time>2012-09-20T13:01:16Z</time>
      </trkpt>
      <trkpt lat="44.97836" lon="1.91046">
        <ele>222.2</ele>
        <time>2012-09-20T13:01:22Z</time>
      </trkpt>
      <trkpt lat="44.97841" lon="1.91053">
        <ele>222.2</ele>
        <time>2012-09-20T13:01:25Z</time>
      </trkpt>
      <trkpt lat="44.97846" lon="1.91063">
        <ele>222.2</ele>
        <time>2012-09-20T13:01:29Z</time>
      </trkpt>
      <trkpt lat="44.9785" lon="1.91077">
        <ele>222.2</ele>
        <time>2012-09-20T13:01:37Z</time>
      </trkpt>
      <trkpt lat="44.97851" lon="1.91085">
        <ele>222.7</ele>
        <time>2012-09-20T13:01:45Z</time>
      </trkpt>
      <trkpt lat="44.97848" lon="1.91087">
        <ele>222.2</ele>
        <time>2012-09-20T13:01:51Z</time>
      </trkpt>
      <trkpt lat="44.97847" lon="1.91088">
        <ele>222.2</ele>
        <time>2012-09-20T13:01:57Z</time>
      </trkpt>
      <trkpt lat="44.97847" lon="1.91088">
        <ele>221.2</ele>
        <time>2012-09-20T13:01:58Z</time>
      </trkpt>
      <trkpt lat="44.97851" lon="1.911">
        <ele>221.2</ele>
        <time>2012-09-20T13:02:05Z</time>
      </trkpt>
      <trkpt lat="44.97848" lon="1.91106">
        <ele>221.2</ele>
        <time>2012-09-20T13:02:10Z</time>
      </trkpt>
      <trkpt lat="44.97848" lon="1.91124">
        <ele>220.8</ele>
        <time>2012-09-20T13:02:17Z</time>
      </trkpt>
      <trkpt lat="44.97845" lon="1.9115">
        <ele>220.8</ele>
        <time>2012-09-20T13:02:23Z</time>
      </trkpt>
      <trkpt lat="44.97839" lon="1.91161">
        <ele>221.2</ele>
        <time>2012-09-20T13:02:29Z</time>
      </trkpt>
      <trkpt lat="44.97839" lon="1.91168">
        <ele>221.7</ele>
        <time>2012-09-20T13:02:36Z</time>
      </trkpt>
      <trkpt lat="44.97841" lon="1.91176">
        <ele>221.2</ele>
        <time>2012-09-20T13:02:41Z</time>
      </trkpt>
      <trkpt lat="44.97844" lon="1.9118">
        <ele>221.7</ele>
        <time>2012-09-20T13:02:46Z</time>
      </trkpt>
      <trkpt lat="44.97846" lon="1.91183">
        <ele>221.2</ele>
        <time>2012-09-20T13:02:49Z</time>
      </trkpt>
      <trkpt lat="44.97859" lon="1.91197">
        <ele>221.2</ele>
        <time>2012-09-20T13:02:57Z</time>
      </trkpt>
      <trkpt lat="44.97862" lon="1.91205">
        <ele>220.8</ele>
        <time>2012-09-20T13:03:02Z</time>
      </trkpt>
      <trkpt lat="44.97863" lon="1.91206">
        <ele>220.8</ele>
        <time>2012-09-20T13:03:07Z</time>
      </trkpt>
      <trkpt lat="44.97864" lon="1.91206">
        <ele>220.3</ele>
        <time>2012-09-20T13:03:09Z</time>
      </trkpt>
      <trkpt lat="44.97866" lon="1.91214">
        <ele>220.3</ele>
        <time>2012-09-20T13:03:16Z</time>
      </trkpt>
      <trkpt lat="44.97872" lon="1.91226">
        <ele>221.2</ele>
        <time>2012-09-20T13:03:21Z</time>
      </trkpt>
      <trkpt lat="44.97875" lon="1.91231">
        <ele>220.8</ele>
        <time>2012-09-20T13:03:23Z</time>
      </trkpt>
      <trkpt lat="44.97881" lon="1.91237">
        <ele>220.3</ele>
        <time>2012-09-20T13:03:30Z</time>
      </trkpt>
      <trkpt lat="44.97883" lon="1.91242">
        <ele>220.3</ele>
        <time>2012-09-20T13:03:34Z</time>
      </trkpt>
      <trkpt lat="44.97883" lon="1.91245">
        <ele>220.3</ele>
        <time>2012-09-20T13:03:40Z</time>
      </trkpt>
      <trkpt lat="44.97883" lon="1.91245">
        <ele>219.8</ele>
        <time>2012-09-20T13:03:41Z</time>
      </trkpt>
      <trkpt lat="44.97879" lon="1.91251">
        <ele>219.8</ele>
        <time>2012-09-20T13:03:49Z</time>
      </trkpt>
      <trkpt lat="44.97876" lon="1.9126">
        <ele>220.3</ele>
        <time>2012-09-20T13:03:56Z</time>
      </trkpt>
      <trkpt lat="44.97875" lon="1.91262">
        <ele>220.3</ele>
        <time>2012-09-20T13:03:57Z</time>
      </trkpt>
      <trkpt lat="44.97866" lon="1.91274">
        <ele>220.3</ele>
        <time>2012-09-20T13:04:04Z</time>
      </trkpt>
      <trkpt lat="44.97866" lon="1.91277">
        <ele>219.8</ele>
        <time>2012-09-20T13:04:05Z</time>
      </trkpt>
      <trkpt lat="44.97864" lon="1.91285">
        <ele>220.8</ele>
        <time>2012-09-20T13:04:09Z</time>
      </trkpt>
      <trkpt lat="44.9787" lon="1.91297">
        <ele>220.3</ele>
        <time>2012-09-20T13:04:13Z</time>
      </trkpt>
      <trkpt lat="44.97879" lon="1.91323">
        <ele>220.8</ele>
        <time>2012-09-20T13:04:18Z</time>
      </trkpt>
      <trkpt lat="44.97889" lon="1.91345">
        <ele>221.2</ele>
        <time>2012-09-20T13:04:23Z</time>
      </trkpt>
      <trkpt lat="44.97899" lon="1.91379">
        <ele>222.2</ele>
        <time>2012-09-20T13:04:32Z</time>
      </trkpt>
      <trkpt lat="44.97904" lon="1.91395">
        <ele>224.6</ele>
        <time>2012-09-20T13:04:40Z</time>
      </trkpt>
      <trkpt lat="44.97904" lon="1.91402">
        <ele>225.1</ele>
        <time>2012-09-20T13:04:47Z</time>
      </trkpt>
      <trkpt lat="44.97901" lon="1.91417">
        <ele>225.1</ele>
        <time>2012-09-20T13:04:53Z</time>
      </trkpt>
      <trkpt lat="44.97902" lon="1.91433">
        <ele>225.1</ele>
        <time>2012-09-20T13:04:58Z</time>
      </trkpt>
      <trkpt lat="44.97902" lon="1.91441">
        <ele>225.6</ele>
        <time>2012-09-20T13:05:02Z</time>
      </trkpt>
      <trkpt lat="44.97899" lon="1.91446">
        <ele>226.5</ele>
        <time>2012-09-20T13:05:10Z</time>
      </trkpt>
      <trkpt lat="44.97899" lon="1.91452">
        <ele>227</ele>
        <time>2012-09-20T13:05:14Z</time>
      </trkpt>
      <trkpt lat="44.97897" lon="1.91462">
        <ele>227</ele>
        <time>2012-09-20T13:05:18Z</time>
      </trkpt>
      <trkpt lat="44.97902" lon="1.91476">
        <ele>227</ele>
        <time>2012-09-20T13:05:22Z</time>
      </trkpt>
      <trkpt lat="44.979" lon="1.91484">
        <ele>227.5</ele>
        <time>2012-09-20T13:05:25Z</time>
      </trkpt>
      <trkpt lat="44.97901" lon="1.91489">
        <ele>228.4</ele>
        <time>2012-09-20T13:05:32Z</time>
      </trkpt>
      <trkpt lat="44.97899" lon="1.91494">
        <ele>228.4</ele>
        <time>2012-09-20T13:05:34Z</time>
      </trkpt>
      <trkpt lat="44.97891" lon="1.91506">
        <ele>228.9</ele>
        <time>2012-09-20T13:05:41Z</time>
      </trkpt>
      <trkpt lat="44.9789" lon="1.9151">
        <ele>230.4</ele>
        <time>2012-09-20T13:05:47Z</time>
      </trkpt>
      <trkpt lat="44.97894" lon="1.91518">
        <ele>229.9</ele>
        <time>2012-09-20T13:05:51Z</time>
      </trkpt>
      <trkpt lat="44.97896" lon="1.91522">
        <ele>229.9</ele>
        <time>2012-09-20T13:05:59Z</time>
      </trkpt>
      <trkpt lat="44.97896" lon="1.91522">
        <ele>229.4</ele>
        <time>2012-09-20T13:06:17Z</time>
      </trkpt>
      <trkpt lat="44.97896" lon="1.91522">
        <ele>229.9</ele>
        <time>2012-09-20T13:06:37Z</time>
      </trkpt>
      <trkpt lat="44.97897" lon="1.91526">
        <ele>229.9</ele>
        <time>2012-09-20T13:06:45Z</time>
      </trkpt>
      <trkpt lat="44.97897" lon="1.91528">
        <ele>229.4</ele>
        <time>2012-09-20T13:06:46Z</time>
      </trkpt>
      <trkpt lat="44.979" lon="1.91534">
        <ele>229.4</ele>
        <time>2012-09-20T13:06:49Z</time>
      </trkpt>
      <trkpt lat="44.97909" lon="1.91547">
        <ele>229.4</ele>
        <time>2012-09-20T13:06:56Z</time>
      </trkpt>
      <trkpt lat="44.97918" lon="1.91563">
        <ele>229.9</ele>
        <time>2012-09-20T13:07:03Z</time>
      </trkpt>
      <trkpt lat="44.97925" lon="1.91573">
        <ele>229.4</ele>
        <time>2012-09-20T13:07:09Z</time>
      </trkpt>
      <trkpt lat="44.97929" lon="1.91584">
        <ele>228.9</ele>
        <time>2012-09-20T13:07:17Z</time>
      </trkpt>
      <trkpt lat="44.97934" lon="1.91589">
        <ele>229.9</ele>
        <time>2012-09-20T13:07:21Z</time>
      </trkpt>
      <trkpt lat="44.97942" lon="1.91604">
        <ele>228.9</ele>
        <time>2012-09-20T13:07:29Z</time>
      </trkpt>
      <trkpt lat="44.97953" lon="1.91616">
        <ele>228.9</ele>
        <time>2012-09-20T13:07:36Z</time>
      </trkpt>
      <trkpt lat="44.97958" lon="1.91628">
        <ele>229.9</ele>
        <time>2012-09-20T13:07:43Z</time>
      </trkpt>
      <trkpt lat="44.97962" lon="1.91639">
        <ele>228.9</ele>
        <time>2012-09-20T13:07:50Z</time>
      </trkpt>
      <trkpt lat="44.97963" lon="1.9164">
        <ele>229.4</ele>
        <time>2012-09-20T13:07:51Z</time>
      </trkpt>
      <trkpt lat="44.97966" lon="1.91646">
        <ele>229.4</ele>
        <time>2012-09-20T13:07:54Z</time>
      </trkpt>
      <trkpt lat="44.97976" lon="1.91655">
        <ele>229.9</ele>
        <time>2012-09-20T13:08:01Z</time>
      </trkpt>
      <trkpt lat="44.97987" lon="1.91662">
        <ele>230.9</ele>
        <time>2012-09-20T13:08:08Z</time>
      </trkpt>
      <trkpt lat="44.97987" lon="1.91664">
        <ele>230.9</ele>
        <time>2012-09-20T13:08:12Z</time>
      </trkpt>
      <trkpt lat="44.97985" lon="1.91669">
        <ele>229.9</ele>
        <time>2012-09-20T13:08:20Z</time>
      </trkpt>
      <trkpt lat="44.97986" lon="1.91672">
        <ele>229.9</ele>
        <time>2012-09-20T13:08:24Z</time>
      </trkpt>
      <trkpt lat="44.97995" lon="1.91678">
        <ele>229.4</ele>
        <time>2012-09-20T13:08:30Z</time>
      </trkpt>
      <trkpt lat="44.97999" lon="1.91681">
        <ele>228.4</ele>
        <time>2012-09-20T13:08:34Z</time>
      </trkpt>
      <trkpt lat="44.9801" lon="1.91693">
        <ele>227.5</ele>
        <time>2012-09-20T13:08:42Z</time>
      </trkpt>
      <trkpt lat="44.9802" lon="1.91692">
        <ele>226.1</ele>
        <time>2012-09-20T13:08:50Z</time>
      </trkpt>
      <trkpt lat="44.98025" lon="1.91693">
        <ele>225.1</ele>
        <time>2012-09-20T13:08:59Z</time>
      </trkpt>
      <trkpt lat="44.98026" lon="1.91692">
        <ele>224.6</ele>
        <time>2012-09-20T13:09:09Z</time>
      </trkpt>
      <trkpt lat="44.98026" lon="1.91692">
        <ele>225.1</ele>
        <time>2012-09-20T13:09:10Z</time>
      </trkpt>
      <trkpt lat="44.98021" lon="1.91693">
        <ele>226.5</ele>
        <time>2012-09-20T13:09:16Z</time>
      </trkpt>
      <trkpt lat="44.9802" lon="1.91698">
        <ele>227.5</ele>
        <time>2012-09-20T13:09:22Z</time>
      </trkpt>
      <trkpt lat="44.9802" lon="1.91697">
        <ele>227</ele>
        <time>2012-09-20T13:09:28Z</time>
      </trkpt>
      <trkpt lat="44.9802" lon="1.91697">
        <ele>227</ele>
        <time>2012-09-20T13:09:29Z</time>
      </trkpt>
      <trkpt lat="44.98021" lon="1.91703">
        <ele>226.1</ele>
        <time>2012-09-20T13:09:35Z</time>
      </trkpt>
      <trkpt lat="44.9802" lon="1.91704">
        <ele>226.1</ele>
        <time>2012-09-20T13:09:40Z</time>
      </trkpt>
      <trkpt lat="44.98019" lon="1.91705">
        <ele>225.6</ele>
        <time>2012-09-20T13:09:45Z</time>
      </trkpt>
      <trkpt lat="44.98018" lon="1.91708">
        <ele>225.6</ele>
        <time>2012-09-20T13:09:50Z</time>
      </trkpt>
      <trkpt lat="44.98014" lon="1.9171">
        <ele>226.1</ele>
        <time>2012-09-20T13:09:56Z</time>
      </trkpt>
      <trkpt lat="44.98012" lon="1.91711">
        <ele>227</ele>
        <time>2012-09-20T13:10:01Z</time>
      </trkpt>
      <trkpt lat="44.98003" lon="1.91714">
        <ele>228.9</ele>
        <time>2012-09-20T13:10:08Z</time>
      </trkpt>
      <trkpt lat="44.97997" lon="1.91711">
        <ele>228.9</ele>
        <time>2012-09-20T13:10:15Z</time>
      </trkpt>
      <trkpt lat="44.97993" lon="1.91708">
        <ele>231.8</ele>
        <time>2012-09-20T13:10:22Z</time>
      </trkpt>
      <trkpt lat="44.97991" lon="1.91706">
        <ele>231.8</ele>
        <time>2012-09-20T13:10:23Z</time>
      </trkpt>
      <trkpt lat="44.97984" lon="1.91702">
        <ele>233.3</ele>
        <time>2012-09-20T13:10:29Z</time>
      </trkpt>
      <trkpt lat="44.97979" lon="1.91698">
        <ele>234.2</ele>
        <time>2012-09-20T13:10:32Z</time>
      </trkpt>
      <trkpt lat="44.97969" lon="1.91696">
        <ele>236.6</ele>
        <time>2012-09-20T13:10:39Z</time>
      </trkpt>
      <trkpt lat="44.97966" lon="1.91695">
        <ele>239.5</ele>
        <time>2012-09-20T13:10:40Z</time>
      </trkpt>
      <trkpt lat="44.97964" lon="1.91695">
        <ele>228</ele>
        <time>2012-09-20T13:10:41Z</time>
      </trkpt>
      <trkpt lat="44.97962" lon="1.91695">
        <ele>235.7</ele>
        <time>2012-09-20T13:10:42Z</time>
      </trkpt>
      <trkpt lat="44.9796" lon="1.91694">
        <ele>236.1</ele>
        <time>2012-09-20T13:10:43Z</time>
      </trkpt>
      <trkpt lat="44.97949" lon="1.91693">
        <ele>239</ele>
        <time>2012-09-20T13:10:51Z</time>
      </trkpt>
      <trkpt lat="44.97948" lon="1.91694">
        <ele>237.6</ele>
        <time>2012-09-20T13:10:53Z</time>
      </trkpt>
      <trkpt lat="44.97942" lon="1.91692">
        <ele>239</ele>
        <time>2012-09-20T13:11:01Z</time>
      </trkpt>
      <trkpt lat="44.97935" lon="1.9169">
        <ele>240.5</ele>
        <time>2012-09-20T13:11:06Z</time>
      </trkpt>
      <trkpt lat="44.97935" lon="1.91689">
        <ele>240.9</ele>
        <time>2012-09-20T13:11:08Z</time>
      </trkpt>
      <trkpt lat="44.97931" lon="1.91686">
        <ele>241.9</ele>
        <time>2012-09-20T13:11:14Z</time>
      </trkpt>
      <trkpt lat="44.97924" lon="1.91683">
        <ele>243.8</ele>
        <time>2012-09-20T13:11:20Z</time>
      </trkpt>
      <trkpt lat="44.97921" lon="1.91683">
        <ele>244.3</ele>
        <time>2012-09-20T13:11:26Z</time>
      </trkpt>
      <trkpt lat="44.97915" lon="1.91679">
        <ele>244.8</ele>
        <time>2012-09-20T13:11:31Z</time>
      </trkpt>
      <trkpt lat="44.97913" lon="1.91679">
        <ele>245.8</ele>
        <time>2012-09-20T13:11:36Z</time>
      </trkpt>
      <trkpt lat="44.97909" lon="1.91679">
        <ele>247.2</ele>
        <time>2012-09-20T13:11:39Z</time>
      </trkpt>
      <trkpt lat="44.97903" lon="1.91675">
        <ele>247.2</ele>
        <time>2012-09-20T13:11:42Z</time>
      </trkpt>
      <trkpt lat="44.97902" lon="1.91673">
        <ele>248.2</ele>
        <time>2012-09-20T13:11:46Z</time>
      </trkpt>
      <trkpt lat="44.97895" lon="1.91672">
        <ele>248.2</ele>
        <time>2012-09-20T13:11:51Z</time>
      </trkpt>
      <trkpt lat="44.97891" lon="1.91674">
        <ele>248.6</ele>
        <time>2012-09-20T13:11:57Z</time>
      </trkpt>
      <trkpt lat="44.9789" lon="1.91674">
        <ele>249.1</ele>
        <time>2012-09-20T13:11:59Z</time>
      </trkpt>
      <trkpt lat="44.97879" lon="1.91681">
        <ele>248.6</ele>
        <time>2012-09-20T13:12:03Z</time>
      </trkpt>
      <trkpt lat="44.97879" lon="1.91682">
        <ele>247.7</ele>
        <time>2012-09-20T13:12:04Z</time>
      </trkpt>
      <trkpt lat="44.97876" lon="1.91687">
        <ele>249.1</ele>
        <time>2012-09-20T13:12:07Z</time>
      </trkpt>
      <trkpt lat="44.97868" lon="1.9169">
        <ele>248.2</ele>
        <time>2012-09-20T13:12:14Z</time>
      </trkpt>
      <trkpt lat="44.97865" lon="1.91693">
        <ele>248.2</ele>
        <time>2012-09-20T13:12:19Z</time>
      </trkpt>
      <trkpt lat="44.9785" lon="1.917">
        <ele>247.2</ele>
        <time>2012-09-20T13:12:26Z</time>
      </trkpt>
      <trkpt lat="44.97838" lon="1.91705">
        <ele>247.7</ele>
        <time>2012-09-20T13:12:32Z</time>
      </trkpt>
      <trkpt lat="44.97826" lon="1.91708">
        <ele>247.2</ele>
        <time>2012-09-20T13:12:37Z</time>
      </trkpt>
      <trkpt lat="44.97822" lon="1.91707">
        <ele>247.7</ele>
        <time>2012-09-20T13:12:43Z</time>
      </trkpt>
      <trkpt lat="44.97819" lon="1.91707">
        <ele>247.7</ele>
        <time>2012-09-20T13:12:49Z</time>
      </trkpt>
      <trkpt lat="44.97818" lon="1.91706">
        <ele>247.7</ele>
        <time>2012-09-20T13:12:55Z</time>
      </trkpt>
      <trkpt lat="44.97815" lon="1.91706">
        <ele>248.6</ele>
        <time>2012-09-20T13:13:00Z</time>
      </trkpt>
      <trkpt lat="44.97807" lon="1.91704">
        <ele>248.2</ele>
        <time>2012-09-20T13:13:05Z</time>
      </trkpt>
      <trkpt lat="44.97794" lon="1.91702">
        <ele>249.6</ele>
        <time>2012-09-20T13:13:10Z</time>
      </trkpt>
      <trkpt lat="44.97791" lon="1.91702">
        <ele>254.4</ele>
        <time>2012-09-20T13:13:12Z</time>
      </trkpt>
      <trkpt lat="44.97789" lon="1.91702">
        <ele>252.5</ele>
        <time>2012-09-20T13:13:13Z</time>
      </trkpt>
      <trkpt lat="44.97788" lon="1.91703">
        <ele>248.2</ele>
        <time>2012-09-20T13:13:14Z</time>
      </trkpt>
      <trkpt lat="44.97786" lon="1.91702">
        <ele>250.1</ele>
        <time>2012-09-20T13:13:15Z</time>
      </trkpt>
      <trkpt lat="44.97775" lon="1.91698">
        <ele>246.2</ele>
        <time>2012-09-20T13:13:23Z</time>
      </trkpt>
      <trkpt lat="44.97771" lon="1.91696">
        <ele>247.2</ele>
        <time>2012-09-20T13:13:26Z</time>
      </trkpt>
      <trkpt lat="44.97762" lon="1.91689">
        <ele>246.7</ele>
        <time>2012-09-20T13:13:32Z</time>
      </trkpt>
      <trkpt lat="44.97751" lon="1.91677">
        <ele>246.7</ele>
        <time>2012-09-20T13:13:40Z</time>
      </trkpt>
      <trkpt lat="44.97735" lon="1.91671">
        <ele>246.7</ele>
        <time>2012-09-20T13:13:46Z</time>
      </trkpt>
      <trkpt lat="44.97718" lon="1.91673">
        <ele>247.2</ele>
        <time>2012-09-20T13:13:52Z</time>
      </trkpt>
      <trkpt lat="44.977" lon="1.91673">
        <ele>246.2</ele>
        <time>2012-09-20T13:13:58Z</time>
      </trkpt>
      <trkpt lat="44.97687" lon="1.91677">
        <ele>246.7</ele>
        <time>2012-09-20T13:14:04Z</time>
      </trkpt>
      <trkpt lat="44.97679" lon="1.9168">
        <ele>247.2</ele>
        <time>2012-09-20T13:14:07Z</time>
      </trkpt>
      <trkpt lat="44.97669" lon="1.91684">
        <ele>247.2</ele>
        <time>2012-09-20T13:14:13Z</time>
      </trkpt>
      <trkpt lat="44.97664" lon="1.91688">
        <ele>247.7</ele>
        <time>2012-09-20T13:14:16Z</time>
      </trkpt>
      <trkpt lat="44.97667" lon="1.91694">
        <ele>247.2</ele>
        <time>2012-09-20T13:14:19Z</time>
      </trkpt>
      <trkpt lat="44.97677" lon="1.91706">
        <ele>247.7</ele>
        <time>2012-09-20T13:14:26Z</time>
      </trkpt>
      <trkpt lat="44.97686" lon="1.91722">
        <ele>246.7</ele>
        <time>2012-09-20T13:14:31Z</time>
      </trkpt>
      <trkpt lat="44.97689" lon="1.9173">
        <ele>247.7</ele>
        <time>2012-09-20T13:14:40Z</time>
      </trkpt>
      <trkpt lat="44.9769" lon="1.91735">
        <ele>248.2</ele>
        <time>2012-09-20T13:14:46Z</time>
      </trkpt>
      <trkpt lat="44.97694" lon="1.91746">
        <ele>247.7</ele>
        <time>2012-09-20T13:14:50Z</time>
      </trkpt>
      <trkpt lat="44.977" lon="1.91767">
        <ele>247.7</ele>
        <time>2012-09-20T13:14:55Z</time>
      </trkpt>
      <trkpt lat="44.97701" lon="1.91769">
        <ele>247.7</ele>
        <time>2012-09-20T13:14:56Z</time>
      </trkpt>
      <trkpt lat="44.97711" lon="1.91796">
        <ele>248.2</ele>
        <time>2012-09-20T13:15:03Z</time>
      </trkpt>
      <trkpt lat="44.9771" lon="1.91802">
        <ele>248.2</ele>
        <time>2012-09-20T13:15:05Z</time>
      </trkpt>
      <trkpt lat="44.97709" lon="1.91815">
        <ele>248.2</ele>
        <time>2012-09-20T13:15:09Z</time>
      </trkpt>
      <trkpt lat="44.97709" lon="1.91825">
        <ele>248.2</ele>
        <time>2012-09-20T13:15:13Z</time>
      </trkpt>
      <trkpt lat="44.97708" lon="1.91834">
        <ele>247.7</ele>
        <time>2012-09-20T13:15:19Z</time>
      </trkpt>
      <trkpt lat="44.97709" lon="1.91841">
        <ele>247.7</ele>
        <time>2012-09-20T13:15:24Z</time>
      </trkpt>
      <trkpt lat="44.97709" lon="1.91849">
        <ele>247.2</ele>
        <time>2012-09-20T13:15:31Z</time>
      </trkpt>
      <trkpt lat="44.9771" lon="1.91855">
        <ele>248.2</ele>
        <time>2012-09-20T13:15:38Z</time>
      </trkpt>
      <trkpt lat="44.97715" lon="1.91861">
        <ele>248.6</ele>
        <time>2012-09-20T13:15:45Z</time>
      </trkpt>
      <trkpt lat="44.97727" lon="1.91876">
        <ele>248.6</ele>
        <time>2012-09-20T13:15:51Z</time>
      </trkpt>
      <trkpt lat="44.97738" lon="1.91894">
        <ele>248.6</ele>
        <time>2012-09-20T13:15:59Z</time>
      </trkpt>
      <trkpt lat="44.97738" lon="1.91904">
        <ele>247.7</ele>
        <time>2012-09-20T13:16:06Z</time>
      </trkpt>
      <trkpt lat="44.97738" lon="1.91908">
        <ele>248.6</ele>
        <time>2012-09-20T13:16:12Z</time>
      </trkpt>
      <trkpt lat="44.97738" lon="1.91908">
        <ele>249.1</ele>
        <time>2012-09-20T13:16:13Z</time>
      </trkpt>
      <trkpt lat="44.97739" lon="1.91916">
        <ele>248.6</ele>
        <time>2012-09-20T13:16:17Z</time>
      </trkpt>
      <trkpt lat="44.97742" lon="1.91923">
        <ele>249.1</ele>
        <time>2012-09-20T13:16:20Z</time>
      </trkpt>
      <trkpt lat="44.97744" lon="1.91933">
        <ele>248.2</ele>
        <time>2012-09-20T13:16:24Z</time>
      </trkpt>
      <trkpt lat="44.97746" lon="1.91956">
        <ele>248.6</ele>
        <time>2012-09-20T13:16:32Z</time>
      </trkpt>
      <trkpt lat="44.97749" lon="1.9197">
        <ele>253</ele>
        <time>2012-09-20T13:16:38Z</time>
      </trkpt>
      <trkpt lat="44.9775" lon="1.91972">
        <ele>241.4</ele>
        <time>2012-09-20T13:16:39Z</time>
      </trkpt>
      <trkpt lat="44.97751" lon="1.91974">
        <ele>250.1</ele>
        <time>2012-09-20T13:16:41Z</time>
      </trkpt>
      <trkpt lat="44.97749" lon="1.91981">
        <ele>249.1</ele>
        <time>2012-09-20T13:16:47Z</time>
      </trkpt>
      <trkpt lat="44.97754" lon="1.91994">
        <ele>250.1</ele>
        <time>2012-09-20T13:16:54Z</time>
      </trkpt>
      <trkpt lat="44.97756" lon="1.92001">
        <ele>250.6</ele>
        <time>2012-09-20T13:17:00Z</time>
      </trkpt>
      <trkpt lat="44.97754" lon="1.92006">
        <ele>252</ele>
        <time>2012-09-20T13:17:07Z</time>
      </trkpt>
      <trkpt lat="44.97753" lon="1.92007">
        <ele>254.4</ele>
        <time>2012-09-20T13:17:13Z</time>
      </trkpt>
      <trkpt lat="44.97747" lon="1.92015">
        <ele>255.4</ele>
        <time>2012-09-20T13:17:20Z</time>
      </trkpt>
      <trkpt lat="44.97747" lon="1.92015">
        <ele>256.3</ele>
        <time>2012-09-20T13:17:21Z</time>
      </trkpt>
      <trkpt lat="44.97746" lon="1.92031">
        <ele>257.3</ele>
        <time>2012-09-20T13:17:28Z</time>
      </trkpt>
      <trkpt lat="44.97745" lon="1.92035">
        <ele>257.8</ele>
        <time>2012-09-20T13:17:32Z</time>
      </trkpt>
      <trkpt lat="44.97747" lon="1.92052">
        <ele>257.8</ele>
        <time>2012-09-20T13:17:40Z</time>
      </trkpt>
      <trkpt lat="44.97744" lon="1.92056">
        <ele>257.8</ele>
        <time>2012-09-20T13:17:46Z</time>
      </trkpt>
      <trkpt lat="44.97743" lon="1.9206">
        <ele>258.2</ele>
        <time>2012-09-20T13:17:52Z</time>
      </trkpt>
      <trkpt lat="44.97741" lon="1.9207">
        <ele>258.2</ele>
        <time>2012-09-20T13:17:57Z</time>
      </trkpt>
      <trkpt lat="44.9774" lon="1.92084">
        <ele>258.7</ele>
        <time>2012-09-20T13:18:02Z</time>
      </trkpt>
      <trkpt lat="44.97738" lon="1.92093">
        <ele>259.7</ele>
        <time>2012-09-20T13:18:06Z</time>
      </trkpt>
      <trkpt lat="44.97738" lon="1.92099">
        <ele>260.2</ele>
        <time>2012-09-20T13:18:13Z</time>
      </trkpt>
      <trkpt lat="44.97738" lon="1.92102">
        <ele>260.6</ele>
        <time>2012-09-20T13:18:16Z</time>
      </trkpt>
      <trkpt lat="44.97732" lon="1.92116">
        <ele>259.7</ele>
        <time>2012-09-20T13:18:21Z</time>
      </trkpt>
      <trkpt lat="44.97723" lon="1.92124">
        <ele>259.2</ele>
        <time>2012-09-20T13:18:26Z</time>
      </trkpt>
      <trkpt lat="44.9772" lon="1.92124">
        <ele>259.7</ele>
        <time>2012-09-20T13:18:32Z</time>
      </trkpt>
      <trkpt lat="44.97718" lon="1.92128">
        <ele>259.2</ele>
        <time>2012-09-20T13:18:38Z</time>
      </trkpt>
      <trkpt lat="44.97719" lon="1.92129">
        <ele>259.7</ele>
        <time>2012-09-20T13:18:40Z</time>
      </trkpt>
      <trkpt lat="44.97717" lon="1.9214">
        <ele>258.7</ele>
        <time>2012-09-20T13:18:47Z</time>
      </trkpt>
      <trkpt lat="44.97717" lon="1.92143">
        <ele>259.7</ele>
        <time>2012-09-20T13:18:54Z</time>
      </trkpt>
      <trkpt lat="44.97717" lon="1.92147">
        <ele>260.2</ele>
        <time>2012-09-20T13:19:00Z</time>
      </trkpt>
      <trkpt lat="44.97715" lon="1.9216">
        <ele>260.6</ele>
        <time>2012-09-20T13:19:06Z</time>
      </trkpt>
      <trkpt lat="44.9771" lon="1.92163">
        <ele>261.1</ele>
        <time>2012-09-20T13:19:12Z</time>
      </trkpt>
      <trkpt lat="44.97709" lon="1.92165">
        <ele>261.6</ele>
        <time>2012-09-20T13:19:13Z</time>
      </trkpt>
      <trkpt lat="44.977" lon="1.92174">
        <ele>261.6</ele>
        <time>2012-09-20T13:19:18Z</time>
      </trkpt>
      <trkpt lat="44.97684" lon="1.92178">
        <ele>262.1</ele>
        <time>2012-09-20T13:19:25Z</time>
      </trkpt>
      <trkpt lat="44.97678" lon="1.92175">
        <ele>263.1</ele>
        <time>2012-09-20T13:19:31Z</time>
      </trkpt>
      <trkpt lat="44.97677" lon="1.92175">
        <ele>262.6</ele>
        <time>2012-09-20T13:19:33Z</time>
      </trkpt>
      <trkpt lat="44.97673" lon="1.9218">
        <ele>263.1</ele>
        <time>2012-09-20T13:19:37Z</time>
      </trkpt>
      <trkpt lat="44.97669" lon="1.92183">
        <ele>263.5</ele>
        <time>2012-09-20T13:19:40Z</time>
      </trkpt>
      <trkpt lat="44.97656" lon="1.92186">
        <ele>264</ele>
        <time>2012-09-20T13:19:48Z</time>
      </trkpt>
      <trkpt lat="44.97649" lon="1.92186">
        <ele>264</ele>
        <time>2012-09-20T13:19:56Z</time>
      </trkpt>
      <trkpt lat="44.97642" lon="1.92191">
        <ele>264</ele>
        <time>2012-09-20T13:20:03Z</time>
      </trkpt>
      <trkpt lat="44.97636" lon="1.922">
        <ele>264</ele>
        <time>2012-09-20T13:20:09Z</time>
      </trkpt>
      <trkpt lat="44.97633" lon="1.92209">
        <ele>263.5</ele>
        <time>2012-09-20T13:20:14Z</time>
      </trkpt>
      <trkpt lat="44.97633" lon="1.92226">
        <ele>264</ele>
        <time>2012-09-20T13:20:23Z</time>
      </trkpt>
      <trkpt lat="44.97632" lon="1.92238">
        <ele>264.5</ele>
        <time>2012-09-20T13:20:31Z</time>
      </trkpt>
      <trkpt lat="44.97633" lon="1.92248">
        <ele>264</ele>
        <time>2012-09-20T13:20:39Z</time>
      </trkpt>
      <trkpt lat="44.97632" lon="1.92254">
        <ele>262.6</ele>
        <time>2012-09-20T13:20:45Z</time>
      </trkpt>
      <trkpt lat="44.97628" lon="1.92258">
        <ele>260.6</ele>
        <time>2012-09-20T13:20:49Z</time>
      </trkpt>
      <trkpt lat="44.97617" lon="1.92264">
        <ele>261.1</ele>
        <time>2012-09-20T13:20:56Z</time>
      </trkpt>
      <trkpt lat="44.97614" lon="1.92273">
        <ele>262.1</ele>
        <time>2012-09-20T13:21:03Z</time>
      </trkpt>
      <trkpt lat="44.97615" lon="1.92276">
        <ele>261.1</ele>
        <time>2012-09-20T13:21:08Z</time>
      </trkpt>
      <trkpt lat="44.97615" lon="1.92288">
        <ele>262.6</ele>
        <time>2012-09-20T13:21:15Z</time>
      </trkpt>
      <trkpt lat="44.97614" lon="1.9229">
        <ele>262.1</ele>
        <time>2012-09-20T13:21:22Z</time>
      </trkpt>
      <trkpt lat="44.97614" lon="1.92296">
        <ele>262.1</ele>
        <time>2012-09-20T13:21:29Z</time>
      </trkpt>
      <trkpt lat="44.97614" lon="1.92296">
        <ele>262.1</ele>
        <time>2012-09-20T13:21:35Z</time>
      </trkpt>
      <trkpt lat="44.97609" lon="1.92299">
        <ele>262.1</ele>
        <time>2012-09-20T13:21:42Z</time>
      </trkpt>
      <trkpt lat="44.97608" lon="1.92301">
        <ele>260.6</ele>
        <time>2012-09-20T13:21:48Z</time>
      </trkpt>
      <trkpt lat="44.97608" lon="1.92301">
        <ele>261.1</ele>
        <time>2012-09-20T13:22:01Z</time>
      </trkpt>
      <trkpt lat="44.97607" lon="1.923">
        <ele>261.1</ele>
        <time>2012-09-20T13:22:07Z</time>
      </trkpt>
      <trkpt lat="44.97607" lon="1.923">
        <ele>261.1</ele>
        <time>2012-09-20T13:22:26Z</time>
      </trkpt>
      <trkpt lat="44.97607" lon="1.92302">
        <ele>261.6</ele>
        <time>2012-09-20T13:22:36Z</time>
      </trkpt>
      <trkpt lat="44.97609" lon="1.92302">
        <ele>261.6</ele>
        <time>2012-09-20T13:22:42Z</time>
      </trkpt>
      <trkpt lat="44.97613" lon="1.92302">
        <ele>262.1</ele>
        <time>2012-09-20T13:22:49Z</time>
      </trkpt>
      <trkpt lat="44.97614" lon="1.923">
        <ele>261.6</ele>
        <time>2012-09-20T13:22:51Z</time>
      </trkpt>
      <trkpt lat="44.97617" lon="1.92298">
        <ele>262.1</ele>
        <time>2012-09-20T13:22:55Z</time>
      </trkpt>
      <trkpt lat="44.97619" lon="1.92297">
        <ele>262.6</ele>
        <time>2012-09-20T13:22:56Z</time>
      </trkpt>
      <trkpt lat="44.97628" lon="1.92305">
        <ele>262.6</ele>
        <time>2012-09-20T13:23:02Z</time>
      </trkpt>
      <trkpt lat="44.97633" lon="1.92309">
        <ele>262.1</ele>
        <time>2012-09-20T13:23:07Z</time>
      </trkpt>
      <trkpt lat="44.97637" lon="1.9231">
        <ele>262.6</ele>
        <time>2012-09-20T13:23:13Z</time>
      </trkpt>
      <trkpt lat="44.97642" lon="1.92314">
        <ele>263.1</ele>
        <time>2012-09-20T13:23:19Z</time>
      </trkpt>
      <trkpt lat="44.97649" lon="1.92328">
        <ele>263.5</ele>
        <time>2012-09-20T13:23:27Z</time>
      </trkpt>
      <trkpt lat="44.97659" lon="1.92342">
        <ele>263.5</ele>
        <time>2012-09-20T13:23:35Z</time>
      </trkpt>
      <trkpt lat="44.9766" lon="1.92345">
        <ele>263.5</ele>
        <time>2012-09-20T13:23:40Z</time>
      </trkpt>
      <trkpt lat="44.9766" lon="1.92349">
        <ele>263.5</ele>
        <time>2012-09-20T13:23:45Z</time>
      </trkpt>
      <trkpt lat="44.97661" lon="1.9235">
        <ele>264.5</ele>
        <time>2012-09-20T13:23:49Z</time>
      </trkpt>
      <trkpt lat="44.9766" lon="1.9235">
        <ele>264.5</ele>
        <time>2012-09-20T13:23:51Z</time>
      </trkpt>
      <trkpt lat="44.97658" lon="1.92358">
        <ele>264.5</ele>
        <time>2012-09-20T13:23:58Z</time>
      </trkpt>
      <trkpt lat="44.97664" lon="1.92373">
        <ele>264</ele>
        <time>2012-09-20T13:24:05Z</time>
      </trkpt>
      <trkpt lat="44.9767" lon="1.92386">
        <ele>265</ele>
        <time>2012-09-20T13:24:11Z</time>
      </trkpt>
      <trkpt lat="44.97675" lon="1.92409">
        <ele>264.5</ele>
        <time>2012-09-20T13:24:16Z</time>
      </trkpt>
      <trkpt lat="44.97677" lon="1.92415">
        <ele>264.5</ele>
        <time>2012-09-20T13:24:21Z</time>
      </trkpt>
      <trkpt lat="44.97677" lon="1.92424">
        <ele>264.5</ele>
        <time>2012-09-20T13:24:26Z</time>
      </trkpt>
      <trkpt lat="44.97675" lon="1.92429">
        <ele>265.5</ele>
        <time>2012-09-20T13:24:31Z</time>
      </trkpt>
      <trkpt lat="44.97675" lon="1.92433">
        <ele>264.5</ele>
        <time>2012-09-20T13:24:32Z</time>
      </trkpt>
      <trkpt lat="44.97676" lon="1.92441">
        <ele>265.5</ele>
        <time>2012-09-20T13:24:39Z</time>
      </trkpt>
      <trkpt lat="44.97676" lon="1.92444">
        <ele>265.5</ele>
        <time>2012-09-20T13:24:44Z</time>
      </trkpt>
      <trkpt lat="44.97676" lon="1.92451">
        <ele>268.8</ele>
        <time>2012-09-20T13:24:46Z</time>
      </trkpt>
      <trkpt lat="44.97676" lon="1.92455">
        <ele>273.6</ele>
        <time>2012-09-20T13:24:47Z</time>
      </trkpt>
      <trkpt lat="44.97676" lon="1.92458">
        <ele>259.7</ele>
        <time>2012-09-20T13:24:48Z</time>
      </trkpt>
      <trkpt lat="44.97676" lon="1.92464">
        <ele>265.5</ele>
        <time>2012-09-20T13:24:50Z</time>
      </trkpt>
      <trkpt lat="44.97677" lon="1.92469">
        <ele>266.4</ele>
        <time>2012-09-20T13:24:56Z</time>
      </trkpt>
      <trkpt lat="44.97677" lon="1.9247">
        <ele>265.9</ele>
        <time>2012-09-20T13:25:03Z</time>
      </trkpt>
      <trkpt lat="44.97677" lon="1.9247">
        <ele>266.9</ele>
        <time>2012-09-20T13:25:06Z</time>
      </trkpt>
      <trkpt lat="44.97678" lon="1.92475">
        <ele>266.4</ele>
        <time>2012-09-20T13:25:09Z</time>
      </trkpt>
      <trkpt lat="44.97682" lon="1.92494">
        <ele>266.9</ele>
        <time>2012-09-20T13:25:19Z</time>
      </trkpt>
      <trkpt lat="44.97685" lon="1.92507">
        <ele>267.9</ele>
        <time>2012-09-20T13:25:24Z</time>
      </trkpt>
      <trkpt lat="44.97696" lon="1.92521">
        <ele>267.4</ele>
        <time>2012-09-20T13:25:32Z</time>
      </trkpt>
      <trkpt lat="44.97706" lon="1.9252">
        <ele>266.9</ele>
        <time>2012-09-20T13:25:41Z</time>
      </trkpt>
      <trkpt lat="44.97714" lon="1.92513">
        <ele>267.4</ele>
        <time>2012-09-20T13:25:49Z</time>
      </trkpt>
      <trkpt lat="44.97717" lon="1.92511">
        <ele>267.4</ele>
        <time>2012-09-20T13:25:51Z</time>
      </trkpt>
      <trkpt lat="44.97721" lon="1.92508">
        <ele>266.9</ele>
        <time>2012-09-20T13:25:54Z</time>
      </trkpt>
      <trkpt lat="44.97728" lon="1.92502">
        <ele>268.4</ele>
        <time>2012-09-20T13:26:00Z</time>
      </trkpt>
      <trkpt lat="44.97732" lon="1.92502">
        <ele>268.4</ele>
        <time>2012-09-20T13:26:09Z</time>
      </trkpt>
      <trkpt lat="44.97732" lon="1.92502">
        <ele>267.9</ele>
        <time>2012-09-20T13:26:18Z</time>
      </trkpt>
      <trkpt lat="44.97732" lon="1.92502">
        <ele>267.9</ele>
        <time>2012-09-20T13:26:35Z</time>
      </trkpt>
      <trkpt lat="44.97732" lon="1.92502">
        <ele>268.4</ele>
        <time>2012-09-20T13:26:39Z</time>
      </trkpt>
      <trkpt lat="44.97737" lon="1.92508">
        <ele>268.4</ele>
        <time>2012-09-20T13:26:44Z</time>
      </trkpt>
      <trkpt lat="44.97748" lon="1.92524">
        <ele>269.3</ele>
        <time>2012-09-20T13:26:50Z</time>
      </trkpt>
      <trkpt lat="44.97759" lon="1.92554">
        <ele>269.8</ele>
        <time>2012-09-20T13:26:57Z</time>
      </trkpt>
      <trkpt lat="44.9777" lon="1.92597">
        <ele>270.8</ele>
        <time>2012-09-20T13:27:07Z</time>
      </trkpt>
      <trkpt lat="44.9778" lon="1.92624">
        <ele>271.7</ele>
        <time>2012-09-20T13:27:15Z</time>
      </trkpt>
      <trkpt lat="44.97788" lon="1.92638">
        <ele>271.2</ele>
        <time>2012-09-20T13:27:21Z</time>
      </trkpt>
      <trkpt lat="44.97788" lon="1.92639">
        <ele>271.2</ele>
        <time>2012-09-20T13:27:29Z</time>
      </trkpt>
      <trkpt lat="44.97788" lon="1.92638">
        <ele>270.8</ele>
        <time>2012-09-20T13:27:39Z</time>
      </trkpt>
      <trkpt lat="44.97793" lon="1.92635">
        <ele>270.3</ele>
        <time>2012-09-20T13:27:52Z</time>
      </trkpt>
      <trkpt lat="44.97793" lon="1.92635">
        <ele>269.8</ele>
        <time>2012-09-20T13:28:07Z</time>
      </trkpt>
      <trkpt lat="44.97793" lon="1.92635">
        <ele>269.8</ele>
        <time>2012-09-20T13:28:22Z</time>
      </trkpt>
      <trkpt lat="44.97799" lon="1.92634">
        <ele>270.8</ele>
        <time>2012-09-20T13:28:31Z</time>
      </trkpt>
      <trkpt lat="44.97804" lon="1.92634">
        <ele>271.2</ele>
        <time>2012-09-20T13:28:33Z</time>
      </trkpt>
      <trkpt lat="44.97822" lon="1.92641">
        <ele>272.2</ele>
        <time>2012-09-20T13:28:42Z</time>
      </trkpt>
      <trkpt lat="44.97826" lon="1.92641">
        <ele>272.7</ele>
        <time>2012-09-20T13:28:45Z</time>
      </trkpt>
      <trkpt lat="44.97845" lon="1.92651">
        <ele>273.6</ele>
        <time>2012-09-20T13:28:53Z</time>
      </trkpt>
      <trkpt lat="44.97865" lon="1.92673">
        <ele>274.6</ele>
        <time>2012-09-20T13:29:02Z</time>
      </trkpt>
      <trkpt lat="44.97876" lon="1.92679">
        <ele>274.6</ele>
        <time>2012-09-20T13:29:10Z</time>
      </trkpt>
      <trkpt lat="44.97877" lon="1.92683">
        <ele>274.6</ele>
        <time>2012-09-20T13:29:17Z</time>
      </trkpt>
      <trkpt lat="44.97878" lon="1.92684">
        <ele>274.6</ele>
        <time>2012-09-20T13:29:18Z</time>
      </trkpt>
      <trkpt lat="44.97891" lon="1.92689">
        <ele>275.6</ele>
        <time>2012-09-20T13:29:25Z</time>
      </trkpt>
      <trkpt lat="44.97904" lon="1.92695">
        <ele>271.2</ele>
        <time>2012-09-20T13:29:30Z</time>
      </trkpt>
      <trkpt lat="44.97907" lon="1.92695">
        <ele>276</ele>
        <time>2012-09-20T13:29:31Z</time>
      </trkpt>
      <trkpt lat="44.97931" lon="1.92703">
        <ele>276</ele>
        <time>2012-09-20T13:29:40Z</time>
      </trkpt>
      <trkpt lat="44.97965" lon="1.92717">
        <ele>277.5</ele>
        <time>2012-09-20T13:29:52Z</time>
      </trkpt>
      <trkpt lat="44.97983" lon="1.92727">
        <ele>278.9</ele>
        <time>2012-09-20T13:29:59Z</time>
      </trkpt>
      <trkpt lat="44.97995" lon="1.92748">
        <ele>279.4</ele>
        <time>2012-09-20T13:30:06Z</time>
      </trkpt>
      <trkpt lat="44.98" lon="1.92761">
        <ele>279.9</ele>
        <time>2012-09-20T13:30:13Z</time>
      </trkpt>
      <trkpt lat="44.98001" lon="1.92768">
        <ele>279.9</ele>
        <time>2012-09-20T13:30:20Z</time>
      </trkpt>
      <trkpt lat="44.98003" lon="1.92771">
        <ele>280.4</ele>
        <time>2012-09-20T13:30:23Z</time>
      </trkpt>
      <trkpt lat="44.98016" lon="1.92767">
        <ele>283.2</ele>
        <time>2012-09-20T13:30:30Z</time>
      </trkpt>
      <trkpt lat="44.98019" lon="1.92766">
        <ele>278</ele>
        <time>2012-09-20T13:30:31Z</time>
      </trkpt>
      <trkpt lat="44.98021" lon="1.92764">
        <ele>284.7</ele>
        <time>2012-09-20T13:30:32Z</time>
      </trkpt>
      <trkpt lat="44.98025" lon="1.92759">
        <ele>277</ele>
        <time>2012-09-20T13:30:34Z</time>
      </trkpt>
      <trkpt lat="44.98027" lon="1.92757">
        <ele>286.1</ele>
        <time>2012-09-20T13:30:35Z</time>
      </trkpt>
      <trkpt lat="44.98029" lon="1.92755">
        <ele>290.5</ele>
        <time>2012-09-20T13:30:36Z</time>
      </trkpt>
      <trkpt lat="44.9803" lon="1.92753">
        <ele>286.1</ele>
        <time>2012-09-20T13:30:37Z</time>
      </trkpt>
      <trkpt lat="44.98032" lon="1.92751">
        <ele>278.4</ele>
        <time>2012-09-20T13:30:38Z</time>
      </trkpt>
      <trkpt lat="44.98034" lon="1.92749">
        <ele>288.5</ele>
        <time>2012-09-20T13:30:39Z</time>
      </trkpt>
      <trkpt lat="44.98045" lon="1.92735">
        <ele>289.5</ele>
        <time>2012-09-20T13:30:46Z</time>
      </trkpt>
      <trkpt lat="44.98056" lon="1.92728">
        <ele>292.9</ele>
        <time>2012-09-20T13:30:52Z</time>
      </trkpt>
      <trkpt lat="44.98058" lon="1.92727">
        <ele>293.3</ele>
        <time>2012-09-20T13:30:53Z</time>
      </trkpt>
      <trkpt lat="44.98075" lon="1.92723">
        <ele>297.2</ele>
        <time>2012-09-20T13:31:01Z</time>
      </trkpt>
      <trkpt lat="44.98078" lon="1.92717">
        <ele>298.6</ele>
        <time>2012-09-20T13:31:05Z</time>
      </trkpt>
      <trkpt lat="44.9807" lon="1.92703">
        <ele>299.6</ele>
        <time>2012-09-20T13:31:09Z</time>
      </trkpt>
      <trkpt lat="44.9805" lon="1.92677">
        <ele>302.5</ele>
        <time>2012-09-20T13:31:17Z</time>
      </trkpt>
      <trkpt lat="44.9804" lon="1.92656">
        <ele>305.4</ele>
        <time>2012-09-20T13:31:23Z</time>
      </trkpt>
      <trkpt lat="44.98034" lon="1.92645">
        <ele>307.3</ele>
        <time>2012-09-20T13:31:26Z</time>
      </trkpt>
      <trkpt lat="44.98023" lon="1.92627">
        <ele>310.6</ele>
        <time>2012-09-20T13:31:32Z</time>
      </trkpt>
      <trkpt lat="44.98019" lon="1.92621">
        <ele>311.6</ele>
        <time>2012-09-20T13:31:34Z</time>
      </trkpt>
      <trkpt lat="44.98011" lon="1.92615">
        <ele>314.5</ele>
        <time>2012-09-20T13:31:38Z</time>
      </trkpt>
      <trkpt lat="44.98001" lon="1.92607">
        <ele>316.9</ele>
        <time>2012-09-20T13:31:42Z</time>
      </trkpt>
      <trkpt lat="44.97996" lon="1.92601">
        <ele>318.3</ele>
        <time>2012-09-20T13:31:44Z</time>
      </trkpt>
      <trkpt lat="44.97986" lon="1.9258">
        <ele>320.7</ele>
        <time>2012-09-20T13:31:50Z</time>
      </trkpt>
      <trkpt lat="44.97983" lon="1.92558">
        <ele>323.6</ele>
        <time>2012-09-20T13:31:55Z</time>
      </trkpt>
      <trkpt lat="44.97979" lon="1.92541">
        <ele>326</ele>
        <time>2012-09-20T13:31:59Z</time>
      </trkpt>
      <trkpt lat="44.97968" lon="1.92528">
        <ele>327.5</ele>
        <time>2012-09-20T13:32:04Z</time>
      </trkpt>
      <trkpt lat="44.97949" lon="1.92517">
        <ele>330.8</ele>
        <time>2012-09-20T13:32:10Z</time>
      </trkpt>
      <trkpt lat="44.97928" lon="1.92504">
        <ele>334.2</ele>
        <time>2012-09-20T13:32:17Z</time>
      </trkpt>
      <trkpt lat="44.97911" lon="1.92491">
        <ele>337.6</ele>
        <time>2012-09-20T13:32:22Z</time>
      </trkpt>
      <trkpt lat="44.97904" lon="1.9248">
        <ele>339</ele>
        <time>2012-09-20T13:32:25Z</time>
      </trkpt>
      <trkpt lat="44.97899" lon="1.92468">
        <ele>340.4</ele>
        <time>2012-09-20T13:32:28Z</time>
      </trkpt>
      <trkpt lat="44.97897" lon="1.92458">
        <ele>341.9</ele>
        <time>2012-09-20T13:32:30Z</time>
      </trkpt>
      <trkpt lat="44.97886" lon="1.92442">
        <ele>344.3</ele>
        <time>2012-09-20T13:32:35Z</time>
      </trkpt>
      <trkpt lat="44.97864" lon="1.92418">
        <ele>347.6</ele>
        <time>2012-09-20T13:32:43Z</time>
      </trkpt>
      <trkpt lat="44.9785" lon="1.92399">
        <ele>351</ele>
        <time>2012-09-20T13:32:49Z</time>
      </trkpt>
      <trkpt lat="44.97845" lon="1.92391">
        <ele>352.5</ele>
        <time>2012-09-20T13:32:52Z</time>
      </trkpt>
      <trkpt lat="44.97838" lon="1.92381">
        <ele>353.9</ele>
        <time>2012-09-20T13:32:55Z</time>
      </trkpt>
      <trkpt lat="44.97828" lon="1.92361">
        <ele>356.3</ele>
        <time>2012-09-20T13:33:01Z</time>
      </trkpt>
      <trkpt lat="44.97825" lon="1.92336">
        <ele>358.7</ele>
        <time>2012-09-20T13:33:08Z</time>
      </trkpt>
      <trkpt lat="44.97837" lon="1.92318">
        <ele>360.6</ele>
        <time>2012-09-20T13:33:13Z</time>
      </trkpt>
      <trkpt lat="44.97862" lon="1.9231">
        <ele>362.1</ele>
        <time>2012-09-20T13:33:19Z</time>
      </trkpt>
      <trkpt lat="44.97881" lon="1.92321">
        <ele>365</ele>
        <time>2012-09-20T13:33:25Z</time>
      </trkpt>
      <trkpt lat="44.97896" lon="1.92336">
        <ele>367.8</ele>
        <time>2012-09-20T13:33:32Z</time>
      </trkpt>
      <trkpt lat="44.97905" lon="1.9234">
        <ele>369.3</ele>
        <time>2012-09-20T13:33:35Z</time>
      </trkpt>
      <trkpt lat="44.97929" lon="1.92349">
        <ele>372.2</ele>
        <time>2012-09-20T13:33:43Z</time>
      </trkpt>
      <trkpt lat="44.97935" lon="1.9235">
        <ele>373.6</ele>
        <time>2012-09-20T13:33:45Z</time>
      </trkpt>
      <trkpt lat="44.97944" lon="1.9235">
        <ele>374.6</ele>
        <time>2012-09-20T13:33:48Z</time>
      </trkpt>
      <trkpt lat="44.97952" lon="1.92351">
        <ele>376.5</ele>
        <time>2012-09-20T13:33:51Z</time>
      </trkpt>
      <trkpt lat="44.97971" lon="1.92354">
        <ele>378.4</ele>
        <time>2012-09-20T13:33:58Z</time>
      </trkpt>
      <trkpt lat="44.97979" lon="1.92357">
        <ele>379.9</ele>
        <time>2012-09-20T13:34:01Z</time>
      </trkpt>
      <trkpt lat="44.97997" lon="1.92359">
        <ele>383.2</ele>
        <time>2012-09-20T13:34:07Z</time>
      </trkpt>
      <trkpt lat="44.98" lon="1.92359">
        <ele>383.2</ele>
        <time>2012-09-20T13:34:08Z</time>
      </trkpt>
      <trkpt lat="44.98005" lon="1.92359">
        <ele>384.7</ele>
        <time>2012-09-20T13:34:10Z</time>
      </trkpt>
      <trkpt lat="44.98021" lon="1.9235">
        <ele>385.1</ele>
        <time>2012-09-20T13:34:15Z</time>
      </trkpt>
      <trkpt lat="44.98035" lon="1.92344">
        <ele>385.1</ele>
        <time>2012-09-20T13:34:22Z</time>
      </trkpt>
      <trkpt lat="44.9806" lon="1.92335">
        <ele>385.6</ele>
        <time>2012-09-20T13:34:32Z</time>
      </trkpt>
      <trkpt lat="44.98087" lon="1.92322">
        <ele>384.2</ele>
        <time>2012-09-20T13:34:42Z</time>
      </trkpt>
      <trkpt lat="44.98106" lon="1.92313">
        <ele>388</ele>
        <time>2012-09-20T13:34:49Z</time>
      </trkpt>
      <trkpt lat="44.98109" lon="1.92312">
        <ele>384.7</ele>
        <time>2012-09-20T13:34:50Z</time>
      </trkpt>
      <trkpt lat="44.98138" lon="1.92312">
        <ele>386.1</ele>
        <time>2012-09-20T13:34:58Z</time>
      </trkpt>
      <trkpt lat="44.98158" lon="1.92314">
        <ele>386.1</ele>
        <time>2012-09-20T13:35:04Z</time>
      </trkpt>
      <trkpt lat="44.9818" lon="1.92311">
        <ele>385.1</ele>
        <time>2012-09-20T13:35:12Z</time>
      </trkpt>
      <trkpt lat="44.98183" lon="1.92311">
        <ele>385.1</ele>
        <time>2012-09-20T13:35:18Z</time>
      </trkpt>
      <trkpt lat="44.98183" lon="1.92311">
        <ele>384.7</ele>
        <time>2012-09-20T13:35:20Z</time>
      </trkpt>
      <trkpt lat="44.98192" lon="1.92311">
        <ele>384.7</ele>
        <time>2012-09-20T13:35:25Z</time>
      </trkpt>
      <trkpt lat="44.98199" lon="1.92316">
        <ele>384.7</ele>
        <time>2012-09-20T13:35:33Z</time>
      </trkpt>
      <trkpt lat="44.98201" lon="1.92318">
        <ele>385.1</ele>
        <time>2012-09-20T13:35:35Z</time>
      </trkpt>
      <trkpt lat="44.98209" lon="1.92324">
        <ele>380.3</ele>
        <time>2012-09-20T13:35:39Z</time>
      </trkpt>
      <trkpt lat="44.9823" lon="1.92334">
        <ele>388</ele>
        <time>2012-09-20T13:35:48Z</time>
      </trkpt>
      <trkpt lat="44.98232" lon="1.92334">
        <ele>387.1</ele>
        <time>2012-09-20T13:35:49Z</time>
      </trkpt>
      <trkpt lat="44.98254" lon="1.92335">
        <ele>387.5</ele>
        <time>2012-09-20T13:35:56Z</time>
      </trkpt>
      <trkpt lat="44.98281" lon="1.92331">
        <ele>385.6</ele>
        <time>2012-09-20T13:36:04Z</time>
      </trkpt>
      <trkpt lat="44.9829" lon="1.92327">
        <ele>384.7</ele>
        <time>2012-09-20T13:36:09Z</time>
      </trkpt>
      <trkpt lat="44.98291" lon="1.92327">
        <ele>384.7</ele>
        <time>2012-09-20T13:36:10Z</time>
      </trkpt>
      <trkpt lat="44.98299" lon="1.92332">
        <ele>384.7</ele>
        <time>2012-09-20T13:36:14Z</time>
      </trkpt>
      <trkpt lat="44.98296" lon="1.92377">
        <ele>388</ele>
        <time>2012-09-20T13:36:23Z</time>
      </trkpt>
      <trkpt lat="44.98291" lon="1.92435">
        <ele>389</ele>
        <time>2012-09-20T13:36:31Z</time>
      </trkpt>
      <trkpt lat="44.98286" lon="1.92491">
        <ele>390.4</ele>
        <time>2012-09-20T13:36:37Z</time>
      </trkpt>
      <trkpt lat="44.98285" lon="1.925">
        <ele>390.4</ele>
        <time>2012-09-20T13:36:38Z</time>
      </trkpt>
      <trkpt lat="44.98283" lon="1.92508">
        <ele>390.4</ele>
        <time>2012-09-20T13:36:39Z</time>
      </trkpt>
      <trkpt lat="44.9828" lon="1.92516">
        <ele>390.9</ele>
        <time>2012-09-20T13:36:40Z</time>
      </trkpt>
      <trkpt lat="44.98272" lon="1.92539">
        <ele>392.4</ele>
        <time>2012-09-20T13:36:43Z</time>
      </trkpt>
      <trkpt lat="44.9827" lon="1.92547">
        <ele>392.4</ele>
        <time>2012-09-20T13:36:44Z</time>
      </trkpt>
      <trkpt lat="44.9827" lon="1.92555">
        <ele>392.8</ele>
        <time>2012-09-20T13:36:45Z</time>
      </trkpt>
      <trkpt lat="44.9827" lon="1.92564">
        <ele>393.3</ele>
        <time>2012-09-20T13:36:46Z</time>
      </trkpt>
      <trkpt lat="44.98271" lon="1.92573">
        <ele>394.8</ele>
        <time>2012-09-20T13:36:47Z</time>
      </trkpt>
      <trkpt lat="44.98273" lon="1.92581">
        <ele>395.2</ele>
        <time>2012-09-20T13:36:48Z</time>
      </trkpt>
      <trkpt lat="44.98275" lon="1.92589">
        <ele>396.2</ele>
        <time>2012-09-20T13:36:49Z</time>
      </trkpt>
      <trkpt lat="44.98279" lon="1.92597">
        <ele>395.7</ele>
        <time>2012-09-20T13:36:50Z</time>
      </trkpt>
      <trkpt lat="44.98282" lon="1.92604">
        <ele>396.2</ele>
        <time>2012-09-20T13:36:51Z</time>
      </trkpt>
      <trkpt lat="44.98286" lon="1.9261">
        <ele>397.6</ele>
        <time>2012-09-20T13:36:52Z</time>
      </trkpt>
      <trkpt lat="44.98291" lon="1.92615">
        <ele>397.6</ele>
        <time>2012-09-20T13:36:53Z</time>
      </trkpt>
      <trkpt lat="44.98295" lon="1.92621">
        <ele>398.6</ele>
        <time>2012-09-20T13:36:54Z</time>
      </trkpt>
      <trkpt lat="44.98303" lon="1.92631">
        <ele>399.6</ele>
        <time>2012-09-20T13:36:56Z</time>
      </trkpt>
      <trkpt lat="44.98312" lon="1.9264">
        <ele>401</ele>
        <time>2012-09-20T13:36:58Z</time>
      </trkpt>
      <trkpt lat="44.98321" lon="1.92648">
        <ele>402.5</ele>
        <time>2012-09-20T13:37:00Z</time>
      </trkpt>
      <trkpt lat="44.98341" lon="1.92662">
        <ele>404.4</ele>
        <time>2012-09-20T13:37:04Z</time>
      </trkpt>
      <trkpt lat="44.98347" lon="1.92664">
        <ele>404.9</ele>
        <time>2012-09-20T13:37:05Z</time>
      </trkpt>
      <trkpt lat="44.98352" lon="1.92665">
        <ele>404.9</ele>
        <time>2012-09-20T13:37:06Z</time>
      </trkpt>
      <trkpt lat="44.98357" lon="1.92666">
        <ele>405.8</ele>
        <time>2012-09-20T13:37:07Z</time>
      </trkpt>
      <trkpt lat="44.98363" lon="1.92666">
        <ele>405.8</ele>
        <time>2012-09-20T13:37:08Z</time>
      </trkpt>
      <trkpt lat="44.98392" lon="1.92663">
        <ele>408.7</ele>
        <time>2012-09-20T13:37:13Z</time>
      </trkpt>
      <trkpt lat="44.98428" lon="1.92653">
        <ele>411.6</ele>
        <time>2012-09-20T13:37:19Z</time>
      </trkpt>
      <trkpt lat="44.98458" lon="1.92644">
        <ele>417.8</ele>
        <time>2012-09-20T13:37:24Z</time>
      </trkpt>
      <trkpt lat="44.98464" lon="1.92642">
        <ele>415</ele>
        <time>2012-09-20T13:37:25Z</time>
      </trkpt>
      <trkpt lat="44.98469" lon="1.92641">
        <ele>414</ele>
        <time>2012-09-20T13:37:26Z</time>
      </trkpt>
      <trkpt lat="44.98487" lon="1.92646">
        <ele>415.9</ele>
        <time>2012-09-20T13:37:31Z</time>
      </trkpt>
      <trkpt lat="44.98489" lon="1.9265">
        <ele>415.4</ele>
        <time>2012-09-20T13:37:32Z</time>
      </trkpt>
      <trkpt lat="44.98489" lon="1.92655">
        <ele>415.9</ele>
        <time>2012-09-20T13:37:33Z</time>
      </trkpt>
      <trkpt lat="44.98487" lon="1.92659">
        <ele>416.9</ele>
        <time>2012-09-20T13:37:34Z</time>
      </trkpt>
      <trkpt lat="44.98485" lon="1.92663">
        <ele>417.4</ele>
        <time>2012-09-20T13:37:35Z</time>
      </trkpt>
      <trkpt lat="44.98482" lon="1.92667">
        <ele>418.3</ele>
        <time>2012-09-20T13:37:36Z</time>
      </trkpt>
      <trkpt lat="44.98478" lon="1.9267">
        <ele>418.3</ele>
        <time>2012-09-20T13:37:37Z</time>
      </trkpt>
      <trkpt lat="44.98475" lon="1.92674">
        <ele>419.3</ele>
        <time>2012-09-20T13:37:38Z</time>
      </trkpt>
      <trkpt lat="44.98471" lon="1.92678">
        <ele>419.8</ele>
        <time>2012-09-20T13:37:39Z</time>
      </trkpt>
      <trkpt lat="44.98463" lon="1.92687">
        <ele>420.7</ele>
        <time>2012-09-20T13:37:41Z</time>
      </trkpt>
      <trkpt lat="44.98439" lon="1.92728">
        <ele>423.1</ele>
        <time>2012-09-20T13:37:48Z</time>
      </trkpt>
      <trkpt lat="44.9843" lon="1.92743">
        <ele>424.6</ele>
        <time>2012-09-20T13:37:50Z</time>
      </trkpt>
      <trkpt lat="44.98395" lon="1.92807">
        <ele>427.9</ele>
        <time>2012-09-20T13:37:58Z</time>
      </trkpt>
      <trkpt lat="44.98375" lon="1.92837">
        <ele>429.4</ele>
        <time>2012-09-20T13:38:04Z</time>
      </trkpt>
      <trkpt lat="44.98373" lon="1.92843">
        <ele>429.4</ele>
        <time>2012-09-20T13:38:05Z</time>
      </trkpt>
      <trkpt lat="44.98373" lon="1.92849">
        <ele>429.4</ele>
        <time>2012-09-20T13:38:06Z</time>
      </trkpt>
      <trkpt lat="44.98373" lon="1.92854">
        <ele>430.3</ele>
        <time>2012-09-20T13:38:07Z</time>
      </trkpt>
      <trkpt lat="44.98376" lon="1.92858">
        <ele>430.3</ele>
        <time>2012-09-20T13:38:08Z</time>
      </trkpt>
      <trkpt lat="44.98379" lon="1.9286">
        <ele>430.8</ele>
        <time>2012-09-20T13:38:09Z</time>
      </trkpt>
      <trkpt lat="44.98381" lon="1.92861">
        <ele>431.8</ele>
        <time>2012-09-20T13:38:10Z</time>
      </trkpt>
      <trkpt lat="44.98385" lon="1.9286">
        <ele>431.8</ele>
        <time>2012-09-20T13:38:11Z</time>
      </trkpt>
      <trkpt lat="44.98409" lon="1.92848">
        <ele>435.6</ele>
        <time>2012-09-20T13:38:17Z</time>
      </trkpt>
      <trkpt lat="44.98413" lon="1.92846">
        <ele>435.6</ele>
        <time>2012-09-20T13:38:18Z</time>
      </trkpt>
      <trkpt lat="44.98422" lon="1.92841">
        <ele>436.6</ele>
        <time>2012-09-20T13:38:20Z</time>
      </trkpt>
      <trkpt lat="44.9843" lon="1.92835">
        <ele>438</ele>
        <time>2012-09-20T13:38:22Z</time>
      </trkpt>
      <trkpt lat="44.98455" lon="1.92819">
        <ele>439.5</ele>
        <time>2012-09-20T13:38:27Z</time>
      </trkpt>
      <trkpt lat="44.98467" lon="1.92812">
        <ele>440.4</ele>
        <time>2012-09-20T13:38:29Z</time>
      </trkpt>
      <trkpt lat="44.98477" lon="1.92807">
        <ele>441.4</ele>
        <time>2012-09-20T13:38:31Z</time>
      </trkpt>
      <trkpt lat="44.98482" lon="1.92806">
        <ele>441.9</ele>
        <time>2012-09-20T13:38:32Z</time>
      </trkpt>
      <trkpt lat="44.98487" lon="1.92807">
        <ele>442.8</ele>
        <time>2012-09-20T13:38:33Z</time>
      </trkpt>
      <trkpt lat="44.98491" lon="1.92808">
        <ele>443.3</ele>
        <time>2012-09-20T13:38:34Z</time>
      </trkpt>
      <trkpt lat="44.98496" lon="1.92811">
        <ele>442.8</ele>
        <time>2012-09-20T13:38:35Z</time>
      </trkpt>
      <trkpt lat="44.98531" lon="1.92838">
        <ele>445.2</ele>
        <time>2012-09-20T13:38:42Z</time>
      </trkpt>
      <trkpt lat="44.98575" lon="1.92872">
        <ele>446.7</ele>
        <time>2012-09-20T13:38:51Z</time>
      </trkpt>
      <trkpt lat="44.98608" lon="1.92896">
        <ele>450</ele>
        <time>2012-09-20T13:38:57Z</time>
      </trkpt>
      <trkpt lat="44.98637" lon="1.92923">
        <ele>452.4</ele>
        <time>2012-09-20T13:39:03Z</time>
      </trkpt>
      <trkpt lat="44.98645" lon="1.92934">
        <ele>452.9</ele>
        <time>2012-09-20T13:39:05Z</time>
      </trkpt>
      <trkpt lat="44.98649" lon="1.92941">
        <ele>453.4</ele>
        <time>2012-09-20T13:39:06Z</time>
      </trkpt>
      <trkpt lat="44.98651" lon="1.92947">
        <ele>453.9</ele>
        <time>2012-09-20T13:39:07Z</time>
      </trkpt>
      <trkpt lat="44.98653" lon="1.92953">
        <ele>454.4</ele>
        <time>2012-09-20T13:39:08Z</time>
      </trkpt>
      <trkpt lat="44.98654" lon="1.9296">
        <ele>454.4</ele>
        <time>2012-09-20T13:39:09Z</time>
      </trkpt>
      <trkpt lat="44.98662" lon="1.93014">
        <ele>456.8</ele>
        <time>2012-09-20T13:39:16Z</time>
      </trkpt>
      <trkpt lat="44.98666" lon="1.93037">
        <ele>458.2</ele>
        <time>2012-09-20T13:39:19Z</time>
      </trkpt>
      <trkpt lat="44.98667" lon="1.93045">
        <ele>459.2</ele>
        <time>2012-09-20T13:39:20Z</time>
      </trkpt>
      <trkpt lat="44.98669" lon="1.93052">
        <ele>459.6</ele>
        <time>2012-09-20T13:39:21Z</time>
      </trkpt>
      <trkpt lat="44.98672" lon="1.93059">
        <ele>460.1</ele>
        <time>2012-09-20T13:39:22Z</time>
      </trkpt>
      <trkpt lat="44.98675" lon="1.93065">
        <ele>460.6</ele>
        <time>2012-09-20T13:39:23Z</time>
      </trkpt>
      <trkpt lat="44.98678" lon="1.93072">
        <ele>461.1</ele>
        <time>2012-09-20T13:39:24Z</time>
      </trkpt>
      <trkpt lat="44.98698" lon="1.93128">
        <ele>463</ele>
        <time>2012-09-20T13:39:31Z</time>
      </trkpt>
      <trkpt lat="44.98716" lon="1.93174">
        <ele>466.9</ele>
        <time>2012-09-20T13:39:37Z</time>
      </trkpt>
      <trkpt lat="44.98729" lon="1.93192">
        <ele>463</ele>
        <time>2012-09-20T13:39:40Z</time>
      </trkpt>
      <trkpt lat="44.98734" lon="1.93197">
        <ele>462.5</ele>
        <time>2012-09-20T13:39:41Z</time>
      </trkpt>
      <trkpt lat="44.98738" lon="1.93202">
        <ele>468.3</ele>
        <time>2012-09-20T13:39:42Z</time>
      </trkpt>
      <trkpt lat="44.98743" lon="1.93206">
        <ele>466.9</ele>
        <time>2012-09-20T13:39:43Z</time>
      </trkpt>
      <trkpt lat="44.98747" lon="1.93211">
        <ele>470.2</ele>
        <time>2012-09-20T13:39:44Z</time>
      </trkpt>
      <trkpt lat="44.98751" lon="1.93215">
        <ele>468.3</ele>
        <time>2012-09-20T13:39:45Z</time>
      </trkpt>
      <trkpt lat="44.98765" lon="1.93226">
        <ele>473.6</ele>
        <time>2012-09-20T13:39:48Z</time>
      </trkpt>
      <trkpt lat="44.98771" lon="1.9323">
        <ele>470.7</ele>
        <time>2012-09-20T13:39:49Z</time>
      </trkpt>
      <trkpt lat="44.98783" lon="1.93236">
        <ele>471.2</ele>
        <time>2012-09-20T13:39:51Z</time>
      </trkpt>
      <trkpt lat="44.9879" lon="1.93239">
        <ele>471.7</ele>
        <time>2012-09-20T13:39:52Z</time>
      </trkpt>
      <trkpt lat="44.98803" lon="1.93243">
        <ele>472.6</ele>
        <time>2012-09-20T13:39:54Z</time>
      </trkpt>
      <trkpt lat="44.98813" lon="1.93245">
        <ele>473.1</ele>
        <time>2012-09-20T13:39:56Z</time>
      </trkpt>
      <trkpt lat="44.98822" lon="1.93247">
        <ele>474.1</ele>
        <time>2012-09-20T13:39:58Z</time>
      </trkpt>
      <trkpt lat="44.98827" lon="1.93247">
        <ele>474.5</ele>
        <time>2012-09-20T13:39:59Z</time>
      </trkpt>
      <trkpt lat="44.98832" lon="1.93247">
        <ele>475</ele>
        <time>2012-09-20T13:40:00Z</time>
      </trkpt>
      <trkpt lat="44.98848" lon="1.9325">
        <ele>476.5</ele>
        <time>2012-09-20T13:40:03Z</time>
      </trkpt>
      <trkpt lat="44.9888" lon="1.9326">
        <ele>479.4</ele>
        <time>2012-09-20T13:40:11Z</time>
      </trkpt>
      <trkpt lat="44.98888" lon="1.93265">
        <ele>479.8</ele>
        <time>2012-09-20T13:40:13Z</time>
      </trkpt>
      <trkpt lat="44.98892" lon="1.93268">
        <ele>480.3</ele>
        <time>2012-09-20T13:40:14Z</time>
      </trkpt>
      <trkpt lat="44.9892" lon="1.93288">
        <ele>483.2</ele>
        <time>2012-09-20T13:40:21Z</time>
      </trkpt>
      <trkpt lat="44.98936" lon="1.93302">
        <ele>485.6</ele>
        <time>2012-09-20T13:40:25Z</time>
      </trkpt>
      <trkpt lat="44.98953" lon="1.93322">
        <ele>488.5</ele>
        <time>2012-09-20T13:40:30Z</time>
      </trkpt>
      <trkpt lat="44.98956" lon="1.93326">
        <ele>489.5</ele>
        <time>2012-09-20T13:40:31Z</time>
      </trkpt>
      <trkpt lat="44.98962" lon="1.93336">
        <ele>490.4</ele>
        <time>2012-09-20T13:40:33Z</time>
      </trkpt>
      <trkpt lat="44.98978" lon="1.93367">
        <ele>492.8</ele>
        <time>2012-09-20T13:40:39Z</time>
      </trkpt>
      <trkpt lat="44.99001" lon="1.93416">
        <ele>496.2</ele>
        <time>2012-09-20T13:40:47Z</time>
      </trkpt>
      <trkpt lat="44.99007" lon="1.93429">
        <ele>497.1</ele>
        <time>2012-09-20T13:40:49Z</time>
      </trkpt>
      <trkpt lat="44.99015" lon="1.93449">
        <ele>498.1</ele>
        <time>2012-09-20T13:40:52Z</time>
      </trkpt>
      <trkpt lat="44.99031" lon="1.9349">
        <ele>500.5</ele>
        <time>2012-09-20T13:40:58Z</time>
      </trkpt>
      <trkpt lat="44.99034" lon="1.93498">
        <ele>501</ele>
        <time>2012-09-20T13:40:59Z</time>
      </trkpt>
      <trkpt lat="44.99065" lon="1.93578">
        <ele>503.9</ele>
        <time>2012-09-20T13:41:09Z</time>
      </trkpt>
      <trkpt lat="44.9907" lon="1.93585">
        <ele>504.4</ele>
        <time>2012-09-20T13:41:10Z</time>
      </trkpt>
      <trkpt lat="44.99112" lon="1.9363">
        <ele>503.4</ele>
        <time>2012-09-20T13:41:17Z</time>
      </trkpt>
      <trkpt lat="44.99124" lon="1.93641">
        <ele>511.6</ele>
        <time>2012-09-20T13:41:19Z</time>
      </trkpt>
      <trkpt lat="44.99131" lon="1.93645">
        <ele>505.8</ele>
        <time>2012-09-20T13:41:20Z</time>
      </trkpt>
      <trkpt lat="44.99193" lon="1.93684">
        <ele>506.8</ele>
        <time>2012-09-20T13:41:30Z</time>
      </trkpt>
      <trkpt lat="44.99236" lon="1.93715">
        <ele>509.6</ele>
        <time>2012-09-20T13:41:38Z</time>
      </trkpt>
      <trkpt lat="44.99241" lon="1.93719">
        <ele>500</ele>
        <time>2012-09-20T13:41:39Z</time>
      </trkpt>
      <trkpt lat="44.99246" lon="1.93722">
        <ele>512</ele>
        <time>2012-09-20T13:41:40Z</time>
      </trkpt>
      <trkpt lat="44.99274" lon="1.93741">
        <ele>510.1</ele>
        <time>2012-09-20T13:41:46Z</time>
      </trkpt>
      <trkpt lat="44.99278" lon="1.93746">
        <ele>510.6</ele>
        <time>2012-09-20T13:41:47Z</time>
      </trkpt>
      <trkpt lat="44.9928" lon="1.93753">
        <ele>510.6</ele>
        <time>2012-09-20T13:41:48Z</time>
      </trkpt>
      <trkpt lat="44.99281" lon="1.9376">
        <ele>511.1</ele>
        <time>2012-09-20T13:41:49Z</time>
      </trkpt>
      <trkpt lat="44.9928" lon="1.93768">
        <ele>510.6</ele>
        <time>2012-09-20T13:41:50Z</time>
      </trkpt>
      <trkpt lat="44.99279" lon="1.93776">
        <ele>510.6</ele>
        <time>2012-09-20T13:41:51Z</time>
      </trkpt>
      <trkpt lat="44.99278" lon="1.93784">
        <ele>511.1</ele>
        <time>2012-09-20T13:41:52Z</time>
      </trkpt>
      <trkpt lat="44.99275" lon="1.93792">
        <ele>511.6</ele>
        <time>2012-09-20T13:41:53Z</time>
      </trkpt>
      <trkpt lat="44.99272" lon="1.938">
        <ele>511.1</ele>
        <time>2012-09-20T13:41:54Z</time>
      </trkpt>
      <trkpt lat="44.99269" lon="1.93808">
        <ele>511.1</ele>
        <time>2012-09-20T13:41:55Z</time>
      </trkpt>
      <trkpt lat="44.99266" lon="1.93815">
        <ele>511.6</ele>
        <time>2012-09-20T13:41:56Z</time>
      </trkpt>
      <trkpt lat="44.9925" lon="1.93852">
        <ele>509.6</ele>
        <time>2012-09-20T13:42:01Z</time>
      </trkpt>
      <trkpt lat="44.99248" lon="1.9386">
        <ele>508.7</ele>
        <time>2012-09-20T13:42:02Z</time>
      </trkpt>
      <trkpt lat="44.99247" lon="1.93868">
        <ele>508.7</ele>
        <time>2012-09-20T13:42:03Z</time>
      </trkpt>
      <trkpt lat="44.99247" lon="1.93876">
        <ele>509.2</ele>
        <time>2012-09-20T13:42:04Z</time>
      </trkpt>
      <trkpt lat="44.99247" lon="1.93884">
        <ele>509.2</ele>
        <time>2012-09-20T13:42:05Z</time>
      </trkpt>
      <trkpt lat="44.99249" lon="1.93907">
        <ele>509.6</ele>
        <time>2012-09-20T13:42:08Z</time>
      </trkpt>
      <trkpt lat="44.99247" lon="1.93967">
        <ele>509.6</ele>
        <time>2012-09-20T13:42:16Z</time>
      </trkpt>
      <trkpt lat="44.99244" lon="1.94007">
        <ele>511.1</ele>
        <time>2012-09-20T13:42:21Z</time>
      </trkpt>
      <trkpt lat="44.99241" lon="1.94065">
        <ele>512.5</ele>
        <time>2012-09-20T13:42:29Z</time>
      </trkpt>
      <trkpt lat="44.99239" lon="1.94084">
        <ele>514</ele>
        <time>2012-09-20T13:42:34Z</time>
      </trkpt>
      <trkpt lat="44.99238" lon="1.94124">
        <ele>511.1</ele>
        <time>2012-09-20T13:42:39Z</time>
      </trkpt>
      <trkpt lat="44.99238" lon="1.94136">
        <ele>521.7</ele>
        <time>2012-09-20T13:42:40Z</time>
      </trkpt>
      <trkpt lat="44.99239" lon="1.94148">
        <ele>519.7</ele>
        <time>2012-09-20T13:42:41Z</time>
      </trkpt>
      <trkpt lat="44.99239" lon="1.94173">
        <ele>522.6</ele>
        <time>2012-09-20T13:42:43Z</time>
      </trkpt>
      <trkpt lat="44.99239" lon="1.94186">
        <ele>519.2</ele>
        <time>2012-09-20T13:42:44Z</time>
      </trkpt>
      <trkpt lat="44.99238" lon="1.94198">
        <ele>524.5</ele>
        <time>2012-09-20T13:42:45Z</time>
      </trkpt>
      <trkpt lat="44.99236" lon="1.94209">
        <ele>523.6</ele>
        <time>2012-09-20T13:42:46Z</time>
      </trkpt>
      <trkpt lat="44.99229" lon="1.94242">
        <ele>525.5</ele>
        <time>2012-09-20T13:42:49Z</time>
      </trkpt>
      <trkpt lat="44.99212" lon="1.94295">
        <ele>529.3</ele>
        <time>2012-09-20T13:42:54Z</time>
      </trkpt>
      <trkpt lat="44.99196" lon="1.94327">
        <ele>530.8</ele>
        <time>2012-09-20T13:42:57Z</time>
      </trkpt>
      <trkpt lat="44.9917" lon="1.94375">
        <ele>532.7</ele>
        <time>2012-09-20T13:43:03Z</time>
      </trkpt>
      <trkpt lat="44.99142" lon="1.94452">
        <ele>532.7</ele>
        <time>2012-09-20T13:43:11Z</time>
      </trkpt>
      <trkpt lat="44.99124" lon="1.94507">
        <ele>531.3</ele>
        <time>2012-09-20T13:43:17Z</time>
      </trkpt>
      <trkpt lat="44.99115" lon="1.9453">
        <ele>529.3</ele>
        <time>2012-09-20T13:43:21Z</time>
      </trkpt>
      <trkpt lat="44.99113" lon="1.94536">
        <ele>527.9</ele>
        <time>2012-09-20T13:43:23Z</time>
      </trkpt>
      <trkpt lat="44.99114" lon="1.94546">
        <ele>527.9</ele>
        <time>2012-09-20T13:43:26Z</time>
      </trkpt>
      <trkpt lat="44.99117" lon="1.9455">
        <ele>528.4</ele>
        <time>2012-09-20T13:43:27Z</time>
      </trkpt>
      <trkpt lat="44.99131" lon="1.94565">
        <ele>528.9</ele>
        <time>2012-09-20T13:43:31Z</time>
      </trkpt>
      <trkpt lat="44.99136" lon="1.94568">
        <ele>529.3</ele>
        <time>2012-09-20T13:43:32Z</time>
      </trkpt>
      <trkpt lat="44.99165" lon="1.94585">
        <ele>529.8</ele>
        <time>2012-09-20T13:43:37Z</time>
      </trkpt>
      <trkpt lat="44.9922" lon="1.94609">
        <ele>530.8</ele>
        <time>2012-09-20T13:43:45Z</time>
      </trkpt>
      <trkpt lat="44.99233" lon="1.94623">
        <ele>530.8</ele>
        <time>2012-09-20T13:43:47Z</time>
      </trkpt>
      <trkpt lat="44.99239" lon="1.94632">
        <ele>530.8</ele>
        <time>2012-09-20T13:43:48Z</time>
      </trkpt>
      <trkpt lat="44.99279" lon="1.94708">
        <ele>533.2</ele>
        <time>2012-09-20T13:43:55Z</time>
      </trkpt>
      <trkpt lat="44.9929" lon="1.94734">
        <ele>534.2</ele>
        <time>2012-09-20T13:43:57Z</time>
      </trkpt>
      <trkpt lat="44.99322" lon="1.94804">
        <ele>534.6</ele>
        <time>2012-09-20T13:44:03Z</time>
      </trkpt>
      <trkpt lat="44.99328" lon="1.94815">
        <ele>535.6</ele>
        <time>2012-09-20T13:44:04Z</time>
      </trkpt>
      <trkpt lat="44.99369" lon="1.94874">
        <ele>532.7</ele>
        <time>2012-09-20T13:44:10Z</time>
      </trkpt>
      <trkpt lat="44.99418" lon="1.94949">
        <ele>533.2</ele>
        <time>2012-09-20T13:44:17Z</time>
      </trkpt>
      <trkpt lat="44.9944" lon="1.95009">
        <ele>529.3</ele>
        <time>2012-09-20T13:44:22Z</time>
      </trkpt>
      <trkpt lat="44.99443" lon="1.95021">
        <ele>529.3</ele>
        <time>2012-09-20T13:44:23Z</time>
      </trkpt>
      <trkpt lat="44.99448" lon="1.95047">
        <ele>529.3</ele>
        <time>2012-09-20T13:44:25Z</time>
      </trkpt>
      <trkpt lat="44.99449" lon="1.9506">
        <ele>528.9</ele>
        <time>2012-09-20T13:44:26Z</time>
      </trkpt>
      <trkpt lat="44.99447" lon="1.9516">
        <ele>526.9</ele>
        <time>2012-09-20T13:44:34Z</time>
      </trkpt>
      <trkpt lat="44.99447" lon="1.95171">
        <ele>526.9</ele>
        <time>2012-09-20T13:44:35Z</time>
      </trkpt>
      <trkpt lat="44.99445" lon="1.9519">
        <ele>524.5</ele>
        <time>2012-09-20T13:44:38Z</time>
      </trkpt>
      <trkpt lat="44.9944" lon="1.9521">
        <ele>524.5</ele>
        <time>2012-09-20T13:44:44Z</time>
      </trkpt>
      <trkpt lat="44.99439" lon="1.95216">
        <ele>525</ele>
        <time>2012-09-20T13:44:45Z</time>
      </trkpt>
      <trkpt lat="44.99432" lon="1.95249">
        <ele>524.5</ele>
        <time>2012-09-20T13:44:49Z</time>
      </trkpt>
      <trkpt lat="44.99426" lon="1.95311">
        <ele>525.5</ele>
        <time>2012-09-20T13:44:55Z</time>
      </trkpt>
      <trkpt lat="44.9942" lon="1.95407">
        <ele>527.9</ele>
        <time>2012-09-20T13:45:02Z</time>
      </trkpt>
      <trkpt lat="44.99413" lon="1.95476">
        <ele>534.2</ele>
        <time>2012-09-20T13:45:06Z</time>
      </trkpt>
      <trkpt lat="44.99411" lon="1.95493">
        <ele>531.3</ele>
        <time>2012-09-20T13:45:07Z</time>
      </trkpt>
      <trkpt lat="44.99408" lon="1.95527">
        <ele>537</ele>
        <time>2012-09-20T13:45:09Z</time>
      </trkpt>
      <trkpt lat="44.99407" lon="1.95544">
        <ele>532.2</ele>
        <time>2012-09-20T13:45:10Z</time>
      </trkpt>
      <trkpt lat="44.99407" lon="1.95561">
        <ele>537</ele>
        <time>2012-09-20T13:45:11Z</time>
      </trkpt>
      <trkpt lat="44.99408" lon="1.95594">
        <ele>533.7</ele>
        <time>2012-09-20T13:45:13Z</time>
      </trkpt>
      <trkpt lat="44.99409" lon="1.9561">
        <ele>537.5</ele>
        <time>2012-09-20T13:45:14Z</time>
      </trkpt>
      <trkpt lat="44.9941" lon="1.95625">
        <ele>532.7</ele>
        <time>2012-09-20T13:45:15Z</time>
      </trkpt>
      <trkpt lat="44.99411" lon="1.9564">
        <ele>539</ele>
        <time>2012-09-20T13:45:16Z</time>
      </trkpt>
      <trkpt lat="44.9941" lon="1.95735">
        <ele>542.3</ele>
        <time>2012-09-20T13:45:22Z</time>
      </trkpt>
      <trkpt lat="44.99407" lon="1.95751">
        <ele>542.8</ele>
        <time>2012-09-20T13:45:23Z</time>
      </trkpt>
      <trkpt lat="44.99382" lon="1.95863">
        <ele>546.2</ele>
        <time>2012-09-20T13:45:30Z</time>
      </trkpt>
      <trkpt lat="44.99379" lon="1.95897">
        <ele>547.1</ele>
        <time>2012-09-20T13:45:32Z</time>
      </trkpt>
      <trkpt lat="44.99365" lon="1.95978">
        <ele>549.5</ele>
        <time>2012-09-20T13:45:37Z</time>
      </trkpt>
      <trkpt lat="44.99342" lon="1.96062">
        <ele>552.4</ele>
        <time>2012-09-20T13:45:43Z</time>
      </trkpt>
      <trkpt lat="44.99328" lon="1.96107">
        <ele>555.3</ele>
        <time>2012-09-20T13:45:46Z</time>
      </trkpt>
      <trkpt lat="44.99314" lon="1.96155">
        <ele>557.7</ele>
        <time>2012-09-20T13:45:49Z</time>
      </trkpt>
      <trkpt lat="44.99303" lon="1.96186">
        <ele>560.6</ele>
        <time>2012-09-20T13:45:51Z</time>
      </trkpt>
      <trkpt lat="44.99298" lon="1.96201">
        <ele>561.1</ele>
        <time>2012-09-20T13:45:52Z</time>
      </trkpt>
      <trkpt lat="44.99281" lon="1.96246">
        <ele>562.5</ele>
        <time>2012-09-20T13:45:55Z</time>
      </trkpt>
      <trkpt lat="44.99266" lon="1.9629">
        <ele>564.4</ele>
        <time>2012-09-20T13:45:58Z</time>
      </trkpt>
      <trkpt lat="44.9925" lon="1.96355">
        <ele>567.8</ele>
        <time>2012-09-20T13:46:02Z</time>
      </trkpt>
      <trkpt lat="44.99236" lon="1.96456">
        <ele>568.8</ele>
        <time>2012-09-20T13:46:08Z</time>
      </trkpt>
      <trkpt lat="44.99236" lon="1.96475">
        <ele>568.8</ele>
        <time>2012-09-20T13:46:09Z</time>
      </trkpt>
      <trkpt lat="44.99229" lon="1.96578">
        <ele>569.2</ele>
        <time>2012-09-20T13:46:15Z</time>
      </trkpt>
      <trkpt lat="44.99225" lon="1.96594">
        <ele>570.7</ele>
        <time>2012-09-20T13:46:16Z</time>
      </trkpt>
      <trkpt lat="44.99219" lon="1.96611">
        <ele>570.7</ele>
        <time>2012-09-20T13:46:17Z</time>
      </trkpt>
      <trkpt lat="44.99191" lon="1.96698">
        <ele>569.2</ele>
        <time>2012-09-20T13:46:22Z</time>
      </trkpt>
      <trkpt lat="44.99183" lon="1.96732">
        <ele>568.8</ele>
        <time>2012-09-20T13:46:24Z</time>
      </trkpt>
      <trkpt lat="44.9918" lon="1.96749">
        <ele>568.3</ele>
        <time>2012-09-20T13:46:25Z</time>
      </trkpt>
      <trkpt lat="44.99178" lon="1.96766">
        <ele>568.8</ele>
        <time>2012-09-20T13:46:26Z</time>
      </trkpt>
      <trkpt lat="44.99176" lon="1.96783">
        <ele>566.8</ele>
        <time>2012-09-20T13:46:27Z</time>
      </trkpt>
      <trkpt lat="44.99176" lon="1.96801">
        <ele>569.7</ele>
        <time>2012-09-20T13:46:28Z</time>
      </trkpt>
      <trkpt lat="44.99176" lon="1.96821">
        <ele>567.8</ele>
        <time>2012-09-20T13:46:29Z</time>
      </trkpt>
      <trkpt lat="44.99177" lon="1.96841">
        <ele>563.5</ele>
        <time>2012-09-20T13:46:30Z</time>
      </trkpt>
      <trkpt lat="44.99179" lon="1.96861">
        <ele>567.8</ele>
        <time>2012-09-20T13:46:31Z</time>
      </trkpt>
      <trkpt lat="44.99184" lon="1.96922">
        <ele>571.2</ele>
        <time>2012-09-20T13:46:34Z</time>
      </trkpt>
      <trkpt lat="44.99186" lon="1.96941">
        <ele>569.2</ele>
        <time>2012-09-20T13:46:35Z</time>
      </trkpt>
      <trkpt lat="44.99189" lon="1.9697">
        <ele>564.9</ele>
        <time>2012-09-20T13:46:37Z</time>
      </trkpt>
      <trkpt lat="44.99191" lon="1.96986">
        <ele>561.5</ele>
        <time>2012-09-20T13:46:39Z</time>
      </trkpt>
      <trkpt lat="44.99191" lon="1.9699">
        <ele>563.5</ele>
        <time>2012-09-20T13:46:40Z</time>
      </trkpt>
      <trkpt lat="44.99192" lon="1.96992">
        <ele>559.6</ele>
        <time>2012-09-20T13:46:41Z</time>
      </trkpt>
      <trkpt lat="44.99192" lon="1.96993">
        <ele>564.9</ele>
        <time>2012-09-20T13:46:42Z</time>
      </trkpt>
      <trkpt lat="44.99192" lon="1.96993">
        <ele>560.1</ele>
        <time>2012-09-20T13:46:43Z</time>
      </trkpt>
      <trkpt lat="44.99192" lon="1.96993">
        <ele>566.3</ele>
        <time>2012-09-20T13:46:44Z</time>
      </trkpt>
      <trkpt lat="44.99193" lon="1.96997">
        <ele>562.5</ele>
        <time>2012-09-20T13:46:45Z</time>
      </trkpt>
      <trkpt lat="44.99194" lon="1.97002">
        <ele>563.5</ele>
        <time>2012-09-20T13:46:46Z</time>
      </trkpt>
      <trkpt lat="44.99195" lon="1.97017">
        <ele>563</ele>
        <time>2012-09-20T13:46:48Z</time>
      </trkpt>
      <trkpt lat="44.99194" lon="1.97028">
        <ele>563</ele>
        <time>2012-09-20T13:46:49Z</time>
      </trkpt>
      <trkpt lat="44.99193" lon="1.97041">
        <ele>563.5</ele>
        <time>2012-09-20T13:46:50Z</time>
      </trkpt>
      <trkpt lat="44.99175" lon="1.97139">
        <ele>563</ele>
        <time>2012-09-20T13:46:56Z</time>
      </trkpt>
      <trkpt lat="44.99155" lon="1.97258">
        <ele>559.6</ele>
        <time>2012-09-20T13:47:03Z</time>
      </trkpt>
      <trkpt lat="44.99152" lon="1.97273">
        <ele>559.6</ele>
        <time>2012-09-20T13:47:04Z</time>
      </trkpt>
      <trkpt lat="44.99149" lon="1.97289">
        <ele>559.6</ele>
        <time>2012-09-20T13:47:05Z</time>
      </trkpt>
      <trkpt lat="44.99126" lon="1.97408">
        <ele>559.6</ele>
        <time>2012-09-20T13:47:13Z</time>
      </trkpt>
      <trkpt lat="44.9911" lon="1.97504">
        <ele>560.1</ele>
        <time>2012-09-20T13:47:20Z</time>
      </trkpt>
      <trkpt lat="44.99107" lon="1.97534">
        <ele>561.1</ele>
        <time>2012-09-20T13:47:22Z</time>
      </trkpt>
      <trkpt lat="44.9911" lon="1.97608">
        <ele>558.7</ele>
        <time>2012-09-20T13:47:27Z</time>
      </trkpt>
      <trkpt lat="44.99109" lon="1.97638">
        <ele>555.8</ele>
        <time>2012-09-20T13:47:48Z</time>
      </trkpt>
      <trkpt lat="44.99112" lon="1.97663">
        <ele>557.7</ele>
        <time>2012-09-20T14:00:45Z</time>
      </trkpt>
      <trkpt lat="44.99112" lon="1.97669">
        <ele>557.2</ele>
        <time>2012-09-20T14:00:46Z</time>
      </trkpt>
      <trkpt lat="44.99115" lon="1.9768">
        <ele>556.7</ele>
        <time>2012-09-20T14:00:48Z</time>
      </trkpt>
      <trkpt lat="44.99118" lon="1.97683">
        <ele>556.7</ele>
        <time>2012-09-20T14:00:49Z</time>
      </trkpt>
      <trkpt lat="44.99123" lon="1.97687">
        <ele>557.2</ele>
        <time>2012-09-20T14:00:50Z</time>
      </trkpt>
      <trkpt lat="44.99127" lon="1.97691">
        <ele>556.3</ele>
        <time>2012-09-20T14:00:51Z</time>
      </trkpt>
      <trkpt lat="44.99132" lon="1.97694">
        <ele>556.3</ele>
        <time>2012-09-20T14:00:52Z</time>
      </trkpt>
      <trkpt lat="44.99174" lon="1.97719">
        <ele>557.7</ele>
        <time>2012-09-20T14:01:00Z</time>
      </trkpt>
      <trkpt lat="44.99202" lon="1.97737">
        <ele>559.6</ele>
        <time>2012-09-20T14:01:07Z</time>
      </trkpt>
      <trkpt lat="44.99222" lon="1.97753">
        <ele>559.6</ele>
        <time>2012-09-20T14:01:14Z</time>
      </trkpt>
      <trkpt lat="44.99229" lon="1.97763">
        <ele>560.1</ele>
        <time>2012-09-20T14:01:22Z</time>
      </trkpt>
      <trkpt lat="44.99231" lon="1.97764">
        <ele>561.1</ele>
        <time>2012-09-20T14:01:23Z</time>
      </trkpt>
      <trkpt lat="44.99232" lon="1.97766">
        <ele>560.6</ele>
        <time>2012-09-20T14:01:24Z</time>
      </trkpt>
      <trkpt lat="44.99234" lon="1.97769">
        <ele>561.1</ele>
        <time>2012-09-20T14:01:25Z</time>
      </trkpt>
      <trkpt lat="44.99262" lon="1.9779">
        <ele>562.5</ele>
        <time>2012-09-20T14:01:33Z</time>
      </trkpt>
      <trkpt lat="44.99308" lon="1.9781">
        <ele>564</ele>
        <time>2012-09-20T14:01:38Z</time>
      </trkpt>
      <trkpt lat="44.99373" lon="1.9782">
        <ele>565.9</ele>
        <time>2012-09-20T14:01:45Z</time>
      </trkpt>
      <trkpt lat="44.99438" lon="1.97809">
        <ele>568.8</ele>
        <time>2012-09-20T14:01:52Z</time>
      </trkpt>
      <trkpt lat="44.9952" lon="1.97793">
        <ele>572.1</ele>
        <time>2012-09-20T14:02:01Z</time>
      </trkpt>
      <trkpt lat="44.99566" lon="1.97785">
        <ele>575.5</ele>
        <time>2012-09-20T14:02:06Z</time>
      </trkpt>
      <trkpt lat="44.99654" lon="1.97766">
        <ele>573.1</ele>
        <time>2012-09-20T14:02:15Z</time>
      </trkpt>
      <trkpt lat="44.99664" lon="1.9776">
        <ele>573.6</ele>
        <time>2012-09-20T14:02:16Z</time>
      </trkpt>
      <trkpt lat="44.99672" lon="1.97753">
        <ele>573.6</ele>
        <time>2012-09-20T14:02:17Z</time>
      </trkpt>
      <trkpt lat="44.99777" lon="1.97674">
        <ele>572.6</ele>
        <time>2012-09-20T14:02:29Z</time>
      </trkpt>
      <trkpt lat="44.99849" lon="1.97638">
        <ele>572.6</ele>
        <time>2012-09-20T14:02:36Z</time>
      </trkpt>
      <trkpt lat="44.99913" lon="1.9761">
        <ele>570.7</ele>
        <time>2012-09-20T14:02:42Z</time>
      </trkpt>
      <trkpt lat="44.99964" lon="1.97588">
        <ele>569.7</ele>
        <time>2012-09-20T14:02:47Z</time>
      </trkpt>
      <trkpt lat="44.99982" lon="1.97573">
        <ele>567.8</ele>
        <time>2012-09-20T14:02:49Z</time>
      </trkpt>
      <trkpt lat="45.00025" lon="1.97512">
        <ele>564.4</ele>
        <time>2012-09-20T14:02:55Z</time>
      </trkpt>
      <trkpt lat="45.00037" lon="1.97488">
        <ele>563</ele>
        <time>2012-09-20T14:02:57Z</time>
      </trkpt>
      <trkpt lat="45.00074" lon="1.97395">
        <ele>560.6</ele>
        <time>2012-09-20T14:03:04Z</time>
      </trkpt>
      <trkpt lat="45.00101" lon="1.97331">
        <ele>560.6</ele>
        <time>2012-09-20T14:03:10Z</time>
      </trkpt>
      <trkpt lat="45.00118" lon="1.973">
        <ele>560.1</ele>
        <time>2012-09-20T14:03:14Z</time>
      </trkpt>
      <trkpt lat="45.00123" lon="1.97296">
        <ele>560.1</ele>
        <time>2012-09-20T14:03:15Z</time>
      </trkpt>
      <trkpt lat="45.00127" lon="1.97294">
        <ele>559.6</ele>
        <time>2012-09-20T14:03:16Z</time>
      </trkpt>
      <trkpt lat="45.00132" lon="1.97294">
        <ele>560.1</ele>
        <time>2012-09-20T14:03:17Z</time>
      </trkpt>
      <trkpt lat="45.00136" lon="1.97296">
        <ele>560.6</ele>
        <time>2012-09-20T14:03:18Z</time>
      </trkpt>
      <trkpt lat="45.00141" lon="1.973">
        <ele>560.1</ele>
        <time>2012-09-20T14:03:19Z</time>
      </trkpt>
      <trkpt lat="45.00144" lon="1.97305">
        <ele>560.1</ele>
        <time>2012-09-20T14:03:20Z</time>
      </trkpt>
      <trkpt lat="45.00147" lon="1.97313">
        <ele>561.1</ele>
        <time>2012-09-20T14:03:21Z</time>
      </trkpt>
      <trkpt lat="45.0015" lon="1.97321">
        <ele>561.1</ele>
        <time>2012-09-20T14:03:22Z</time>
      </trkpt>
      <trkpt lat="45.00153" lon="1.9733">
        <ele>562</ele>
        <time>2012-09-20T14:03:23Z</time>
      </trkpt>
      <trkpt lat="45.00155" lon="1.9734">
        <ele>561.5</ele>
        <time>2012-09-20T14:03:24Z</time>
      </trkpt>
      <trkpt lat="45.00169" lon="1.97409">
        <ele>563</ele>
        <time>2012-09-20T14:03:30Z</time>
      </trkpt>
      <trkpt lat="45.00185" lon="1.97504">
        <ele>561.5</ele>
        <time>2012-09-20T14:03:37Z</time>
      </trkpt>
      <trkpt lat="45.00188" lon="1.97518">
        <ele>561.5</ele>
        <time>2012-09-20T14:03:38Z</time>
      </trkpt>
      <trkpt lat="45.00194" lon="1.97531">
        <ele>561.5</ele>
        <time>2012-09-20T14:03:39Z</time>
      </trkpt>
      <trkpt lat="45.00202" lon="1.97542">
        <ele>561.1</ele>
        <time>2012-09-20T14:03:40Z</time>
      </trkpt>
      <trkpt lat="45.00211" lon="1.97552">
        <ele>560.1</ele>
        <time>2012-09-20T14:03:41Z</time>
      </trkpt>
      <trkpt lat="45.00221" lon="1.97559">
        <ele>560.6</ele>
        <time>2012-09-20T14:03:42Z</time>
      </trkpt>
      <trkpt lat="45.00232" lon="1.97565">
        <ele>561.1</ele>
        <time>2012-09-20T14:03:43Z</time>
      </trkpt>
      <trkpt lat="45.00243" lon="1.97568">
        <ele>561.5</ele>
        <time>2012-09-20T14:03:44Z</time>
      </trkpt>
      <trkpt lat="45.00255" lon="1.97571">
        <ele>561.5</ele>
        <time>2012-09-20T14:03:45Z</time>
      </trkpt>
      <trkpt lat="45.00348" lon="1.97599">
        <ele>561.1</ele>
        <time>2012-09-20T14:03:53Z</time>
      </trkpt>
      <trkpt lat="45.0039" lon="1.9762">
        <ele>558.7</ele>
        <time>2012-09-20T14:03:57Z</time>
      </trkpt>
      <trkpt lat="45.00455" lon="1.97632">
        <ele>557.2</ele>
        <time>2012-09-20T14:04:03Z</time>
      </trkpt>
      <trkpt lat="45.0052" lon="1.97642">
        <ele>556.3</ele>
        <time>2012-09-20T14:04:09Z</time>
      </trkpt>
      <trkpt lat="45.00582" lon="1.97655">
        <ele>555.3</ele>
        <time>2012-09-20T14:04:15Z</time>
      </trkpt>
      <trkpt lat="45.0065" lon="1.97668">
        <ele>554.8</ele>
        <time>2012-09-20T14:04:22Z</time>
      </trkpt>
      <trkpt lat="45.00679" lon="1.97678">
        <ele>554.3</ele>
        <time>2012-09-20T14:04:25Z</time>
      </trkpt>
      <trkpt lat="45.00689" lon="1.97685">
        <ele>554.3</ele>
        <time>2012-09-20T14:04:26Z</time>
      </trkpt>
      <trkpt lat="45.00748" lon="1.9774">
        <ele>552.9</ele>
        <time>2012-09-20T14:04:32Z</time>
      </trkpt>
      <trkpt lat="45.00803" lon="1.978">
        <ele>551</ele>
        <time>2012-09-20T14:04:38Z</time>
      </trkpt>
      <trkpt lat="45.00838" lon="1.97858">
        <ele>548.6</ele>
        <time>2012-09-20T14:04:43Z</time>
      </trkpt>
      <trkpt lat="45.00869" lon="1.97941">
        <ele>545.7</ele>
        <time>2012-09-20T14:04:50Z</time>
      </trkpt>
      <trkpt lat="45.00876" lon="1.97959">
        <ele>545.7</ele>
        <time>2012-09-20T14:04:52Z</time>
      </trkpt>
      <trkpt lat="45.00881" lon="1.97968">
        <ele>545.7</ele>
        <time>2012-09-20T14:04:53Z</time>
      </trkpt>
      <trkpt lat="45.00887" lon="1.97976">
        <ele>547.1</ele>
        <time>2012-09-20T14:04:54Z</time>
      </trkpt>
      <trkpt lat="45.00899" lon="1.9799">
        <ele>547.6</ele>
        <time>2012-09-20T14:04:56Z</time>
      </trkpt>
      <trkpt lat="45.00913" lon="1.98005">
        <ele>549</ele>
        <time>2012-09-20T14:04:58Z</time>
      </trkpt>
      <trkpt lat="45.00949" lon="1.98061">
        <ele>550</ele>
        <time>2012-09-20T14:05:04Z</time>
      </trkpt>
      <trkpt lat="45.00988" lon="1.98121">
        <ele>551</ele>
        <time>2012-09-20T14:05:10Z</time>
      </trkpt>
      <trkpt lat="45.0104" lon="1.98189">
        <ele>551.9</ele>
        <time>2012-09-20T14:05:18Z</time>
      </trkpt>
      <trkpt lat="45.01103" lon="1.9826">
        <ele>554.8</ele>
        <time>2012-09-20T14:05:27Z</time>
      </trkpt>
      <trkpt lat="45.01117" lon="1.98278">
        <ele>555.8</ele>
        <time>2012-09-20T14:05:29Z</time>
      </trkpt>
      <trkpt lat="45.01151" lon="1.98327">
        <ele>558.2</ele>
        <time>2012-09-20T14:05:34Z</time>
      </trkpt>
      <trkpt lat="45.01192" lon="1.9841">
        <ele>559.6</ele>
        <time>2012-09-20T14:05:41Z</time>
      </trkpt>
      <trkpt lat="45.01244" lon="1.98493">
        <ele>561.1</ele>
        <time>2012-09-20T14:05:48Z</time>
      </trkpt>
      <trkpt lat="45.01295" lon="1.98576">
        <ele>560.6</ele>
        <time>2012-09-20T14:05:55Z</time>
      </trkpt>
      <trkpt lat="45.01324" lon="1.98653">
        <ele>558.7</ele>
        <time>2012-09-20T14:06:01Z</time>
      </trkpt>
      <trkpt lat="45.01354" lon="1.98747">
        <ele>560.1</ele>
        <time>2012-09-20T14:06:09Z</time>
      </trkpt>
      <trkpt lat="45.01374" lon="1.98805">
        <ele>559.6</ele>
        <time>2012-09-20T14:06:15Z</time>
      </trkpt>
      <trkpt lat="45.01376" lon="1.98813">
        <ele>559.1</ele>
        <time>2012-09-20T14:06:18Z</time>
      </trkpt>
      <trkpt lat="45.01376" lon="1.98815">
        <ele>559.6</ele>
        <time>2012-09-20T14:06:21Z</time>
      </trkpt>
      <trkpt lat="45.01373" lon="1.98826">
        <ele>560.1</ele>
        <time>2012-09-20T14:06:24Z</time>
      </trkpt>
      <trkpt lat="45.01369" lon="1.98831">
        <ele>560.1</ele>
        <time>2012-09-20T14:06:25Z</time>
      </trkpt>
      <trkpt lat="45.01349" lon="1.9886">
        <ele>562.5</ele>
        <time>2012-09-20T14:06:29Z</time>
      </trkpt>
      <trkpt lat="45.01324" lon="1.98895">
        <ele>564.4</ele>
        <time>2012-09-20T14:06:32Z</time>
      </trkpt>
      <trkpt lat="45.01299" lon="1.98931">
        <ele>567.8</ele>
        <time>2012-09-20T14:06:35Z</time>
      </trkpt>
      <trkpt lat="45.01281" lon="1.98959">
        <ele>568.8</ele>
        <time>2012-09-20T14:06:37Z</time>
      </trkpt>
      <trkpt lat="45.01254" lon="1.99001">
        <ele>570.7</ele>
        <time>2012-09-20T14:06:40Z</time>
      </trkpt>
      <trkpt lat="45.01217" lon="1.99055">
        <ele>567.3</ele>
        <time>2012-09-20T14:06:45Z</time>
      </trkpt>
      <trkpt lat="45.01211" lon="1.99068">
        <ele>564.9</ele>
        <time>2012-09-20T14:06:47Z</time>
      </trkpt>
      <trkpt lat="45.01211" lon="1.99074">
        <ele>564.9</ele>
        <time>2012-09-20T14:06:48Z</time>
      </trkpt>
      <trkpt lat="45.01219" lon="1.99086">
        <ele>564.9</ele>
        <time>2012-09-20T14:06:51Z</time>
      </trkpt>
      <trkpt lat="45.01252" lon="1.9911">
        <ele>564.9</ele>
        <time>2012-09-20T14:06:58Z</time>
      </trkpt>
      <trkpt lat="45.01302" lon="1.99144">
        <ele>563.5</ele>
        <time>2012-09-20T14:07:06Z</time>
      </trkpt>
      <trkpt lat="45.01367" lon="1.99192">
        <ele>564.4</ele>
        <time>2012-09-20T14:07:17Z</time>
      </trkpt>
      <trkpt lat="45.0139" lon="1.99208">
        <ele>563.5</ele>
        <time>2012-09-20T14:07:22Z</time>
      </trkpt>
      <trkpt lat="45.01403" lon="1.99215">
        <ele>562</ele>
        <time>2012-09-20T14:07:25Z</time>
      </trkpt>
      <trkpt lat="45.0141" lon="1.99222">
        <ele>561.1</ele>
        <time>2012-09-20T14:07:27Z</time>
      </trkpt>
      <trkpt lat="45.0142" lon="1.99233">
        <ele>559.6</ele>
        <time>2012-09-20T14:07:30Z</time>
      </trkpt>
      <trkpt lat="45.01426" lon="1.99238">
        <ele>553.9</ele>
        <time>2012-09-20T14:07:32Z</time>
      </trkpt>
      <trkpt lat="45.01429" lon="1.99242">
        <ele>556.7</ele>
        <time>2012-09-20T14:07:33Z</time>
      </trkpt>
      <trkpt lat="45.01452" lon="1.99267">
        <ele>553.4</ele>
        <time>2012-09-20T14:07:41Z</time>
      </trkpt>
      <trkpt lat="45.01454" lon="1.99271">
        <ele>553.4</ele>
        <time>2012-09-20T14:07:46Z</time>
      </trkpt>
      <trkpt lat="45.01454" lon="1.99273">
        <ele>552.9</ele>
        <time>2012-09-20T14:07:52Z</time>
      </trkpt>
      <trkpt lat="45.01453" lon="1.99277">
        <ele>551.9</ele>
        <time>2012-09-20T14:07:56Z</time>
      </trkpt>
      <trkpt lat="45.01455" lon="1.99278">
        <ele>551.5</ele>
        <time>2012-09-20T14:07:57Z</time>
      </trkpt>
      <trkpt lat="45.01456" lon="1.99279">
        <ele>551</ele>
        <time>2012-09-20T14:07:58Z</time>
      </trkpt>
      <trkpt lat="45.01457" lon="1.9928">
        <ele>551.9</ele>
        <time>2012-09-20T14:07:59Z</time>
      </trkpt>
      <trkpt lat="45.01458" lon="1.9928">
        <ele>551.5</ele>
        <time>2012-09-20T14:08:00Z</time>
      </trkpt>
      <trkpt lat="45.01461" lon="1.99287">
        <ele>551</ele>
        <time>2012-09-20T14:08:07Z</time>
      </trkpt>
      <trkpt lat="45.01461" lon="1.99289">
        <ele>549</ele>
        <time>2012-09-20T14:08:11Z</time>
      </trkpt>
      <trkpt lat="45.01464" lon="1.99295">
        <ele>547.6</ele>
        <time>2012-09-20T14:08:18Z</time>
      </trkpt>
      <trkpt lat="45.01466" lon="1.99299">
        <ele>546.7</ele>
        <time>2012-09-20T14:08:23Z</time>
      </trkpt>
      <trkpt lat="45.01467" lon="1.99301">
        <ele>546.2</ele>
        <time>2012-09-20T14:08:24Z</time>
      </trkpt>
      <trkpt lat="45.0147" lon="1.99309">
        <ele>545.7</ele>
        <time>2012-09-20T14:08:29Z</time>
      </trkpt>
      <trkpt lat="45.01473" lon="1.99314">
        <ele>546.2</ele>
        <time>2012-09-20T14:08:36Z</time>
      </trkpt>
      <trkpt lat="45.01472" lon="1.9932">
        <ele>545.7</ele>
        <time>2012-09-20T14:08:42Z</time>
      </trkpt>
      <trkpt lat="45.01472" lon="1.99322">
        <ele>545.7</ele>
        <time>2012-09-20T14:08:46Z</time>
      </trkpt>
      <trkpt lat="45.01472" lon="1.99325">
        <ele>546.7</ele>
        <time>2012-09-20T14:08:47Z</time>
      </trkpt>
      <trkpt lat="45.01472" lon="1.99328">
        <ele>546.7</ele>
        <time>2012-09-20T14:08:48Z</time>
      </trkpt>
      <trkpt lat="45.01471" lon="1.9933">
        <ele>546.7</ele>
        <time>2012-09-20T14:08:49Z</time>
      </trkpt>
      <trkpt lat="45.01472" lon="1.99332">
        <ele>547.1</ele>
        <time>2012-09-20T14:08:53Z</time>
      </trkpt>
      <trkpt lat="45.01471" lon="1.99339">
        <ele>548.1</ele>
        <time>2012-09-20T14:08:57Z</time>
      </trkpt>
      <trkpt lat="45.0147" lon="1.99343">
        <ele>548.6</ele>
        <time>2012-09-20T14:09:00Z</time>
      </trkpt>
      <trkpt lat="45.01467" lon="1.99348">
        <ele>550</ele>
        <time>2012-09-20T14:09:06Z</time>
      </trkpt>
      <trkpt lat="45.01464" lon="1.99353">
        <ele>551</ele>
        <time>2012-09-20T14:09:10Z</time>
      </trkpt>
      <trkpt lat="45.01461" lon="1.99358">
        <ele>551</ele>
        <time>2012-09-20T14:09:14Z</time>
      </trkpt>
      <trkpt lat="45.0146" lon="1.99363">
        <ele>551.9</ele>
        <time>2012-09-20T14:09:18Z</time>
      </trkpt>
      <trkpt lat="45.01457" lon="1.99372">
        <ele>553.4</ele>
        <time>2012-09-20T14:09:23Z</time>
      </trkpt>
      <trkpt lat="45.01458" lon="1.99372">
        <ele>553.4</ele>
        <time>2012-09-20T14:09:25Z</time>
      </trkpt>
      <trkpt lat="45.01461" lon="1.99379">
        <ele>555.3</ele>
        <time>2012-09-20T14:09:31Z</time>
      </trkpt>
      <trkpt lat="45.01463" lon="1.99384">
        <ele>555.8</ele>
        <time>2012-09-20T14:09:36Z</time>
      </trkpt>
      <trkpt lat="45.01465" lon="1.99393">
        <ele>556.7</ele>
        <time>2012-09-20T14:09:42Z</time>
      </trkpt>
      <trkpt lat="45.01465" lon="1.99393">
        <ele>557.2</ele>
        <time>2012-09-20T14:09:43Z</time>
      </trkpt>
      <trkpt lat="45.01468" lon="1.99401">
        <ele>557.2</ele>
        <time>2012-09-20T14:09:48Z</time>
      </trkpt>
      <trkpt lat="45.01468" lon="1.99401">
        <ele>557.7</ele>
        <time>2012-09-20T14:09:50Z</time>
      </trkpt>
      <trkpt lat="45.01473" lon="1.99414">
        <ele>557.7</ele>
        <time>2012-09-20T14:09:56Z</time>
      </trkpt>
      <trkpt lat="45.01473" lon="1.99417">
        <ele>558.7</ele>
        <time>2012-09-20T14:10:00Z</time>
      </trkpt>
      <trkpt lat="45.01474" lon="1.99421">
        <ele>558.7</ele>
        <time>2012-09-20T14:10:06Z</time>
      </trkpt>
      <trkpt lat="45.01478" lon="1.99438">
        <ele>559.1</ele>
        <time>2012-09-20T14:10:11Z</time>
      </trkpt>
      <trkpt lat="45.01479" lon="1.99443">
        <ele>559.1</ele>
        <time>2012-09-20T14:10:15Z</time>
      </trkpt>
      <trkpt lat="45.01479" lon="1.99446">
        <ele>560.6</ele>
        <time>2012-09-20T14:10:21Z</time>
      </trkpt>
      <trkpt lat="45.01484" lon="1.99462">
        <ele>561.1</ele>
        <time>2012-09-20T14:10:25Z</time>
      </trkpt>
      <trkpt lat="45.01483" lon="1.99467">
        <ele>561.5</ele>
        <time>2012-09-20T14:10:31Z</time>
      </trkpt>
      <trkpt lat="45.01484" lon="1.99474">
        <ele>562</ele>
        <time>2012-09-20T14:10:35Z</time>
      </trkpt>
      <trkpt lat="45.01485" lon="1.99485">
        <ele>562.5</ele>
        <time>2012-09-20T14:10:38Z</time>
      </trkpt>
      <trkpt lat="45.01484" lon="1.99489">
        <ele>563</ele>
        <time>2012-09-20T14:10:40Z</time>
      </trkpt>
      <trkpt lat="45.01484" lon="1.99491">
        <ele>563</ele>
        <time>2012-09-20T14:10:47Z</time>
      </trkpt>
      <trkpt lat="45.01484" lon="1.995">
        <ele>563.5</ele>
        <time>2012-09-20T14:10:52Z</time>
      </trkpt>
      <trkpt lat="45.01484" lon="1.99514">
        <ele>564</ele>
        <time>2012-09-20T14:10:57Z</time>
      </trkpt>
      <trkpt lat="45.01484" lon="1.99519">
        <ele>564</ele>
        <time>2012-09-20T14:11:04Z</time>
      </trkpt>
      <trkpt lat="45.01482" lon="1.9953">
        <ele>564.4</ele>
        <time>2012-09-20T14:11:08Z</time>
      </trkpt>
      <trkpt lat="45.01481" lon="1.99539">
        <ele>564.9</ele>
        <time>2012-09-20T14:11:16Z</time>
      </trkpt>
      <trkpt lat="45.0148" lon="1.9954">
        <ele>564.9</ele>
        <time>2012-09-20T14:11:19Z</time>
      </trkpt>
      <trkpt lat="45.01478" lon="1.99552">
        <ele>564.9</ele>
        <time>2012-09-20T14:11:24Z</time>
      </trkpt>
      <trkpt lat="45.01477" lon="1.99555">
        <ele>565.4</ele>
        <time>2012-09-20T14:11:27Z</time>
      </trkpt>
      <trkpt lat="45.01477" lon="1.9956">
        <ele>564.9</ele>
        <time>2012-09-20T14:11:29Z</time>
      </trkpt>
      <trkpt lat="45.01474" lon="1.99563">
        <ele>565.4</ele>
        <time>2012-09-20T14:11:32Z</time>
      </trkpt>
      <trkpt lat="45.01475" lon="1.99578">
        <ele>564.9</ele>
        <time>2012-09-20T14:11:36Z</time>
      </trkpt>
      <trkpt lat="45.01473" lon="1.99601">
        <ele>564</ele>
        <time>2012-09-20T14:11:42Z</time>
      </trkpt>
      <trkpt lat="45.01473" lon="1.99618">
        <ele>564</ele>
        <time>2012-09-20T14:11:46Z</time>
      </trkpt>
      <trkpt lat="45.01473" lon="1.99639">
        <ele>563</ele>
        <time>2012-09-20T14:11:53Z</time>
      </trkpt>
      <trkpt lat="45.01473" lon="1.99639">
        <ele>563</ele>
        <time>2012-09-20T14:11:59Z</time>
      </trkpt>
      <trkpt lat="45.01473" lon="1.99637">
        <ele>563</ele>
        <time>2012-09-20T14:12:03Z</time>
      </trkpt>
      <trkpt lat="45.01474" lon="1.99635">
        <ele>562</ele>
        <time>2012-09-20T14:12:07Z</time>
      </trkpt>
      <trkpt lat="45.01481" lon="1.99645">
        <ele>562.5</ele>
        <time>2012-09-20T14:12:13Z</time>
      </trkpt>
      <trkpt lat="45.01481" lon="1.99645">
        <ele>562</ele>
        <time>2012-09-20T14:12:22Z</time>
      </trkpt>
      <trkpt lat="45.01481" lon="1.99646">
        <ele>562</ele>
        <time>2012-09-20T14:12:33Z</time>
      </trkpt>
      <trkpt lat="45.01481" lon="1.99646">
        <ele>562</ele>
        <time>2012-09-20T14:12:49Z</time>
      </trkpt>
      <trkpt lat="45.01482" lon="1.99646">
        <ele>562</ele>
        <time>2012-09-20T14:12:57Z</time>
      </trkpt>
      <trkpt lat="45.01482" lon="1.99646">
        <ele>562</ele>
        <time>2012-09-20T14:13:07Z</time>
      </trkpt>
      <trkpt lat="45.01482" lon="1.99646">
        <ele>562</ele>
        <time>2012-09-20T14:13:23Z</time>
      </trkpt>
      <trkpt lat="45.01482" lon="1.99646">
        <ele>562</ele>
        <time>2012-09-20T14:13:34Z</time>
      </trkpt>
      <trkpt lat="45.01482" lon="1.99646">
        <ele>562</ele>
        <time>2012-09-20T14:13:50Z</time>
      </trkpt>
      <trkpt lat="45.01482" lon="1.99647">
        <ele>562</ele>
        <time>2012-09-20T14:14:03Z</time>
      </trkpt>
      <trkpt lat="45.01485" lon="1.9965">
        <ele>561.1</ele>
        <time>2012-09-20T14:14:08Z</time>
      </trkpt>
      <trkpt lat="45.01485" lon="1.99651">
        <ele>564</ele>
        <time>2012-09-20T14:14:10Z</time>
      </trkpt>
      <trkpt lat="45.01484" lon="1.99654">
        <ele>562</ele>
        <time>2012-09-20T14:14:18Z</time>
      </trkpt>
      <trkpt lat="45.01484" lon="1.99653">
        <ele>562</ele>
        <time>2012-09-20T14:14:20Z</time>
      </trkpt>
      <trkpt lat="45.01487" lon="1.99654">
        <ele>561.1</ele>
        <time>2012-09-20T14:14:22Z</time>
      </trkpt>
      <trkpt lat="45.01501" lon="1.99659">
        <ele>560.1</ele>
        <time>2012-09-20T14:14:27Z</time>
      </trkpt>
      <trkpt lat="45.01519" lon="1.99661">
        <ele>559.1</ele>
        <time>2012-09-20T14:14:30Z</time>
      </trkpt>
      <trkpt lat="45.01542" lon="1.99666">
        <ele>555.8</ele>
        <time>2012-09-20T14:14:33Z</time>
      </trkpt>
      <trkpt lat="45.01577" lon="1.99675">
        <ele>551.9</ele>
        <time>2012-09-20T14:14:38Z</time>
      </trkpt>
      <trkpt lat="45.01614" lon="1.99695">
        <ele>549</ele>
        <time>2012-09-20T14:14:43Z</time>
      </trkpt>
      <trkpt lat="45.01622" lon="1.99704">
        <ele>549.5</ele>
        <time>2012-09-20T14:14:45Z</time>
      </trkpt>
      <trkpt lat="45.01626" lon="1.9971">
        <ele>549.5</ele>
        <time>2012-09-20T14:14:46Z</time>
      </trkpt>
      <trkpt lat="45.01629" lon="1.99714">
        <ele>549.5</ele>
        <time>2012-09-20T14:14:47Z</time>
      </trkpt>
      <trkpt lat="45.01632" lon="1.99723">
        <ele>549</ele>
        <time>2012-09-20T14:14:50Z</time>
      </trkpt>
      <trkpt lat="45.01632" lon="1.99723">
        <ele>552.4</ele>
        <time>2012-09-20T14:14:56Z</time>
      </trkpt>
      <trkpt lat="45.01632" lon="1.99723">
        <ele>552.4</ele>
        <time>2012-09-20T14:14:57Z</time>
      </trkpt>
      <trkpt lat="45.01632" lon="1.99723">
        <ele>548.6</ele>
        <time>2012-09-20T14:15:12Z</time>
      </trkpt>
      <trkpt lat="45.01632" lon="1.99723">
        <ele>548.6</ele>
        <time>2012-09-20T14:15:13Z</time>
      </trkpt>
      <trkpt lat="45.01626" lon="2.00213">
        <ele>545.2</ele>
        <time>2012-09-20T14:15:28Z</time>
      </trkpt>
      <trkpt lat="45.01625" lon="2.00217">
        <ele>544.2</ele>
        <time>2012-09-20T14:15:30Z</time>
      </trkpt>
      <trkpt lat="45.01628" lon="2.00251">
        <ele>541.8</ele>
        <time>2012-09-20T14:15:42Z</time>
      </trkpt>
      <trkpt lat="45.01638" lon="2.00264">
        <ele>539</ele>
        <time>2012-09-20T14:15:52Z</time>
      </trkpt>
      <trkpt lat="45.01649" lon="2.00276">
        <ele>536.1</ele>
        <time>2012-09-20T14:16:00Z</time>
      </trkpt>
      <trkpt lat="45.01665" lon="2.00285">
        <ele>533.7</ele>
        <time>2012-09-20T14:16:11Z</time>
      </trkpt>
      <trkpt lat="45.01675" lon="2.00292">
        <ele>530.8</ele>
        <time>2012-09-20T14:16:24Z</time>
      </trkpt>
      <trkpt lat="45.01691" lon="2.00304">
        <ele>528.9</ele>
        <time>2012-09-20T14:16:34Z</time>
      </trkpt>
      <trkpt lat="45.01693" lon="2.00308">
        <ele>528.9</ele>
        <time>2012-09-20T14:16:36Z</time>
      </trkpt>
      <trkpt lat="45.01703" lon="2.00326">
        <ele>525.5</ele>
        <time>2012-09-20T14:16:47Z</time>
      </trkpt>
      <trkpt lat="45.01711" lon="2.00358">
        <ele>523.6</ele>
        <time>2012-09-20T14:16:57Z</time>
      </trkpt>
      <trkpt lat="45.01698" lon="2.00374">
        <ele>521.7</ele>
        <time>2012-09-20T14:17:04Z</time>
      </trkpt>
      <trkpt lat="45.01683" lon="2.00382">
        <ele>520.7</ele>
        <time>2012-09-20T14:17:12Z</time>
      </trkpt>
      <trkpt lat="45.01674" lon="2.00387">
        <ele>520.2</ele>
        <time>2012-09-20T14:17:20Z</time>
      </trkpt>
      <trkpt lat="45.01675" lon="2.00389">
        <ele>519.2</ele>
        <time>2012-09-20T14:17:29Z</time>
      </trkpt>
      <trkpt lat="45.0168" lon="2.00393">
        <ele>518.3</ele>
        <time>2012-09-20T14:17:32Z</time>
      </trkpt>
      <trkpt lat="45.01703" lon="2.00404">
        <ele>515.9</ele>
        <time>2012-09-20T14:17:45Z</time>
      </trkpt>
      <trkpt lat="45.01706" lon="2.00411">
        <ele>514.4</ele>
        <time>2012-09-20T14:17:51Z</time>
      </trkpt>
      <trkpt lat="45.01705" lon="2.00415">
        <ele>514.4</ele>
        <time>2012-09-20T14:17:53Z</time>
      </trkpt>
      <trkpt lat="45.01688" lon="2.00422">
        <ele>511.6</ele>
        <time>2012-09-20T14:18:04Z</time>
      </trkpt>
      <trkpt lat="45.01668" lon="2.00428">
        <ele>510.1</ele>
        <time>2012-09-20T14:18:14Z</time>
      </trkpt>
      <trkpt lat="45.01654" lon="2.00437">
        <ele>509.2</ele>
        <time>2012-09-20T14:18:20Z</time>
      </trkpt>
      <trkpt lat="45.0165" lon="2.00464">
        <ele>509.6</ele>
        <time>2012-09-20T14:18:26Z</time>
      </trkpt>
      <trkpt lat="45.01651" lon="2.0047">
        <ele>509.2</ele>
        <time>2012-09-20T14:18:27Z</time>
      </trkpt>
      <trkpt lat="45.01658" lon="2.00502">
        <ele>514</ele>
        <time>2012-09-20T14:18:32Z</time>
      </trkpt>
      <trkpt lat="45.01669" lon="2.00535">
        <ele>517.3</ele>
        <time>2012-09-20T14:18:37Z</time>
      </trkpt>
      <trkpt lat="45.01675" lon="2.00556">
        <ele>519.7</ele>
        <time>2012-09-20T14:18:39Z</time>
      </trkpt>
      <trkpt lat="45.01676" lon="2.00565">
        <ele>521.2</ele>
        <time>2012-09-20T14:18:40Z</time>
      </trkpt>
      <trkpt lat="45.01675" lon="2.00595">
        <ele>524.1</ele>
        <time>2012-09-20T14:18:43Z</time>
      </trkpt>
      <trkpt lat="45.01679" lon="2.0062">
        <ele>523.6</ele>
        <time>2012-09-20T14:18:47Z</time>
      </trkpt>
      <trkpt lat="45.01686" lon="2.00631">
        <ele>523.6</ele>
        <time>2012-09-20T14:18:51Z</time>
      </trkpt>
      <trkpt lat="45.0169" lon="2.00631">
        <ele>523.1</ele>
        <time>2012-09-20T14:18:52Z</time>
      </trkpt>
      <trkpt lat="45.01693" lon="2.00631">
        <ele>523.1</ele>
        <time>2012-09-20T14:18:53Z</time>
      </trkpt>
      <trkpt lat="45.01725" lon="2.00614">
        <ele>523.1</ele>
        <time>2012-09-20T14:18:58Z</time>
      </trkpt>
      <trkpt lat="45.01792" lon="2.00594">
        <ele>517.3</ele>
        <time>2012-09-20T14:19:40Z</time>
      </trkpt>
      <trkpt lat="45.01791" lon="2.00592">
        <ele>517.3</ele>
        <time>2012-09-20T14:19:47Z</time>
      </trkpt>
      <trkpt lat="45.01835" lon="2.00633">
        <ele>515.4</ele>
        <time>2012-08-29T10:05:54Z</time>
      </trkpt>
      <trkpt lat="45.01839" lon="2.00645">
        <ele>514.4</ele>
        <time>2012-08-29T10:05:45Z</time>
      </trkpt>
      <trkpt lat="45.01852" lon="2.00643">
        <ele>513.5</ele>
        <time>2012-08-29T10:05:37Z</time>
      </trkpt>
      <trkpt lat="45.01859" lon="2.00646">
        <ele>512</ele>
        <time>2012-08-29T10:05:31Z</time>
      </trkpt>
      <trkpt lat="45.01869" lon="2.00647">
        <ele>511.1</ele>
        <time>2012-08-29T10:05:22Z</time>
      </trkpt>
      <trkpt lat="45.01876" lon="2.0065">
        <ele>509.6</ele>
        <time>2012-08-29T10:05:15Z</time>
      </trkpt>
      <trkpt lat="45.01876" lon="2.00651">
        <ele>509.2</ele>
        <time>2012-08-29T10:05:14Z</time>
      </trkpt>
      <trkpt lat="45.01877" lon="2.00662">
        <ele>507.7</ele>
        <time>2012-08-29T10:05:05Z</time>
      </trkpt>
      <trkpt lat="45.0188" lon="2.00675">
        <ele>506.8</ele>
        <time>2012-08-29T10:04:57Z</time>
      </trkpt>
      <trkpt lat="45.01881" lon="2.00676">
        <ele>506.3</ele>
        <time>2012-08-29T10:04:56Z</time>
      </trkpt>
      <trkpt lat="45.01886" lon="2.00685">
        <ele>506.3</ele>
        <time>2012-08-29T10:04:51Z</time>
      </trkpt>
      <trkpt lat="45.01887" lon="2.00695">
        <ele>505.8</ele>
        <time>2012-08-29T10:04:46Z</time>
      </trkpt>
      <trkpt lat="45.01887" lon="2.00709">
        <ele>504.8</ele>
        <time>2012-08-29T10:04:37Z</time>
      </trkpt>
      <trkpt lat="45.01884" lon="2.00722">
        <ele>503.4</ele>
        <time>2012-08-29T10:04:32Z</time>
      </trkpt>
      <trkpt lat="45.01886" lon="2.00735">
        <ele>502.4</ele>
        <time>2012-08-29T10:04:25Z</time>
      </trkpt>
      <trkpt lat="45.01886" lon="2.00738">
        <ele>498.6</ele>
        <time>2012-08-29T10:04:23Z</time>
      </trkpt>
      <trkpt lat="45.01886" lon="2.00748">
        <ele>501.5</ele>
        <time>2012-08-29T10:04:18Z</time>
      </trkpt>
      <trkpt lat="45.01884" lon="2.00762">
        <ele>500</ele>
        <time>2012-08-29T10:04:11Z</time>
      </trkpt>
      <trkpt lat="45.01883" lon="2.00762">
        <ele>499.5</ele>
        <time>2012-08-29T10:04:09Z</time>
      </trkpt>
      <trkpt lat="45.01868" lon="2.00765">
        <ele>498.1</ele>
        <time>2012-08-29T10:04:01Z</time>
      </trkpt>
      <trkpt lat="45.0186" lon="2.00767">
        <ele>496.2</ele>
        <time>2012-08-29T10:03:55Z</time>
      </trkpt>
      <trkpt lat="45.0185" lon="2.00768">
        <ele>495.2</ele>
        <time>2012-08-29T10:03:48Z</time>
      </trkpt>
      <trkpt lat="45.01837" lon="2.00774">
        <ele>494.3</ele>
        <time>2012-08-29T10:03:41Z</time>
      </trkpt>
      <trkpt lat="45.01828" lon="2.00779">
        <ele>493.8</ele>
        <time>2012-08-29T10:03:35Z</time>
      </trkpt>
      <trkpt lat="45.01824" lon="2.00785">
        <ele>492.3</ele>
        <time>2012-08-29T10:03:29Z</time>
      </trkpt>
      <trkpt lat="45.01823" lon="2.00789">
        <ele>490.9</ele>
        <time>2012-08-29T10:03:27Z</time>
      </trkpt>
      <trkpt lat="45.0182" lon="2.008">
        <ele>489.5</ele>
        <time>2012-08-29T10:03:21Z</time>
      </trkpt>
      <trkpt lat="45.01817" lon="2.0081">
        <ele>489</ele>
        <time>2012-08-29T10:03:15Z</time>
      </trkpt>
      <trkpt lat="45.01816" lon="2.00819">
        <ele>487.5</ele>
        <time>2012-08-29T10:03:09Z</time>
      </trkpt>
      <trkpt lat="45.01814" lon="2.00825">
        <ele>486.6</ele>
        <time>2012-08-29T10:03:02Z</time>
      </trkpt>
      <trkpt lat="45.01814" lon="2.00831">
        <ele>486.1</ele>
        <time>2012-08-29T10:02:59Z</time>
      </trkpt>
      <trkpt lat="45.01817" lon="2.00843">
        <ele>485.6</ele>
        <time>2012-08-29T10:02:52Z</time>
      </trkpt>
      <trkpt lat="45.0182" lon="2.00848">
        <ele>486.1</ele>
        <time>2012-08-29T10:02:47Z</time>
      </trkpt>
      <trkpt lat="45.01822" lon="2.00846">
        <ele>485.6</ele>
        <time>2012-08-29T10:02:41Z</time>
      </trkpt>
      <trkpt lat="45.01822" lon="2.00844">
        <ele>485.6</ele>
        <time>2012-08-29T10:02:34Z</time>
      </trkpt>
      <trkpt lat="45.01822" lon="2.00845">
        <ele>485.6</ele>
        <time>2012-08-29T10:02:26Z</time>
      </trkpt>
      <trkpt lat="45.01822" lon="2.00845">
        <ele>485.1</ele>
        <time>2012-08-29T10:02:25Z</time>
      </trkpt>
      <trkpt lat="45.01822" lon="2.00851">
        <ele>486.1</ele>
        <time>2012-08-29T10:02:18Z</time>
      </trkpt>
      <trkpt lat="45.01822" lon="2.00851">
        <ele>486.6</ele>
        <time>2012-08-29T10:02:11Z</time>
      </trkpt>
      <trkpt lat="45.01821" lon="2.00851">
        <ele>486.6</ele>
        <time>2012-08-29T10:02:04Z</time>
      </trkpt>
      <trkpt lat="45.01821" lon="2.00851">
        <ele>486.1</ele>
        <time>2012-08-29T10:01:56Z</time>
      </trkpt>
      <trkpt lat="45.01821" lon="2.00851">
        <ele>486.6</ele>
        <time>2012-08-29T10:01:48Z</time>
      </trkpt>
      <trkpt lat="45.01821" lon="2.00851">
        <ele>486.6</ele>
        <time>2012-08-29T10:01:32Z</time>
      </trkpt>
      <trkpt lat="45.01821" lon="2.00853">
        <ele>487</ele>
        <time>2012-08-29T10:01:25Z</time>
      </trkpt>
      <trkpt lat="45.0182" lon="2.00895">
        <ele>490.4</ele>
        <time>2012-08-29T10:01:15Z</time>
      </trkpt>
      <trkpt lat="45.01812" lon="2.00908">
        <ele>492.3</ele>
        <time>2012-08-29T10:01:11Z</time>
      </trkpt>
      <trkpt lat="45.0179" lon="2.00923">
        <ele>496.2</ele>
        <time>2012-08-29T10:01:04Z</time>
      </trkpt>
      <trkpt lat="45.0178" lon="2.00941">
        <ele>500</ele>
        <time>2012-08-29T10:00:59Z</time>
      </trkpt>
      <trkpt lat="45.01778" lon="2.00945">
        <ele>500</ele>
        <time>2012-08-29T10:00:58Z</time>
      </trkpt>
      <trkpt lat="45.01772" lon="2.00967">
        <ele>502.4</ele>
        <time>2012-08-29T10:00:54Z</time>
      </trkpt>
      <trkpt lat="45.01759" lon="2.01002">
        <ele>505.3</ele>
        <time>2012-08-29T10:00:48Z</time>
      </trkpt>
      <trkpt lat="45.01743" lon="2.01029">
        <ele>508.7</ele>
        <time>2012-08-29T10:00:43Z</time>
      </trkpt>
      <trkpt lat="45.01739" lon="2.01033">
        <ele>508.7</ele>
        <time>2012-08-29T10:00:42Z</time>
      </trkpt>
      <trkpt lat="45.01712" lon="2.01052">
        <ele>512</ele>
        <time>2012-08-29T10:00:36Z</time>
      </trkpt>
      <trkpt lat="45.0169" lon="2.01077">
        <ele>515.9</ele>
        <time>2012-08-29T10:00:30Z</time>
      </trkpt>
      <trkpt lat="45.01683" lon="2.01086">
        <ele>516.4</ele>
        <time>2012-08-29T10:00:28Z</time>
      </trkpt>
      <trkpt lat="45.0168" lon="2.01092">
        <ele>516.8</ele>
        <time>2012-08-29T10:00:27Z</time>
      </trkpt>
      <trkpt lat="45.01677" lon="2.0111">
        <ele>517.8</ele>
        <time>2012-08-29T10:00:23Z</time>
      </trkpt>
      <trkpt lat="45.01679" lon="2.01112">
        <ele>518.3</ele>
        <time>2012-08-29T10:00:22Z</time>
      </trkpt>
      <trkpt lat="45.01682" lon="2.01112">
        <ele>517.8</ele>
        <time>2012-08-29T10:00:21Z</time>
      </trkpt>
      <trkpt lat="45.01695" lon="2.0111">
        <ele>520.7</ele>
        <time>2012-08-29T10:00:17Z</time>
      </trkpt>
      <trkpt lat="45.01699" lon="2.01112">
        <ele>521.2</ele>
        <time>2012-08-29T10:00:16Z</time>
      </trkpt>
      <trkpt lat="45.01704" lon="2.01115">
        <ele>522.1</ele>
        <time>2012-08-29T10:00:15Z</time>
      </trkpt>
      <trkpt lat="45.01709" lon="2.01119">
        <ele>522.6</ele>
        <time>2012-08-29T10:00:14Z</time>
      </trkpt>
      <trkpt lat="45.01712" lon="2.01124">
        <ele>524.1</ele>
        <time>2012-08-29T10:00:13Z</time>
      </trkpt>
      <trkpt lat="45.01717" lon="2.01128">
        <ele>524.5</ele>
        <time>2012-08-29T10:00:12Z</time>
      </trkpt>
      <trkpt lat="45.01736" lon="2.01145">
        <ele>527.9</ele>
        <time>2012-08-29T10:00:08Z</time>
      </trkpt>
      <trkpt lat="45.0174" lon="2.01149">
        <ele>527.9</ele>
        <time>2012-08-29T10:00:07Z</time>
      </trkpt>
      <trkpt lat="45.01756" lon="2.01167">
        <ele>530.8</ele>
        <time>2012-08-29T10:00:02Z</time>
      </trkpt>
      <trkpt lat="45.01756" lon="2.0117">
        <ele>531.8</ele>
        <time>2012-08-29T09:59:58Z</time>
      </trkpt>
      <trkpt lat="45.01756" lon="2.01168">
        <ele>531.3</ele>
        <time>2012-08-29T09:59:57Z</time>
      </trkpt>
      <trkpt lat="45.01756" lon="2.01166">
        <ele>530.8</ele>
        <time>2012-08-29T09:59:56Z</time>
      </trkpt>
      <trkpt lat="45.01757" lon="2.01164">
        <ele>530.8</ele>
        <time>2012-08-29T09:59:55Z</time>
      </trkpt>
      <trkpt lat="45.01759" lon="2.01164">
        <ele>530.8</ele>
        <time>2012-08-29T09:59:54Z</time>
      </trkpt>
      <trkpt lat="45.0176" lon="2.01166">
        <ele>530.3</ele>
        <time>2012-08-29T09:59:53Z</time>
      </trkpt>
      <trkpt lat="45.01761" lon="2.01167">
        <ele>530.8</ele>
        <time>2012-08-29T09:59:52Z</time>
      </trkpt>
      <trkpt lat="45.01762" lon="2.01169">
        <ele>531.3</ele>
        <time>2012-08-29T09:59:51Z</time>
      </trkpt>
      <trkpt lat="45.01764" lon="2.0117">
        <ele>532.2</ele>
        <time>2012-08-29T09:59:50Z</time>
      </trkpt>
      <trkpt lat="45.01767" lon="2.01174">
        <ele>533.2</ele>
        <time>2012-08-29T09:59:44Z</time>
      </trkpt>
      <trkpt lat="45.01772" lon="2.01177">
        <ele>534.6</ele>
        <time>2012-08-29T09:59:40Z</time>
      </trkpt>
      <trkpt lat="45.01773" lon="2.01177">
        <ele>534.6</ele>
        <time>2012-08-29T09:59:33Z</time>
      </trkpt>
      <trkpt lat="45.01775" lon="2.0118">
        <ele>526.9</ele>
        <time>2012-08-29T09:59:29Z</time>
      </trkpt>
      <trkpt lat="45.01776" lon="2.0118">
        <ele>536.1</ele>
        <time>2012-08-29T09:59:28Z</time>
      </trkpt>
      <trkpt lat="45.01782" lon="2.01184">
        <ele>537</ele>
        <time>2012-08-29T09:59:21Z</time>
      </trkpt>
      <trkpt lat="45.01786" lon="2.01188">
        <ele>537</ele>
        <time>2012-08-29T09:59:14Z</time>
      </trkpt>
      <trkpt lat="45.01786" lon="2.01188">
        <ele>540.4</ele>
        <time>2012-08-29T09:59:09Z</time>
      </trkpt>
      <trkpt lat="45.01786" lon="2.01188">
        <ele>535.6</ele>
        <time>2012-08-29T09:59:07Z</time>
      </trkpt>
      <trkpt lat="45.01786" lon="2.01188">
        <ele>531.8</ele>
        <time>2012-08-29T09:59:06Z</time>
      </trkpt>
      <trkpt lat="45.01786" lon="2.01188">
        <ele>542.3</ele>
        <time>2012-08-29T09:59:05Z</time>
      </trkpt>
      <trkpt lat="45.01786" lon="2.01188">
        <ele>537.5</ele>
        <time>2012-08-29T09:59:04Z</time>
      </trkpt>
      <trkpt lat="45.01788" lon="2.01189">
        <ele>539</ele>
        <time>2012-08-29T09:58:53Z</time>
      </trkpt>
      <trkpt lat="45.01794" lon="2.01194">
        <ele>540.4</ele>
        <time>2012-08-29T09:58:45Z</time>
      </trkpt>
      <trkpt lat="45.01796" lon="2.01194">
        <ele>539.9</ele>
        <time>2012-08-29T09:58:44Z</time>
      </trkpt>
      <trkpt lat="45.01799" lon="2.01197">
        <ele>540.4</ele>
        <time>2012-08-29T09:58:39Z</time>
      </trkpt>
      <trkpt lat="45.01801" lon="2.01197">
        <ele>540.4</ele>
        <time>2012-08-29T09:58:38Z</time>
      </trkpt>
      <trkpt lat="45.01802" lon="2.01198">
        <ele>540.9</ele>
        <time>2012-08-29T09:58:37Z</time>
      </trkpt>
      <trkpt lat="45.01803" lon="2.01202">
        <ele>540.9</ele>
        <time>2012-08-29T09:58:34Z</time>
      </trkpt>
      <trkpt lat="45.01805" lon="2.01205">
        <ele>541.4</ele>
        <time>2012-08-29T09:58:32Z</time>
      </trkpt>
      <trkpt lat="45.01807" lon="2.01208">
        <ele>539.4</ele>
        <time>2012-08-29T09:58:26Z</time>
      </trkpt>
      <trkpt lat="45.01807" lon="2.01209">
        <ele>542.8</ele>
        <time>2012-08-29T09:58:25Z</time>
      </trkpt>
      <trkpt lat="45.01814" lon="2.01214">
        <ele>543.8</ele>
        <time>2012-08-29T09:58:17Z</time>
      </trkpt>
      <trkpt lat="45.01817" lon="2.01224">
        <ele>545.2</ele>
        <time>2012-08-29T09:58:09Z</time>
      </trkpt>
      <trkpt lat="45.01819" lon="2.01231">
        <ele>546.2</ele>
        <time>2012-08-29T09:58:04Z</time>
      </trkpt>
      <trkpt lat="45.01821" lon="2.01239">
        <ele>546.7</ele>
        <time>2012-08-29T09:57:59Z</time>
      </trkpt>
      <trkpt lat="45.01825" lon="2.01249">
        <ele>552.9</ele>
        <time>2012-08-29T09:57:54Z</time>
      </trkpt>
      <trkpt lat="45.01826" lon="2.01251">
        <ele>549</ele>
        <time>2012-08-29T09:57:53Z</time>
      </trkpt>
      <trkpt lat="45.01826" lon="2.01253">
        <ele>548.1</ele>
        <time>2012-08-29T09:57:52Z</time>
      </trkpt>
      <trkpt lat="45.01829" lon="2.01267">
        <ele>549.5</ele>
        <time>2012-08-29T09:57:47Z</time>
      </trkpt>
      <trkpt lat="45.01829" lon="2.01269">
        <ele>549.5</ele>
        <time>2012-08-29T09:57:46Z</time>
      </trkpt>
      <trkpt lat="45.01828" lon="2.01285">
        <ele>551</ele>
        <time>2012-08-29T09:57:40Z</time>
      </trkpt>
      <trkpt lat="45.01827" lon="2.01287">
        <ele>551.9</ele>
        <time>2012-08-29T09:57:38Z</time>
      </trkpt>
      <trkpt lat="45.01826" lon="2.01288">
        <ele>551.9</ele>
        <time>2012-08-29T09:57:37Z</time>
      </trkpt>
      <trkpt lat="45.01823" lon="2.01292">
        <ele>552.9</ele>
        <time>2012-08-29T09:57:31Z</time>
      </trkpt>
      <trkpt lat="45.01822" lon="2.01296">
        <ele>553.4</ele>
        <time>2012-08-29T09:57:29Z</time>
      </trkpt>
      <trkpt lat="45.01822" lon="2.01298">
        <ele>553.4</ele>
        <time>2012-08-29T09:57:28Z</time>
      </trkpt>
      <trkpt lat="45.01822" lon="2.01301">
        <ele>553.9</ele>
        <time>2012-08-29T09:57:27Z</time>
      </trkpt>
      <trkpt lat="45.01822" lon="2.01303">
        <ele>554.3</ele>
        <time>2012-08-29T09:57:26Z</time>
      </trkpt>
      <trkpt lat="45.01821" lon="2.01314">
        <ele>555.3</ele>
        <time>2012-08-29T09:57:19Z</time>
      </trkpt>
      <trkpt lat="45.01821" lon="2.01316">
        <ele>554.8</ele>
        <time>2012-08-29T09:57:18Z</time>
      </trkpt>
      <trkpt lat="45.0182" lon="2.01318">
        <ele>555.3</ele>
        <time>2012-08-29T09:57:17Z</time>
      </trkpt>
      <trkpt lat="45.0182" lon="2.0132">
        <ele>555.8</ele>
        <time>2012-08-29T09:57:16Z</time>
      </trkpt>
      <trkpt lat="45.01819" lon="2.01323">
        <ele>555.8</ele>
        <time>2012-08-29T09:57:15Z</time>
      </trkpt>
      <trkpt lat="45.01819" lon="2.01325">
        <ele>555.8</ele>
        <time>2012-08-29T09:57:14Z</time>
      </trkpt>
      <trkpt lat="45.01819" lon="2.0134">
        <ele>556.7</ele>
        <time>2012-08-29T09:57:09Z</time>
      </trkpt>
      <trkpt lat="45.01818" lon="2.01341">
        <ele>557.2</ele>
        <time>2012-08-29T09:57:08Z</time>
      </trkpt>
      <trkpt lat="45.01817" lon="2.01343">
        <ele>556.7</ele>
        <time>2012-08-29T09:57:07Z</time>
      </trkpt>
      <trkpt lat="45.01815" lon="2.01352">
        <ele>557.2</ele>
        <time>2012-08-29T09:56:58Z</time>
      </trkpt>
      <trkpt lat="45.01815" lon="2.01352">
        <ele>556.7</ele>
        <time>2012-08-29T09:56:51Z</time>
      </trkpt>
      <trkpt lat="45.01814" lon="2.01359">
        <ele>556.7</ele>
        <time>2012-08-29T09:56:46Z</time>
      </trkpt>
      <trkpt lat="45.01823" lon="2.01383">
        <ele>555.8</ele>
        <time>2012-08-29T09:56:38Z</time>
      </trkpt>
      <trkpt lat="45.0183" lon="2.01414">
        <ele>557.2</ele>
        <time>2012-08-29T09:56:30Z</time>
      </trkpt>
      <trkpt lat="45.01826" lon="2.01438">
        <ele>559.1</ele>
        <time>2012-08-29T09:56:24Z</time>
      </trkpt>
      <trkpt lat="45.01828" lon="2.01442">
        <ele>558.2</ele>
        <time>2012-08-29T09:56:23Z</time>
      </trkpt>
      <trkpt lat="45.01829" lon="2.01445">
        <ele>558.2</ele>
        <time>2012-08-29T09:56:22Z</time>
      </trkpt>
      <trkpt lat="45.01832" lon="2.01447">
        <ele>557.7</ele>
        <time>2012-08-29T09:56:21Z</time>
      </trkpt>
      <trkpt lat="45.01834" lon="2.0145">
        <ele>558.7</ele>
        <time>2012-08-29T09:56:20Z</time>
      </trkpt>
      <trkpt lat="45.01836" lon="2.01453">
        <ele>557.2</ele>
        <time>2012-08-29T09:56:19Z</time>
      </trkpt>
      <trkpt lat="45.01839" lon="2.01456">
        <ele>552.9</ele>
        <time>2012-08-29T09:56:18Z</time>
      </trkpt>
      <trkpt lat="45.01842" lon="2.01459">
        <ele>557.7</ele>
        <time>2012-08-29T09:56:17Z</time>
      </trkpt>
      <trkpt lat="45.01852" lon="2.01465">
        <ele>554.3</ele>
        <time>2012-08-29T09:56:14Z</time>
      </trkpt>
      <trkpt lat="45.01864" lon="2.01463">
        <ele>552.9</ele>
        <time>2012-08-29T09:56:11Z</time>
      </trkpt>
      <trkpt lat="45.01875" lon="2.01462">
        <ele>550.5</ele>
        <time>2012-08-29T09:56:09Z</time>
      </trkpt>
      <trkpt lat="45.01891" lon="2.01465">
        <ele>547.1</ele>
        <time>2012-08-29T09:56:06Z</time>
      </trkpt>
      <trkpt lat="45.019" lon="2.01468">
        <ele>546.7</ele>
        <time>2012-08-29T09:56:04Z</time>
      </trkpt>
      <trkpt lat="45.01904" lon="2.01471">
        <ele>546.7</ele>
        <time>2012-08-29T09:56:03Z</time>
      </trkpt>
      <trkpt lat="45.01907" lon="2.01475">
        <ele>545.7</ele>
        <time>2012-08-29T09:56:02Z</time>
      </trkpt>
      <trkpt lat="45.01915" lon="2.01484">
        <ele>546.7</ele>
        <time>2012-08-29T09:56:00Z</time>
      </trkpt>
      <trkpt lat="45.0192" lon="2.01489">
        <ele>546.2</ele>
        <time>2012-08-29T09:55:59Z</time>
      </trkpt>
      <trkpt lat="45.01925" lon="2.01491">
        <ele>546.7</ele>
        <time>2012-08-29T09:55:58Z</time>
      </trkpt>
      <trkpt lat="45.0193" lon="2.01492">
        <ele>546.2</ele>
        <time>2012-08-29T09:55:57Z</time>
      </trkpt>
      <trkpt lat="45.01935" lon="2.01492">
        <ele>545.2</ele>
        <time>2012-08-29T09:55:56Z</time>
      </trkpt>
      <trkpt lat="45.0194" lon="2.01489">
        <ele>545.7</ele>
        <time>2012-08-29T09:55:55Z</time>
      </trkpt>
      <trkpt lat="45.01945" lon="2.01485">
        <ele>545.7</ele>
        <time>2012-08-29T09:55:54Z</time>
      </trkpt>
      <trkpt lat="45.0195" lon="2.01481">
        <ele>546.2</ele>
        <time>2012-08-29T09:55:53Z</time>
      </trkpt>
      <trkpt lat="45.0197" lon="2.01467">
        <ele>546.7</ele>
        <time>2012-08-29T09:55:49Z</time>
      </trkpt>
      <trkpt lat="45.01975" lon="2.01465">
        <ele>547.1</ele>
        <time>2012-08-29T09:55:48Z</time>
      </trkpt>
      <trkpt lat="45.01981" lon="2.01463">
        <ele>547.6</ele>
        <time>2012-08-29T09:55:47Z</time>
      </trkpt>
      <trkpt lat="45.01986" lon="2.01463">
        <ele>547.6</ele>
        <time>2012-08-29T09:55:46Z</time>
      </trkpt>
      <trkpt lat="45.01992" lon="2.01462">
        <ele>548.1</ele>
        <time>2012-08-29T09:55:45Z</time>
      </trkpt>
      <trkpt lat="45.01997" lon="2.01463">
        <ele>548.1</ele>
        <time>2012-08-29T09:55:44Z</time>
      </trkpt>
      <trkpt lat="45.02028" lon="2.01468">
        <ele>545.7</ele>
        <time>2012-08-29T09:55:38Z</time>
      </trkpt>
      <trkpt lat="45.02031" lon="2.0147">
        <ele>546.2</ele>
        <time>2012-08-29T09:55:37Z</time>
      </trkpt>
      <trkpt lat="45.02034" lon="2.01473">
        <ele>545.2</ele>
        <time>2012-08-29T09:55:36Z</time>
      </trkpt>
      <trkpt lat="45.02058" lon="2.01499">
        <ele>542.8</ele>
        <time>2012-08-29T09:55:28Z</time>
      </trkpt>
      <trkpt lat="45.02077" lon="2.01499">
        <ele>542.8</ele>
        <time>2012-08-29T09:55:23Z</time>
      </trkpt>
      <trkpt lat="45.02099" lon="2.01502">
        <ele>542.3</ele>
        <time>2012-08-29T09:55:16Z</time>
      </trkpt>
      <trkpt lat="45.02107" lon="2.01506">
        <ele>542.8</ele>
        <time>2012-08-29T09:55:08Z</time>
      </trkpt>
      <trkpt lat="45.02113" lon="2.01511">
        <ele>542.8</ele>
        <time>2012-08-29T09:54:59Z</time>
      </trkpt>
      <trkpt lat="45.02123" lon="2.01521">
        <ele>543.3</ele>
        <time>2012-08-29T09:54:51Z</time>
      </trkpt>
      <trkpt lat="45.02136" lon="2.01532">
        <ele>543.3</ele>
        <time>2012-08-29T09:54:43Z</time>
      </trkpt>
      <trkpt lat="45.02152" lon="2.01545">
        <ele>543.8</ele>
        <time>2012-08-29T09:54:35Z</time>
      </trkpt>
      <trkpt lat="45.02171" lon="2.01555">
        <ele>544.2</ele>
        <time>2012-08-29T09:54:25Z</time>
      </trkpt>
      <trkpt lat="45.02191" lon="2.01565">
        <ele>544.2</ele>
        <time>2012-08-29T09:54:16Z</time>
      </trkpt>
      <trkpt lat="45.022" lon="2.01571">
        <ele>544.2</ele>
        <time>2012-08-29T09:54:06Z</time>
      </trkpt>
      <trkpt lat="45.02205" lon="2.01576">
        <ele>544.2</ele>
        <time>2012-08-29T09:53:59Z</time>
      </trkpt>
      <trkpt lat="45.02212" lon="2.01581">
        <ele>544.7</ele>
        <time>2012-08-29T09:53:50Z</time>
      </trkpt>
      <trkpt lat="45.02222" lon="2.01591">
        <ele>545.2</ele>
        <time>2012-08-29T09:53:43Z</time>
      </trkpt>
      <trkpt lat="45.02229" lon="2.01597">
        <ele>544.7</ele>
        <time>2012-08-29T09:53:35Z</time>
      </trkpt>
      <trkpt lat="45.02229" lon="2.01597">
        <ele>545.2</ele>
        <time>2012-08-29T09:53:34Z</time>
      </trkpt>
      <trkpt lat="45.02242" lon="2.01608">
        <ele>546.2</ele>
        <time>2012-08-29T09:53:29Z</time>
      </trkpt>
      <trkpt lat="45.02264" lon="2.01636">
        <ele>548.6</ele>
        <time>2012-08-29T09:53:19Z</time>
      </trkpt>
      <trkpt lat="45.02274" lon="2.01659">
        <ele>550.5</ele>
        <time>2012-08-29T09:53:11Z</time>
      </trkpt>
      <trkpt lat="45.02282" lon="2.01678">
        <ele>551.9</ele>
        <time>2012-08-29T09:53:04Z</time>
      </trkpt>
      <trkpt lat="45.02292" lon="2.01701">
        <ele>553.9</ele>
        <time>2012-08-29T09:52:55Z</time>
      </trkpt>
      <trkpt lat="45.02301" lon="2.01719">
        <ele>554.8</ele>
        <time>2012-08-29T09:52:48Z</time>
      </trkpt>
      <trkpt lat="45.02307" lon="2.01736">
        <ele>555.8</ele>
        <time>2012-08-29T09:52:42Z</time>
      </trkpt>
      <trkpt lat="45.02319" lon="2.01757">
        <ele>557.7</ele>
        <time>2012-08-29T09:52:33Z</time>
      </trkpt>
      <trkpt lat="45.0233" lon="2.01776">
        <ele>559.1</ele>
        <time>2012-08-29T09:52:25Z</time>
      </trkpt>
      <trkpt lat="45.0234" lon="2.01794">
        <ele>560.6</ele>
        <time>2012-08-29T09:52:18Z</time>
      </trkpt>
      <trkpt lat="45.02347" lon="2.01806">
        <ele>561.1</ele>
        <time>2012-08-29T09:52:14Z</time>
      </trkpt>
      <trkpt lat="45.0236" lon="2.0181">
        <ele>560.1</ele>
        <time>2012-08-29T09:52:08Z</time>
      </trkpt>
      <trkpt lat="45.02364" lon="2.01807">
        <ele>559.6</ele>
        <time>2012-08-29T09:52:06Z</time>
      </trkpt>
      <trkpt lat="45.02394" lon="2.01801">
        <ele>558.2</ele>
        <time>2012-08-29T09:51:58Z</time>
      </trkpt>
      <trkpt lat="45.02427" lon="2.01795">
        <ele>556.7</ele>
        <time>2012-08-29T09:51:51Z</time>
      </trkpt>
      <trkpt lat="45.02443" lon="2.01794">
        <ele>555.8</ele>
        <time>2012-08-29T09:51:44Z</time>
      </trkpt>
      <trkpt lat="45.02445" lon="2.01795">
        <ele>556.3</ele>
        <time>2012-08-29T09:51:36Z</time>
      </trkpt>
      <trkpt lat="45.02437" lon="2.0181">
        <ele>556.7</ele>
        <time>2012-08-29T09:51:31Z</time>
      </trkpt>
      <trkpt lat="45.02433" lon="2.01815">
        <ele>557.7</ele>
        <time>2012-08-29T09:51:30Z</time>
      </trkpt>
      <trkpt lat="45.02428" lon="2.0182">
        <ele>557.7</ele>
        <time>2012-08-29T09:51:29Z</time>
      </trkpt>
      <trkpt lat="45.02408" lon="2.0185">
        <ele>559.6</ele>
        <time>2012-08-29T09:51:25Z</time>
      </trkpt>
      <trkpt lat="45.02403" lon="2.01859">
        <ele>559.6</ele>
        <time>2012-08-29T09:51:24Z</time>
      </trkpt>
      <trkpt lat="45.02384" lon="2.01897">
        <ele>556.3</ele>
        <time>2012-08-29T09:51:19Z</time>
      </trkpt>
      <trkpt lat="45.02382" lon="2.01909">
        <ele>554.8</ele>
        <time>2012-08-29T09:51:15Z</time>
      </trkpt>
      <trkpt lat="45.02391" lon="2.01918">
        <ele>554.3</ele>
        <time>2012-08-29T09:51:09Z</time>
      </trkpt>
      <trkpt lat="45.02401" lon="2.01924">
        <ele>554.8</ele>
        <time>2012-08-29T09:51:07Z</time>
      </trkpt>
      <trkpt lat="45.02427" lon="2.01951">
        <ele>552.9</ele>
        <time>2012-08-29T09:51:04Z</time>
      </trkpt>
      <trkpt lat="45.02453" lon="2.01976">
        <ele>551.5</ele>
        <time>2012-08-29T09:51:02Z</time>
      </trkpt>
      <trkpt lat="45.02463" lon="2.01984">
        <ele>551</ele>
        <time>2012-08-29T09:51:01Z</time>
      </trkpt>
      <trkpt lat="45.02473" lon="2.01989">
        <ele>550</ele>
        <time>2012-08-29T09:51:00Z</time>
      </trkpt>
      <trkpt lat="45.02483" lon="2.01993">
        <ele>548.6</ele>
        <time>2012-08-29T09:50:59Z</time>
      </trkpt>
      <trkpt lat="45.02494" lon="2.01995">
        <ele>548.6</ele>
        <time>2012-08-29T09:50:58Z</time>
      </trkpt>
      <trkpt lat="45.02505" lon="2.01995">
        <ele>548.1</ele>
        <time>2012-08-29T09:50:57Z</time>
      </trkpt>
      <trkpt lat="45.02517" lon="2.0199">
        <ele>549</ele>
        <time>2012-08-29T09:50:56Z</time>
      </trkpt>
      <trkpt lat="45.02528" lon="2.0199">
        <ele>547.6</ele>
        <time>2012-08-29T09:50:55Z</time>
      </trkpt>
      <trkpt lat="45.0254" lon="2.01991">
        <ele>548.1</ele>
        <time>2012-08-29T09:50:54Z</time>
      </trkpt>
      <trkpt lat="45.02551" lon="2.01994">
        <ele>547.1</ele>
        <time>2012-08-29T09:50:53Z</time>
      </trkpt>
      <trkpt lat="45.02562" lon="2.01999">
        <ele>546.7</ele>
        <time>2012-08-29T09:50:52Z</time>
      </trkpt>
      <trkpt lat="45.02573" lon="2.02007">
        <ele>546.7</ele>
        <time>2012-08-29T09:50:51Z</time>
      </trkpt>
      <trkpt lat="45.02583" lon="2.02017">
        <ele>546.7</ele>
        <time>2012-08-29T09:50:50Z</time>
      </trkpt>
      <trkpt lat="45.02592" lon="2.02028">
        <ele>545.2</ele>
        <time>2012-08-29T09:50:49Z</time>
      </trkpt>
      <trkpt lat="45.02636" lon="2.02086">
        <ele>544.2</ele>
        <time>2012-08-29T09:50:45Z</time>
      </trkpt>
      <trkpt lat="45.02679" lon="2.02144">
        <ele>540.9</ele>
        <time>2012-08-29T09:50:41Z</time>
      </trkpt>
      <trkpt lat="45.02697" lon="2.02168">
        <ele>539</ele>
        <time>2012-08-29T09:50:39Z</time>
      </trkpt>
      <trkpt lat="45.02725" lon="2.02203">
        <ele>534.2</ele>
        <time>2012-08-29T09:50:36Z</time>
      </trkpt>
      <trkpt lat="45.02734" lon="2.02215">
        <ele>534.2</ele>
        <time>2012-08-29T09:50:35Z</time>
      </trkpt>
      <trkpt lat="45.02763" lon="2.02255">
        <ele>530.3</ele>
        <time>2012-08-29T09:50:32Z</time>
      </trkpt>
      <trkpt lat="45.02786" lon="2.02281">
        <ele>527.4</ele>
        <time>2012-08-29T09:50:30Z</time>
      </trkpt>
      <trkpt lat="45.02798" lon="2.02292">
        <ele>526.5</ele>
        <time>2012-08-29T09:50:29Z</time>
      </trkpt>
      <trkpt lat="45.02811" lon="2.02301">
        <ele>525.5</ele>
        <time>2012-08-29T09:50:28Z</time>
      </trkpt>
      <trkpt lat="45.02839" lon="2.0232">
        <ele>524.5</ele>
        <time>2012-08-29T09:50:26Z</time>
      </trkpt>
      <trkpt lat="45.02849" lon="2.02332">
        <ele>524.5</ele>
        <time>2012-08-29T09:50:25Z</time>
      </trkpt>
      <trkpt lat="45.02882" lon="2.02372">
        <ele>527.9</ele>
        <time>2012-08-29T09:50:22Z</time>
      </trkpt>
      <trkpt lat="45.02892" lon="2.02385">
        <ele>527.4</ele>
        <time>2012-08-29T09:50:21Z</time>
      </trkpt>
      <trkpt lat="45.02923" lon="2.0243">
        <ele>527.4</ele>
        <time>2012-08-29T09:50:17Z</time>
      </trkpt>
      <trkpt lat="45.02927" lon="2.02439">
        <ele>526</ele>
        <time>2012-08-29T09:50:16Z</time>
      </trkpt>
      <trkpt lat="45.02931" lon="2.02447">
        <ele>526</ele>
        <time>2012-08-29T09:50:15Z</time>
      </trkpt>
      <trkpt lat="45.02938" lon="2.02463">
        <ele>524.5</ele>
        <time>2012-08-29T09:50:12Z</time>
      </trkpt>
      <trkpt lat="45.02942" lon="2.02464">
        <ele>524.5</ele>
        <time>2012-08-29T09:50:11Z</time>
      </trkpt>
      <trkpt lat="45.02947" lon="2.02461">
        <ele>525</ele>
        <time>2012-08-29T09:50:10Z</time>
      </trkpt>
      <trkpt lat="45.02953" lon="2.02457">
        <ele>525</ele>
        <time>2012-08-29T09:50:09Z</time>
      </trkpt>
      <trkpt lat="45.02959" lon="2.02451">
        <ele>524.5</ele>
        <time>2012-08-29T09:50:08Z</time>
      </trkpt>
      <trkpt lat="45.02994" lon="2.02426">
        <ele>525.5</ele>
        <time>2012-08-29T09:50:04Z</time>
      </trkpt>
      <trkpt lat="45.0304" lon="2.02405">
        <ele>527.4</ele>
        <time>2012-08-29T09:50:00Z</time>
      </trkpt>
      <trkpt lat="45.03125" lon="2.02373">
        <ele>526.5</ele>
        <time>2012-08-29T09:49:54Z</time>
      </trkpt>
      <trkpt lat="45.03183" lon="2.02351">
        <ele>524.1</ele>
        <time>2012-08-29T09:49:50Z</time>
      </trkpt>
      <trkpt lat="45.03226" lon="2.02334">
        <ele>520.7</ele>
        <time>2012-08-29T09:49:47Z</time>
      </trkpt>
      <trkpt lat="45.0324" lon="2.02328">
        <ele>520.7</ele>
        <time>2012-08-29T09:49:46Z</time>
      </trkpt>
      <trkpt lat="45.03294" lon="2.02295">
        <ele>519.7</ele>
        <time>2012-08-29T09:49:42Z</time>
      </trkpt>
      <trkpt lat="45.03339" lon="2.02247">
        <ele>517.3</ele>
        <time>2012-08-29T09:49:38Z</time>
      </trkpt>
      <trkpt lat="45.03368" lon="2.02205">
        <ele>515.4</ele>
        <time>2012-08-29T09:49:35Z</time>
      </trkpt>
      <trkpt lat="45.03413" lon="2.02136">
        <ele>514</ele>
        <time>2012-08-29T09:49:30Z</time>
      </trkpt>
      <trkpt lat="45.03465" lon="2.02071">
        <ele>513.5</ele>
        <time>2012-08-29T09:49:25Z</time>
      </trkpt>
      <trkpt lat="45.03504" lon="2.0204">
        <ele>511.6</ele>
        <time>2012-08-29T09:49:21Z</time>
      </trkpt>
      <trkpt lat="45.03516" lon="2.02029">
        <ele>510.6</ele>
        <time>2012-08-29T09:49:19Z</time>
      </trkpt>
      <trkpt lat="45.0352" lon="2.02025">
        <ele>510.1</ele>
        <time>2012-08-29T09:49:18Z</time>
      </trkpt>
      <trkpt lat="45.03523" lon="2.02021">
        <ele>509.6</ele>
        <time>2012-08-29T09:49:17Z</time>
      </trkpt>
      <trkpt lat="45.03526" lon="2.02018">
        <ele>510.1</ele>
        <time>2012-08-29T09:49:16Z</time>
      </trkpt>
      <trkpt lat="45.0354" lon="2.02002">
        <ele>511.1</ele>
        <time>2012-08-29T09:49:10Z</time>
      </trkpt>
      <trkpt lat="45.03548" lon="2.01994">
        <ele>513</ele>
        <time>2012-08-29T09:49:07Z</time>
      </trkpt>
      <trkpt lat="45.03563" lon="2.01979">
        <ele>514</ele>
        <time>2012-08-29T09:49:02Z</time>
      </trkpt>
      <trkpt lat="45.03566" lon="2.0196">
        <ele>515.9</ele>
        <time>2012-08-29T09:48:57Z</time>
      </trkpt>
      <trkpt lat="45.03564" lon="2.01957">
        <ele>516.4</ele>
        <time>2012-08-29T09:48:56Z</time>
      </trkpt>
      <trkpt lat="45.03562" lon="2.01953">
        <ele>516.4</ele>
        <time>2012-08-29T09:48:55Z</time>
      </trkpt>
      <trkpt lat="45.03561" lon="2.01949">
        <ele>516.4</ele>
        <time>2012-08-29T09:48:54Z</time>
      </trkpt>
      <trkpt lat="45.03547" lon="2.01915">
        <ele>515.9</ele>
        <time>2012-08-29T09:48:45Z</time>
      </trkpt>
      <trkpt lat="45.03541" lon="2.01898">
        <ele>520.2</ele>
        <time>2012-08-29T09:48:40Z</time>
      </trkpt>
      <trkpt lat="45.0354" lon="2.01895">
        <ele>515.4</ele>
        <time>2012-08-29T09:48:39Z</time>
      </trkpt>
      <trkpt lat="45.03536" lon="2.0186">
        <ele>513.5</ele>
        <time>2012-08-29T09:48:30Z</time>
      </trkpt>
      <trkpt lat="45.03537" lon="2.0183">
        <ele>512.5</ele>
        <time>2012-08-29T09:48:23Z</time>
      </trkpt>
      <trkpt lat="45.03538" lon="2.01809">
        <ele>511.6</ele>
        <time>2012-08-29T09:48:19Z</time>
      </trkpt>
      <trkpt lat="45.03542" lon="2.01761">
        <ele>509.6</ele>
        <time>2012-08-29T09:48:11Z</time>
      </trkpt>
      <trkpt lat="45.03542" lon="2.01722">
        <ele>507.7</ele>
        <time>2012-08-29T09:48:05Z</time>
      </trkpt>
      <trkpt lat="45.03538" lon="2.0168">
        <ele>506.3</ele>
        <time>2012-08-29T09:47:57Z</time>
      </trkpt>
      <trkpt lat="45.03535" lon="2.01653">
        <ele>505.3</ele>
        <time>2012-08-29T09:47:52Z</time>
      </trkpt>
      <trkpt lat="45.03527" lon="2.01625">
        <ele>503.4</ele>
        <time>2012-08-29T09:47:45Z</time>
      </trkpt>
      <trkpt lat="45.03522" lon="2.01614">
        <ele>502</ele>
        <time>2012-08-29T09:47:42Z</time>
      </trkpt>
      <trkpt lat="45.03511" lon="2.01588">
        <ele>500.5</ele>
        <time>2012-08-29T09:47:36Z</time>
      </trkpt>
      <trkpt lat="45.03503" lon="2.01556">
        <ele>497.6</ele>
        <time>2012-08-29T09:47:29Z</time>
      </trkpt>
      <trkpt lat="45.03495" lon="2.01532">
        <ele>494.3</ele>
        <time>2012-08-29T09:47:23Z</time>
      </trkpt>
      <trkpt lat="45.03493" lon="2.01505">
        <ele>491.9</ele>
        <time>2012-08-29T09:47:16Z</time>
      </trkpt>
      <trkpt lat="45.03489" lon="2.01458">
        <ele>488.5</ele>
        <time>2012-08-29T09:47:07Z</time>
      </trkpt>
      <trkpt lat="45.03485" lon="2.01413">
        <ele>488.5</ele>
        <time>2012-08-29T09:47:00Z</time>
      </trkpt>
      <trkpt lat="45.03479" lon="2.01388">
        <ele>486.6</ele>
        <time>2012-08-29T09:46:55Z</time>
      </trkpt>
      <trkpt lat="45.03484" lon="2.01332">
        <ele>483.7</ele>
        <time>2012-08-29T09:46:48Z</time>
      </trkpt>
      <trkpt lat="45.03483" lon="2.0128">
        <ele>482.7</ele>
        <time>2012-08-29T09:46:39Z</time>
      </trkpt>
      <trkpt lat="45.03482" lon="2.01244">
        <ele>480.8</ele>
        <time>2012-08-29T09:46:32Z</time>
      </trkpt>
      <trkpt lat="45.03481" lon="2.0122">
        <ele>478.9</ele>
        <time>2012-08-29T09:46:26Z</time>
      </trkpt>
      <trkpt lat="45.03483" lon="2.01207">
        <ele>479.4</ele>
        <time>2012-08-29T09:46:19Z</time>
      </trkpt>
      <trkpt lat="45.03489" lon="2.01205">
        <ele>481.3</ele>
        <time>2012-08-29T09:46:14Z</time>
      </trkpt>
      <trkpt lat="45.03491" lon="2.01205">
        <ele>482.2</ele>
        <time>2012-08-29T09:46:13Z</time>
      </trkpt>
      <trkpt lat="45.03494" lon="2.01205">
        <ele>482.7</ele>
        <time>2012-08-29T09:46:12Z</time>
      </trkpt>
      <trkpt lat="45.03496" lon="2.01204">
        <ele>483.2</ele>
        <time>2012-08-29T09:46:11Z</time>
      </trkpt>
      <trkpt lat="45.03499" lon="2.01203">
        <ele>483.2</ele>
        <time>2012-08-29T09:46:10Z</time>
      </trkpt>
      <trkpt lat="45.03501" lon="2.01202">
        <ele>483.7</ele>
        <time>2012-08-29T09:46:09Z</time>
      </trkpt>
      <trkpt lat="45.03507" lon="2.01201">
        <ele>484.6</ele>
        <time>2012-08-29T09:46:07Z</time>
      </trkpt>
      <trkpt lat="45.03512" lon="2.01202">
        <ele>486.1</ele>
        <time>2012-08-29T09:46:05Z</time>
      </trkpt>
      <trkpt lat="45.0354" lon="2.01213">
        <ele>489.5</ele>
        <time>2012-08-29T09:45:55Z</time>
      </trkpt>
      <trkpt lat="45.03572" lon="2.01228">
        <ele>491.9</ele>
        <time>2012-08-29T09:45:45Z</time>
      </trkpt>
      <trkpt lat="45.03598" lon="2.01239">
        <ele>493.3</ele>
        <time>2012-08-29T09:45:37Z</time>
      </trkpt>
      <trkpt lat="45.03614" lon="2.01245">
        <ele>493.3</ele>
        <time>2012-08-29T09:45:30Z</time>
      </trkpt>
      <trkpt lat="45.03632" lon="2.01258">
        <ele>491.4</ele>
        <time>2012-08-29T09:45:22Z</time>
      </trkpt>
      <trkpt lat="45.03643" lon="2.01265">
        <ele>489.5</ele>
        <time>2012-08-29T09:45:18Z</time>
      </trkpt>
      <trkpt lat="45.03659" lon="2.01268">
        <ele>488</ele>
        <time>2012-08-29T09:45:12Z</time>
      </trkpt>
      <trkpt lat="45.03669" lon="2.01275">
        <ele>486.1</ele>
        <time>2012-08-29T09:45:06Z</time>
      </trkpt>
      <trkpt lat="45.03678" lon="2.01282">
        <ele>484.2</ele>
        <time>2012-08-29T09:44:58Z</time>
      </trkpt>
      <trkpt lat="45.03681" lon="2.01287">
        <ele>481.3</ele>
        <time>2012-08-29T09:44:50Z</time>
      </trkpt>
      <trkpt lat="45.03682" lon="2.01291">
        <ele>480.8</ele>
        <time>2012-08-29T09:44:48Z</time>
      </trkpt>
      <trkpt lat="45.03688" lon="2.01306">
        <ele>478.9</ele>
        <time>2012-08-29T09:44:42Z</time>
      </trkpt>
      <trkpt lat="45.0369" lon="2.01316">
        <ele>477.9</ele>
        <time>2012-08-29T09:44:38Z</time>
      </trkpt>
      <trkpt lat="45.03695" lon="2.01341">
        <ele>477</ele>
        <time>2012-08-29T09:44:30Z</time>
      </trkpt>
      <trkpt lat="45.03706" lon="2.01372">
        <ele>476.5</ele>
        <time>2012-08-29T09:44:21Z</time>
      </trkpt>
      <trkpt lat="45.03721" lon="2.01383">
        <ele>476.5</ele>
        <time>2012-08-29T09:44:14Z</time>
      </trkpt>
      <trkpt lat="45.03725" lon="2.01383">
        <ele>476</ele>
        <time>2012-08-29T09:44:13Z</time>
      </trkpt>
      <trkpt lat="45.0373" lon="2.0138">
        <ele>475.5</ele>
        <time>2012-08-29T09:44:12Z</time>
      </trkpt>
      <trkpt lat="45.03744" lon="2.0136">
        <ele>473.1</ele>
        <time>2012-08-29T09:44:04Z</time>
      </trkpt>
      <trkpt lat="45.03751" lon="2.01359">
        <ele>472.1</ele>
        <time>2012-08-29T09:44:00Z</time>
      </trkpt>
      <trkpt lat="45.03754" lon="2.01361">
        <ele>471.2</ele>
        <time>2012-08-29T09:43:59Z</time>
      </trkpt>
      <trkpt lat="45.03756" lon="2.01362">
        <ele>470.7</ele>
        <time>2012-08-29T09:43:58Z</time>
      </trkpt>
      <trkpt lat="45.03759" lon="2.01365">
        <ele>470.7</ele>
        <time>2012-08-29T09:43:57Z</time>
      </trkpt>
      <trkpt lat="45.03762" lon="2.01367">
        <ele>469.7</ele>
        <time>2012-08-29T09:43:56Z</time>
      </trkpt>
      <trkpt lat="45.03764" lon="2.01368">
        <ele>469.3</ele>
        <time>2012-08-29T09:43:55Z</time>
      </trkpt>
      <trkpt lat="45.03766" lon="2.01371">
        <ele>468.8</ele>
        <time>2012-08-29T09:43:54Z</time>
      </trkpt>
      <trkpt lat="45.03769" lon="2.01372">
        <ele>468.8</ele>
        <time>2012-08-29T09:43:53Z</time>
      </trkpt>
      <trkpt lat="45.03789" lon="2.01384">
        <ele>465.9</ele>
        <time>2012-08-29T09:43:45Z</time>
      </trkpt>
      <trkpt lat="45.03811" lon="2.01409">
        <ele>465.9</ele>
        <time>2012-08-29T09:43:36Z</time>
      </trkpt>
      <trkpt lat="45.03832" lon="2.01434">
        <ele>466.4</ele>
        <time>2012-08-29T09:43:29Z</time>
      </trkpt>
      <trkpt lat="45.0386" lon="2.01437">
        <ele>468.8</ele>
        <time>2012-08-29T09:43:23Z</time>
      </trkpt>
      <trkpt lat="45.03879" lon="2.01434">
        <ele>470.7</ele>
        <time>2012-08-29T09:43:18Z</time>
      </trkpt>
      <trkpt lat="45.039" lon="2.01428">
        <ele>472.6</ele>
        <time>2012-08-29T09:43:12Z</time>
      </trkpt>
      <trkpt lat="45.03915" lon="2.01416">
        <ele>474.1</ele>
        <time>2012-08-29T09:43:06Z</time>
      </trkpt>
      <trkpt lat="45.03925" lon="2.01381">
        <ele>476</ele>
        <time>2012-08-29T09:42:58Z</time>
      </trkpt>
      <trkpt lat="45.0394" lon="2.01364">
        <ele>476</ele>
        <time>2012-08-29T09:42:52Z</time>
      </trkpt>
      <trkpt lat="45.03949" lon="2.01343">
        <ele>476.5</ele>
        <time>2012-08-29T09:42:47Z</time>
      </trkpt>
      <trkpt lat="45.03952" lon="2.01327">
        <ele>476.5</ele>
        <time>2012-08-29T09:42:41Z</time>
      </trkpt>
      <trkpt lat="45.03954" lon="2.0133">
        <ele>476.5</ele>
        <time>2012-08-29T09:42:39Z</time>
      </trkpt>
      <trkpt lat="45.03957" lon="2.01333">
        <ele>476.5</ele>
        <time>2012-08-29T09:42:38Z</time>
      </trkpt>
      <trkpt lat="45.0396" lon="2.01337">
        <ele>476.5</ele>
        <time>2012-08-29T09:42:37Z</time>
      </trkpt>
      <trkpt lat="45.03963" lon="2.01342">
        <ele>476.5</ele>
        <time>2012-08-29T09:42:36Z</time>
      </trkpt>
      <trkpt lat="45.03966" lon="2.01345">
        <ele>476.5</ele>
        <time>2012-08-29T09:42:35Z</time>
      </trkpt>
      <trkpt lat="45.03969" lon="2.01349">
        <ele>476.5</ele>
        <time>2012-08-29T09:42:34Z</time>
      </trkpt>
      <trkpt lat="45.03973" lon="2.01351">
        <ele>477</ele>
        <time>2012-08-29T09:42:33Z</time>
      </trkpt>
      <trkpt lat="45.03976" lon="2.01353">
        <ele>477</ele>
        <time>2012-08-29T09:42:32Z</time>
      </trkpt>
      <trkpt lat="45.03983" lon="2.0136">
        <ele>477</ele>
        <time>2012-08-29T09:42:30Z</time>
      </trkpt>
      <trkpt lat="45.03985" lon="2.01366">
        <ele>477</ele>
        <time>2012-08-29T09:42:29Z</time>
      </trkpt>
      <trkpt lat="45.03985" lon="2.01372">
        <ele>477.4</ele>
        <time>2012-08-29T09:42:28Z</time>
      </trkpt>
      <trkpt lat="45.03986" lon="2.01379">
        <ele>477</ele>
        <time>2012-08-29T09:42:27Z</time>
      </trkpt>
      <trkpt lat="45.03985" lon="2.01385">
        <ele>476.5</ele>
        <time>2012-08-29T09:42:26Z</time>
      </trkpt>
      <trkpt lat="45.03986" lon="2.01392">
        <ele>477</ele>
        <time>2012-08-29T09:42:25Z</time>
      </trkpt>
      <trkpt lat="45.03987" lon="2.01398">
        <ele>477.9</ele>
        <time>2012-08-29T09:42:24Z</time>
      </trkpt>
      <trkpt lat="45.03991" lon="2.01405">
        <ele>478.4</ele>
        <time>2012-08-29T09:42:23Z</time>
      </trkpt>
      <trkpt lat="45.04016" lon="2.0144">
        <ele>479.4</ele>
        <time>2012-08-29T09:42:18Z</time>
      </trkpt>
      <trkpt lat="45.04036" lon="2.01464">
        <ele>481.3</ele>
        <time>2012-08-29T09:42:15Z</time>
      </trkpt>
      <trkpt lat="45.04078" lon="2.01529">
        <ele>483.7</ele>
        <time>2012-08-29T09:42:08Z</time>
      </trkpt>
      <trkpt lat="45.041" lon="2.01566">
        <ele>487</ele>
        <time>2012-08-29T09:42:04Z</time>
      </trkpt>
      <trkpt lat="45.04134" lon="2.01626">
        <ele>489.5</ele>
        <time>2012-08-29T09:41:57Z</time>
      </trkpt>
      <trkpt lat="45.0414" lon="2.0164">
        <ele>489</ele>
        <time>2012-08-29T09:41:53Z</time>
      </trkpt>
      <trkpt lat="45.04145" lon="2.01649">
        <ele>489</ele>
        <time>2012-08-29T09:41:49Z</time>
      </trkpt>
      <trkpt lat="45.04164" lon="2.01679">
        <ele>491.4</ele>
        <time>2012-08-29T09:41:42Z</time>
      </trkpt>
      <trkpt lat="45.04176" lon="2.01692">
        <ele>490.4</ele>
        <time>2012-08-29T09:41:36Z</time>
      </trkpt>
      <trkpt lat="45.0419" lon="2.01683">
        <ele>490.4</ele>
        <time>2012-08-29T09:41:30Z</time>
      </trkpt>
      <trkpt lat="45.04211" lon="2.01658">
        <ele>490.9</ele>
        <time>2012-08-29T09:41:20Z</time>
      </trkpt>
      <trkpt lat="45.04225" lon="2.01637">
        <ele>491.9</ele>
        <time>2012-08-29T09:41:11Z</time>
      </trkpt>
      <trkpt lat="45.04237" lon="2.01617">
        <ele>493.3</ele>
        <time>2012-08-29T09:41:03Z</time>
      </trkpt>
      <trkpt lat="45.04246" lon="2.01604">
        <ele>479.4</ele>
        <time>2012-08-29T09:40:58Z</time>
      </trkpt>
      <trkpt lat="45.04247" lon="2.01601">
        <ele>488.5</ele>
        <time>2012-08-29T09:40:57Z</time>
      </trkpt>
      <trkpt lat="45.04249" lon="2.01599">
        <ele>510.1</ele>
        <time>2012-08-29T09:40:56Z</time>
      </trkpt>
      <trkpt lat="45.04251" lon="2.01597">
        <ele>494.3</ele>
        <time>2012-08-29T09:40:55Z</time>
      </trkpt>
      <trkpt lat="45.04255" lon="2.0159">
        <ele>493.3</ele>
        <time>2012-08-29T09:40:53Z</time>
      </trkpt>
      <trkpt lat="45.04269" lon="2.01567">
        <ele>494.3</ele>
        <time>2012-08-29T09:40:45Z</time>
      </trkpt>
      <trkpt lat="45.04283" lon="2.01541">
        <ele>493.3</ele>
        <time>2012-08-29T09:40:36Z</time>
      </trkpt>
      <trkpt lat="45.04303" lon="2.01515">
        <ele>493.3</ele>
        <time>2012-08-29T09:40:27Z</time>
      </trkpt>
      <trkpt lat="45.04337" lon="2.01497">
        <ele>492.8</ele>
        <time>2012-08-29T09:40:18Z</time>
      </trkpt>
      <trkpt lat="45.04366" lon="2.01492">
        <ele>491.9</ele>
        <time>2012-08-29T09:40:09Z</time>
      </trkpt>
      <trkpt lat="45.04403" lon="2.0149">
        <ele>491.4</ele>
        <time>2012-08-29T09:39:58Z</time>
      </trkpt>
      <trkpt lat="45.04429" lon="2.01492">
        <ele>491.4</ele>
        <time>2012-08-29T09:39:49Z</time>
      </trkpt>
      <trkpt lat="45.04453" lon="2.01514">
        <ele>490.4</ele>
        <time>2012-08-29T09:39:41Z</time>
      </trkpt>
      <trkpt lat="45.04462" lon="2.01527">
        <ele>488</ele>
        <time>2012-08-29T09:39:35Z</time>
      </trkpt>
      <trkpt lat="45.04461" lon="2.01547">
        <ele>487</ele>
        <time>2012-08-29T09:39:30Z</time>
      </trkpt>
      <trkpt lat="45.04458" lon="2.01552">
        <ele>486.6</ele>
        <time>2012-08-29T09:39:29Z</time>
      </trkpt>
      <trkpt lat="45.04436" lon="2.01592">
        <ele>486.1</ele>
        <time>2012-08-29T09:39:24Z</time>
      </trkpt>
      <trkpt lat="45.04409" lon="2.0165">
        <ele>482.7</ele>
        <time>2012-08-29T09:39:19Z</time>
      </trkpt>
      <trkpt lat="45.04403" lon="2.01664">
        <ele>482.7</ele>
        <time>2012-08-29T09:39:18Z</time>
      </trkpt>
      <trkpt lat="45.04387" lon="2.01705">
        <ele>480.8</ele>
        <time>2012-08-29T09:39:15Z</time>
      </trkpt>
      <trkpt lat="45.04384" lon="2.01736">
        <ele>480.3</ele>
        <time>2012-08-29T09:39:13Z</time>
      </trkpt>
      <trkpt lat="45.04386" lon="2.01752">
        <ele>479.8</ele>
        <time>2012-08-29T09:39:12Z</time>
      </trkpt>
      <trkpt lat="45.04388" lon="2.0179">
        <ele>477.4</ele>
        <time>2012-08-29T09:39:09Z</time>
      </trkpt>
      <trkpt lat="45.04388" lon="2.01801">
        <ele>477</ele>
        <time>2012-08-29T09:39:08Z</time>
      </trkpt>
      <trkpt lat="45.04384" lon="2.01832">
        <ele>475</ele>
        <time>2012-08-29T09:39:05Z</time>
      </trkpt>
      <trkpt lat="45.04381" lon="2.01842">
        <ele>474.1</ele>
        <time>2012-08-29T09:39:04Z</time>
      </trkpt>
      <trkpt lat="45.04378" lon="2.01851">
        <ele>474.5</ele>
        <time>2012-08-29T09:39:03Z</time>
      </trkpt>
      <trkpt lat="45.04374" lon="2.01859">
        <ele>474.1</ele>
        <time>2012-08-29T09:39:02Z</time>
      </trkpt>
      <trkpt lat="45.04369" lon="2.01867">
        <ele>473.1</ele>
        <time>2012-08-29T09:39:01Z</time>
      </trkpt>
      <trkpt lat="45.04352" lon="2.01901">
        <ele>471.7</ele>
        <time>2012-08-29T09:38:56Z</time>
      </trkpt>
      <trkpt lat="45.04356" lon="2.01905">
        <ele>473.1</ele>
        <time>2012-08-29T09:38:54Z</time>
      </trkpt>
      <trkpt lat="45.04362" lon="2.01903">
        <ele>474.1</ele>
        <time>2012-08-29T09:38:53Z</time>
      </trkpt>
      <trkpt lat="45.04368" lon="2.01901">
        <ele>475</ele>
        <time>2012-08-29T09:38:52Z</time>
      </trkpt>
      <trkpt lat="45.04373" lon="2.019">
        <ele>475</ele>
        <time>2012-08-29T09:38:51Z</time>
      </trkpt>
      <trkpt lat="45.04378" lon="2.019">
        <ele>476</ele>
        <time>2012-08-29T09:38:50Z</time>
      </trkpt>
      <trkpt lat="45.04383" lon="2.01902">
        <ele>477</ele>
        <time>2012-08-29T09:38:49Z</time>
      </trkpt>
      <trkpt lat="45.04388" lon="2.01904">
        <ele>477.9</ele>
        <time>2012-08-29T09:38:48Z</time>
      </trkpt>
      <trkpt lat="45.04393" lon="2.01908">
        <ele>478.4</ele>
        <time>2012-08-29T09:38:47Z</time>
      </trkpt>
      <trkpt lat="45.04398" lon="2.01912">
        <ele>478.9</ele>
        <time>2012-08-29T09:38:46Z</time>
      </trkpt>
      <trkpt lat="45.04422" lon="2.0193">
        <ele>479.8</ele>
        <time>2012-08-29T09:38:42Z</time>
      </trkpt>
      <trkpt lat="45.04427" lon="2.01936">
        <ele>480.3</ele>
        <time>2012-08-29T09:38:41Z</time>
      </trkpt>
      <trkpt lat="45.04432" lon="2.01943">
        <ele>480.3</ele>
        <time>2012-08-29T09:38:40Z</time>
      </trkpt>
      <trkpt lat="45.04436" lon="2.01951">
        <ele>481.3</ele>
        <time>2012-08-29T09:38:39Z</time>
      </trkpt>
      <trkpt lat="45.0444" lon="2.0196">
        <ele>480.3</ele>
        <time>2012-08-29T09:38:38Z</time>
      </trkpt>
      <trkpt lat="45.04469" lon="2.0203">
        <ele>481.3</ele>
        <time>2012-08-29T09:38:30Z</time>
      </trkpt>
      <trkpt lat="45.04472" lon="2.02058">
        <ele>482.7</ele>
        <time>2012-08-29T09:38:27Z</time>
      </trkpt>
      <trkpt lat="45.04472" lon="2.02067">
        <ele>482.2</ele>
        <time>2012-08-29T09:38:26Z</time>
      </trkpt>
      <trkpt lat="45.04474" lon="2.02075">
        <ele>483.2</ele>
        <time>2012-08-29T09:38:25Z</time>
      </trkpt>
      <trkpt lat="45.04477" lon="2.02091">
        <ele>485.1</ele>
        <time>2012-08-29T09:38:23Z</time>
      </trkpt>
      <trkpt lat="45.0448" lon="2.02097">
        <ele>485.6</ele>
        <time>2012-08-29T09:38:22Z</time>
      </trkpt>
      <trkpt lat="45.04484" lon="2.02103">
        <ele>485.6</ele>
        <time>2012-08-29T09:38:21Z</time>
      </trkpt>
      <trkpt lat="45.04488" lon="2.02108">
        <ele>486.6</ele>
        <time>2012-08-29T09:38:20Z</time>
      </trkpt>
      <trkpt lat="45.04493" lon="2.02113">
        <ele>487</ele>
        <time>2012-08-29T09:38:19Z</time>
      </trkpt>
      <trkpt lat="45.04498" lon="2.02118">
        <ele>487.5</ele>
        <time>2012-08-29T09:38:18Z</time>
      </trkpt>
      <trkpt lat="45.04504" lon="2.02123">
        <ele>488</ele>
        <time>2012-08-29T09:38:17Z</time>
      </trkpt>
      <trkpt lat="45.04518" lon="2.02139">
        <ele>489.5</ele>
        <time>2012-08-29T09:38:14Z</time>
      </trkpt>
      <trkpt lat="45.04522" lon="2.02145">
        <ele>489.5</ele>
        <time>2012-08-29T09:38:13Z</time>
      </trkpt>
      <trkpt lat="45.04534" lon="2.02163">
        <ele>490.9</ele>
        <time>2012-08-29T09:38:10Z</time>
      </trkpt>
      <trkpt lat="45.04563" lon="2.02191">
        <ele>492.3</ele>
        <time>2012-08-29T09:38:03Z</time>
      </trkpt>
      <trkpt lat="45.04567" lon="2.02191">
        <ele>492.8</ele>
        <time>2012-08-29T09:38:02Z</time>
      </trkpt>
      <trkpt lat="45.0457" lon="2.02189">
        <ele>492.8</ele>
        <time>2012-08-29T09:38:01Z</time>
      </trkpt>
      <trkpt lat="45.046" lon="2.02176">
        <ele>495.7</ele>
        <time>2012-08-29T09:37:53Z</time>
      </trkpt>
      <trkpt lat="45.04637" lon="2.02162">
        <ele>497.6</ele>
        <time>2012-08-29T09:37:44Z</time>
      </trkpt>
      <trkpt lat="45.04642" lon="2.0216">
        <ele>497.6</ele>
        <time>2012-08-29T09:37:43Z</time>
      </trkpt>
      <trkpt lat="45.0468" lon="2.02129">
        <ele>498.1</ele>
        <time>2012-08-29T09:37:34Z</time>
      </trkpt>
      <trkpt lat="45.04712" lon="2.02098">
        <ele>499.1</ele>
        <time>2012-08-29T09:37:26Z</time>
      </trkpt>
      <trkpt lat="45.04731" lon="2.02065">
        <ele>501</ele>
        <time>2012-08-29T09:37:18Z</time>
      </trkpt>
      <trkpt lat="45.04745" lon="2.02031">
        <ele>503.9</ele>
        <time>2012-08-29T09:37:09Z</time>
      </trkpt>
      <trkpt lat="45.04751" lon="2.02022">
        <ele>504.8</ele>
        <time>2012-08-29T09:37:05Z</time>
      </trkpt>
      <trkpt lat="45.04766" lon="2.0201">
        <ele>506.3</ele>
        <time>2012-08-29T09:36:57Z</time>
      </trkpt>
      <trkpt lat="45.04796" lon="2.02">
        <ele>509.2</ele>
        <time>2012-08-29T09:36:47Z</time>
      </trkpt>
      <trkpt lat="45.04815" lon="2.02001">
        <ele>510.1</ele>
        <time>2012-08-29T09:36:42Z</time>
      </trkpt>
      <trkpt lat="45.04852" lon="2.01999">
        <ele>512</ele>
        <time>2012-08-29T09:36:32Z</time>
      </trkpt>
      <trkpt lat="45.04912" lon="2.02026">
        <ele>513</ele>
        <time>2012-08-29T09:36:26Z</time>
      </trkpt>
      <trkpt lat="45.04935" lon="2.02016">
        <ele>514</ele>
        <time>2012-08-29T09:36:18Z</time>
      </trkpt>
      <trkpt lat="45.04963" lon="2.02025">
        <ele>515.4</ele>
        <time>2012-08-29T09:36:11Z</time>
      </trkpt>
      <trkpt lat="45.04994" lon="2.0203">
        <ele>514.9</ele>
        <time>2012-08-29T09:36:03Z</time>
      </trkpt>
      <trkpt lat="45.05022" lon="2.02032">
        <ele>514.4</ele>
        <time>2012-08-29T09:35:55Z</time>
      </trkpt>
      <trkpt lat="45.05043" lon="2.02034">
        <ele>512</ele>
        <time>2012-08-29T09:35:49Z</time>
      </trkpt>
      <trkpt lat="45.05046" lon="2.02034">
        <ele>512</ele>
        <time>2012-08-29T09:35:48Z</time>
      </trkpt>
      <trkpt lat="45.05078" lon="2.02025">
        <ele>511.6</ele>
        <time>2012-08-29T09:35:40Z</time>
      </trkpt>
      <trkpt lat="45.05114" lon="2.02018">
        <ele>509.2</ele>
        <time>2012-08-29T09:35:32Z</time>
      </trkpt>
      <trkpt lat="45.05127" lon="2.02031">
        <ele>507.7</ele>
        <time>2012-08-29T09:35:28Z</time>
      </trkpt>
      <trkpt lat="45.05142" lon="2.02072">
        <ele>507.2</ele>
        <time>2012-08-29T09:35:20Z</time>
      </trkpt>
      <trkpt lat="45.05153" lon="2.02094">
        <ele>506.8</ele>
        <time>2012-08-29T09:35:15Z</time>
      </trkpt>
      <trkpt lat="45.05161" lon="2.02096">
        <ele>506.3</ele>
        <time>2012-08-29T09:35:13Z</time>
      </trkpt>
      <trkpt lat="45.05166" lon="2.02096">
        <ele>506.8</ele>
        <time>2012-08-29T09:35:12Z</time>
      </trkpt>
      <trkpt lat="45.05204" lon="2.021">
        <ele>507.7</ele>
        <time>2012-08-29T09:35:05Z</time>
      </trkpt>
      <trkpt lat="45.05213" lon="2.02101">
        <ele>507.2</ele>
        <time>2012-08-29T09:35:03Z</time>
      </trkpt>
      <trkpt lat="45.05217" lon="2.02101">
        <ele>507.2</ele>
        <time>2012-08-29T09:35:02Z</time>
      </trkpt>
      <trkpt lat="45.05221" lon="2.02101">
        <ele>506.3</ele>
        <time>2012-08-29T09:35:01Z</time>
      </trkpt>
      <trkpt lat="45.05224" lon="2.02102">
        <ele>506.3</ele>
        <time>2012-08-29T09:35:00Z</time>
      </trkpt>
      <trkpt lat="45.05225" lon="2.02103">
        <ele>506.3</ele>
        <time>2012-08-29T09:34:59Z</time>
      </trkpt>
      <trkpt lat="45.05227" lon="2.02106">
        <ele>505.8</ele>
        <time>2012-08-29T09:34:58Z</time>
      </trkpt>
      <trkpt lat="45.05228" lon="2.0211">
        <ele>505.3</ele>
        <time>2012-08-29T09:34:57Z</time>
      </trkpt>
      <trkpt lat="45.05228" lon="2.02115">
        <ele>505.8</ele>
        <time>2012-08-29T09:34:56Z</time>
      </trkpt>
      <trkpt lat="45.05228" lon="2.0212">
        <ele>505.8</ele>
        <time>2012-08-29T09:34:55Z</time>
      </trkpt>
      <trkpt lat="45.05228" lon="2.02125">
        <ele>505.8</ele>
        <time>2012-08-29T09:34:54Z</time>
      </trkpt>
      <trkpt lat="45.05232" lon="2.02143">
        <ele>505.8</ele>
        <time>2012-08-29T09:34:50Z</time>
      </trkpt>
      <trkpt lat="45.05235" lon="2.02146">
        <ele>505.3</ele>
        <time>2012-08-29T09:34:49Z</time>
      </trkpt>
      <trkpt lat="45.05239" lon="2.02147">
        <ele>505.8</ele>
        <time>2012-08-29T09:34:48Z</time>
      </trkpt>
      <trkpt lat="45.05277" lon="2.02142">
        <ele>513.6</ele>
        <time>2012-08-29T09:34:39Z</time>
      </trkpt>
      <trkpt lat="45.05355" lon="2.02134">
        <ele>518.5</ele>
        <time>2012-08-29T09:34:29Z</time>
      </trkpt>
      <trkpt lat="45.05408" lon="2.02168">
        <ele>519</ele>
        <time>2012-08-29T09:34:26Z</time>
      </trkpt>
      <trkpt lat="45.05478" lon="2.02177">
        <ele>518.6</ele>
        <time>2012-08-29T09:34:25Z</time>
      </trkpt>
      <trkpt lat="45.05547" lon="2.02145">
        <ele>518.6</ele>
        <time>2012-08-29T09:34:24Z</time>
      </trkpt>
      <trkpt lat="45.05547" lon="2.0217">
        <ele>519</ele>
        <time>2012-08-29T09:34:16Z</time>
      </trkpt>
      <trkpt lat="45.05549" lon="2.02243">
        <ele>518.4</ele>
        <time>2012-08-29T09:34:08Z</time>
      </trkpt>
      <trkpt lat="45.05553" lon="2.02281">
        <ele>519.5</ele>
        <time>2012-08-29T09:33:57Z</time>
      </trkpt>
      <trkpt lat="45.05561" lon="2.02314">
        <ele>521</ele>
        <time>2012-08-29T09:33:51Z</time>
      </trkpt>
      <trkpt lat="45.05563" lon="2.02365">
        <ele>522.2</ele>
        <time>2012-08-29T09:33:46Z</time>
      </trkpt>
      <trkpt lat="45.05563" lon="2.02412">
        <ele>522.8</ele>
        <time>2012-08-29T09:33:36Z</time>
      </trkpt>
      <trkpt lat="45.05562" lon="2.02451">
        <ele>526.1</ele>
        <time>2012-08-29T09:33:29Z</time>
      </trkpt>
      <trkpt lat="45.05547" lon="2.02516">
        <ele>529.8</ele>
        <time>2012-08-29T09:33:20Z</time>
      </trkpt>
      <trkpt lat="45.05529" lon="2.02548">
        <ele>515.4</ele>
        <time>2012-08-29T09:32:40Z</time>
      </trkpt>
      <trkpt lat="45.0553" lon="2.02555">
        <ele>515.4</ele>
        <time>2012-08-29T09:32:39Z</time>
      </trkpt>
      <trkpt lat="45.05531" lon="2.02599">
        <ele>516.4</ele>
        <time>2012-08-29T09:32:33Z</time>
      </trkpt>
      <trkpt lat="45.05532" lon="2.02606">
        <ele>516.8</ele>
        <time>2012-08-29T09:32:32Z</time>
      </trkpt>
      <trkpt lat="45.05533" lon="2.02614">
        <ele>516.4</ele>
        <time>2012-08-29T09:32:31Z</time>
      </trkpt>
      <trkpt lat="45.05539" lon="2.02643">
        <ele>517.8</ele>
        <time>2012-08-29T09:32:27Z</time>
      </trkpt>
      <trkpt lat="45.05539" lon="2.0265">
        <ele>518.3</ele>
        <time>2012-08-29T09:32:26Z</time>
      </trkpt>
      <trkpt lat="45.05539" lon="2.02656">
        <ele>517.8</ele>
        <time>2012-08-29T09:32:25Z</time>
      </trkpt>
      <trkpt lat="45.05538" lon="2.02662">
        <ele>518.8</ele>
        <time>2012-08-29T09:32:24Z</time>
      </trkpt>
      <trkpt lat="45.05536" lon="2.02668">
        <ele>518.8</ele>
        <time>2012-08-29T09:32:23Z</time>
      </trkpt>
      <trkpt lat="45.05532" lon="2.02675">
        <ele>519.7</ele>
        <time>2012-08-29T09:32:22Z</time>
      </trkpt>
      <trkpt lat="45.05529" lon="2.02683">
        <ele>520.2</ele>
        <time>2012-08-29T09:32:21Z</time>
      </trkpt>
      <trkpt lat="45.05526" lon="2.0269">
        <ele>521.2</ele>
        <time>2012-08-29T09:32:20Z</time>
      </trkpt>
      <trkpt lat="45.05522" lon="2.02697">
        <ele>522.1</ele>
        <time>2012-08-29T09:32:19Z</time>
      </trkpt>
      <trkpt lat="45.05519" lon="2.02704">
        <ele>522.1</ele>
        <time>2012-08-29T09:32:18Z</time>
      </trkpt>
      <trkpt lat="45.05509" lon="2.02724">
        <ele>524.1</ele>
        <time>2012-08-29T09:32:15Z</time>
      </trkpt>
      <trkpt lat="45.05499" lon="2.02741">
        <ele>524.5</ele>
        <time>2012-08-29T09:32:12Z</time>
      </trkpt>
      <trkpt lat="45.05498" lon="2.02747">
        <ele>524.1</ele>
        <time>2012-08-29T09:32:11Z</time>
      </trkpt>
      <trkpt lat="45.05499" lon="2.02752">
        <ele>524.1</ele>
        <time>2012-08-29T09:32:10Z</time>
      </trkpt>
      <trkpt lat="45.05503" lon="2.02756">
        <ele>525</ele>
        <time>2012-08-29T09:32:09Z</time>
      </trkpt>
      <trkpt lat="45.05507" lon="2.02759">
        <ele>525.5</ele>
        <time>2012-08-29T09:32:08Z</time>
      </trkpt>
      <trkpt lat="45.05512" lon="2.02762">
        <ele>526.5</ele>
        <time>2012-08-29T09:32:07Z</time>
      </trkpt>
      <trkpt lat="45.05516" lon="2.02767">
        <ele>527.4</ele>
        <time>2012-08-29T09:32:06Z</time>
      </trkpt>
      <trkpt lat="45.0552" lon="2.02773">
        <ele>527.9</ele>
        <time>2012-08-29T09:32:05Z</time>
      </trkpt>
      <trkpt lat="45.05524" lon="2.02781">
        <ele>528.9</ele>
        <time>2012-08-29T09:32:04Z</time>
      </trkpt>
      <trkpt lat="45.05526" lon="2.02789">
        <ele>529.8</ele>
        <time>2012-08-29T09:32:03Z</time>
      </trkpt>
      <trkpt lat="45.05528" lon="2.02798">
        <ele>529.8</ele>
        <time>2012-08-29T09:32:02Z</time>
      </trkpt>
      <trkpt lat="45.05533" lon="2.02814">
        <ele>530.8</ele>
        <time>2012-08-29T09:32:00Z</time>
      </trkpt>
      <trkpt lat="45.05537" lon="2.0282">
        <ele>531.3</ele>
        <time>2012-08-29T09:31:59Z</time>
      </trkpt>
      <trkpt lat="45.05541" lon="2.02823">
        <ele>531.8</ele>
        <time>2012-08-29T09:31:58Z</time>
      </trkpt>
      <trkpt lat="45.05545" lon="2.02822">
        <ele>532.2</ele>
        <time>2012-08-29T09:31:57Z</time>
      </trkpt>
      <trkpt lat="45.05549" lon="2.02818">
        <ele>533.2</ele>
        <time>2012-08-29T09:31:56Z</time>
      </trkpt>
      <trkpt lat="45.05554" lon="2.02812">
        <ele>534.2</ele>
        <time>2012-08-29T09:31:55Z</time>
      </trkpt>
      <trkpt lat="45.05558" lon="2.02805">
        <ele>535.6</ele>
        <time>2012-08-29T09:31:54Z</time>
      </trkpt>
      <trkpt lat="45.05562" lon="2.02797">
        <ele>536.5</ele>
        <time>2012-08-29T09:31:53Z</time>
      </trkpt>
      <trkpt lat="45.05565" lon="2.0279">
        <ele>536.1</ele>
        <time>2012-08-29T09:31:52Z</time>
      </trkpt>
      <trkpt lat="45.05573" lon="2.02776">
        <ele>538</ele>
        <time>2012-08-29T09:31:50Z</time>
      </trkpt>
      <trkpt lat="45.05576" lon="2.02769">
        <ele>538.5</ele>
        <time>2012-08-29T09:31:49Z</time>
      </trkpt>
      <trkpt lat="45.05581" lon="2.02764">
        <ele>538.5</ele>
        <time>2012-08-29T09:31:48Z</time>
      </trkpt>
      <trkpt lat="45.0559" lon="2.02754">
        <ele>538.5</ele>
        <time>2012-08-29T09:31:46Z</time>
      </trkpt>
      <trkpt lat="45.05595" lon="2.0275">
        <ele>539.4</ele>
        <time>2012-08-29T09:31:45Z</time>
      </trkpt>
      <trkpt lat="45.05601" lon="2.02748">
        <ele>539.9</ele>
        <time>2012-08-29T09:31:44Z</time>
      </trkpt>
      <trkpt lat="45.05607" lon="2.02748">
        <ele>539.9</ele>
        <time>2012-08-29T09:31:43Z</time>
      </trkpt>
      <trkpt lat="45.05612" lon="2.02749">
        <ele>539.4</ele>
        <time>2012-08-29T09:31:42Z</time>
      </trkpt>
      <trkpt lat="45.0564" lon="2.02754">
        <ele>540.4</ele>
        <time>2012-08-29T09:31:37Z</time>
      </trkpt>
      <trkpt lat="45.05644" lon="2.02756">
        <ele>539.4</ele>
        <time>2012-08-29T09:31:36Z</time>
      </trkpt>
      <trkpt lat="45.05646" lon="2.0276">
        <ele>539.9</ele>
        <time>2012-08-29T09:31:35Z</time>
      </trkpt>
      <trkpt lat="45.05647" lon="2.02765">
        <ele>540.4</ele>
        <time>2012-08-29T09:31:34Z</time>
      </trkpt>
      <trkpt lat="45.05647" lon="2.02771">
        <ele>540.9</ele>
        <time>2012-08-29T09:31:33Z</time>
      </trkpt>
      <trkpt lat="45.05646" lon="2.02776">
        <ele>540.4</ele>
        <time>2012-08-29T09:31:32Z</time>
      </trkpt>
      <trkpt lat="45.05645" lon="2.02781">
        <ele>540.9</ele>
        <time>2012-08-29T09:31:31Z</time>
      </trkpt>
      <trkpt lat="45.05636" lon="2.02829">
        <ele>539.9</ele>
        <time>2012-08-29T09:31:23Z</time>
      </trkpt>
      <trkpt lat="45.05629" lon="2.0288">
        <ele>541.4</ele>
        <time>2012-08-29T09:31:15Z</time>
      </trkpt>
      <trkpt lat="45.05629" lon="2.02887">
        <ele>540.9</ele>
        <time>2012-08-29T09:31:14Z</time>
      </trkpt>
      <trkpt lat="45.05629" lon="2.02893">
        <ele>540.9</ele>
        <time>2012-08-29T09:31:13Z</time>
      </trkpt>
      <trkpt lat="45.0563" lon="2.029">
        <ele>541.4</ele>
        <time>2012-08-29T09:31:12Z</time>
      </trkpt>
      <trkpt lat="45.05631" lon="2.02907">
        <ele>541.8</ele>
        <time>2012-08-29T09:31:11Z</time>
      </trkpt>
      <trkpt lat="45.05632" lon="2.02913">
        <ele>541.4</ele>
        <time>2012-08-29T09:31:10Z</time>
      </trkpt>
      <trkpt lat="45.05649" lon="2.02959">
        <ele>542.8</ele>
        <time>2012-08-29T09:31:02Z</time>
      </trkpt>
      <trkpt lat="45.05673" lon="2.03005">
        <ele>543.8</ele>
        <time>2012-08-29T09:30:53Z</time>
      </trkpt>
      <trkpt lat="45.05694" lon="2.03046">
        <ele>545.7</ele>
        <time>2012-08-29T09:30:45Z</time>
      </trkpt>
      <trkpt lat="45.05711" lon="2.03099">
        <ele>547.6</ele>
        <time>2012-08-29T09:30:36Z</time>
      </trkpt>
      <trkpt lat="45.05714" lon="2.03127">
        <ele>546.2</ele>
        <time>2012-08-29T09:30:31Z</time>
      </trkpt>
      <trkpt lat="45.05714" lon="2.03132">
        <ele>546.2</ele>
        <time>2012-08-29T09:30:25Z</time>
      </trkpt>
      <trkpt lat="45.05714" lon="2.03132">
        <ele>546.2</ele>
        <time>2012-08-29T09:30:21Z</time>
      </trkpt>
      <trkpt lat="45.05716" lon="2.03135">
        <ele>545.7</ele>
        <time>2012-08-29T09:30:20Z</time>
      </trkpt>
      <trkpt lat="45.0573" lon="2.03158">
        <ele>547.1</ele>
        <time>2012-08-29T09:30:14Z</time>
      </trkpt>
      <trkpt lat="45.05751" lon="2.03213">
        <ele>547.1</ele>
        <time>2012-08-29T09:30:06Z</time>
      </trkpt>
      <trkpt lat="45.05774" lon="2.03287">
        <ele>546.2</ele>
        <time>2012-08-29T09:29:56Z</time>
      </trkpt>
      <trkpt lat="45.05788" lon="2.03331">
        <ele>547.6</ele>
        <time>2012-08-29T09:29:49Z</time>
      </trkpt>
      <trkpt lat="45.05796" lon="2.03362">
        <ele>548.6</ele>
        <time>2012-08-29T09:29:44Z</time>
      </trkpt>
      <trkpt lat="45.05796" lon="2.03368">
        <ele>548.6</ele>
        <time>2012-08-29T09:29:43Z</time>
      </trkpt>
      <trkpt lat="45.05796" lon="2.03382">
        <ele>548.6</ele>
        <time>2012-08-29T09:29:41Z</time>
      </trkpt>
      <trkpt lat="45.05795" lon="2.03388">
        <ele>548.6</ele>
        <time>2012-08-29T09:29:40Z</time>
      </trkpt>
      <trkpt lat="45.05787" lon="2.03409">
        <ele>548.6</ele>
        <time>2012-08-29T09:29:36Z</time>
      </trkpt>
      <trkpt lat="45.05782" lon="2.0342">
        <ele>548.1</ele>
        <time>2012-08-29T09:29:34Z</time>
      </trkpt>
      <trkpt lat="45.05767" lon="2.03451">
        <ele>549.5</ele>
        <time>2012-08-29T09:29:28Z</time>
      </trkpt>
      <trkpt lat="45.05764" lon="2.03456">
        <ele>550</ele>
        <time>2012-08-29T09:29:27Z</time>
      </trkpt>
      <trkpt lat="45.05747" lon="2.03472">
        <ele>551</ele>
        <time>2012-08-29T09:29:22Z</time>
      </trkpt>
      <trkpt lat="45.05704" lon="2.03515">
        <ele>553.4</ele>
        <time>2012-08-29T09:29:11Z</time>
      </trkpt>
      <trkpt lat="45.05679" lon="2.03548">
        <ele>554.3</ele>
        <time>2012-08-29T09:29:04Z</time>
      </trkpt>
      <trkpt lat="45.05653" lon="2.03586">
        <ele>555.3</ele>
        <time>2012-08-29T09:28:56Z</time>
      </trkpt>
      <trkpt lat="45.05639" lon="2.03636">
        <ele>552.9</ele>
        <time>2012-08-29T09:28:48Z</time>
      </trkpt>
      <trkpt lat="45.05637" lon="2.03649">
        <ele>552.4</ele>
        <time>2012-08-29T09:28:46Z</time>
      </trkpt>
      <trkpt lat="45.05639" lon="2.03674">
        <ele>551.9</ele>
        <time>2012-08-29T09:28:42Z</time>
      </trkpt>
      <trkpt lat="45.05646" lon="2.03727">
        <ele>551</ele>
        <time>2012-08-29T09:28:33Z</time>
      </trkpt>
      <trkpt lat="45.05645" lon="2.03733">
        <ele>551</ele>
        <time>2012-08-29T09:28:32Z</time>
      </trkpt>
      <trkpt lat="45.05643" lon="2.03738">
        <ele>551</ele>
        <time>2012-08-29T09:28:31Z</time>
      </trkpt>
      <trkpt lat="45.0564" lon="2.03742">
        <ele>551</ele>
        <time>2012-08-29T09:28:30Z</time>
      </trkpt>
      <trkpt lat="45.05637" lon="2.03746">
        <ele>551</ele>
        <time>2012-08-29T09:28:29Z</time>
      </trkpt>
      <trkpt lat="45.05617" lon="2.03759">
        <ele>550</ele>
        <time>2012-08-29T09:28:23Z</time>
      </trkpt>
      <trkpt lat="45.0559" lon="2.03781">
        <ele>550</ele>
        <time>2012-08-29T09:28:15Z</time>
      </trkpt>
      <trkpt lat="45.05561" lon="2.03816">
        <ele>550</ele>
        <time>2012-08-29T09:28:07Z</time>
      </trkpt>
      <trkpt lat="45.05526" lon="2.0386">
        <ele>550</ele>
        <time>2012-08-29T09:27:59Z</time>
      </trkpt>
      <trkpt lat="45.05514" lon="2.03882">
        <ele>549.5</ele>
        <time>2012-08-29T09:27:55Z</time>
      </trkpt>
      <trkpt lat="45.05478" lon="2.0393">
        <ele>550</ele>
        <time>2012-08-29T09:27:46Z</time>
      </trkpt>
      <trkpt lat="45.05446" lon="2.03962">
        <ele>549.5</ele>
        <time>2012-08-29T09:27:38Z</time>
      </trkpt>
      <trkpt lat="45.05441" lon="2.03965">
        <ele>549.5</ele>
        <time>2012-08-29T09:27:37Z</time>
      </trkpt>
      <trkpt lat="45.05407" lon="2.03992">
        <ele>550</ele>
        <time>2012-08-29T09:27:29Z</time>
      </trkpt>
      <trkpt lat="45.05374" lon="2.04015">
        <ele>550.5</ele>
        <time>2012-08-29T09:27:21Z</time>
      </trkpt>
      <trkpt lat="45.05349" lon="2.04019">
        <ele>551.9</ele>
        <time>2012-08-29T09:27:15Z</time>
      </trkpt>
      <trkpt lat="45.05325" lon="2.04014">
        <ele>552.4</ele>
        <time>2012-08-29T09:27:08Z</time>
      </trkpt>
      <trkpt lat="45.05318" lon="2.04012">
        <ele>553.4</ele>
        <time>2012-08-29T09:27:02Z</time>
      </trkpt>
      <trkpt lat="45.05307" lon="2.04002">
        <ele>553.9</ele>
        <time>2012-08-29T09:26:57Z</time>
      </trkpt>
      <trkpt lat="45.05292" lon="2.03975">
        <ele>553.4</ele>
        <time>2012-08-29T09:26:50Z</time>
      </trkpt>
      <trkpt lat="45.05274" lon="2.03948">
        <ele>552.4</ele>
        <time>2012-08-29T09:26:42Z</time>
      </trkpt>
      <trkpt lat="45.05248" lon="2.03928">
        <ele>552.4</ele>
        <time>2012-08-29T09:26:35Z</time>
      </trkpt>
      <trkpt lat="45.05221" lon="2.0392">
        <ele>552.9</ele>
        <time>2012-08-29T09:26:28Z</time>
      </trkpt>
      <trkpt lat="45.05197" lon="2.03922">
        <ele>551</ele>
        <time>2012-08-29T09:26:20Z</time>
      </trkpt>
      <trkpt lat="45.05172" lon="2.03939">
        <ele>550</ele>
        <time>2012-08-29T09:26:12Z</time>
      </trkpt>
      <trkpt lat="45.05149" lon="2.03967">
        <ele>549.5</ele>
        <time>2012-08-29T09:26:03Z</time>
      </trkpt>
      <trkpt lat="45.05134" lon="2.03994">
        <ele>551.5</ele>
        <time>2012-08-29T09:25:55Z</time>
      </trkpt>
      <trkpt lat="45.05117" lon="2.04051">
        <ele>552.4</ele>
        <time>2012-08-29T09:25:46Z</time>
      </trkpt>
      <trkpt lat="45.05107" lon="2.0408">
        <ele>552.4</ele>
        <time>2012-08-29T09:25:38Z</time>
      </trkpt>
      <trkpt lat="45.05094" lon="2.04101">
        <ele>552.4</ele>
        <time>2012-08-29T09:25:31Z</time>
      </trkpt>
      <trkpt lat="45.05084" lon="2.04132">
        <ele>553.4</ele>
        <time>2012-08-29T09:25:23Z</time>
      </trkpt>
      <trkpt lat="45.0508" lon="2.04158">
        <ele>556.3</ele>
        <time>2012-08-29T09:25:16Z</time>
      </trkpt>
      <trkpt lat="45.05075" lon="2.04191">
        <ele>558.2</ele>
        <time>2012-08-29T09:25:08Z</time>
      </trkpt>
      <trkpt lat="45.05077" lon="2.04213">
        <ele>559.1</ele>
        <time>2012-08-29T09:25:04Z</time>
      </trkpt>
      <trkpt lat="45.05079" lon="2.04248">
        <ele>560.1</ele>
        <time>2012-08-29T09:24:57Z</time>
      </trkpt>
      <trkpt lat="45.05074" lon="2.04287">
        <ele>561.1</ele>
        <time>2012-08-29T09:24:49Z</time>
      </trkpt>
      <trkpt lat="45.05062" lon="2.0433">
        <ele>561.5</ele>
        <time>2012-08-29T09:24:40Z</time>
      </trkpt>
      <trkpt lat="45.0505" lon="2.04362">
        <ele>561.1</ele>
        <time>2012-08-29T09:24:32Z</time>
      </trkpt>
      <trkpt lat="45.05034" lon="2.04398">
        <ele>558.7</ele>
        <time>2012-08-29T09:24:23Z</time>
      </trkpt>
      <trkpt lat="45.0503" lon="2.04421">
        <ele>559.1</ele>
        <time>2012-08-29T09:24:17Z</time>
      </trkpt>
      <trkpt lat="45.05019" lon="2.04466">
        <ele>555.8</ele>
        <time>2012-08-29T09:24:08Z</time>
      </trkpt>
      <trkpt lat="45.05011" lon="2.04477">
        <ele>556.3</ele>
        <time>2012-08-29T09:24:05Z</time>
      </trkpt>
      <trkpt lat="45.05007" lon="2.0448">
        <ele>555.8</ele>
        <time>2012-08-29T09:24:04Z</time>
      </trkpt>
      <trkpt lat="45.04975" lon="2.04501">
        <ele>555.3</ele>
        <time>2012-08-29T09:23:56Z</time>
      </trkpt>
      <trkpt lat="45.04953" lon="2.04518">
        <ele>553.9</ele>
        <time>2012-08-29T09:23:51Z</time>
      </trkpt>
      <trkpt lat="45.04926" lon="2.04535">
        <ele>551.9</ele>
        <time>2012-08-29T09:23:44Z</time>
      </trkpt>
      <trkpt lat="45.04886" lon="2.04568">
        <ele>548.6</ele>
        <time>2012-08-29T09:23:34Z</time>
      </trkpt>
      <trkpt lat="45.04865" lon="2.04588">
        <ele>548.1</ele>
        <time>2012-08-29T09:23:27Z</time>
      </trkpt>
      <trkpt lat="45.04865" lon="2.04587">
        <ele>547.6</ele>
        <time>2012-08-29T09:23:20Z</time>
      </trkpt>
      <trkpt lat="45.04878" lon="2.04574">
        <ele>548.1</ele>
        <time>2012-08-29T09:23:11Z</time>
      </trkpt>
      <trkpt lat="45.04887" lon="2.04567">
        <ele>548.1</ele>
        <time>2012-08-29T09:23:03Z</time>
      </trkpt>
      <trkpt lat="45.04874" lon="2.04579">
        <ele>547.1</ele>
        <time>2012-08-29T09:22:56Z</time>
      </trkpt>
      <trkpt lat="45.0485" lon="2.04603">
        <ele>544.7</ele>
        <time>2012-08-29T09:22:49Z</time>
      </trkpt>
      <trkpt lat="45.04843" lon="2.0461">
        <ele>540.9</ele>
        <time>2012-08-29T09:22:47Z</time>
      </trkpt>
      <trkpt lat="45.04839" lon="2.04614">
        <ele>548.1</ele>
        <time>2012-08-29T09:22:46Z</time>
      </trkpt>
      <trkpt lat="45.04836" lon="2.04618">
        <ele>544.2</ele>
        <time>2012-08-29T09:22:45Z</time>
      </trkpt>
      <trkpt lat="45.04828" lon="2.04626">
        <ele>547.6</ele>
        <time>2012-08-29T09:22:43Z</time>
      </trkpt>
      <trkpt lat="45.04824" lon="2.0463">
        <ele>547.6</ele>
        <time>2012-08-29T09:22:42Z</time>
      </trkpt>
      <trkpt lat="45.04809" lon="2.04646">
        <ele>544.2</ele>
        <time>2012-08-29T09:22:38Z</time>
      </trkpt>
      <trkpt lat="45.04805" lon="2.0465">
        <ele>545.2</ele>
        <time>2012-08-29T09:22:37Z</time>
      </trkpt>
      <trkpt lat="45.04802" lon="2.04654">
        <ele>554.8</ele>
        <time>2012-08-29T09:22:36Z</time>
      </trkpt>
      <trkpt lat="45.04798" lon="2.04659">
        <ele>546.7</ele>
        <time>2012-08-29T09:22:35Z</time>
      </trkpt>
      <trkpt lat="45.04795" lon="2.04664">
        <ele>543.8</ele>
        <time>2012-08-29T09:22:34Z</time>
      </trkpt>
      <trkpt lat="45.04792" lon="2.0467">
        <ele>546.2</ele>
        <time>2012-08-29T09:22:33Z</time>
      </trkpt>
      <trkpt lat="45.0479" lon="2.04676">
        <ele>546.7</ele>
        <time>2012-08-29T09:22:32Z</time>
      </trkpt>
      <trkpt lat="45.04771" lon="2.04731">
        <ele>543.3</ele>
        <time>2012-08-29T09:22:23Z</time>
      </trkpt>
      <trkpt lat="45.04761" lon="2.04783">
        <ele>541.4</ele>
        <time>2012-08-29T09:22:15Z</time>
      </trkpt>
      <trkpt lat="45.0476" lon="2.0479">
        <ele>540.9</ele>
        <time>2012-08-29T09:22:14Z</time>
      </trkpt>
      <trkpt lat="45.0476" lon="2.04796">
        <ele>540.4</ele>
        <time>2012-08-29T09:22:13Z</time>
      </trkpt>
      <trkpt lat="45.04765" lon="2.04839">
        <ele>540.9</ele>
        <time>2012-08-29T09:22:05Z</time>
      </trkpt>
      <trkpt lat="45.04779" lon="2.04898">
        <ele>542.3</ele>
        <time>2012-08-29T09:21:56Z</time>
      </trkpt>
      <trkpt lat="45.04782" lon="2.0491">
        <ele>542.3</ele>
        <time>2012-08-29T09:21:54Z</time>
      </trkpt>
      <trkpt lat="45.04791" lon="2.04938">
        <ele>542.8</ele>
        <time>2012-08-29T09:21:47Z</time>
      </trkpt>
      <trkpt lat="45.04791" lon="2.04939">
        <ele>543.3</ele>
        <time>2012-08-29T09:21:38Z</time>
      </trkpt>
      <trkpt lat="45.04792" lon="2.0494">
        <ele>543.8</ele>
        <time>2012-08-29T09:21:27Z</time>
      </trkpt>
      <trkpt lat="45.04793" lon="2.04942">
        <ele>543.8</ele>
        <time>2012-08-29T09:21:26Z</time>
      </trkpt>
      <trkpt lat="45.04795" lon="2.04943">
        <ele>543.8</ele>
        <time>2012-08-29T09:21:25Z</time>
      </trkpt>
      <trkpt lat="45.04797" lon="2.04943">
        <ele>543.8</ele>
        <time>2012-08-29T09:21:24Z</time>
      </trkpt>
      <trkpt lat="45.04799" lon="2.04943">
        <ele>544.2</ele>
        <time>2012-08-29T09:21:23Z</time>
      </trkpt>
      <trkpt lat="45.04801" lon="2.04943">
        <ele>545.2</ele>
        <time>2012-08-29T09:21:22Z</time>
      </trkpt>
      <trkpt lat="45.04819" lon="2.04947">
        <ele>545.7</ele>
        <time>2012-08-29T09:21:16Z</time>
      </trkpt>
      <trkpt lat="45.04848" lon="2.04952">
        <ele>546.7</ele>
        <time>2012-08-29T09:21:08Z</time>
      </trkpt>
      <trkpt lat="45.04886" lon="2.0496">
        <ele>546.2</ele>
        <time>2012-08-29T09:21:00Z</time>
      </trkpt>
      <trkpt lat="45.04927" lon="2.04972">
        <ele>545.7</ele>
        <time>2012-08-29T09:20:52Z</time>
      </trkpt>
      <trkpt lat="45.04953" lon="2.04979">
        <ele>545.2</ele>
        <time>2012-08-29T09:20:46Z</time>
      </trkpt>
      <trkpt lat="45.04979" lon="2.0498">
        <ele>543.8</ele>
        <time>2012-08-29T09:20:40Z</time>
      </trkpt>
      <trkpt lat="45.04983" lon="2.04979">
        <ele>543.3</ele>
        <time>2012-08-29T09:20:39Z</time>
      </trkpt>
      <trkpt lat="45.04987" lon="2.04977">
        <ele>543.8</ele>
        <time>2012-08-29T09:20:38Z</time>
      </trkpt>
      <trkpt lat="45.05001" lon="2.04972">
        <ele>542.3</ele>
        <time>2012-08-29T09:20:35Z</time>
      </trkpt>
      <trkpt lat="45.05006" lon="2.04972">
        <ele>542.3</ele>
        <time>2012-08-29T09:20:34Z</time>
      </trkpt>
      <trkpt lat="45.05011" lon="2.04972">
        <ele>542.3</ele>
        <time>2012-08-29T09:20:33Z</time>
      </trkpt>
      <trkpt lat="45.05015" lon="2.04974">
        <ele>542.3</ele>
        <time>2012-08-29T09:20:32Z</time>
      </trkpt>
      <trkpt lat="45.05019" lon="2.04976">
        <ele>541.8</ele>
        <time>2012-08-29T09:20:31Z</time>
      </trkpt>
      <trkpt lat="45.05024" lon="2.04979">
        <ele>541.4</ele>
        <time>2012-08-29T09:20:30Z</time>
      </trkpt>
      <trkpt lat="45.05079" lon="2.05022">
        <ele>539.4</ele>
        <time>2012-08-29T09:20:20Z</time>
      </trkpt>
      <trkpt lat="45.05135" lon="2.05069">
        <ele>538</ele>
        <time>2012-08-29T09:20:13Z</time>
      </trkpt>
      <trkpt lat="45.05179" lon="2.05106">
        <ele>536.1</ele>
        <time>2012-08-29T09:20:06Z</time>
      </trkpt>
      <trkpt lat="45.05185" lon="2.05109">
        <ele>535.6</ele>
        <time>2012-08-29T09:20:05Z</time>
      </trkpt>
      <trkpt lat="45.05191" lon="2.05111">
        <ele>534.6</ele>
        <time>2012-08-29T09:20:04Z</time>
      </trkpt>
      <trkpt lat="45.05198" lon="2.05111">
        <ele>534.6</ele>
        <time>2012-08-29T09:20:03Z</time>
      </trkpt>
      <trkpt lat="45.05206" lon="2.05111">
        <ele>534.2</ele>
        <time>2012-08-29T09:20:02Z</time>
      </trkpt>
      <trkpt lat="45.05238" lon="2.05105">
        <ele>529.8</ele>
        <time>2012-08-29T09:19:58Z</time>
      </trkpt>
      <trkpt lat="45.05246" lon="2.05103">
        <ele>529.8</ele>
        <time>2012-08-29T09:19:57Z</time>
      </trkpt>
      <trkpt lat="45.05275" lon="2.05088">
        <ele>525</ele>
        <time>2012-08-29T09:19:53Z</time>
      </trkpt>
      <trkpt lat="45.05282" lon="2.05083">
        <ele>525</ele>
        <time>2012-08-29T09:19:52Z</time>
      </trkpt>
      <trkpt lat="45.05306" lon="2.0506">
        <ele>523.1</ele>
        <time>2012-08-29T09:19:48Z</time>
      </trkpt>
      <trkpt lat="45.05317" lon="2.05046">
        <ele>519.7</ele>
        <time>2012-08-29T09:19:46Z</time>
      </trkpt>
      <trkpt lat="45.05322" lon="2.05039">
        <ele>520.2</ele>
        <time>2012-08-29T09:19:45Z</time>
      </trkpt>
      <trkpt lat="45.05344" lon="2.05006">
        <ele>516.4</ele>
        <time>2012-08-29T09:19:40Z</time>
      </trkpt>
      <trkpt lat="45.05351" lon="2.04999">
        <ele>514.9</ele>
        <time>2012-08-29T09:19:38Z</time>
      </trkpt>
      <trkpt lat="45.05365" lon="2.04988">
        <ele>512.5</ele>
        <time>2012-08-29T09:19:32Z</time>
      </trkpt>
      <trkpt lat="45.05368" lon="2.04988">
        <ele>512.5</ele>
        <time>2012-08-29T09:19:31Z</time>
      </trkpt>
      <trkpt lat="45.05371" lon="2.04988">
        <ele>512</ele>
        <time>2012-08-29T09:19:30Z</time>
      </trkpt>
      <trkpt lat="45.05375" lon="2.04988">
        <ele>512.5</ele>
        <time>2012-08-29T09:19:29Z</time>
      </trkpt>
      <trkpt lat="45.05379" lon="2.04988">
        <ele>512.5</ele>
        <time>2012-08-29T09:19:28Z</time>
      </trkpt>
      <trkpt lat="45.05383" lon="2.04988">
        <ele>512</ele>
        <time>2012-08-29T09:19:27Z</time>
      </trkpt>
      <trkpt lat="45.05388" lon="2.0499">
        <ele>511.1</ele>
        <time>2012-08-29T09:19:26Z</time>
      </trkpt>
      <trkpt lat="45.05395" lon="2.04992">
        <ele>510.1</ele>
        <time>2012-08-29T09:19:25Z</time>
      </trkpt>
      <trkpt lat="45.05402" lon="2.04995">
        <ele>510.1</ele>
        <time>2012-08-29T09:19:24Z</time>
      </trkpt>
      <trkpt lat="45.05438" lon="2.05013">
        <ele>506.8</ele>
        <time>2012-08-29T09:19:20Z</time>
      </trkpt>
      <trkpt lat="45.05445" lon="2.05017">
        <ele>507.2</ele>
        <time>2012-08-29T09:19:19Z</time>
      </trkpt>
      <trkpt lat="45.05478" lon="2.0504">
        <ele>506.8</ele>
        <time>2012-08-29T09:19:15Z</time>
      </trkpt>
      <trkpt lat="45.05484" lon="2.05047">
        <ele>505.3</ele>
        <time>2012-08-29T09:19:14Z</time>
      </trkpt>
      <trkpt lat="45.05491" lon="2.05055">
        <ele>504.8</ele>
        <time>2012-08-29T09:19:13Z</time>
      </trkpt>
      <trkpt lat="45.05512" lon="2.05088">
        <ele>502.4</ele>
        <time>2012-08-29T09:19:09Z</time>
      </trkpt>
      <trkpt lat="45.05515" lon="2.05098">
        <ele>501</ele>
        <time>2012-08-29T09:19:08Z</time>
      </trkpt>
      <trkpt lat="45.05516" lon="2.05109">
        <ele>501</ele>
        <time>2012-08-29T09:19:07Z</time>
      </trkpt>
      <trkpt lat="45.05518" lon="2.05129">
        <ele>499.5</ele>
        <time>2012-08-29T09:19:05Z</time>
      </trkpt>
      <trkpt lat="45.05521" lon="2.05148">
        <ele>498.1</ele>
        <time>2012-08-29T09:19:03Z</time>
      </trkpt>
      <trkpt lat="45.05523" lon="2.05156">
        <ele>496.7</ele>
        <time>2012-08-29T09:19:02Z</time>
      </trkpt>
      <trkpt lat="45.05526" lon="2.05163">
        <ele>495.2</ele>
        <time>2012-08-29T09:19:01Z</time>
      </trkpt>
      <trkpt lat="45.0553" lon="2.05169">
        <ele>495.2</ele>
        <time>2012-08-29T09:19:00Z</time>
      </trkpt>
      <trkpt lat="45.05535" lon="2.05174">
        <ele>493.8</ele>
        <time>2012-08-29T09:18:59Z</time>
      </trkpt>
      <trkpt lat="45.05541" lon="2.05177">
        <ele>494.3</ele>
        <time>2012-08-29T09:18:58Z</time>
      </trkpt>
      <trkpt lat="45.05546" lon="2.05178">
        <ele>493.8</ele>
        <time>2012-08-29T09:18:57Z</time>
      </trkpt>
      <trkpt lat="45.05553" lon="2.05178">
        <ele>493.8</ele>
        <time>2012-08-29T09:18:56Z</time>
      </trkpt>
      <trkpt lat="45.05559" lon="2.05177">
        <ele>493.3</ele>
        <time>2012-08-29T09:18:55Z</time>
      </trkpt>
      <trkpt lat="45.05578" lon="2.05176">
        <ele>492.3</ele>
        <time>2012-08-29T09:18:52Z</time>
      </trkpt>
      <trkpt lat="45.05584" lon="2.05177">
        <ele>491.4</ele>
        <time>2012-08-29T09:18:51Z</time>
      </trkpt>
      <trkpt lat="45.05595" lon="2.05181">
        <ele>489.9</ele>
        <time>2012-08-29T09:18:49Z</time>
      </trkpt>
      <trkpt lat="45.0562" lon="2.05192">
        <ele>489.9</ele>
        <time>2012-08-29T09:18:45Z</time>
      </trkpt>
      <trkpt lat="45.05626" lon="2.05195">
        <ele>489.5</ele>
        <time>2012-08-29T09:18:44Z</time>
      </trkpt>
      <trkpt lat="45.05631" lon="2.05196">
        <ele>489</ele>
        <time>2012-08-29T09:18:43Z</time>
      </trkpt>
      <trkpt lat="45.05637" lon="2.05196">
        <ele>489.9</ele>
        <time>2012-08-29T09:18:42Z</time>
      </trkpt>
      <trkpt lat="45.05642" lon="2.05193">
        <ele>489.5</ele>
        <time>2012-08-29T09:18:41Z</time>
      </trkpt>
      <trkpt lat="45.05646" lon="2.05187">
        <ele>490.4</ele>
        <time>2012-08-29T09:18:40Z</time>
      </trkpt>
      <trkpt lat="45.05649" lon="2.05179">
        <ele>490.4</ele>
        <time>2012-08-29T09:18:39Z</time>
      </trkpt>
      <trkpt lat="45.05651" lon="2.05171">
        <ele>491.9</ele>
        <time>2012-08-29T09:18:38Z</time>
      </trkpt>
      <trkpt lat="45.05653" lon="2.05161">
        <ele>491.9</ele>
        <time>2012-08-29T09:18:37Z</time>
      </trkpt>
      <trkpt lat="45.05657" lon="2.05126">
        <ele>488.5</ele>
        <time>2012-08-29T09:18:33Z</time>
      </trkpt>
      <trkpt lat="45.0566" lon="2.05119">
        <ele>488.5</ele>
        <time>2012-08-29T09:18:32Z</time>
      </trkpt>
      <trkpt lat="45.05664" lon="2.05115">
        <ele>487.5</ele>
        <time>2012-08-29T09:18:31Z</time>
      </trkpt>
      <trkpt lat="45.05669" lon="2.05114">
        <ele>487.5</ele>
        <time>2012-08-29T09:18:30Z</time>
      </trkpt>
      <trkpt lat="45.05674" lon="2.05114">
        <ele>486.1</ele>
        <time>2012-08-29T09:18:29Z</time>
      </trkpt>
      <trkpt lat="45.05679" lon="2.05115">
        <ele>486.1</ele>
        <time>2012-08-29T09:18:28Z</time>
      </trkpt>
      <trkpt lat="45.05685" lon="2.05117">
        <ele>485.1</ele>
        <time>2012-08-29T09:18:27Z</time>
      </trkpt>
      <trkpt lat="45.05713" lon="2.05127">
        <ele>480.8</ele>
        <time>2012-08-29T09:18:22Z</time>
      </trkpt>
      <trkpt lat="45.05716" lon="2.05128">
        <ele>481.3</ele>
        <time>2012-08-29T09:18:21Z</time>
      </trkpt>
      <trkpt lat="45.05725" lon="2.0514">
        <ele>479.8</ele>
        <time>2012-08-29T09:18:16Z</time>
      </trkpt>
      <trkpt lat="45.05734" lon="2.0517">
        <ele>478.4</ele>
        <time>2012-08-29T09:18:10Z</time>
      </trkpt>
      <trkpt lat="45.05757" lon="2.05216">
        <ele>477</ele>
        <time>2012-08-29T09:18:03Z</time>
      </trkpt>
      <trkpt lat="45.05761" lon="2.05224">
        <ele>475.5</ele>
        <time>2012-08-29T09:18:02Z</time>
      </trkpt>
      <trkpt lat="45.05766" lon="2.05231">
        <ele>476.5</ele>
        <time>2012-08-29T09:18:01Z</time>
      </trkpt>
      <trkpt lat="45.05767" lon="2.05239">
        <ele>476</ele>
        <time>2012-08-29T09:18:00Z</time>
      </trkpt>
      <trkpt lat="45.05769" lon="2.05247">
        <ele>477.4</ele>
        <time>2012-08-29T09:17:59Z</time>
      </trkpt>
      <trkpt lat="45.058" lon="2.05245">
        <ele>470.2</ele>
        <time>2012-08-29T09:17:58Z</time>
      </trkpt>
      <trkpt lat="45.05828" lon="2.05254">
        <ele>468.9</ele>
        <time>2012-08-29T09:17:57Z</time>
      </trkpt>
      <trkpt lat="45.05858" lon="2.05242">
        <ele>468.1</ele>
        <time>2012-08-29T09:17:56Z</time>
      </trkpt>
      <trkpt lat="45.05883" lon="2.05232">
        <ele>467.6</ele>
        <time>2012-08-29T09:17:55Z</time>
      </trkpt>
      <trkpt lat="45.05888" lon="2.05259">
        <ele>466</ele>
        <time>2012-08-29T09:17:54Z</time>
      </trkpt>
      <trkpt lat="45.05901" lon="2.05275">
        <ele>463.2</ele>
        <time>2012-08-29T09:17:53Z</time>
      </trkpt>
      <trkpt lat="45.05916" lon="2.05284">
        <ele>461.1</ele>
        <time>2012-08-29T09:17:52Z</time>
      </trkpt>
      <trkpt lat="45.05932" lon="2.053">
        <ele>457.4</ele>
        <time>2012-08-29T09:17:51Z</time>
      </trkpt>
      <trkpt lat="45.05872" lon="2.05347">
        <ele>455.1</ele>
        <time>2012-08-29T09:17:50Z</time>
      </trkpt>
      <trkpt lat="45.05918" lon="2.05372">
        <ele>446.9</ele>
        <time>2012-08-29T09:17:49Z</time>
      </trkpt>
      <trkpt lat="45.05936" lon="2.0536">
        <ele>447.2</ele>
        <time>2012-08-29T09:17:48Z</time>
      </trkpt>
      <trkpt lat="45.05968" lon="2.05367">
        <ele>442.4</ele>
        <time>2012-08-29T09:17:47Z</time>
      </trkpt>
      <trkpt lat="45.05983" lon="2.05381">
        <ele>437.9</ele>
        <time>2012-08-29T09:17:46Z</time>
      </trkpt>
      <trkpt lat="45.06031" lon="2.0537">
        <ele>432.8</ele>
        <time>2012-08-29T09:17:45Z</time>
      </trkpt>
      <trkpt lat="45.06102" lon="2.05328">
        <ele>430.2</ele>
        <time>2012-08-29T09:17:38Z</time>
      </trkpt>
      <trkpt lat="45.06203" lon="2.05247">
        <ele>427.9</ele>
        <time>2012-08-29T09:17:37Z</time>
      </trkpt>
      <trkpt lat="45.06251" lon="2.05233">
        <ele>415.8</ele>
        <time>2012-08-29T09:17:36Z</time>
      </trkpt>
      <trkpt lat="45.0631" lon="2.05233">
        <ele>398.6</ele>
        <time>2012-08-29T09:17:35Z</time>
      </trkpt>
      <trkpt lat="45.06278" lon="2.05305">
        <ele>396.1</ele>
        <time>2012-08-29T09:17:34Z</time>
      </trkpt>
      <trkpt lat="45.06315" lon="2.05282">
        <ele>389.8</ele>
        <time>2012-08-29T09:17:33Z</time>
      </trkpt>
      <trkpt lat="45.06372" lon="2.0528">
        <ele>371.9</ele>
        <time>2012-08-29T09:17:32Z</time>
      </trkpt>
      <trkpt lat="45.06399" lon="2.05264">
        <ele>363.4</ele>
        <time>2012-08-29T09:17:31Z</time>
      </trkpt>
      <trkpt lat="45.06407" lon="2.05239">
        <ele>361.9</ele>
        <time>2012-08-29T09:17:30Z</time>
      </trkpt>
      <trkpt lat="45.06454" lon="2.05194">
        <ele>349.9</ele>
        <time>2012-08-29T09:17:23Z</time>
      </trkpt>
      <trkpt lat="45.06485" lon="2.05139">
        <ele>333.4</ele>
        <time>2012-08-29T09:17:19Z</time>
      </trkpt>
      <trkpt lat="45.06485" lon="2.05088">
        <ele>327.9</ele>
        <time>2012-08-29T09:17:18Z</time>
      </trkpt>
      <trkpt lat="45.06498" lon="2.05092">
        <ele>322.7</ele>
        <time>2012-08-29T09:17:17Z</time>
      </trkpt>
      <trkpt lat="45.06511" lon="2.05144">
        <ele>325.5</ele>
        <time>2012-08-29T09:17:16Z</time>
      </trkpt>
      <trkpt lat="45.0651" lon="2.05223">
        <ele>336.1</ele>
        <time>2012-08-29T09:17:15Z</time>
      </trkpt>
      <trkpt lat="45.06497" lon="2.05252">
        <ele>341.8</ele>
        <time>2012-08-29T09:17:14Z</time>
      </trkpt>
      <trkpt lat="45.06455" lon="2.05275">
        <ele>352.2</ele>
        <time>2012-08-29T09:17:11Z</time>
      </trkpt>
      <trkpt lat="45.0644" lon="2.05365">
        <ele>365.2</ele>
        <time>2012-08-29T09:17:10Z</time>
      </trkpt>
      <trkpt lat="45.06449" lon="2.05383">
        <ele>369.8</ele>
        <time>2012-08-29T09:17:09Z</time>
      </trkpt>
      <trkpt lat="45.06478" lon="2.05356">
        <ele>364.3</ele>
        <time>2012-08-29T09:17:08Z</time>
      </trkpt>
      <trkpt lat="45.06491" lon="2.05339">
        <ele>360.9</ele>
        <time>2012-08-29T09:17:07Z</time>
      </trkpt>
      <trkpt lat="45.0651" lon="2.05346">
        <ele>361.7</ele>
        <time>2012-08-29T09:17:02Z</time>
      </trkpt>
      <trkpt lat="45.06492" lon="2.05374">
        <ele>368.9</ele>
        <time>2012-08-29T09:16:59Z</time>
      </trkpt>
      <trkpt lat="45.0657" lon="2.05404">
        <ele>363.4</ele>
        <time>2012-08-29T09:16:58Z</time>
      </trkpt>
      <trkpt lat="45.06632" lon="2.05403">
        <ele>332.2</ele>
        <time>2012-08-29T09:16:57Z</time>
      </trkpt>
      <trkpt lat="45.06638" lon="2.05447">
        <ele>326.6</ele>
        <time>2012-08-29T09:16:56Z</time>
      </trkpt>
      <trkpt lat="45.06579" lon="2.05467">
        <ele>355.5</ele>
        <time>2012-08-29T09:16:55Z</time>
      </trkpt>
      <trkpt lat="45.0653" lon="2.0547">
        <ele>370.7</ele>
        <time>2012-08-29T09:16:54Z</time>
      </trkpt>
      <trkpt lat="45.06504" lon="2.05509">
        <ele>377.5</ele>
        <time>2012-08-29T09:16:48Z</time>
      </trkpt>
      <trkpt lat="45.06496" lon="2.05612">
        <ele>360.5</ele>
        <time>2012-08-29T09:16:42Z</time>
      </trkpt>
      <trkpt lat="45.06398" lon="2.05724">
        <ele>390</ele>
        <time>2012-08-29T09:16:37Z</time>
      </trkpt>
      <trkpt lat="45.06351" lon="2.0579">
        <ele>401.4</ele>
        <time>2012-08-29T09:16:36Z</time>
      </trkpt>
      <trkpt lat="45.06344" lon="2.05845">
        <ele>400.7</ele>
        <time>2012-08-29T09:16:34Z</time>
      </trkpt>
      <trkpt lat="45.06331" lon="2.05894">
        <ele>409</ele>
        <time>2012-08-29T09:16:30Z</time>
      </trkpt>
      <trkpt lat="45.06306" lon="2.05877">
        <ele>415.8</ele>
        <time>2012-08-29T09:16:19Z</time>
      </trkpt>
      <trkpt lat="45.06288" lon="2.05859">
        <ele>420.9</ele>
        <time>2012-08-29T09:16:04Z</time>
      </trkpt>
      <trkpt lat="45.06267" lon="2.05863">
        <ele>427.5</ele>
        <time>2012-08-29T09:15:52Z</time>
      </trkpt>
      <trkpt lat="45.0625" lon="2.05899">
        <ele>432.2</ele>
        <time>2012-08-29T09:15:51Z</time>
      </trkpt>
      <trkpt lat="45.06207" lon="2.05955">
        <ele>439.9</ele>
        <time>2012-08-29T09:15:50Z</time>
      </trkpt>
      <trkpt lat="45.06219" lon="2.06036">
        <ele>441.5</ele>
        <time>2012-08-29T09:15:49Z</time>
      </trkpt>
      <trkpt lat="45.06166" lon="2.06025">
        <ele>449.9</ele>
        <time>2012-08-29T09:15:48Z</time>
      </trkpt>
      <trkpt lat="45.06117" lon="2.06076">
        <ele>458.8</ele>
        <time>2012-08-29T09:15:47Z</time>
      </trkpt>
      <trkpt lat="45.06075" lon="2.06113">
        <ele>465.4</ele>
        <time>2012-08-29T09:15:46Z</time>
      </trkpt>
      <trkpt lat="45.06044" lon="2.06135">
        <ele>467.8</ele>
        <time>2012-08-29T09:15:45Z</time>
      </trkpt>
      <trkpt lat="45.05988" lon="2.06153">
        <ele>471.4</ele>
        <time>2012-08-29T09:15:38Z</time>
      </trkpt>
      <trkpt lat="45.0597" lon="2.06223">
        <ele>472.7</ele>
        <time>2012-08-29T09:15:30Z</time>
      </trkpt>
      <trkpt lat="45.05962" lon="2.06219">
        <ele>477</ele>
        <time>2012-08-29T09:15:22Z</time>
      </trkpt>
      <trkpt lat="45.05975" lon="2.06234">
        <ele>476.5</ele>
        <time>2012-08-29T09:15:19Z</time>
      </trkpt>
      <trkpt lat="45.05979" lon="2.06241">
        <ele>476</ele>
        <time>2012-08-29T09:15:18Z</time>
      </trkpt>
      <trkpt lat="45.05983" lon="2.06249">
        <ele>476.5</ele>
        <time>2012-08-29T09:15:17Z</time>
      </trkpt>
      <trkpt lat="45.05986" lon="2.06258">
        <ele>475.5</ele>
        <time>2012-08-29T09:15:16Z</time>
      </trkpt>
      <trkpt lat="45.05988" lon="2.06268">
        <ele>476</ele>
        <time>2012-08-29T09:15:15Z</time>
      </trkpt>
      <trkpt lat="45.0599" lon="2.06278">
        <ele>473.6</ele>
        <time>2012-08-29T09:15:14Z</time>
      </trkpt>
      <trkpt lat="45.05991" lon="2.06288">
        <ele>473.6</ele>
        <time>2012-08-29T09:15:13Z</time>
      </trkpt>
      <trkpt lat="45.05992" lon="2.06299">
        <ele>473.1</ele>
        <time>2012-08-29T09:15:12Z</time>
      </trkpt>
      <trkpt lat="45.05991" lon="2.06311">
        <ele>473.1</ele>
        <time>2012-08-29T09:15:11Z</time>
      </trkpt>
      <trkpt lat="45.0599" lon="2.06323">
        <ele>473.1</ele>
        <time>2012-08-29T09:15:10Z</time>
      </trkpt>
      <trkpt lat="45.05985" lon="2.06333">
        <ele>473.1</ele>
        <time>2012-08-29T09:15:09Z</time>
      </trkpt>
      <trkpt lat="45.05981" lon="2.06343">
        <ele>473.1</ele>
        <time>2012-08-29T09:15:08Z</time>
      </trkpt>
      <trkpt lat="45.05967" lon="2.06376">
        <ele>471.2</ele>
        <time>2012-08-29T09:15:05Z</time>
      </trkpt>
      <trkpt lat="45.05956" lon="2.06399">
        <ele>472.6</ele>
        <time>2012-08-29T09:15:03Z</time>
      </trkpt>
      <trkpt lat="45.05949" lon="2.0641">
        <ele>472.6</ele>
        <time>2012-08-29T09:15:02Z</time>
      </trkpt>
      <trkpt lat="45.05942" lon="2.06421">
        <ele>472.1</ele>
        <time>2012-08-29T09:15:01Z</time>
      </trkpt>
      <trkpt lat="45.05911" lon="2.06462">
        <ele>471.2</ele>
        <time>2012-08-29T09:14:57Z</time>
      </trkpt>
      <trkpt lat="45.05904" lon="2.06472">
        <ele>471.2</ele>
        <time>2012-08-29T09:14:56Z</time>
      </trkpt>
      <trkpt lat="45.05899" lon="2.06483">
        <ele>470.2</ele>
        <time>2012-08-29T09:14:55Z</time>
      </trkpt>
      <trkpt lat="45.05895" lon="2.06494">
        <ele>469.3</ele>
        <time>2012-08-29T09:14:54Z</time>
      </trkpt>
      <trkpt lat="45.05891" lon="2.06506">
        <ele>469.7</ele>
        <time>2012-08-29T09:14:53Z</time>
      </trkpt>
      <trkpt lat="45.0589" lon="2.06518">
        <ele>470.2</ele>
        <time>2012-08-29T09:14:52Z</time>
      </trkpt>
      <trkpt lat="45.05889" lon="2.06531">
        <ele>468.3</ele>
        <time>2012-08-29T09:14:51Z</time>
      </trkpt>
      <trkpt lat="45.05889" lon="2.06545">
        <ele>468.8</ele>
        <time>2012-08-29T09:14:50Z</time>
      </trkpt>
      <trkpt lat="45.05893" lon="2.06613">
        <ele>465.4</ele>
        <time>2012-08-29T09:14:46Z</time>
      </trkpt>
      <trkpt lat="45.05891" lon="2.0663">
        <ele>465.4</ele>
        <time>2012-08-29T09:14:45Z</time>
      </trkpt>
      <trkpt lat="45.05881" lon="2.06693">
        <ele>460.6</ele>
        <time>2012-08-29T09:14:41Z</time>
      </trkpt>
      <trkpt lat="45.05879" lon="2.06708">
        <ele>461.1</ele>
        <time>2012-08-29T09:14:40Z</time>
      </trkpt>
      <trkpt lat="45.05875" lon="2.06732">
        <ele>459.2</ele>
        <time>2012-08-29T09:14:38Z</time>
      </trkpt>
      <trkpt lat="45.05875" lon="2.06743">
        <ele>459.2</ele>
        <time>2012-08-29T09:14:37Z</time>
      </trkpt>
      <trkpt lat="45.05875" lon="2.06761">
        <ele>456.8</ele>
        <time>2012-08-29T09:14:35Z</time>
      </trkpt>
      <trkpt lat="45.05877" lon="2.06768">
        <ele>456.8</ele>
        <time>2012-08-29T09:14:34Z</time>
      </trkpt>
      <trkpt lat="45.05878" lon="2.06773">
        <ele>456.8</ele>
        <time>2012-08-29T09:14:33Z</time>
      </trkpt>
      <trkpt lat="45.05879" lon="2.06777">
        <ele>456.8</ele>
        <time>2012-08-29T09:14:32Z</time>
      </trkpt>
      <trkpt lat="45.05881" lon="2.0678">
        <ele>455.3</ele>
        <time>2012-08-29T09:14:31Z</time>
      </trkpt>
      <trkpt lat="45.05882" lon="2.06781">
        <ele>456.3</ele>
        <time>2012-08-29T09:14:30Z</time>
      </trkpt>
      <trkpt lat="45.05883" lon="2.06781">
        <ele>456.3</ele>
        <time>2012-08-29T09:14:29Z</time>
      </trkpt>
      <trkpt lat="45.05885" lon="2.06781">
        <ele>455.3</ele>
        <time>2012-08-29T09:14:20Z</time>
      </trkpt>
      <trkpt lat="45.05886" lon="2.06782">
        <ele>455.8</ele>
        <time>2012-08-29T09:14:12Z</time>
      </trkpt>
      <trkpt lat="45.05886" lon="2.06783">
        <ele>455.3</ele>
        <time>2012-08-29T09:14:11Z</time>
      </trkpt>
      <trkpt lat="45.05881" lon="2.06794">
        <ele>452.9</ele>
        <time>2012-08-29T09:14:04Z</time>
      </trkpt>
      <trkpt lat="45.05877" lon="2.06802">
        <ele>450.5</ele>
        <time>2012-08-29T09:13:57Z</time>
      </trkpt>
      <trkpt lat="45.0587" lon="2.0681">
        <ele>449.1</ele>
        <time>2012-08-29T09:13:50Z</time>
      </trkpt>
      <trkpt lat="45.05866" lon="2.06814">
        <ele>448.1</ele>
        <time>2012-08-29T09:13:46Z</time>
      </trkpt>
      <trkpt lat="45.05856" lon="2.06819">
        <ele>445.7</ele>
        <time>2012-08-29T09:13:38Z</time>
      </trkpt>
      <trkpt lat="45.05846" lon="2.06825">
        <ele>445.2</ele>
        <time>2012-08-29T09:13:31Z</time>
      </trkpt>
      <trkpt lat="45.05844" lon="2.06826">
        <ele>444.8</ele>
        <time>2012-08-29T09:13:24Z</time>
      </trkpt>
      <trkpt lat="45.05843" lon="2.06825">
        <ele>444.3</ele>
        <time>2012-08-29T09:13:18Z</time>
      </trkpt>
      <trkpt lat="45.05843" lon="2.06825">
        <ele>444.8</ele>
        <time>2012-08-29T09:13:07Z</time>
      </trkpt>
      <trkpt lat="45.05842" lon="2.06824">
        <ele>445.7</ele>
        <time>2012-08-29T09:12:59Z</time>
      </trkpt>
      <trkpt lat="45.0584" lon="2.06827">
        <ele>444.8</ele>
        <time>2012-08-29T09:12:51Z</time>
      </trkpt>
      <trkpt lat="45.0584" lon="2.06833">
        <ele>443.8</ele>
        <time>2012-08-29T09:12:43Z</time>
      </trkpt>
      <trkpt lat="45.05839" lon="2.06835">
        <ele>444.3</ele>
        <time>2012-08-29T09:12:37Z</time>
      </trkpt>
      <trkpt lat="45.05839" lon="2.06846">
        <ele>443.3</ele>
        <time>2012-08-29T09:12:30Z</time>
      </trkpt>
      <trkpt lat="45.0584" lon="2.06859">
        <ele>440.9</ele>
        <time>2012-08-29T09:12:23Z</time>
      </trkpt>
      <trkpt lat="45.05841" lon="2.06861">
        <ele>440.4</ele>
        <time>2012-08-29T09:12:21Z</time>
      </trkpt>
      <trkpt lat="45.05841" lon="2.06879">
        <ele>437.5</ele>
        <time>2012-08-29T09:12:14Z</time>
      </trkpt>
      <trkpt lat="45.05838" lon="2.06894">
        <ele>437.1</ele>
        <time>2012-08-29T09:12:08Z</time>
      </trkpt>
      <trkpt lat="45.05835" lon="2.06905">
        <ele>435.6</ele>
        <time>2012-08-29T09:12:01Z</time>
      </trkpt>
      <trkpt lat="45.05835" lon="2.06905">
        <ele>435.6</ele>
        <time>2012-08-29T09:11:59Z</time>
      </trkpt>
      <trkpt lat="45.05834" lon="2.06909">
        <ele>435.1</ele>
        <time>2012-08-29T09:11:57Z</time>
      </trkpt>
      <trkpt lat="45.05832" lon="2.0692">
        <ele>434.2</ele>
        <time>2012-08-29T09:11:53Z</time>
      </trkpt>
      <trkpt lat="45.05828" lon="2.0693">
        <ele>432.2</ele>
        <time>2012-08-29T09:11:47Z</time>
      </trkpt>
      <trkpt lat="45.05827" lon="2.06931">
        <ele>431.8</ele>
        <time>2012-08-29T09:11:46Z</time>
      </trkpt>
      <trkpt lat="45.05824" lon="2.06932">
        <ele>431.3</ele>
        <time>2012-08-29T09:11:44Z</time>
      </trkpt>
      <trkpt lat="45.05813" lon="2.06929">
        <ele>429.9</ele>
        <time>2012-08-29T09:11:36Z</time>
      </trkpt>
      <trkpt lat="45.05809" lon="2.06925">
        <ele>429.4</ele>
        <time>2012-08-29T09:11:32Z</time>
      </trkpt>
      <trkpt lat="45.05803" lon="2.06924">
        <ele>427.9</ele>
        <time>2012-08-29T09:11:27Z</time>
      </trkpt>
      <trkpt lat="45.05803" lon="2.06932">
        <ele>427.4</ele>
        <time>2012-08-29T09:11:21Z</time>
      </trkpt>
      <trkpt lat="45.05805" lon="2.0694">
        <ele>427</ele>
        <time>2012-08-29T09:11:18Z</time>
      </trkpt>
      <trkpt lat="45.05808" lon="2.0695">
        <ele>426</ele>
        <time>2012-08-29T09:11:13Z</time>
      </trkpt>
      <trkpt lat="45.05807" lon="2.06951">
        <ele>426</ele>
        <time>2012-08-29T09:11:11Z</time>
      </trkpt>
      <trkpt lat="45.05812" lon="2.06966">
        <ele>424.6</ele>
        <time>2012-08-29T09:11:04Z</time>
      </trkpt>
      <trkpt lat="45.05816" lon="2.06978">
        <ele>423.1</ele>
        <time>2012-08-29T09:10:58Z</time>
      </trkpt>
      <trkpt lat="45.05818" lon="2.06985">
        <ele>423.1</ele>
        <time>2012-08-29T09:10:55Z</time>
      </trkpt>
      <trkpt lat="45.05814" lon="2.06989">
        <ele>421.7</ele>
        <time>2012-08-29T09:10:52Z</time>
      </trkpt>
      <trkpt lat="45.05803" lon="2.06989">
        <ele>420.2</ele>
        <time>2012-08-29T09:10:45Z</time>
      </trkpt>
      <trkpt lat="45.05803" lon="2.06995">
        <ele>418.8</ele>
        <time>2012-08-29T09:10:42Z</time>
      </trkpt>
      <trkpt lat="45.05805" lon="2.07001">
        <ele>417.8</ele>
        <time>2012-08-29T09:10:37Z</time>
      </trkpt>
      <trkpt lat="45.05808" lon="2.07003">
        <ele>416.9</ele>
        <time>2012-08-29T09:10:35Z</time>
      </trkpt>
      <trkpt lat="45.0581" lon="2.07004">
        <ele>416.4</ele>
        <time>2012-08-29T09:10:33Z</time>
      </trkpt>
      <trkpt lat="45.05814" lon="2.07006">
        <ele>415.4</ele>
        <time>2012-08-29T09:10:31Z</time>
      </trkpt>
      <trkpt lat="45.05824" lon="2.07012">
        <ele>414</ele>
        <time>2012-08-29T09:10:26Z</time>
      </trkpt>
      <trkpt lat="45.05837" lon="2.07024">
        <ele>411.6</ele>
        <time>2012-08-29T09:10:19Z</time>
      </trkpt>
      <trkpt lat="45.05856" lon="2.07035">
        <ele>408.2</ele>
        <time>2012-08-29T09:10:11Z</time>
      </trkpt>
      <trkpt lat="45.05866" lon="2.07041">
        <ele>406.3</ele>
        <time>2012-08-29T09:10:05Z</time>
      </trkpt>
      <trkpt lat="45.05872" lon="2.07044">
        <ele>405.3</ele>
        <time>2012-08-29T09:10:02Z</time>
      </trkpt>
      <trkpt lat="45.05876" lon="2.07049">
        <ele>404.9</ele>
        <time>2012-08-29T09:10:00Z</time>
      </trkpt>
      <trkpt lat="45.05884" lon="2.07064">
        <ele>403.9</ele>
        <time>2012-08-29T09:09:54Z</time>
      </trkpt>
      <trkpt lat="45.05883" lon="2.07065">
        <ele>402.9</ele>
        <time>2012-08-29T09:09:53Z</time>
      </trkpt>
      <trkpt lat="45.05875" lon="2.0708">
        <ele>401.5</ele>
        <time>2012-08-29T09:09:46Z</time>
      </trkpt>
      <trkpt lat="45.0587" lon="2.07092">
        <ele>398.6</ele>
        <time>2012-08-29T09:09:39Z</time>
      </trkpt>
      <trkpt lat="45.05872" lon="2.07095">
        <ele>398.1</ele>
        <time>2012-08-29T09:09:37Z</time>
      </trkpt>
      <trkpt lat="45.05877" lon="2.07095">
        <ele>397.2</ele>
        <time>2012-08-29T09:09:34Z</time>
      </trkpt>
      <trkpt lat="45.05883" lon="2.0709">
        <ele>394.8</ele>
        <time>2012-08-29T09:09:28Z</time>
      </trkpt>
      <trkpt lat="45.05886" lon="2.07088">
        <ele>393.8</ele>
        <time>2012-08-29T09:09:26Z</time>
      </trkpt>
      <trkpt lat="45.05889" lon="2.07085">
        <ele>393.3</ele>
        <time>2012-08-29T09:09:24Z</time>
      </trkpt>
      <trkpt lat="45.05898" lon="2.07083">
        <ele>391.4</ele>
        <time>2012-08-29T09:09:20Z</time>
      </trkpt>
      <trkpt lat="45.05899" lon="2.07083">
        <ele>391.4</ele>
        <time>2012-08-29T09:09:19Z</time>
      </trkpt>
      <trkpt lat="45.05916" lon="2.07074">
        <ele>384.2</ele>
        <time>2012-08-29T09:09:14Z</time>
      </trkpt>
      <trkpt lat="45.05919" lon="2.07072">
        <ele>392.8</ele>
        <time>2012-08-29T09:09:13Z</time>
      </trkpt>
      <trkpt lat="45.0592" lon="2.07071">
        <ele>390.4</ele>
        <time>2012-08-29T09:09:12Z</time>
      </trkpt>
      <trkpt lat="45.05938" lon="2.07067">
        <ele>389</ele>
        <time>2012-08-29T09:09:05Z</time>
      </trkpt>
      <trkpt lat="45.05943" lon="2.07062">
        <ele>390</ele>
        <time>2012-08-29T09:09:00Z</time>
      </trkpt>
      <trkpt lat="45.05941" lon="2.07062">
        <ele>389</ele>
        <time>2012-08-29T09:08:52Z</time>
      </trkpt>
      <trkpt lat="45.05941" lon="2.07062">
        <ele>390</ele>
        <time>2012-08-29T09:08:36Z</time>
      </trkpt>
      <trkpt lat="45.05941" lon="2.07062">
        <ele>390.4</ele>
        <time>2012-08-29T09:08:17Z</time>
      </trkpt>
      <trkpt lat="45.0594" lon="2.07063">
        <ele>390.9</ele>
        <time>2012-08-29T09:08:08Z</time>
      </trkpt>
      <trkpt lat="45.05923" lon="2.0708">
        <ele>390</ele>
        <time>2012-08-29T09:08:02Z</time>
      </trkpt>
      <trkpt lat="45.05898" lon="2.07108">
        <ele>387.5</ele>
        <time>2012-08-29T09:07:57Z</time>
      </trkpt>
      <trkpt lat="45.05875" lon="2.07142">
        <ele>386.1</ele>
        <time>2012-08-29T09:07:52Z</time>
      </trkpt>
      <trkpt lat="45.05863" lon="2.07151">
        <ele>383.7</ele>
        <time>2012-08-29T09:07:50Z</time>
      </trkpt>
      <trkpt lat="45.05856" lon="2.07153">
        <ele>382.7</ele>
        <time>2012-08-29T09:07:49Z</time>
      </trkpt>
      <trkpt lat="45.05836" lon="2.07162">
        <ele>381.3</ele>
        <time>2012-08-29T09:07:46Z</time>
      </trkpt>
      <trkpt lat="45.0583" lon="2.07166">
        <ele>380.3</ele>
        <time>2012-08-29T09:07:45Z</time>
      </trkpt>
      <trkpt lat="45.05825" lon="2.07172">
        <ele>380.3</ele>
        <time>2012-08-29T09:07:44Z</time>
      </trkpt>
      <trkpt lat="45.05823" lon="2.07179">
        <ele>380.3</ele>
        <time>2012-08-29T09:07:43Z</time>
      </trkpt>
      <trkpt lat="45.05822" lon="2.07186">
        <ele>380.8</ele>
        <time>2012-08-29T09:07:42Z</time>
      </trkpt>
      <trkpt lat="45.05822" lon="2.07193">
        <ele>381.3</ele>
        <time>2012-08-29T09:07:41Z</time>
      </trkpt>
      <trkpt lat="45.05823" lon="2.07199">
        <ele>381.8</ele>
        <time>2012-08-29T09:07:40Z</time>
      </trkpt>
      <trkpt lat="45.05824" lon="2.07202">
        <ele>382.3</ele>
        <time>2012-08-29T09:07:39Z</time>
      </trkpt>
      <trkpt lat="45.05826" lon="2.07204">
        <ele>382.7</ele>
        <time>2012-08-29T09:07:38Z</time>
      </trkpt>
      <trkpt lat="45.05828" lon="2.07205">
        <ele>383.7</ele>
        <time>2012-08-29T09:07:37Z</time>
      </trkpt>
      <trkpt lat="45.05831" lon="2.07206">
        <ele>383.7</ele>
        <time>2012-08-29T09:07:36Z</time>
      </trkpt>
      <trkpt lat="45.05835" lon="2.07207">
        <ele>383.2</ele>
        <time>2012-08-29T09:07:35Z</time>
      </trkpt>
      <trkpt lat="45.0584" lon="2.07208">
        <ele>383.7</ele>
        <time>2012-08-29T09:07:34Z</time>
      </trkpt>
      <trkpt lat="45.05843" lon="2.07208">
        <ele>383.2</ele>
        <time>2012-08-29T09:07:33Z</time>
      </trkpt>
      <trkpt lat="45.05862" lon="2.07204">
        <ele>382.7</ele>
        <time>2012-08-29T09:07:26Z</time>
      </trkpt>
      <trkpt lat="45.05877" lon="2.072">
        <ele>382.3</ele>
        <time>2012-08-29T09:07:24Z</time>
      </trkpt>
      <trkpt lat="45.05885" lon="2.07196">
        <ele>382.3</ele>
        <time>2012-08-29T09:07:23Z</time>
      </trkpt>
      <trkpt lat="45.05901" lon="2.07245">
        <ele>399</ele>
        <time>2012-08-29T09:07:22Z</time>
      </trkpt>
      <trkpt lat="45.05938" lon="2.07255">
        <ele>397.5</ele>
        <time>2012-08-29T09:07:16Z</time>
      </trkpt>
      <trkpt lat="45.05954" lon="2.0724">
        <ele>392.7</ele>
        <time>2012-08-29T09:07:15Z</time>
      </trkpt>
      <trkpt lat="45.05968" lon="2.07222">
        <ele>387.3</ele>
        <time>2012-08-29T09:07:14Z</time>
      </trkpt>
      <trkpt lat="45.05977" lon="2.07204">
        <ele>382.4</ele>
        <time>2012-08-29T09:07:11Z</time>
      </trkpt>
      <trkpt lat="45.05989" lon="2.07199">
        <ele>379.6</ele>
        <time>2012-08-29T09:07:07Z</time>
      </trkpt>
      <trkpt lat="45.06006" lon="2.07196">
        <ele>375</ele>
        <time>2012-08-29T09:07:06Z</time>
      </trkpt>
      <trkpt lat="45.06019" lon="2.07202">
        <ele>370.8</ele>
        <time>2012-08-29T09:07:05Z</time>
      </trkpt>
      <trkpt lat="45.06029" lon="2.07214">
        <ele>367.8</ele>
        <time>2012-08-29T09:07:02Z</time>
      </trkpt>
      <trkpt lat="45.06039" lon="2.07241">
        <ele>364.7</ele>
        <time>2012-08-29T09:06:58Z</time>
      </trkpt>
      <trkpt lat="45.06045" lon="2.07264">
        <ele>362</ele>
        <time>2012-08-29T09:06:57Z</time>
      </trkpt>
      <trkpt lat="45.06058" lon="2.07289">
        <ele>355.6</ele>
        <time>2012-08-29T09:06:53Z</time>
      </trkpt>
      <trkpt lat="45.06067" lon="2.07315">
        <ele>351.4</ele>
        <time>2012-08-29T09:06:50Z</time>
      </trkpt>
      <trkpt lat="45.06077" lon="2.07333">
        <ele>345.5</ele>
        <time>2012-08-29T09:06:46Z</time>
      </trkpt>
      <trkpt lat="45.06073" lon="2.07365">
        <ele>344.4</ele>
        <time>2012-08-29T09:06:42Z</time>
      </trkpt>
      <trkpt lat="45.06068" lon="2.07407">
        <ele>342.5</ele>
        <time>2012-08-29T09:06:41Z</time>
      </trkpt>
      <trkpt lat="45.06067" lon="2.0743">
        <ele>341.1</ele>
        <time>2012-08-29T09:06:40Z</time>
      </trkpt>
      <trkpt lat="45.06064" lon="2.07467">
        <ele>341.1</ele>
        <time>2012-08-29T09:06:39Z</time>
      </trkpt>
      <trkpt lat="45.06055" lon="2.07505">
        <ele>344.9</ele>
        <time>2012-08-29T09:06:38Z</time>
      </trkpt>
      <trkpt lat="45.06055" lon="2.07528">
        <ele>346.6</ele>
        <time>2012-08-29T09:06:37Z</time>
      </trkpt>
      <trkpt lat="45.06055" lon="2.07549">
        <ele>348.3</ele>
        <time>2012-08-29T09:06:31Z</time>
      </trkpt>
      <trkpt lat="45.06068" lon="2.07598">
        <ele>393.8</ele>
        <time>2012-09-20T13:53:23Z</time>
      </trkpt>
      <trkpt lat="45.06063" lon="2.07585">
        <ele>392.8</ele>
        <time>2012-09-20T13:53:14Z</time>
      </trkpt>
      <trkpt lat="45.06058" lon="2.07572">
        <ele>391.4</ele>
        <time>2012-09-20T13:53:06Z</time>
      </trkpt>
      <trkpt lat="45.06055" lon="2.07567">
        <ele>389.5</ele>
        <time>2012-09-20T13:52:58Z</time>
      </trkpt>
      <trkpt lat="45.06055" lon="2.07566">
        <ele>389</ele>
        <time>2012-09-20T13:52:57Z</time>
      </trkpt>
      <trkpt lat="45.06057" lon="2.07566">
        <ele>387.5</ele>
        <time>2012-09-20T13:52:55Z</time>
      </trkpt>
      <trkpt lat="45.06061" lon="2.07568">
        <ele>388.5</ele>
        <time>2012-09-20T13:52:52Z</time>
      </trkpt>
      <trkpt lat="45.06072" lon="2.07574">
        <ele>385.1</ele>
        <time>2012-09-20T13:52:42Z</time>
      </trkpt>
      <trkpt lat="45.06073" lon="2.07575">
        <ele>384.7</ele>
        <time>2012-09-20T13:52:41Z</time>
      </trkpt>
      <trkpt lat="45.06083" lon="2.07589">
        <ele>382.3</ele>
        <time>2012-09-20T13:52:32Z</time>
      </trkpt>
      <trkpt lat="45.06091" lon="2.07602">
        <ele>380.3</ele>
        <time>2012-09-20T13:52:24Z</time>
      </trkpt>
      <trkpt lat="45.06097" lon="2.07615">
        <ele>378.9</ele>
        <time>2012-09-20T13:52:17Z</time>
      </trkpt>
      <trkpt lat="45.06101" lon="2.07627">
        <ele>377.9</ele>
        <time>2012-09-20T13:52:10Z</time>
      </trkpt>
      <trkpt lat="45.06103" lon="2.07641">
        <ele>377</ele>
        <time>2012-09-20T13:52:04Z</time>
      </trkpt>
      <trkpt lat="45.06105" lon="2.07654">
        <ele>376</ele>
        <time>2012-09-20T13:51:58Z</time>
      </trkpt>
      <trkpt lat="45.06106" lon="2.07663">
        <ele>375</ele>
        <time>2012-09-20T13:51:52Z</time>
      </trkpt>
      <trkpt lat="45.06105" lon="2.07675">
        <ele>374.1</ele>
        <time>2012-09-20T13:51:45Z</time>
      </trkpt>
      <trkpt lat="45.06105" lon="2.07677">
        <ele>374.1</ele>
        <time>2012-09-20T13:51:44Z</time>
      </trkpt>
      <trkpt lat="45.06107" lon="2.07697">
        <ele>371.2</ele>
        <time>2012-09-20T13:51:33Z</time>
      </trkpt>
      <trkpt lat="45.06111" lon="2.0769">
        <ele>371.2</ele>
        <time>2012-09-20T13:51:32Z</time>
      </trkpt>
      <trkpt lat="45.0612" lon="2.0768">
        <ele>369.8</ele>
        <time>2012-09-20T13:51:25Z</time>
      </trkpt>
      <trkpt lat="45.06125" lon="2.07667">
        <ele>367.8</ele>
        <time>2012-09-20T13:51:17Z</time>
      </trkpt>
      <trkpt lat="45.06131" lon="2.07655">
        <ele>365.4</ele>
        <time>2012-09-20T13:51:11Z</time>
      </trkpt>
      <trkpt lat="45.06133" lon="2.07642">
        <ele>363.5</ele>
        <time>2012-09-20T13:51:03Z</time>
      </trkpt>
      <trkpt lat="45.06131" lon="2.0763">
        <ele>361.1</ele>
        <time>2012-09-20T13:50:55Z</time>
      </trkpt>
      <trkpt lat="45.06128" lon="2.0762">
        <ele>358.7</ele>
        <time>2012-09-20T13:50:48Z</time>
      </trkpt>
      <trkpt lat="45.06134" lon="2.07617">
        <ele>357.3</ele>
        <time>2012-09-20T13:50:41Z</time>
      </trkpt>
      <trkpt lat="45.06134" lon="2.07619">
        <ele>357.3</ele>
        <time>2012-09-20T13:50:39Z</time>
      </trkpt>
      <trkpt lat="45.06135" lon="2.07625">
        <ele>356.3</ele>
        <time>2012-09-20T13:50:36Z</time>
      </trkpt>
      <trkpt lat="45.06138" lon="2.07634">
        <ele>354.9</ele>
        <time>2012-09-20T13:50:31Z</time>
      </trkpt>
      <trkpt lat="45.06141" lon="2.07647">
        <ele>353.4</ele>
        <time>2012-09-20T13:50:24Z</time>
      </trkpt>
      <trkpt lat="45.06145" lon="2.0766">
        <ele>351.5</ele>
        <time>2012-09-20T13:50:17Z</time>
      </trkpt>
      <trkpt lat="45.06146" lon="2.07667">
        <ele>351.5</ele>
        <time>2012-09-20T13:50:13Z</time>
      </trkpt>
      <trkpt lat="45.0615" lon="2.07677">
        <ele>349.1</ele>
        <time>2012-09-20T13:50:04Z</time>
      </trkpt>
      <trkpt lat="45.06155" lon="2.07686">
        <ele>346.7</ele>
        <time>2012-09-20T13:49:56Z</time>
      </trkpt>
      <trkpt lat="45.06157" lon="2.07689">
        <ele>344.8</ele>
        <time>2012-09-20T13:49:51Z</time>
      </trkpt>
      <trkpt lat="45.06162" lon="2.07691">
        <ele>343.8</ele>
        <time>2012-09-20T13:49:43Z</time>
      </trkpt>
      <trkpt lat="45.06167" lon="2.07692">
        <ele>342.9</ele>
        <time>2012-09-20T13:49:36Z</time>
      </trkpt>
      <trkpt lat="45.06171" lon="2.07695">
        <ele>340.4</ele>
        <time>2012-09-20T13:49:29Z</time>
      </trkpt>
      <trkpt lat="45.06176" lon="2.07697">
        <ele>338</ele>
        <time>2012-09-20T13:49:23Z</time>
      </trkpt>
      <trkpt lat="45.06191" lon="2.07694">
        <ele>336.1</ele>
        <time>2012-09-20T13:49:15Z</time>
      </trkpt>
      <trkpt lat="45.06198" lon="2.07691">
        <ele>333.7</ele>
        <time>2012-09-20T13:49:05Z</time>
      </trkpt>
      <trkpt lat="45.062" lon="2.0769">
        <ele>333.2</ele>
        <time>2012-09-20T13:49:03Z</time>
      </trkpt>
      <trkpt lat="45.06207" lon="2.07686">
        <ele>331.3</ele>
        <time>2012-09-20T13:48:56Z</time>
      </trkpt>
      <trkpt lat="45.06212" lon="2.07686">
        <ele>330.4</ele>
        <time>2012-09-20T13:48:51Z</time>
      </trkpt>
      <trkpt lat="45.06233" lon="2.07691">
        <ele>328.4</ele>
        <time>2012-09-20T13:48:43Z</time>
      </trkpt>
      <trkpt lat="45.06236" lon="2.07693">
        <ele>328</ele>
        <time>2012-09-20T13:48:38Z</time>
      </trkpt>
      <trkpt lat="45.06237" lon="2.07695">
        <ele>328</ele>
        <time>2012-09-20T13:48:32Z</time>
      </trkpt>
      <trkpt lat="45.06236" lon="2.07699">
        <ele>328.4</ele>
        <time>2012-09-20T13:48:25Z</time>
      </trkpt>
      <trkpt lat="45.06236" lon="2.07699">
        <ele>328.4</ele>
        <time>2012-09-20T13:48:20Z</time>
      </trkpt>
      <trkpt lat="45.06236" lon="2.07698">
        <ele>328.4</ele>
        <time>2012-09-20T13:48:07Z</time>
      </trkpt>
      <trkpt lat="45.06237" lon="2.077">
        <ele>328</ele>
        <time>2012-09-20T13:48:00Z</time>
      </trkpt>
      <trkpt lat="45.06237" lon="2.07695">
        <ele>328</ele>
        <time>2012-09-20T13:47:51Z</time>
      </trkpt>
      <trkpt lat="45.06236" lon="2.07694">
        <ele>328.4</ele>
        <time>2012-09-20T13:47:42Z</time>
      </trkpt>
      <trkpt lat="45.06237" lon="2.07696">
        <ele>328</ele>
        <time>2012-09-20T13:47:27Z</time>
      </trkpt>
      <trkpt lat="45.06233" lon="2.07713">
        <ele>298.5</ele>
        <time>2012-08-29T09:02:44Z</time>
      </trkpt>
      <trkpt lat="45.06259" lon="2.07711">
        <ele>292.7</ele>
        <time>2012-08-29T09:02:40Z</time>
      </trkpt>
      <trkpt lat="45.06284" lon="2.07702">
        <ele>318.3</ele>
        <time>2012-08-29T09:02:35Z</time>
      </trkpt>
      <trkpt lat="45.06286" lon="2.07706">
        <ele>318.8</ele>
        <time>2012-08-29T09:02:28Z</time>
      </trkpt>
      <trkpt lat="45.06286" lon="2.07706">
        <ele>318.8</ele>
        <time>2012-08-29T09:02:11Z</time>
      </trkpt>
      <trkpt lat="45.06285" lon="2.07707">
        <ele>318.8</ele>
        <time>2012-08-29T09:01:59Z</time>
      </trkpt>
      <trkpt lat="45.06285" lon="2.07707">
        <ele>318.3</ele>
        <time>2012-08-29T09:01:47Z</time>
      </trkpt>
      <trkpt lat="45.06284" lon="2.07708">
        <ele>318.3</ele>
        <time>2012-08-29T09:01:32Z</time>
      </trkpt>
      <trkpt lat="45.06286" lon="2.07712">
        <ele>318.3</ele>
        <time>2012-08-29T09:01:27Z</time>
      </trkpt>
      <trkpt lat="45.06286" lon="2.07716">
        <ele>318.3</ele>
        <time>2012-08-29T09:01:26Z</time>
      </trkpt>
      <trkpt lat="45.0628" lon="2.07736">
        <ele>317.9</ele>
        <time>2012-08-29T09:01:22Z</time>
      </trkpt>
      <trkpt lat="45.06276" lon="2.07744">
        <ele>317.9</ele>
        <time>2012-08-29T09:01:21Z</time>
      </trkpt>
      <trkpt lat="45.06271" lon="2.07752">
        <ele>317.9</ele>
        <time>2012-08-29T09:01:20Z</time>
      </trkpt>
      <trkpt lat="45.06234" lon="2.07807">
        <ele>315.5</ele>
        <time>2012-08-29T09:01:14Z</time>
      </trkpt>
      <trkpt lat="45.06209" lon="2.07846">
        <ele>312.1</ele>
        <time>2012-08-29T09:01:10Z</time>
      </trkpt>
      <trkpt lat="45.06205" lon="2.07858">
        <ele>311.6</ele>
        <time>2012-08-29T09:01:09Z</time>
      </trkpt>
      <trkpt lat="45.06201" lon="2.07871">
        <ele>311.1</ele>
        <time>2012-08-29T09:01:08Z</time>
      </trkpt>
      <trkpt lat="45.06197" lon="2.07884">
        <ele>309.7</ele>
        <time>2012-08-29T09:01:07Z</time>
      </trkpt>
      <trkpt lat="45.06193" lon="2.07896">
        <ele>309.2</ele>
        <time>2012-08-29T09:01:06Z</time>
      </trkpt>
      <trkpt lat="45.06184" lon="2.07919">
        <ele>307.8</ele>
        <time>2012-08-29T09:01:04Z</time>
      </trkpt>
      <trkpt lat="45.06164" lon="2.07964">
        <ele>305.4</ele>
        <time>2012-08-29T09:01:00Z</time>
      </trkpt>
      <trkpt lat="45.06149" lon="2.08007">
        <ele>301.5</ele>
        <time>2012-08-29T09:00:56Z</time>
      </trkpt>
      <trkpt lat="45.06146" lon="2.08022">
        <ele>299.6</ele>
        <time>2012-08-29T09:00:54Z</time>
      </trkpt>
      <trkpt lat="45.06147" lon="2.08027">
        <ele>300.1</ele>
        <time>2012-08-29T09:00:53Z</time>
      </trkpt>
      <trkpt lat="45.0615" lon="2.08031">
        <ele>300.1</ele>
        <time>2012-08-29T09:00:52Z</time>
      </trkpt>
      <trkpt lat="45.06184" lon="2.08067">
        <ele>299.6</ele>
        <time>2012-08-29T09:00:44Z</time>
      </trkpt>
      <trkpt lat="45.0619" lon="2.08071">
        <ele>299.6</ele>
        <time>2012-08-29T09:00:43Z</time>
      </trkpt>
      <trkpt lat="45.06196" lon="2.08071">
        <ele>299.6</ele>
        <time>2012-08-29T09:00:42Z</time>
      </trkpt>
      <trkpt lat="45.06204" lon="2.08071">
        <ele>299.6</ele>
        <time>2012-08-29T09:00:41Z</time>
      </trkpt>
      <trkpt lat="45.06217" lon="2.08063">
        <ele>300.5</ele>
        <time>2012-08-29T09:00:39Z</time>
      </trkpt>
      <trkpt lat="45.06223" lon="2.08056">
        <ele>301</ele>
        <time>2012-08-29T09:00:38Z</time>
      </trkpt>
      <trkpt lat="45.06257" lon="2.07997">
        <ele>303</ele>
        <time>2012-08-29T09:00:32Z</time>
      </trkpt>
      <trkpt lat="45.06284" lon="2.07942">
        <ele>304.4</ele>
        <time>2012-08-29T09:00:27Z</time>
      </trkpt>
      <trkpt lat="45.0629" lon="2.07932">
        <ele>304.9</ele>
        <time>2012-08-29T09:00:26Z</time>
      </trkpt>
      <trkpt lat="45.06297" lon="2.07924">
        <ele>305.4</ele>
        <time>2012-08-29T09:00:25Z</time>
      </trkpt>
      <trkpt lat="45.06305" lon="2.07917">
        <ele>305.4</ele>
        <time>2012-08-29T09:00:24Z</time>
      </trkpt>
      <trkpt lat="45.0635" lon="2.07892">
        <ele>308.7</ele>
        <time>2012-08-29T09:00:19Z</time>
      </trkpt>
      <trkpt lat="45.06378" lon="2.07883">
        <ele>310.6</ele>
        <time>2012-08-29T09:00:16Z</time>
      </trkpt>
      <trkpt lat="45.06387" lon="2.07882">
        <ele>310.2</ele>
        <time>2012-08-29T09:00:15Z</time>
      </trkpt>
      <trkpt lat="45.06416" lon="2.07879">
        <ele>312.1</ele>
        <time>2012-08-29T09:00:12Z</time>
      </trkpt>
      <trkpt lat="45.06424" lon="2.07875">
        <ele>313</ele>
        <time>2012-08-29T09:00:11Z</time>
      </trkpt>
      <trkpt lat="45.06432" lon="2.0787">
        <ele>312.6</ele>
        <time>2012-08-29T09:00:10Z</time>
      </trkpt>
      <trkpt lat="45.06448" lon="2.07858">
        <ele>314</ele>
        <time>2012-08-29T09:00:08Z</time>
      </trkpt>
      <trkpt lat="45.06461" lon="2.0785">
        <ele>315</ele>
        <time>2012-08-29T09:00:06Z</time>
      </trkpt>
      <trkpt lat="45.06483" lon="2.0784">
        <ele>315.9</ele>
        <time>2012-08-29T09:00:03Z</time>
      </trkpt>
      <trkpt lat="45.0649" lon="2.07835">
        <ele>315.9</ele>
        <time>2012-08-29T09:00:02Z</time>
      </trkpt>
      <trkpt lat="45.06517" lon="2.0781">
        <ele>317.4</ele>
        <time>2012-08-29T08:59:58Z</time>
      </trkpt>
      <trkpt lat="45.06554" lon="2.07765">
        <ele>319.8</ele>
        <time>2012-08-29T08:59:52Z</time>
      </trkpt>
      <trkpt lat="45.06594" lon="2.07709">
        <ele>323.1</ele>
        <time>2012-08-29T08:59:45Z</time>
      </trkpt>
      <trkpt lat="45.06632" lon="2.0764">
        <ele>324.6</ele>
        <time>2012-08-29T08:59:36Z</time>
      </trkpt>
      <trkpt lat="45.06635" lon="2.07632">
        <ele>325.5</ele>
        <time>2012-08-29T08:59:35Z</time>
      </trkpt>
      <trkpt lat="45.06636" lon="2.07623">
        <ele>325.1</ele>
        <time>2012-08-29T08:59:34Z</time>
      </trkpt>
      <trkpt lat="45.06635" lon="2.07614">
        <ele>325.5</ele>
        <time>2012-08-29T08:59:33Z</time>
      </trkpt>
      <trkpt lat="45.06633" lon="2.07605">
        <ele>326</ele>
        <time>2012-08-29T08:59:32Z</time>
      </trkpt>
      <trkpt lat="45.06631" lon="2.07596">
        <ele>326.5</ele>
        <time>2012-08-29T08:59:31Z</time>
      </trkpt>
      <trkpt lat="45.06627" lon="2.07578">
        <ele>327.5</ele>
        <time>2012-08-29T08:59:29Z</time>
      </trkpt>
      <trkpt lat="45.06612" lon="2.07524">
        <ele>328</ele>
        <time>2012-08-29T08:59:22Z</time>
      </trkpt>
      <trkpt lat="45.06611" lon="2.07517">
        <ele>328.9</ele>
        <time>2012-08-29T08:59:21Z</time>
      </trkpt>
      <trkpt lat="45.06611" lon="2.0751">
        <ele>328.9</ele>
        <time>2012-08-29T08:59:20Z</time>
      </trkpt>
      <trkpt lat="45.06614" lon="2.07482">
        <ele>329.4</ele>
        <time>2012-08-29T08:59:14Z</time>
      </trkpt>
      <trkpt lat="45.06621" lon="2.07474">
        <ele>330.4</ele>
        <time>2012-08-29T08:59:06Z</time>
      </trkpt>
      <trkpt lat="45.06621" lon="2.07472">
        <ele>328.4</ele>
        <time>2012-08-29T08:58:56Z</time>
      </trkpt>
      <trkpt lat="45.06621" lon="2.07472">
        <ele>330.4</ele>
        <time>2012-08-29T08:58:43Z</time>
      </trkpt>
      <trkpt lat="45.06621" lon="2.07472">
        <ele>329.9</ele>
        <time>2012-08-29T08:58:27Z</time>
      </trkpt>
      <trkpt lat="45.06621" lon="2.07472">
        <ele>330.4</ele>
        <time>2012-08-29T08:58:09Z</time>
      </trkpt>
      <trkpt lat="45.06621" lon="2.07472">
        <ele>330.4</ele>
        <time>2012-08-29T08:57:58Z</time>
      </trkpt>
      <trkpt lat="45.06621" lon="2.07472">
        <ele>329.9</ele>
        <time>2012-08-29T08:57:37Z</time>
      </trkpt>
      <trkpt lat="45.06622" lon="2.07473">
        <ele>329.9</ele>
        <time>2012-08-29T08:57:19Z</time>
      </trkpt>
      <trkpt lat="45.06622" lon="2.07473">
        <ele>329.4</ele>
        <time>2012-08-29T08:57:00Z</time>
      </trkpt>
      <trkpt lat="45.06622" lon="2.07471">
        <ele>328.4</ele>
        <time>2012-08-29T08:56:43Z</time>
      </trkpt>
      <trkpt lat="45.06622" lon="2.07471">
        <ele>329.4</ele>
        <time>2012-08-29T08:56:23Z</time>
      </trkpt>
      <trkpt lat="45.06622" lon="2.07471">
        <ele>328.9</ele>
        <time>2012-08-29T08:56:08Z</time>
      </trkpt>
      <trkpt lat="45.06622" lon="2.07471">
        <ele>324.1</ele>
        <time>2012-08-29T08:56:03Z</time>
      </trkpt>
      <trkpt lat="45.06622" lon="2.07471">
        <ele>330.4</ele>
        <time>2012-08-29T08:56:02Z</time>
      </trkpt>
      <trkpt lat="45.06623" lon="2.07473">
        <ele>329.4</ele>
        <time>2012-08-29T08:55:54Z</time>
      </trkpt>
      <trkpt lat="45.06622" lon="2.07474">
        <ele>329.9</ele>
        <time>2012-08-29T08:55:47Z</time>
      </trkpt>
      <trkpt lat="45.06622" lon="2.0747">
        <ele>330.8</ele>
        <time>2012-08-29T08:55:46Z</time>
      </trkpt>
      <trkpt lat="45.06623" lon="2.07466">
        <ele>330.4</ele>
        <time>2012-08-29T08:55:45Z</time>
      </trkpt>
      <trkpt lat="45.06625" lon="2.07461">
        <ele>331.3</ele>
        <time>2012-08-29T08:55:44Z</time>
      </trkpt>
      <trkpt lat="45.06627" lon="2.07456">
        <ele>331.8</ele>
        <time>2012-08-29T08:55:43Z</time>
      </trkpt>
      <trkpt lat="45.0663" lon="2.07451">
        <ele>331.8</ele>
        <time>2012-08-29T08:55:42Z</time>
      </trkpt>
      <trkpt lat="45.06634" lon="2.07446">
        <ele>332.3</ele>
        <time>2012-08-29T08:55:41Z</time>
      </trkpt>
      <trkpt lat="45.06638" lon="2.07441">
        <ele>333.2</ele>
        <time>2012-08-29T08:55:40Z</time>
      </trkpt>
      <trkpt lat="45.06644" lon="2.07436">
        <ele>333.2</ele>
        <time>2012-08-29T08:55:39Z</time>
      </trkpt>
      <trkpt lat="45.06649" lon="2.07431">
        <ele>334.7</ele>
        <time>2012-08-29T08:55:38Z</time>
      </trkpt>
      <trkpt lat="45.06671" lon="2.07406">
        <ele>337.1</ele>
        <time>2012-08-29T08:55:34Z</time>
      </trkpt>
      <trkpt lat="45.06691" lon="2.07379">
        <ele>339</ele>
        <time>2012-08-29T08:55:31Z</time>
      </trkpt>
      <trkpt lat="45.06728" lon="2.07339">
        <ele>341.4</ele>
        <time>2012-08-29T08:55:26Z</time>
      </trkpt>
      <trkpt lat="45.06759" lon="2.0731">
        <ele>342.9</ele>
        <time>2012-08-29T08:55:22Z</time>
      </trkpt>
      <trkpt lat="45.06774" lon="2.07292">
        <ele>343.3</ele>
        <time>2012-08-29T08:55:20Z</time>
      </trkpt>
      <trkpt lat="45.0679" lon="2.07258">
        <ele>344.3</ele>
        <time>2012-08-29T08:55:17Z</time>
      </trkpt>
      <trkpt lat="45.06794" lon="2.07247">
        <ele>345.2</ele>
        <time>2012-08-29T08:55:16Z</time>
      </trkpt>
      <trkpt lat="45.06797" lon="2.07236">
        <ele>345.7</ele>
        <time>2012-08-29T08:55:15Z</time>
      </trkpt>
      <trkpt lat="45.06804" lon="2.07213">
        <ele>346.2</ele>
        <time>2012-08-29T08:55:13Z</time>
      </trkpt>
      <trkpt lat="45.06826" lon="2.07156">
        <ele>349.1</ele>
        <time>2012-08-29T08:55:08Z</time>
      </trkpt>
      <trkpt lat="45.06832" lon="2.07147">
        <ele>349.6</ele>
        <time>2012-08-29T08:55:07Z</time>
      </trkpt>
      <trkpt lat="45.06866" lon="2.07084">
        <ele>352.5</ele>
        <time>2012-08-29T08:55:01Z</time>
      </trkpt>
      <trkpt lat="45.06903" lon="2.06971">
        <ele>354.4</ele>
        <time>2012-08-29T08:54:52Z</time>
      </trkpt>
      <trkpt lat="45.06903" lon="2.06959">
        <ele>354.9</ele>
        <time>2012-08-29T08:54:51Z</time>
      </trkpt>
      <trkpt lat="45.06903" lon="2.06947">
        <ele>355.8</ele>
        <time>2012-08-29T08:54:50Z</time>
      </trkpt>
      <trkpt lat="45.06902" lon="2.06926">
        <ele>355.8</ele>
        <time>2012-08-29T08:54:48Z</time>
      </trkpt>
      <trkpt lat="45.06904" lon="2.06917">
        <ele>355.3</ele>
        <time>2012-08-29T08:54:47Z</time>
      </trkpt>
      <trkpt lat="45.06906" lon="2.0691">
        <ele>356.3</ele>
        <time>2012-08-29T08:54:46Z</time>
      </trkpt>
      <trkpt lat="45.0691" lon="2.06906">
        <ele>356.3</ele>
        <time>2012-08-29T08:54:45Z</time>
      </trkpt>
      <trkpt lat="45.06914" lon="2.06906">
        <ele>356.3</ele>
        <time>2012-08-29T08:54:44Z</time>
      </trkpt>
      <trkpt lat="45.06919" lon="2.06909">
        <ele>357.3</ele>
        <time>2012-08-29T08:54:43Z</time>
      </trkpt>
      <trkpt lat="45.06924" lon="2.06914">
        <ele>357.3</ele>
        <time>2012-08-29T08:54:42Z</time>
      </trkpt>
      <trkpt lat="45.0693" lon="2.06922">
        <ele>358.2</ele>
        <time>2012-08-29T08:54:41Z</time>
      </trkpt>
      <trkpt lat="45.06936" lon="2.06931">
        <ele>358.7</ele>
        <time>2012-08-29T08:54:40Z</time>
      </trkpt>
      <trkpt lat="45.06968" lon="2.06977">
        <ele>362.5</ele>
        <time>2012-08-29T08:54:35Z</time>
      </trkpt>
      <trkpt lat="45.06975" lon="2.06987">
        <ele>362.5</ele>
        <time>2012-08-29T08:54:34Z</time>
      </trkpt>
      <trkpt lat="45.07013" lon="2.07033">
        <ele>365</ele>
        <time>2012-08-29T08:54:29Z</time>
      </trkpt>
      <trkpt lat="45.07052" lon="2.07073">
        <ele>364.5</ele>
        <time>2012-08-29T08:54:23Z</time>
      </trkpt>
      <trkpt lat="45.07058" lon="2.07077">
        <ele>365.4</ele>
        <time>2012-08-29T08:54:22Z</time>
      </trkpt>
      <trkpt lat="45.07063" lon="2.07079">
        <ele>365</ele>
        <time>2012-08-29T08:54:21Z</time>
      </trkpt>
      <trkpt lat="45.07067" lon="2.07078">
        <ele>364.5</ele>
        <time>2012-08-29T08:54:20Z</time>
      </trkpt>
      <trkpt lat="45.07068" lon="2.07074">
        <ele>365</ele>
        <time>2012-08-29T08:54:19Z</time>
      </trkpt>
      <trkpt lat="45.07069" lon="2.07069">
        <ele>364.5</ele>
        <time>2012-08-29T08:54:18Z</time>
      </trkpt>
      <trkpt lat="45.07068" lon="2.07064">
        <ele>364.5</ele>
        <time>2012-08-29T08:54:17Z</time>
      </trkpt>
      <trkpt lat="45.07064" lon="2.0706">
        <ele>364.5</ele>
        <time>2012-08-29T08:54:16Z</time>
      </trkpt>
      <trkpt lat="45.07062" lon="2.07056">
        <ele>365</ele>
        <time>2012-08-29T08:54:15Z</time>
      </trkpt>
      <trkpt lat="45.07057" lon="2.07053">
        <ele>364.5</ele>
        <time>2012-08-29T08:54:14Z</time>
      </trkpt>
      <trkpt lat="45.07053" lon="2.07051">
        <ele>364.5</ele>
        <time>2012-08-29T08:54:13Z</time>
      </trkpt>
      <trkpt lat="45.07048" lon="2.0705">
        <ele>364.5</ele>
        <time>2012-08-29T08:54:12Z</time>
      </trkpt>
      <trkpt lat="45.07043" lon="2.07048">
        <ele>364</ele>
        <time>2012-08-29T08:54:11Z</time>
      </trkpt>
      <trkpt lat="45.07017" lon="2.0703">
        <ele>360.6</ele>
        <time>2012-08-29T08:54:06Z</time>
      </trkpt>
      <trkpt lat="45.07011" lon="2.07025">
        <ele>360.6</ele>
        <time>2012-08-29T08:54:05Z</time>
      </trkpt>
      <trkpt lat="45.06991" lon="2.07001">
        <ele>358.7</ele>
        <time>2012-08-29T08:54:02Z</time>
      </trkpt>
      <trkpt lat="45.06979" lon="2.06986">
        <ele>355.8</ele>
        <time>2012-08-29T08:54:00Z</time>
      </trkpt>
      <trkpt lat="45.06974" lon="2.06977">
        <ele>355.8</ele>
        <time>2012-08-29T08:53:59Z</time>
      </trkpt>
      <trkpt lat="45.0696" lon="2.06952">
        <ele>353.4</ele>
        <time>2012-08-29T08:53:56Z</time>
      </trkpt>
      <trkpt lat="45.06957" lon="2.06943">
        <ele>352.9</ele>
        <time>2012-08-29T08:53:55Z</time>
      </trkpt>
      <trkpt lat="45.06947" lon="2.06919">
        <ele>350.1</ele>
        <time>2012-08-29T08:53:52Z</time>
      </trkpt>
      <trkpt lat="45.06941" lon="2.06906">
        <ele>348.6</ele>
        <time>2012-08-29T08:53:50Z</time>
      </trkpt>
      <trkpt lat="45.06937" lon="2.06902">
        <ele>347.6</ele>
        <time>2012-08-29T08:53:49Z</time>
      </trkpt>
      <trkpt lat="45.06932" lon="2.06897">
        <ele>347.6</ele>
        <time>2012-08-29T08:53:48Z</time>
      </trkpt>
      <trkpt lat="45.06925" lon="2.06895">
        <ele>346.7</ele>
        <time>2012-08-29T08:53:47Z</time>
      </trkpt>
      <trkpt lat="45.06918" lon="2.06894">
        <ele>347.2</ele>
        <time>2012-08-29T08:53:46Z</time>
      </trkpt>
      <trkpt lat="45.06911" lon="2.06894">
        <ele>346.2</ele>
        <time>2012-08-29T08:53:45Z</time>
      </trkpt>
      <trkpt lat="45.06904" lon="2.06894">
        <ele>346.7</ele>
        <time>2012-08-29T08:53:44Z</time>
      </trkpt>
      <trkpt lat="45.06898" lon="2.06895">
        <ele>345.2</ele>
        <time>2012-08-29T08:53:43Z</time>
      </trkpt>
      <trkpt lat="45.06893" lon="2.06897">
        <ele>344.8</ele>
        <time>2012-08-29T08:53:42Z</time>
      </trkpt>
      <trkpt lat="45.06889" lon="2.06898">
        <ele>344.3</ele>
        <time>2012-08-29T08:53:41Z</time>
      </trkpt>
      <trkpt lat="45.06886" lon="2.06898">
        <ele>344.8</ele>
        <time>2012-08-29T08:53:40Z</time>
      </trkpt>
      <trkpt lat="45.06883" lon="2.06896">
        <ele>343.3</ele>
        <time>2012-08-29T08:53:39Z</time>
      </trkpt>
      <trkpt lat="45.06881" lon="2.06894">
        <ele>343.8</ele>
        <time>2012-08-29T08:53:38Z</time>
      </trkpt>
      <trkpt lat="45.06879" lon="2.06891">
        <ele>342.4</ele>
        <time>2012-08-29T08:53:37Z</time>
      </trkpt>
      <trkpt lat="45.06878" lon="2.06889">
        <ele>343.3</ele>
        <time>2012-08-29T08:53:36Z</time>
      </trkpt>
      <trkpt lat="45.06877" lon="2.06887">
        <ele>342.9</ele>
        <time>2012-08-29T08:53:35Z</time>
      </trkpt>
      <trkpt lat="45.06877" lon="2.06885">
        <ele>343.3</ele>
        <time>2012-08-29T08:53:34Z</time>
      </trkpt>
      <trkpt lat="45.06877" lon="2.06883">
        <ele>342.9</ele>
        <time>2012-08-29T08:53:33Z</time>
      </trkpt>
      <trkpt lat="45.06877" lon="2.06881">
        <ele>342.9</ele>
        <time>2012-08-29T08:53:32Z</time>
      </trkpt>
      <trkpt lat="45.06885" lon="2.06874">
        <ele>342.9</ele>
        <time>2012-08-29T08:53:27Z</time>
      </trkpt>
      <trkpt lat="45.06906" lon="2.06871">
        <ele>342.4</ele>
        <time>2012-08-29T08:53:23Z</time>
      </trkpt>
      <trkpt lat="45.06912" lon="2.06868">
        <ele>341.4</ele>
        <time>2012-08-29T08:53:22Z</time>
      </trkpt>
      <trkpt lat="45.06923" lon="2.06864">
        <ele>340</ele>
        <time>2012-08-29T08:53:20Z</time>
      </trkpt>
      <trkpt lat="45.06939" lon="2.06861">
        <ele>337.1</ele>
        <time>2012-08-29T08:53:17Z</time>
      </trkpt>
      <trkpt lat="45.06956" lon="2.06863">
        <ele>334.2</ele>
        <time>2012-08-29T08:53:14Z</time>
      </trkpt>
      <trkpt lat="45.06973" lon="2.06868">
        <ele>331.3</ele>
        <time>2012-08-29T08:53:11Z</time>
      </trkpt>
      <trkpt lat="45.06982" lon="2.06873">
        <ele>330.4</ele>
        <time>2012-08-29T08:53:09Z</time>
      </trkpt>
      <trkpt lat="45.06988" lon="2.06878">
        <ele>330.8</ele>
        <time>2012-08-29T08:53:08Z</time>
      </trkpt>
      <trkpt lat="45.06993" lon="2.06882">
        <ele>329.4</ele>
        <time>2012-08-29T08:53:07Z</time>
      </trkpt>
      <trkpt lat="45.06997" lon="2.06887">
        <ele>329.9</ele>
        <time>2012-08-29T08:53:06Z</time>
      </trkpt>
      <trkpt lat="45.07" lon="2.06892">
        <ele>328.9</ele>
        <time>2012-08-29T08:53:05Z</time>
      </trkpt>
      <trkpt lat="45.07003" lon="2.06897">
        <ele>328.4</ele>
        <time>2012-08-29T08:53:04Z</time>
      </trkpt>
      <trkpt lat="45.07018" lon="2.06933">
        <ele>325.5</ele>
        <time>2012-08-29T08:52:58Z</time>
      </trkpt>
      <trkpt lat="45.07031" lon="2.06948">
        <ele>323.1</ele>
        <time>2012-08-29T08:52:53Z</time>
      </trkpt>
      <trkpt lat="45.07032" lon="2.06948">
        <ele>322.2</ele>
        <time>2012-08-29T08:52:52Z</time>
      </trkpt>
      <trkpt lat="45.07034" lon="2.06947">
        <ele>321.2</ele>
        <time>2012-08-29T08:52:51Z</time>
      </trkpt>
      <trkpt lat="45.07043" lon="2.06948">
        <ele>318.3</ele>
        <time>2012-08-29T08:52:48Z</time>
      </trkpt>
      <trkpt lat="45.0705" lon="2.06949">
        <ele>317.9</ele>
        <time>2012-08-29T08:52:47Z</time>
      </trkpt>
      <trkpt lat="45.07057" lon="2.06951">
        <ele>317.4</ele>
        <time>2012-08-29T08:52:46Z</time>
      </trkpt>
      <trkpt lat="45.07072" lon="2.06956">
        <ele>315.5</ele>
        <time>2012-08-29T08:52:44Z</time>
      </trkpt>
      <trkpt lat="45.0708" lon="2.06959">
        <ele>313.5</ele>
        <time>2012-08-29T08:52:43Z</time>
      </trkpt>
      <trkpt lat="45.07106" lon="2.06983">
        <ele>312.6</ele>
        <time>2012-08-29T08:52:39Z</time>
      </trkpt>
      <trkpt lat="45.07111" lon="2.0699">
        <ele>312.1</ele>
        <time>2012-08-29T08:52:38Z</time>
      </trkpt>
      <trkpt lat="45.07114" lon="2.06998">
        <ele>312.1</ele>
        <time>2012-08-29T08:52:37Z</time>
      </trkpt>
      <trkpt lat="45.07117" lon="2.07007">
        <ele>311.1</ele>
        <time>2012-08-29T08:52:36Z</time>
      </trkpt>
      <trkpt lat="45.07119" lon="2.07016">
        <ele>310.6</ele>
        <time>2012-08-29T08:52:35Z</time>
      </trkpt>
      <trkpt lat="45.07124" lon="2.07043">
        <ele>308.7</ele>
        <time>2012-08-29T08:52:32Z</time>
      </trkpt>
      <trkpt lat="45.07135" lon="2.07107">
        <ele>305.4</ele>
        <time>2012-08-29T08:52:26Z</time>
      </trkpt>
      <trkpt lat="45.07142" lon="2.07167">
        <ele>302.5</ele>
        <time>2012-08-29T08:52:21Z</time>
      </trkpt>
      <trkpt lat="45.07142" lon="2.07182">
        <ele>301.5</ele>
        <time>2012-08-29T08:52:20Z</time>
      </trkpt>
      <trkpt lat="45.07146" lon="2.07227">
        <ele>298.1</ele>
        <time>2012-08-29T08:52:15Z</time>
      </trkpt>
      <trkpt lat="45.07152" lon="2.07228">
        <ele>299.1</ele>
        <time>2012-08-29T08:52:14Z</time>
      </trkpt>
      <trkpt lat="45.07158" lon="2.07226">
        <ele>298.1</ele>
        <time>2012-08-29T08:52:13Z</time>
      </trkpt>
      <trkpt lat="45.07159" lon="2.07224">
        <ele>298.6</ele>
        <time>2012-08-29T08:52:12Z</time>
      </trkpt>
      <trkpt lat="45.07163" lon="2.07219">
        <ele>298.6</ele>
        <time>2012-08-29T08:52:11Z</time>
      </trkpt>
      <trkpt lat="45.07166" lon="2.07215">
        <ele>298.6</ele>
        <time>2012-08-29T08:52:10Z</time>
      </trkpt>
      <trkpt lat="45.07169" lon="2.07211">
        <ele>298.6</ele>
        <time>2012-08-29T08:52:09Z</time>
      </trkpt>
      <trkpt lat="45.07174" lon="2.07206">
        <ele>299.6</ele>
        <time>2012-08-29T08:52:08Z</time>
      </trkpt>
      <trkpt lat="45.07177" lon="2.07199">
        <ele>299.1</ele>
        <time>2012-08-29T08:52:07Z</time>
      </trkpt>
      <trkpt lat="45.07178" lon="2.07193">
        <ele>299.6</ele>
        <time>2012-08-29T08:52:06Z</time>
      </trkpt>
      <trkpt lat="45.07187" lon="2.07151">
        <ele>299.1</ele>
        <time>2012-08-29T08:52:01Z</time>
      </trkpt>
      <trkpt lat="45.07192" lon="2.07132">
        <ele>298.6</ele>
        <time>2012-08-29T08:51:59Z</time>
      </trkpt>
      <trkpt lat="45.07196" lon="2.07109">
        <ele>297.7</ele>
        <time>2012-08-29T08:51:57Z</time>
      </trkpt>
      <trkpt lat="45.072" lon="2.07088">
        <ele>296.7</ele>
        <time>2012-08-29T08:51:55Z</time>
      </trkpt>
      <trkpt lat="45.07212" lon="2.07061">
        <ele>293.3</ele>
        <time>2012-08-29T08:51:52Z</time>
      </trkpt>
      <trkpt lat="45.07214" lon="2.07057">
        <ele>293.3</ele>
        <time>2012-08-29T08:51:51Z</time>
      </trkpt>
      <trkpt lat="45.0723" lon="2.07019">
        <ele>290</ele>
        <time>2012-08-29T08:51:47Z</time>
      </trkpt>
      <trkpt lat="45.07235" lon="2.07011">
        <ele>289.5</ele>
        <time>2012-08-29T08:51:46Z</time>
      </trkpt>
      <trkpt lat="45.07251" lon="2.06983">
        <ele>285.6</ele>
        <time>2012-08-29T08:51:43Z</time>
      </trkpt>
      <trkpt lat="45.07258" lon="2.06968">
        <ele>284.2</ele>
        <time>2012-08-29T08:51:41Z</time>
      </trkpt>
      <trkpt lat="45.07262" lon="2.06957">
        <ele>284.2</ele>
        <time>2012-08-29T08:51:40Z</time>
      </trkpt>
      <trkpt lat="45.07264" lon="2.06949">
        <ele>284.2</ele>
        <time>2012-08-29T08:51:39Z</time>
      </trkpt>
      <trkpt lat="45.07263" lon="2.06942">
        <ele>284.2</ele>
        <time>2012-08-29T08:51:38Z</time>
      </trkpt>
      <trkpt lat="45.07262" lon="2.06925">
        <ele>282.8</ele>
        <time>2012-08-29T08:51:36Z</time>
      </trkpt>
      <trkpt lat="45.07261" lon="2.06919">
        <ele>282.3</ele>
        <time>2012-08-29T08:51:35Z</time>
      </trkpt>
      <trkpt lat="45.07257" lon="2.06913">
        <ele>281.8</ele>
        <time>2012-08-29T08:51:34Z</time>
      </trkpt>
      <trkpt lat="45.0725" lon="2.069">
        <ele>279.9</ele>
        <time>2012-08-29T08:51:32Z</time>
      </trkpt>
      <trkpt lat="45.07238" lon="2.06893">
        <ele>278.9</ele>
        <time>2012-08-29T08:51:31Z</time>
      </trkpt>
      <trkpt lat="45.07219" lon="2.0688">
        <ele>277.5</ele>
        <time>2012-08-29T08:51:29Z</time>
      </trkpt>
      <trkpt lat="45.0719" lon="2.06856">
        <ele>274.6</ele>
        <time>2012-08-29T08:51:25Z</time>
      </trkpt>
      <trkpt lat="45.07172" lon="2.0684">
        <ele>274.1</ele>
        <time>2012-08-29T08:51:18Z</time>
      </trkpt>
      <trkpt lat="45.07171" lon="2.06837">
        <ele>275.1</ele>
        <time>2012-08-29T08:51:05Z</time>
      </trkpt>
      <trkpt lat="45.07171" lon="2.06837">
        <ele>275.1</ele>
        <time>2012-08-29T08:50:47Z</time>
      </trkpt>
      <trkpt lat="45.07171" lon="2.06837">
        <ele>276</ele>
        <time>2012-08-29T08:50:39Z</time>
      </trkpt>
      <trkpt lat="45.0717" lon="2.06836">
        <ele>276</ele>
        <time>2012-08-29T08:50:25Z</time>
      </trkpt>
      <trkpt lat="45.0717" lon="2.06836">
        <ele>277</ele>
        <time>2012-08-29T08:50:11Z</time>
      </trkpt>
      <trkpt lat="45.07165" lon="2.06826">
        <ele>278</ele>
        <time>2012-08-29T08:50:04Z</time>
      </trkpt>
      <trkpt lat="45.07163" lon="2.06818">
        <ele>279.4</ele>
        <time>2012-08-29T08:49:57Z</time>
      </trkpt>
      <trkpt lat="45.07164" lon="2.06811">
        <ele>280.8</ele>
        <time>2012-08-29T08:49:52Z</time>
      </trkpt>
      <trkpt lat="45.07166" lon="2.06803">
        <ele>282.3</ele>
        <time>2012-08-29T08:49:46Z</time>
      </trkpt>
      <trkpt lat="45.0717" lon="2.06791">
        <ele>283.7</ele>
        <time>2012-08-29T08:49:40Z</time>
      </trkpt>
      <trkpt lat="45.07175" lon="2.06778">
        <ele>285.6</ele>
        <time>2012-08-29T08:49:32Z</time>
      </trkpt>
      <trkpt lat="45.0718" lon="2.06769">
        <ele>287.6</ele>
        <time>2012-08-29T08:49:24Z</time>
      </trkpt>
      <trkpt lat="45.07188" lon="2.06751">
        <ele>290</ele>
        <time>2012-08-29T08:49:14Z</time>
      </trkpt>
      <trkpt lat="45.07192" lon="2.06743">
        <ele>291.4</ele>
        <time>2012-08-29T08:49:07Z</time>
      </trkpt>
      <trkpt lat="45.07197" lon="2.06737">
        <ele>293.3</ele>
        <time>2012-08-29T08:49:00Z</time>
      </trkpt>
      <trkpt lat="45.07198" lon="2.06736">
        <ele>293.8</ele>
        <time>2012-08-29T08:48:59Z</time>
      </trkpt>
      <trkpt lat="45.07202" lon="2.06729">
        <ele>295.3</ele>
        <time>2012-08-29T08:48:51Z</time>
      </trkpt>
      <trkpt lat="45.07205" lon="2.06718">
        <ele>297.2</ele>
        <time>2012-08-29T08:48:43Z</time>
      </trkpt>
      <trkpt lat="45.07206" lon="2.06709">
        <ele>298.6</ele>
        <time>2012-08-29T08:48:35Z</time>
      </trkpt>
      <trkpt lat="45.07208" lon="2.06705">
        <ele>299.1</ele>
        <time>2012-08-29T08:48:29Z</time>
      </trkpt>
      <trkpt lat="45.0721" lon="2.06697">
        <ele>300.1</ele>
        <time>2012-08-29T08:48:24Z</time>
      </trkpt>
      <trkpt lat="45.07212" lon="2.06688">
        <ele>301</ele>
        <time>2012-08-29T08:48:18Z</time>
      </trkpt>
      <trkpt lat="45.07215" lon="2.06679">
        <ele>303</ele>
        <time>2012-08-29T08:48:11Z</time>
      </trkpt>
      <trkpt lat="45.07215" lon="2.06673">
        <ele>303.9</ele>
        <time>2012-08-29T08:48:04Z</time>
      </trkpt>
      <trkpt lat="45.07215" lon="2.06664">
        <ele>305.4</ele>
        <time>2012-08-29T08:47:57Z</time>
      </trkpt>
      <trkpt lat="45.07217" lon="2.06666">
        <ele>306.3</ele>
        <time>2012-08-29T08:47:51Z</time>
      </trkpt>
      <trkpt lat="45.0722" lon="2.0667">
        <ele>307.8</ele>
        <time>2012-08-29T08:47:43Z</time>
      </trkpt>
      <trkpt lat="45.07223" lon="2.06678">
        <ele>308.2</ele>
        <time>2012-08-29T08:47:35Z</time>
      </trkpt>
      <trkpt lat="45.07226" lon="2.06693">
        <ele>309.7</ele>
        <time>2012-08-29T08:47:27Z</time>
      </trkpt>
      <trkpt lat="45.07226" lon="2.06698">
        <ele>310.2</ele>
        <time>2012-08-29T08:47:21Z</time>
      </trkpt>
      <trkpt lat="45.07226" lon="2.06709">
        <ele>311.1</ele>
        <time>2012-08-29T08:47:14Z</time>
      </trkpt>
      <trkpt lat="45.0723" lon="2.06728">
        <ele>312.1</ele>
        <time>2012-08-29T08:47:05Z</time>
      </trkpt>
      <trkpt lat="45.07231" lon="2.06736">
        <ele>314</ele>
        <time>2012-08-29T08:46:58Z</time>
      </trkpt>
      <trkpt lat="45.07233" lon="2.06743">
        <ele>315.9</ele>
        <time>2012-08-29T08:46:49Z</time>
      </trkpt>
      <trkpt lat="45.07238" lon="2.06751">
        <ele>316.4</ele>
        <time>2012-08-29T08:46:43Z</time>
      </trkpt>
      <trkpt lat="45.0724" lon="2.06764">
        <ele>317.9</ele>
        <time>2012-08-29T08:46:34Z</time>
      </trkpt>
      <trkpt lat="45.07246" lon="2.06772">
        <ele>319.3</ele>
        <time>2012-08-29T08:46:25Z</time>
      </trkpt>
      <trkpt lat="45.07247" lon="2.06773">
        <ele>320.3</ele>
        <time>2012-08-29T08:46:20Z</time>
      </trkpt>
      <trkpt lat="45.07251" lon="2.06772">
        <ele>321.7</ele>
        <time>2012-08-29T08:46:14Z</time>
      </trkpt>
      <trkpt lat="45.07248" lon="2.06769">
        <ele>323.1</ele>
        <time>2012-08-29T08:46:08Z</time>
      </trkpt>
      <trkpt lat="45.07248" lon="2.06763">
        <ele>324.1</ele>
        <time>2012-08-29T08:46:01Z</time>
      </trkpt>
      <trkpt lat="45.07248" lon="2.06756">
        <ele>325.5</ele>
        <time>2012-08-29T08:45:53Z</time>
      </trkpt>
      <trkpt lat="45.0725" lon="2.06748">
        <ele>327</ele>
        <time>2012-08-29T08:45:48Z</time>
      </trkpt>
      <trkpt lat="45.07251" lon="2.06746">
        <ele>327.5</ele>
        <time>2012-08-29T08:45:47Z</time>
      </trkpt>
      <trkpt lat="45.07252" lon="2.06742">
        <ele>327.5</ele>
        <time>2012-08-29T08:45:42Z</time>
      </trkpt>
      <trkpt lat="45.07252" lon="2.06737">
        <ele>328.4</ele>
        <time>2012-08-29T08:45:39Z</time>
      </trkpt>
      <trkpt lat="45.07252" lon="2.06734">
        <ele>328</ele>
        <time>2012-08-29T08:45:38Z</time>
      </trkpt>
      <trkpt lat="45.07253" lon="2.0673">
        <ele>329.4</ele>
        <time>2012-08-29T08:45:34Z</time>
      </trkpt>
      <trkpt lat="45.07253" lon="2.06725">
        <ele>331.3</ele>
        <time>2012-08-29T08:45:27Z</time>
      </trkpt>
      <trkpt lat="45.07255" lon="2.0672">
        <ele>332.3</ele>
        <time>2012-08-29T08:45:21Z</time>
      </trkpt>
      <trkpt lat="45.07258" lon="2.06713">
        <ele>333.2</ele>
        <time>2012-08-29T08:45:14Z</time>
      </trkpt>
      <trkpt lat="45.07261" lon="2.06706">
        <ele>334.7</ele>
        <time>2012-08-29T08:45:09Z</time>
      </trkpt>
      <trkpt lat="45.07262" lon="2.06703">
        <ele>335.6</ele>
        <time>2012-08-29T08:45:04Z</time>
      </trkpt>
      <trkpt lat="45.07266" lon="2.06698">
        <ele>336.6</ele>
        <time>2012-08-29T08:44:59Z</time>
      </trkpt>
      <trkpt lat="45.07268" lon="2.0669">
        <ele>337.1</ele>
        <time>2012-08-29T08:44:55Z</time>
      </trkpt>
      <trkpt lat="45.07269" lon="2.06686">
        <ele>338.5</ele>
        <time>2012-08-29T08:44:48Z</time>
      </trkpt>
      <trkpt lat="45.0727" lon="2.06692">
        <ele>339.5</ele>
        <time>2012-08-29T08:44:41Z</time>
      </trkpt>
      <trkpt lat="45.07271" lon="2.06696">
        <ele>339.5</ele>
        <time>2012-08-29T08:44:34Z</time>
      </trkpt>
      <trkpt lat="45.07272" lon="2.067">
        <ele>340</ele>
        <time>2012-08-29T08:44:32Z</time>
      </trkpt>
      <trkpt lat="45.07274" lon="2.06709">
        <ele>340.9</ele>
        <time>2012-08-29T08:44:25Z</time>
      </trkpt>
      <trkpt lat="45.07281" lon="2.06718">
        <ele>341.4</ele>
        <time>2012-08-29T08:44:20Z</time>
      </trkpt>
      <trkpt lat="45.07286" lon="2.06723">
        <ele>342.4</ele>
        <time>2012-08-29T08:44:13Z</time>
      </trkpt>
      <trkpt lat="45.07294" lon="2.06729">
        <ele>343.8</ele>
        <time>2012-08-29T08:44:04Z</time>
      </trkpt>
      <trkpt lat="45.07296" lon="2.06727">
        <ele>345.2</ele>
        <time>2012-08-29T08:43:57Z</time>
      </trkpt>
      <trkpt lat="45.07296" lon="2.06724">
        <ele>345.2</ele>
        <time>2012-08-29T08:43:53Z</time>
      </trkpt>
      <trkpt lat="45.07295" lon="2.06713">
        <ele>346.7</ele>
        <time>2012-08-29T08:43:44Z</time>
      </trkpt>
      <trkpt lat="45.07294" lon="2.06708">
        <ele>347.6</ele>
        <time>2012-08-29T08:43:39Z</time>
      </trkpt>
      <trkpt lat="45.07293" lon="2.06699">
        <ele>349.1</ele>
        <time>2012-08-29T08:43:31Z</time>
      </trkpt>
      <trkpt lat="45.07291" lon="2.0669">
        <ele>350.5</ele>
        <time>2012-08-29T08:43:25Z</time>
      </trkpt>
      <trkpt lat="45.0729" lon="2.06683">
        <ele>351</ele>
        <time>2012-08-29T08:43:19Z</time>
      </trkpt>
      <trkpt lat="45.07289" lon="2.06676">
        <ele>352</ele>
        <time>2012-08-29T08:43:12Z</time>
      </trkpt>
      <trkpt lat="45.0729" lon="2.06676">
        <ele>352.9</ele>
        <time>2012-08-29T08:43:10Z</time>
      </trkpt>
      <trkpt lat="45.07293" lon="2.06679">
        <ele>353.9</ele>
        <time>2012-08-29T08:43:05Z</time>
      </trkpt>
      <trkpt lat="45.07294" lon="2.0668">
        <ele>354.4</ele>
        <time>2012-08-29T08:43:03Z</time>
      </trkpt>
      <trkpt lat="45.07298" lon="2.06684">
        <ele>354.9</ele>
        <time>2012-08-29T08:42:57Z</time>
      </trkpt>
      <trkpt lat="45.07298" lon="2.06685">
        <ele>355.3</ele>
        <time>2012-08-29T08:42:55Z</time>
      </trkpt>
      <trkpt lat="45.07305" lon="2.06689">
        <ele>355.8</ele>
        <time>2012-08-29T08:42:48Z</time>
      </trkpt>
      <trkpt lat="45.0731" lon="2.06692">
        <ele>357.8</ele>
        <time>2012-08-29T08:42:42Z</time>
      </trkpt>
      <trkpt lat="45.07314" lon="2.06696">
        <ele>359.2</ele>
        <time>2012-08-29T08:42:34Z</time>
      </trkpt>
      <trkpt lat="45.07315" lon="2.06696">
        <ele>355.8</ele>
        <time>2012-08-29T08:42:33Z</time>
      </trkpt>
      <trkpt lat="45.07315" lon="2.06696">
        <ele>359.2</ele>
        <time>2012-08-29T08:42:32Z</time>
      </trkpt>
      <trkpt lat="45.07319" lon="2.06698">
        <ele>359.2</ele>
        <time>2012-08-29T08:42:27Z</time>
      </trkpt>
      <trkpt lat="45.07324" lon="2.06698">
        <ele>360.6</ele>
        <time>2012-08-29T08:42:21Z</time>
      </trkpt>
      <trkpt lat="45.07329" lon="2.06701">
        <ele>362.5</ele>
        <time>2012-08-29T08:42:15Z</time>
      </trkpt>
      <trkpt lat="45.07333" lon="2.06704">
        <ele>363.5</ele>
        <time>2012-08-29T08:42:11Z</time>
      </trkpt>
      <trkpt lat="45.07335" lon="2.06703">
        <ele>364</ele>
        <time>2012-08-29T08:42:09Z</time>
      </trkpt>
      <trkpt lat="45.07339" lon="2.06706">
        <ele>364.5</ele>
        <time>2012-08-29T08:42:02Z</time>
      </trkpt>
      <trkpt lat="45.07344" lon="2.06709">
        <ele>365.9</ele>
        <time>2012-08-29T08:41:58Z</time>
      </trkpt>
      <trkpt lat="45.07348" lon="2.0671">
        <ele>366.9</ele>
        <time>2012-08-29T08:41:53Z</time>
      </trkpt>
      <trkpt lat="45.07353" lon="2.06704">
        <ele>367.4</ele>
        <time>2012-08-29T08:41:47Z</time>
      </trkpt>
      <trkpt lat="45.07353" lon="2.06704">
        <ele>367.4</ele>
        <time>2012-08-29T08:41:45Z</time>
      </trkpt>
      <trkpt lat="45.07352" lon="2.06696">
        <ele>368.8</ele>
        <time>2012-08-29T08:41:38Z</time>
      </trkpt>
      <trkpt lat="45.07352" lon="2.06693">
        <ele>368.8</ele>
        <time>2012-08-29T08:41:33Z</time>
      </trkpt>
      <trkpt lat="45.07346" lon="2.06688">
        <ele>370.2</ele>
        <time>2012-08-29T08:41:27Z</time>
      </trkpt>
      <trkpt lat="45.07341" lon="2.0668">
        <ele>370.7</ele>
        <time>2012-08-29T08:41:21Z</time>
      </trkpt>
      <trkpt lat="45.07339" lon="2.06675">
        <ele>371.2</ele>
        <time>2012-08-29T08:41:17Z</time>
      </trkpt>
      <trkpt lat="45.07331" lon="2.06667">
        <ele>373.1</ele>
        <time>2012-08-29T08:41:08Z</time>
      </trkpt>
      <trkpt lat="45.07328" lon="2.06668">
        <ele>373.6</ele>
        <time>2012-08-29T08:40:57Z</time>
      </trkpt>
      <trkpt lat="45.07325" lon="2.06662">
        <ele>374.6</ele>
        <time>2012-08-29T08:40:50Z</time>
      </trkpt>
      <trkpt lat="45.07321" lon="2.06655">
        <ele>375.5</ele>
        <time>2012-08-29T08:40:42Z</time>
      </trkpt>
      <trkpt lat="45.0732" lon="2.06646">
        <ele>376.5</ele>
        <time>2012-08-29T08:40:35Z</time>
      </trkpt>
      <trkpt lat="45.07321" lon="2.06638">
        <ele>377.5</ele>
        <time>2012-08-29T08:40:28Z</time>
      </trkpt>
      <trkpt lat="45.07322" lon="2.06633">
        <ele>377.9</ele>
        <time>2012-08-29T08:40:24Z</time>
      </trkpt>
      <trkpt lat="45.07327" lon="2.0663">
        <ele>378.9</ele>
        <time>2012-08-29T08:40:17Z</time>
      </trkpt>
      <trkpt lat="45.07328" lon="2.06626">
        <ele>380.3</ele>
        <time>2012-08-29T08:40:10Z</time>
      </trkpt>
      <trkpt lat="45.07334" lon="2.06628">
        <ele>380.8</ele>
        <time>2012-08-29T08:40:04Z</time>
      </trkpt>
      <trkpt lat="45.0734" lon="2.06629">
        <ele>383.7</ele>
        <time>2012-08-29T08:39:57Z</time>
      </trkpt>
      <trkpt lat="45.07341" lon="2.0663">
        <ele>383.2</ele>
        <time>2012-08-29T08:39:56Z</time>
      </trkpt>
      <trkpt lat="45.07346" lon="2.06631">
        <ele>383.7</ele>
        <time>2012-08-29T08:39:50Z</time>
      </trkpt>
      <trkpt lat="45.07351" lon="2.06633">
        <ele>384.7</ele>
        <time>2012-08-29T08:39:44Z</time>
      </trkpt>
      <trkpt lat="45.07354" lon="2.06632">
        <ele>385.6</ele>
        <time>2012-08-29T08:39:39Z</time>
      </trkpt>
      <trkpt lat="45.07358" lon="2.06628">
        <ele>386.1</ele>
        <time>2012-08-29T08:39:33Z</time>
      </trkpt>
      <trkpt lat="45.07364" lon="2.06619">
        <ele>387.5</ele>
        <time>2012-08-29T08:39:26Z</time>
      </trkpt>
      <trkpt lat="45.07365" lon="2.06614">
        <ele>389</ele>
        <time>2012-08-29T08:39:20Z</time>
      </trkpt>
      <trkpt lat="45.07366" lon="2.06612">
        <ele>390</ele>
        <time>2012-08-29T08:39:09Z</time>
      </trkpt>
      <trkpt lat="45.07368" lon="2.06609">
        <ele>389.5</ele>
        <time>2012-08-29T08:39:00Z</time>
      </trkpt>
      <trkpt lat="45.07368" lon="2.0661">
        <ele>389.5</ele>
        <time>2012-08-29T08:38:59Z</time>
      </trkpt>
      <trkpt lat="45.07367" lon="2.06615">
        <ele>387.5</ele>
        <time>2012-08-29T08:38:52Z</time>
      </trkpt>
      <trkpt lat="45.07366" lon="2.06617">
        <ele>387.5</ele>
        <time>2012-08-29T08:38:43Z</time>
      </trkpt>
      <trkpt lat="45.07367" lon="2.06618">
        <ele>387.1</ele>
        <time>2012-08-29T08:38:31Z</time>
      </trkpt>
      <trkpt lat="45.07367" lon="2.06617">
        <ele>387.5</ele>
        <time>2012-08-29T08:38:19Z</time>
      </trkpt>
      <trkpt lat="45.07367" lon="2.06617">
        <ele>387.5</ele>
        <time>2012-08-29T08:38:08Z</time>
      </trkpt>
      <trkpt lat="45.07367" lon="2.06617">
        <ele>387.5</ele>
        <time>2012-08-29T08:37:54Z</time>
      </trkpt>
      <trkpt lat="45.07367" lon="2.06616">
        <ele>388</ele>
        <time>2012-08-29T08:37:43Z</time>
      </trkpt>
      <trkpt lat="45.07367" lon="2.06615">
        <ele>388.5</ele>
        <time>2012-08-29T08:37:34Z</time>
      </trkpt>
      <trkpt lat="45.07365" lon="2.06617">
        <ele>389</ele>
        <time>2012-08-29T08:37:26Z</time>
      </trkpt>
      <trkpt lat="45.07366" lon="2.06618">
        <ele>387.5</ele>
        <time>2012-08-29T08:37:17Z</time>
      </trkpt>
      <trkpt lat="45.07367" lon="2.06625">
        <ele>386.6</ele>
        <time>2012-08-29T08:37:10Z</time>
      </trkpt>
      <trkpt lat="45.07365" lon="2.06627">
        <ele>386.1</ele>
        <time>2012-08-29T08:37:08Z</time>
      </trkpt>
      <trkpt lat="45.07357" lon="2.06633">
        <ele>384.2</ele>
        <time>2012-08-29T08:36:59Z</time>
      </trkpt>
      <trkpt lat="45.07351" lon="2.06634">
        <ele>382.7</ele>
        <time>2012-08-29T08:36:52Z</time>
      </trkpt>
      <trkpt lat="45.07346" lon="2.06631">
        <ele>381.3</ele>
        <time>2012-08-29T08:36:45Z</time>
      </trkpt>
      <trkpt lat="45.0734" lon="2.06627">
        <ele>379.9</ele>
        <time>2012-08-29T08:36:38Z</time>
      </trkpt>
      <trkpt lat="45.07334" lon="2.06624">
        <ele>378.4</ele>
        <time>2012-08-29T08:36:29Z</time>
      </trkpt>
      <trkpt lat="45.07327" lon="2.06627">
        <ele>376.5</ele>
        <time>2012-08-29T08:36:21Z</time>
      </trkpt>
      <trkpt lat="45.07326" lon="2.06628">
        <ele>376.5</ele>
        <time>2012-08-29T08:36:19Z</time>
      </trkpt>
      <trkpt lat="45.07323" lon="2.0664">
        <ele>375</ele>
        <time>2012-08-29T08:36:11Z</time>
      </trkpt>
      <trkpt lat="45.07324" lon="2.06647">
        <ele>373.1</ele>
        <time>2012-08-29T08:36:03Z</time>
      </trkpt>
      <trkpt lat="45.07325" lon="2.06649">
        <ele>371.2</ele>
        <time>2012-08-29T08:35:53Z</time>
      </trkpt>
      <trkpt lat="45.07329" lon="2.06656">
        <ele>370.2</ele>
        <time>2012-08-29T08:35:46Z</time>
      </trkpt>
      <trkpt lat="45.0733" lon="2.06658">
        <ele>370.2</ele>
        <time>2012-08-29T08:35:45Z</time>
      </trkpt>
      <trkpt lat="45.0734" lon="2.06669">
        <ele>368.8</ele>
        <time>2012-08-29T08:35:38Z</time>
      </trkpt>
      <trkpt lat="45.07344" lon="2.06679">
        <ele>366.9</ele>
        <time>2012-08-29T08:35:30Z</time>
      </trkpt>
      <trkpt lat="45.0735" lon="2.06686">
        <ele>364.5</ele>
        <time>2012-08-29T08:35:20Z</time>
      </trkpt>
      <trkpt lat="45.07353" lon="2.06695">
        <ele>366.4</ele>
        <time>2012-08-29T08:35:10Z</time>
      </trkpt>
      <trkpt lat="45.07356" lon="2.06697">
        <ele>365.4</ele>
        <time>2012-08-29T08:35:02Z</time>
      </trkpt>
      <trkpt lat="45.07357" lon="2.06697">
        <ele>365.4</ele>
        <time>2012-08-29T08:34:53Z</time>
      </trkpt>
      <trkpt lat="45.07356" lon="2.06701">
        <ele>365</ele>
        <time>2012-08-29T08:34:46Z</time>
      </trkpt>
      <trkpt lat="45.07356" lon="2.06703">
        <ele>368.8</ele>
        <time>2012-08-29T08:34:38Z</time>
      </trkpt>
      <trkpt lat="45.07356" lon="2.06703">
        <ele>365.4</ele>
        <time>2012-08-29T08:34:37Z</time>
      </trkpt>
      <trkpt lat="45.07356" lon="2.06703">
        <ele>363.5</ele>
        <time>2012-08-29T08:34:32Z</time>
      </trkpt>
      <trkpt lat="45.07356" lon="2.06703">
        <ele>366.9</ele>
        <time>2012-08-29T08:34:31Z</time>
      </trkpt>
      <trkpt lat="45.07356" lon="2.06703">
        <ele>366.4</ele>
        <time>2012-08-29T08:34:30Z</time>
      </trkpt>
      <trkpt lat="45.07356" lon="2.06703">
        <ele>362.1</ele>
        <time>2012-08-29T08:34:27Z</time>
      </trkpt>
      <trkpt lat="45.07356" lon="2.06703">
        <ele>367.4</ele>
        <time>2012-08-29T08:34:26Z</time>
      </trkpt>
      <trkpt lat="45.07356" lon="2.06703">
        <ele>363.5</ele>
        <time>2012-08-29T08:34:19Z</time>
      </trkpt>
      <trkpt lat="45.07356" lon="2.06703">
        <ele>366.9</ele>
        <time>2012-08-29T08:34:18Z</time>
      </trkpt>
      <trkpt lat="45.07356" lon="2.06702">
        <ele>365.4</ele>
        <time>2012-08-29T08:34:09Z</time>
      </trkpt>
      <trkpt lat="45.07356" lon="2.06702">
        <ele>365</ele>
        <time>2012-08-29T08:33:53Z</time>
      </trkpt>
      <trkpt lat="45.07354" lon="2.06703">
        <ele>365.4</ele>
        <time>2012-08-29T08:33:44Z</time>
      </trkpt>
      <trkpt lat="45.07354" lon="2.06703">
        <ele>365.9</ele>
        <time>2012-08-29T08:33:34Z</time>
      </trkpt>
      <trkpt lat="45.07354" lon="2.06703">
        <ele>369.3</ele>
        <time>2012-08-29T08:33:29Z</time>
      </trkpt>
      <trkpt lat="45.07354" lon="2.06703">
        <ele>366.4</ele>
        <time>2012-08-29T08:33:27Z</time>
      </trkpt>
      <trkpt lat="45.07354" lon="2.06703">
        <ele>366.9</ele>
        <time>2012-08-29T08:33:13Z</time>
      </trkpt>
      <trkpt lat="45.07354" lon="2.06703">
        <ele>372.2</ele>
        <time>2012-08-29T08:33:10Z</time>
      </trkpt>
      <trkpt lat="45.07354" lon="2.06703">
        <ele>366.4</ele>
        <time>2012-08-29T08:33:09Z</time>
      </trkpt>
      <trkpt lat="45.07354" lon="2.06703">
        <ele>365.9</ele>
        <time>2012-08-29T08:33:07Z</time>
      </trkpt>
      <trkpt lat="45.07357" lon="2.06704">
        <ele>366.4</ele>
        <time>2012-08-29T08:33:04Z</time>
      </trkpt>
      <trkpt lat="45.07362" lon="2.06707">
        <ele>367.4</ele>
        <time>2012-08-29T08:32:59Z</time>
      </trkpt>
      <trkpt lat="45.07356" lon="2.06707">
        <ele>365.9</ele>
        <time>2012-08-29T08:32:52Z</time>
      </trkpt>
      <trkpt lat="45.07354" lon="2.06706">
        <ele>365.9</ele>
        <time>2012-08-29T08:32:45Z</time>
      </trkpt>
      <trkpt lat="45.07354" lon="2.06706">
        <ele>361.1</ele>
        <time>2012-08-29T08:32:41Z</time>
      </trkpt>
      <trkpt lat="45.07354" lon="2.06706">
        <ele>368.8</ele>
        <time>2012-08-29T08:32:40Z</time>
      </trkpt>
      <trkpt lat="45.07354" lon="2.06706">
        <ele>364</ele>
        <time>2012-08-29T08:32:37Z</time>
      </trkpt>
      <trkpt lat="45.07354" lon="2.06706">
        <ele>367.8</ele>
        <time>2012-08-29T08:32:36Z</time>
      </trkpt>
      <trkpt lat="45.07354" lon="2.06706">
        <ele>364</ele>
        <time>2012-08-29T08:32:27Z</time>
      </trkpt>
      <trkpt lat="45.07354" lon="2.06706">
        <ele>367.8</ele>
        <time>2012-08-29T08:32:24Z</time>
      </trkpt>
      <trkpt lat="45.07354" lon="2.06706">
        <ele>365.9</ele>
        <time>2012-08-29T08:32:12Z</time>
      </trkpt>
      <trkpt lat="45.07354" lon="2.06706">
        <ele>366.4</ele>
        <time>2012-08-29T08:32:04Z</time>
      </trkpt>
      <trkpt lat="45.07355" lon="2.06705">
        <ele>366.9</ele>
        <time>2012-08-29T08:31:57Z</time>
      </trkpt>
      <trkpt lat="45.07355" lon="2.06706">
        <ele>366.9</ele>
        <time>2012-08-29T08:31:48Z</time>
      </trkpt>
      <trkpt lat="45.07355" lon="2.06707">
        <ele>366.4</ele>
        <time>2012-08-29T08:31:39Z</time>
      </trkpt>
      <trkpt lat="45.07356" lon="2.06705">
        <ele>366.4</ele>
        <time>2012-08-29T08:31:26Z</time>
      </trkpt>
      <trkpt lat="45.07357" lon="2.06705">
        <ele>366.9</ele>
        <time>2012-08-29T08:31:25Z</time>
      </trkpt>
      <trkpt lat="45.07374" lon="2.06704">
        <ele>369.3</ele>
        <time>2012-08-29T08:31:17Z</time>
      </trkpt>
      <trkpt lat="45.07394" lon="2.06707">
        <ele>372.2</ele>
        <time>2012-08-29T08:31:09Z</time>
      </trkpt>
      <trkpt lat="45.07416" lon="2.06707">
        <ele>375.5</ele>
        <time>2012-08-29T08:31:01Z</time>
      </trkpt>
      <trkpt lat="45.07423" lon="2.06706">
        <ele>377</ele>
        <time>2012-08-29T08:30:58Z</time>
      </trkpt>
      <trkpt lat="45.07438" lon="2.06715">
        <ele>378.9</ele>
        <time>2012-08-29T08:30:51Z</time>
      </trkpt>
      <trkpt lat="45.07441" lon="2.06721">
        <ele>379.9</ele>
        <time>2012-08-29T08:30:49Z</time>
      </trkpt>
      <trkpt lat="45.07443" lon="2.06742">
        <ele>381.8</ele>
        <time>2012-08-29T08:30:44Z</time>
      </trkpt>
      <trkpt lat="45.07446" lon="2.06787">
        <ele>384.2</ele>
        <time>2012-08-29T08:30:36Z</time>
      </trkpt>
      <trkpt lat="45.07454" lon="2.06796">
        <ele>385.1</ele>
        <time>2012-08-29T08:30:32Z</time>
      </trkpt>
      <trkpt lat="45.07473" lon="2.06798">
        <ele>388.5</ele>
        <time>2012-08-29T08:30:26Z</time>
      </trkpt>
      <trkpt lat="45.07476" lon="2.06797">
        <ele>388.5</ele>
        <time>2012-08-29T08:30:25Z</time>
      </trkpt>
      <trkpt lat="45.07491" lon="2.06795">
        <ele>391.9</ele>
        <time>2012-08-29T08:30:20Z</time>
      </trkpt>
      <trkpt lat="45.07504" lon="2.06808">
        <ele>393.8</ele>
        <time>2012-08-29T08:30:14Z</time>
      </trkpt>
      <trkpt lat="45.07514" lon="2.06818">
        <ele>396.7</ele>
        <time>2012-08-29T08:30:10Z</time>
      </trkpt>
      <trkpt lat="45.0753" lon="2.06831">
        <ele>399.1</ele>
        <time>2012-08-29T08:30:05Z</time>
      </trkpt>
      <trkpt lat="45.0755" lon="2.06844">
        <ele>402</ele>
        <time>2012-08-29T08:29:59Z</time>
      </trkpt>
      <trkpt lat="45.07569" lon="2.06858">
        <ele>404.9</ele>
        <time>2012-08-29T08:29:52Z</time>
      </trkpt>
      <trkpt lat="45.07583" lon="2.06869">
        <ele>407.3</ele>
        <time>2012-08-29T08:29:47Z</time>
      </trkpt>
      <trkpt lat="45.07585" lon="2.06871">
        <ele>407.7</ele>
        <time>2012-08-29T08:29:46Z</time>
      </trkpt>
      <trkpt lat="45.07594" lon="2.0687">
        <ele>408.7</ele>
        <time>2012-08-29T08:29:39Z</time>
      </trkpt>
      <trkpt lat="45.07594" lon="2.0687">
        <ele>409.7</ele>
        <time>2012-08-29T08:29:27Z</time>
      </trkpt>
      <trkpt lat="45.07594" lon="2.06866">
        <ele>408.2</ele>
        <time>2012-08-29T08:29:18Z</time>
      </trkpt>
      <trkpt lat="45.0759" lon="2.06862">
        <ele>408.7</ele>
        <time>2012-08-29T08:29:15Z</time>
      </trkpt>
      <trkpt lat="45.07572" lon="2.06836">
        <ele>409.7</ele>
        <time>2012-08-29T08:29:06Z</time>
      </trkpt>
      <trkpt lat="45.0755" lon="2.06799">
        <ele>410.6</ele>
        <time>2012-08-29T08:28:58Z</time>
      </trkpt>
      <trkpt lat="45.07549" lon="2.0677">
        <ele>413.5</ele>
        <time>2012-08-29T08:28:52Z</time>
      </trkpt>
      <trkpt lat="45.07542" lon="2.0674">
        <ele>416.4</ele>
        <time>2012-08-29T08:28:45Z</time>
      </trkpt>
      <trkpt lat="45.07523" lon="2.06714">
        <ele>417.8</ele>
        <time>2012-08-29T08:28:38Z</time>
      </trkpt>
      <trkpt lat="45.0752" lon="2.06688">
        <ele>420.2</ele>
        <time>2012-08-29T08:28:34Z</time>
      </trkpt>
      <trkpt lat="45.07528" lon="2.06649">
        <ele>422.2</ele>
        <time>2012-08-29T08:28:28Z</time>
      </trkpt>
      <trkpt lat="45.07534" lon="2.06637">
        <ele>423.6</ele>
        <time>2012-08-29T08:28:26Z</time>
      </trkpt>
      <trkpt lat="45.07538" lon="2.06616">
        <ele>424.1</ele>
        <time>2012-08-29T08:28:22Z</time>
      </trkpt>
      <trkpt lat="45.07535" lon="2.06612">
        <ele>424.1</ele>
        <time>2012-08-29T08:28:21Z</time>
      </trkpt>
      <trkpt lat="45.07533" lon="2.06609">
        <ele>424.1</ele>
        <time>2012-08-29T08:28:20Z</time>
      </trkpt>
      <trkpt lat="45.07529" lon="2.06607">
        <ele>424.1</ele>
        <time>2012-08-29T08:28:19Z</time>
      </trkpt>
      <trkpt lat="45.07526" lon="2.06606">
        <ele>423.6</ele>
        <time>2012-08-29T08:28:18Z</time>
      </trkpt>
      <trkpt lat="45.07521" lon="2.06605">
        <ele>423.6</ele>
        <time>2012-08-29T08:28:17Z</time>
      </trkpt>
      <trkpt lat="45.0751" lon="2.06606">
        <ele>423.1</ele>
        <time>2012-08-29T08:28:15Z</time>
      </trkpt>
      <trkpt lat="45.07489" lon="2.06597">
        <ele>424.6</ele>
        <time>2012-08-29T08:28:10Z</time>
      </trkpt>
      <trkpt lat="45.07485" lon="2.06575">
        <ele>427</ele>
        <time>2012-08-29T08:28:06Z</time>
      </trkpt>
      <trkpt lat="45.0749" lon="2.06534">
        <ele>429.9</ele>
        <time>2012-08-29T08:27:59Z</time>
      </trkpt>
      <trkpt lat="45.07484" lon="2.0649">
        <ele>433.7</ele>
        <time>2012-08-29T08:27:51Z</time>
      </trkpt>
      <trkpt lat="45.07482" lon="2.06485">
        <ele>433.7</ele>
        <time>2012-08-29T08:27:50Z</time>
      </trkpt>
      <trkpt lat="45.07479" lon="2.06481">
        <ele>433.7</ele>
        <time>2012-08-29T08:27:49Z</time>
      </trkpt>
      <trkpt lat="45.07474" lon="2.06476">
        <ele>434.2</ele>
        <time>2012-08-29T08:27:48Z</time>
      </trkpt>
      <trkpt lat="45.07468" lon="2.0647">
        <ele>434.2</ele>
        <time>2012-08-29T08:27:47Z</time>
      </trkpt>
      <trkpt lat="45.07464" lon="2.06464">
        <ele>434.6</ele>
        <time>2012-08-29T08:27:46Z</time>
      </trkpt>
      <trkpt lat="45.0746" lon="2.06457">
        <ele>435.6</ele>
        <time>2012-08-29T08:27:45Z</time>
      </trkpt>
      <trkpt lat="45.07457" lon="2.06451">
        <ele>436.1</ele>
        <time>2012-08-29T08:27:44Z</time>
      </trkpt>
      <trkpt lat="45.07455" lon="2.06444">
        <ele>436.1</ele>
        <time>2012-08-29T08:27:43Z</time>
      </trkpt>
      <trkpt lat="45.07454" lon="2.06438">
        <ele>436.6</ele>
        <time>2012-08-29T08:27:42Z</time>
      </trkpt>
      <trkpt lat="45.07453" lon="2.06431">
        <ele>437.1</ele>
        <time>2012-08-29T08:27:41Z</time>
      </trkpt>
      <trkpt lat="45.07453" lon="2.06425">
        <ele>437.5</ele>
        <time>2012-08-29T08:27:40Z</time>
      </trkpt>
      <trkpt lat="45.07454" lon="2.06419">
        <ele>438.5</ele>
        <time>2012-08-29T08:27:39Z</time>
      </trkpt>
      <trkpt lat="45.07454" lon="2.06413">
        <ele>439</ele>
        <time>2012-08-29T08:27:38Z</time>
      </trkpt>
      <trkpt lat="45.07456" lon="2.06407">
        <ele>439</ele>
        <time>2012-08-29T08:27:37Z</time>
      </trkpt>
      <trkpt lat="45.0746" lon="2.06403">
        <ele>439.9</ele>
        <time>2012-08-29T08:27:35Z</time>
      </trkpt>
      <trkpt lat="45.07464" lon="2.06405">
        <ele>440.4</ele>
        <time>2012-08-29T08:27:34Z</time>
      </trkpt>
      <trkpt lat="45.07467" lon="2.06409">
        <ele>440.4</ele>
        <time>2012-08-29T08:27:33Z</time>
      </trkpt>
      <trkpt lat="45.07482" lon="2.06429">
        <ele>442.8</ele>
        <time>2012-08-29T08:27:28Z</time>
      </trkpt>
      <trkpt lat="45.0749" lon="2.06444">
        <ele>443.8</ele>
        <time>2012-08-29T08:27:25Z</time>
      </trkpt>
      <trkpt lat="45.07493" lon="2.06449">
        <ele>444.3</ele>
        <time>2012-08-29T08:27:24Z</time>
      </trkpt>
      <trkpt lat="45.07496" lon="2.06454">
        <ele>444.8</ele>
        <time>2012-08-29T08:27:23Z</time>
      </trkpt>
      <trkpt lat="45.07505" lon="2.06471">
        <ele>445.2</ele>
        <time>2012-08-29T08:27:20Z</time>
      </trkpt>
      <trkpt lat="45.07509" lon="2.06475">
        <ele>444.8</ele>
        <time>2012-08-29T08:27:19Z</time>
      </trkpt>
      <trkpt lat="45.07512" lon="2.06479">
        <ele>445.2</ele>
        <time>2012-08-29T08:27:18Z</time>
      </trkpt>
      <trkpt lat="45.07539" lon="2.06502">
        <ele>445.7</ele>
        <time>2012-08-29T08:27:11Z</time>
      </trkpt>
      <trkpt lat="45.0757" lon="2.06523">
        <ele>448.1</ele>
        <time>2012-08-29T08:27:03Z</time>
      </trkpt>
      <trkpt lat="45.07574" lon="2.06526">
        <ele>448.6</ele>
        <time>2012-08-29T08:27:02Z</time>
      </trkpt>
      <trkpt lat="45.07597" lon="2.06537">
        <ele>449.5</ele>
        <time>2012-08-29T08:26:56Z</time>
      </trkpt>
      <trkpt lat="45.07615" lon="2.06551">
        <ele>451</ele>
        <time>2012-08-29T08:26:50Z</time>
      </trkpt>
      <trkpt lat="45.07622" lon="2.06567">
        <ele>452.4</ele>
        <time>2012-08-29T08:26:46Z</time>
      </trkpt>
      <trkpt lat="45.07637" lon="2.06609">
        <ele>455.8</ele>
        <time>2012-08-29T08:26:39Z</time>
      </trkpt>
      <trkpt lat="45.07657" lon="2.06656">
        <ele>457.7</ele>
        <time>2012-08-29T08:26:31Z</time>
      </trkpt>
      <trkpt lat="45.0766" lon="2.06661">
        <ele>458.2</ele>
        <time>2012-08-29T08:26:30Z</time>
      </trkpt>
      <trkpt lat="45.07665" lon="2.06666">
        <ele>458.2</ele>
        <time>2012-08-29T08:26:29Z</time>
      </trkpt>
      <trkpt lat="45.07673" lon="2.06675">
        <ele>460.1</ele>
        <time>2012-08-29T08:26:27Z</time>
      </trkpt>
      <trkpt lat="45.07677" lon="2.06679">
        <ele>460.1</ele>
        <time>2012-08-29T08:26:26Z</time>
      </trkpt>
      <trkpt lat="45.07694" lon="2.06691">
        <ele>461.6</ele>
        <time>2012-08-29T08:26:22Z</time>
      </trkpt>
      <trkpt lat="45.07721" lon="2.06695">
        <ele>464</ele>
        <time>2012-08-29T08:26:15Z</time>
      </trkpt>
      <trkpt lat="45.07745" lon="2.06714">
        <ele>465.4</ele>
        <time>2012-08-29T08:26:08Z</time>
      </trkpt>
      <trkpt lat="45.0776" lon="2.06734">
        <ele>466.9</ele>
        <time>2012-08-29T08:26:02Z</time>
      </trkpt>
      <trkpt lat="45.0777" lon="2.0674">
        <ele>468.8</ele>
        <time>2012-08-29T08:25:59Z</time>
      </trkpt>
      <trkpt lat="45.07782" lon="2.06747">
        <ele>470.2</ele>
        <time>2012-08-29T08:25:53Z</time>
      </trkpt>
      <trkpt lat="45.07784" lon="2.06746">
        <ele>470.7</ele>
        <time>2012-08-29T08:25:52Z</time>
      </trkpt>
      <trkpt lat="45.07786" lon="2.06745">
        <ele>471.7</ele>
        <time>2012-08-29T08:25:51Z</time>
      </trkpt>
      <trkpt lat="45.07787" lon="2.06743">
        <ele>472.1</ele>
        <time>2012-08-29T08:25:50Z</time>
      </trkpt>
      <trkpt lat="45.07788" lon="2.06741">
        <ele>472.1</ele>
        <time>2012-08-29T08:25:49Z</time>
      </trkpt>
      <trkpt lat="45.07788" lon="2.06739">
        <ele>472.6</ele>
        <time>2012-08-29T08:25:48Z</time>
      </trkpt>
      <trkpt lat="45.07787" lon="2.06737">
        <ele>472.6</ele>
        <time>2012-08-29T08:25:47Z</time>
      </trkpt>
      <trkpt lat="45.07787" lon="2.06734">
        <ele>473.1</ele>
        <time>2012-08-29T08:25:46Z</time>
      </trkpt>
      <trkpt lat="45.07785" lon="2.06731">
        <ele>473.1</ele>
        <time>2012-08-29T08:25:45Z</time>
      </trkpt>
      <trkpt lat="45.07784" lon="2.06729">
        <ele>473.6</ele>
        <time>2012-08-29T08:25:44Z</time>
      </trkpt>
      <trkpt lat="45.07784" lon="2.06726">
        <ele>474.1</ele>
        <time>2012-08-29T08:25:43Z</time>
      </trkpt>
      <trkpt lat="45.07782" lon="2.06723">
        <ele>474.1</ele>
        <time>2012-08-29T08:25:42Z</time>
      </trkpt>
      <trkpt lat="45.07781" lon="2.0672">
        <ele>474.1</ele>
        <time>2012-08-29T08:25:41Z</time>
      </trkpt>
      <trkpt lat="45.0778" lon="2.06716">
        <ele>475</ele>
        <time>2012-08-29T08:25:40Z</time>
      </trkpt>
      <trkpt lat="45.07779" lon="2.06713">
        <ele>476</ele>
        <time>2012-08-29T08:25:39Z</time>
      </trkpt>
      <trkpt lat="45.07778" lon="2.06709">
        <ele>475</ele>
        <time>2012-08-29T08:25:38Z</time>
      </trkpt>
      <trkpt lat="45.07777" lon="2.06705">
        <ele>476</ele>
        <time>2012-08-29T08:25:37Z</time>
      </trkpt>
      <trkpt lat="45.07776" lon="2.06697">
        <ele>477</ele>
        <time>2012-08-29T08:25:35Z</time>
      </trkpt>
      <trkpt lat="45.07768" lon="2.06664">
        <ele>479.4</ele>
        <time>2012-08-29T08:25:28Z</time>
      </trkpt>
      <trkpt lat="45.07762" lon="2.06637">
        <ele>481.3</ele>
        <time>2012-08-29T08:25:24Z</time>
      </trkpt>
      <trkpt lat="45.07755" lon="2.06607">
        <ele>483.7</ele>
        <time>2012-08-29T08:25:18Z</time>
      </trkpt>
      <trkpt lat="45.07755" lon="2.06564">
        <ele>486.1</ele>
        <time>2012-08-29T08:25:11Z</time>
      </trkpt>
      <trkpt lat="45.07756" lon="2.06554">
        <ele>487</ele>
        <time>2012-08-29T08:25:09Z</time>
      </trkpt>
      <trkpt lat="45.07764" lon="2.06524">
        <ele>489.9</ele>
        <time>2012-08-29T08:25:02Z</time>
      </trkpt>
      <trkpt lat="45.07779" lon="2.06487">
        <ele>491.9</ele>
        <time>2012-08-29T08:24:56Z</time>
      </trkpt>
      <trkpt lat="45.07786" lon="2.06448">
        <ele>494.3</ele>
        <time>2012-08-29T08:24:49Z</time>
      </trkpt>
      <trkpt lat="45.07803" lon="2.06414">
        <ele>496.7</ele>
        <time>2012-08-29T08:24:42Z</time>
      </trkpt>
      <trkpt lat="45.07806" lon="2.0641">
        <ele>496.2</ele>
        <time>2012-08-29T08:24:41Z</time>
      </trkpt>
      <trkpt lat="45.07837" lon="2.06383">
        <ele>499.1</ele>
        <time>2012-08-29T08:24:33Z</time>
      </trkpt>
      <trkpt lat="45.07843" lon="2.06379">
        <ele>500.5</ele>
        <time>2012-08-29T08:24:32Z</time>
      </trkpt>
      <trkpt lat="45.07879" lon="2.06353">
        <ele>502.9</ele>
        <time>2012-08-29T08:24:25Z</time>
      </trkpt>
      <trkpt lat="45.07926" lon="2.06331">
        <ele>503.9</ele>
        <time>2012-08-29T08:24:19Z</time>
      </trkpt>
      <trkpt lat="45.07935" lon="2.06327">
        <ele>504.4</ele>
        <time>2012-08-29T08:24:18Z</time>
      </trkpt>
      <trkpt lat="45.0797" lon="2.06307">
        <ele>507.2</ele>
        <time>2012-08-29T08:24:13Z</time>
      </trkpt>
      <trkpt lat="45.07999" lon="2.06291">
        <ele>511.1</ele>
        <time>2012-08-29T08:24:07Z</time>
      </trkpt>
      <trkpt lat="45.08002" lon="2.0629">
        <ele>511.1</ele>
        <time>2012-08-29T08:24:06Z</time>
      </trkpt>
      <trkpt lat="45.08037" lon="2.06281">
        <ele>512</ele>
        <time>2012-08-29T08:23:54Z</time>
      </trkpt>
      <trkpt lat="45.08058" lon="2.06272">
        <ele>514</ele>
        <time>2012-08-29T08:23:46Z</time>
      </trkpt>
      <trkpt lat="45.08085" lon="2.06241">
        <ele>513.5</ele>
        <time>2012-08-29T08:23:37Z</time>
      </trkpt>
      <trkpt lat="45.08094" lon="2.06219">
        <ele>509.6</ele>
        <time>2012-08-29T08:23:33Z</time>
      </trkpt>
      <trkpt lat="45.08101" lon="2.06209">
        <ele>511.1</ele>
        <time>2012-08-29T08:23:30Z</time>
      </trkpt>
      <trkpt lat="45.08104" lon="2.06207">
        <ele>511.6</ele>
        <time>2012-08-29T08:23:29Z</time>
      </trkpt>
      <trkpt lat="45.08109" lon="2.06205">
        <ele>512</ele>
        <time>2012-08-29T08:23:28Z</time>
      </trkpt>
      <trkpt lat="45.08131" lon="2.06201">
        <ele>517.3</ele>
        <time>2012-08-29T08:23:24Z</time>
      </trkpt>
      <trkpt lat="45.08139" lon="2.06198">
        <ele>515.9</ele>
        <time>2012-08-29T08:23:23Z</time>
      </trkpt>
      <trkpt lat="45.08146" lon="2.06194">
        <ele>514</ele>
        <time>2012-08-29T08:23:22Z</time>
      </trkpt>
      <trkpt lat="45.08201" lon="2.06164">
        <ele>514.4</ele>
        <time>2012-08-29T08:23:14Z</time>
      </trkpt>
      <trkpt lat="45.08206" lon="2.06162">
        <ele>515.4</ele>
        <time>2012-08-29T08:23:13Z</time>
      </trkpt>
      <trkpt lat="45.0821" lon="2.06162">
        <ele>516.4</ele>
        <time>2012-08-29T08:23:12Z</time>
      </trkpt>
      <trkpt lat="45.08212" lon="2.06163">
        <ele>511.6</ele>
        <time>2012-08-29T08:23:11Z</time>
      </trkpt>
      <trkpt lat="45.08213" lon="2.06163">
        <ele>514.9</ele>
        <time>2012-08-29T08:23:10Z</time>
      </trkpt>
      <trkpt lat="45.08219" lon="2.06174">
        <ele>514.9</ele>
        <time>2012-08-29T08:23:06Z</time>
      </trkpt>
      <trkpt lat="45.0823" lon="2.06214">
        <ele>518.3</ele>
        <time>2012-08-29T08:23:00Z</time>
      </trkpt>
      <trkpt lat="45.08233" lon="2.06223">
        <ele>524.1</ele>
        <time>2012-08-29T08:22:59Z</time>
      </trkpt>
      <trkpt lat="45.08236" lon="2.06231">
        <ele>518.8</ele>
        <time>2012-08-29T08:22:58Z</time>
      </trkpt>
      <trkpt lat="45.08254" lon="2.06277">
        <ele>522.1</ele>
        <time>2012-08-29T08:22:53Z</time>
      </trkpt>
      <trkpt lat="45.08278" lon="2.06338">
        <ele>525</ele>
        <time>2012-08-29T08:22:46Z</time>
      </trkpt>
      <trkpt lat="45.08292" lon="2.06379">
        <ele>526</ele>
        <time>2012-08-29T08:22:40Z</time>
      </trkpt>
      <trkpt lat="45.08294" lon="2.06387">
        <ele>526.5</ele>
        <time>2012-08-29T08:22:38Z</time>
      </trkpt>
      <trkpt lat="45.08296" lon="2.06389">
        <ele>526.5</ele>
        <time>2012-08-29T08:22:37Z</time>
      </trkpt>
      <trkpt lat="45.08298" lon="2.0639">
        <ele>527.4</ele>
        <time>2012-08-29T08:22:36Z</time>
      </trkpt>
      <trkpt lat="45.08299" lon="2.0639">
        <ele>526.5</ele>
        <time>2012-08-29T08:22:35Z</time>
      </trkpt>
      <trkpt lat="45.08301" lon="2.0639">
        <ele>526.9</ele>
        <time>2012-08-29T08:22:34Z</time>
      </trkpt>
      <trkpt lat="45.08301" lon="2.0639">
        <ele>526.9</ele>
        <time>2012-08-29T08:22:34Z</time>
      </trkpt>
      <trkpt lat="45.08294" lon="2.06387">
        <ele>526.5</ele>
        <time>2012-08-29T10:07:57Z</time>
      </trkpt>
      <trkpt lat="45.08294" lon="2.06387">
        <ele>526.5</ele>
        <time>2012-08-29T10:07:57Z</time>
      </trkpt>
      <trkpt lat="45.08296" lon="2.06389">
        <ele>526.5</ele>
        <time>2012-08-29T10:07:58Z</time>
      </trkpt>
      <trkpt lat="45.08298" lon="2.0639">
        <ele>527.4</ele>
        <time>2012-08-29T10:07:59Z</time>
      </trkpt>
      <trkpt lat="45.08299" lon="2.0639">
        <ele>526.5</ele>
        <time>2012-08-29T10:08:00Z</time>
      </trkpt>
      <trkpt lat="45.08301" lon="2.0639">
        <ele>526.9</ele>
        <time>2012-08-29T10:08:01Z</time>
      </trkpt>
      <trkpt lat="45.08304" lon="2.0639">
        <ele>520.7</ele>
        <time>2012-08-29T10:08:02Z</time>
      </trkpt>
      <trkpt lat="45.08306" lon="2.0639">
        <ele>526.9</ele>
        <time>2012-08-29T10:08:03Z</time>
      </trkpt>
      <trkpt lat="45.0831" lon="2.0639">
        <ele>520.7</ele>
        <time>2012-08-29T10:08:05Z</time>
      </trkpt>
      <trkpt lat="45.08312" lon="2.06391">
        <ele>524.5</ele>
        <time>2012-08-29T10:08:06Z</time>
      </trkpt>
      <trkpt lat="45.08315" lon="2.06392">
        <ele>528.9</ele>
        <time>2012-08-29T10:08:07Z</time>
      </trkpt>
      <trkpt lat="45.08317" lon="2.06392">
        <ele>524.5</ele>
        <time>2012-08-29T10:08:08Z</time>
      </trkpt>
      <trkpt lat="45.08328" lon="2.064">
        <ele>521.2</ele>
        <time>2012-08-29T10:08:14Z</time>
      </trkpt>
      <trkpt lat="45.08331" lon="2.06402">
        <ele>520.2</ele>
        <time>2012-08-29T10:08:16Z</time>
      </trkpt>
      <trkpt lat="45.0835" lon="2.06403">
        <ele>518.3</ele>
        <time>2012-08-29T10:08:24Z</time>
      </trkpt>
      <trkpt lat="45.08371" lon="2.06407">
        <ele>515.4</ele>
        <time>2012-08-29T10:08:31Z</time>
      </trkpt>
      <trkpt lat="45.0839" lon="2.06412">
        <ele>514</ele>
        <time>2012-08-29T10:08:36Z</time>
      </trkpt>
      <trkpt lat="45.08398" lon="2.06412">
        <ele>512.5</ele>
        <time>2012-08-29T10:08:39Z</time>
      </trkpt>
      <trkpt lat="45.08409" lon="2.06412">
        <ele>509.2</ele>
        <time>2012-08-29T10:08:44Z</time>
      </trkpt>
      <trkpt lat="45.08427" lon="2.06418">
        <ele>507.7</ele>
        <time>2012-08-29T10:08:53Z</time>
      </trkpt>
      <trkpt lat="45.08489" lon="2.06438">
        <ele>506.8</ele>
        <time>2012-08-29T10:09:02Z</time>
      </trkpt>
      <trkpt lat="45.08495" lon="2.06437">
        <ele>506.3</ele>
        <time>2012-08-29T10:09:03Z</time>
      </trkpt>
      <trkpt lat="45.08501" lon="2.06437">
        <ele>505.8</ele>
        <time>2012-08-29T10:09:04Z</time>
      </trkpt>
      <trkpt lat="45.08505" lon="2.06438">
        <ele>506.3</ele>
        <time>2012-08-29T10:09:05Z</time>
      </trkpt>
      <trkpt lat="45.0851" lon="2.06438">
        <ele>505.8</ele>
        <time>2012-08-29T10:09:06Z</time>
      </trkpt>
      <trkpt lat="45.08514" lon="2.06437">
        <ele>505.3</ele>
        <time>2012-08-29T10:09:07Z</time>
      </trkpt>
      <trkpt lat="45.08518" lon="2.06437">
        <ele>505.3</ele>
        <time>2012-08-29T10:09:08Z</time>
      </trkpt>
      <trkpt lat="45.08543" lon="2.06438">
        <ele>506.3</ele>
        <time>2012-08-29T10:09:14Z</time>
      </trkpt>
      <trkpt lat="45.08576" lon="2.06438">
        <ele>506.8</ele>
        <time>2012-08-29T10:09:21Z</time>
      </trkpt>
      <trkpt lat="45.08606" lon="2.06443">
        <ele>500</ele>
        <time>2012-08-29T10:09:27Z</time>
      </trkpt>
      <trkpt lat="45.08612" lon="2.06444">
        <ele>507.7</ele>
        <time>2012-08-29T10:09:28Z</time>
      </trkpt>
      <trkpt lat="45.08638" lon="2.0646">
        <ele>510.1</ele>
        <time>2012-08-29T10:09:35Z</time>
      </trkpt>
      <trkpt lat="45.0864" lon="2.06461">
        <ele>499.5</ele>
        <time>2012-08-29T10:09:36Z</time>
      </trkpt>
      <trkpt lat="45.08648" lon="2.06466">
        <ele>507.2</ele>
        <time>2012-08-29T10:09:37Z</time>
      </trkpt>
      <trkpt lat="45.0865" lon="2.06469">
        <ele>507.2</ele>
        <time>2012-08-29T10:09:38Z</time>
      </trkpt>
      <trkpt lat="45.08656" lon="2.06475">
        <ele>501.5</ele>
        <time>2012-08-29T10:09:41Z</time>
      </trkpt>
      <trkpt lat="45.08658" lon="2.06476">
        <ele>507.2</ele>
        <time>2012-08-29T10:09:42Z</time>
      </trkpt>
      <trkpt lat="45.08664" lon="2.06479">
        <ele>506.3</ele>
        <time>2012-08-29T10:09:49Z</time>
      </trkpt>
      <trkpt lat="45.08664" lon="2.06479">
        <ele>505.8</ele>
        <time>2012-08-29T10:10:07Z</time>
      </trkpt>
      <trkpt lat="45.0867" lon="2.06485">
        <ele>505.8</ele>
        <time>2012-08-29T10:10:15Z</time>
      </trkpt>
      <trkpt lat="45.08688" lon="2.06501">
        <ele>504.8</ele>
        <time>2012-08-29T10:10:27Z</time>
      </trkpt>
      <trkpt lat="45.08713" lon="2.0651">
        <ele>505.3</ele>
        <time>2012-08-29T10:10:35Z</time>
      </trkpt>
      <trkpt lat="45.08739" lon="2.06516">
        <ele>504.8</ele>
        <time>2012-08-29T10:10:41Z</time>
      </trkpt>
      <trkpt lat="45.08772" lon="2.06506">
        <ele>504.4</ele>
        <time>2012-08-29T10:10:49Z</time>
      </trkpt>
      <trkpt lat="45.08792" lon="2.0651">
        <ele>506.3</ele>
        <time>2012-08-29T10:10:55Z</time>
      </trkpt>
      <trkpt lat="45.08832" lon="2.06536">
        <ele>508.2</ele>
        <time>2012-08-29T10:11:04Z</time>
      </trkpt>
      <trkpt lat="45.08865" lon="2.06551">
        <ele>508.7</ele>
        <time>2012-08-29T10:11:13Z</time>
      </trkpt>
      <trkpt lat="45.08878" lon="2.06549">
        <ele>508.2</ele>
        <time>2012-08-29T10:11:21Z</time>
      </trkpt>
      <trkpt lat="45.08876" lon="2.06545">
        <ele>509.2</ele>
        <time>2012-08-29T10:11:30Z</time>
      </trkpt>
      <trkpt lat="45.08876" lon="2.06545">
        <ele>508.7</ele>
        <time>2012-08-29T10:11:45Z</time>
      </trkpt>
      <trkpt lat="45.0887" lon="2.06548">
        <ele>508.7</ele>
        <time>2012-08-29T10:11:54Z</time>
      </trkpt>
      <trkpt lat="45.0887" lon="2.06548">
        <ele>509.2</ele>
        <time>2012-08-29T10:12:04Z</time>
      </trkpt>
      <trkpt lat="45.08872" lon="2.06548">
        <ele>508.7</ele>
        <time>2012-08-29T10:12:08Z</time>
      </trkpt>
      <trkpt lat="45.08873" lon="2.06545">
        <ele>508.2</ele>
        <time>2012-08-29T10:12:09Z</time>
      </trkpt>
      <trkpt lat="45.08876" lon="2.0654">
        <ele>507.7</ele>
        <time>2012-08-29T10:12:12Z</time>
      </trkpt>
      <trkpt lat="45.08877" lon="2.0654">
        <ele>507.7</ele>
        <time>2012-08-29T10:12:13Z</time>
      </trkpt>
      <trkpt lat="45.08881" lon="2.06538">
        <ele>506.8</ele>
        <time>2012-08-29T10:12:18Z</time>
      </trkpt>
      <trkpt lat="45.08882" lon="2.06536">
        <ele>507.2</ele>
        <time>2012-08-29T10:12:19Z</time>
      </trkpt>
      <trkpt lat="45.08883" lon="2.06534">
        <ele>506.3</ele>
        <time>2012-08-29T10:12:20Z</time>
      </trkpt>
      <trkpt lat="45.08884" lon="2.06534">
        <ele>506.3</ele>
        <time>2012-08-29T10:12:21Z</time>
      </trkpt>
      <trkpt lat="45.08886" lon="2.06533">
        <ele>506.3</ele>
        <time>2012-08-29T10:12:22Z</time>
      </trkpt>
      <trkpt lat="45.08888" lon="2.06532">
        <ele>506.3</ele>
        <time>2012-08-29T10:12:23Z</time>
      </trkpt>
      <trkpt lat="45.08889" lon="2.06531">
        <ele>505.8</ele>
        <time>2012-08-29T10:12:24Z</time>
      </trkpt>
      <trkpt lat="45.08891" lon="2.06531">
        <ele>506.3</ele>
        <time>2012-08-29T10:12:25Z</time>
      </trkpt>
      <trkpt lat="45.08893" lon="2.0653">
        <ele>505.3</ele>
        <time>2012-08-29T10:12:26Z</time>
      </trkpt>
      <trkpt lat="45.08894" lon="2.06528">
        <ele>505.8</ele>
        <time>2012-08-29T10:12:27Z</time>
      </trkpt>
      <trkpt lat="45.08895" lon="2.06527">
        <ele>505.3</ele>
        <time>2012-08-29T10:12:28Z</time>
      </trkpt>
      <trkpt lat="45.08896" lon="2.06526">
        <ele>504.8</ele>
        <time>2012-08-29T10:12:29Z</time>
      </trkpt>
      <trkpt lat="45.08905" lon="2.06521">
        <ele>502.9</ele>
        <time>2012-08-29T10:12:36Z</time>
      </trkpt>
      <trkpt lat="45.08911" lon="2.06521">
        <ele>501</ele>
        <time>2012-08-29T10:12:43Z</time>
      </trkpt>
      <trkpt lat="45.08912" lon="2.06521">
        <ele>500.5</ele>
        <time>2012-08-29T10:12:45Z</time>
      </trkpt>
      <trkpt lat="45.08913" lon="2.06521">
        <ele>500</ele>
        <time>2012-08-29T10:12:46Z</time>
      </trkpt>
      <trkpt lat="45.08915" lon="2.0652">
        <ele>499.5</ele>
        <time>2012-08-29T10:12:47Z</time>
      </trkpt>
      <trkpt lat="45.08916" lon="2.06519">
        <ele>499.1</ele>
        <time>2012-08-29T10:12:48Z</time>
      </trkpt>
      <trkpt lat="45.08917" lon="2.06519">
        <ele>499.5</ele>
        <time>2012-08-29T10:12:49Z</time>
      </trkpt>
      <trkpt lat="45.08927" lon="2.06511">
        <ele>498.1</ele>
        <time>2012-08-29T10:12:54Z</time>
      </trkpt>
      <trkpt lat="45.08931" lon="2.06508">
        <ele>498.1</ele>
        <time>2012-08-29T10:12:57Z</time>
      </trkpt>
      <trkpt lat="45.08939" lon="2.0651">
        <ele>496.7</ele>
        <time>2012-08-29T10:13:03Z</time>
      </trkpt>
      <trkpt lat="45.08943" lon="2.06512">
        <ele>496.2</ele>
        <time>2012-08-29T10:13:09Z</time>
      </trkpt>
      <trkpt lat="45.08944" lon="2.06514">
        <ele>495.2</ele>
        <time>2012-08-29T10:13:11Z</time>
      </trkpt>
      <trkpt lat="45.08961" lon="2.06519">
        <ele>493.8</ele>
        <time>2012-08-29T10:13:17Z</time>
      </trkpt>
      <trkpt lat="45.08966" lon="2.06519">
        <ele>494.3</ele>
        <time>2012-08-29T10:13:19Z</time>
      </trkpt>
      <trkpt lat="45.08975" lon="2.06526">
        <ele>492.8</ele>
        <time>2012-08-29T10:13:26Z</time>
      </trkpt>
      <trkpt lat="45.08984" lon="2.06529">
        <ele>491.9</ele>
        <time>2012-08-29T10:13:32Z</time>
      </trkpt>
      <trkpt lat="45.08992" lon="2.06532">
        <ele>490.9</ele>
        <time>2012-08-29T10:13:37Z</time>
      </trkpt>
      <trkpt lat="45.08995" lon="2.06534">
        <ele>490.9</ele>
        <time>2012-08-29T10:13:43Z</time>
      </trkpt>
      <trkpt lat="45.08995" lon="2.06535">
        <ele>489.5</ele>
        <time>2012-08-29T10:13:48Z</time>
      </trkpt>
      <trkpt lat="45.08997" lon="2.06553">
        <ele>489.9</ele>
        <time>2012-08-29T10:13:52Z</time>
      </trkpt>
      <trkpt lat="45.08997" lon="2.0656">
        <ele>490.9</ele>
        <time>2012-08-29T10:13:53Z</time>
      </trkpt>
      <trkpt lat="45.09" lon="2.06568">
        <ele>489</ele>
        <time>2012-08-29T10:13:54Z</time>
      </trkpt>
      <trkpt lat="45.09003" lon="2.06577">
        <ele>486.1</ele>
        <time>2012-08-29T10:13:55Z</time>
      </trkpt>
      <trkpt lat="45.09006" lon="2.06585">
        <ele>489.5</ele>
        <time>2012-08-29T10:13:56Z</time>
      </trkpt>
      <trkpt lat="45.09013" lon="2.06618">
        <ele>485.6</ele>
        <time>2012-08-29T10:14:00Z</time>
      </trkpt>
      <trkpt lat="45.09016" lon="2.06632">
        <ele>486.1</ele>
        <time>2012-08-29T10:14:04Z</time>
      </trkpt>
      <trkpt lat="45.09021" lon="2.06629">
        <ele>486.6</ele>
        <time>2012-08-29T10:14:11Z</time>
      </trkpt>
      <trkpt lat="45.09023" lon="2.06627">
        <ele>486.6</ele>
        <time>2012-08-29T10:14:15Z</time>
      </trkpt>
      <trkpt lat="45.09026" lon="2.06625">
        <ele>486.1</ele>
        <time>2012-08-29T10:14:16Z</time>
      </trkpt>
      <trkpt lat="45.09028" lon="2.06623">
        <ele>486.1</ele>
        <time>2012-08-29T10:14:17Z</time>
      </trkpt>
      <trkpt lat="45.0903" lon="2.06621">
        <ele>486.1</ele>
        <time>2012-08-29T10:14:18Z</time>
      </trkpt>
      <trkpt lat="45.09031" lon="2.06617">
        <ele>485.6</ele>
        <time>2012-08-29T10:14:19Z</time>
      </trkpt>
      <trkpt lat="45.09033" lon="2.06614">
        <ele>485.6</ele>
        <time>2012-08-29T10:14:20Z</time>
      </trkpt>
      <trkpt lat="45.09038" lon="2.06599">
        <ele>485.6</ele>
        <time>2012-08-29T10:14:23Z</time>
      </trkpt>
      <trkpt lat="45.09047" lon="2.06555">
        <ele>485.1</ele>
        <time>2012-08-29T10:14:29Z</time>
      </trkpt>
      <trkpt lat="45.09058" lon="2.06478">
        <ele>484.6</ele>
        <time>2012-08-29T10:14:39Z</time>
      </trkpt>
      <trkpt lat="45.09063" lon="2.06426">
        <ele>484.6</ele>
        <time>2012-08-29T10:14:45Z</time>
      </trkpt>
      <trkpt lat="45.09057" lon="2.06369">
        <ele>482.7</ele>
        <time>2012-08-29T10:14:52Z</time>
      </trkpt>
      <trkpt lat="45.09055" lon="2.06362">
        <ele>482.2</ele>
        <time>2012-08-29T10:14:53Z</time>
      </trkpt>
      <trkpt lat="45.09053" lon="2.06355">
        <ele>481.3</ele>
        <time>2012-08-29T10:14:54Z</time>
      </trkpt>
      <trkpt lat="45.0904" lon="2.0632">
        <ele>478.4</ele>
        <time>2012-08-29T10:14:59Z</time>
      </trkpt>
      <trkpt lat="45.09028" lon="2.06297">
        <ele>476.5</ele>
        <time>2012-08-29T10:15:03Z</time>
      </trkpt>
      <trkpt lat="45.09026" lon="2.06291">
        <ele>476</ele>
        <time>2012-08-29T10:15:04Z</time>
      </trkpt>
      <trkpt lat="45.09024" lon="2.06286">
        <ele>475.5</ele>
        <time>2012-08-29T10:15:05Z</time>
      </trkpt>
      <trkpt lat="45.09023" lon="2.06281">
        <ele>476</ele>
        <time>2012-08-29T10:15:06Z</time>
      </trkpt>
      <trkpt lat="45.09023" lon="2.06277">
        <ele>475</ele>
        <time>2012-08-29T10:15:07Z</time>
      </trkpt>
      <trkpt lat="45.09024" lon="2.06271">
        <ele>475</ele>
        <time>2012-08-29T10:15:08Z</time>
      </trkpt>
      <trkpt lat="45.09026" lon="2.06265">
        <ele>475.5</ele>
        <time>2012-08-29T10:15:09Z</time>
      </trkpt>
      <trkpt lat="45.09028" lon="2.06258">
        <ele>475</ele>
        <time>2012-08-29T10:15:10Z</time>
      </trkpt>
      <trkpt lat="45.0903" lon="2.06252">
        <ele>475.5</ele>
        <time>2012-08-29T10:15:11Z</time>
      </trkpt>
      <trkpt lat="45.09038" lon="2.06227">
        <ele>477.9</ele>
        <time>2012-08-29T10:15:14Z</time>
      </trkpt>
      <trkpt lat="45.09044" lon="2.06214">
        <ele>477.4</ele>
        <time>2012-08-29T10:15:15Z</time>
      </trkpt>
      <trkpt lat="45.09093" lon="2.06124">
        <ele>477.9</ele>
        <time>2012-08-29T10:15:22Z</time>
      </trkpt>
      <trkpt lat="45.09101" lon="2.06114">
        <ele>479.4</ele>
        <time>2012-08-29T10:15:23Z</time>
      </trkpt>
      <trkpt lat="45.09109" lon="2.06106">
        <ele>480.3</ele>
        <time>2012-08-29T10:15:24Z</time>
      </trkpt>
      <trkpt lat="45.09117" lon="2.061">
        <ele>481.8</ele>
        <time>2012-08-29T10:15:25Z</time>
      </trkpt>
      <trkpt lat="45.09127" lon="2.06095">
        <ele>483.2</ele>
        <time>2012-08-29T10:15:26Z</time>
      </trkpt>
      <trkpt lat="45.09136" lon="2.0609">
        <ele>484.2</ele>
        <time>2012-08-29T10:15:27Z</time>
      </trkpt>
      <trkpt lat="45.09156" lon="2.06079">
        <ele>487.5</ele>
        <time>2012-08-29T10:15:29Z</time>
      </trkpt>
      <trkpt lat="45.09167" lon="2.06073">
        <ele>487.5</ele>
        <time>2012-08-29T10:15:30Z</time>
      </trkpt>
      <trkpt lat="45.09187" lon="2.06063">
        <ele>489.9</ele>
        <time>2012-08-29T10:15:32Z</time>
      </trkpt>
      <trkpt lat="45.09195" lon="2.06056">
        <ele>490.4</ele>
        <time>2012-08-29T10:15:33Z</time>
      </trkpt>
      <trkpt lat="45.09201" lon="2.06049">
        <ele>490.9</ele>
        <time>2012-08-29T10:15:34Z</time>
      </trkpt>
      <trkpt lat="45.09205" lon="2.0604">
        <ele>491.4</ele>
        <time>2012-08-29T10:15:35Z</time>
      </trkpt>
      <trkpt lat="45.09207" lon="2.0603">
        <ele>492.3</ele>
        <time>2012-08-29T10:15:36Z</time>
      </trkpt>
      <trkpt lat="45.09209" lon="2.06022">
        <ele>492.8</ele>
        <time>2012-08-29T10:15:37Z</time>
      </trkpt>
      <trkpt lat="45.09209" lon="2.06013">
        <ele>493.8</ele>
        <time>2012-08-29T10:15:38Z</time>
      </trkpt>
      <trkpt lat="45.09209" lon="2.06006">
        <ele>494.3</ele>
        <time>2012-08-29T10:15:39Z</time>
      </trkpt>
      <trkpt lat="45.09208" lon="2.05998">
        <ele>495.7</ele>
        <time>2012-08-29T10:15:40Z</time>
      </trkpt>
      <trkpt lat="45.09204" lon="2.05959">
        <ele>499.5</ele>
        <time>2012-08-29T10:15:44Z</time>
      </trkpt>
      <trkpt lat="45.09201" lon="2.0595">
        <ele>500</ele>
        <time>2012-08-29T10:15:45Z</time>
      </trkpt>
      <trkpt lat="45.09197" lon="2.05941">
        <ele>501</ele>
        <time>2012-08-29T10:15:46Z</time>
      </trkpt>
      <trkpt lat="45.09188" lon="2.05925">
        <ele>502.4</ele>
        <time>2012-08-29T10:15:48Z</time>
      </trkpt>
      <trkpt lat="45.09176" lon="2.05902">
        <ele>504.8</ele>
        <time>2012-08-29T10:15:51Z</time>
      </trkpt>
      <trkpt lat="45.09172" lon="2.05893">
        <ele>504.8</ele>
        <time>2012-08-29T10:15:52Z</time>
      </trkpt>
      <trkpt lat="45.09172" lon="2.05885">
        <ele>506.3</ele>
        <time>2012-08-29T10:15:53Z</time>
      </trkpt>
      <trkpt lat="45.09174" lon="2.05879">
        <ele>506.3</ele>
        <time>2012-08-29T10:15:54Z</time>
      </trkpt>
      <trkpt lat="45.09177" lon="2.05874">
        <ele>506.8</ele>
        <time>2012-08-29T10:15:55Z</time>
      </trkpt>
      <trkpt lat="45.09182" lon="2.05868">
        <ele>508.7</ele>
        <time>2012-08-29T10:15:56Z</time>
      </trkpt>
      <trkpt lat="45.09201" lon="2.05851">
        <ele>512</ele>
        <time>2012-08-29T10:15:59Z</time>
      </trkpt>
      <trkpt lat="45.09225" lon="2.05828">
        <ele>513.5</ele>
        <time>2012-08-29T10:16:02Z</time>
      </trkpt>
      <trkpt lat="45.09248" lon="2.05809">
        <ele>515.9</ele>
        <time>2012-08-29T10:16:05Z</time>
      </trkpt>
      <trkpt lat="45.09255" lon="2.05805">
        <ele>515.9</ele>
        <time>2012-08-29T10:16:06Z</time>
      </trkpt>
      <trkpt lat="45.09276" lon="2.05797">
        <ele>517.3</ele>
        <time>2012-08-29T10:16:09Z</time>
      </trkpt>
      <trkpt lat="45.09308" lon="2.05783">
        <ele>517.8</ele>
        <time>2012-08-29T10:16:14Z</time>
      </trkpt>
      <trkpt lat="45.09314" lon="2.05778">
        <ele>517.3</ele>
        <time>2012-08-29T10:16:15Z</time>
      </trkpt>
      <trkpt lat="45.09335" lon="2.05758">
        <ele>517.8</ele>
        <time>2012-08-29T10:16:18Z</time>
      </trkpt>
      <trkpt lat="45.09382" lon="2.05723">
        <ele>519.2</ele>
        <time>2012-08-29T10:16:24Z</time>
      </trkpt>
      <trkpt lat="45.09388" lon="2.05715">
        <ele>518.8</ele>
        <time>2012-08-29T10:16:25Z</time>
      </trkpt>
      <trkpt lat="45.09393" lon="2.05707">
        <ele>518.8</ele>
        <time>2012-08-29T10:16:26Z</time>
      </trkpt>
      <trkpt lat="45.09419" lon="2.05663">
        <ele>519.7</ele>
        <time>2012-08-29T10:16:30Z</time>
      </trkpt>
      <trkpt lat="45.09432" lon="2.05633">
        <ele>522.1</ele>
        <time>2012-08-29T10:16:32Z</time>
      </trkpt>
      <trkpt lat="45.09467" lon="2.05544">
        <ele>523.1</ele>
        <time>2012-08-29T10:16:38Z</time>
      </trkpt>
      <trkpt lat="45.09475" lon="2.05531">
        <ele>524.1</ele>
        <time>2012-08-29T10:16:39Z</time>
      </trkpt>
      <trkpt lat="45.09485" lon="2.0552">
        <ele>524.5</ele>
        <time>2012-08-29T10:16:40Z</time>
      </trkpt>
      <trkpt lat="45.09496" lon="2.05511">
        <ele>525</ele>
        <time>2012-08-29T10:16:41Z</time>
      </trkpt>
      <trkpt lat="45.09506" lon="2.05503">
        <ele>525</ele>
        <time>2012-08-29T10:16:42Z</time>
      </trkpt>
      <trkpt lat="45.09517" lon="2.05496">
        <ele>525</ele>
        <time>2012-08-29T10:16:43Z</time>
      </trkpt>
      <trkpt lat="45.09527" lon="2.05493">
        <ele>525</ele>
        <time>2012-08-29T10:16:44Z</time>
      </trkpt>
      <trkpt lat="45.09537" lon="2.05494">
        <ele>525</ele>
        <time>2012-08-29T10:16:45Z</time>
      </trkpt>
      <trkpt lat="45.09547" lon="2.05499">
        <ele>525.5</ele>
        <time>2012-08-29T10:16:46Z</time>
      </trkpt>
      <trkpt lat="45.09557" lon="2.05508">
        <ele>526.5</ele>
        <time>2012-08-29T10:16:47Z</time>
      </trkpt>
      <trkpt lat="45.09568" lon="2.05517">
        <ele>527.4</ele>
        <time>2012-08-29T10:16:48Z</time>
      </trkpt>
      <trkpt lat="45.09592" lon="2.05532">
        <ele>528.4</ele>
        <time>2012-08-29T10:16:50Z</time>
      </trkpt>
      <trkpt lat="45.09605" lon="2.05538">
        <ele>529.3</ele>
        <time>2012-08-29T10:16:51Z</time>
      </trkpt>
      <trkpt lat="45.0962" lon="2.05541">
        <ele>529.8</ele>
        <time>2012-08-29T10:16:52Z</time>
      </trkpt>
      <trkpt lat="45.0966" lon="2.05543">
        <ele>530.8</ele>
        <time>2012-08-29T10:16:55Z</time>
      </trkpt>
      <trkpt lat="45.09725" lon="2.05537">
        <ele>532.7</ele>
        <time>2012-08-29T10:17:00Z</time>
      </trkpt>
      <trkpt lat="45.09799" lon="2.05546">
        <ele>533.7</ele>
        <time>2012-08-29T10:17:06Z</time>
      </trkpt>
      <trkpt lat="45.09824" lon="2.05547">
        <ele>534.6</ele>
        <time>2012-08-29T10:17:08Z</time>
      </trkpt>
      <trkpt lat="45.09901" lon="2.05539">
        <ele>535.1</ele>
        <time>2012-08-29T10:17:14Z</time>
      </trkpt>
      <trkpt lat="45.09941" lon="2.05529">
        <ele>534.6</ele>
        <time>2012-08-29T10:17:18Z</time>
      </trkpt>
      <trkpt lat="45.0997" lon="2.05521">
        <ele>535.6</ele>
        <time>2012-08-29T10:17:22Z</time>
      </trkpt>
      <trkpt lat="45.1" lon="2.05517">
        <ele>537</ele>
        <time>2012-08-29T10:17:26Z</time>
      </trkpt>
      <trkpt lat="45.10008" lon="2.05515">
        <ele>531.3</ele>
        <time>2012-08-29T10:17:27Z</time>
      </trkpt>
      <trkpt lat="45.10015" lon="2.05514">
        <ele>539.4</ele>
        <time>2012-08-29T10:17:28Z</time>
      </trkpt>
      <trkpt lat="45.10022" lon="2.05513">
        <ele>538.5</ele>
        <time>2012-08-29T10:17:29Z</time>
      </trkpt>
      <trkpt lat="45.10036" lon="2.05512">
        <ele>543.3</ele>
        <time>2012-08-29T10:17:31Z</time>
      </trkpt>
      <trkpt lat="45.10043" lon="2.05511">
        <ele>539.9</ele>
        <time>2012-08-29T10:17:32Z</time>
      </trkpt>
      <trkpt lat="45.10064" lon="2.05507">
        <ele>543.8</ele>
        <time>2012-08-29T10:17:35Z</time>
      </trkpt>
      <trkpt lat="45.10115" lon="2.05507">
        <ele>544.2</ele>
        <time>2012-08-29T10:17:43Z</time>
      </trkpt>
      <trkpt lat="45.10141" lon="2.05513">
        <ele>547.1</ele>
        <time>2012-08-29T10:17:47Z</time>
      </trkpt>
      <trkpt lat="45.10148" lon="2.05515">
        <ele>544.2</ele>
        <time>2012-08-29T10:17:48Z</time>
      </trkpt>
      <trkpt lat="45.10154" lon="2.05517">
        <ele>547.1</ele>
        <time>2012-08-29T10:17:49Z</time>
      </trkpt>
      <trkpt lat="45.10205" lon="2.05532">
        <ele>550</ele>
        <time>2012-08-29T10:17:57Z</time>
      </trkpt>
      <trkpt lat="45.10265" lon="2.05552">
        <ele>551.5</ele>
        <time>2012-08-29T10:18:06Z</time>
      </trkpt>
      <trkpt lat="45.10326" lon="2.05558">
        <ele>552.4</ele>
        <time>2012-08-29T10:18:15Z</time>
      </trkpt>
      <trkpt lat="45.1037" lon="2.05565">
        <ele>553.9</ele>
        <time>2012-08-29T10:18:22Z</time>
      </trkpt>
      <trkpt lat="45.10434" lon="2.05577">
        <ele>555.3</ele>
        <time>2012-08-29T10:18:31Z</time>
      </trkpt>
      <trkpt lat="45.10496" lon="2.05589">
        <ele>555.3</ele>
        <time>2012-08-29T10:18:40Z</time>
      </trkpt>
      <trkpt lat="45.10545" lon="2.05592">
        <ele>556.3</ele>
        <time>2012-08-29T10:18:47Z</time>
      </trkpt>
      <trkpt lat="45.10602" lon="2.05594">
        <ele>558.7</ele>
        <time>2012-08-29T10:18:54Z</time>
      </trkpt>
      <trkpt lat="45.10665" lon="2.05592">
        <ele>560.1</ele>
        <time>2012-08-29T10:19:02Z</time>
      </trkpt>
      <trkpt lat="45.10713" lon="2.05591">
        <ele>562.5</ele>
        <time>2012-08-29T10:19:09Z</time>
      </trkpt>
      <trkpt lat="45.10747" lon="2.0559">
        <ele>563.5</ele>
        <time>2012-08-29T10:19:14Z</time>
      </trkpt>
      <trkpt lat="45.10802" lon="2.05582">
        <ele>564.4</ele>
        <time>2012-08-29T10:19:22Z</time>
      </trkpt>
      <trkpt lat="45.10875" lon="2.0557">
        <ele>562.5</ele>
        <time>2012-08-29T10:19:32Z</time>
      </trkpt>
      <trkpt lat="45.10956" lon="2.05553">
        <ele>562</ele>
        <time>2012-08-29T10:19:43Z</time>
      </trkpt>
      <trkpt lat="45.11016" lon="2.05543">
        <ele>562</ele>
        <time>2012-08-29T10:19:52Z</time>
      </trkpt>
      <trkpt lat="45.11043" lon="2.05539">
        <ele>562</ele>
        <time>2012-08-29T10:19:58Z</time>
      </trkpt>
      <trkpt lat="45.11082" lon="2.0553">
        <ele>563</ele>
        <time>2012-08-29T10:20:10Z</time>
      </trkpt>
      <trkpt lat="45.11113" lon="2.05525">
        <ele>564.4</ele>
        <time>2012-08-29T10:20:18Z</time>
      </trkpt>
      <trkpt lat="45.11126" lon="2.05522">
        <ele>564.9</ele>
        <time>2012-08-29T10:20:21Z</time>
      </trkpt>
      <trkpt lat="45.11162" lon="2.05521">
        <ele>566.8</ele>
        <time>2012-08-29T10:20:29Z</time>
      </trkpt>
      <trkpt lat="45.11213" lon="2.05515">
        <ele>567.3</ele>
        <time>2012-08-29T10:20:39Z</time>
      </trkpt>
      <trkpt lat="45.11259" lon="2.05498">
        <ele>568.8</ele>
        <time>2012-08-29T10:20:48Z</time>
      </trkpt>
      <trkpt lat="45.11279" lon="2.05487">
        <ele>569.7</ele>
        <time>2012-08-29T10:20:54Z</time>
      </trkpt>
      <trkpt lat="45.11286" lon="2.05459">
        <ele>569.2</ele>
        <time>2012-08-29T10:21:02Z</time>
      </trkpt>
      <trkpt lat="45.1129" lon="2.05429">
        <ele>568.8</ele>
        <time>2012-08-29T10:21:10Z</time>
      </trkpt>
      <trkpt lat="45.11296" lon="2.05404">
        <ele>568.3</ele>
        <time>2012-08-29T10:21:18Z</time>
      </trkpt>
      <trkpt lat="45.11299" lon="2.05397">
        <ele>567.8</ele>
        <time>2012-08-29T10:21:25Z</time>
      </trkpt>
      <trkpt lat="45.113" lon="2.05396">
        <ele>568.3</ele>
        <time>2012-08-29T10:21:40Z</time>
      </trkpt>
      <trkpt lat="45.113" lon="2.05396">
        <ele>568.3</ele>
        <time>2012-08-29T10:21:57Z</time>
      </trkpt>
      <trkpt lat="45.11304" lon="2.0538">
        <ele>568.3</ele>
        <time>2012-08-29T10:22:05Z</time>
      </trkpt>
      <trkpt lat="45.11308" lon="2.05362">
        <ele>570.7</ele>
        <time>2012-08-29T10:22:10Z</time>
      </trkpt>
      <trkpt lat="45.11309" lon="2.05358">
        <ele>564.9</ele>
        <time>2012-08-29T10:22:11Z</time>
      </trkpt>
      <trkpt lat="45.1131" lon="2.05354">
        <ele>568.3</ele>
        <time>2012-08-29T10:22:12Z</time>
      </trkpt>
      <trkpt lat="45.11321" lon="2.05323">
        <ele>566.8</ele>
        <time>2012-08-29T10:22:21Z</time>
      </trkpt>
      <trkpt lat="45.11335" lon="2.05281">
        <ele>566.3</ele>
        <time>2012-08-29T10:22:30Z</time>
      </trkpt>
      <trkpt lat="45.11346" lon="2.05256">
        <ele>563.5</ele>
        <time>2012-08-29T10:22:38Z</time>
      </trkpt>
      <trkpt lat="45.11359" lon="2.05235">
        <ele>562.5</ele>
        <time>2012-08-29T10:22:46Z</time>
      </trkpt>
      <trkpt lat="45.11363" lon="2.05228">
        <ele>563</ele>
        <time>2012-08-29T10:22:50Z</time>
      </trkpt>
      <trkpt lat="45.11363" lon="2.05225">
        <ele>563</ele>
        <time>2012-08-29T10:22:51Z</time>
      </trkpt>
      <trkpt lat="45.11372" lon="2.05199">
        <ele>562.5</ele>
        <time>2012-08-29T10:23:00Z</time>
      </trkpt>
      <trkpt lat="45.1138" lon="2.05171">
        <ele>563</ele>
        <time>2012-08-29T10:23:08Z</time>
      </trkpt>
      <trkpt lat="45.11385" lon="2.05147">
        <ele>564.4</ele>
        <time>2012-08-29T10:23:16Z</time>
      </trkpt>
      <trkpt lat="45.11391" lon="2.05135">
        <ele>564.9</ele>
        <time>2012-08-29T10:23:22Z</time>
      </trkpt>
      <trkpt lat="45.11394" lon="2.05129">
        <ele>565.4</ele>
        <time>2012-08-29T10:23:25Z</time>
      </trkpt>
      <trkpt lat="45.11401" lon="2.05108">
        <ele>566.3</ele>
        <time>2012-08-29T10:23:35Z</time>
      </trkpt>
      <trkpt lat="45.11404" lon="2.05099">
        <ele>567.3</ele>
        <time>2012-08-29T10:23:44Z</time>
      </trkpt>
      <trkpt lat="45.11405" lon="2.05093">
        <ele>567.8</ele>
        <time>2012-08-29T10:23:48Z</time>
      </trkpt>
      <trkpt lat="45.11405" lon="2.05091">
        <ele>567.8</ele>
        <time>2012-08-29T10:23:49Z</time>
      </trkpt>
      <trkpt lat="45.11406" lon="2.05088">
        <ele>568.3</ele>
        <time>2012-08-29T10:23:50Z</time>
      </trkpt>
      <trkpt lat="45.11417" lon="2.05058">
        <ele>569.2</ele>
        <time>2012-08-29T10:23:59Z</time>
      </trkpt>
      <trkpt lat="45.11418" lon="2.05047">
        <ele>568.8</ele>
        <time>2012-08-29T10:24:06Z</time>
      </trkpt>
      <trkpt lat="45.11418" lon="2.05046">
        <ele>568.8</ele>
        <time>2012-08-29T10:24:14Z</time>
      </trkpt>
      <trkpt lat="45.11418" lon="2.05046">
        <ele>568.3</ele>
        <time>2012-08-29T10:24:27Z</time>
      </trkpt>
      <trkpt lat="45.11418" lon="2.05046">
        <ele>569.2</ele>
        <time>2012-08-29T10:24:43Z</time>
      </trkpt>
      <trkpt lat="45.11418" lon="2.05046">
        <ele>568.3</ele>
        <time>2012-08-29T10:24:54Z</time>
      </trkpt>
      <trkpt lat="45.11418" lon="2.05046">
        <ele>568.3</ele>
        <time>2012-08-29T10:25:06Z</time>
      </trkpt>
      <trkpt lat="45.11418" lon="2.05046">
        <ele>568.8</ele>
        <time>2012-08-29T10:25:20Z</time>
      </trkpt>
      <trkpt lat="45.11418" lon="2.05046">
        <ele>568.3</ele>
        <time>2012-08-29T10:25:34Z</time>
      </trkpt>
      <trkpt lat="45.114" lon="2.05086">
        <ele>568.8</ele>
        <time>2012-08-29T10:25:47Z</time>
      </trkpt>
      <trkpt lat="45.11414" lon="2.05031">
        <ele>568.3</ele>
        <time>2012-08-29T10:26:43Z</time>
      </trkpt>
      <trkpt lat="45.11415" lon="2.05033">
        <ele>567.8</ele>
        <time>2012-08-29T10:26:54Z</time>
      </trkpt>
      <trkpt lat="45.11417" lon="2.05025">
        <ele>567.8</ele>
        <time>2012-08-29T10:27:06Z</time>
      </trkpt>
      <trkpt lat="45.11417" lon="2.05027">
        <ele>568.3</ele>
        <time>2012-08-29T10:27:19Z</time>
      </trkpt>
      <trkpt lat="45.11422" lon="2.05033">
        <ele>567.8</ele>
        <time>2012-08-29T10:27:29Z</time>
      </trkpt>
      <trkpt lat="45.11425" lon="2.05031">
        <ele>567.8</ele>
        <time>2012-08-29T10:27:48Z</time>
      </trkpt>
      <trkpt lat="45.11424" lon="2.05036">
        <ele>568.8</ele>
        <time>2012-08-29T10:28:07Z</time>
      </trkpt>
      <trkpt lat="45.11423" lon="2.05035">
        <ele>568.3</ele>
        <time>2012-08-29T10:28:23Z</time>
      </trkpt>
      <trkpt lat="45.11423" lon="2.05035">
        <ele>567.8</ele>
        <time>2012-08-29T10:28:39Z</time>
      </trkpt>
      <trkpt lat="45.11423" lon="2.05035">
        <ele>568.3</ele>
        <time>2012-08-29T10:28:55Z</time>
      </trkpt>
      <trkpt lat="45.11422" lon="2.05036">
        <ele>567.8</ele>
        <time>2012-08-29T10:29:12Z</time>
      </trkpt>
      <trkpt lat="45.11422" lon="2.05036">
        <ele>568.3</ele>
        <time>2012-08-29T10:29:32Z</time>
      </trkpt>
      <trkpt lat="45.11422" lon="2.05036">
        <ele>567.8</ele>
        <time>2012-08-29T10:29:54Z</time>
      </trkpt>
      <trkpt lat="45.11422" lon="2.05036">
        <ele>568.3</ele>
        <time>2012-08-29T10:30:13Z</time>
      </trkpt>
      <trkpt lat="45.11422" lon="2.05036">
        <ele>568.3</ele>
        <time>2012-08-29T10:30:33Z</time>
      </trkpt>
      <trkpt lat="45.11422" lon="2.05036">
        <ele>568.8</ele>
        <time>2012-08-29T10:30:55Z</time>
      </trkpt>
      <trkpt lat="45.11422" lon="2.05036">
        <ele>568.3</ele>
        <time>2012-08-29T10:31:18Z</time>
      </trkpt>
      <trkpt lat="45.11422" lon="2.05036">
        <ele>568.3</ele>
        <time>2012-08-29T10:31:40Z</time>
      </trkpt>
      <trkpt lat="45.11422" lon="2.05036">
        <ele>568.3</ele>
        <time>2012-08-29T10:31:59Z</time>
      </trkpt>
      <trkpt lat="45.11422" lon="2.05036">
        <ele>568.3</ele>
        <time>2012-08-29T10:32:15Z</time>
      </trkpt>
      <trkpt lat="45.11422" lon="2.05036">
        <ele>568.8</ele>
        <time>2012-08-29T10:32:30Z</time>
      </trkpt>
      <trkpt lat="45.11422" lon="2.05036">
        <ele>567.3</ele>
        <time>2012-08-29T10:32:42Z</time>
      </trkpt>
      <trkpt lat="45.11422" lon="2.05036">
        <ele>567.8</ele>
        <time>2012-08-29T10:32:54Z</time>
      </trkpt>
      <trkpt lat="45.11422" lon="2.05036">
        <ele>567.8</ele>
        <time>2012-08-29T10:33:08Z</time>
      </trkpt>
      <trkpt lat="45.11422" lon="2.05036">
        <ele>567.8</ele>
        <time>2012-08-29T10:33:24Z</time>
      </trkpt>
      <trkpt lat="45.11422" lon="2.05036">
        <ele>567.8</ele>
        <time>2012-08-29T10:33:44Z</time>
      </trkpt>
      <trkpt lat="45.11421" lon="2.05035">
        <ele>567.8</ele>
        <time>2012-08-29T10:34:06Z</time>
      </trkpt>
      <trkpt lat="45.11421" lon="2.05035">
        <ele>568.3</ele>
        <time>2012-08-29T10:34:27Z</time>
      </trkpt>
      <trkpt lat="45.11422" lon="2.05035">
        <ele>568.3</ele>
        <time>2012-08-29T10:34:50Z</time>
      </trkpt>
      <trkpt lat="45.11422" lon="2.05035">
        <ele>567.8</ele>
        <time>2012-08-29T10:35:07Z</time>
      </trkpt>
      <trkpt lat="45.11421" lon="2.05035">
        <ele>567.8</ele>
        <time>2012-08-29T10:35:26Z</time>
      </trkpt>
      <trkpt lat="45.11421" lon="2.05035">
        <ele>567.3</ele>
        <time>2012-08-29T10:35:41Z</time>
      </trkpt>
      <trkpt lat="45.11421" lon="2.05034">
        <ele>567.3</ele>
        <time>2012-08-29T10:36:03Z</time>
      </trkpt>
      <trkpt lat="45.11421" lon="2.05034">
        <ele>567.8</ele>
        <time>2012-08-29T10:36:20Z</time>
      </trkpt>
      <trkpt lat="45.11421" lon="2.05034">
        <ele>567.8</ele>
        <time>2012-08-29T10:36:36Z</time>
      </trkpt>
      <trkpt lat="45.11421" lon="2.05034">
        <ele>567.8</ele>
        <time>2012-08-29T10:36:53Z</time>
      </trkpt>
      <trkpt lat="45.11421" lon="2.05034">
        <ele>567.3</ele>
        <time>2012-08-29T10:37:11Z</time>
      </trkpt>
      <trkpt lat="45.11421" lon="2.05034">
        <ele>567.8</ele>
        <time>2012-08-29T10:37:27Z</time>
      </trkpt>
      <trkpt lat="45.11421" lon="2.05034">
        <ele>567.3</ele>
        <time>2012-08-29T10:37:44Z</time>
      </trkpt>
      <trkpt lat="45.11421" lon="2.05034">
        <ele>567.3</ele>
        <time>2012-08-29T10:38:02Z</time>
      </trkpt>
      <trkpt lat="45.11421" lon="2.05034">
        <ele>567.3</ele>
        <time>2012-08-29T10:38:22Z</time>
      </trkpt>
      <trkpt lat="45.11421" lon="2.05034">
        <ele>566.8</ele>
        <time>2012-08-29T10:38:40Z</time>
      </trkpt>
      <trkpt lat="45.11421" lon="2.05034">
        <ele>567.3</ele>
        <time>2012-08-29T10:38:59Z</time>
      </trkpt>
      <trkpt lat="45.11421" lon="2.05033">
        <ele>566.8</ele>
        <time>2012-08-29T10:39:17Z</time>
      </trkpt>
      <trkpt lat="45.11421" lon="2.05033">
        <ele>566.8</ele>
        <time>2012-08-29T10:39:38Z</time>
      </trkpt>
      <trkpt lat="45.11421" lon="2.05033">
        <ele>567.3</ele>
        <time>2012-08-29T10:40:01Z</time>
      </trkpt>
      <trkpt lat="45.11421" lon="2.05033">
        <ele>567.8</ele>
        <time>2012-08-29T10:40:22Z</time>
      </trkpt>
      <trkpt lat="45.11421" lon="2.05033">
        <ele>567.3</ele>
        <time>2012-08-29T10:40:47Z</time>
      </trkpt>
      <trkpt lat="45.11421" lon="2.05033">
        <ele>567.8</ele>
        <time>2012-08-29T10:41:03Z</time>
      </trkpt>
      <trkpt lat="45.11421" lon="2.05032">
        <ele>567.8</ele>
        <time>2012-08-29T10:41:25Z</time>
      </trkpt>
      <trkpt lat="45.11421" lon="2.05032">
        <ele>567.3</ele>
        <time>2012-08-29T10:41:50Z</time>
      </trkpt>
      <trkpt lat="45.11421" lon="2.05032">
        <ele>567.3</ele>
        <time>2012-08-29T10:42:08Z</time>
      </trkpt>
      <trkpt lat="45.11421" lon="2.05032">
        <ele>567.3</ele>
        <time>2012-08-29T10:42:24Z</time>
      </trkpt>
      <trkpt lat="45.11421" lon="2.05032">
        <ele>567.3</ele>
        <time>2012-08-29T10:42:43Z</time>
      </trkpt>
      <trkpt lat="45.11421" lon="2.05032">
        <ele>567.3</ele>
        <time>2012-08-29T10:43:01Z</time>
      </trkpt>
      <trkpt lat="45.11421" lon="2.05031">
        <ele>567.3</ele>
        <time>2012-08-29T10:43:19Z</time>
      </trkpt>
      <trkpt lat="45.11421" lon="2.05031">
        <ele>567.8</ele>
        <time>2012-08-29T10:43:38Z</time>
      </trkpt>
      <trkpt lat="45.11421" lon="2.05031">
        <ele>567.3</ele>
        <time>2012-08-29T10:44:00Z</time>
      </trkpt>
      <trkpt lat="45.11421" lon="2.05031">
        <ele>567.8</ele>
        <time>2012-08-29T10:44:19Z</time>
      </trkpt>
      <trkpt lat="45.11421" lon="2.05031">
        <ele>567.8</ele>
        <time>2012-08-29T10:44:38Z</time>
      </trkpt>
      <trkpt lat="45.11421" lon="2.05031">
        <ele>567.3</ele>
        <time>2012-08-29T10:44:59Z</time>
      </trkpt>
      <trkpt lat="45.11421" lon="2.05031">
        <ele>567.8</ele>
        <time>2012-08-29T10:45:15Z</time>
      </trkpt>
      <trkpt lat="45.11421" lon="2.05031">
        <ele>567.3</ele>
        <time>2012-08-29T10:45:32Z</time>
      </trkpt>
      <trkpt lat="45.11421" lon="2.05031">
        <ele>567.3</ele>
        <time>2012-08-29T10:45:52Z</time>
      </trkpt>
      <trkpt lat="45.11421" lon="2.05031">
        <ele>567.8</ele>
        <time>2012-08-29T10:46:12Z</time>
      </trkpt>
      <trkpt lat="45.11421" lon="2.05031">
        <ele>567.8</ele>
        <time>2012-08-29T10:46:30Z</time>
      </trkpt>
      <trkpt lat="45.11421" lon="2.0503">
        <ele>567.8</ele>
        <time>2012-08-29T10:46:50Z</time>
      </trkpt>
      <trkpt lat="45.11421" lon="2.0503">
        <ele>567.8</ele>
        <time>2012-08-29T10:47:12Z</time>
      </trkpt>
      <trkpt lat="45.11421" lon="2.0503">
        <ele>568.3</ele>
        <time>2012-08-29T10:47:29Z</time>
      </trkpt>
      <trkpt lat="45.11421" lon="2.0503">
        <ele>567.8</ele>
        <time>2012-08-29T10:47:49Z</time>
      </trkpt>
      <trkpt lat="45.1142" lon="2.05029">
        <ele>567.8</ele>
        <time>2012-08-29T10:48:08Z</time>
      </trkpt>
      <trkpt lat="45.1142" lon="2.05029">
        <ele>567.8</ele>
        <time>2012-08-29T10:48:21Z</time>
      </trkpt>
      <trkpt lat="45.1142" lon="2.05029">
        <ele>568.3</ele>
        <time>2012-08-29T10:48:37Z</time>
      </trkpt>
      <trkpt lat="45.1142" lon="2.05029">
        <ele>567.8</ele>
        <time>2012-08-29T10:48:50Z</time>
      </trkpt>
      <trkpt lat="45.1142" lon="2.05029">
        <ele>568.3</ele>
        <time>2012-08-29T10:49:07Z</time>
      </trkpt>
      <trkpt lat="45.1142" lon="2.05029">
        <ele>568.3</ele>
        <time>2012-08-29T10:49:24Z</time>
      </trkpt>
      <trkpt lat="45.1142" lon="2.05029">
        <ele>568.3</ele>
        <time>2012-08-29T10:49:40Z</time>
      </trkpt>
      <trkpt lat="45.1142" lon="2.05029">
        <ele>568.3</ele>
        <time>2012-08-29T10:50:00Z</time>
      </trkpt>
      <trkpt lat="45.1142" lon="2.05029">
        <ele>568.3</ele>
        <time>2012-08-29T10:50:14Z</time>
      </trkpt>
      <trkpt lat="45.1142" lon="2.05029">
        <ele>567.8</ele>
        <time>2012-08-29T10:50:29Z</time>
      </trkpt>
      <trkpt lat="45.1142" lon="2.05029">
        <ele>567.8</ele>
        <time>2012-08-29T10:50:44Z</time>
      </trkpt>
      <trkpt lat="45.1142" lon="2.05029">
        <ele>567.8</ele>
        <time>2012-08-29T10:51:04Z</time>
      </trkpt>
      <trkpt lat="45.1142" lon="2.05029">
        <ele>567.8</ele>
        <time>2012-08-29T10:51:22Z</time>
      </trkpt>
      <trkpt lat="45.1142" lon="2.05029">
        <ele>568.3</ele>
        <time>2012-08-29T10:51:41Z</time>
      </trkpt>
      <trkpt lat="45.1142" lon="2.05029">
        <ele>568.8</ele>
        <time>2012-08-29T10:51:58Z</time>
      </trkpt>
      <trkpt lat="45.1142" lon="2.05029">
        <ele>568.3</ele>
        <time>2012-08-29T10:52:13Z</time>
      </trkpt>
      <trkpt lat="45.1142" lon="2.0503">
        <ele>568.8</ele>
        <time>2012-08-29T10:52:35Z</time>
      </trkpt>
      <trkpt lat="45.1142" lon="2.0503">
        <ele>568.3</ele>
        <time>2012-08-29T10:52:58Z</time>
      </trkpt>
      <trkpt lat="45.1142" lon="2.05029">
        <ele>568.8</ele>
        <time>2012-08-29T10:53:19Z</time>
      </trkpt>
      <trkpt lat="45.1142" lon="2.05029">
        <ele>568.3</ele>
        <time>2012-08-29T10:53:49Z</time>
      </trkpt>
      <trkpt lat="45.1142" lon="2.05029">
        <ele>568.8</ele>
        <time>2012-08-29T10:54:08Z</time>
      </trkpt>
      <trkpt lat="45.1142" lon="2.05029">
        <ele>568.8</ele>
        <time>2012-08-29T10:54:26Z</time>
      </trkpt>
      <trkpt lat="45.1142" lon="2.05029">
        <ele>568.8</ele>
        <time>2012-08-29T10:54:42Z</time>
      </trkpt>
      <trkpt lat="45.1142" lon="2.05029">
        <ele>569.2</ele>
        <time>2012-08-29T10:55:00Z</time>
      </trkpt>
      <trkpt lat="45.1142" lon="2.0503">
        <ele>569.2</ele>
        <time>2012-08-29T10:55:21Z</time>
      </trkpt>
      <trkpt lat="45.1142" lon="2.0503">
        <ele>569.2</ele>
        <time>2012-08-29T10:55:41Z</time>
      </trkpt>
      <trkpt lat="45.11421" lon="2.05029">
        <ele>569.2</ele>
        <time>2012-08-29T10:55:57Z</time>
      </trkpt>
      <trkpt lat="45.11421" lon="2.05029">
        <ele>569.2</ele>
        <time>2012-08-29T10:56:16Z</time>
      </trkpt>
      <trkpt lat="45.11421" lon="2.05029">
        <ele>569.2</ele>
        <time>2012-08-29T10:56:35Z</time>
      </trkpt>
      <trkpt lat="45.11421" lon="2.05029">
        <ele>569.7</ele>
        <time>2012-08-29T10:56:56Z</time>
      </trkpt>
      <trkpt lat="45.11421" lon="2.05029">
        <ele>569.2</ele>
        <time>2012-08-29T10:57:13Z</time>
      </trkpt>
      <trkpt lat="45.1142" lon="2.05029">
        <ele>569.2</ele>
        <time>2012-08-29T10:57:30Z</time>
      </trkpt>
      <trkpt lat="45.1142" lon="2.05029">
        <ele>569.7</ele>
        <time>2012-08-29T10:57:46Z</time>
      </trkpt>
      <trkpt lat="45.11421" lon="2.05029">
        <ele>569.7</ele>
        <time>2012-08-29T10:58:05Z</time>
      </trkpt>
      <trkpt lat="45.11421" lon="2.05029">
        <ele>569.7</ele>
        <time>2012-08-29T10:58:23Z</time>
      </trkpt>
      <trkpt lat="45.11421" lon="2.05029">
        <ele>570.2</ele>
        <time>2012-08-29T10:58:42Z</time>
      </trkpt>
      <trkpt lat="45.11421" lon="2.05029">
        <ele>569.7</ele>
        <time>2012-08-29T10:59:00Z</time>
      </trkpt>
      <trkpt lat="45.11421" lon="2.05028">
        <ele>569.7</ele>
        <time>2012-08-29T10:59:19Z</time>
      </trkpt>
      <trkpt lat="45.11421" lon="2.05028">
        <ele>569.7</ele>
        <time>2012-08-29T10:59:38Z</time>
      </trkpt>
      <trkpt lat="45.11422" lon="2.05029">
        <ele>569.7</ele>
        <time>2012-08-29T10:59:49Z</time>
      </trkpt>
      <trkpt lat="45.11422" lon="2.05029">
        <ele>569.7</ele>
        <time>2012-08-29T11:00:04Z</time>
      </trkpt>
      <trkpt lat="45.11422" lon="2.05029">
        <ele>569.7</ele>
        <time>2012-08-29T11:00:22Z</time>
      </trkpt>
      <trkpt lat="45.11422" lon="2.05028">
        <ele>570.2</ele>
        <time>2012-08-29T11:00:43Z</time>
      </trkpt>
      <trkpt lat="45.11422" lon="2.05028">
        <ele>569.7</ele>
        <time>2012-08-29T11:00:58Z</time>
      </trkpt>
      <trkpt lat="45.11422" lon="2.05029">
        <ele>569.2</ele>
        <time>2012-08-29T11:01:13Z</time>
      </trkpt>
      <trkpt lat="45.11422" lon="2.05029">
        <ele>569.7</ele>
        <time>2012-08-29T11:01:30Z</time>
      </trkpt>
      <trkpt lat="45.11422" lon="2.05029">
        <ele>569.7</ele>
        <time>2012-08-29T11:01:44Z</time>
      </trkpt>
      <trkpt lat="45.11422" lon="2.05029">
        <ele>569.7</ele>
        <time>2012-08-29T11:02:02Z</time>
      </trkpt>
      <trkpt lat="45.11422" lon="2.05029">
        <ele>569.2</ele>
        <time>2012-08-29T11:02:22Z</time>
      </trkpt>
      <trkpt lat="45.11422" lon="2.05028">
        <ele>568.8</ele>
        <time>2012-08-29T11:02:40Z</time>
      </trkpt>
      <trkpt lat="45.11422" lon="2.05028">
        <ele>569.7</ele>
        <time>2012-08-29T11:03:02Z</time>
      </trkpt>
      <trkpt lat="45.11422" lon="2.05028">
        <ele>569.2</ele>
        <time>2012-08-29T11:03:20Z</time>
      </trkpt>
      <trkpt lat="45.11422" lon="2.05028">
        <ele>569.2</ele>
        <time>2012-08-29T11:03:38Z</time>
      </trkpt>
      <trkpt lat="45.11422" lon="2.05028">
        <ele>569.2</ele>
        <time>2012-08-29T11:03:52Z</time>
      </trkpt>
      <trkpt lat="45.11417" lon="2.05034">
        <ele>569.2</ele>
        <time>2012-08-29T11:04:05Z</time>
      </trkpt>
      <trkpt lat="45.11417" lon="2.05034">
        <ele>569.7</ele>
        <time>2012-08-29T11:04:20Z</time>
      </trkpt>
      <trkpt lat="45.11417" lon="2.05034">
        <ele>568.8</ele>
        <time>2012-08-29T11:04:33Z</time>
      </trkpt>
      <trkpt lat="45.11417" lon="2.05033">
        <ele>569.2</ele>
        <time>2012-08-29T11:04:51Z</time>
      </trkpt>
      <trkpt lat="45.11417" lon="2.05033">
        <ele>568.8</ele>
        <time>2012-08-29T11:05:07Z</time>
      </trkpt>
      <trkpt lat="45.11412" lon="2.05036">
        <ele>568.8</ele>
        <time>2012-08-29T11:05:19Z</time>
      </trkpt>
      <trkpt lat="45.11413" lon="2.05032">
        <ele>569.2</ele>
        <time>2012-08-29T11:05:34Z</time>
      </trkpt>
      <trkpt lat="45.11413" lon="2.05032">
        <ele>569.7</ele>
        <time>2012-08-29T11:05:49Z</time>
      </trkpt>
      <trkpt lat="45.11413" lon="2.05032">
        <ele>568.8</ele>
        <time>2012-08-29T11:06:10Z</time>
      </trkpt>
      <trkpt lat="45.11414" lon="2.05032">
        <ele>568.8</ele>
        <time>2012-08-29T11:06:26Z</time>
      </trkpt>
      <trkpt lat="45.11414" lon="2.05032">
        <ele>568.8</ele>
        <time>2012-08-29T11:06:38Z</time>
      </trkpt>
      <trkpt lat="45.11414" lon="2.05032">
        <ele>569.2</ele>
        <time>2012-08-29T11:06:58Z</time>
      </trkpt>
      <trkpt lat="45.11414" lon="2.05032">
        <ele>568.8</ele>
        <time>2012-08-29T11:07:15Z</time>
      </trkpt>
      <trkpt lat="45.11414" lon="2.05032">
        <ele>568.8</ele>
        <time>2012-08-29T11:07:30Z</time>
      </trkpt>
      <trkpt lat="45.11414" lon="2.05032">
        <ele>568.3</ele>
        <time>2012-08-29T11:07:46Z</time>
      </trkpt>
      <trkpt lat="45.11414" lon="2.05032">
        <ele>568.8</ele>
        <time>2012-08-29T11:07:58Z</time>
      </trkpt>
      <trkpt lat="45.11414" lon="2.05031">
        <ele>567.8</ele>
        <time>2012-08-29T11:08:16Z</time>
      </trkpt>
      <trkpt lat="45.11415" lon="2.0503">
        <ele>568.8</ele>
        <time>2012-08-29T11:08:27Z</time>
      </trkpt>
      <trkpt lat="45.11415" lon="2.0503">
        <ele>568.3</ele>
        <time>2012-08-29T11:08:38Z</time>
      </trkpt>
      <trkpt lat="45.11415" lon="2.0503">
        <ele>567.8</ele>
        <time>2012-08-29T11:08:51Z</time>
      </trkpt>
      <trkpt lat="45.11414" lon="2.05028">
        <ele>568.3</ele>
        <time>2012-08-29T11:09:02Z</time>
      </trkpt>
      <trkpt lat="45.11414" lon="2.05028">
        <ele>567.8</ele>
        <time>2012-08-29T11:09:15Z</time>
      </trkpt>
      <trkpt lat="45.11418" lon="2.0501">
        <ele>567.8</ele>
        <time>2012-08-29T11:09:25Z</time>
      </trkpt>
      <trkpt lat="45.11422" lon="2.05">
        <ele>568.3</ele>
        <time>2012-08-29T11:09:36Z</time>
      </trkpt>
      <trkpt lat="45.11423" lon="2.04988">
        <ele>567.8</ele>
        <time>2012-08-29T11:09:46Z</time>
      </trkpt>
      <trkpt lat="45.11423" lon="2.04988">
        <ele>567.8</ele>
        <time>2012-08-29T11:09:58Z</time>
      </trkpt>
      <trkpt lat="45.11423" lon="2.04988">
        <ele>562</ele>
        <time>2012-08-29T11:10:05Z</time>
      </trkpt>
      <trkpt lat="45.11423" lon="2.04988">
        <ele>566.3</ele>
        <time>2012-08-29T11:10:06Z</time>
      </trkpt>
      <trkpt lat="45.11423" lon="2.04988">
        <ele>568.3</ele>
        <time>2012-08-29T11:10:08Z</time>
      </trkpt>
      <trkpt lat="45.11423" lon="2.04987">
        <ele>568.3</ele>
        <time>2012-08-29T11:10:13Z</time>
      </trkpt>
      <trkpt lat="45.11421" lon="2.04976">
        <ele>567.8</ele>
        <time>2012-08-29T11:10:21Z</time>
      </trkpt>
      <trkpt lat="45.11422" lon="2.0497">
        <ele>567.8</ele>
        <time>2012-08-29T11:10:23Z</time>
      </trkpt>
      <trkpt lat="45.11423" lon="2.04924">
        <ele>568.8</ele>
        <time>2012-08-29T11:10:34Z</time>
      </trkpt>
      <trkpt lat="45.11431" lon="2.04885">
        <ele>570.7</ele>
        <time>2012-08-29T11:10:40Z</time>
      </trkpt>
      <trkpt lat="45.11436" lon="2.04838">
        <ele>572.6</ele>
        <time>2012-08-29T11:10:48Z</time>
      </trkpt>
      <trkpt lat="45.11437" lon="2.0483">
        <ele>573.1</ele>
        <time>2012-08-29T11:10:49Z</time>
      </trkpt>
      <trkpt lat="45.1145" lon="2.0478">
        <ele>575</ele>
        <time>2012-08-29T11:10:57Z</time>
      </trkpt>
      <trkpt lat="45.11462" lon="2.04752">
        <ele>576.9</ele>
        <time>2012-08-29T11:11:04Z</time>
      </trkpt>
      <trkpt lat="45.11464" lon="2.0475">
        <ele>577.4</ele>
        <time>2012-08-29T11:11:05Z</time>
      </trkpt>
      <trkpt lat="45.11466" lon="2.0475">
        <ele>577.9</ele>
        <time>2012-08-29T11:11:06Z</time>
      </trkpt>
      <trkpt lat="45.11469" lon="2.0475">
        <ele>577.4</ele>
        <time>2012-08-29T11:11:07Z</time>
      </trkpt>
      <trkpt lat="45.11475" lon="2.04751">
        <ele>581.2</ele>
        <time>2012-08-29T11:11:09Z</time>
      </trkpt>
      <trkpt lat="45.11479" lon="2.04753">
        <ele>579.3</ele>
        <time>2012-08-29T11:11:10Z</time>
      </trkpt>
      <trkpt lat="45.11483" lon="2.04754">
        <ele>579.3</ele>
        <time>2012-08-29T11:11:11Z</time>
      </trkpt>
      <trkpt lat="45.11524" lon="2.04757">
        <ele>584.6</ele>
        <time>2012-08-29T11:11:19Z</time>
      </trkpt>
      <trkpt lat="45.1153" lon="2.04757">
        <ele>584.1</ele>
        <time>2012-08-29T11:11:20Z</time>
      </trkpt>
      <trkpt lat="45.11587" lon="2.04761">
        <ele>586.1</ele>
        <time>2012-08-29T11:11:30Z</time>
      </trkpt>
      <trkpt lat="45.11611" lon="2.04763">
        <ele>587.5</ele>
        <time>2012-08-29T11:11:36Z</time>
      </trkpt>
      <trkpt lat="45.11615" lon="2.04761">
        <ele>587.5</ele>
        <time>2012-08-29T11:11:37Z</time>
      </trkpt>
      <trkpt lat="45.11617" lon="2.04758">
        <ele>587.5</ele>
        <time>2012-08-29T11:11:38Z</time>
      </trkpt>
      <trkpt lat="45.11618" lon="2.04753">
        <ele>587.5</ele>
        <time>2012-08-29T11:11:39Z</time>
      </trkpt>
      <trkpt lat="45.11618" lon="2.04748">
        <ele>587.5</ele>
        <time>2012-08-29T11:11:40Z</time>
      </trkpt>
      <trkpt lat="45.11618" lon="2.04742">
        <ele>587.5</ele>
        <time>2012-08-29T11:11:41Z</time>
      </trkpt>
      <trkpt lat="45.11617" lon="2.04737">
        <ele>588</ele>
        <time>2012-08-29T11:11:42Z</time>
      </trkpt>
      <trkpt lat="45.11617" lon="2.04732">
        <ele>587.5</ele>
        <time>2012-08-29T11:11:43Z</time>
      </trkpt>
      <trkpt lat="45.11615" lon="2.04727">
        <ele>587.5</ele>
        <time>2012-08-29T11:11:44Z</time>
      </trkpt>
      <trkpt lat="45.11606" lon="2.04683">
        <ele>587</ele>
        <time>2012-08-29T11:11:49Z</time>
      </trkpt>
      <trkpt lat="45.11605" lon="2.04674">
        <ele>585.6</ele>
        <time>2012-08-29T11:11:50Z</time>
      </trkpt>
      <trkpt lat="45.11606" lon="2.04666">
        <ele>585.6</ele>
        <time>2012-08-29T11:11:51Z</time>
      </trkpt>
      <trkpt lat="45.11609" lon="2.04658">
        <ele>585.6</ele>
        <time>2012-08-29T11:11:52Z</time>
      </trkpt>
      <trkpt lat="45.11611" lon="2.0465">
        <ele>585.1</ele>
        <time>2012-08-29T11:11:53Z</time>
      </trkpt>
      <trkpt lat="45.11614" lon="2.04643">
        <ele>584.1</ele>
        <time>2012-08-29T11:11:54Z</time>
      </trkpt>
      <trkpt lat="45.11618" lon="2.04636">
        <ele>584.1</ele>
        <time>2012-08-29T11:11:55Z</time>
      </trkpt>
      <trkpt lat="45.11641" lon="2.04584">
        <ele>580.3</ele>
        <time>2012-08-29T11:12:02Z</time>
      </trkpt>
      <trkpt lat="45.11644" lon="2.04577">
        <ele>580.3</ele>
        <time>2012-08-29T11:12:03Z</time>
      </trkpt>
      <trkpt lat="45.11662" lon="2.04548">
        <ele>578.4</ele>
        <time>2012-08-29T11:12:07Z</time>
      </trkpt>
      <trkpt lat="45.11667" lon="2.04543">
        <ele>577.9</ele>
        <time>2012-08-29T11:12:08Z</time>
      </trkpt>
      <trkpt lat="45.11699" lon="2.04526">
        <ele>577.9</ele>
        <time>2012-08-29T11:12:14Z</time>
      </trkpt>
      <trkpt lat="45.11705" lon="2.04526">
        <ele>576.9</ele>
        <time>2012-08-29T11:12:15Z</time>
      </trkpt>
      <trkpt lat="45.11712" lon="2.04526">
        <ele>575</ele>
        <time>2012-08-29T11:12:16Z</time>
      </trkpt>
      <trkpt lat="45.1172" lon="2.04527">
        <ele>576.9</ele>
        <time>2012-08-29T11:12:17Z</time>
      </trkpt>
      <trkpt lat="45.11736" lon="2.04531">
        <ele>573.1</ele>
        <time>2012-08-29T11:12:19Z</time>
      </trkpt>
      <trkpt lat="45.11785" lon="2.04545">
        <ele>569.7</ele>
        <time>2012-08-29T11:12:25Z</time>
      </trkpt>
      <trkpt lat="45.11792" lon="2.04547">
        <ele>569.7</ele>
        <time>2012-08-29T11:12:26Z</time>
      </trkpt>
      <trkpt lat="45.11811" lon="2.04552">
        <ele>568.3</ele>
        <time>2012-08-29T11:12:29Z</time>
      </trkpt>
      <trkpt lat="45.11827" lon="2.04547">
        <ele>567.8</ele>
        <time>2012-08-29T11:12:34Z</time>
      </trkpt>
      <trkpt lat="45.1183" lon="2.04545">
        <ele>568.3</ele>
        <time>2012-08-29T11:12:37Z</time>
      </trkpt>
      <trkpt lat="45.11832" lon="2.0454">
        <ele>568.3</ele>
        <time>2012-08-29T11:12:38Z</time>
      </trkpt>
      <trkpt lat="45.11842" lon="2.04524">
        <ele>568.3</ele>
        <time>2012-08-29T11:12:41Z</time>
      </trkpt>
      <trkpt lat="45.11846" lon="2.04519">
        <ele>568.8</ele>
        <time>2012-08-29T11:12:42Z</time>
      </trkpt>
      <trkpt lat="45.1185" lon="2.04514">
        <ele>568.8</ele>
        <time>2012-08-29T11:12:43Z</time>
      </trkpt>
      <trkpt lat="45.11854" lon="2.04509">
        <ele>568.3</ele>
        <time>2012-08-29T11:12:44Z</time>
      </trkpt>
      <trkpt lat="45.11858" lon="2.04503">
        <ele>568.8</ele>
        <time>2012-08-29T11:12:45Z</time>
      </trkpt>
      <trkpt lat="45.11861" lon="2.04496">
        <ele>568.3</ele>
        <time>2012-08-29T11:12:46Z</time>
      </trkpt>
      <trkpt lat="45.11886" lon="2.04447">
        <ele>566.8</ele>
        <time>2012-08-29T11:12:53Z</time>
      </trkpt>
      <trkpt lat="45.11911" lon="2.044">
        <ele>565.9</ele>
        <time>2012-08-29T11:13:01Z</time>
      </trkpt>
      <trkpt lat="45.11927" lon="2.04376">
        <ele>564.9</ele>
        <time>2012-08-29T11:13:05Z</time>
      </trkpt>
      <trkpt lat="45.11938" lon="2.04358">
        <ele>564</ele>
        <time>2012-08-29T11:13:08Z</time>
      </trkpt>
      <trkpt lat="45.11971" lon="2.04303">
        <ele>561.5</ele>
        <time>2012-08-29T11:13:17Z</time>
      </trkpt>
      <trkpt lat="45.11979" lon="2.04289">
        <ele>561.5</ele>
        <time>2012-08-29T11:13:19Z</time>
      </trkpt>
      <trkpt lat="45.12012" lon="2.0422">
        <ele>559.6</ele>
        <time>2012-08-29T11:13:27Z</time>
      </trkpt>
      <trkpt lat="45.12042" lon="2.04128">
        <ele>557.2</ele>
        <time>2012-08-29T11:13:37Z</time>
      </trkpt>
      <trkpt lat="45.12064" lon="2.04063">
        <ele>556.3</ele>
        <time>2012-08-29T11:13:45Z</time>
      </trkpt>
      <trkpt lat="45.12079" lon="2.04001">
        <ele>555.8</ele>
        <time>2012-08-29T11:13:53Z</time>
      </trkpt>
      <trkpt lat="45.1208" lon="2.03993">
        <ele>560.1</ele>
        <time>2012-08-29T11:13:54Z</time>
      </trkpt>
      <trkpt lat="45.12085" lon="2.0397">
        <ele>556.7</ele>
        <time>2012-08-29T11:13:57Z</time>
      </trkpt>
      <trkpt lat="45.12091" lon="2.03945">
        <ele>559.1</ele>
        <time>2012-08-29T11:14:01Z</time>
      </trkpt>
      <trkpt lat="45.12093" lon="2.03939">
        <ele>562</ele>
        <time>2012-08-29T11:14:02Z</time>
      </trkpt>
      <trkpt lat="45.12094" lon="2.03933">
        <ele>562</ele>
        <time>2012-08-29T11:14:03Z</time>
      </trkpt>
      <trkpt lat="45.12106" lon="2.03892">
        <ele>562.5</ele>
        <time>2012-08-29T11:14:09Z</time>
      </trkpt>
      <trkpt lat="45.12118" lon="2.03842">
        <ele>564</ele>
        <time>2012-08-29T11:14:16Z</time>
      </trkpt>
      <trkpt lat="45.12112" lon="2.03818">
        <ele>563.5</ele>
        <time>2012-08-29T11:14:21Z</time>
      </trkpt>
      <trkpt lat="45.12107" lon="2.0379">
        <ele>560.6</ele>
        <time>2012-08-29T11:14:27Z</time>
      </trkpt>
      <trkpt lat="45.12106" lon="2.03781">
        <ele>560.1</ele>
        <time>2012-08-29T11:14:29Z</time>
      </trkpt>
      <trkpt lat="45.12107" lon="2.03752">
        <ele>558.2</ele>
        <time>2012-08-29T11:14:35Z</time>
      </trkpt>
      <trkpt lat="45.12109" lon="2.03741">
        <ele>557.2</ele>
        <time>2012-08-29T11:14:37Z</time>
      </trkpt>
      <trkpt lat="45.12111" lon="2.03714">
        <ele>555.3</ele>
        <time>2012-08-29T11:14:44Z</time>
      </trkpt>
      <trkpt lat="45.12112" lon="2.0369">
        <ele>553.4</ele>
        <time>2012-08-29T11:14:49Z</time>
      </trkpt>
      <trkpt lat="45.12121" lon="2.03668">
        <ele>551.9</ele>
        <time>2012-08-29T11:14:55Z</time>
      </trkpt>
      <trkpt lat="45.12137" lon="2.03658">
        <ele>549.5</ele>
        <time>2012-08-29T11:15:00Z</time>
      </trkpt>
      <trkpt lat="45.1215" lon="2.03648">
        <ele>547.1</ele>
        <time>2012-08-29T11:15:06Z</time>
      </trkpt>
      <trkpt lat="45.12168" lon="2.03629">
        <ele>546.7</ele>
        <time>2012-08-29T11:15:12Z</time>
      </trkpt>
      <trkpt lat="45.12192" lon="2.03607">
        <ele>544.2</ele>
        <time>2012-08-29T11:15:19Z</time>
      </trkpt>
      <trkpt lat="45.12211" lon="2.03596">
        <ele>540.4</ele>
        <time>2012-08-29T11:15:27Z</time>
      </trkpt>
      <trkpt lat="45.12215" lon="2.03594">
        <ele>543.8</ele>
        <time>2012-08-29T11:15:28Z</time>
      </trkpt>
      <trkpt lat="45.12237" lon="2.03589">
        <ele>541.4</ele>
        <time>2012-08-29T11:15:35Z</time>
      </trkpt>
      <trkpt lat="45.12263" lon="2.03588">
        <ele>539.9</ele>
        <time>2012-08-29T11:15:42Z</time>
      </trkpt>
      <trkpt lat="45.12299" lon="2.03576">
        <ele>538</ele>
        <time>2012-08-29T11:15:49Z</time>
      </trkpt>
      <trkpt lat="45.12326" lon="2.03561">
        <ele>536.5</ele>
        <time>2012-08-29T11:15:55Z</time>
      </trkpt>
      <trkpt lat="45.1233" lon="2.03558">
        <ele>536.5</ele>
        <time>2012-08-29T11:15:56Z</time>
      </trkpt>
      <trkpt lat="45.12338" lon="2.03549">
        <ele>536.5</ele>
        <time>2012-08-29T11:15:58Z</time>
      </trkpt>
      <trkpt lat="45.12354" lon="2.03523">
        <ele>535.6</ele>
        <time>2012-08-29T11:16:05Z</time>
      </trkpt>
      <trkpt lat="45.12371" lon="2.03502">
        <ele>536.5</ele>
        <time>2012-08-29T11:16:14Z</time>
      </trkpt>
      <trkpt lat="45.12389" lon="2.03484">
        <ele>537</ele>
        <time>2012-08-29T11:16:20Z</time>
      </trkpt>
      <trkpt lat="45.12408" lon="2.03458">
        <ele>536.1</ele>
        <time>2012-08-29T11:16:28Z</time>
      </trkpt>
      <trkpt lat="45.12424" lon="2.03435">
        <ele>534.6</ele>
        <time>2012-08-29T11:16:34Z</time>
      </trkpt>
      <trkpt lat="45.1244" lon="2.03422">
        <ele>534.2</ele>
        <time>2012-08-29T11:16:40Z</time>
      </trkpt>
      <trkpt lat="45.12457" lon="2.03421">
        <ele>533.2</ele>
        <time>2012-08-29T11:16:47Z</time>
      </trkpt>
      <trkpt lat="45.12474" lon="2.03421">
        <ele>531.8</ele>
        <time>2012-08-29T11:16:55Z</time>
      </trkpt>
      <trkpt lat="45.12492" lon="2.03431">
        <ele>530.8</ele>
        <time>2012-08-29T11:17:02Z</time>
      </trkpt>
      <trkpt lat="45.12503" lon="2.03434">
        <ele>530.3</ele>
        <time>2012-08-29T11:17:09Z</time>
      </trkpt>
      <trkpt lat="45.12523" lon="2.0344">
        <ele>530.3</ele>
        <time>2012-08-29T11:17:15Z</time>
      </trkpt>
      <trkpt lat="45.12546" lon="2.03449">
        <ele>530.3</ele>
        <time>2012-08-29T11:17:23Z</time>
      </trkpt>
      <trkpt lat="45.12566" lon="2.03449">
        <ele>529.8</ele>
        <time>2012-08-29T11:17:29Z</time>
      </trkpt>
      <trkpt lat="45.1259" lon="2.03449">
        <ele>529.8</ele>
        <time>2012-08-29T11:17:36Z</time>
      </trkpt>
      <trkpt lat="45.12606" lon="2.03446">
        <ele>530.3</ele>
        <time>2012-08-29T11:17:42Z</time>
      </trkpt>
      <trkpt lat="45.12631" lon="2.03437">
        <ele>530.8</ele>
        <time>2012-08-29T11:17:50Z</time>
      </trkpt>
      <trkpt lat="45.12655" lon="2.03422">
        <ele>530.8</ele>
        <time>2012-08-29T11:17:57Z</time>
      </trkpt>
      <trkpt lat="45.12679" lon="2.03415">
        <ele>529.8</ele>
        <time>2012-08-29T11:18:03Z</time>
      </trkpt>
      <trkpt lat="45.12702" lon="2.03408">
        <ele>530.8</ele>
        <time>2012-08-29T11:18:09Z</time>
      </trkpt>
      <trkpt lat="45.12724" lon="2.03382">
        <ele>531.8</ele>
        <time>2012-08-29T11:18:16Z</time>
      </trkpt>
      <trkpt lat="45.12749" lon="2.03353">
        <ele>531.8</ele>
        <time>2012-08-29T11:18:24Z</time>
      </trkpt>
      <trkpt lat="45.12775" lon="2.03327">
        <ele>531.8</ele>
        <time>2012-08-29T11:18:33Z</time>
      </trkpt>
      <trkpt lat="45.1279" lon="2.03317">
        <ele>531.8</ele>
        <time>2012-08-29T11:18:40Z</time>
      </trkpt>
      <trkpt lat="45.12791" lon="2.03318">
        <ele>532.2</ele>
        <time>2012-08-29T11:18:42Z</time>
      </trkpt>
      <trkpt lat="45.12793" lon="2.0332">
        <ele>532.7</ele>
        <time>2012-08-29T11:18:43Z</time>
      </trkpt>
      <trkpt lat="45.12794" lon="2.03324">
        <ele>533.2</ele>
        <time>2012-08-29T11:18:44Z</time>
      </trkpt>
      <trkpt lat="45.12796" lon="2.0333">
        <ele>533.7</ele>
        <time>2012-08-29T11:18:45Z</time>
      </trkpt>
      <trkpt lat="45.128" lon="2.03344">
        <ele>534.6</ele>
        <time>2012-08-29T11:18:47Z</time>
      </trkpt>
      <trkpt lat="45.12811" lon="2.03386">
        <ele>537.5</ele>
        <time>2012-08-29T11:18:51Z</time>
      </trkpt>
      <trkpt lat="45.12817" lon="2.03401">
        <ele>537.5</ele>
        <time>2012-08-29T11:18:52Z</time>
      </trkpt>
      <trkpt lat="45.12824" lon="2.03415">
        <ele>539</ele>
        <time>2012-08-29T11:18:53Z</time>
      </trkpt>
      <trkpt lat="45.12832" lon="2.03427">
        <ele>538</ele>
        <time>2012-08-29T11:18:54Z</time>
      </trkpt>
      <trkpt lat="45.12872" lon="2.03474">
        <ele>537</ele>
        <time>2012-08-29T11:18:59Z</time>
      </trkpt>
      <trkpt lat="45.129" lon="2.03503">
        <ele>538</ele>
        <time>2012-08-29T11:19:03Z</time>
      </trkpt>
      <trkpt lat="45.12915" lon="2.0352">
        <ele>536.1</ele>
        <time>2012-08-29T11:19:05Z</time>
      </trkpt>
      <trkpt lat="45.12931" lon="2.03534">
        <ele>539.9</ele>
        <time>2012-08-29T11:19:07Z</time>
      </trkpt>
      <trkpt lat="45.12948" lon="2.0355">
        <ele>539.4</ele>
        <time>2012-08-29T11:19:09Z</time>
      </trkpt>
      <trkpt lat="45.12956" lon="2.03561">
        <ele>539</ele>
        <time>2012-08-29T11:19:10Z</time>
      </trkpt>
      <trkpt lat="45.12963" lon="2.03574">
        <ele>534.2</ele>
        <time>2012-08-29T11:19:11Z</time>
      </trkpt>
      <trkpt lat="45.1297" lon="2.03588">
        <ele>542.3</ele>
        <time>2012-08-29T11:19:12Z</time>
      </trkpt>
      <trkpt lat="45.12983" lon="2.03615">
        <ele>535.1</ele>
        <time>2012-08-29T11:19:14Z</time>
      </trkpt>
      <trkpt lat="45.12989" lon="2.03628">
        <ele>539.4</ele>
        <time>2012-08-29T11:19:15Z</time>
      </trkpt>
      <trkpt lat="45.12994" lon="2.03641">
        <ele>541.4</ele>
        <time>2012-08-29T11:19:16Z</time>
      </trkpt>
      <trkpt lat="45.12999" lon="2.03655">
        <ele>543.3</ele>
        <time>2012-08-29T11:19:17Z</time>
      </trkpt>
      <trkpt lat="45.13002" lon="2.03669">
        <ele>544.7</ele>
        <time>2012-08-29T11:19:18Z</time>
      </trkpt>
      <trkpt lat="45.13005" lon="2.03684">
        <ele>545.7</ele>
        <time>2012-08-29T11:19:19Z</time>
      </trkpt>
      <trkpt lat="45.13007" lon="2.037">
        <ele>545.2</ele>
        <time>2012-08-29T11:19:20Z</time>
      </trkpt>
      <trkpt lat="45.13008" lon="2.03715">
        <ele>545.7</ele>
        <time>2012-08-29T11:19:21Z</time>
      </trkpt>
      <trkpt lat="45.13013" lon="2.03775">
        <ele>542.8</ele>
        <time>2012-08-29T11:19:26Z</time>
      </trkpt>
      <trkpt lat="45.13014" lon="2.03787">
        <ele>542.8</ele>
        <time>2012-08-29T11:19:29Z</time>
      </trkpt>
      <trkpt lat="45.13013" lon="2.03788">
        <ele>543.3</ele>
        <time>2012-08-29T11:19:30Z</time>
      </trkpt>
      <trkpt lat="45.13011" lon="2.03789">
        <ele>543.3</ele>
        <time>2012-08-29T11:19:31Z</time>
      </trkpt>
      <trkpt lat="45.12995" lon="2.03788">
        <ele>544.2</ele>
        <time>2012-08-29T11:19:41Z</time>
      </trkpt>
      <trkpt lat="45.13008" lon="2.03767">
        <ele>544.7</ele>
        <time>2012-08-29T11:19:43Z</time>
      </trkpt>
      <trkpt lat="45.13021" lon="2.03753">
        <ele>544.2</ele>
        <time>2012-08-29T11:19:44Z</time>
      </trkpt>
      <trkpt lat="45.13049" lon="2.03723">
        <ele>543.8</ele>
        <time>2012-08-29T11:19:45Z</time>
      </trkpt>
      <trkpt lat="45.13058" lon="2.03719">
        <ele>543.8</ele>
        <time>2012-08-29T11:19:46Z</time>
      </trkpt>
      <trkpt lat="45.13065" lon="2.03718">
        <ele>544.2</ele>
        <time>2012-08-29T11:19:47Z</time>
      </trkpt>
      <trkpt lat="45.1307" lon="2.03718">
        <ele>544.2</ele>
        <time>2012-08-29T11:19:48Z</time>
      </trkpt>
      <trkpt lat="45.13081" lon="2.03716">
        <ele>543.3</ele>
        <time>2012-08-29T11:19:50Z</time>
      </trkpt>
      <trkpt lat="45.13088" lon="2.03712">
        <ele>542.3</ele>
        <time>2012-08-29T11:19:51Z</time>
      </trkpt>
      <trkpt lat="45.13113" lon="2.03698">
        <ele>541.8</ele>
        <time>2012-08-29T11:19:56Z</time>
      </trkpt>
      <trkpt lat="45.13154" lon="2.03675">
        <ele>538.5</ele>
        <time>2012-08-29T11:20:04Z</time>
      </trkpt>
      <trkpt lat="45.13159" lon="2.03672">
        <ele>538</ele>
        <time>2012-08-29T11:20:05Z</time>
      </trkpt>
      <trkpt lat="45.13168" lon="2.03665">
        <ele>537.5</ele>
        <time>2012-08-29T11:20:07Z</time>
      </trkpt>
      <trkpt lat="45.13197" lon="2.0364">
        <ele>534.2</ele>
        <time>2012-08-29T11:20:13Z</time>
      </trkpt>
      <trkpt lat="45.13204" lon="2.03633">
        <ele>533.2</ele>
        <time>2012-08-29T11:20:15Z</time>
      </trkpt>
      <trkpt lat="45.1322" lon="2.03627">
        <ele>531.8</ele>
        <time>2012-08-29T11:20:20Z</time>
      </trkpt>
      <trkpt lat="45.13224" lon="2.03629">
        <ele>531.8</ele>
        <time>2012-08-29T11:20:21Z</time>
      </trkpt>
      <trkpt lat="45.13243" lon="2.03635">
        <ele>531.3</ele>
        <time>2012-08-29T11:20:25Z</time>
      </trkpt>
      <trkpt lat="45.13249" lon="2.03635">
        <ele>530.8</ele>
        <time>2012-08-29T11:20:26Z</time>
      </trkpt>
      <trkpt lat="45.13255" lon="2.03635">
        <ele>530.8</ele>
        <time>2012-08-29T11:20:27Z</time>
      </trkpt>
      <trkpt lat="45.13261" lon="2.03634">
        <ele>530.3</ele>
        <time>2012-08-29T11:20:28Z</time>
      </trkpt>
      <trkpt lat="45.13267" lon="2.03632">
        <ele>530.3</ele>
        <time>2012-08-29T11:20:29Z</time>
      </trkpt>
      <trkpt lat="45.13274" lon="2.0363">
        <ele>529.8</ele>
        <time>2012-08-29T11:20:30Z</time>
      </trkpt>
      <trkpt lat="45.13281" lon="2.03627">
        <ele>530.3</ele>
        <time>2012-08-29T11:20:31Z</time>
      </trkpt>
      <trkpt lat="45.13346" lon="2.03599">
        <ele>529.3</ele>
        <time>2012-08-29T11:20:41Z</time>
      </trkpt>
      <trkpt lat="45.13417" lon="2.03566">
        <ele>527.9</ele>
        <time>2012-08-29T11:20:53Z</time>
      </trkpt>
      <trkpt lat="45.13482" lon="2.0353">
        <ele>525.5</ele>
        <time>2012-08-29T11:21:05Z</time>
      </trkpt>
      <trkpt lat="45.13523" lon="2.03508">
        <ele>526</ele>
        <time>2012-08-29T11:21:14Z</time>
      </trkpt>
      <trkpt lat="45.13527" lon="2.03504">
        <ele>522.6</ele>
        <time>2012-08-29T11:21:15Z</time>
      </trkpt>
      <trkpt lat="45.13532" lon="2.035">
        <ele>526.5</ele>
        <time>2012-08-29T11:21:16Z</time>
      </trkpt>
      <trkpt lat="45.13549" lon="2.03485">
        <ele>525.5</ele>
        <time>2012-08-29T11:21:20Z</time>
      </trkpt>
      <trkpt lat="45.13598" lon="2.03453">
        <ele>523.6</ele>
        <time>2012-08-29T11:21:30Z</time>
      </trkpt>
      <trkpt lat="45.13609" lon="2.03449">
        <ele>527.4</ele>
        <time>2012-08-29T11:21:32Z</time>
      </trkpt>
      <trkpt lat="45.13614" lon="2.03448">
        <ele>523.1</ele>
        <time>2012-08-29T11:21:33Z</time>
      </trkpt>
      <trkpt lat="45.13625" lon="2.03447">
        <ele>522.1</ele>
        <time>2012-08-29T11:21:35Z</time>
      </trkpt>
      <trkpt lat="45.13641" lon="2.03445">
        <ele>520.2</ele>
        <time>2012-08-29T11:21:38Z</time>
      </trkpt>
      <trkpt lat="45.13656" lon="2.03447">
        <ele>519.7</ele>
        <time>2012-08-29T11:21:42Z</time>
      </trkpt>
      <trkpt lat="45.1366" lon="2.03449">
        <ele>520.7</ele>
        <time>2012-08-29T11:21:43Z</time>
      </trkpt>
      <trkpt lat="45.13678" lon="2.03456">
        <ele>521.2</ele>
        <time>2012-08-29T11:21:46Z</time>
      </trkpt>
      <trkpt lat="45.13685" lon="2.03457">
        <ele>521.2</ele>
        <time>2012-08-29T11:21:47Z</time>
      </trkpt>
      <trkpt lat="45.13694" lon="2.03457">
        <ele>522.1</ele>
        <time>2012-08-29T11:21:48Z</time>
      </trkpt>
      <trkpt lat="45.13704" lon="2.03455">
        <ele>522.6</ele>
        <time>2012-08-29T11:21:49Z</time>
      </trkpt>
      <trkpt lat="45.13714" lon="2.03453">
        <ele>523.6</ele>
        <time>2012-08-29T11:21:50Z</time>
      </trkpt>
      <trkpt lat="45.13723" lon="2.03449">
        <ele>523.1</ele>
        <time>2012-08-29T11:21:51Z</time>
      </trkpt>
      <trkpt lat="45.13756" lon="2.03429">
        <ele>520.2</ele>
        <time>2012-08-29T11:21:55Z</time>
      </trkpt>
      <trkpt lat="45.13805" lon="2.03376">
        <ele>519.7</ele>
        <time>2012-08-29T11:22:01Z</time>
      </trkpt>
      <trkpt lat="45.13815" lon="2.03358">
        <ele>520.2</ele>
        <time>2012-08-29T11:22:02Z</time>
      </trkpt>
      <trkpt lat="45.13839" lon="2.03318">
        <ele>520.2</ele>
        <time>2012-08-29T11:22:04Z</time>
      </trkpt>
      <trkpt lat="45.13849" lon="2.03306">
        <ele>519.7</ele>
        <time>2012-08-29T11:22:05Z</time>
      </trkpt>
      <trkpt lat="45.13859" lon="2.03298">
        <ele>519.7</ele>
        <time>2012-08-29T11:22:06Z</time>
      </trkpt>
      <trkpt lat="45.13871" lon="2.03294">
        <ele>520.2</ele>
        <time>2012-08-29T11:22:07Z</time>
      </trkpt>
      <trkpt lat="45.13883" lon="2.03293">
        <ele>520.2</ele>
        <time>2012-08-29T11:22:08Z</time>
      </trkpt>
      <trkpt lat="45.13895" lon="2.03294">
        <ele>519.7</ele>
        <time>2012-08-29T11:22:09Z</time>
      </trkpt>
      <trkpt lat="45.13945" lon="2.03308">
        <ele>516.4</ele>
        <time>2012-08-29T11:22:13Z</time>
      </trkpt>
      <trkpt lat="45.13985" lon="2.0333">
        <ele>513</ele>
        <time>2012-08-29T11:22:16Z</time>
      </trkpt>
      <trkpt lat="45.14014" lon="2.03348">
        <ele>509.6</ele>
        <time>2012-08-29T11:22:18Z</time>
      </trkpt>
      <trkpt lat="45.14058" lon="2.03375">
        <ele>506.3</ele>
        <time>2012-08-29T11:22:21Z</time>
      </trkpt>
      <trkpt lat="45.14086" lon="2.03392">
        <ele>503.4</ele>
        <time>2012-08-29T11:22:23Z</time>
      </trkpt>
      <trkpt lat="45.14109" lon="2.03407">
        <ele>499.5</ele>
        <time>2012-08-29T11:22:25Z</time>
      </trkpt>
      <trkpt lat="45.14139" lon="2.03424">
        <ele>497.6</ele>
        <time>2012-08-29T11:22:28Z</time>
      </trkpt>
      <trkpt lat="45.14148" lon="2.03427">
        <ele>497.6</ele>
        <time>2012-08-29T11:22:29Z</time>
      </trkpt>
      <trkpt lat="45.14157" lon="2.03427">
        <ele>497.1</ele>
        <time>2012-08-29T11:22:30Z</time>
      </trkpt>
      <trkpt lat="45.14165" lon="2.03425">
        <ele>498.1</ele>
        <time>2012-08-29T11:22:31Z</time>
      </trkpt>
      <trkpt lat="45.14173" lon="2.03422">
        <ele>498.6</ele>
        <time>2012-08-29T11:22:32Z</time>
      </trkpt>
      <trkpt lat="45.14189" lon="2.03415">
        <ele>497.6</ele>
        <time>2012-08-29T11:22:34Z</time>
      </trkpt>
      <trkpt lat="45.14214" lon="2.034">
        <ele>495.7</ele>
        <time>2012-08-29T11:22:37Z</time>
      </trkpt>
      <trkpt lat="45.14222" lon="2.03391">
        <ele>495.7</ele>
        <time>2012-08-29T11:22:38Z</time>
      </trkpt>
      <trkpt lat="45.14228" lon="2.03381">
        <ele>495.7</ele>
        <time>2012-08-29T11:22:39Z</time>
      </trkpt>
      <trkpt lat="45.14239" lon="2.03358">
        <ele>497.1</ele>
        <time>2012-08-29T11:22:41Z</time>
      </trkpt>
      <trkpt lat="45.14254" lon="2.03321">
        <ele>495.7</ele>
        <time>2012-08-29T11:22:44Z</time>
      </trkpt>
      <trkpt lat="45.14261" lon="2.03311">
        <ele>496.2</ele>
        <time>2012-08-29T11:22:45Z</time>
      </trkpt>
      <trkpt lat="45.14267" lon="2.03303">
        <ele>496.2</ele>
        <time>2012-08-29T11:22:46Z</time>
      </trkpt>
      <trkpt lat="45.14272" lon="2.03292">
        <ele>496.2</ele>
        <time>2012-08-29T11:22:47Z</time>
      </trkpt>
      <trkpt lat="45.14276" lon="2.03281">
        <ele>497.1</ele>
        <time>2012-08-29T11:22:48Z</time>
      </trkpt>
      <trkpt lat="45.14279" lon="2.03269">
        <ele>498.1</ele>
        <time>2012-08-29T11:22:49Z</time>
      </trkpt>
      <trkpt lat="45.14288" lon="2.03226">
        <ele>501</ele>
        <time>2012-08-29T11:22:52Z</time>
      </trkpt>
      <trkpt lat="45.143" lon="2.03161">
        <ele>502</ele>
        <time>2012-08-29T11:22:57Z</time>
      </trkpt>
      <trkpt lat="45.143" lon="2.0315">
        <ele>501</ele>
        <time>2012-08-29T11:22:58Z</time>
      </trkpt>
      <trkpt lat="45.14298" lon="2.03139">
        <ele>500</ele>
        <time>2012-08-29T11:22:59Z</time>
      </trkpt>
      <trkpt lat="45.14296" lon="2.03128">
        <ele>499.5</ele>
        <time>2012-08-29T11:23:00Z</time>
      </trkpt>
      <trkpt lat="45.14291" lon="2.0312">
        <ele>499.1</ele>
        <time>2012-08-29T11:23:01Z</time>
      </trkpt>
      <trkpt lat="45.14284" lon="2.03112">
        <ele>498.6</ele>
        <time>2012-08-29T11:23:02Z</time>
      </trkpt>
      <trkpt lat="45.14279" lon="2.03102">
        <ele>498.1</ele>
        <time>2012-08-29T11:23:03Z</time>
      </trkpt>
      <trkpt lat="45.14267" lon="2.03074">
        <ele>497.6</ele>
        <time>2012-08-29T11:23:06Z</time>
      </trkpt>
      <trkpt lat="45.14266" lon="2.03065">
        <ele>496.7</ele>
        <time>2012-08-29T11:23:07Z</time>
      </trkpt>
      <trkpt lat="45.14269" lon="2.03039">
        <ele>497.1</ele>
        <time>2012-08-29T11:23:10Z</time>
      </trkpt>
      <trkpt lat="45.1428" lon="2.03016">
        <ele>497.6</ele>
        <time>2012-08-29T11:23:13Z</time>
      </trkpt>
      <trkpt lat="45.1428" lon="2.03006">
        <ele>496.7</ele>
        <time>2012-08-29T11:23:14Z</time>
      </trkpt>
      <trkpt lat="45.14279" lon="2.02997">
        <ele>496.2</ele>
        <time>2012-08-29T11:23:15Z</time>
      </trkpt>
      <trkpt lat="45.14278" lon="2.02986">
        <ele>496.2</ele>
        <time>2012-08-29T11:23:16Z</time>
      </trkpt>
      <trkpt lat="45.14275" lon="2.02979">
        <ele>496.2</ele>
        <time>2012-08-29T11:23:17Z</time>
      </trkpt>
      <trkpt lat="45.14271" lon="2.02971">
        <ele>495.2</ele>
        <time>2012-08-29T11:23:18Z</time>
      </trkpt>
      <trkpt lat="45.14256" lon="2.02944">
        <ele>492.8</ele>
        <time>2012-08-29T11:23:22Z</time>
      </trkpt>
      <trkpt lat="45.14241" lon="2.02921">
        <ele>489.5</ele>
        <time>2012-08-29T11:23:26Z</time>
      </trkpt>
      <trkpt lat="45.14238" lon="2.02916">
        <ele>489.5</ele>
        <time>2012-08-29T11:23:27Z</time>
      </trkpt>
      <trkpt lat="45.1422" lon="2.02893">
        <ele>488</ele>
        <time>2012-08-29T11:23:31Z</time>
      </trkpt>
      <trkpt lat="45.14199" lon="2.02866">
        <ele>484.6</ele>
        <time>2012-08-29T11:23:36Z</time>
      </trkpt>
      <trkpt lat="45.14194" lon="2.0286">
        <ele>483.7</ele>
        <time>2012-08-29T11:23:38Z</time>
      </trkpt>
      <trkpt lat="45.14184" lon="2.02835">
        <ele>483.7</ele>
        <time>2012-08-29T11:23:44Z</time>
      </trkpt>
      <trkpt lat="45.14182" lon="2.0283">
        <ele>484.2</ele>
        <time>2012-08-29T11:23:45Z</time>
      </trkpt>
      <trkpt lat="45.14165" lon="2.02809">
        <ele>486.6</ele>
        <time>2012-08-29T11:23:49Z</time>
      </trkpt>
      <trkpt lat="45.14159" lon="2.02803">
        <ele>487</ele>
        <time>2012-08-29T11:23:50Z</time>
      </trkpt>
      <trkpt lat="45.1413" lon="2.02786">
        <ele>486.6</ele>
        <time>2012-08-29T11:23:54Z</time>
      </trkpt>
      <trkpt lat="45.14108" lon="2.02773">
        <ele>486.6</ele>
        <time>2012-08-29T11:23:58Z</time>
      </trkpt>
      <trkpt lat="45.14099" lon="2.02766">
        <ele>487.5</ele>
        <time>2012-08-29T11:24:02Z</time>
      </trkpt>
      <trkpt lat="45.14105" lon="2.02755">
        <ele>488.5</ele>
        <time>2012-08-29T11:24:06Z</time>
      </trkpt>
      <trkpt lat="45.14108" lon="2.02753">
        <ele>488.5</ele>
        <time>2012-08-29T11:24:07Z</time>
      </trkpt>
      <trkpt lat="45.14119" lon="2.02752">
        <ele>492.3</ele>
        <time>2012-08-29T11:24:14Z</time>
      </trkpt>
      <trkpt lat="45.14121" lon="2.02753">
        <ele>493.3</ele>
        <time>2012-08-29T11:24:15Z</time>
      </trkpt>
      <trkpt lat="45.14131" lon="2.02774">
        <ele>496.2</ele>
        <time>2012-08-29T11:24:24Z</time>
      </trkpt>
      <trkpt lat="45.14178" lon="2.02803">
        <ele>495.2</ele>
        <time>2012-08-29T11:24:28Z</time>
      </trkpt>
      <trkpt lat="45.14199" lon="2.0281">
        <ele>495.7</ele>
        <time>2012-08-29T11:24:29Z</time>
      </trkpt>
      <trkpt lat="45.14217" lon="2.02811">
        <ele>495.7</ele>
        <time>2012-08-29T11:24:30Z</time>
      </trkpt>
      <trkpt lat="45.14238" lon="2.0281">
        <ele>496.2</ele>
        <time>2012-08-29T11:24:31Z</time>
      </trkpt>
      <trkpt lat="45.14245" lon="2.02802">
        <ele>495.7</ele>
        <time>2012-08-29T11:24:32Z</time>
      </trkpt>
      <trkpt lat="45.14284" lon="2.02749">
        <ele>496.2</ele>
        <time>2012-08-29T11:24:37Z</time>
      </trkpt>
      <trkpt lat="45.14291" lon="2.02736">
        <ele>496.2</ele>
        <time>2012-08-29T11:24:38Z</time>
      </trkpt>
      <trkpt lat="45.14296" lon="2.02726">
        <ele>496.2</ele>
        <time>2012-08-29T11:24:39Z</time>
      </trkpt>
      <trkpt lat="45.14322" lon="2.02668">
        <ele>494.7</ele>
        <time>2012-08-29T11:24:45Z</time>
      </trkpt>
      <trkpt lat="45.14325" lon="2.02661">
        <ele>495.2</ele>
        <time>2012-08-29T11:24:46Z</time>
      </trkpt>
      <trkpt lat="45.1433" lon="2.02654">
        <ele>495.7</ele>
        <time>2012-08-29T11:24:47Z</time>
      </trkpt>
      <trkpt lat="45.14333" lon="2.02646">
        <ele>495.2</ele>
        <time>2012-08-29T11:24:48Z</time>
      </trkpt>
      <trkpt lat="45.14348" lon="2.02643">
        <ele>495.7</ele>
        <time>2012-08-29T11:24:49Z</time>
      </trkpt>
      <trkpt lat="45.14357" lon="2.02639">
        <ele>495.2</ele>
        <time>2012-08-29T11:24:50Z</time>
      </trkpt>
      <trkpt lat="45.14378" lon="2.02626">
        <ele>495.2</ele>
        <time>2012-08-29T11:24:53Z</time>
      </trkpt>
      <trkpt lat="45.14393" lon="2.02626">
        <ele>494.3</ele>
        <time>2012-08-29T11:24:54Z</time>
      </trkpt>
      <trkpt lat="45.14401" lon="2.02627">
        <ele>494.3</ele>
        <time>2012-08-29T11:24:55Z</time>
      </trkpt>
      <trkpt lat="45.1441" lon="2.02629">
        <ele>493.3</ele>
        <time>2012-08-29T11:24:56Z</time>
      </trkpt>
      <trkpt lat="45.14417" lon="2.02632">
        <ele>493.3</ele>
        <time>2012-08-29T11:24:57Z</time>
      </trkpt>
      <trkpt lat="45.14422" lon="2.02636">
        <ele>492.8</ele>
        <time>2012-08-29T11:24:58Z</time>
      </trkpt>
      <trkpt lat="45.14425" lon="2.0264">
        <ele>492.3</ele>
        <time>2012-08-29T11:24:59Z</time>
      </trkpt>
      <trkpt lat="45.1443" lon="2.02645">
        <ele>492.3</ele>
        <time>2012-08-29T11:25:00Z</time>
      </trkpt>
      <trkpt lat="45.1445" lon="2.02673">
        <ele>491.9</ele>
        <time>2012-08-29T11:25:07Z</time>
      </trkpt>
      <trkpt lat="45.14453" lon="2.02676">
        <ele>491.4</ele>
        <time>2012-08-29T11:25:12Z</time>
      </trkpt>
      <trkpt lat="45.14453" lon="2.02676">
        <ele>491.4</ele>
        <time>2012-08-29T11:25:29Z</time>
      </trkpt>
      <trkpt lat="45.14453" lon="2.02676">
        <ele>490.9</ele>
        <time>2012-08-29T11:25:42Z</time>
      </trkpt>
      <trkpt lat="45.14453" lon="2.02676">
        <ele>484.6</ele>
        <time>2012-08-29T11:25:45Z</time>
      </trkpt>
      <trkpt lat="45.14453" lon="2.02676">
        <ele>484.6</ele>
        <time>2012-08-29T11:25:46Z</time>
      </trkpt>
      <trkpt lat="45.14453" lon="2.02676">
        <ele>488.5</ele>
        <time>2012-08-29T11:25:47Z</time>
      </trkpt>
      <trkpt lat="45.14453" lon="2.02676">
        <ele>488</ele>
        <time>2012-08-29T11:25:48Z</time>
      </trkpt>
      <trkpt lat="45.14454" lon="2.02676">
        <ele>491.4</ele>
        <time>2012-08-29T11:25:50Z</time>
      </trkpt>
      <trkpt lat="45.14454" lon="2.02676">
        <ele>490.9</ele>
        <time>2012-08-29T11:25:51Z</time>
      </trkpt>
      <trkpt lat="45.14454" lon="2.02676">
        <ele>486.6</ele>
        <time>2012-08-29T11:25:52Z</time>
      </trkpt>
      <trkpt lat="45.14454" lon="2.02676">
        <ele>491.9</ele>
        <time>2012-08-29T11:25:53Z</time>
      </trkpt>
      <trkpt lat="45.14454" lon="2.02676">
        <ele>492.3</ele>
        <time>2012-08-29T11:25:55Z</time>
      </trkpt>
      <trkpt lat="45.14454" lon="2.02676">
        <ele>489</ele>
        <time>2012-08-29T11:25:57Z</time>
      </trkpt>
      <trkpt lat="45.14454" lon="2.02676">
        <ele>492.8</ele>
        <time>2012-08-29T11:26:07Z</time>
      </trkpt>
      <trkpt lat="45.14454" lon="2.02676">
        <ele>489.5</ele>
        <time>2012-08-29T11:26:09Z</time>
      </trkpt>
      <trkpt lat="45.14454" lon="2.02676">
        <ele>489.5</ele>
        <time>2012-08-29T11:26:14Z</time>
      </trkpt>
      <trkpt lat="45.14454" lon="2.02676">
        <ele>492.3</ele>
        <time>2012-08-29T11:26:15Z</time>
      </trkpt>
      <trkpt lat="45.14454" lon="2.02676">
        <ele>490.9</ele>
        <time>2012-08-29T11:26:16Z</time>
      </trkpt>
      <trkpt lat="45.14455" lon="2.02677">
        <ele>490.9</ele>
        <time>2012-08-29T11:26:30Z</time>
      </trkpt>
      <trkpt lat="45.14455" lon="2.02677">
        <ele>491.4</ele>
        <time>2012-08-29T11:26:47Z</time>
      </trkpt>
      <trkpt lat="45.14455" lon="2.02677">
        <ele>490.4</ele>
        <time>2012-08-29T11:26:51Z</time>
      </trkpt>
      <trkpt lat="45.14464" lon="2.02683">
        <ele>485.1</ele>
        <time>2012-08-29T12:12:38Z</time>
      </trkpt>
      <trkpt lat="45.14464" lon="2.02683">
        <ele>492.8</ele>
        <time>2012-08-29T12:12:39Z</time>
      </trkpt>
      <trkpt lat="45.14463" lon="2.02683">
        <ele>490.9</ele>
        <time>2012-08-29T12:12:40Z</time>
      </trkpt>
      <trkpt lat="45.14464" lon="2.02685">
        <ele>490.9</ele>
        <time>2012-08-29T12:12:55Z</time>
      </trkpt>
      <trkpt lat="45.14464" lon="2.02686">
        <ele>491.4</ele>
        <time>2012-08-29T12:13:01Z</time>
      </trkpt>
      <trkpt lat="45.1447" lon="2.02684">
        <ele>491.4</ele>
        <time>2012-08-29T12:13:06Z</time>
      </trkpt>
      <trkpt lat="45.14484" lon="2.02685">
        <ele>491.4</ele>
        <time>2012-08-29T12:13:15Z</time>
      </trkpt>
      <trkpt lat="45.14502" lon="2.0269">
        <ele>491.9</ele>
        <time>2012-08-29T12:13:23Z</time>
      </trkpt>
      <trkpt lat="45.14517" lon="2.02701">
        <ele>488</ele>
        <time>2012-08-29T12:13:30Z</time>
      </trkpt>
      <trkpt lat="45.14519" lon="2.02707">
        <ele>491.9</ele>
        <time>2012-08-29T12:13:32Z</time>
      </trkpt>
      <trkpt lat="45.14537" lon="2.02708">
        <ele>490.9</ele>
        <time>2012-08-29T12:13:38Z</time>
      </trkpt>
      <trkpt lat="45.14551" lon="2.02702">
        <ele>490.9</ele>
        <time>2012-08-29T12:13:43Z</time>
      </trkpt>
      <trkpt lat="45.14567" lon="2.02726">
        <ele>492.3</ele>
        <time>2012-08-29T12:13:50Z</time>
      </trkpt>
      <trkpt lat="45.14594" lon="2.02759">
        <ele>491.9</ele>
        <time>2012-08-29T12:13:59Z</time>
      </trkpt>
      <trkpt lat="45.14626" lon="2.02775">
        <ele>490.9</ele>
        <time>2012-08-29T12:14:07Z</time>
      </trkpt>
      <trkpt lat="45.14643" lon="2.02795">
        <ele>491.4</ele>
        <time>2012-08-29T12:14:13Z</time>
      </trkpt>
      <trkpt lat="45.14655" lon="2.02813">
        <ele>491.4</ele>
        <time>2012-08-29T12:14:19Z</time>
      </trkpt>
      <trkpt lat="45.14663" lon="2.02838">
        <ele>492.3</ele>
        <time>2012-08-29T12:14:26Z</time>
      </trkpt>
      <trkpt lat="45.14675" lon="2.02858">
        <ele>493.8</ele>
        <time>2012-08-29T12:14:32Z</time>
      </trkpt>
      <trkpt lat="45.1468" lon="2.02867">
        <ele>494.3</ele>
        <time>2012-08-29T12:14:34Z</time>
      </trkpt>
      <trkpt lat="45.14695" lon="2.02893">
        <ele>495.7</ele>
        <time>2012-08-29T12:14:41Z</time>
      </trkpt>
      <trkpt lat="45.14709" lon="2.02922">
        <ele>496.2</ele>
        <time>2012-08-29T12:14:48Z</time>
      </trkpt>
      <trkpt lat="45.14719" lon="2.02939">
        <ele>496.7</ele>
        <time>2012-08-29T12:14:52Z</time>
      </trkpt>
      <trkpt lat="45.14734" lon="2.02965">
        <ele>496.2</ele>
        <time>2012-08-29T12:14:59Z</time>
      </trkpt>
      <trkpt lat="45.14745" lon="2.02995">
        <ele>496.2</ele>
        <time>2012-08-29T12:15:07Z</time>
      </trkpt>
      <trkpt lat="45.14757" lon="2.03017">
        <ele>496.7</ele>
        <time>2012-08-29T12:15:14Z</time>
      </trkpt>
      <trkpt lat="45.14772" lon="2.03039">
        <ele>495.7</ele>
        <time>2012-08-29T12:15:21Z</time>
      </trkpt>
      <trkpt lat="45.14776" lon="2.03041">
        <ele>496.7</ele>
        <time>2012-08-29T12:15:23Z</time>
      </trkpt>
      <trkpt lat="45.14787" lon="2.03037">
        <ele>497.1</ele>
        <time>2012-08-29T12:15:28Z</time>
      </trkpt>
      <trkpt lat="45.14788" lon="2.03035">
        <ele>497.6</ele>
        <time>2012-08-29T12:15:29Z</time>
      </trkpt>
      <trkpt lat="45.14789" lon="2.03033">
        <ele>497.1</ele>
        <time>2012-08-29T12:15:30Z</time>
      </trkpt>
      <trkpt lat="45.1479" lon="2.03031">
        <ele>497.1</ele>
        <time>2012-08-29T12:15:31Z</time>
      </trkpt>
      <trkpt lat="45.14791" lon="2.0303">
        <ele>497.6</ele>
        <time>2012-08-29T12:15:32Z</time>
      </trkpt>
      <trkpt lat="45.14792" lon="2.03028">
        <ele>497.6</ele>
        <time>2012-08-29T12:15:33Z</time>
      </trkpt>
      <trkpt lat="45.14801" lon="2.03013">
        <ele>498.1</ele>
        <time>2012-08-29T12:15:41Z</time>
      </trkpt>
      <trkpt lat="45.14817" lon="2.02995">
        <ele>499.5</ele>
        <time>2012-08-29T12:15:49Z</time>
      </trkpt>
      <trkpt lat="45.14834" lon="2.02981">
        <ele>500.5</ele>
        <time>2012-08-29T12:15:56Z</time>
      </trkpt>
      <trkpt lat="45.14844" lon="2.02972">
        <ele>500</ele>
        <time>2012-08-29T12:16:02Z</time>
      </trkpt>
      <trkpt lat="45.14847" lon="2.02971">
        <ele>500.5</ele>
        <time>2012-08-29T12:16:03Z</time>
      </trkpt>
      <trkpt lat="45.1485" lon="2.02972">
        <ele>500.5</ele>
        <time>2012-08-29T12:16:04Z</time>
      </trkpt>
      <trkpt lat="45.14854" lon="2.02975">
        <ele>500.5</ele>
        <time>2012-08-29T12:16:06Z</time>
      </trkpt>
      <trkpt lat="45.14859" lon="2.02985">
        <ele>501.5</ele>
        <time>2012-08-29T12:16:10Z</time>
      </trkpt>
      <trkpt lat="45.1489" lon="2.02946">
        <ele>502.4</ele>
        <time>2012-08-29T12:30:03Z</time>
      </trkpt>
      <trkpt lat="45.14906" lon="2.02919">
        <ele>502</ele>
        <time>2012-08-29T12:30:09Z</time>
      </trkpt>
      <trkpt lat="45.14922" lon="2.02896">
        <ele>501.5</ele>
        <time>2012-08-29T12:30:16Z</time>
      </trkpt>
      <trkpt lat="45.14928" lon="2.02869">
        <ele>501.5</ele>
        <time>2012-08-29T12:30:23Z</time>
      </trkpt>
      <trkpt lat="45.14928" lon="2.02841">
        <ele>502</ele>
        <time>2012-08-29T12:30:30Z</time>
      </trkpt>
      <trkpt lat="45.14919" lon="2.02803">
        <ele>503.9</ele>
        <time>2012-08-29T12:30:36Z</time>
      </trkpt>
      <trkpt lat="45.14897" lon="2.02744">
        <ele>505.3</ele>
        <time>2012-08-29T12:30:43Z</time>
      </trkpt>
      <trkpt lat="45.14887" lon="2.02718">
        <ele>506.8</ele>
        <time>2012-08-29T12:30:47Z</time>
      </trkpt>
      <trkpt lat="45.14885" lon="2.02711">
        <ele>506.8</ele>
        <time>2012-08-29T12:30:48Z</time>
      </trkpt>
      <trkpt lat="45.14874" lon="2.02668">
        <ele>508.2</ele>
        <time>2012-08-29T12:30:55Z</time>
      </trkpt>
      <trkpt lat="45.14865" lon="2.0263">
        <ele>507.7</ele>
        <time>2012-08-29T12:31:01Z</time>
      </trkpt>
      <trkpt lat="45.14863" lon="2.02624">
        <ele>508.2</ele>
        <time>2012-08-29T12:31:02Z</time>
      </trkpt>
      <trkpt lat="45.14856" lon="2.02599">
        <ele>507.7</ele>
        <time>2012-08-29T12:31:08Z</time>
      </trkpt>
      <trkpt lat="45.14853" lon="2.02589">
        <ele>508.7</ele>
        <time>2012-08-29T12:31:13Z</time>
      </trkpt>
      <trkpt lat="45.1485" lon="2.02587">
        <ele>508.2</ele>
        <time>2012-08-29T12:31:14Z</time>
      </trkpt>
      <trkpt lat="45.14846" lon="2.02585">
        <ele>507.7</ele>
        <time>2012-08-29T12:31:15Z</time>
      </trkpt>
      <trkpt lat="45.14838" lon="2.02581">
        <ele>508.2</ele>
        <time>2012-08-29T12:31:17Z</time>
      </trkpt>
      <trkpt lat="45.14834" lon="2.02578">
        <ele>508.2</ele>
        <time>2012-08-29T12:31:18Z</time>
      </trkpt>
      <trkpt lat="45.14831" lon="2.02573">
        <ele>508.7</ele>
        <time>2012-08-29T12:31:19Z</time>
      </trkpt>
      <trkpt lat="45.14829" lon="2.02567">
        <ele>509.2</ele>
        <time>2012-08-29T12:31:20Z</time>
      </trkpt>
      <trkpt lat="45.14827" lon="2.0256">
        <ele>509.2</ele>
        <time>2012-08-29T12:31:21Z</time>
      </trkpt>
      <trkpt lat="45.14828" lon="2.02553">
        <ele>509.6</ele>
        <time>2012-08-29T12:31:22Z</time>
      </trkpt>
      <trkpt lat="45.14829" lon="2.02545">
        <ele>510.1</ele>
        <time>2012-08-29T12:31:23Z</time>
      </trkpt>
      <trkpt lat="45.14831" lon="2.02537">
        <ele>510.1</ele>
        <time>2012-08-29T12:31:24Z</time>
      </trkpt>
      <trkpt lat="45.14847" lon="2.0247">
        <ele>512</ele>
        <time>2012-08-29T12:31:32Z</time>
      </trkpt>
      <trkpt lat="45.14861" lon="2.02404">
        <ele>512</ele>
        <time>2012-08-29T12:31:40Z</time>
      </trkpt>
      <trkpt lat="45.14865" lon="2.02371">
        <ele>513.5</ele>
        <time>2012-08-29T12:31:44Z</time>
      </trkpt>
      <trkpt lat="45.14867" lon="2.02364">
        <ele>513</ele>
        <time>2012-08-29T12:31:45Z</time>
      </trkpt>
      <trkpt lat="45.14871" lon="2.02357">
        <ele>514</ele>
        <time>2012-08-29T12:31:46Z</time>
      </trkpt>
      <trkpt lat="45.14895" lon="2.02327">
        <ele>516.8</ele>
        <time>2012-08-29T12:31:51Z</time>
      </trkpt>
      <trkpt lat="45.14915" lon="2.02301">
        <ele>519.2</ele>
        <time>2012-08-29T12:31:55Z</time>
      </trkpt>
      <trkpt lat="45.14956" lon="2.02249">
        <ele>521.2</ele>
        <time>2012-08-29T12:32:02Z</time>
      </trkpt>
      <trkpt lat="45.1498" lon="2.02189">
        <ele>523.1</ele>
        <time>2012-08-29T12:32:08Z</time>
      </trkpt>
      <trkpt lat="45.1499" lon="2.02164">
        <ele>522.6</ele>
        <time>2012-08-29T12:32:11Z</time>
      </trkpt>
      <trkpt lat="45.14994" lon="2.02157">
        <ele>522.1</ele>
        <time>2012-08-29T12:32:12Z</time>
      </trkpt>
      <trkpt lat="45.14998" lon="2.02152">
        <ele>521.7</ele>
        <time>2012-08-29T12:32:13Z</time>
      </trkpt>
      <trkpt lat="45.15003" lon="2.02147">
        <ele>521.7</ele>
        <time>2012-08-29T12:32:14Z</time>
      </trkpt>
      <trkpt lat="45.15008" lon="2.02141">
        <ele>520.7</ele>
        <time>2012-08-29T12:32:15Z</time>
      </trkpt>
      <trkpt lat="45.15012" lon="2.02135">
        <ele>521.2</ele>
        <time>2012-08-29T12:32:16Z</time>
      </trkpt>
      <trkpt lat="45.15017" lon="2.02129">
        <ele>520.2</ele>
        <time>2012-08-29T12:32:17Z</time>
      </trkpt>
      <trkpt lat="45.1502" lon="2.02122">
        <ele>519.7</ele>
        <time>2012-08-29T12:32:18Z</time>
      </trkpt>
      <trkpt lat="45.15046" lon="2.02076">
        <ele>517.8</ele>
        <time>2012-08-29T12:32:25Z</time>
      </trkpt>
      <trkpt lat="45.15086" lon="2.02041">
        <ele>516.8</ele>
        <time>2012-08-29T12:32:33Z</time>
      </trkpt>
      <trkpt lat="45.15109" lon="2.02029">
        <ele>515.4</ele>
        <time>2012-08-29T12:32:37Z</time>
      </trkpt>
      <trkpt lat="45.15113" lon="2.02024">
        <ele>515.9</ele>
        <time>2012-08-29T12:32:38Z</time>
      </trkpt>
      <trkpt lat="45.15117" lon="2.02018">
        <ele>515.9</ele>
        <time>2012-08-29T12:32:39Z</time>
      </trkpt>
      <trkpt lat="45.1512" lon="2.0201">
        <ele>515.9</ele>
        <time>2012-08-29T12:32:40Z</time>
      </trkpt>
      <trkpt lat="45.15123" lon="2.02002">
        <ele>516.4</ele>
        <time>2012-08-29T12:32:41Z</time>
      </trkpt>
      <trkpt lat="45.15125" lon="2.01994">
        <ele>515.4</ele>
        <time>2012-08-29T12:32:42Z</time>
      </trkpt>
      <trkpt lat="45.15126" lon="2.01986">
        <ele>514.9</ele>
        <time>2012-08-29T12:32:43Z</time>
      </trkpt>
      <trkpt lat="45.1513" lon="2.01951">
        <ele>513.5</ele>
        <time>2012-08-29T12:32:47Z</time>
      </trkpt>
      <trkpt lat="45.15128" lon="2.0191">
        <ele>509.6</ele>
        <time>2012-08-29T12:32:52Z</time>
      </trkpt>
      <trkpt lat="45.15122" lon="2.0188">
        <ele>506.8</ele>
        <time>2012-08-29T12:32:56Z</time>
      </trkpt>
      <trkpt lat="45.1512" lon="2.01873">
        <ele>506.8</ele>
        <time>2012-08-29T12:32:57Z</time>
      </trkpt>
      <trkpt lat="45.15117" lon="2.01867">
        <ele>506.8</ele>
        <time>2012-08-29T12:32:58Z</time>
      </trkpt>
      <trkpt lat="45.15114" lon="2.01862">
        <ele>506.3</ele>
        <time>2012-08-29T12:32:59Z</time>
      </trkpt>
      <trkpt lat="45.1511" lon="2.01857">
        <ele>505.8</ele>
        <time>2012-08-29T12:33:00Z</time>
      </trkpt>
      <trkpt lat="45.15106" lon="2.01853">
        <ele>505.3</ele>
        <time>2012-08-29T12:33:01Z</time>
      </trkpt>
      <trkpt lat="45.15083" lon="2.01832">
        <ele>502.4</ele>
        <time>2012-08-29T12:33:07Z</time>
      </trkpt>
      <trkpt lat="45.1508" lon="2.01829">
        <ele>502</ele>
        <time>2012-08-29T12:33:08Z</time>
      </trkpt>
      <trkpt lat="45.15076" lon="2.01827">
        <ele>502.4</ele>
        <time>2012-08-29T12:33:09Z</time>
      </trkpt>
      <trkpt lat="45.15051" lon="2.01816">
        <ele>502.4</ele>
        <time>2012-08-29T12:33:16Z</time>
      </trkpt>
      <trkpt lat="45.1504" lon="2.01813">
        <ele>501.5</ele>
        <time>2012-08-29T12:33:20Z</time>
      </trkpt>
      <trkpt lat="45.15035" lon="2.01808">
        <ele>500.5</ele>
        <time>2012-08-29T12:33:29Z</time>
      </trkpt>
      <trkpt lat="45.1502" lon="2.01802">
        <ele>498.1</ele>
        <time>2012-08-29T12:33:37Z</time>
      </trkpt>
      <trkpt lat="45.15013" lon="2.01801">
        <ele>496.7</ele>
        <time>2012-08-29T12:33:40Z</time>
      </trkpt>
      <trkpt lat="45.14993" lon="2.01799">
        <ele>493.8</ele>
        <time>2012-08-29T12:33:47Z</time>
      </trkpt>
      <trkpt lat="45.14975" lon="2.01794">
        <ele>490.9</ele>
        <time>2012-08-29T12:33:53Z</time>
      </trkpt>
      <trkpt lat="45.14964" lon="2.01795">
        <ele>489.5</ele>
        <time>2012-08-29T12:33:57Z</time>
      </trkpt>
      <trkpt lat="45.1494" lon="2.0179">
        <ele>487</ele>
        <time>2012-08-29T12:34:03Z</time>
      </trkpt>
      <trkpt lat="45.14912" lon="2.01792">
        <ele>484.6</ele>
        <time>2012-08-29T12:34:11Z</time>
      </trkpt>
      <trkpt lat="45.14892" lon="2.01796">
        <ele>483.2</ele>
        <time>2012-08-29T12:34:18Z</time>
      </trkpt>
      <trkpt lat="45.14874" lon="2.0179">
        <ele>481.8</ele>
        <time>2012-08-29T12:34:26Z</time>
      </trkpt>
      <trkpt lat="45.14866" lon="2.01781">
        <ele>480.8</ele>
        <time>2012-08-29T12:34:32Z</time>
      </trkpt>
      <trkpt lat="45.14862" lon="2.01777">
        <ele>480.8</ele>
        <time>2012-08-29T12:34:46Z</time>
      </trkpt>
      <trkpt lat="45.14861" lon="2.01777">
        <ele>481.3</ele>
        <time>2012-08-29T12:34:57Z</time>
      </trkpt>
      <trkpt lat="45.1486" lon="2.01776">
        <ele>481.3</ele>
        <time>2012-08-29T12:34:59Z</time>
      </trkpt>
      <trkpt lat="45.14859" lon="2.01775">
        <ele>481.3</ele>
        <time>2012-08-29T12:35:00Z</time>
      </trkpt>
      <trkpt lat="45.14857" lon="2.01774">
        <ele>481.3</ele>
        <time>2012-08-29T12:35:03Z</time>
      </trkpt>
      <trkpt lat="45.14856" lon="2.01773">
        <ele>481.3</ele>
        <time>2012-08-29T12:35:04Z</time>
      </trkpt>
      <trkpt lat="45.14854" lon="2.01772">
        <ele>480.8</ele>
        <time>2012-08-29T12:35:06Z</time>
      </trkpt>
      <trkpt lat="45.14852" lon="2.01771">
        <ele>480.8</ele>
        <time>2012-08-29T12:35:14Z</time>
      </trkpt>
      <trkpt lat="45.14852" lon="2.01771">
        <ele>480.8</ele>
        <time>2012-08-29T12:35:29Z</time>
      </trkpt>
      <trkpt lat="45.14851" lon="2.01771">
        <ele>480.8</ele>
        <time>2012-08-29T12:35:43Z</time>
      </trkpt>
      <trkpt lat="45.1485" lon="2.0177">
        <ele>481.3</ele>
        <time>2012-08-29T12:35:51Z</time>
      </trkpt>
      <trkpt lat="45.1485" lon="2.0177">
        <ele>481.3</ele>
        <time>2012-08-29T12:36:07Z</time>
      </trkpt>
      <trkpt lat="45.1485" lon="2.0177">
        <ele>481.3</ele>
        <time>2012-08-29T12:36:16Z</time>
      </trkpt>
      <trkpt lat="45.1485" lon="2.0177">
        <ele>480.8</ele>
        <time>2012-08-29T12:36:33Z</time>
      </trkpt>
      <trkpt lat="45.1485" lon="2.0177">
        <ele>480.3</ele>
        <time>2012-08-29T12:36:45Z</time>
      </trkpt>
      <trkpt lat="45.1485" lon="2.0177">
        <ele>480.3</ele>
        <time>2012-08-29T12:37:04Z</time>
      </trkpt>
      <trkpt lat="45.14851" lon="2.0177">
        <ele>480.8</ele>
        <time>2012-08-29T12:37:23Z</time>
      </trkpt>
      <trkpt lat="45.14851" lon="2.0177">
        <ele>481.3</ele>
        <time>2012-08-29T12:37:44Z</time>
      </trkpt>
      <trkpt lat="45.1485" lon="2.0177">
        <ele>481.3</ele>
        <time>2012-08-29T12:38:02Z</time>
      </trkpt>
      <trkpt lat="45.1485" lon="2.0177">
        <ele>481.8</ele>
        <time>2012-08-29T12:38:20Z</time>
      </trkpt>
      <trkpt lat="45.1485" lon="2.01771">
        <ele>481.3</ele>
        <time>2012-08-29T12:38:34Z</time>
      </trkpt>
      <trkpt lat="45.1485" lon="2.01771">
        <ele>481.3</ele>
        <time>2012-08-29T12:38:52Z</time>
      </trkpt>
      <trkpt lat="45.1485" lon="2.01771">
        <ele>481.3</ele>
        <time>2012-08-29T12:39:08Z</time>
      </trkpt>
      <trkpt lat="45.1485" lon="2.01771">
        <ele>481.8</ele>
        <time>2012-08-29T12:39:21Z</time>
      </trkpt>
      <trkpt lat="45.1485" lon="2.01771">
        <ele>481.8</ele>
        <time>2012-08-29T12:39:33Z</time>
      </trkpt>
      <trkpt lat="45.1485" lon="2.01771">
        <ele>481.8</ele>
        <time>2012-08-29T12:39:47Z</time>
      </trkpt>
      <trkpt lat="45.14851" lon="2.01771">
        <ele>483.2</ele>
        <time>2012-08-29T12:39:58Z</time>
      </trkpt>
      <trkpt lat="45.14849" lon="2.01771">
        <ele>484.6</ele>
        <time>2012-08-29T12:40:05Z</time>
      </trkpt>
      <trkpt lat="45.14845" lon="2.01772">
        <ele>486.1</ele>
        <time>2012-08-29T12:40:11Z</time>
      </trkpt>
      <trkpt lat="45.1484" lon="2.01774">
        <ele>486.6</ele>
        <time>2012-08-29T12:40:16Z</time>
      </trkpt>
      <trkpt lat="45.14838" lon="2.01774">
        <ele>488</ele>
        <time>2012-08-29T12:40:19Z</time>
      </trkpt>
      <trkpt lat="45.14832" lon="2.01775">
        <ele>488.5</ele>
        <time>2012-08-29T12:40:22Z</time>
      </trkpt>
      <trkpt lat="45.14821" lon="2.01775">
        <ele>488</ele>
        <time>2012-08-29T12:40:29Z</time>
      </trkpt>
      <trkpt lat="45.14819" lon="2.01774">
        <ele>487.5</ele>
        <time>2012-08-29T12:40:30Z</time>
      </trkpt>
      <trkpt lat="45.14817" lon="2.01773">
        <ele>487</ele>
        <time>2012-08-29T12:40:31Z</time>
      </trkpt>
      <trkpt lat="45.14815" lon="2.01773">
        <ele>487.5</ele>
        <time>2012-08-29T12:40:32Z</time>
      </trkpt>
      <trkpt lat="45.14813" lon="2.01773">
        <ele>487.5</ele>
        <time>2012-08-29T12:40:33Z</time>
      </trkpt>
      <trkpt lat="45.14811" lon="2.01774">
        <ele>486.6</ele>
        <time>2012-08-29T12:40:34Z</time>
      </trkpt>
      <trkpt lat="45.1481" lon="2.01775">
        <ele>487</ele>
        <time>2012-08-29T12:40:35Z</time>
      </trkpt>
      <trkpt lat="45.14809" lon="2.01776">
        <ele>487</ele>
        <time>2012-08-29T12:40:36Z</time>
      </trkpt>
      <trkpt lat="45.14807" lon="2.01777">
        <ele>487</ele>
        <time>2012-08-29T12:40:37Z</time>
      </trkpt>
      <trkpt lat="45.14803" lon="2.01784">
        <ele>488.5</ele>
        <time>2012-08-29T12:40:43Z</time>
      </trkpt>
      <trkpt lat="45.14801" lon="2.01792">
        <ele>489.5</ele>
        <time>2012-08-29T12:40:49Z</time>
      </trkpt>
      <trkpt lat="45.14802" lon="2.01801">
        <ele>490.4</ele>
        <time>2012-08-29T12:40:55Z</time>
      </trkpt>
      <trkpt lat="45.14798" lon="2.01809">
        <ele>491.9</ele>
        <time>2012-08-29T12:41:02Z</time>
      </trkpt>
      <trkpt lat="45.14793" lon="2.01811">
        <ele>492.3</ele>
        <time>2012-08-29T12:41:10Z</time>
      </trkpt>
      <trkpt lat="45.14787" lon="2.01815">
        <ele>493.8</ele>
        <time>2012-08-29T12:41:17Z</time>
      </trkpt>
      <trkpt lat="45.14783" lon="2.01816">
        <ele>493.8</ele>
        <time>2012-08-29T12:41:21Z</time>
      </trkpt>
      <trkpt lat="45.14781" lon="2.01815">
        <ele>493.8</ele>
        <time>2012-08-29T12:41:22Z</time>
      </trkpt>
      <trkpt lat="45.14779" lon="2.01813">
        <ele>492.8</ele>
        <time>2012-08-29T12:41:28Z</time>
      </trkpt>
      <trkpt lat="45.14779" lon="2.01814">
        <ele>492.8</ele>
        <time>2012-08-29T12:41:36Z</time>
      </trkpt>
      <trkpt lat="45.14779" lon="2.01815">
        <ele>493.3</ele>
        <time>2012-08-29T12:41:38Z</time>
      </trkpt>
      <trkpt lat="45.1478" lon="2.01816">
        <ele>493.8</ele>
        <time>2012-08-29T12:41:39Z</time>
      </trkpt>
      <trkpt lat="45.14781" lon="2.01817">
        <ele>493.3</ele>
        <time>2012-08-29T12:41:40Z</time>
      </trkpt>
      <trkpt lat="45.14784" lon="2.01818">
        <ele>493.8</ele>
        <time>2012-08-29T12:41:43Z</time>
      </trkpt>
      <trkpt lat="45.14788" lon="2.01821">
        <ele>494.3</ele>
        <time>2012-08-29T12:41:50Z</time>
      </trkpt>
      <trkpt lat="45.14788" lon="2.01829">
        <ele>496.7</ele>
        <time>2012-08-29T12:41:58Z</time>
      </trkpt>
      <trkpt lat="45.14786" lon="2.01833">
        <ele>498.1</ele>
        <time>2012-08-29T12:42:04Z</time>
      </trkpt>
      <trkpt lat="45.14785" lon="2.01837">
        <ele>498.6</ele>
        <time>2012-08-29T12:42:09Z</time>
      </trkpt>
      <trkpt lat="45.14784" lon="2.01836">
        <ele>498.6</ele>
        <time>2012-08-29T12:42:12Z</time>
      </trkpt>
      <trkpt lat="45.14782" lon="2.01835">
        <ele>498.6</ele>
        <time>2012-08-29T12:42:13Z</time>
      </trkpt>
      <trkpt lat="45.14781" lon="2.01834">
        <ele>498.6</ele>
        <time>2012-08-29T12:42:14Z</time>
      </trkpt>
      <trkpt lat="45.14774" lon="2.01825">
        <ele>498.1</ele>
        <time>2012-08-29T12:42:21Z</time>
      </trkpt>
      <trkpt lat="45.14771" lon="2.01822">
        <ele>497.1</ele>
        <time>2012-08-29T12:42:29Z</time>
      </trkpt>
      <trkpt lat="45.1477" lon="2.0182">
        <ele>497.1</ele>
        <time>2012-08-29T12:42:31Z</time>
      </trkpt>
      <trkpt lat="45.14768" lon="2.01818">
        <ele>497.1</ele>
        <time>2012-08-29T12:42:32Z</time>
      </trkpt>
      <trkpt lat="45.14766" lon="2.01815">
        <ele>496.7</ele>
        <time>2012-08-29T12:42:33Z</time>
      </trkpt>
      <trkpt lat="45.14764" lon="2.01813">
        <ele>497.1</ele>
        <time>2012-08-29T12:42:34Z</time>
      </trkpt>
      <trkpt lat="45.14762" lon="2.01811">
        <ele>496.2</ele>
        <time>2012-08-29T12:42:35Z</time>
      </trkpt>
      <trkpt lat="45.14761" lon="2.01809">
        <ele>496.2</ele>
        <time>2012-08-29T12:42:36Z</time>
      </trkpt>
      <trkpt lat="45.14759" lon="2.01807">
        <ele>496.2</ele>
        <time>2012-08-29T12:42:37Z</time>
      </trkpt>
      <trkpt lat="45.14758" lon="2.01806">
        <ele>495.7</ele>
        <time>2012-08-29T12:42:38Z</time>
      </trkpt>
      <trkpt lat="45.14754" lon="2.01801">
        <ele>494.7</ele>
        <time>2012-08-29T12:42:43Z</time>
      </trkpt>
      <trkpt lat="45.14753" lon="2.01799">
        <ele>494.3</ele>
        <time>2012-08-29T12:42:44Z</time>
      </trkpt>
      <trkpt lat="45.14751" lon="2.01796">
        <ele>494.7</ele>
        <time>2012-08-29T12:42:45Z</time>
      </trkpt>
      <trkpt lat="45.14748" lon="2.01794">
        <ele>494.7</ele>
        <time>2012-08-29T12:42:46Z</time>
      </trkpt>
      <trkpt lat="45.14746" lon="2.0179">
        <ele>494.3</ele>
        <time>2012-08-29T12:42:47Z</time>
      </trkpt>
      <trkpt lat="45.14745" lon="2.01787">
        <ele>493.8</ele>
        <time>2012-08-29T12:42:48Z</time>
      </trkpt>
      <trkpt lat="45.14743" lon="2.01785">
        <ele>493.3</ele>
        <time>2012-08-29T12:42:49Z</time>
      </trkpt>
      <trkpt lat="45.14742" lon="2.01784">
        <ele>493.8</ele>
        <time>2012-08-29T12:42:50Z</time>
      </trkpt>
      <trkpt lat="45.14739" lon="2.01779">
        <ele>492.8</ele>
        <time>2012-08-29T12:42:57Z</time>
      </trkpt>
      <trkpt lat="45.1473" lon="2.01767">
        <ele>490.9</ele>
        <time>2012-08-29T12:43:04Z</time>
      </trkpt>
      <trkpt lat="45.14729" lon="2.01766">
        <ele>490.4</ele>
        <time>2012-08-29T12:43:05Z</time>
      </trkpt>
      <trkpt lat="45.14726" lon="2.01755">
        <ele>489.5</ele>
        <time>2012-08-29T12:43:10Z</time>
      </trkpt>
      <trkpt lat="45.14725" lon="2.01753">
        <ele>489.5</ele>
        <time>2012-08-29T12:43:11Z</time>
      </trkpt>
      <trkpt lat="45.14724" lon="2.0175">
        <ele>489</ele>
        <time>2012-08-29T12:43:12Z</time>
      </trkpt>
      <trkpt lat="45.14717" lon="2.01731">
        <ele>487.5</ele>
        <time>2012-08-29T12:43:20Z</time>
      </trkpt>
      <trkpt lat="45.14717" lon="2.01728">
        <ele>487.5</ele>
        <time>2012-08-29T12:43:21Z</time>
      </trkpt>
      <trkpt lat="45.14717" lon="2.01719">
        <ele>486.1</ele>
        <time>2012-08-29T12:43:25Z</time>
      </trkpt>
      <trkpt lat="45.14718" lon="2.01718">
        <ele>484.2</ele>
        <time>2012-08-29T12:43:26Z</time>
      </trkpt>
      <trkpt lat="45.14719" lon="2.01717">
        <ele>487</ele>
        <time>2012-08-29T12:43:27Z</time>
      </trkpt>
      <trkpt lat="45.14721" lon="2.01717">
        <ele>479.4</ele>
        <time>2012-08-29T12:43:28Z</time>
      </trkpt>
      <trkpt lat="45.14722" lon="2.01717">
        <ele>486.1</ele>
        <time>2012-08-29T12:43:29Z</time>
      </trkpt>
      <trkpt lat="45.14724" lon="2.01717">
        <ele>484.6</ele>
        <time>2012-08-29T12:43:30Z</time>
      </trkpt>
      <trkpt lat="45.14725" lon="2.01717">
        <ele>481.8</ele>
        <time>2012-08-29T12:43:31Z</time>
      </trkpt>
      <trkpt lat="45.14726" lon="2.01717">
        <ele>483.7</ele>
        <time>2012-08-29T12:43:32Z</time>
      </trkpt>
      <trkpt lat="45.14727" lon="2.01718">
        <ele>487.5</ele>
        <time>2012-08-29T12:43:33Z</time>
      </trkpt>
      <trkpt lat="45.14728" lon="2.01719">
        <ele>484.2</ele>
        <time>2012-08-29T12:43:34Z</time>
      </trkpt>
      <trkpt lat="45.14732" lon="2.01721">
        <ele>475</ele>
        <time>2012-08-29T12:43:37Z</time>
      </trkpt>
      <trkpt lat="45.14733" lon="2.01722">
        <ele>484.6</ele>
        <time>2012-08-29T12:43:38Z</time>
      </trkpt>
      <trkpt lat="45.14735" lon="2.01723">
        <ele>482.2</ele>
        <time>2012-08-29T12:43:39Z</time>
      </trkpt>
      <trkpt lat="45.14736" lon="2.01724">
        <ele>482.7</ele>
        <time>2012-08-29T12:43:40Z</time>
      </trkpt>
      <trkpt lat="45.14737" lon="2.01725">
        <ele>481.8</ele>
        <time>2012-08-29T12:43:41Z</time>
      </trkpt>
      <trkpt lat="45.14739" lon="2.01725">
        <ele>481.8</ele>
        <time>2012-08-29T12:43:42Z</time>
      </trkpt>
      <trkpt lat="45.1475" lon="2.01733">
        <ele>481.8</ele>
        <time>2012-08-29T12:43:50Z</time>
      </trkpt>
      <trkpt lat="45.14753" lon="2.01741">
        <ele>481.3</ele>
        <time>2012-08-29T12:43:58Z</time>
      </trkpt>
      <trkpt lat="45.14755" lon="2.01741">
        <ele>480.8</ele>
        <time>2012-08-29T12:44:05Z</time>
      </trkpt>
      <trkpt lat="45.14759" lon="2.01739">
        <ele>480.3</ele>
        <time>2012-08-29T12:44:09Z</time>
      </trkpt>
      <trkpt lat="45.14759" lon="2.01736">
        <ele>480.3</ele>
        <time>2012-08-29T12:44:10Z</time>
      </trkpt>
      <trkpt lat="45.14759" lon="2.0173">
        <ele>479.4</ele>
        <time>2012-08-29T12:44:13Z</time>
      </trkpt>
      <trkpt lat="45.14761" lon="2.01724">
        <ele>477.4</ele>
        <time>2012-08-29T12:44:18Z</time>
      </trkpt>
      <trkpt lat="45.14761" lon="2.01718">
        <ele>476</ele>
        <time>2012-08-29T12:44:23Z</time>
      </trkpt>
      <trkpt lat="45.14756" lon="2.017">
        <ele>475</ele>
        <time>2012-08-29T12:44:28Z</time>
      </trkpt>
      <trkpt lat="45.14753" lon="2.01691">
        <ele>473.6</ele>
        <time>2012-08-29T12:44:32Z</time>
      </trkpt>
      <trkpt lat="45.14752" lon="2.01684">
        <ele>473.6</ele>
        <time>2012-08-29T12:44:40Z</time>
      </trkpt>
      <trkpt lat="45.14751" lon="2.01682">
        <ele>473.1</ele>
        <time>2012-08-29T12:44:41Z</time>
      </trkpt>
      <trkpt lat="45.14744" lon="2.01669">
        <ele>473.1</ele>
        <time>2012-08-29T12:44:46Z</time>
      </trkpt>
      <trkpt lat="45.14734" lon="2.01659">
        <ele>473.1</ele>
        <time>2012-08-29T12:44:56Z</time>
      </trkpt>
      <trkpt lat="45.14727" lon="2.01656">
        <ele>473.6</ele>
        <time>2012-08-29T12:45:03Z</time>
      </trkpt>
      <trkpt lat="45.1472" lon="2.01652">
        <ele>473.1</ele>
        <time>2012-08-29T12:45:11Z</time>
      </trkpt>
      <trkpt lat="45.14714" lon="2.01644">
        <ele>472.1</ele>
        <time>2012-08-29T12:45:15Z</time>
      </trkpt>
      <trkpt lat="45.14704" lon="2.01634">
        <ele>470.7</ele>
        <time>2012-08-29T12:45:22Z</time>
      </trkpt>
      <trkpt lat="45.14696" lon="2.01628">
        <ele>470.2</ele>
        <time>2012-08-29T12:45:31Z</time>
      </trkpt>
      <trkpt lat="45.1469" lon="2.0162">
        <ele>468.8</ele>
        <time>2012-08-29T12:45:36Z</time>
      </trkpt>
      <trkpt lat="45.14677" lon="2.01606">
        <ele>468.3</ele>
        <time>2012-08-29T12:45:42Z</time>
      </trkpt>
      <trkpt lat="45.1467" lon="2.01599">
        <ele>468.3</ele>
        <time>2012-08-29T12:45:47Z</time>
      </trkpt>
      <trkpt lat="45.14665" lon="2.01594">
        <ele>468.3</ele>
        <time>2012-08-29T12:45:53Z</time>
      </trkpt>
      <trkpt lat="45.1466" lon="2.01589">
        <ele>468.3</ele>
        <time>2012-08-29T12:45:56Z</time>
      </trkpt>
      <trkpt lat="45.14645" lon="2.01573">
        <ele>468.3</ele>
        <time>2012-08-29T12:46:04Z</time>
      </trkpt>
      <trkpt lat="45.14637" lon="2.01566">
        <ele>467.8</ele>
        <time>2012-08-29T12:46:11Z</time>
      </trkpt>
      <trkpt lat="45.1463" lon="2.01559">
        <ele>469.7</ele>
        <time>2012-08-29T12:46:19Z</time>
      </trkpt>
      <trkpt lat="45.14623" lon="2.01557">
        <ele>469.3</ele>
        <time>2012-08-29T12:46:26Z</time>
      </trkpt>
      <trkpt lat="45.1462" lon="2.01557">
        <ele>469.3</ele>
        <time>2012-08-29T12:46:28Z</time>
      </trkpt>
      <trkpt lat="45.14613" lon="2.01557">
        <ele>470.2</ele>
        <time>2012-08-29T12:46:32Z</time>
      </trkpt>
      <trkpt lat="45.14608" lon="2.01556">
        <ele>469.7</ele>
        <time>2012-08-29T12:46:35Z</time>
      </trkpt>
      <trkpt lat="45.14597" lon="2.01554">
        <ele>470.7</ele>
        <time>2012-08-29T12:46:42Z</time>
      </trkpt>
      <trkpt lat="45.14584" lon="2.01546">
        <ele>470.7</ele>
        <time>2012-08-29T12:46:49Z</time>
      </trkpt>
      <trkpt lat="45.14569" lon="2.0154">
        <ele>470.2</ele>
        <time>2012-08-29T12:46:57Z</time>
      </trkpt>
      <trkpt lat="45.14558" lon="2.0154">
        <ele>469.3</ele>
        <time>2012-08-29T12:47:04Z</time>
      </trkpt>
      <trkpt lat="45.14551" lon="2.01541">
        <ele>468.8</ele>
        <time>2012-08-29T12:47:12Z</time>
      </trkpt>
      <trkpt lat="45.14547" lon="2.0154">
        <ele>469.7</ele>
        <time>2012-08-29T12:47:19Z</time>
      </trkpt>
      <trkpt lat="45.14543" lon="2.01541">
        <ele>470.7</ele>
        <time>2012-08-29T12:47:26Z</time>
      </trkpt>
      <trkpt lat="45.14535" lon="2.01546">
        <ele>471.7</ele>
        <time>2012-08-29T12:47:32Z</time>
      </trkpt>
      <trkpt lat="45.14533" lon="2.01546">
        <ele>472.6</ele>
        <time>2012-08-29T12:47:33Z</time>
      </trkpt>
      <trkpt lat="45.14515" lon="2.0155">
        <ele>473.1</ele>
        <time>2012-08-29T12:47:40Z</time>
      </trkpt>
      <trkpt lat="45.14507" lon="2.01548">
        <ele>473.1</ele>
        <time>2012-08-29T12:47:45Z</time>
      </trkpt>
      <trkpt lat="45.14499" lon="2.01549">
        <ele>474.5</ele>
        <time>2012-08-29T12:47:52Z</time>
      </trkpt>
      <trkpt lat="45.14488" lon="2.01551">
        <ele>475.5</ele>
        <time>2012-08-29T12:48:01Z</time>
      </trkpt>
      <trkpt lat="45.14486" lon="2.01553">
        <ele>476</ele>
        <time>2012-08-29T12:48:03Z</time>
      </trkpt>
      <trkpt lat="45.14475" lon="2.01559">
        <ele>477</ele>
        <time>2012-08-29T12:48:10Z</time>
      </trkpt>
      <trkpt lat="45.14467" lon="2.01563">
        <ele>476.5</ele>
        <time>2012-08-29T12:48:15Z</time>
      </trkpt>
      <trkpt lat="45.14461" lon="2.01567">
        <ele>477.4</ele>
        <time>2012-08-29T12:48:19Z</time>
      </trkpt>
      <trkpt lat="45.14451" lon="2.01573">
        <ele>477.4</ele>
        <time>2012-08-29T12:48:25Z</time>
      </trkpt>
      <trkpt lat="45.14436" lon="2.01571">
        <ele>476</ele>
        <time>2012-08-29T12:48:33Z</time>
      </trkpt>
      <trkpt lat="45.14429" lon="2.01568">
        <ele>476</ele>
        <time>2012-08-29T12:48:38Z</time>
      </trkpt>
      <trkpt lat="45.14426" lon="2.01567">
        <ele>475.5</ele>
        <time>2012-08-29T12:48:40Z</time>
      </trkpt>
      <trkpt lat="45.14426" lon="2.01557">
        <ele>474.1</ele>
        <time>2012-08-29T12:48:46Z</time>
      </trkpt>
      <trkpt lat="45.1443" lon="2.01547">
        <ele>472.6</ele>
        <time>2012-08-29T12:48:52Z</time>
      </trkpt>
      <trkpt lat="45.14428" lon="2.01544">
        <ele>471.7</ele>
        <time>2012-08-29T12:48:58Z</time>
      </trkpt>
      <trkpt lat="45.14427" lon="2.01542">
        <ele>470.2</ele>
        <time>2012-08-29T12:49:06Z</time>
      </trkpt>
      <trkpt lat="45.14425" lon="2.0154">
        <ele>468.3</ele>
        <time>2012-08-29T12:49:13Z</time>
      </trkpt>
      <trkpt lat="45.14422" lon="2.01536">
        <ele>466.9</ele>
        <time>2012-08-29T12:49:20Z</time>
      </trkpt>
      <trkpt lat="45.14414" lon="2.01534">
        <ele>466.9</ele>
        <time>2012-08-29T12:49:28Z</time>
      </trkpt>
      <trkpt lat="45.14412" lon="2.01534">
        <ele>459.2</ele>
        <time>2012-08-29T12:49:29Z</time>
      </trkpt>
      <trkpt lat="45.14411" lon="2.01534">
        <ele>468.8</ele>
        <time>2012-08-29T12:49:30Z</time>
      </trkpt>
      <trkpt lat="45.1441" lon="2.01534">
        <ele>464.5</ele>
        <time>2012-08-29T12:49:31Z</time>
      </trkpt>
      <trkpt lat="45.14404" lon="2.01533">
        <ele>458.2</ele>
        <time>2012-08-29T12:49:36Z</time>
      </trkpt>
      <trkpt lat="45.14403" lon="2.01533">
        <ele>464.9</ele>
        <time>2012-08-29T12:49:37Z</time>
      </trkpt>
      <trkpt lat="45.14403" lon="2.01533">
        <ele>459.2</ele>
        <time>2012-08-29T12:49:38Z</time>
      </trkpt>
      <trkpt lat="45.14402" lon="2.01532">
        <ele>464</ele>
        <time>2012-08-29T12:49:39Z</time>
      </trkpt>
      <trkpt lat="45.14394" lon="2.0153">
        <ele>462.5</ele>
        <time>2012-08-29T12:49:47Z</time>
      </trkpt>
      <trkpt lat="45.1439" lon="2.0153">
        <ele>459.2</ele>
        <time>2012-08-29T12:49:52Z</time>
      </trkpt>
      <trkpt lat="45.1439" lon="2.0153">
        <ele>464.5</ele>
        <time>2012-08-29T12:49:53Z</time>
      </trkpt>
      <trkpt lat="45.14386" lon="2.01529">
        <ele>462.5</ele>
        <time>2012-08-29T12:49:59Z</time>
      </trkpt>
      <trkpt lat="45.14383" lon="2.01527">
        <ele>462.5</ele>
        <time>2012-08-29T12:50:10Z</time>
      </trkpt>
      <trkpt lat="45.14383" lon="2.01526">
        <ele>462</ele>
        <time>2012-08-29T12:50:12Z</time>
      </trkpt>
      <trkpt lat="45.14378" lon="2.0152">
        <ele>462.5</ele>
        <time>2012-08-29T12:50:16Z</time>
      </trkpt>
      <trkpt lat="45.14372" lon="2.01504">
        <ele>464</ele>
        <time>2012-08-29T12:50:24Z</time>
      </trkpt>
      <trkpt lat="45.1437" lon="2.01499">
        <ele>464.9</ele>
        <time>2012-08-29T12:50:29Z</time>
      </trkpt>
      <trkpt lat="45.14367" lon="2.01494">
        <ele>466.4</ele>
        <time>2012-08-29T12:50:34Z</time>
      </trkpt>
      <trkpt lat="45.1436" lon="2.01488">
        <ele>467.3</ele>
        <time>2012-08-29T12:50:38Z</time>
      </trkpt>
      <trkpt lat="45.14359" lon="2.01473">
        <ele>469.3</ele>
        <time>2012-08-29T12:50:46Z</time>
      </trkpt>
      <trkpt lat="45.14359" lon="2.01467">
        <ele>467.3</ele>
        <time>2012-08-29T12:50:52Z</time>
      </trkpt>
      <trkpt lat="45.14362" lon="2.01444">
        <ele>468.3</ele>
        <time>2012-08-29T12:51:00Z</time>
      </trkpt>
      <trkpt lat="45.14364" lon="2.01436">
        <ele>469.3</ele>
        <time>2012-08-29T12:51:07Z</time>
      </trkpt>
      <trkpt lat="45.14365" lon="2.01434">
        <ele>469.3</ele>
        <time>2012-08-29T12:51:08Z</time>
      </trkpt>
      <trkpt lat="45.14368" lon="2.01425">
        <ele>468.8</ele>
        <time>2012-08-29T12:51:15Z</time>
      </trkpt>
      <trkpt lat="45.14373" lon="2.0141">
        <ele>466.9</ele>
        <time>2012-08-29T12:51:22Z</time>
      </trkpt>
      <trkpt lat="45.14373" lon="2.01407">
        <ele>466.9</ele>
        <time>2012-08-29T12:51:23Z</time>
      </trkpt>
      <trkpt lat="45.14372" lon="2.01392">
        <ele>464.9</ele>
        <time>2012-08-29T12:51:30Z</time>
      </trkpt>
      <trkpt lat="45.14375" lon="2.01378">
        <ele>463.5</ele>
        <time>2012-08-29T12:51:36Z</time>
      </trkpt>
      <trkpt lat="45.14375" lon="2.01374">
        <ele>463.5</ele>
        <time>2012-08-29T12:51:38Z</time>
      </trkpt>
      <trkpt lat="45.14376" lon="2.0137">
        <ele>463</ele>
        <time>2012-08-29T12:51:40Z</time>
      </trkpt>
      <trkpt lat="45.14377" lon="2.01358">
        <ele>462</ele>
        <time>2012-08-29T12:51:47Z</time>
      </trkpt>
      <trkpt lat="45.14378" lon="2.01354">
        <ele>462</ele>
        <time>2012-08-29T12:51:49Z</time>
      </trkpt>
      <trkpt lat="45.14383" lon="2.01342">
        <ele>461.6</ele>
        <time>2012-08-29T12:51:54Z</time>
      </trkpt>
      <trkpt lat="45.1439" lon="2.0133">
        <ele>458.7</ele>
        <time>2012-08-29T12:52:02Z</time>
      </trkpt>
      <trkpt lat="45.14396" lon="2.01321">
        <ele>457.2</ele>
        <time>2012-08-29T12:52:08Z</time>
      </trkpt>
      <trkpt lat="45.14397" lon="2.01318">
        <ele>456.8</ele>
        <time>2012-08-29T12:52:10Z</time>
      </trkpt>
      <trkpt lat="45.14397" lon="2.01311">
        <ele>456.8</ele>
        <time>2012-08-29T12:52:15Z</time>
      </trkpt>
      <trkpt lat="45.14399" lon="2.0131">
        <ele>454.8</ele>
        <time>2012-08-29T12:52:21Z</time>
      </trkpt>
      <trkpt lat="45.144" lon="2.01304">
        <ele>453.4</ele>
        <time>2012-08-29T12:52:27Z</time>
      </trkpt>
      <trkpt lat="45.144" lon="2.01301">
        <ele>452.4</ele>
        <time>2012-08-29T12:52:29Z</time>
      </trkpt>
      <trkpt lat="45.14402" lon="2.01279">
        <ele>450.5</ele>
        <time>2012-08-29T12:52:35Z</time>
      </trkpt>
      <trkpt lat="45.14404" lon="2.01264">
        <ele>450</ele>
        <time>2012-08-29T12:52:39Z</time>
      </trkpt>
      <trkpt lat="45.14403" lon="2.01249">
        <ele>449.5</ele>
        <time>2012-08-29T12:52:44Z</time>
      </trkpt>
      <trkpt lat="45.14404" lon="2.01248">
        <ele>449.5</ele>
        <time>2012-08-29T12:52:45Z</time>
      </trkpt>
      <trkpt lat="45.14408" lon="2.01235">
        <ele>448.1</ele>
        <time>2012-08-29T12:52:51Z</time>
      </trkpt>
      <trkpt lat="45.14408" lon="2.01232">
        <ele>448.6</ele>
        <time>2012-08-29T12:52:52Z</time>
      </trkpt>
      <trkpt lat="45.14411" lon="2.01229">
        <ele>446.7</ele>
        <time>2012-08-29T12:52:58Z</time>
      </trkpt>
      <trkpt lat="45.14408" lon="2.0122">
        <ele>445.7</ele>
        <time>2012-08-29T12:53:05Z</time>
      </trkpt>
      <trkpt lat="45.14408" lon="2.01218">
        <ele>444.3</ele>
        <time>2012-08-29T12:53:10Z</time>
      </trkpt>
      <trkpt lat="45.14401" lon="2.01207">
        <ele>442.3</ele>
        <time>2012-08-29T12:53:19Z</time>
      </trkpt>
      <trkpt lat="45.14401" lon="2.01201">
        <ele>441.4</ele>
        <time>2012-08-29T12:53:26Z</time>
      </trkpt>
      <trkpt lat="45.14396" lon="2.012">
        <ele>439.9</ele>
        <time>2012-08-29T12:53:32Z</time>
      </trkpt>
      <trkpt lat="45.14394" lon="2.01201">
        <ele>439</ele>
        <time>2012-08-29T12:53:40Z</time>
      </trkpt>
      <trkpt lat="45.14387" lon="2.01202">
        <ele>438</ele>
        <time>2012-08-29T12:53:45Z</time>
      </trkpt>
      <trkpt lat="45.14381" lon="2.01202">
        <ele>436.6</ele>
        <time>2012-08-29T12:53:51Z</time>
      </trkpt>
      <trkpt lat="45.14372" lon="2.01202">
        <ele>435.1</ele>
        <time>2012-08-29T12:53:57Z</time>
      </trkpt>
      <trkpt lat="45.14367" lon="2.01201">
        <ele>434.2</ele>
        <time>2012-08-29T12:54:03Z</time>
      </trkpt>
      <trkpt lat="45.14358" lon="2.01199">
        <ele>432.2</ele>
        <time>2012-08-29T12:54:11Z</time>
      </trkpt>
      <trkpt lat="45.14354" lon="2.01198">
        <ele>432.2</ele>
        <time>2012-08-29T12:54:13Z</time>
      </trkpt>
      <trkpt lat="45.14344" lon="2.01198">
        <ele>430.8</ele>
        <time>2012-08-29T12:54:18Z</time>
      </trkpt>
      <trkpt lat="45.14335" lon="2.01196">
        <ele>430.3</ele>
        <time>2012-08-29T12:54:25Z</time>
      </trkpt>
      <trkpt lat="45.14329" lon="2.01196">
        <ele>429.4</ele>
        <time>2012-08-29T12:54:31Z</time>
      </trkpt>
      <trkpt lat="45.14325" lon="2.01195">
        <ele>428.4</ele>
        <time>2012-08-29T12:54:37Z</time>
      </trkpt>
      <trkpt lat="45.14324" lon="2.01195">
        <ele>428.4</ele>
        <time>2012-08-29T12:54:38Z</time>
      </trkpt>
      <trkpt lat="45.14319" lon="2.01193">
        <ele>427</ele>
        <time>2012-08-29T12:54:44Z</time>
      </trkpt>
      <trkpt lat="45.14316" lon="2.01192">
        <ele>425.5</ele>
        <time>2012-08-29T12:54:51Z</time>
      </trkpt>
      <trkpt lat="45.14314" lon="2.01191">
        <ele>424.6</ele>
        <time>2012-08-29T12:54:57Z</time>
      </trkpt>
      <trkpt lat="45.14308" lon="2.01188">
        <ele>422.6</ele>
        <time>2012-08-29T12:55:04Z</time>
      </trkpt>
      <trkpt lat="45.14304" lon="2.01186">
        <ele>421.2</ele>
        <time>2012-08-29T12:55:10Z</time>
      </trkpt>
      <trkpt lat="45.14297" lon="2.01188">
        <ele>421.2</ele>
        <time>2012-08-29T12:55:14Z</time>
      </trkpt>
      <trkpt lat="45.14286" lon="2.01186">
        <ele>418.8</ele>
        <time>2012-08-29T12:55:20Z</time>
      </trkpt>
      <trkpt lat="45.14284" lon="2.01185">
        <ele>418.8</ele>
        <time>2012-08-29T12:55:24Z</time>
      </trkpt>
      <trkpt lat="45.1428" lon="2.01186">
        <ele>417.8</ele>
        <time>2012-08-29T12:55:27Z</time>
      </trkpt>
      <trkpt lat="45.14275" lon="2.01186">
        <ele>416.9</ele>
        <time>2012-08-29T12:55:34Z</time>
      </trkpt>
      <trkpt lat="45.14271" lon="2.01187">
        <ele>415.9</ele>
        <time>2012-08-29T12:55:38Z</time>
      </trkpt>
      <trkpt lat="45.14265" lon="2.01188">
        <ele>415</ele>
        <time>2012-08-29T12:55:46Z</time>
      </trkpt>
      <trkpt lat="45.14264" lon="2.01187">
        <ele>415.4</ele>
        <time>2012-08-29T12:55:47Z</time>
      </trkpt>
      <trkpt lat="45.1426" lon="2.01186">
        <ele>414.5</ele>
        <time>2012-08-29T12:55:54Z</time>
      </trkpt>
      <trkpt lat="45.1426" lon="2.01184">
        <ele>414.5</ele>
        <time>2012-08-29T12:56:03Z</time>
      </trkpt>
      <trkpt lat="45.1426" lon="2.01184">
        <ele>414.5</ele>
        <time>2012-08-29T12:56:15Z</time>
      </trkpt>
      <trkpt lat="45.1426" lon="2.01185">
        <ele>414.5</ele>
        <time>2012-08-29T12:56:26Z</time>
      </trkpt>
      <trkpt lat="45.14261" lon="2.01182">
        <ele>414</ele>
        <time>2012-08-29T12:56:34Z</time>
      </trkpt>
      <trkpt lat="45.14262" lon="2.01181">
        <ele>413.5</ele>
        <time>2012-08-29T12:56:43Z</time>
      </trkpt>
      <trkpt lat="45.14263" lon="2.0118">
        <ele>414</ele>
        <time>2012-08-29T12:56:51Z</time>
      </trkpt>
      <trkpt lat="45.14269" lon="2.01178">
        <ele>413</ele>
        <time>2012-08-29T12:56:55Z</time>
      </trkpt>
      <trkpt lat="45.14286" lon="2.01167">
        <ele>412.5</ele>
        <time>2012-08-29T12:57:02Z</time>
      </trkpt>
      <trkpt lat="45.14291" lon="2.01165">
        <ele>412.1</ele>
        <time>2012-08-29T12:57:07Z</time>
      </trkpt>
      <trkpt lat="45.14296" lon="2.01164">
        <ele>411.6</ele>
        <time>2012-08-29T12:57:14Z</time>
      </trkpt>
      <trkpt lat="45.14299" lon="2.01161">
        <ele>411.1</ele>
        <time>2012-08-29T12:57:16Z</time>
      </trkpt>
      <trkpt lat="45.14304" lon="2.01158">
        <ele>411.1</ele>
        <time>2012-08-29T12:57:19Z</time>
      </trkpt>
      <trkpt lat="45.14319" lon="2.01153">
        <ele>410.1</ele>
        <time>2012-08-29T12:57:26Z</time>
      </trkpt>
      <trkpt lat="45.14325" lon="2.01149">
        <ele>409.7</ele>
        <time>2012-08-29T12:57:35Z</time>
      </trkpt>
      <trkpt lat="45.1433" lon="2.01147">
        <ele>409.2</ele>
        <time>2012-08-29T12:57:39Z</time>
      </trkpt>
      <trkpt lat="45.14335" lon="2.01145">
        <ele>412.5</ele>
        <time>2012-08-29T12:57:42Z</time>
      </trkpt>
      <trkpt lat="45.14335" lon="2.01145">
        <ele>408.7</ele>
        <time>2012-08-29T12:57:43Z</time>
      </trkpt>
      <trkpt lat="45.14336" lon="2.01144">
        <ele>404.9</ele>
        <time>2012-08-29T12:57:44Z</time>
      </trkpt>
      <trkpt lat="45.14337" lon="2.01142">
        <ele>408.2</ele>
        <time>2012-08-29T12:57:45Z</time>
      </trkpt>
      <trkpt lat="45.14345" lon="2.01133">
        <ele>407.3</ele>
        <time>2012-08-29T12:57:52Z</time>
      </trkpt>
      <trkpt lat="45.14346" lon="2.0113">
        <ele>406.8</ele>
        <time>2012-08-29T12:57:54Z</time>
      </trkpt>
      <trkpt lat="45.1435" lon="2.01124">
        <ele>406.3</ele>
        <time>2012-08-29T12:57:59Z</time>
      </trkpt>
      <trkpt lat="45.14355" lon="2.01121">
        <ele>406.3</ele>
        <time>2012-08-29T12:58:03Z</time>
      </trkpt>
      <trkpt lat="45.14359" lon="2.01119">
        <ele>405.8</ele>
        <time>2012-08-29T12:58:05Z</time>
      </trkpt>
      <trkpt lat="45.14363" lon="2.01113">
        <ele>405.3</ele>
        <time>2012-08-29T12:58:08Z</time>
      </trkpt>
      <trkpt lat="45.14367" lon="2.01108">
        <ele>405.8</ele>
        <time>2012-08-29T12:58:11Z</time>
      </trkpt>
      <trkpt lat="45.14369" lon="2.01102">
        <ele>405.3</ele>
        <time>2012-08-29T12:58:14Z</time>
      </trkpt>
      <trkpt lat="45.14378" lon="2.01093">
        <ele>404.4</ele>
        <time>2012-08-29T12:58:20Z</time>
      </trkpt>
      <trkpt lat="45.1438" lon="2.01091">
        <ele>404.4</ele>
        <time>2012-08-29T12:58:21Z</time>
      </trkpt>
      <trkpt lat="45.14394" lon="2.01081">
        <ele>402.5</ele>
        <time>2012-08-29T12:58:29Z</time>
      </trkpt>
      <trkpt lat="45.14404" lon="2.01077">
        <ele>402.5</ele>
        <time>2012-08-29T12:58:35Z</time>
      </trkpt>
      <trkpt lat="45.14407" lon="2.01076">
        <ele>401.5</ele>
        <time>2012-08-29T12:58:38Z</time>
      </trkpt>
      <trkpt lat="45.14415" lon="2.01076">
        <ele>400.5</ele>
        <time>2012-08-29T12:58:42Z</time>
      </trkpt>
      <trkpt lat="45.1442" lon="2.01075">
        <ele>400.5</ele>
        <time>2012-08-29T12:58:50Z</time>
      </trkpt>
      <trkpt lat="45.14422" lon="2.01075">
        <ele>399.1</ele>
        <time>2012-08-29T12:58:55Z</time>
      </trkpt>
      <trkpt lat="45.14428" lon="2.01074">
        <ele>398.6</ele>
        <time>2012-08-29T12:59:00Z</time>
      </trkpt>
      <trkpt lat="45.14428" lon="2.01074">
        <ele>397.6</ele>
        <time>2012-08-29T12:59:04Z</time>
      </trkpt>
      <trkpt lat="45.14434" lon="2.01082">
        <ele>397.2</ele>
        <time>2012-08-29T12:59:12Z</time>
      </trkpt>
      <trkpt lat="45.14438" lon="2.01083">
        <ele>397.2</ele>
        <time>2012-08-29T12:59:14Z</time>
      </trkpt>
      <trkpt lat="45.14446" lon="2.01087">
        <ele>395.7</ele>
        <time>2012-08-29T12:59:20Z</time>
      </trkpt>
      <trkpt lat="45.14448" lon="2.01083">
        <ele>394.8</ele>
        <time>2012-08-29T12:59:25Z</time>
      </trkpt>
      <trkpt lat="45.14447" lon="2.01076">
        <ele>394.3</ele>
        <time>2012-08-29T12:59:30Z</time>
      </trkpt>
      <trkpt lat="45.14439" lon="2.01073">
        <ele>393.8</ele>
        <time>2012-08-29T12:59:36Z</time>
      </trkpt>
      <trkpt lat="45.14437" lon="2.01071">
        <ele>393.3</ele>
        <time>2012-08-29T12:59:40Z</time>
      </trkpt>
      <trkpt lat="45.14433" lon="2.01071">
        <ele>392.4</ele>
        <time>2012-08-29T12:59:44Z</time>
      </trkpt>
      <trkpt lat="45.1443" lon="2.0107">
        <ele>392.4</ele>
        <time>2012-08-29T12:59:48Z</time>
      </trkpt>
      <trkpt lat="45.14426" lon="2.01069">
        <ele>391.9</ele>
        <time>2012-08-29T12:59:51Z</time>
      </trkpt>
      <trkpt lat="45.14422" lon="2.0107">
        <ele>390.4</ele>
        <time>2012-08-29T12:59:54Z</time>
      </trkpt>
      <trkpt lat="45.14415" lon="2.01067">
        <ele>390</ele>
        <time>2012-08-29T12:59:59Z</time>
      </trkpt>
      <trkpt lat="45.14412" lon="2.01067">
        <ele>389.5</ele>
        <time>2012-08-29T13:00:01Z</time>
      </trkpt>
      <trkpt lat="45.14404" lon="2.01062">
        <ele>388.5</ele>
        <time>2012-08-29T13:00:08Z</time>
      </trkpt>
      <trkpt lat="45.14392" lon="2.01057">
        <ele>387.5</ele>
        <time>2012-08-29T13:00:16Z</time>
      </trkpt>
      <trkpt lat="45.14378" lon="2.01062">
        <ele>387.1</ele>
        <time>2012-08-29T13:00:23Z</time>
      </trkpt>
      <trkpt lat="45.14365" lon="2.01068">
        <ele>386.1</ele>
        <time>2012-08-29T13:00:31Z</time>
      </trkpt>
      <trkpt lat="45.14364" lon="2.01068">
        <ele>385.6</ele>
        <time>2012-08-29T13:00:32Z</time>
      </trkpt>
      <trkpt lat="45.14358" lon="2.01067">
        <ele>384.2</ele>
        <time>2012-08-29T13:00:40Z</time>
      </trkpt>
      <trkpt lat="45.14356" lon="2.01067">
        <ele>383.2</ele>
        <time>2012-08-29T13:00:45Z</time>
      </trkpt>
      <trkpt lat="45.14351" lon="2.0107">
        <ele>382.7</ele>
        <time>2012-08-29T13:00:48Z</time>
      </trkpt>
      <trkpt lat="45.14346" lon="2.01074">
        <ele>382.7</ele>
        <time>2012-08-29T13:00:51Z</time>
      </trkpt>
      <trkpt lat="45.14338" lon="2.01082">
        <ele>381.3</ele>
        <time>2012-08-29T13:00:57Z</time>
      </trkpt>
      <trkpt lat="45.14331" lon="2.01085">
        <ele>380.8</ele>
        <time>2012-08-29T13:01:03Z</time>
      </trkpt>
      <trkpt lat="45.14329" lon="2.01085">
        <ele>380.8</ele>
        <time>2012-08-29T13:01:04Z</time>
      </trkpt>
      <trkpt lat="45.14317" lon="2.01087">
        <ele>380.3</ele>
        <time>2012-08-29T13:01:12Z</time>
      </trkpt>
      <trkpt lat="45.1431" lon="2.01087">
        <ele>379.4</ele>
        <time>2012-08-29T13:01:16Z</time>
      </trkpt>
      <trkpt lat="45.143" lon="2.0109">
        <ele>377.9</ele>
        <time>2012-08-29T13:01:22Z</time>
      </trkpt>
      <trkpt lat="45.14289" lon="2.01094">
        <ele>377</ele>
        <time>2012-08-29T13:01:28Z</time>
      </trkpt>
      <trkpt lat="45.14281" lon="2.01097">
        <ele>375.5</ele>
        <time>2012-08-29T13:01:32Z</time>
      </trkpt>
      <trkpt lat="45.14277" lon="2.01097">
        <ele>376.5</ele>
        <time>2012-08-29T13:01:38Z</time>
      </trkpt>
      <trkpt lat="45.14277" lon="2.01095">
        <ele>377</ele>
        <time>2012-08-29T13:01:44Z</time>
      </trkpt>
      <trkpt lat="45.14277" lon="2.01095">
        <ele>375.5</ele>
        <time>2012-08-29T13:01:47Z</time>
      </trkpt>
      <trkpt lat="45.14293" lon="2.01084">
        <ele>375</ele>
        <time>2012-08-29T13:01:53Z</time>
      </trkpt>
      <trkpt lat="45.14322" lon="2.01065">
        <ele>372.2</ele>
        <time>2012-08-29T13:01:58Z</time>
      </trkpt>
      <trkpt lat="45.14329" lon="2.01059">
        <ele>373.6</ele>
        <time>2012-08-29T13:01:59Z</time>
      </trkpt>
      <trkpt lat="45.14352" lon="2.01036">
        <ele>372.2</ele>
        <time>2012-08-29T13:02:02Z</time>
      </trkpt>
      <trkpt lat="45.14375" lon="2.01016">
        <ele>368.8</ele>
        <time>2012-08-29T13:02:05Z</time>
      </trkpt>
      <trkpt lat="45.14398" lon="2.00999">
        <ele>366.9</ele>
        <time>2012-08-29T13:02:08Z</time>
      </trkpt>
      <trkpt lat="45.14438" lon="2.00977">
        <ele>363.5</ele>
        <time>2012-08-29T13:02:13Z</time>
      </trkpt>
      <trkpt lat="45.1446" lon="2.00968">
        <ele>360.6</ele>
        <time>2012-08-29T13:02:17Z</time>
      </trkpt>
      <trkpt lat="45.14463" lon="2.00968">
        <ele>360.6</ele>
        <time>2012-08-29T13:02:18Z</time>
      </trkpt>
      <trkpt lat="45.14484" lon="2.00973">
        <ele>358.7</ele>
        <time>2012-08-29T13:02:23Z</time>
      </trkpt>
      <trkpt lat="45.14489" lon="2.00976">
        <ele>358.7</ele>
        <time>2012-08-29T13:02:24Z</time>
      </trkpt>
      <trkpt lat="45.14494" lon="2.0098">
        <ele>359.7</ele>
        <time>2012-08-29T13:02:25Z</time>
      </trkpt>
      <trkpt lat="45.14499" lon="2.00984">
        <ele>357.3</ele>
        <time>2012-08-29T13:02:26Z</time>
      </trkpt>
      <trkpt lat="45.14504" lon="2.0099">
        <ele>358.2</ele>
        <time>2012-08-29T13:02:27Z</time>
      </trkpt>
      <trkpt lat="45.14509" lon="2.00996">
        <ele>360.1</ele>
        <time>2012-08-29T13:02:28Z</time>
      </trkpt>
      <trkpt lat="45.14513" lon="2.01003">
        <ele>354.9</ele>
        <time>2012-08-29T13:02:29Z</time>
      </trkpt>
      <trkpt lat="45.14518" lon="2.01012">
        <ele>356.8</ele>
        <time>2012-08-29T13:02:30Z</time>
      </trkpt>
      <trkpt lat="45.14534" lon="2.01049">
        <ele>352.5</ele>
        <time>2012-08-29T13:02:34Z</time>
      </trkpt>
      <trkpt lat="45.14538" lon="2.01059">
        <ele>353.9</ele>
        <time>2012-08-29T13:02:35Z</time>
      </trkpt>
      <trkpt lat="45.14548" lon="2.01088">
        <ele>352.5</ele>
        <time>2012-08-29T13:02:38Z</time>
      </trkpt>
      <trkpt lat="45.14566" lon="2.01145">
        <ele>349.1</ele>
        <time>2012-08-29T13:02:42Z</time>
      </trkpt>
      <trkpt lat="45.14579" lon="2.01194">
        <ele>345.7</ele>
        <time>2012-08-29T13:02:46Z</time>
      </trkpt>
      <trkpt lat="45.14582" lon="2.01211">
        <ele>344.3</ele>
        <time>2012-08-29T13:02:47Z</time>
      </trkpt>
      <trkpt lat="45.14586" lon="2.01221">
        <ele>344.3</ele>
        <time>2012-08-29T13:02:48Z</time>
      </trkpt>
      <trkpt lat="45.14598" lon="2.01237">
        <ele>343.3</ele>
        <time>2012-08-29T13:02:50Z</time>
      </trkpt>
      <trkpt lat="45.14604" lon="2.01243">
        <ele>342.9</ele>
        <time>2012-08-29T13:02:51Z</time>
      </trkpt>
      <trkpt lat="45.14612" lon="2.01248">
        <ele>342.9</ele>
        <time>2012-08-29T13:02:52Z</time>
      </trkpt>
      <trkpt lat="45.14637" lon="2.01259">
        <ele>340.4</ele>
        <time>2012-08-29T13:02:55Z</time>
      </trkpt>
      <trkpt lat="45.14647" lon="2.01261">
        <ele>340</ele>
        <time>2012-08-29T13:02:56Z</time>
      </trkpt>
      <trkpt lat="45.14658" lon="2.0126">
        <ele>339</ele>
        <time>2012-08-29T13:02:57Z</time>
      </trkpt>
      <trkpt lat="45.14669" lon="2.01256">
        <ele>338.5</ele>
        <time>2012-08-29T13:02:58Z</time>
      </trkpt>
      <trkpt lat="45.14713" lon="2.01239">
        <ele>334.2</ele>
        <time>2012-08-29T13:03:02Z</time>
      </trkpt>
      <trkpt lat="45.14737" lon="2.01226">
        <ele>332.3</ele>
        <time>2012-08-29T13:03:05Z</time>
      </trkpt>
      <trkpt lat="45.14746" lon="2.01223">
        <ele>330.4</ele>
        <time>2012-08-29T13:03:06Z</time>
      </trkpt>
      <trkpt lat="45.14795" lon="2.01214">
        <ele>326</ele>
        <time>2012-08-29T13:03:12Z</time>
      </trkpt>
      <trkpt lat="45.14825" lon="2.01205">
        <ele>326.5</ele>
        <time>2012-08-29T13:03:16Z</time>
      </trkpt>
      <trkpt lat="45.14821" lon="2.01191">
        <ele>326</ele>
        <time>2012-08-29T13:03:18Z</time>
      </trkpt>
      <trkpt lat="45.14811" lon="2.01186">
        <ele>326</ele>
        <time>2012-08-29T13:03:21Z</time>
      </trkpt>
      <trkpt lat="45.14771" lon="2.01182">
        <ele>322.2</ele>
        <time>2012-08-29T13:03:26Z</time>
      </trkpt>
      <trkpt lat="45.14727" lon="2.01184">
        <ele>320.7</ele>
        <time>2012-08-29T13:03:29Z</time>
      </trkpt>
      <trkpt lat="45.14689" lon="2.01197">
        <ele>316.9</ele>
        <time>2012-08-29T13:03:32Z</time>
      </trkpt>
      <trkpt lat="45.14658" lon="2.01199">
        <ele>315.5</ele>
        <time>2012-08-29T13:03:34Z</time>
      </trkpt>
      <trkpt lat="45.1464" lon="2.01198">
        <ele>314.5</ele>
        <time>2012-08-29T13:03:36Z</time>
      </trkpt>
      <trkpt lat="45.14632" lon="2.01191">
        <ele>314.5</ele>
        <time>2012-08-29T13:03:37Z</time>
      </trkpt>
      <trkpt lat="45.14629" lon="2.01185">
        <ele>314</ele>
        <time>2012-08-29T13:03:38Z</time>
      </trkpt>
      <trkpt lat="45.14627" lon="2.01163">
        <ele>313.5</ele>
        <time>2012-08-29T13:03:42Z</time>
      </trkpt>
      <trkpt lat="45.14631" lon="2.0116">
        <ele>313</ele>
        <time>2012-08-29T13:03:43Z</time>
      </trkpt>
      <trkpt lat="45.14637" lon="2.01157">
        <ele>312.6</ele>
        <time>2012-08-29T13:03:44Z</time>
      </trkpt>
      <trkpt lat="45.14645" lon="2.01154">
        <ele>312.6</ele>
        <time>2012-08-29T13:03:45Z</time>
      </trkpt>
      <trkpt lat="45.14655" lon="2.01149">
        <ele>307.8</ele>
        <time>2012-08-29T13:03:46Z</time>
      </trkpt>
      <trkpt lat="45.1466" lon="2.01147">
        <ele>312.1</ele>
        <time>2012-08-29T13:03:47Z</time>
      </trkpt>
      <trkpt lat="45.14698" lon="2.0113">
        <ele>309.2</ele>
        <time>2012-08-29T13:03:51Z</time>
      </trkpt>
      <trkpt lat="45.14707" lon="2.01128">
        <ele>308.7</ele>
        <time>2012-08-29T13:03:52Z</time>
      </trkpt>
      <trkpt lat="45.14726" lon="2.01125">
        <ele>307.8</ele>
        <time>2012-08-29T13:03:54Z</time>
      </trkpt>
      <trkpt lat="45.14747" lon="2.01123">
        <ele>306.3</ele>
        <time>2012-08-29T13:03:56Z</time>
      </trkpt>
      <trkpt lat="45.14769" lon="2.01122">
        <ele>304.9</ele>
        <time>2012-08-29T13:03:58Z</time>
      </trkpt>
      <trkpt lat="45.14777" lon="2.01123">
        <ele>304.9</ele>
        <time>2012-08-29T13:03:59Z</time>
      </trkpt>
      <trkpt lat="45.14787" lon="2.01124">
        <ele>304.4</ele>
        <time>2012-08-29T13:04:00Z</time>
      </trkpt>
      <trkpt lat="45.14825" lon="2.01134">
        <ele>301.5</ele>
        <time>2012-08-29T13:04:04Z</time>
      </trkpt>
      <trkpt lat="45.14858" lon="2.0114">
        <ele>299.6</ele>
        <time>2012-08-29T13:04:07Z</time>
      </trkpt>
      <trkpt lat="45.1487" lon="2.0114">
        <ele>299.1</ele>
        <time>2012-08-29T13:04:08Z</time>
      </trkpt>
      <trkpt lat="45.14881" lon="2.01139">
        <ele>299.1</ele>
        <time>2012-08-29T13:04:09Z</time>
      </trkpt>
      <trkpt lat="45.14892" lon="2.01136">
        <ele>298.1</ele>
        <time>2012-08-29T13:04:10Z</time>
      </trkpt>
      <trkpt lat="45.14903" lon="2.0113">
        <ele>297.7</ele>
        <time>2012-08-29T13:04:11Z</time>
      </trkpt>
      <trkpt lat="45.14914" lon="2.01123">
        <ele>296.7</ele>
        <time>2012-08-29T13:04:12Z</time>
      </trkpt>
      <trkpt lat="45.14946" lon="2.01102">
        <ele>295.3</ele>
        <time>2012-08-29T13:04:15Z</time>
      </trkpt>
      <trkpt lat="45.14974" lon="2.01089">
        <ele>291.4</ele>
        <time>2012-08-29T13:04:18Z</time>
      </trkpt>
      <trkpt lat="45.14982" lon="2.01085">
        <ele>290.5</ele>
        <time>2012-08-29T13:04:19Z</time>
      </trkpt>
      <trkpt lat="45.1499" lon="2.01083">
        <ele>290</ele>
        <time>2012-08-29T13:04:20Z</time>
      </trkpt>
      <trkpt lat="45.14998" lon="2.01082">
        <ele>288.5</ele>
        <time>2012-08-29T13:04:21Z</time>
      </trkpt>
      <trkpt lat="45.15007" lon="2.01081">
        <ele>289</ele>
        <time>2012-08-29T13:04:22Z</time>
      </trkpt>
      <trkpt lat="45.15044" lon="2.0108">
        <ele>286.1</ele>
        <time>2012-08-29T13:04:26Z</time>
      </trkpt>
      <trkpt lat="45.15076" lon="2.01083">
        <ele>282.8</ele>
        <time>2012-08-29T13:04:30Z</time>
      </trkpt>
      <trkpt lat="45.15083" lon="2.01085">
        <ele>282.3</ele>
        <time>2012-08-29T13:04:31Z</time>
      </trkpt>
      <trkpt lat="45.15114" lon="2.01098">
        <ele>281.8</ele>
        <time>2012-08-29T13:04:37Z</time>
      </trkpt>
      <trkpt lat="45.15125" lon="2.01125">
        <ele>281.3</ele>
        <time>2012-08-29T13:04:42Z</time>
      </trkpt>
      <trkpt lat="45.15127" lon="2.01126">
        <ele>280.4</ele>
        <time>2012-08-29T13:04:46Z</time>
      </trkpt>
      <trkpt lat="45.15144" lon="2.01114">
        <ele>281.8</ele>
        <time>2012-08-29T13:04:51Z</time>
      </trkpt>
      <trkpt lat="45.15168" lon="2.01087">
        <ele>282.8</ele>
        <time>2012-08-29T13:04:57Z</time>
      </trkpt>
      <trkpt lat="45.15179" lon="2.01069">
        <ele>282.3</ele>
        <time>2012-08-29T13:05:00Z</time>
      </trkpt>
      <trkpt lat="45.15181" lon="2.01063">
        <ele>282.8</ele>
        <time>2012-08-29T13:05:01Z</time>
      </trkpt>
      <trkpt lat="45.15192" lon="2.01034">
        <ele>283.2</ele>
        <time>2012-08-29T13:05:05Z</time>
      </trkpt>
      <trkpt lat="45.15201" lon="2.00977">
        <ele>282.8</ele>
        <time>2012-08-29T13:05:11Z</time>
      </trkpt>
      <trkpt lat="45.15196" lon="2.00915">
        <ele>283.2</ele>
        <time>2012-08-29T13:05:17Z</time>
      </trkpt>
      <trkpt lat="45.15179" lon="2.00856">
        <ele>282.8</ele>
        <time>2012-08-29T13:05:23Z</time>
      </trkpt>
      <trkpt lat="45.15176" lon="2.00849">
        <ele>282.8</ele>
        <time>2012-08-29T13:05:24Z</time>
      </trkpt>
      <trkpt lat="45.15174" lon="2.00841">
        <ele>282.3</ele>
        <time>2012-08-29T13:05:25Z</time>
      </trkpt>
      <trkpt lat="45.15173" lon="2.00834">
        <ele>282.8</ele>
        <time>2012-08-29T13:05:26Z</time>
      </trkpt>
      <trkpt lat="45.15173" lon="2.00827">
        <ele>282.3</ele>
        <time>2012-08-29T13:05:27Z</time>
      </trkpt>
      <trkpt lat="45.15175" lon="2.00821">
        <ele>282.8</ele>
        <time>2012-08-29T13:05:28Z</time>
      </trkpt>
      <trkpt lat="45.15179" lon="2.00816">
        <ele>282.3</ele>
        <time>2012-08-29T13:05:29Z</time>
      </trkpt>
      <trkpt lat="45.15183" lon="2.00813">
        <ele>282.8</ele>
        <time>2012-08-29T13:05:30Z</time>
      </trkpt>
      <trkpt lat="45.15189" lon="2.00811">
        <ele>282.8</ele>
        <time>2012-08-29T13:05:31Z</time>
      </trkpt>
      <trkpt lat="45.15196" lon="2.0081">
        <ele>283.2</ele>
        <time>2012-08-29T13:05:32Z</time>
      </trkpt>
      <trkpt lat="45.15216" lon="2.00807">
        <ele>274.6</ele>
        <time>2012-08-29T13:05:35Z</time>
      </trkpt>
      <trkpt lat="45.15219" lon="2.00807">
        <ele>292.4</ele>
        <time>2012-08-29T13:05:36Z</time>
      </trkpt>
      <trkpt lat="45.1523" lon="2.00808">
        <ele>287.1</ele>
        <time>2012-08-29T13:05:37Z</time>
      </trkpt>
      <trkpt lat="45.15246" lon="2.00812">
        <ele>283.2</ele>
        <time>2012-08-29T13:05:39Z</time>
      </trkpt>
      <trkpt lat="45.15262" lon="2.0082">
        <ele>289.5</ele>
        <time>2012-08-29T13:05:40Z</time>
      </trkpt>
      <trkpt lat="45.15274" lon="2.00825">
        <ele>284.2</ele>
        <time>2012-08-29T13:05:41Z</time>
      </trkpt>
      <trkpt lat="45.15286" lon="2.00829">
        <ele>289</ele>
        <time>2012-08-29T13:05:42Z</time>
      </trkpt>
      <trkpt lat="45.15344" lon="2.00841">
        <ele>289.5</ele>
        <time>2012-08-29T13:05:48Z</time>
      </trkpt>
      <trkpt lat="45.15408" lon="2.00838">
        <ele>290</ele>
        <time>2012-08-29T13:05:54Z</time>
      </trkpt>
      <trkpt lat="45.15437" lon="2.00844">
        <ele>290</ele>
        <time>2012-08-29T13:05:57Z</time>
      </trkpt>
      <trkpt lat="45.15444" lon="2.00848">
        <ele>290</ele>
        <time>2012-08-29T13:05:58Z</time>
      </trkpt>
      <trkpt lat="45.15451" lon="2.00854">
        <ele>290</ele>
        <time>2012-08-29T13:05:59Z</time>
      </trkpt>
      <trkpt lat="45.15501" lon="2.00896">
        <ele>292.4</ele>
        <time>2012-08-29T13:06:04Z</time>
      </trkpt>
      <trkpt lat="45.15558" lon="2.00932">
        <ele>292.9</ele>
        <time>2012-08-29T13:06:09Z</time>
      </trkpt>
      <trkpt lat="45.15625" lon="2.0096">
        <ele>292.9</ele>
        <time>2012-08-29T13:06:15Z</time>
      </trkpt>
      <trkpt lat="45.15636" lon="2.00968">
        <ele>294.3</ele>
        <time>2012-08-29T13:06:16Z</time>
      </trkpt>
      <trkpt lat="45.15689" lon="2.01016">
        <ele>296.2</ele>
        <time>2012-08-29T13:06:21Z</time>
      </trkpt>
      <trkpt lat="45.15728" lon="2.01053">
        <ele>296.2</ele>
        <time>2012-08-29T13:06:25Z</time>
      </trkpt>
      <trkpt lat="45.15778" lon="2.01114">
        <ele>295.3</ele>
        <time>2012-08-29T13:06:31Z</time>
      </trkpt>
      <trkpt lat="45.15786" lon="2.0112">
        <ele>294.8</ele>
        <time>2012-08-29T13:06:32Z</time>
      </trkpt>
      <trkpt lat="45.15796" lon="2.01123">
        <ele>295.3</ele>
        <time>2012-08-29T13:06:33Z</time>
      </trkpt>
      <trkpt lat="45.15805" lon="2.01122">
        <ele>295.3</ele>
        <time>2012-08-29T13:06:34Z</time>
      </trkpt>
      <trkpt lat="45.15815" lon="2.0112">
        <ele>295.7</ele>
        <time>2012-08-29T13:06:35Z</time>
      </trkpt>
      <trkpt lat="45.15824" lon="2.01113">
        <ele>295.7</ele>
        <time>2012-08-29T13:06:36Z</time>
      </trkpt>
      <trkpt lat="45.15833" lon="2.01103">
        <ele>296.2</ele>
        <time>2012-08-29T13:06:37Z</time>
      </trkpt>
      <trkpt lat="45.15841" lon="2.01091">
        <ele>296.7</ele>
        <time>2012-08-29T13:06:38Z</time>
      </trkpt>
      <trkpt lat="45.15848" lon="2.01078">
        <ele>297.2</ele>
        <time>2012-08-29T13:06:39Z</time>
      </trkpt>
      <trkpt lat="45.15894" lon="2.00997">
        <ele>297.7</ele>
        <time>2012-08-29T13:06:45Z</time>
      </trkpt>
      <trkpt lat="45.15908" lon="2.00972">
        <ele>298.1</ele>
        <time>2012-08-29T13:06:47Z</time>
      </trkpt>
      <trkpt lat="45.15914" lon="2.00958">
        <ele>298.1</ele>
        <time>2012-08-29T13:06:48Z</time>
      </trkpt>
      <trkpt lat="45.1592" lon="2.00944">
        <ele>298.1</ele>
        <time>2012-08-29T13:06:49Z</time>
      </trkpt>
      <trkpt lat="45.15926" lon="2.0093">
        <ele>297.7</ele>
        <time>2012-08-29T13:06:50Z</time>
      </trkpt>
      <trkpt lat="45.15931" lon="2.00914">
        <ele>297.7</ele>
        <time>2012-08-29T13:06:51Z</time>
      </trkpt>
      <trkpt lat="45.15937" lon="2.00899">
        <ele>297.7</ele>
        <time>2012-08-29T13:06:52Z</time>
      </trkpt>
      <trkpt lat="45.15943" lon="2.00885">
        <ele>297.2</ele>
        <time>2012-08-29T13:06:53Z</time>
      </trkpt>
      <trkpt lat="45.1595" lon="2.00871">
        <ele>297.2</ele>
        <time>2012-08-29T13:06:54Z</time>
      </trkpt>
      <trkpt lat="45.15955" lon="2.00856">
        <ele>296.7</ele>
        <time>2012-08-29T13:06:55Z</time>
      </trkpt>
      <trkpt lat="45.1596" lon="2.00841">
        <ele>297.2</ele>
        <time>2012-08-29T13:06:56Z</time>
      </trkpt>
      <trkpt lat="45.15976" lon="2.00798">
        <ele>295.7</ele>
        <time>2012-08-29T13:06:59Z</time>
      </trkpt>
      <trkpt lat="45.15984" lon="2.00786">
        <ele>295.7</ele>
        <time>2012-08-29T13:07:00Z</time>
      </trkpt>
      <trkpt lat="45.16017" lon="2.00741">
        <ele>294.3</ele>
        <time>2012-08-29T13:07:04Z</time>
      </trkpt>
      <trkpt lat="45.16037" lon="2.00705">
        <ele>292.4</ele>
        <time>2012-08-29T13:07:07Z</time>
      </trkpt>
      <trkpt lat="45.16079" lon="2.00621">
        <ele>292.9</ele>
        <time>2012-08-29T13:07:14Z</time>
      </trkpt>
      <trkpt lat="45.16104" lon="2.00585">
        <ele>295.7</ele>
        <time>2012-08-29T13:07:17Z</time>
      </trkpt>
      <trkpt lat="45.16146" lon="2.00518">
        <ele>299.6</ele>
        <time>2012-08-29T13:07:23Z</time>
      </trkpt>
      <trkpt lat="45.16169" lon="2.00473">
        <ele>301</ele>
        <time>2012-08-29T13:07:27Z</time>
      </trkpt>
      <trkpt lat="45.16173" lon="2.00461">
        <ele>302.5</ele>
        <time>2012-08-29T13:07:28Z</time>
      </trkpt>
      <trkpt lat="45.16196" lon="2.00399">
        <ele>304.4</ele>
        <time>2012-08-29T13:07:34Z</time>
      </trkpt>
      <trkpt lat="45.16208" lon="2.00391">
        <ele>306.8</ele>
        <time>2012-08-29T13:07:36Z</time>
      </trkpt>
      <trkpt lat="45.16244" lon="2.0038">
        <ele>310.2</ele>
        <time>2012-08-29T13:07:40Z</time>
      </trkpt>
      <trkpt lat="45.16278" lon="2.00371">
        <ele>312.1</ele>
        <time>2012-08-29T13:07:43Z</time>
      </trkpt>
      <trkpt lat="45.16289" lon="2.0037">
        <ele>312.6</ele>
        <time>2012-08-29T13:07:44Z</time>
      </trkpt>
      <trkpt lat="45.16332" lon="2.00369">
        <ele>315.9</ele>
        <time>2012-08-29T13:07:48Z</time>
      </trkpt>
      <trkpt lat="45.16343" lon="2.00368">
        <ele>317.4</ele>
        <time>2012-08-29T13:07:49Z</time>
      </trkpt>
      <trkpt lat="45.16354" lon="2.00366">
        <ele>317.9</ele>
        <time>2012-08-29T13:07:50Z</time>
      </trkpt>
      <trkpt lat="45.16365" lon="2.00362">
        <ele>318.3</ele>
        <time>2012-08-29T13:07:51Z</time>
      </trkpt>
      <trkpt lat="45.16384" lon="2.00352">
        <ele>319.8</ele>
        <time>2012-08-29T13:07:53Z</time>
      </trkpt>
      <trkpt lat="45.16399" lon="2.00342">
        <ele>320.3</ele>
        <time>2012-08-29T13:07:55Z</time>
      </trkpt>
      <trkpt lat="45.16412" lon="2.00325">
        <ele>321.2</ele>
        <time>2012-08-29T13:07:57Z</time>
      </trkpt>
      <trkpt lat="45.16417" lon="2.00314">
        <ele>323.1</ele>
        <time>2012-08-29T13:07:58Z</time>
      </trkpt>
      <trkpt lat="45.16422" lon="2.00304">
        <ele>323.6</ele>
        <time>2012-08-29T13:07:59Z</time>
      </trkpt>
      <trkpt lat="45.16446" lon="2.00267">
        <ele>326</ele>
        <time>2012-08-29T13:08:03Z</time>
      </trkpt>
      <trkpt lat="45.16452" lon="2.00258">
        <ele>326.5</ele>
        <time>2012-08-29T13:08:04Z</time>
      </trkpt>
      <trkpt lat="45.16471" lon="2.00232">
        <ele>327</ele>
        <time>2012-08-29T13:08:07Z</time>
      </trkpt>
      <trkpt lat="45.16477" lon="2.00227">
        <ele>327</ele>
        <time>2012-08-29T13:08:08Z</time>
      </trkpt>
      <trkpt lat="45.16484" lon="2.00224">
        <ele>327</ele>
        <time>2012-08-29T13:08:09Z</time>
      </trkpt>
      <trkpt lat="45.1649" lon="2.00221">
        <ele>327.5</ele>
        <time>2012-08-29T13:08:10Z</time>
      </trkpt>
      <trkpt lat="45.16497" lon="2.0022">
        <ele>328</ele>
        <time>2012-08-29T13:08:11Z</time>
      </trkpt>
      <trkpt lat="45.16517" lon="2.00217">
        <ele>329.4</ele>
        <time>2012-08-29T13:08:14Z</time>
      </trkpt>
      <trkpt lat="45.16523" lon="2.00218">
        <ele>329.9</ele>
        <time>2012-08-29T13:08:15Z</time>
      </trkpt>
      <trkpt lat="45.16528" lon="2.0022">
        <ele>329.9</ele>
        <time>2012-08-29T13:08:16Z</time>
      </trkpt>
      <trkpt lat="45.16538" lon="2.00226">
        <ele>330.8</ele>
        <time>2012-08-29T13:08:18Z</time>
      </trkpt>
      <trkpt lat="45.16542" lon="2.00226">
        <ele>331.3</ele>
        <time>2012-08-29T13:08:19Z</time>
      </trkpt>
      <trkpt lat="45.16546" lon="2.00222">
        <ele>331.8</ele>
        <time>2012-08-29T13:08:20Z</time>
      </trkpt>
      <trkpt lat="45.16547" lon="2.00216">
        <ele>331.8</ele>
        <time>2012-08-29T13:08:21Z</time>
      </trkpt>
      <trkpt lat="45.16546" lon="2.00211">
        <ele>331.8</ele>
        <time>2012-08-29T13:08:22Z</time>
      </trkpt>
      <trkpt lat="45.16544" lon="2.00206">
        <ele>332.8</ele>
        <time>2012-08-29T13:08:23Z</time>
      </trkpt>
      <trkpt lat="45.16539" lon="2.00202">
        <ele>333.7</ele>
        <time>2012-08-29T13:08:24Z</time>
      </trkpt>
      <trkpt lat="45.16534" lon="2.002">
        <ele>333.7</ele>
        <time>2012-08-29T13:08:25Z</time>
      </trkpt>
      <trkpt lat="45.16527" lon="2.00201">
        <ele>332.3</ele>
        <time>2012-08-29T13:08:26Z</time>
      </trkpt>
      <trkpt lat="45.1652" lon="2.00201">
        <ele>336.6</ele>
        <time>2012-08-29T13:08:27Z</time>
      </trkpt>
      <trkpt lat="45.16512" lon="2.00201">
        <ele>336.1</ele>
        <time>2012-08-29T13:08:28Z</time>
      </trkpt>
      <trkpt lat="45.16481" lon="2.002">
        <ele>338</ele>
        <time>2012-08-29T13:08:32Z</time>
      </trkpt>
      <trkpt lat="45.16473" lon="2.00203">
        <ele>339.5</ele>
        <time>2012-08-29T13:08:33Z</time>
      </trkpt>
      <trkpt lat="45.16465" lon="2.00206">
        <ele>340</ele>
        <time>2012-08-29T13:08:34Z</time>
      </trkpt>
      <trkpt lat="45.16449" lon="2.00213">
        <ele>342.9</ele>
        <time>2012-08-29T13:08:36Z</time>
      </trkpt>
      <trkpt lat="45.16441" lon="2.00217">
        <ele>342.9</ele>
        <time>2012-08-29T13:08:37Z</time>
      </trkpt>
      <trkpt lat="45.16416" lon="2.00232">
        <ele>346.2</ele>
        <time>2012-08-29T13:08:40Z</time>
      </trkpt>
      <trkpt lat="45.16406" lon="2.00238">
        <ele>347.6</ele>
        <time>2012-08-29T13:08:41Z</time>
      </trkpt>
      <trkpt lat="45.16363" lon="2.00273">
        <ele>350.5</ele>
        <time>2012-08-29T13:08:45Z</time>
      </trkpt>
      <trkpt lat="45.16353" lon="2.00281">
        <ele>350.5</ele>
        <time>2012-08-29T13:08:46Z</time>
      </trkpt>
      <trkpt lat="45.16343" lon="2.00287">
        <ele>351.5</ele>
        <time>2012-08-29T13:08:47Z</time>
      </trkpt>
      <trkpt lat="45.16332" lon="2.00293">
        <ele>351.5</ele>
        <time>2012-08-29T13:08:48Z</time>
      </trkpt>
      <trkpt lat="45.16322" lon="2.00295">
        <ele>352</ele>
        <time>2012-08-29T13:08:49Z</time>
      </trkpt>
      <trkpt lat="45.16312" lon="2.00294">
        <ele>352.9</ele>
        <time>2012-08-29T13:08:50Z</time>
      </trkpt>
      <trkpt lat="45.16303" lon="2.00294">
        <ele>352.9</ele>
        <time>2012-08-29T13:08:51Z</time>
      </trkpt>
      <trkpt lat="45.16292" lon="2.00294">
        <ele>353.4</ele>
        <time>2012-08-29T13:08:52Z</time>
      </trkpt>
      <trkpt lat="45.16281" lon="2.00296">
        <ele>354.4</ele>
        <time>2012-08-29T13:08:53Z</time>
      </trkpt>
      <trkpt lat="45.16271" lon="2.00298">
        <ele>354.4</ele>
        <time>2012-08-29T13:08:54Z</time>
      </trkpt>
      <trkpt lat="45.16262" lon="2.00302">
        <ele>355.3</ele>
        <time>2012-08-29T13:08:55Z</time>
      </trkpt>
      <trkpt lat="45.16253" lon="2.00306">
        <ele>355.8</ele>
        <time>2012-08-29T13:08:56Z</time>
      </trkpt>
      <trkpt lat="45.16221" lon="2.00323">
        <ele>357.3</ele>
        <time>2012-08-29T13:09:01Z</time>
      </trkpt>
      <trkpt lat="45.16216" lon="2.00323">
        <ele>356.8</ele>
        <time>2012-08-29T13:09:02Z</time>
      </trkpt>
      <trkpt lat="45.16213" lon="2.0032">
        <ele>357.8</ele>
        <time>2012-08-29T13:09:03Z</time>
      </trkpt>
      <trkpt lat="45.16216" lon="2.00309">
        <ele>358.2</ele>
        <time>2012-08-29T13:09:06Z</time>
      </trkpt>
      <trkpt lat="45.16219" lon="2.00307">
        <ele>358.2</ele>
        <time>2012-08-29T13:09:07Z</time>
      </trkpt>
      <trkpt lat="45.16226" lon="2.00306">
        <ele>359.2</ele>
        <time>2012-08-29T13:09:08Z</time>
      </trkpt>
      <trkpt lat="45.16234" lon="2.00305">
        <ele>359.7</ele>
        <time>2012-08-29T13:09:09Z</time>
      </trkpt>
      <trkpt lat="45.16242" lon="2.00302">
        <ele>360.6</ele>
        <time>2012-08-29T13:09:10Z</time>
      </trkpt>
      <trkpt lat="45.1625" lon="2.00297">
        <ele>361.1</ele>
        <time>2012-08-29T13:09:11Z</time>
      </trkpt>
      <trkpt lat="45.16258" lon="2.00292">
        <ele>363</ele>
        <time>2012-08-29T13:09:12Z</time>
      </trkpt>
      <trkpt lat="45.16266" lon="2.00287">
        <ele>363</ele>
        <time>2012-08-29T13:09:13Z</time>
      </trkpt>
      <trkpt lat="45.16275" lon="2.00284">
        <ele>364</ele>
        <time>2012-08-29T13:09:14Z</time>
      </trkpt>
      <trkpt lat="45.16284" lon="2.00283">
        <ele>364.5</ele>
        <time>2012-08-29T13:09:15Z</time>
      </trkpt>
      <trkpt lat="45.16301" lon="2.00281">
        <ele>365.4</ele>
        <time>2012-08-29T13:09:17Z</time>
      </trkpt>
      <trkpt lat="45.16317" lon="2.00275">
        <ele>365.4</ele>
        <time>2012-08-29T13:09:19Z</time>
      </trkpt>
      <trkpt lat="45.16324" lon="2.0027">
        <ele>365.9</ele>
        <time>2012-08-29T13:09:20Z</time>
      </trkpt>
      <trkpt lat="45.16342" lon="2.00256">
        <ele>367.8</ele>
        <time>2012-08-29T13:09:23Z</time>
      </trkpt>
      <trkpt lat="45.16347" lon="2.00251">
        <ele>368.3</ele>
        <time>2012-08-29T13:09:24Z</time>
      </trkpt>
      <trkpt lat="45.16352" lon="2.00244">
        <ele>367.8</ele>
        <time>2012-08-29T13:09:25Z</time>
      </trkpt>
      <trkpt lat="45.16356" lon="2.00237">
        <ele>368.3</ele>
        <time>2012-08-29T13:09:26Z</time>
      </trkpt>
      <trkpt lat="45.16359" lon="2.00229">
        <ele>368.3</ele>
        <time>2012-08-29T13:09:27Z</time>
      </trkpt>
      <trkpt lat="45.16361" lon="2.0022">
        <ele>369.3</ele>
        <time>2012-08-29T13:09:28Z</time>
      </trkpt>
      <trkpt lat="45.16368" lon="2.00195">
        <ele>370.7</ele>
        <time>2012-08-29T13:09:31Z</time>
      </trkpt>
      <trkpt lat="45.1637" lon="2.00188">
        <ele>371.7</ele>
        <time>2012-08-29T13:09:32Z</time>
      </trkpt>
      <trkpt lat="45.16374" lon="2.00183">
        <ele>371.2</ele>
        <time>2012-08-29T13:09:33Z</time>
      </trkpt>
      <trkpt lat="45.16383" lon="2.00173">
        <ele>372.6</ele>
        <time>2012-08-29T13:09:35Z</time>
      </trkpt>
      <trkpt lat="45.16404" lon="2.00162">
        <ele>375</ele>
        <time>2012-08-29T13:09:38Z</time>
      </trkpt>
      <trkpt lat="45.1641" lon="2.00156">
        <ele>375</ele>
        <time>2012-08-29T13:09:39Z</time>
      </trkpt>
      <trkpt lat="45.16417" lon="2.00149">
        <ele>375.5</ele>
        <time>2012-08-29T13:09:40Z</time>
      </trkpt>
      <trkpt lat="45.16448" lon="2.0011">
        <ele>378.9</ele>
        <time>2012-08-29T13:09:45Z</time>
      </trkpt>
      <trkpt lat="45.16454" lon="2.00102">
        <ele>379.4</ele>
        <time>2012-08-29T13:09:46Z</time>
      </trkpt>
      <trkpt lat="45.16467" lon="2.00087">
        <ele>380.8</ele>
        <time>2012-08-29T13:09:48Z</time>
      </trkpt>
      <trkpt lat="45.16475" lon="2.00082">
        <ele>381.8</ele>
        <time>2012-08-29T13:09:49Z</time>
      </trkpt>
      <trkpt lat="45.16489" lon="2.00074">
        <ele>382.3</ele>
        <time>2012-08-29T13:09:51Z</time>
      </trkpt>
      <trkpt lat="45.16502" lon="2.00067">
        <ele>382.3</ele>
        <time>2012-08-29T13:09:53Z</time>
      </trkpt>
      <trkpt lat="45.16507" lon="2.00062">
        <ele>382.7</ele>
        <time>2012-08-29T13:09:54Z</time>
      </trkpt>
      <trkpt lat="45.16514" lon="2.0005">
        <ele>383.2</ele>
        <time>2012-08-29T13:09:56Z</time>
      </trkpt>
      <trkpt lat="45.16516" lon="2.00045">
        <ele>383.7</ele>
        <time>2012-08-29T13:09:57Z</time>
      </trkpt>
      <trkpt lat="45.16517" lon="2.0004">
        <ele>383.7</ele>
        <time>2012-08-29T13:09:58Z</time>
      </trkpt>
      <trkpt lat="45.16517" lon="2.00037">
        <ele>383.7</ele>
        <time>2012-08-29T13:09:59Z</time>
      </trkpt>
      <trkpt lat="45.16516" lon="2.00034">
        <ele>383.2</ele>
        <time>2012-08-29T13:10:04Z</time>
      </trkpt>
      <trkpt lat="45.16516" lon="2.00034">
        <ele>382.7</ele>
        <time>2012-08-29T13:10:18Z</time>
      </trkpt>
      <trkpt lat="45.16516" lon="2.00034">
        <ele>382.3</ele>
        <time>2012-08-29T13:10:37Z</time>
      </trkpt>
      <trkpt lat="45.16517" lon="2.00034">
        <ele>381.8</ele>
        <time>2012-08-29T13:10:56Z</time>
      </trkpt>
      <trkpt lat="45.16516" lon="2.00034">
        <ele>381.8</ele>
        <time>2012-08-29T13:11:03Z</time>
      </trkpt>
      <trkpt lat="45.16516" lon="2.00038">
        <ele>381.3</ele>
        <time>2012-08-29T13:11:07Z</time>
      </trkpt>
      <trkpt lat="45.16513" lon="2.00032">
        <ele>381.8</ele>
        <time>2012-08-29T13:11:13Z</time>
      </trkpt>
      <trkpt lat="45.1651" lon="2.00031">
        <ele>382.7</ele>
        <time>2012-08-29T13:11:20Z</time>
      </trkpt>
      <trkpt lat="45.16508" lon="2.00036">
        <ele>383.2</ele>
        <time>2012-08-29T13:11:24Z</time>
      </trkpt>
      <trkpt lat="45.16508" lon="2.00038">
        <ele>377.5</ele>
        <time>2012-08-29T13:11:25Z</time>
      </trkpt>
      <trkpt lat="45.16508" lon="2.00039">
        <ele>384.2</ele>
        <time>2012-08-29T13:11:26Z</time>
      </trkpt>
      <trkpt lat="45.16507" lon="2.0004">
        <ele>368.8</ele>
        <time>2012-08-29T13:11:27Z</time>
      </trkpt>
      <trkpt lat="45.16507" lon="2.0004">
        <ele>386.6</ele>
        <time>2012-08-29T13:11:28Z</time>
      </trkpt>
      <trkpt lat="45.16498" lon="2.00045">
        <ele>386.1</ele>
        <time>2012-08-29T13:11:37Z</time>
      </trkpt>
      <trkpt lat="45.16496" lon="2.00046">
        <ele>393.8</ele>
        <time>2012-08-29T13:11:40Z</time>
      </trkpt>
      <trkpt lat="45.16495" lon="2.00046">
        <ele>385.6</ele>
        <time>2012-08-29T13:11:41Z</time>
      </trkpt>
      <trkpt lat="45.16494" lon="2.00046">
        <ele>385.6</ele>
        <time>2012-08-29T13:11:42Z</time>
      </trkpt>
      <trkpt lat="45.16491" lon="2.00045">
        <ele>387.1</ele>
        <time>2012-08-29T13:11:48Z</time>
      </trkpt>
      <trkpt lat="45.16481" lon="2.00048">
        <ele>388</ele>
        <time>2012-08-29T13:11:55Z</time>
      </trkpt>
      <trkpt lat="45.16479" lon="2.00048">
        <ele>389</ele>
        <time>2012-08-29T13:12:00Z</time>
      </trkpt>
      <trkpt lat="45.16467" lon="2.00052">
        <ele>390</ele>
        <time>2012-08-29T13:12:06Z</time>
      </trkpt>
      <trkpt lat="45.16464" lon="2.00052">
        <ele>390.4</ele>
        <time>2012-08-29T13:12:13Z</time>
      </trkpt>
      <trkpt lat="45.16453" lon="2.00056">
        <ele>390.9</ele>
        <time>2012-08-29T13:12:19Z</time>
      </trkpt>
      <trkpt lat="45.16445" lon="2.00064">
        <ele>391.4</ele>
        <time>2012-08-29T13:12:25Z</time>
      </trkpt>
      <trkpt lat="45.1644" lon="2.0007">
        <ele>391.9</ele>
        <time>2012-08-29T13:12:31Z</time>
      </trkpt>
      <trkpt lat="45.16436" lon="2.00072">
        <ele>393.3</ele>
        <time>2012-08-29T13:12:37Z</time>
      </trkpt>
      <trkpt lat="45.16428" lon="2.00078">
        <ele>394.3</ele>
        <time>2012-08-29T13:12:43Z</time>
      </trkpt>
      <trkpt lat="45.16418" lon="2.00083">
        <ele>395.2</ele>
        <time>2012-08-29T13:12:50Z</time>
      </trkpt>
      <trkpt lat="45.16411" lon="2.00091">
        <ele>395.2</ele>
        <time>2012-08-29T13:12:57Z</time>
      </trkpt>
      <trkpt lat="45.16409" lon="2.00092">
        <ele>396.2</ele>
        <time>2012-08-29T13:13:00Z</time>
      </trkpt>
      <trkpt lat="45.16407" lon="2.00094">
        <ele>396.2</ele>
        <time>2012-08-29T13:13:01Z</time>
      </trkpt>
      <trkpt lat="45.16406" lon="2.00095">
        <ele>396.7</ele>
        <time>2012-08-29T13:13:02Z</time>
      </trkpt>
      <trkpt lat="45.16404" lon="2.00097">
        <ele>396.7</ele>
        <time>2012-08-29T13:13:03Z</time>
      </trkpt>
      <trkpt lat="45.16401" lon="2.00102">
        <ele>397.2</ele>
        <time>2012-08-29T13:13:09Z</time>
      </trkpt>
      <trkpt lat="45.16394" lon="2.00106">
        <ele>397.6</ele>
        <time>2012-08-29T13:13:13Z</time>
      </trkpt>
      <trkpt lat="45.16393" lon="2.00106">
        <ele>397.6</ele>
        <time>2012-08-29T13:13:14Z</time>
      </trkpt>
      <trkpt lat="45.1639" lon="2.00108">
        <ele>398.6</ele>
        <time>2012-08-29T13:13:20Z</time>
      </trkpt>
      <trkpt lat="45.16388" lon="2.00108">
        <ele>398.1</ele>
        <time>2012-08-29T13:13:22Z</time>
      </trkpt>
      <trkpt lat="45.16386" lon="2.00108">
        <ele>399.1</ele>
        <time>2012-08-29T13:13:23Z</time>
      </trkpt>
      <trkpt lat="45.16385" lon="2.00109">
        <ele>399.1</ele>
        <time>2012-08-29T13:13:24Z</time>
      </trkpt>
      <trkpt lat="45.16383" lon="2.0011">
        <ele>399.1</ele>
        <time>2012-08-29T13:13:25Z</time>
      </trkpt>
      <trkpt lat="45.16381" lon="2.0011">
        <ele>399.1</ele>
        <time>2012-08-29T13:13:26Z</time>
      </trkpt>
      <trkpt lat="45.16376" lon="2.00112">
        <ele>400</ele>
        <time>2012-08-29T13:13:33Z</time>
      </trkpt>
      <trkpt lat="45.16372" lon="2.00114">
        <ele>400.5</ele>
        <time>2012-08-29T13:13:35Z</time>
      </trkpt>
      <trkpt lat="45.16369" lon="2.00115">
        <ele>400</ele>
        <time>2012-08-29T13:13:36Z</time>
      </trkpt>
      <trkpt lat="45.16366" lon="2.00116">
        <ele>400.5</ele>
        <time>2012-08-29T13:13:38Z</time>
      </trkpt>
      <trkpt lat="45.16362" lon="2.00116">
        <ele>401</ele>
        <time>2012-08-29T13:13:44Z</time>
      </trkpt>
      <trkpt lat="45.1636" lon="2.00117">
        <ele>401.5</ele>
        <time>2012-08-29T13:13:45Z</time>
      </trkpt>
      <trkpt lat="45.16357" lon="2.00118">
        <ele>401.5</ele>
        <time>2012-08-29T13:13:46Z</time>
      </trkpt>
      <trkpt lat="45.16354" lon="2.00119">
        <ele>402</ele>
        <time>2012-08-29T13:13:48Z</time>
      </trkpt>
      <trkpt lat="45.16351" lon="2.00118">
        <ele>402</ele>
        <time>2012-08-29T13:13:53Z</time>
      </trkpt>
      <trkpt lat="45.16344" lon="2.00123">
        <ele>402.9</ele>
        <time>2012-08-29T13:14:00Z</time>
      </trkpt>
      <trkpt lat="45.16339" lon="2.00121">
        <ele>404.4</ele>
        <time>2012-08-29T13:14:05Z</time>
      </trkpt>
      <trkpt lat="45.16336" lon="2.00122">
        <ele>404.9</ele>
        <time>2012-08-29T13:14:10Z</time>
      </trkpt>
      <trkpt lat="45.16334" lon="2.00124">
        <ele>404.9</ele>
        <time>2012-08-29T13:14:11Z</time>
      </trkpt>
      <trkpt lat="45.16324" lon="2.00127">
        <ele>405.3</ele>
        <time>2012-08-29T13:14:17Z</time>
      </trkpt>
      <trkpt lat="45.16321" lon="2.00129">
        <ele>406.3</ele>
        <time>2012-08-29T13:14:22Z</time>
      </trkpt>
      <trkpt lat="45.16315" lon="2.00137">
        <ele>407.3</ele>
        <time>2012-08-29T13:14:27Z</time>
      </trkpt>
      <trkpt lat="45.16308" lon="2.00146">
        <ele>407.7</ele>
        <time>2012-08-29T13:14:34Z</time>
      </trkpt>
      <trkpt lat="45.16304" lon="2.0015">
        <ele>409.2</ele>
        <time>2012-08-29T13:14:39Z</time>
      </trkpt>
      <trkpt lat="45.16301" lon="2.00152">
        <ele>409.2</ele>
        <time>2012-08-29T13:14:43Z</time>
      </trkpt>
      <trkpt lat="45.16295" lon="2.00162">
        <ele>410.1</ele>
        <time>2012-08-29T13:14:49Z</time>
      </trkpt>
      <trkpt lat="45.16295" lon="2.00161">
        <ele>411.6</ele>
        <time>2012-08-29T13:14:53Z</time>
      </trkpt>
      <trkpt lat="45.16296" lon="2.00158">
        <ele>412.1</ele>
        <time>2012-08-29T13:15:00Z</time>
      </trkpt>
      <trkpt lat="45.16297" lon="2.00154">
        <ele>412.5</ele>
        <time>2012-08-29T13:15:03Z</time>
      </trkpt>
      <trkpt lat="45.16299" lon="2.00151">
        <ele>413</ele>
        <time>2012-08-29T13:15:09Z</time>
      </trkpt>
      <trkpt lat="45.16299" lon="2.0015">
        <ele>413</ele>
        <time>2012-08-29T13:15:11Z</time>
      </trkpt>
      <trkpt lat="45.16303" lon="2.00137">
        <ele>414</ele>
        <time>2012-08-29T13:15:17Z</time>
      </trkpt>
      <trkpt lat="45.16304" lon="2.00133">
        <ele>414.5</ele>
        <time>2012-08-29T13:15:22Z</time>
      </trkpt>
      <trkpt lat="45.16306" lon="2.0013">
        <ele>414.5</ele>
        <time>2012-08-29T13:15:25Z</time>
      </trkpt>
      <trkpt lat="45.1631" lon="2.00123">
        <ele>415.9</ele>
        <time>2012-08-29T13:15:32Z</time>
      </trkpt>
      <trkpt lat="45.16314" lon="2.00119">
        <ele>416.4</ele>
        <time>2012-08-29T13:15:38Z</time>
      </trkpt>
      <trkpt lat="45.1632" lon="2.00112">
        <ele>416.9</ele>
        <time>2012-08-29T13:15:42Z</time>
      </trkpt>
      <trkpt lat="45.16324" lon="2.00108">
        <ele>417.4</ele>
        <time>2012-08-29T13:15:44Z</time>
      </trkpt>
      <trkpt lat="45.16328" lon="2.00104">
        <ele>417.4</ele>
        <time>2012-08-29T13:15:48Z</time>
      </trkpt>
      <trkpt lat="45.16331" lon="2.00104">
        <ele>417.8</ele>
        <time>2012-08-29T13:15:51Z</time>
      </trkpt>
      <trkpt lat="45.16335" lon="2.00099">
        <ele>418.8</ele>
        <time>2012-08-29T13:15:58Z</time>
      </trkpt>
      <trkpt lat="45.16335" lon="2.00099">
        <ele>418.8</ele>
        <time>2012-08-29T13:15:59Z</time>
      </trkpt>
      <trkpt lat="45.16342" lon="2.00088">
        <ele>419.8</ele>
        <time>2012-08-29T13:16:04Z</time>
      </trkpt>
      <trkpt lat="45.16348" lon="2.00082">
        <ele>420.2</ele>
        <time>2012-08-29T13:16:11Z</time>
      </trkpt>
      <trkpt lat="45.16357" lon="2.00071">
        <ele>420.7</ele>
        <time>2012-08-29T13:16:18Z</time>
      </trkpt>
      <trkpt lat="45.16359" lon="2.00066">
        <ele>420.7</ele>
        <time>2012-08-29T13:16:21Z</time>
      </trkpt>
      <trkpt lat="45.16366" lon="2.00056">
        <ele>421.7</ele>
        <time>2012-08-29T13:16:27Z</time>
      </trkpt>
      <trkpt lat="45.16371" lon="2.00048">
        <ele>421.7</ele>
        <time>2012-08-29T13:16:33Z</time>
      </trkpt>
      <trkpt lat="45.16371" lon="2.00047">
        <ele>422.2</ele>
        <time>2012-08-29T13:16:34Z</time>
      </trkpt>
      <trkpt lat="45.16376" lon="2.00033">
        <ele>422.6</ele>
        <time>2012-08-29T13:16:40Z</time>
      </trkpt>
      <trkpt lat="45.16378" lon="2.00033">
        <ele>422.6</ele>
        <time>2012-08-29T13:16:44Z</time>
      </trkpt>
      <trkpt lat="45.16382" lon="2.00032">
        <ele>423.1</ele>
        <time>2012-08-29T13:16:49Z</time>
      </trkpt>
      <trkpt lat="45.16389" lon="2.00018">
        <ele>424.1</ele>
        <time>2012-08-29T13:16:55Z</time>
      </trkpt>
      <trkpt lat="45.16394" lon="2.00009">
        <ele>424.6</ele>
        <time>2012-08-29T13:16:59Z</time>
      </trkpt>
      <trkpt lat="45.16401" lon="1.99999">
        <ele>425</ele>
        <time>2012-08-29T13:17:06Z</time>
      </trkpt>
      <trkpt lat="45.16403" lon="1.99996">
        <ele>425.5</ele>
        <time>2012-08-29T13:17:12Z</time>
      </trkpt>
      <trkpt lat="45.16407" lon="1.99987">
        <ele>426.5</ele>
        <time>2012-08-29T13:17:16Z</time>
      </trkpt>
      <trkpt lat="45.16408" lon="1.99985">
        <ele>426.5</ele>
        <time>2012-08-29T13:17:21Z</time>
      </trkpt>
      <trkpt lat="45.16412" lon="1.99976">
        <ele>427.4</ele>
        <time>2012-08-29T13:17:27Z</time>
      </trkpt>
      <trkpt lat="45.16418" lon="1.99963">
        <ele>427.9</ele>
        <time>2012-08-29T13:17:32Z</time>
      </trkpt>
      <trkpt lat="45.16419" lon="1.99959">
        <ele>427.9</ele>
        <time>2012-08-29T13:17:38Z</time>
      </trkpt>
      <trkpt lat="45.16421" lon="1.9996">
        <ele>427.9</ele>
        <time>2012-08-29T13:17:43Z</time>
      </trkpt>
      <trkpt lat="45.16429" lon="1.99947">
        <ele>428.9</ele>
        <time>2012-08-29T13:17:48Z</time>
      </trkpt>
      <trkpt lat="45.16433" lon="1.99944">
        <ele>429.4</ele>
        <time>2012-08-29T13:17:50Z</time>
      </trkpt>
      <trkpt lat="45.16435" lon="1.99939">
        <ele>429.4</ele>
        <time>2012-08-29T13:17:55Z</time>
      </trkpt>
      <trkpt lat="45.16435" lon="1.99939">
        <ele>429.9</ele>
        <time>2012-08-29T13:17:58Z</time>
      </trkpt>
      <trkpt lat="45.16441" lon="1.99934">
        <ele>430.3</ele>
        <time>2012-08-29T13:18:04Z</time>
      </trkpt>
      <trkpt lat="45.16446" lon="1.99924">
        <ele>430.8</ele>
        <time>2012-08-29T13:18:08Z</time>
      </trkpt>
      <trkpt lat="45.16453" lon="1.99917">
        <ele>431.8</ele>
        <time>2012-08-29T13:18:15Z</time>
      </trkpt>
      <trkpt lat="45.16455" lon="1.99915">
        <ele>432.2</ele>
        <time>2012-08-29T13:18:20Z</time>
      </trkpt>
      <trkpt lat="45.1646" lon="1.99896">
        <ele>433.7</ele>
        <time>2012-08-29T13:18:26Z</time>
      </trkpt>
      <trkpt lat="45.16462" lon="1.99889">
        <ele>433.2</ele>
        <time>2012-08-29T13:18:32Z</time>
      </trkpt>
      <trkpt lat="45.16462" lon="1.99885">
        <ele>434.6</ele>
        <time>2012-08-29T13:18:36Z</time>
      </trkpt>
      <trkpt lat="45.16454" lon="1.99884">
        <ele>435.6</ele>
        <time>2012-08-29T13:18:43Z</time>
      </trkpt>
      <trkpt lat="45.16452" lon="1.99884">
        <ele>436.1</ele>
        <time>2012-08-29T13:18:49Z</time>
      </trkpt>
      <trkpt lat="45.16451" lon="1.99886">
        <ele>436.1</ele>
        <time>2012-08-29T13:18:50Z</time>
      </trkpt>
      <trkpt lat="45.16438" lon="1.99899">
        <ele>437.5</ele>
        <time>2012-08-29T13:18:58Z</time>
      </trkpt>
      <trkpt lat="45.16434" lon="1.99901">
        <ele>438</ele>
        <time>2012-08-29T13:19:05Z</time>
      </trkpt>
      <trkpt lat="45.16433" lon="1.99902">
        <ele>438.5</ele>
        <time>2012-08-29T13:19:07Z</time>
      </trkpt>
      <trkpt lat="45.16428" lon="1.99909">
        <ele>439.5</ele>
        <time>2012-08-29T13:19:11Z</time>
      </trkpt>
      <trkpt lat="45.1642" lon="1.99913">
        <ele>439.9</ele>
        <time>2012-08-29T13:19:18Z</time>
      </trkpt>
      <trkpt lat="45.16416" lon="1.99916">
        <ele>440.9</ele>
        <time>2012-08-29T13:19:24Z</time>
      </trkpt>
      <trkpt lat="45.16414" lon="1.99918">
        <ele>440.9</ele>
        <time>2012-08-29T13:19:25Z</time>
      </trkpt>
      <trkpt lat="45.16406" lon="1.99922">
        <ele>442.3</ele>
        <time>2012-08-29T13:19:32Z</time>
      </trkpt>
      <trkpt lat="45.16405" lon="1.99923">
        <ele>441.9</ele>
        <time>2012-08-29T13:19:33Z</time>
      </trkpt>
      <trkpt lat="45.16401" lon="1.99931">
        <ele>442.8</ele>
        <time>2012-08-29T13:19:40Z</time>
      </trkpt>
      <trkpt lat="45.16392" lon="1.99939">
        <ele>443.8</ele>
        <time>2012-08-29T13:19:46Z</time>
      </trkpt>
      <trkpt lat="45.16387" lon="1.99946">
        <ele>445.2</ele>
        <time>2012-08-29T13:19:54Z</time>
      </trkpt>
      <trkpt lat="45.16386" lon="1.99948">
        <ele>445.2</ele>
        <time>2012-08-29T13:19:55Z</time>
      </trkpt>
      <trkpt lat="45.16378" lon="1.99953">
        <ele>446.2</ele>
        <time>2012-08-29T13:20:02Z</time>
      </trkpt>
      <trkpt lat="45.16378" lon="1.99953">
        <ele>445.7</ele>
        <time>2012-08-29T13:20:04Z</time>
      </trkpt>
      <trkpt lat="45.16375" lon="1.99957">
        <ele>446.7</ele>
        <time>2012-08-29T13:20:06Z</time>
      </trkpt>
      <trkpt lat="45.16366" lon="1.99966">
        <ele>447.6</ele>
        <time>2012-08-29T13:20:12Z</time>
      </trkpt>
      <trkpt lat="45.1636" lon="1.99972">
        <ele>448.1</ele>
        <time>2012-08-29T13:20:19Z</time>
      </trkpt>
      <trkpt lat="45.1635" lon="1.99976">
        <ele>449.1</ele>
        <time>2012-08-29T13:20:25Z</time>
      </trkpt>
      <trkpt lat="45.16348" lon="1.99977">
        <ele>450</ele>
        <time>2012-08-29T13:20:31Z</time>
      </trkpt>
      <trkpt lat="45.16347" lon="1.99978">
        <ele>450</ele>
        <time>2012-08-29T13:20:32Z</time>
      </trkpt>
      <trkpt lat="45.1634" lon="1.99989">
        <ele>451</ele>
        <time>2012-08-29T13:20:38Z</time>
      </trkpt>
      <trkpt lat="45.16335" lon="1.99992">
        <ele>451.5</ele>
        <time>2012-08-29T13:20:44Z</time>
      </trkpt>
      <trkpt lat="45.16328" lon="2.00001">
        <ele>452</ele>
        <time>2012-08-29T13:20:48Z</time>
      </trkpt>
      <trkpt lat="45.16322" lon="2.00005">
        <ele>452.9</ele>
        <time>2012-08-29T13:20:55Z</time>
      </trkpt>
      <trkpt lat="45.16316" lon="2.00013">
        <ele>454.4</ele>
        <time>2012-08-29T13:21:02Z</time>
      </trkpt>
      <trkpt lat="45.16314" lon="2.00015">
        <ele>454.4</ele>
        <time>2012-08-29T13:21:03Z</time>
      </trkpt>
      <trkpt lat="45.16306" lon="2.00019">
        <ele>454.4</ele>
        <time>2012-08-29T13:21:08Z</time>
      </trkpt>
      <trkpt lat="45.16306" lon="2.0002">
        <ele>455.3</ele>
        <time>2012-08-29T13:21:12Z</time>
      </trkpt>
      <trkpt lat="45.16299" lon="2.00028">
        <ele>455.3</ele>
        <time>2012-08-29T13:21:17Z</time>
      </trkpt>
      <trkpt lat="45.16293" lon="2.00029">
        <ele>456.3</ele>
        <time>2012-08-29T13:21:23Z</time>
      </trkpt>
      <trkpt lat="45.16293" lon="2.00029">
        <ele>456.8</ele>
        <time>2012-08-29T13:21:24Z</time>
      </trkpt>
      <trkpt lat="45.16296" lon="2.00026">
        <ele>457.2</ele>
        <time>2012-08-29T13:21:29Z</time>
      </trkpt>
      <trkpt lat="45.16298" lon="2.00025">
        <ele>458.2</ele>
        <time>2012-08-29T13:21:34Z</time>
      </trkpt>
      <trkpt lat="45.16302" lon="2.00024">
        <ele>458.2</ele>
        <time>2012-08-29T13:21:36Z</time>
      </trkpt>
      <trkpt lat="45.16309" lon="2.00008">
        <ele>459.2</ele>
        <time>2012-08-29T13:21:43Z</time>
      </trkpt>
      <trkpt lat="45.16311" lon="2.00004">
        <ele>460.1</ele>
        <time>2012-08-29T13:21:48Z</time>
      </trkpt>
      <trkpt lat="45.16314" lon="1.99998">
        <ele>460.1</ele>
        <time>2012-08-29T13:21:54Z</time>
      </trkpt>
      <trkpt lat="45.16319" lon="1.99988">
        <ele>460.6</ele>
        <time>2012-08-29T13:21:58Z</time>
      </trkpt>
      <trkpt lat="45.16323" lon="1.99981">
        <ele>461.6</ele>
        <time>2012-08-29T13:22:04Z</time>
      </trkpt>
      <trkpt lat="45.16324" lon="1.99979">
        <ele>461.6</ele>
        <time>2012-08-29T13:22:07Z</time>
      </trkpt>
      <trkpt lat="45.16328" lon="1.99975">
        <ele>462.5</ele>
        <time>2012-08-29T13:22:10Z</time>
      </trkpt>
      <trkpt lat="45.16335" lon="1.9996">
        <ele>463</ele>
        <time>2012-08-29T13:22:17Z</time>
      </trkpt>
      <trkpt lat="45.16336" lon="1.9996">
        <ele>463.5</ele>
        <time>2012-08-29T13:22:24Z</time>
      </trkpt>
      <trkpt lat="45.1634" lon="1.99951">
        <ele>464</ele>
        <time>2012-08-29T13:22:28Z</time>
      </trkpt>
      <trkpt lat="45.16346" lon="1.99934">
        <ele>464.5</ele>
        <time>2012-08-29T13:22:35Z</time>
      </trkpt>
      <trkpt lat="45.16349" lon="1.99931">
        <ele>464.9</ele>
        <time>2012-08-29T13:22:42Z</time>
      </trkpt>
      <trkpt lat="45.16349" lon="1.99931">
        <ele>465.4</ele>
        <time>2012-08-29T13:22:47Z</time>
      </trkpt>
      <trkpt lat="45.16352" lon="1.99926">
        <ele>465.4</ele>
        <time>2012-08-29T13:22:50Z</time>
      </trkpt>
      <trkpt lat="45.16355" lon="1.99915">
        <ele>466.4</ele>
        <time>2012-08-29T13:22:54Z</time>
      </trkpt>
      <trkpt lat="45.16357" lon="1.99904">
        <ele>465.9</ele>
        <time>2012-08-29T13:22:57Z</time>
      </trkpt>
      <trkpt lat="45.16359" lon="1.99894">
        <ele>466.9</ele>
        <time>2012-08-29T13:23:01Z</time>
      </trkpt>
      <trkpt lat="45.16358" lon="1.99896">
        <ele>467.3</ele>
        <time>2012-08-29T13:23:06Z</time>
      </trkpt>
      <trkpt lat="45.16354" lon="1.99896">
        <ele>468.8</ele>
        <time>2012-08-29T13:23:11Z</time>
      </trkpt>
      <trkpt lat="45.16346" lon="1.99893">
        <ele>470.2</ele>
        <time>2012-08-29T13:23:19Z</time>
      </trkpt>
      <trkpt lat="45.16344" lon="1.99893">
        <ele>471.2</ele>
        <time>2012-08-29T13:23:25Z</time>
      </trkpt>
      <trkpt lat="45.16344" lon="1.99893">
        <ele>471.2</ele>
        <time>2012-08-29T13:23:32Z</time>
      </trkpt>
      <trkpt lat="45.16343" lon="1.99894">
        <ele>471.2</ele>
        <time>2012-08-29T13:23:39Z</time>
      </trkpt>
      <trkpt lat="45.16343" lon="1.99898">
        <ele>471.7</ele>
        <time>2012-08-29T13:23:46Z</time>
      </trkpt>
      <trkpt lat="45.16343" lon="1.99898">
        <ele>471.2</ele>
        <time>2012-08-29T13:23:54Z</time>
      </trkpt>
      <trkpt lat="45.16343" lon="1.99898">
        <ele>471.2</ele>
        <time>2012-08-29T13:24:07Z</time>
      </trkpt>
      <trkpt lat="45.16343" lon="1.99901">
        <ele>471.2</ele>
        <time>2012-08-29T13:24:14Z</time>
      </trkpt>
      <trkpt lat="45.1634" lon="1.99905">
        <ele>471.7</ele>
        <time>2012-08-29T13:24:17Z</time>
      </trkpt>
      <trkpt lat="45.16324" lon="1.99918">
        <ele>473.6</ele>
        <time>2012-08-29T13:24:27Z</time>
      </trkpt>
      <trkpt lat="45.16322" lon="1.99917">
        <ele>468.8</ele>
        <time>2012-08-29T13:24:28Z</time>
      </trkpt>
      <trkpt lat="45.1632" lon="1.99917">
        <ele>478.9</ele>
        <time>2012-08-29T13:24:29Z</time>
      </trkpt>
      <trkpt lat="45.16318" lon="1.99915">
        <ele>474.5</ele>
        <time>2012-08-29T13:24:30Z</time>
      </trkpt>
      <trkpt lat="45.16302" lon="1.99909">
        <ele>476.5</ele>
        <time>2012-08-29T13:24:38Z</time>
      </trkpt>
      <trkpt lat="45.16283" lon="1.99908">
        <ele>477.9</ele>
        <time>2012-08-29T13:24:48Z</time>
      </trkpt>
      <trkpt lat="45.16261" lon="1.99911">
        <ele>479.4</ele>
        <time>2012-08-29T13:24:58Z</time>
      </trkpt>
      <trkpt lat="45.1624" lon="1.99918">
        <ele>482.2</ele>
        <time>2012-08-29T13:25:08Z</time>
      </trkpt>
      <trkpt lat="45.16222" lon="1.99928">
        <ele>484.6</ele>
        <time>2012-08-29T13:25:17Z</time>
      </trkpt>
      <trkpt lat="45.16203" lon="1.9994">
        <ele>488</ele>
        <time>2012-08-29T13:25:25Z</time>
      </trkpt>
      <trkpt lat="45.16195" lon="1.99942">
        <ele>488</ele>
        <time>2012-08-29T13:25:32Z</time>
      </trkpt>
      <trkpt lat="45.16182" lon="1.99948">
        <ele>489.9</ele>
        <time>2012-08-29T13:25:38Z</time>
      </trkpt>
      <trkpt lat="45.16155" lon="1.99959">
        <ele>493.8</ele>
        <time>2012-08-29T13:25:47Z</time>
      </trkpt>
      <trkpt lat="45.16151" lon="1.9996">
        <ele>493.8</ele>
        <time>2012-08-29T13:25:48Z</time>
      </trkpt>
      <trkpt lat="45.16131" lon="1.9997">
        <ele>497.1</ele>
        <time>2012-08-29T13:25:55Z</time>
      </trkpt>
      <trkpt lat="45.16106" lon="1.99976">
        <ele>499.5</ele>
        <time>2012-08-29T13:26:03Z</time>
      </trkpt>
      <trkpt lat="45.16069" lon="1.99977">
        <ele>502</ele>
        <time>2012-08-29T13:26:12Z</time>
      </trkpt>
      <trkpt lat="45.16046" lon="1.99973">
        <ele>503.4</ele>
        <time>2012-08-29T13:26:17Z</time>
      </trkpt>
      <trkpt lat="45.16019" lon="1.99953">
        <ele>505.8</ele>
        <time>2012-08-29T13:26:25Z</time>
      </trkpt>
      <trkpt lat="45.15986" lon="1.99924">
        <ele>506.8</ele>
        <time>2012-08-29T13:26:34Z</time>
      </trkpt>
      <trkpt lat="45.15952" lon="1.99892">
        <ele>505.3</ele>
        <time>2012-08-29T13:26:43Z</time>
      </trkpt>
      <trkpt lat="45.15927" lon="1.99872">
        <ele>505.8</ele>
        <time>2012-08-29T13:26:50Z</time>
      </trkpt>
      <trkpt lat="45.15904" lon="1.99867">
        <ele>506.3</ele>
        <time>2012-08-29T13:26:56Z</time>
      </trkpt>
      <trkpt lat="45.15884" lon="1.99864">
        <ele>508.2</ele>
        <time>2012-08-29T13:27:01Z</time>
      </trkpt>
      <trkpt lat="45.1586" lon="1.99858">
        <ele>510.6</ele>
        <time>2012-08-29T13:27:08Z</time>
      </trkpt>
      <trkpt lat="45.15856" lon="1.99857">
        <ele>506.3</ele>
        <time>2012-08-29T13:27:11Z</time>
      </trkpt>
      <trkpt lat="45.15854" lon="1.99856">
        <ele>510.6</ele>
        <time>2012-08-29T13:27:13Z</time>
      </trkpt>
      <trkpt lat="45.15854" lon="1.99855">
        <ele>510.1</ele>
        <time>2012-08-29T13:27:14Z</time>
      </trkpt>
      <trkpt lat="45.15854" lon="1.99854">
        <ele>510.6</ele>
        <time>2012-08-29T13:27:20Z</time>
      </trkpt>
      <trkpt lat="45.15855" lon="1.99854">
        <ele>510.1</ele>
        <time>2012-08-29T13:27:25Z</time>
      </trkpt>
      <trkpt lat="45.1587" lon="1.9984">
        <ele>509.2</ele>
        <time>2012-08-29T13:27:32Z</time>
      </trkpt>
      <trkpt lat="45.15895" lon="1.99813">
        <ele>507.2</ele>
        <time>2012-08-29T13:27:39Z</time>
      </trkpt>
      <trkpt lat="45.15901" lon="1.99807">
        <ele>506.3</ele>
        <time>2012-08-29T13:27:44Z</time>
      </trkpt>
      <trkpt lat="45.15901" lon="1.99807">
        <ele>505.8</ele>
        <time>2012-08-29T13:28:02Z</time>
      </trkpt>
      <trkpt lat="45.15901" lon="1.99807">
        <ele>505.8</ele>
        <time>2012-08-29T13:28:10Z</time>
      </trkpt>
      <trkpt lat="45.15901" lon="1.99807">
        <ele>505.8</ele>
        <time>2012-08-29T13:28:11Z</time>
      </trkpt>
      <trkpt lat="45.1591" lon="1.99797">
        <ele>504.4</ele>
        <time>2012-08-29T13:28:20Z</time>
      </trkpt>
      <trkpt lat="45.15917" lon="1.99792">
        <ele>503.4</ele>
        <time>2012-08-29T13:28:26Z</time>
      </trkpt>
      <trkpt lat="45.15925" lon="1.99788">
        <ele>502.4</ele>
        <time>2012-08-29T13:28:34Z</time>
      </trkpt>
      <trkpt lat="45.15928" lon="1.99777">
        <ele>502</ele>
        <time>2012-08-29T13:28:41Z</time>
      </trkpt>
      <trkpt lat="45.15929" lon="1.99775">
        <ele>501</ele>
        <time>2012-08-29T13:28:42Z</time>
      </trkpt>
      <trkpt lat="45.15929" lon="1.99773">
        <ele>501.5</ele>
        <time>2012-08-29T13:28:43Z</time>
      </trkpt>
      <trkpt lat="45.15933" lon="1.9976">
        <ele>499.5</ele>
        <time>2012-08-29T13:28:50Z</time>
      </trkpt>
      <trkpt lat="45.15934" lon="1.9975">
        <ele>499.1</ele>
        <time>2012-08-29T13:28:56Z</time>
      </trkpt>
      <trkpt lat="45.15936" lon="1.99742">
        <ele>498.1</ele>
        <time>2012-08-29T13:29:03Z</time>
      </trkpt>
      <trkpt lat="45.15937" lon="1.99736">
        <ele>496.7</ele>
        <time>2012-08-29T13:29:09Z</time>
      </trkpt>
      <trkpt lat="45.15937" lon="1.99734">
        <ele>496.7</ele>
        <time>2012-08-29T13:29:10Z</time>
      </trkpt>
      <trkpt lat="45.15938" lon="1.99732">
        <ele>497.1</ele>
        <time>2012-08-29T13:29:11Z</time>
      </trkpt>
      <trkpt lat="45.15939" lon="1.9973">
        <ele>496.7</ele>
        <time>2012-08-29T13:29:12Z</time>
      </trkpt>
      <trkpt lat="45.15944" lon="1.9972">
        <ele>495.7</ele>
        <time>2012-08-29T13:29:19Z</time>
      </trkpt>
      <trkpt lat="45.15946" lon="1.99719">
        <ele>496.2</ele>
        <time>2012-08-29T13:29:22Z</time>
      </trkpt>
      <trkpt lat="45.15952" lon="1.99714">
        <ele>495.7</ele>
        <time>2012-08-29T13:29:28Z</time>
      </trkpt>
      <trkpt lat="45.15961" lon="1.99708">
        <ele>495.7</ele>
        <time>2012-08-29T13:29:37Z</time>
      </trkpt>
      <trkpt lat="45.15967" lon="1.99703">
        <ele>495.7</ele>
        <time>2012-08-29T13:29:45Z</time>
      </trkpt>
      <trkpt lat="45.15967" lon="1.99703">
        <ele>489.9</ele>
        <time>2012-08-29T13:29:54Z</time>
      </trkpt>
      <trkpt lat="45.15967" lon="1.99703">
        <ele>498.1</ele>
        <time>2012-08-29T13:29:55Z</time>
      </trkpt>
      <trkpt lat="45.15967" lon="1.99703">
        <ele>494.3</ele>
        <time>2012-08-29T13:29:56Z</time>
      </trkpt>
      <trkpt lat="45.15967" lon="1.99703">
        <ele>499.1</ele>
        <time>2012-08-29T13:30:07Z</time>
      </trkpt>
      <trkpt lat="45.15967" lon="1.99703">
        <ele>495.2</ele>
        <time>2012-08-29T13:30:08Z</time>
      </trkpt>
      <trkpt lat="45.15967" lon="1.99703">
        <ele>487</ele>
        <time>2012-08-29T13:30:10Z</time>
      </trkpt>
      <trkpt lat="45.15967" lon="1.99703">
        <ele>498.1</ele>
        <time>2012-08-29T13:30:11Z</time>
      </trkpt>
      <trkpt lat="45.15967" lon="1.99703">
        <ele>494.7</ele>
        <time>2012-08-29T13:30:12Z</time>
      </trkpt>
      <trkpt lat="45.15976" lon="1.99696">
        <ele>494.3</ele>
        <time>2012-08-29T13:30:19Z</time>
      </trkpt>
      <trkpt lat="45.15976" lon="1.99696">
        <ele>488.5</ele>
        <time>2012-08-29T13:30:29Z</time>
      </trkpt>
      <trkpt lat="45.15976" lon="1.99696">
        <ele>496.7</ele>
        <time>2012-08-29T13:30:30Z</time>
      </trkpt>
      <trkpt lat="45.15976" lon="1.99696">
        <ele>495.7</ele>
        <time>2012-08-29T13:30:31Z</time>
      </trkpt>
      <trkpt lat="45.15976" lon="1.99696">
        <ele>499.1</ele>
        <time>2012-08-29T13:30:33Z</time>
      </trkpt>
      <trkpt lat="45.15976" lon="1.99696">
        <ele>489</ele>
        <time>2012-08-29T13:30:34Z</time>
      </trkpt>
      <trkpt lat="45.15976" lon="1.99696">
        <ele>495.7</ele>
        <time>2012-08-29T13:30:35Z</time>
      </trkpt>
      <trkpt lat="45.15976" lon="1.99696">
        <ele>494.3</ele>
        <time>2012-08-29T13:30:51Z</time>
      </trkpt>
      <trkpt lat="45.15976" lon="1.99696">
        <ele>490.4</ele>
        <time>2012-08-29T13:30:57Z</time>
      </trkpt>
      <trkpt lat="45.15977" lon="1.99696">
        <ele>494.3</ele>
        <time>2012-08-29T13:30:58Z</time>
      </trkpt>
      <trkpt lat="45.15977" lon="1.99696">
        <ele>494.3</ele>
        <time>2012-08-29T13:30:59Z</time>
      </trkpt>
      <trkpt lat="45.15982" lon="1.99691">
        <ele>493.3</ele>
        <time>2012-08-29T13:31:06Z</time>
      </trkpt>
      <trkpt lat="45.15986" lon="1.9969">
        <ele>492.8</ele>
        <time>2012-08-29T13:31:08Z</time>
      </trkpt>
      <trkpt lat="45.16001" lon="1.9968">
        <ele>491.4</ele>
        <time>2012-08-29T13:31:16Z</time>
      </trkpt>
      <trkpt lat="45.16014" lon="1.99675">
        <ele>490.9</ele>
        <time>2012-08-29T13:31:24Z</time>
      </trkpt>
      <trkpt lat="45.16023" lon="1.9967">
        <ele>489</ele>
        <time>2012-08-29T13:31:32Z</time>
      </trkpt>
      <trkpt lat="45.16035" lon="1.99667">
        <ele>487.5</ele>
        <time>2012-08-29T13:31:41Z</time>
      </trkpt>
      <trkpt lat="45.16041" lon="1.99666">
        <ele>487</ele>
        <time>2012-08-29T13:31:45Z</time>
      </trkpt>
      <trkpt lat="45.16054" lon="1.99662">
        <ele>485.6</ele>
        <time>2012-08-29T13:31:54Z</time>
      </trkpt>
      <trkpt lat="45.16065" lon="1.99661">
        <ele>485.6</ele>
        <time>2012-08-29T13:32:01Z</time>
      </trkpt>
      <trkpt lat="45.16075" lon="1.99658">
        <ele>485.1</ele>
        <time>2012-08-29T13:32:08Z</time>
      </trkpt>
      <trkpt lat="45.16089" lon="1.99658">
        <ele>484.2</ele>
        <time>2012-08-29T13:32:19Z</time>
      </trkpt>
      <trkpt lat="45.161" lon="1.99659">
        <ele>484.2</ele>
        <time>2012-08-29T13:32:26Z</time>
      </trkpt>
      <trkpt lat="45.16108" lon="1.99658">
        <ele>483.7</ele>
        <time>2012-08-29T13:32:30Z</time>
      </trkpt>
      <trkpt lat="45.16122" lon="1.99658">
        <ele>483.2</ele>
        <time>2012-08-29T13:32:39Z</time>
      </trkpt>
      <trkpt lat="45.16135" lon="1.99656">
        <ele>482.2</ele>
        <time>2012-08-29T13:32:49Z</time>
      </trkpt>
      <trkpt lat="45.16147" lon="1.99653">
        <ele>480.8</ele>
        <time>2012-08-29T13:32:57Z</time>
      </trkpt>
      <trkpt lat="45.16151" lon="1.99648">
        <ele>480.8</ele>
        <time>2012-08-29T13:33:04Z</time>
      </trkpt>
      <trkpt lat="45.16154" lon="1.99648">
        <ele>480.3</ele>
        <time>2012-08-29T13:33:16Z</time>
      </trkpt>
      <trkpt lat="45.16161" lon="1.99646">
        <ele>479.8</ele>
        <time>2012-08-29T13:33:24Z</time>
      </trkpt>
      <trkpt lat="45.1617" lon="1.99647">
        <ele>479.4</ele>
        <time>2012-08-29T13:33:32Z</time>
      </trkpt>
      <trkpt lat="45.16185" lon="1.99655">
        <ele>478.9</ele>
        <time>2012-08-29T13:33:41Z</time>
      </trkpt>
      <trkpt lat="45.16194" lon="1.99657">
        <ele>478.4</ele>
        <time>2012-08-29T13:33:50Z</time>
      </trkpt>
      <trkpt lat="45.16204" lon="1.99658">
        <ele>478.4</ele>
        <time>2012-08-29T13:33:57Z</time>
      </trkpt>
      <trkpt lat="45.16218" lon="1.9966">
        <ele>477.4</ele>
        <time>2012-08-29T13:34:06Z</time>
      </trkpt>
      <trkpt lat="45.16233" lon="1.99656">
        <ele>477.4</ele>
        <time>2012-08-29T13:34:15Z</time>
      </trkpt>
      <trkpt lat="45.16244" lon="1.99656">
        <ele>477.9</ele>
        <time>2012-08-29T13:34:22Z</time>
      </trkpt>
      <trkpt lat="45.16256" lon="1.99659">
        <ele>477</ele>
        <time>2012-08-29T13:34:31Z</time>
      </trkpt>
      <trkpt lat="45.1626" lon="1.99658">
        <ele>477</ele>
        <time>2012-08-29T13:34:37Z</time>
      </trkpt>
      <trkpt lat="45.16252" lon="1.9966">
        <ele>477</ele>
        <time>2012-08-29T13:34:45Z</time>
      </trkpt>
      <trkpt lat="45.16247" lon="1.99662">
        <ele>477.4</ele>
        <time>2012-08-29T13:34:53Z</time>
      </trkpt>
      <trkpt lat="45.16248" lon="1.99667">
        <ele>476.5</ele>
        <time>2012-08-29T13:34:59Z</time>
      </trkpt>
      <trkpt lat="45.16254" lon="1.99668">
        <ele>475.5</ele>
        <time>2012-08-29T13:35:08Z</time>
      </trkpt>
      <trkpt lat="45.16253" lon="1.99668">
        <ele>475.5</ele>
        <time>2012-08-29T13:35:20Z</time>
      </trkpt>
      <trkpt lat="45.16246" lon="1.99665">
        <ele>477</ele>
        <time>2012-08-29T13:35:28Z</time>
      </trkpt>
      <trkpt lat="45.16246" lon="1.9966">
        <ele>477.4</ele>
        <time>2012-08-29T13:35:35Z</time>
      </trkpt>
      <trkpt lat="45.16255" lon="1.99662">
        <ele>477.4</ele>
        <time>2012-08-29T13:35:43Z</time>
      </trkpt>
      <trkpt lat="45.1626" lon="1.9966">
        <ele>477.4</ele>
        <time>2012-08-29T13:35:47Z</time>
      </trkpt>
      <trkpt lat="45.1627" lon="1.99656">
        <ele>477.4</ele>
        <time>2012-08-29T13:35:57Z</time>
      </trkpt>
      <trkpt lat="45.16275" lon="1.99653">
        <ele>477</ele>
        <time>2012-08-29T13:36:04Z</time>
      </trkpt>
      <trkpt lat="45.16283" lon="1.99647">
        <ele>477</ele>
        <time>2012-08-29T13:36:11Z</time>
      </trkpt>
      <trkpt lat="45.16291" lon="1.99642">
        <ele>477</ele>
        <time>2012-08-29T13:36:19Z</time>
      </trkpt>
      <trkpt lat="45.16298" lon="1.99637">
        <ele>477</ele>
        <time>2012-08-29T13:36:25Z</time>
      </trkpt>
      <trkpt lat="45.16303" lon="1.9963">
        <ele>477</ele>
        <time>2012-08-29T13:36:32Z</time>
      </trkpt>
      <trkpt lat="45.16313" lon="1.99622">
        <ele>476.5</ele>
        <time>2012-08-29T13:36:41Z</time>
      </trkpt>
      <trkpt lat="45.16313" lon="1.99622">
        <ele>477</ele>
        <time>2012-08-29T13:36:42Z</time>
      </trkpt>
      <trkpt lat="45.16322" lon="1.9961">
        <ele>476.5</ele>
        <time>2012-08-29T13:36:50Z</time>
      </trkpt>
      <trkpt lat="45.1633" lon="1.99606">
        <ele>477</ele>
        <time>2012-08-29T13:36:58Z</time>
      </trkpt>
      <trkpt lat="45.16332" lon="1.99604">
        <ele>477.4</ele>
        <time>2012-08-29T13:37:01Z</time>
      </trkpt>
      <trkpt lat="45.16343" lon="1.99597">
        <ele>476.5</ele>
        <time>2012-08-29T13:37:09Z</time>
      </trkpt>
      <trkpt lat="45.16355" lon="1.99594">
        <ele>476.5</ele>
        <time>2012-08-29T13:37:18Z</time>
      </trkpt>
      <trkpt lat="45.16366" lon="1.99585">
        <ele>476</ele>
        <time>2012-08-29T13:37:26Z</time>
      </trkpt>
      <trkpt lat="45.16376" lon="1.99578">
        <ele>476.5</ele>
        <time>2012-08-29T13:37:34Z</time>
      </trkpt>
      <trkpt lat="45.1639" lon="1.99575">
        <ele>476.5</ele>
        <time>2012-08-29T13:37:42Z</time>
      </trkpt>
      <trkpt lat="45.16399" lon="1.99576">
        <ele>477</ele>
        <time>2012-08-29T13:37:50Z</time>
      </trkpt>
      <trkpt lat="45.16414" lon="1.99572">
        <ele>478.4</ele>
        <time>2012-08-29T13:38:03Z</time>
      </trkpt>
      <trkpt lat="45.16427" lon="1.99565">
        <ele>479.4</ele>
        <time>2012-08-29T13:38:12Z</time>
      </trkpt>
      <trkpt lat="45.1644" lon="1.99562">
        <ele>479.4</ele>
        <time>2012-08-29T13:38:19Z</time>
      </trkpt>
      <trkpt lat="45.1645" lon="1.99558">
        <ele>480.8</ele>
        <time>2012-08-29T13:38:27Z</time>
      </trkpt>
      <trkpt lat="45.16461" lon="1.9955">
        <ele>480.8</ele>
        <time>2012-08-29T13:38:36Z</time>
      </trkpt>
      <trkpt lat="45.1647" lon="1.9954">
        <ele>481.3</ele>
        <time>2012-08-29T13:38:45Z</time>
      </trkpt>
      <trkpt lat="45.16474" lon="1.99532">
        <ele>480.8</ele>
        <time>2012-08-29T13:38:52Z</time>
      </trkpt>
      <trkpt lat="45.16481" lon="1.99525">
        <ele>481.3</ele>
        <time>2012-08-29T13:39:00Z</time>
      </trkpt>
      <trkpt lat="45.16491" lon="1.99507">
        <ele>482.2</ele>
        <time>2012-08-29T13:39:10Z</time>
      </trkpt>
      <trkpt lat="45.16497" lon="1.99489">
        <ele>482.2</ele>
        <time>2012-08-29T13:39:20Z</time>
      </trkpt>
      <trkpt lat="45.16498" lon="1.99473">
        <ele>483.2</ele>
        <time>2012-08-29T13:39:30Z</time>
      </trkpt>
      <trkpt lat="45.16499" lon="1.99464">
        <ele>483.2</ele>
        <time>2012-08-29T13:39:37Z</time>
      </trkpt>
      <trkpt lat="45.16496" lon="1.99471">
        <ele>483.7</ele>
        <time>2012-08-29T13:39:45Z</time>
      </trkpt>
      <trkpt lat="45.16496" lon="1.99471">
        <ele>484.2</ele>
        <time>2012-08-29T13:39:58Z</time>
      </trkpt>
      <trkpt lat="45.16496" lon="1.99475">
        <ele>484.6</ele>
        <time>2012-08-29T13:40:07Z</time>
      </trkpt>
      <trkpt lat="45.16497" lon="1.99475">
        <ele>484.6</ele>
        <time>2012-08-29T13:40:16Z</time>
      </trkpt>
      <trkpt lat="45.16497" lon="1.99475">
        <ele>484.6</ele>
        <time>2012-08-29T13:40:17Z</time>
      </trkpt>
      <trkpt lat="45.16502" lon="1.99457">
        <ele>484.6</ele>
        <time>2012-08-29T13:40:22Z</time>
      </trkpt>
      <trkpt lat="45.16514" lon="1.99429">
        <ele>485.1</ele>
        <time>2012-08-29T13:40:26Z</time>
      </trkpt>
      <trkpt lat="45.16518" lon="1.99422">
        <ele>485.1</ele>
        <time>2012-08-29T13:40:27Z</time>
      </trkpt>
      <trkpt lat="45.16546" lon="1.99381">
        <ele>485.1</ele>
        <time>2012-08-29T13:40:33Z</time>
      </trkpt>
      <trkpt lat="45.16549" lon="1.99373">
        <ele>485.1</ele>
        <time>2012-08-29T13:40:34Z</time>
      </trkpt>
      <trkpt lat="45.16551" lon="1.99365">
        <ele>486.1</ele>
        <time>2012-08-29T13:40:35Z</time>
      </trkpt>
      <trkpt lat="45.16552" lon="1.99356">
        <ele>486.1</ele>
        <time>2012-08-29T13:40:36Z</time>
      </trkpt>
      <trkpt lat="45.16554" lon="1.99346">
        <ele>486.1</ele>
        <time>2012-08-29T13:40:37Z</time>
      </trkpt>
      <trkpt lat="45.16554" lon="1.99337">
        <ele>485.6</ele>
        <time>2012-08-29T13:40:38Z</time>
      </trkpt>
      <trkpt lat="45.16555" lon="1.99327">
        <ele>485.6</ele>
        <time>2012-08-29T13:40:39Z</time>
      </trkpt>
      <trkpt lat="45.16556" lon="1.99317">
        <ele>485.1</ele>
        <time>2012-08-29T13:40:40Z</time>
      </trkpt>
      <trkpt lat="45.16557" lon="1.99308">
        <ele>484.6</ele>
        <time>2012-08-29T13:40:41Z</time>
      </trkpt>
      <trkpt lat="45.16556" lon="1.99299">
        <ele>484.6</ele>
        <time>2012-08-29T13:40:42Z</time>
      </trkpt>
      <trkpt lat="45.16555" lon="1.99291">
        <ele>484.2</ele>
        <time>2012-08-29T13:40:43Z</time>
      </trkpt>
      <trkpt lat="45.16551" lon="1.99283">
        <ele>484.2</ele>
        <time>2012-08-29T13:40:44Z</time>
      </trkpt>
      <trkpt lat="45.16546" lon="1.99275">
        <ele>484.2</ele>
        <time>2012-08-29T13:40:45Z</time>
      </trkpt>
      <trkpt lat="45.1654" lon="1.99268">
        <ele>483.7</ele>
        <time>2012-08-29T13:40:46Z</time>
      </trkpt>
      <trkpt lat="45.16534" lon="1.99263">
        <ele>483.2</ele>
        <time>2012-08-29T13:40:47Z</time>
      </trkpt>
      <trkpt lat="45.16523" lon="1.99251">
        <ele>482.7</ele>
        <time>2012-08-29T13:40:49Z</time>
      </trkpt>
      <trkpt lat="45.16518" lon="1.99244">
        <ele>479.8</ele>
        <time>2012-08-29T13:40:50Z</time>
      </trkpt>
      <trkpt lat="45.16513" lon="1.99235">
        <ele>482.7</ele>
        <time>2012-08-29T13:40:51Z</time>
      </trkpt>
      <trkpt lat="45.16509" lon="1.99224">
        <ele>481.3</ele>
        <time>2012-08-29T13:40:52Z</time>
      </trkpt>
      <trkpt lat="45.16506" lon="1.99214">
        <ele>482.2</ele>
        <time>2012-08-29T13:40:53Z</time>
      </trkpt>
      <trkpt lat="45.16505" lon="1.99204">
        <ele>481.8</ele>
        <time>2012-08-29T13:40:54Z</time>
      </trkpt>
      <trkpt lat="45.16505" lon="1.99194">
        <ele>481.8</ele>
        <time>2012-08-29T13:40:55Z</time>
      </trkpt>
      <trkpt lat="45.16507" lon="1.99175">
        <ele>484.6</ele>
        <time>2012-08-29T13:40:57Z</time>
      </trkpt>
      <trkpt lat="45.16511" lon="1.99164">
        <ele>480.8</ele>
        <time>2012-08-29T13:40:58Z</time>
      </trkpt>
      <trkpt lat="45.16518" lon="1.99154">
        <ele>484.2</ele>
        <time>2012-08-29T13:40:59Z</time>
      </trkpt>
      <trkpt lat="45.16525" lon="1.99146">
        <ele>485.6</ele>
        <time>2012-08-29T13:41:00Z</time>
      </trkpt>
      <trkpt lat="45.16533" lon="1.99136">
        <ele>487</ele>
        <time>2012-08-29T13:41:01Z</time>
      </trkpt>
      <trkpt lat="45.16562" lon="1.99106">
        <ele>490.9</ele>
        <time>2012-08-29T13:41:05Z</time>
      </trkpt>
      <trkpt lat="45.16571" lon="1.99098">
        <ele>488</ele>
        <time>2012-08-29T13:41:06Z</time>
      </trkpt>
      <trkpt lat="45.16609" lon="1.99064">
        <ele>490.9</ele>
        <time>2012-08-29T13:41:10Z</time>
      </trkpt>
      <trkpt lat="45.16652" lon="1.99009">
        <ele>487.5</ele>
        <time>2012-08-29T13:41:16Z</time>
      </trkpt>
      <trkpt lat="45.16695" lon="1.9896">
        <ele>484.2</ele>
        <time>2012-08-29T13:41:22Z</time>
      </trkpt>
      <trkpt lat="45.16704" lon="1.98952">
        <ele>483.7</ele>
        <time>2012-08-29T13:41:23Z</time>
      </trkpt>
      <trkpt lat="45.16733" lon="1.9892">
        <ele>479.8</ele>
        <time>2012-08-29T13:41:27Z</time>
      </trkpt>
      <trkpt lat="45.16746" lon="1.98905">
        <ele>477.4</ele>
        <time>2012-08-29T13:41:30Z</time>
      </trkpt>
      <trkpt lat="45.16758" lon="1.98893">
        <ele>477</ele>
        <time>2012-08-29T13:41:35Z</time>
      </trkpt>
      <trkpt lat="45.16779" lon="1.98853">
        <ele>479.4</ele>
        <time>2012-08-29T13:41:40Z</time>
      </trkpt>
      <trkpt lat="45.16785" lon="1.98846">
        <ele>479.8</ele>
        <time>2012-08-29T13:41:41Z</time>
      </trkpt>
      <trkpt lat="45.16792" lon="1.98843">
        <ele>479.4</ele>
        <time>2012-08-29T13:41:42Z</time>
      </trkpt>
      <trkpt lat="45.16811" lon="1.9885">
        <ele>479.4</ele>
        <time>2012-08-29T13:41:45Z</time>
      </trkpt>
      <trkpt lat="45.16837" lon="1.98869">
        <ele>482.2</ele>
        <time>2012-08-29T13:41:48Z</time>
      </trkpt>
      <trkpt lat="45.16845" lon="1.98872">
        <ele>482.7</ele>
        <time>2012-08-29T13:41:49Z</time>
      </trkpt>
      <trkpt lat="45.16854" lon="1.98874">
        <ele>483.7</ele>
        <time>2012-08-29T13:41:50Z</time>
      </trkpt>
      <trkpt lat="45.16862" lon="1.98874">
        <ele>484.2</ele>
        <time>2012-08-29T13:41:51Z</time>
      </trkpt>
      <trkpt lat="45.16871" lon="1.98873">
        <ele>485.1</ele>
        <time>2012-08-29T13:41:52Z</time>
      </trkpt>
      <trkpt lat="45.16879" lon="1.98872">
        <ele>485.1</ele>
        <time>2012-08-29T13:41:53Z</time>
      </trkpt>
      <trkpt lat="45.16887" lon="1.98871">
        <ele>485.6</ele>
        <time>2012-08-29T13:41:54Z</time>
      </trkpt>
      <trkpt lat="45.16894" lon="1.98867">
        <ele>487</ele>
        <time>2012-08-29T13:41:55Z</time>
      </trkpt>
      <trkpt lat="45.16901" lon="1.98863">
        <ele>487</ele>
        <time>2012-08-29T13:41:56Z</time>
      </trkpt>
      <trkpt lat="45.16907" lon="1.98857">
        <ele>488</ele>
        <time>2012-08-29T13:41:57Z</time>
      </trkpt>
      <trkpt lat="45.16925" lon="1.98841">
        <ele>489.5</ele>
        <time>2012-08-29T13:42:00Z</time>
      </trkpt>
      <trkpt lat="45.16932" lon="1.98838">
        <ele>489.9</ele>
        <time>2012-08-29T13:42:01Z</time>
      </trkpt>
      <trkpt lat="45.16969" lon="1.98831">
        <ele>491.4</ele>
        <time>2012-08-29T13:42:06Z</time>
      </trkpt>
      <trkpt lat="45.17" lon="1.9882">
        <ele>492.3</ele>
        <time>2012-08-29T13:42:10Z</time>
      </trkpt>
      <trkpt lat="45.17019" lon="1.98802">
        <ele>492.3</ele>
        <time>2012-08-29T13:42:13Z</time>
      </trkpt>
      <trkpt lat="45.17023" lon="1.98794">
        <ele>492.8</ele>
        <time>2012-08-29T13:42:14Z</time>
      </trkpt>
      <trkpt lat="45.17025" lon="1.98784">
        <ele>492.3</ele>
        <time>2012-08-29T13:42:15Z</time>
      </trkpt>
      <trkpt lat="45.17025" lon="1.98775">
        <ele>492.3</ele>
        <time>2012-08-29T13:42:16Z</time>
      </trkpt>
      <trkpt lat="45.17026" lon="1.98765">
        <ele>492.8</ele>
        <time>2012-08-29T13:42:17Z</time>
      </trkpt>
      <trkpt lat="45.17028" lon="1.98734">
        <ele>492.3</ele>
        <time>2012-08-29T13:42:20Z</time>
      </trkpt>
      <trkpt lat="45.17031" lon="1.98727">
        <ele>492.8</ele>
        <time>2012-08-29T13:42:21Z</time>
      </trkpt>
      <trkpt lat="45.17036" lon="1.98721">
        <ele>492.3</ele>
        <time>2012-08-29T13:42:22Z</time>
      </trkpt>
      <trkpt lat="45.17042" lon="1.98718">
        <ele>492.8</ele>
        <time>2012-08-29T13:42:23Z</time>
      </trkpt>
      <trkpt lat="45.17049" lon="1.98715">
        <ele>493.3</ele>
        <time>2012-08-29T13:42:24Z</time>
      </trkpt>
      <trkpt lat="45.17056" lon="1.98714">
        <ele>493.3</ele>
        <time>2012-08-29T13:42:25Z</time>
      </trkpt>
      <trkpt lat="45.17064" lon="1.98714">
        <ele>493.3</ele>
        <time>2012-08-29T13:42:26Z</time>
      </trkpt>
      <trkpt lat="45.17072" lon="1.98714">
        <ele>493.8</ele>
        <time>2012-08-29T13:42:27Z</time>
      </trkpt>
      <trkpt lat="45.17087" lon="1.98713">
        <ele>493.8</ele>
        <time>2012-08-29T13:42:29Z</time>
      </trkpt>
      <trkpt lat="45.17095" lon="1.98711">
        <ele>494.3</ele>
        <time>2012-08-29T13:42:30Z</time>
      </trkpt>
      <trkpt lat="45.17102" lon="1.98706">
        <ele>493.8</ele>
        <time>2012-08-29T13:42:31Z</time>
      </trkpt>
      <trkpt lat="45.17028" lon="1.98734">
        <ele>492.3</ele>
        <time>2012-08-29T13:42:20Z</time>
      </trkpt>
      <trkpt lat="45.17028" lon="1.98734">
        <ele>492.3</ele>
        <time>2012-08-29T13:42:20Z</time>
      </trkpt>
      <trkpt lat="45.17031" lon="1.98727">
        <ele>492.8</ele>
        <time>2012-08-29T13:42:21Z</time>
      </trkpt>
      <trkpt lat="45.17036" lon="1.98721">
        <ele>492.3</ele>
        <time>2012-08-29T13:42:22Z</time>
      </trkpt>
      <trkpt lat="45.17042" lon="1.98718">
        <ele>492.8</ele>
        <time>2012-08-29T13:42:23Z</time>
      </trkpt>
      <trkpt lat="45.17049" lon="1.98715">
        <ele>493.3</ele>
        <time>2012-08-29T13:42:24Z</time>
      </trkpt>
      <trkpt lat="45.17056" lon="1.98714">
        <ele>493.3</ele>
        <time>2012-08-29T13:42:25Z</time>
      </trkpt>
      <trkpt lat="45.17064" lon="1.98714">
        <ele>493.3</ele>
        <time>2012-08-29T13:42:26Z</time>
      </trkpt>
      <trkpt lat="45.17072" lon="1.98714">
        <ele>493.8</ele>
        <time>2012-08-29T13:42:27Z</time>
      </trkpt>
      <trkpt lat="45.17087" lon="1.98713">
        <ele>493.8</ele>
        <time>2012-08-29T13:42:29Z</time>
      </trkpt>
      <trkpt lat="45.17095" lon="1.98711">
        <ele>494.3</ele>
        <time>2012-08-29T13:42:30Z</time>
      </trkpt>
      <trkpt lat="45.17102" lon="1.98706">
        <ele>493.8</ele>
        <time>2012-08-29T13:42:31Z</time>
      </trkpt>
      <trkpt lat="45.17109" lon="1.98699">
        <ele>493.8</ele>
        <time>2012-08-29T13:42:32Z</time>
      </trkpt>
      <trkpt lat="45.17114" lon="1.98689">
        <ele>493.3</ele>
        <time>2012-08-29T13:42:33Z</time>
      </trkpt>
      <trkpt lat="45.17119" lon="1.98679">
        <ele>493.8</ele>
        <time>2012-08-29T13:42:34Z</time>
      </trkpt>
      <trkpt lat="45.17124" lon="1.98668">
        <ele>494.7</ele>
        <time>2012-08-29T13:42:35Z</time>
      </trkpt>
      <trkpt lat="45.17141" lon="1.98615">
        <ele>496.7</ele>
        <time>2012-08-29T13:42:39Z</time>
      </trkpt>
      <trkpt lat="45.17143" lon="1.986">
        <ele>497.6</ele>
        <time>2012-08-29T13:42:40Z</time>
      </trkpt>
      <trkpt lat="45.17142" lon="1.98585">
        <ele>496.7</ele>
        <time>2012-08-29T13:42:41Z</time>
      </trkpt>
      <trkpt lat="45.17141" lon="1.98571">
        <ele>497.1</ele>
        <time>2012-08-29T13:42:42Z</time>
      </trkpt>
      <trkpt lat="45.17138" lon="1.98557">
        <ele>497.1</ele>
        <time>2012-08-29T13:42:43Z</time>
      </trkpt>
      <trkpt lat="45.17132" lon="1.98544">
        <ele>497.6</ele>
        <time>2012-08-29T13:42:44Z</time>
      </trkpt>
      <trkpt lat="45.17128" lon="1.98531">
        <ele>497.6</ele>
        <time>2012-08-29T13:42:45Z</time>
      </trkpt>
      <trkpt lat="45.17125" lon="1.98518">
        <ele>497.6</ele>
        <time>2012-08-29T13:42:46Z</time>
      </trkpt>
      <trkpt lat="45.17126" lon="1.98504">
        <ele>498.1</ele>
        <time>2012-08-29T13:42:47Z</time>
      </trkpt>
      <trkpt lat="45.17128" lon="1.9849">
        <ele>499.1</ele>
        <time>2012-08-29T13:42:48Z</time>
      </trkpt>
      <trkpt lat="45.17134" lon="1.98478">
        <ele>499.1</ele>
        <time>2012-08-29T13:42:49Z</time>
      </trkpt>
      <trkpt lat="45.17143" lon="1.9847">
        <ele>500</ele>
        <time>2012-08-29T13:42:50Z</time>
      </trkpt>
      <trkpt lat="45.17153" lon="1.98467">
        <ele>501</ele>
        <time>2012-08-29T13:42:51Z</time>
      </trkpt>
      <trkpt lat="45.17165" lon="1.98467">
        <ele>501</ele>
        <time>2012-08-29T13:42:52Z</time>
      </trkpt>
      <trkpt lat="45.17176" lon="1.9847">
        <ele>500.5</ele>
        <time>2012-08-29T13:42:53Z</time>
      </trkpt>
      <trkpt lat="45.17214" lon="1.9848">
        <ele>502</ele>
        <time>2012-08-29T13:42:56Z</time>
      </trkpt>
      <trkpt lat="45.17226" lon="1.98486">
        <ele>502.4</ele>
        <time>2012-08-29T13:42:57Z</time>
      </trkpt>
      <trkpt lat="45.17238" lon="1.98494">
        <ele>502.9</ele>
        <time>2012-08-29T13:42:58Z</time>
      </trkpt>
      <trkpt lat="45.1726" lon="1.98509">
        <ele>502.4</ele>
        <time>2012-08-29T13:43:00Z</time>
      </trkpt>
      <trkpt lat="45.1727" lon="1.98512">
        <ele>502.9</ele>
        <time>2012-08-29T13:43:01Z</time>
      </trkpt>
      <trkpt lat="45.17282" lon="1.98513">
        <ele>503.4</ele>
        <time>2012-08-29T13:43:02Z</time>
      </trkpt>
      <trkpt lat="45.17293" lon="1.9851">
        <ele>504.4</ele>
        <time>2012-08-29T13:43:03Z</time>
      </trkpt>
      <trkpt lat="45.17304" lon="1.98504">
        <ele>504.4</ele>
        <time>2012-08-29T13:43:04Z</time>
      </trkpt>
      <trkpt lat="45.17315" lon="1.98497">
        <ele>504.8</ele>
        <time>2012-08-29T13:43:05Z</time>
      </trkpt>
      <trkpt lat="45.17324" lon="1.98488">
        <ele>505.8</ele>
        <time>2012-08-29T13:43:06Z</time>
      </trkpt>
      <trkpt lat="45.17355" lon="1.98467">
        <ele>504.8</ele>
        <time>2012-08-29T13:43:09Z</time>
      </trkpt>
      <trkpt lat="45.17365" lon="1.98464">
        <ele>504.4</ele>
        <time>2012-08-29T13:43:10Z</time>
      </trkpt>
      <trkpt lat="45.17376" lon="1.98465">
        <ele>504.8</ele>
        <time>2012-08-29T13:43:11Z</time>
      </trkpt>
      <trkpt lat="45.17386" lon="1.98468">
        <ele>503.9</ele>
        <time>2012-08-29T13:43:12Z</time>
      </trkpt>
      <trkpt lat="45.17395" lon="1.98472">
        <ele>504.4</ele>
        <time>2012-08-29T13:43:13Z</time>
      </trkpt>
      <trkpt lat="45.17405" lon="1.98477">
        <ele>503.4</ele>
        <time>2012-08-29T13:43:14Z</time>
      </trkpt>
      <trkpt lat="45.17414" lon="1.9848">
        <ele>502.4</ele>
        <time>2012-08-29T13:43:15Z</time>
      </trkpt>
      <trkpt lat="45.17423" lon="1.98481">
        <ele>502</ele>
        <time>2012-08-29T13:43:16Z</time>
      </trkpt>
      <trkpt lat="45.1743" lon="1.98479">
        <ele>502</ele>
        <time>2012-08-29T13:43:17Z</time>
      </trkpt>
      <trkpt lat="45.17437" lon="1.98475">
        <ele>502.4</ele>
        <time>2012-08-29T13:43:18Z</time>
      </trkpt>
      <trkpt lat="45.17442" lon="1.98469">
        <ele>501.5</ele>
        <time>2012-08-29T13:43:19Z</time>
      </trkpt>
      <trkpt lat="45.17448" lon="1.98462">
        <ele>501.5</ele>
        <time>2012-08-29T13:43:20Z</time>
      </trkpt>
      <trkpt lat="45.17475" lon="1.98433">
        <ele>499.1</ele>
        <time>2012-08-29T13:43:24Z</time>
      </trkpt>
      <trkpt lat="45.17525" lon="1.98368">
        <ele>495.7</ele>
        <time>2012-08-29T13:43:31Z</time>
      </trkpt>
      <trkpt lat="45.17551" lon="1.98319">
        <ele>491.4</ele>
        <time>2012-08-29T13:43:35Z</time>
      </trkpt>
      <trkpt lat="45.17558" lon="1.98306">
        <ele>491.4</ele>
        <time>2012-08-29T13:43:36Z</time>
      </trkpt>
      <trkpt lat="45.17584" lon="1.98257">
        <ele>489</ele>
        <time>2012-08-29T13:43:40Z</time>
      </trkpt>
      <trkpt lat="45.17591" lon="1.98244">
        <ele>484.6</ele>
        <time>2012-08-29T13:43:41Z</time>
      </trkpt>
      <trkpt lat="45.17597" lon="1.98232">
        <ele>486.6</ele>
        <time>2012-08-29T13:43:42Z</time>
      </trkpt>
      <trkpt lat="45.17609" lon="1.98209">
        <ele>483.7</ele>
        <time>2012-08-29T13:43:44Z</time>
      </trkpt>
      <trkpt lat="45.17621" lon="1.98187">
        <ele>481.8</ele>
        <time>2012-08-29T13:43:46Z</time>
      </trkpt>
      <trkpt lat="45.17626" lon="1.98176">
        <ele>478.4</ele>
        <time>2012-08-29T13:43:47Z</time>
      </trkpt>
      <trkpt lat="45.17631" lon="1.98166">
        <ele>478.9</ele>
        <time>2012-08-29T13:43:48Z</time>
      </trkpt>
      <trkpt lat="45.17643" lon="1.98145">
        <ele>477</ele>
        <time>2012-08-29T13:43:50Z</time>
      </trkpt>
      <trkpt lat="45.17648" lon="1.98134">
        <ele>476.5</ele>
        <time>2012-08-29T13:43:51Z</time>
      </trkpt>
      <trkpt lat="45.17656" lon="1.9811">
        <ele>476</ele>
        <time>2012-08-29T13:43:53Z</time>
      </trkpt>
      <trkpt lat="45.17677" lon="1.98043">
        <ele>473.6</ele>
        <time>2012-08-29T13:43:59Z</time>
      </trkpt>
      <trkpt lat="45.1768" lon="1.98037">
        <ele>473.6</ele>
        <time>2012-08-29T13:44:00Z</time>
      </trkpt>
      <trkpt lat="45.17684" lon="1.98031">
        <ele>473.1</ele>
        <time>2012-08-29T13:44:01Z</time>
      </trkpt>
      <trkpt lat="45.17689" lon="1.98027">
        <ele>472.6</ele>
        <time>2012-08-29T13:44:02Z</time>
      </trkpt>
      <trkpt lat="45.17694" lon="1.98024">
        <ele>472.6</ele>
        <time>2012-08-29T13:44:03Z</time>
      </trkpt>
      <trkpt lat="45.17699" lon="1.98022">
        <ele>472.1</ele>
        <time>2012-08-29T13:44:04Z</time>
      </trkpt>
      <trkpt lat="45.17706" lon="1.98021">
        <ele>472.1</ele>
        <time>2012-08-29T13:44:05Z</time>
      </trkpt>
      <trkpt lat="45.17711" lon="1.9802">
        <ele>471.7</ele>
        <time>2012-08-29T13:44:06Z</time>
      </trkpt>
      <trkpt lat="45.17718" lon="1.98018">
        <ele>471.2</ele>
        <time>2012-08-29T13:44:07Z</time>
      </trkpt>
      <trkpt lat="45.17732" lon="1.98009">
        <ele>470.2</ele>
        <time>2012-08-29T13:44:09Z</time>
      </trkpt>
      <trkpt lat="45.17738" lon="1.98003">
        <ele>470.2</ele>
        <time>2012-08-29T13:44:10Z</time>
      </trkpt>
      <trkpt lat="45.17775" lon="1.97966">
        <ele>468.8</ele>
        <time>2012-08-29T13:44:16Z</time>
      </trkpt>
      <trkpt lat="45.17781" lon="1.97963">
        <ele>469.3</ele>
        <time>2012-08-29T13:44:17Z</time>
      </trkpt>
      <trkpt lat="45.17788" lon="1.97962">
        <ele>468.8</ele>
        <time>2012-08-29T13:44:18Z</time>
      </trkpt>
      <trkpt lat="45.17795" lon="1.97963">
        <ele>469.3</ele>
        <time>2012-08-29T13:44:19Z</time>
      </trkpt>
      <trkpt lat="45.17802" lon="1.97964">
        <ele>469.3</ele>
        <time>2012-08-29T13:44:20Z</time>
      </trkpt>
      <trkpt lat="45.17809" lon="1.97963">
        <ele>469.7</ele>
        <time>2012-08-29T13:44:21Z</time>
      </trkpt>
      <trkpt lat="45.17817" lon="1.97962">
        <ele>469.7</ele>
        <time>2012-08-29T13:44:22Z</time>
      </trkpt>
      <trkpt lat="45.17825" lon="1.9796">
        <ele>469.7</ele>
        <time>2012-08-29T13:44:23Z</time>
      </trkpt>
      <trkpt lat="45.17833" lon="1.97957">
        <ele>469.7</ele>
        <time>2012-08-29T13:44:24Z</time>
      </trkpt>
      <trkpt lat="45.17841" lon="1.97953">
        <ele>469.7</ele>
        <time>2012-08-29T13:44:25Z</time>
      </trkpt>
      <trkpt lat="45.17848" lon="1.97949">
        <ele>469.7</ele>
        <time>2012-08-29T13:44:26Z</time>
      </trkpt>
      <trkpt lat="45.17854" lon="1.97944">
        <ele>469.7</ele>
        <time>2012-08-29T13:44:27Z</time>
      </trkpt>
      <trkpt lat="45.17873" lon="1.97932">
        <ele>468.8</ele>
        <time>2012-08-29T13:44:31Z</time>
      </trkpt>
      <trkpt lat="45.17894" lon="1.97929">
        <ele>469.7</ele>
        <time>2012-08-29T13:44:36Z</time>
      </trkpt>
      <trkpt lat="45.17899" lon="1.9793">
        <ele>469.7</ele>
        <time>2012-08-29T13:44:37Z</time>
      </trkpt>
      <trkpt lat="45.17903" lon="1.97932">
        <ele>470.7</ele>
        <time>2012-08-29T13:44:38Z</time>
      </trkpt>
      <trkpt lat="45.17907" lon="1.97935">
        <ele>471.2</ele>
        <time>2012-08-29T13:44:39Z</time>
      </trkpt>
      <trkpt lat="45.17911" lon="1.97939">
        <ele>471.2</ele>
        <time>2012-08-29T13:44:40Z</time>
      </trkpt>
      <trkpt lat="45.17914" lon="1.97943">
        <ele>471.2</ele>
        <time>2012-08-29T13:44:41Z</time>
      </trkpt>
      <trkpt lat="45.17929" lon="1.97961">
        <ele>472.6</ele>
        <time>2012-08-29T13:44:45Z</time>
      </trkpt>
      <trkpt lat="45.17933" lon="1.97963">
        <ele>473.1</ele>
        <time>2012-08-29T13:44:46Z</time>
      </trkpt>
      <trkpt lat="45.17938" lon="1.97964">
        <ele>473.1</ele>
        <time>2012-08-29T13:44:47Z</time>
      </trkpt>
      <trkpt lat="45.17977" lon="1.97964">
        <ele>471.7</ele>
        <time>2012-08-29T13:44:54Z</time>
      </trkpt>
      <trkpt lat="45.18016" lon="1.9795">
        <ele>469.3</ele>
        <time>2012-08-29T13:45:01Z</time>
      </trkpt>
      <trkpt lat="45.18051" lon="1.97938">
        <ele>469.7</ele>
        <time>2012-08-29T13:45:07Z</time>
      </trkpt>
      <trkpt lat="45.18086" lon="1.97932">
        <ele>471.2</ele>
        <time>2012-08-29T13:45:13Z</time>
      </trkpt>
      <trkpt lat="45.1809" lon="1.9793">
        <ele>472.1</ele>
        <time>2012-08-29T13:45:14Z</time>
      </trkpt>
      <trkpt lat="45.18094" lon="1.97927">
        <ele>472.6</ele>
        <time>2012-08-29T13:45:15Z</time>
      </trkpt>
      <trkpt lat="45.18097" lon="1.97923">
        <ele>472.6</ele>
        <time>2012-08-29T13:45:16Z</time>
      </trkpt>
      <trkpt lat="45.18098" lon="1.97921">
        <ele>473.1</ele>
        <time>2012-08-29T13:45:17Z</time>
      </trkpt>
      <trkpt lat="45.181" lon="1.97918">
        <ele>472.6</ele>
        <time>2012-08-29T13:45:18Z</time>
      </trkpt>
      <trkpt lat="45.18103" lon="1.97903">
        <ele>470.2</ele>
        <time>2012-08-29T13:45:24Z</time>
      </trkpt>
      <trkpt lat="45.18106" lon="1.97893">
        <ele>468.8</ele>
        <time>2012-08-29T13:45:27Z</time>
      </trkpt>
      <trkpt lat="45.18111" lon="1.9788">
        <ele>466.4</ele>
        <time>2012-08-29T13:45:31Z</time>
      </trkpt>
      <trkpt lat="45.18124" lon="1.9786">
        <ele>463</ele>
        <time>2012-08-29T13:45:36Z</time>
      </trkpt>
      <trkpt lat="45.18134" lon="1.97844">
        <ele>461.1</ele>
        <time>2012-08-29T13:45:39Z</time>
      </trkpt>
      <trkpt lat="45.18137" lon="1.97837">
        <ele>461.1</ele>
        <time>2012-08-29T13:45:40Z</time>
      </trkpt>
      <trkpt lat="45.18146" lon="1.97795">
        <ele>457.2</ele>
        <time>2012-08-29T13:45:46Z</time>
      </trkpt>
      <trkpt lat="45.18147" lon="1.97788">
        <ele>456.8</ele>
        <time>2012-08-29T13:45:47Z</time>
      </trkpt>
      <trkpt lat="45.18152" lon="1.97763">
        <ele>454.4</ele>
        <time>2012-08-29T13:45:51Z</time>
      </trkpt>
      <trkpt lat="45.18156" lon="1.97745">
        <ele>451</ele>
        <time>2012-08-29T13:45:54Z</time>
      </trkpt>
      <trkpt lat="45.18158" lon="1.97714">
        <ele>447.6</ele>
        <time>2012-08-29T13:45:59Z</time>
      </trkpt>
      <trkpt lat="45.18158" lon="1.97703">
        <ele>446.7</ele>
        <time>2012-08-29T13:46:01Z</time>
      </trkpt>
      <trkpt lat="45.18163" lon="1.9768">
        <ele>444.3</ele>
        <time>2012-08-29T13:46:05Z</time>
      </trkpt>
      <trkpt lat="45.18171" lon="1.97658">
        <ele>441.9</ele>
        <time>2012-08-29T13:46:09Z</time>
      </trkpt>
      <trkpt lat="45.18176" lon="1.97648">
        <ele>440.9</ele>
        <time>2012-08-29T13:46:11Z</time>
      </trkpt>
      <trkpt lat="45.18198" lon="1.97619">
        <ele>437.5</ele>
        <time>2012-08-29T13:46:17Z</time>
      </trkpt>
      <trkpt lat="45.18215" lon="1.97597">
        <ele>435.6</ele>
        <time>2012-08-29T13:46:22Z</time>
      </trkpt>
      <trkpt lat="45.18224" lon="1.97581">
        <ele>434.6</ele>
        <time>2012-08-29T13:46:25Z</time>
      </trkpt>
      <trkpt lat="45.18227" lon="1.97575">
        <ele>434.6</ele>
        <time>2012-08-29T13:46:26Z</time>
      </trkpt>
      <trkpt lat="45.1825" lon="1.97539">
        <ele>432.7</ele>
        <time>2012-08-29T13:46:34Z</time>
      </trkpt>
      <trkpt lat="45.18264" lon="1.97523">
        <ele>430.8</ele>
        <time>2012-08-29T13:46:39Z</time>
      </trkpt>
      <trkpt lat="45.1828" lon="1.97504">
        <ele>428.9</ele>
        <time>2012-08-29T13:46:44Z</time>
      </trkpt>
      <trkpt lat="45.18292" lon="1.97489">
        <ele>427</ele>
        <time>2012-08-29T13:46:48Z</time>
      </trkpt>
      <trkpt lat="45.183" lon="1.97479">
        <ele>423.6</ele>
        <time>2012-08-29T13:46:51Z</time>
      </trkpt>
      <trkpt lat="45.18303" lon="1.97475">
        <ele>424.6</ele>
        <time>2012-08-29T13:46:52Z</time>
      </trkpt>
      <trkpt lat="45.18313" lon="1.97461">
        <ele>420.2</ele>
        <time>2012-08-29T13:46:56Z</time>
      </trkpt>
      <trkpt lat="45.18316" lon="1.97456">
        <ele>422.2</ele>
        <time>2012-08-29T13:46:57Z</time>
      </trkpt>
      <trkpt lat="45.18318" lon="1.97452">
        <ele>426.5</ele>
        <time>2012-08-29T13:46:58Z</time>
      </trkpt>
      <trkpt lat="45.1832" lon="1.97448">
        <ele>420.7</ele>
        <time>2012-08-29T13:46:59Z</time>
      </trkpt>
      <trkpt lat="45.18323" lon="1.97441">
        <ele>416.9</ele>
        <time>2012-08-29T13:47:01Z</time>
      </trkpt>
      <trkpt lat="45.18324" lon="1.97438">
        <ele>419.8</ele>
        <time>2012-08-29T13:47:02Z</time>
      </trkpt>
      <trkpt lat="45.18329" lon="1.97429">
        <ele>418.3</ele>
        <time>2012-08-29T13:47:05Z</time>
      </trkpt>
      <trkpt lat="45.18337" lon="1.97416">
        <ele>416.4</ele>
        <time>2012-08-29T13:47:09Z</time>
      </trkpt>
      <trkpt lat="45.18348" lon="1.97402">
        <ele>414.5</ele>
        <time>2012-08-29T13:47:13Z</time>
      </trkpt>
      <trkpt lat="45.18357" lon="1.97392">
        <ele>413</ele>
        <time>2012-08-29T13:47:16Z</time>
      </trkpt>
      <trkpt lat="45.18377" lon="1.97382">
        <ele>410.1</ele>
        <time>2012-08-29T13:47:21Z</time>
      </trkpt>
      <trkpt lat="45.18385" lon="1.97378">
        <ele>409.7</ele>
        <time>2012-08-29T13:47:23Z</time>
      </trkpt>
      <trkpt lat="45.18388" lon="1.97374">
        <ele>409.7</ele>
        <time>2012-08-29T13:47:24Z</time>
      </trkpt>
      <trkpt lat="45.18391" lon="1.97369">
        <ele>409.2</ele>
        <time>2012-08-29T13:47:25Z</time>
      </trkpt>
      <trkpt lat="45.18395" lon="1.97364">
        <ele>408.7</ele>
        <time>2012-08-29T13:47:26Z</time>
      </trkpt>
      <trkpt lat="45.18397" lon="1.97358">
        <ele>408.2</ele>
        <time>2012-08-29T13:47:27Z</time>
      </trkpt>
      <trkpt lat="45.18404" lon="1.97338">
        <ele>406.3</ele>
        <time>2012-08-29T13:47:31Z</time>
      </trkpt>
      <trkpt lat="45.18412" lon="1.9731">
        <ele>402.9</ele>
        <time>2012-08-29T13:47:38Z</time>
      </trkpt>
      <trkpt lat="45.18425" lon="1.97294">
        <ele>400.5</ele>
        <time>2012-08-29T13:47:44Z</time>
      </trkpt>
      <trkpt lat="45.18437" lon="1.97289">
        <ele>398.6</ele>
        <time>2012-08-29T13:47:48Z</time>
      </trkpt>
      <trkpt lat="45.18449" lon="1.97283">
        <ele>397.2</ele>
        <time>2012-08-29T13:47:52Z</time>
      </trkpt>
      <trkpt lat="45.18463" lon="1.97282">
        <ele>393.8</ele>
        <time>2012-08-29T13:47:57Z</time>
      </trkpt>
      <trkpt lat="45.18481" lon="1.97292">
        <ele>390.9</ele>
        <time>2012-08-29T13:48:05Z</time>
      </trkpt>
      <trkpt lat="45.18494" lon="1.97299">
        <ele>388</ele>
        <time>2012-08-29T13:48:09Z</time>
      </trkpt>
      <trkpt lat="45.18511" lon="1.97308">
        <ele>385.1</ele>
        <time>2012-08-29T13:48:16Z</time>
      </trkpt>
      <trkpt lat="45.18533" lon="1.97297">
        <ele>384.7</ele>
        <time>2012-08-29T13:48:21Z</time>
      </trkpt>
      <trkpt lat="45.18555" lon="1.97271">
        <ele>384.7</ele>
        <time>2012-08-29T13:48:29Z</time>
      </trkpt>
      <trkpt lat="45.1857" lon="1.97265">
        <ele>385.1</ele>
        <time>2012-08-29T13:48:34Z</time>
      </trkpt>
      <trkpt lat="45.18598" lon="1.97265">
        <ele>386.6</ele>
        <time>2012-08-29T13:48:42Z</time>
      </trkpt>
      <trkpt lat="45.18628" lon="1.97266">
        <ele>385.1</ele>
        <time>2012-08-29T13:48:49Z</time>
      </trkpt>
      <trkpt lat="45.18649" lon="1.97283">
        <ele>383.7</ele>
        <time>2012-08-29T13:48:56Z</time>
      </trkpt>
      <trkpt lat="45.18668" lon="1.97303">
        <ele>381.3</ele>
        <time>2012-08-29T13:49:03Z</time>
      </trkpt>
      <trkpt lat="45.18695" lon="1.97311">
        <ele>379.4</ele>
        <time>2012-08-29T13:49:11Z</time>
      </trkpt>
      <trkpt lat="45.18712" lon="1.97306">
        <ele>379.4</ele>
        <time>2012-08-29T13:49:16Z</time>
      </trkpt>
      <trkpt lat="45.18739" lon="1.9729">
        <ele>377</ele>
        <time>2012-08-29T13:49:23Z</time>
      </trkpt>
      <trkpt lat="45.18752" lon="1.9728">
        <ele>375</ele>
        <time>2012-08-29T13:49:27Z</time>
      </trkpt>
      <trkpt lat="45.18767" lon="1.97273">
        <ele>372.6</ele>
        <time>2012-08-29T13:49:31Z</time>
      </trkpt>
      <trkpt lat="45.18779" lon="1.97268">
        <ele>371.2</ele>
        <time>2012-08-29T13:49:34Z</time>
      </trkpt>
      <trkpt lat="45.18805" lon="1.97258">
        <ele>368.8</ele>
        <time>2012-08-29T13:49:40Z</time>
      </trkpt>
      <trkpt lat="45.18829" lon="1.97253">
        <ele>366.4</ele>
        <time>2012-08-29T13:49:47Z</time>
      </trkpt>
      <trkpt lat="45.18869" lon="1.97257">
        <ele>363</ele>
        <time>2012-08-29T13:49:55Z</time>
      </trkpt>
      <trkpt lat="45.18884" lon="1.97263">
        <ele>361.6</ele>
        <time>2012-08-29T13:49:58Z</time>
      </trkpt>
      <trkpt lat="45.18901" lon="1.97269">
        <ele>360.1</ele>
        <time>2012-08-29T13:50:01Z</time>
      </trkpt>
      <trkpt lat="45.18926" lon="1.97276">
        <ele>356.8</ele>
        <time>2012-08-29T13:50:06Z</time>
      </trkpt>
      <trkpt lat="45.1893" lon="1.97276">
        <ele>356.8</ele>
        <time>2012-08-29T13:50:07Z</time>
      </trkpt>
      <trkpt lat="45.18954" lon="1.97277">
        <ele>353.4</ele>
        <time>2012-08-29T13:50:13Z</time>
      </trkpt>
      <trkpt lat="45.18958" lon="1.97277">
        <ele>353.4</ele>
        <time>2012-08-29T13:50:14Z</time>
      </trkpt>
      <trkpt lat="45.18971" lon="1.97273">
        <ele>350.1</ele>
        <time>2012-08-29T13:50:19Z</time>
      </trkpt>
      <trkpt lat="45.18985" lon="1.97268">
        <ele>346.7</ele>
        <time>2012-08-29T13:50:25Z</time>
      </trkpt>
      <trkpt lat="45.1899" lon="1.97269">
        <ele>346.2</ele>
        <time>2012-08-29T13:50:27Z</time>
      </trkpt>
      <trkpt lat="45.18996" lon="1.97271">
        <ele>344.3</ele>
        <time>2012-08-29T13:50:30Z</time>
      </trkpt>
      <trkpt lat="45.19001" lon="1.97274">
        <ele>341.4</ele>
        <time>2012-08-29T13:50:34Z</time>
      </trkpt>
      <trkpt lat="45.19003" lon="1.97275">
        <ele>343.3</ele>
        <time>2012-08-29T13:50:36Z</time>
      </trkpt>
      <trkpt lat="45.19024" lon="1.9727">
        <ele>342.4</ele>
        <time>2012-08-29T13:50:45Z</time>
      </trkpt>
      <trkpt lat="45.19029" lon="1.9727">
        <ele>346.7</ele>
        <time>2012-08-29T13:50:47Z</time>
      </trkpt>
      <trkpt lat="45.19032" lon="1.9727">
        <ele>343.3</ele>
        <time>2012-08-29T13:50:48Z</time>
      </trkpt>
      <trkpt lat="45.19038" lon="1.97272">
        <ele>343.8</ele>
        <time>2012-08-29T13:50:58Z</time>
      </trkpt>
      <trkpt lat="45.19038" lon="1.97272">
        <ele>338.5</ele>
        <time>2012-08-29T13:51:04Z</time>
      </trkpt>
      <trkpt lat="45.19038" lon="1.97272">
        <ele>344.8</ele>
        <time>2012-08-29T13:51:05Z</time>
      </trkpt>
      <trkpt lat="45.19038" lon="1.97272">
        <ele>343.3</ele>
        <time>2012-08-29T13:51:06Z</time>
      </trkpt>
      <trkpt lat="45.19038" lon="1.97272">
        <ele>340</ele>
        <time>2012-08-29T13:51:14Z</time>
      </trkpt>
      <trkpt lat="45.19038" lon="1.97272">
        <ele>344.8</ele>
        <time>2012-08-29T13:51:16Z</time>
      </trkpt>
      <trkpt lat="45.19038" lon="1.97272">
        <ele>343.3</ele>
        <time>2012-08-29T13:51:17Z</time>
      </trkpt>
      <trkpt lat="45.19038" lon="1.97272">
        <ele>348.1</ele>
        <time>2012-08-29T13:51:29Z</time>
      </trkpt>
      <trkpt lat="45.19038" lon="1.97272">
        <ele>344.3</ele>
        <time>2012-08-29T13:51:30Z</time>
      </trkpt>
      <trkpt lat="45.1904" lon="1.97272">
        <ele>343.8</ele>
        <time>2012-08-29T13:51:47Z</time>
      </trkpt>
      <trkpt lat="45.1904" lon="1.97273">
        <ele>343.8</ele>
        <time>2012-08-29T13:51:58Z</time>
      </trkpt>
      <trkpt lat="45.1904" lon="1.97273">
        <ele>343.3</ele>
        <time>2012-08-29T13:52:14Z</time>
      </trkpt>
      <trkpt lat="45.19043" lon="1.97274">
        <ele>343.3</ele>
        <time>2012-08-29T13:52:29Z</time>
      </trkpt>
      <trkpt lat="45.19048" lon="1.97277">
        <ele>344.8</ele>
        <time>2012-08-29T13:52:37Z</time>
      </trkpt>
      <trkpt lat="45.19049" lon="1.97277">
        <ele>344.3</ele>
        <time>2012-08-29T13:52:43Z</time>
      </trkpt>
      <trkpt lat="45.19057" lon="1.97284">
        <ele>345.7</ele>
        <time>2012-08-29T13:52:51Z</time>
      </trkpt>
      <trkpt lat="45.19058" lon="1.97285">
        <ele>345.2</ele>
        <time>2012-08-29T13:52:52Z</time>
      </trkpt>
      <trkpt lat="45.19067" lon="1.97297">
        <ele>345.7</ele>
        <time>2012-08-29T13:53:01Z</time>
      </trkpt>
      <trkpt lat="45.19076" lon="1.97304">
        <ele>346.7</ele>
        <time>2012-08-29T13:53:08Z</time>
      </trkpt>
      <trkpt lat="45.19091" lon="1.97309">
        <ele>347.2</ele>
        <time>2012-08-29T13:53:14Z</time>
      </trkpt>
      <trkpt lat="45.19103" lon="1.97311">
        <ele>347.6</ele>
        <time>2012-08-29T13:53:19Z</time>
      </trkpt>
      <trkpt lat="45.19117" lon="1.97312">
        <ele>347.2</ele>
        <time>2012-08-29T13:53:26Z</time>
      </trkpt>
      <trkpt lat="45.1912" lon="1.97311">
        <ele>346.7</ele>
        <time>2012-08-29T13:53:32Z</time>
      </trkpt>
      <trkpt lat="45.19124" lon="1.97306">
        <ele>345.7</ele>
        <time>2012-08-29T13:53:39Z</time>
      </trkpt>
      <trkpt lat="45.19137" lon="1.97301">
        <ele>345.2</ele>
        <time>2012-08-29T13:53:46Z</time>
      </trkpt>
      <trkpt lat="45.19148" lon="1.97296">
        <ele>344.8</ele>
        <time>2012-08-29T13:53:52Z</time>
      </trkpt>
      <trkpt lat="45.1916" lon="1.97296">
        <ele>344.3</ele>
        <time>2012-08-29T13:54:00Z</time>
      </trkpt>
      <trkpt lat="45.19162" lon="1.97298">
        <ele>343.8</ele>
        <time>2012-08-29T13:54:02Z</time>
      </trkpt>
      <trkpt lat="45.19162" lon="1.97308">
        <ele>342.4</ele>
        <time>2012-08-29T13:54:08Z</time>
      </trkpt>
      <trkpt lat="45.19162" lon="1.97313">
        <ele>340.9</ele>
        <time>2012-08-29T13:54:15Z</time>
      </trkpt>
      <trkpt lat="45.19161" lon="1.97318">
        <ele>340.4</ele>
        <time>2012-08-29T13:54:17Z</time>
      </trkpt>
      <trkpt lat="45.19159" lon="1.97325">
        <ele>340.4</ele>
        <time>2012-08-29T13:54:20Z</time>
      </trkpt>
      <trkpt lat="45.19159" lon="1.97336">
        <ele>337.6</ele>
        <time>2012-08-29T13:54:27Z</time>
      </trkpt>
      <trkpt lat="45.1916" lon="1.9734">
        <ele>337.1</ele>
        <time>2012-08-29T13:54:29Z</time>
      </trkpt>
      <trkpt lat="45.19162" lon="1.97355">
        <ele>335.2</ele>
        <time>2012-08-29T13:54:37Z</time>
      </trkpt>
      <trkpt lat="45.19167" lon="1.97362">
        <ele>334.2</ele>
        <time>2012-08-29T13:54:43Z</time>
      </trkpt>
      <trkpt lat="45.19171" lon="1.97369">
        <ele>332.8</ele>
        <time>2012-08-29T13:54:50Z</time>
      </trkpt>
      <trkpt lat="45.19175" lon="1.97378">
        <ele>331.3</ele>
        <time>2012-08-29T13:54:57Z</time>
      </trkpt>
      <trkpt lat="45.19181" lon="1.97381">
        <ele>329.9</ele>
        <time>2012-08-29T13:55:05Z</time>
      </trkpt>
      <trkpt lat="45.19186" lon="1.97388">
        <ele>328.4</ele>
        <time>2012-08-29T13:55:14Z</time>
      </trkpt>
      <trkpt lat="45.19194" lon="1.974">
        <ele>328.4</ele>
        <time>2012-08-29T13:55:22Z</time>
      </trkpt>
      <trkpt lat="45.192" lon="1.9741">
        <ele>327.5</ele>
        <time>2012-08-29T13:55:30Z</time>
      </trkpt>
      <trkpt lat="45.19201" lon="1.97413">
        <ele>327.5</ele>
        <time>2012-08-29T13:55:35Z</time>
      </trkpt>
      <trkpt lat="45.19205" lon="1.97415">
        <ele>327</ele>
        <time>2012-08-29T13:55:37Z</time>
      </trkpt>
      <trkpt lat="45.19206" lon="1.97418">
        <ele>326.5</ele>
        <time>2012-08-29T13:55:39Z</time>
      </trkpt>
      <trkpt lat="45.19212" lon="1.97425">
        <ele>325.5</ele>
        <time>2012-08-29T13:55:43Z</time>
      </trkpt>
      <trkpt lat="45.19224" lon="1.97433">
        <ele>324.6</ele>
        <time>2012-08-29T13:55:47Z</time>
      </trkpt>
      <trkpt lat="45.19228" lon="1.97437">
        <ele>324.6</ele>
        <time>2012-08-29T13:55:49Z</time>
      </trkpt>
      <trkpt lat="45.19235" lon="1.97445">
        <ele>324.6</ele>
        <time>2012-08-29T13:55:55Z</time>
      </trkpt>
      <trkpt lat="45.1924" lon="1.9745">
        <ele>324.6</ele>
        <time>2012-08-29T13:55:59Z</time>
      </trkpt>
      <trkpt lat="45.19244" lon="1.97456">
        <ele>324.6</ele>
        <time>2012-08-29T13:56:03Z</time>
      </trkpt>
      <trkpt lat="45.19247" lon="1.97462">
        <ele>325.5</ele>
        <time>2012-08-29T13:56:09Z</time>
      </trkpt>
      <trkpt lat="45.19254" lon="1.97467">
        <ele>324.6</ele>
        <time>2012-08-29T13:56:17Z</time>
      </trkpt>
      <trkpt lat="45.19257" lon="1.97469">
        <ele>324.1</ele>
        <time>2012-08-29T13:56:20Z</time>
      </trkpt>
      <trkpt lat="45.19259" lon="1.97475">
        <ele>323.6</ele>
        <time>2012-08-29T13:56:23Z</time>
      </trkpt>
      <trkpt lat="45.19269" lon="1.97486">
        <ele>322.2</ele>
        <time>2012-08-29T13:56:31Z</time>
      </trkpt>
      <trkpt lat="45.19276" lon="1.97492">
        <ele>322.2</ele>
        <time>2012-08-29T13:56:36Z</time>
      </trkpt>
      <trkpt lat="45.19279" lon="1.97496">
        <ele>321.2</ele>
        <time>2012-08-29T13:56:44Z</time>
      </trkpt>
      <trkpt lat="45.19282" lon="1.97493">
        <ele>320.3</ele>
        <time>2012-08-29T13:56:51Z</time>
      </trkpt>
      <trkpt lat="45.19284" lon="1.97493">
        <ele>319.3</ele>
        <time>2012-08-29T13:56:56Z</time>
      </trkpt>
      <trkpt lat="45.19284" lon="1.97495">
        <ele>318.8</ele>
        <time>2012-08-29T13:57:03Z</time>
      </trkpt>
      <trkpt lat="45.19291" lon="1.97499">
        <ele>317.9</ele>
        <time>2012-08-29T13:57:09Z</time>
      </trkpt>
      <trkpt lat="45.19302" lon="1.9751">
        <ele>316.4</ele>
        <time>2012-08-29T13:57:16Z</time>
      </trkpt>
      <trkpt lat="45.1931" lon="1.97528">
        <ele>315</ele>
        <time>2012-08-29T13:57:23Z</time>
      </trkpt>
      <trkpt lat="45.1931" lon="1.97528">
        <ele>315</ele>
        <time>2012-08-29T13:57:24Z</time>
      </trkpt>
      <trkpt lat="45.19315" lon="1.97531">
        <ele>314</ele>
        <time>2012-08-29T13:57:26Z</time>
      </trkpt>
      <trkpt lat="45.19325" lon="1.97546">
        <ele>312.6</ele>
        <time>2012-08-29T13:57:32Z</time>
      </trkpt>
      <trkpt lat="45.19332" lon="1.97561">
        <ele>311.1</ele>
        <time>2012-08-29T13:57:39Z</time>
      </trkpt>
      <trkpt lat="45.19337" lon="1.97575">
        <ele>309.7</ele>
        <time>2012-08-29T13:57:45Z</time>
      </trkpt>
      <trkpt lat="45.19338" lon="1.97578">
        <ele>309.7</ele>
        <time>2012-08-29T13:57:46Z</time>
      </trkpt>
      <trkpt lat="45.19336" lon="1.97589">
        <ele>308.7</ele>
        <time>2012-08-29T13:57:53Z</time>
      </trkpt>
      <trkpt lat="45.19338" lon="1.97601">
        <ele>307.3</ele>
        <time>2012-08-29T13:58:01Z</time>
      </trkpt>
      <trkpt lat="45.19338" lon="1.97601">
        <ele>303</ele>
        <time>2012-08-29T13:58:02Z</time>
      </trkpt>
      <trkpt lat="45.19338" lon="1.97601">
        <ele>299.6</ele>
        <time>2012-08-29T13:58:03Z</time>
      </trkpt>
      <trkpt lat="45.19338" lon="1.97601">
        <ele>310.2</ele>
        <time>2012-08-29T13:58:04Z</time>
      </trkpt>
      <trkpt lat="45.19338" lon="1.97601">
        <ele>310.2</ele>
        <time>2012-08-29T13:58:05Z</time>
      </trkpt>
      <trkpt lat="45.19338" lon="1.97601">
        <ele>305.8</ele>
        <time>2012-08-29T13:58:06Z</time>
      </trkpt>
      <trkpt lat="45.19338" lon="1.97601">
        <ele>308.2</ele>
        <time>2012-08-29T13:58:07Z</time>
      </trkpt>
      <trkpt lat="45.19338" lon="1.97601">
        <ele>311.6</ele>
        <time>2012-08-29T13:58:22Z</time>
      </trkpt>
      <trkpt lat="45.19338" lon="1.97605">
        <ele>308.2</ele>
        <time>2012-08-29T13:58:27Z</time>
      </trkpt>
      <trkpt lat="45.19337" lon="1.97607">
        <ele>308.2</ele>
        <time>2012-08-29T13:58:28Z</time>
      </trkpt>
      <trkpt lat="45.19335" lon="1.97614">
        <ele>308.7</ele>
        <time>2012-08-29T13:58:32Z</time>
      </trkpt>
      <trkpt lat="45.19336" lon="1.97621">
        <ele>308.2</ele>
        <time>2012-08-29T13:58:35Z</time>
      </trkpt>
      <trkpt lat="45.19341" lon="1.97634">
        <ele>308.7</ele>
        <time>2012-08-29T13:58:42Z</time>
      </trkpt>
      <trkpt lat="45.19347" lon="1.9764">
        <ele>308.7</ele>
        <time>2012-08-29T13:58:50Z</time>
      </trkpt>
      <trkpt lat="45.19352" lon="1.97645">
        <ele>308.7</ele>
        <time>2012-08-29T13:58:58Z</time>
      </trkpt>
      <trkpt lat="45.19362" lon="1.97648">
        <ele>309.7</ele>
        <time>2012-08-29T13:59:03Z</time>
      </trkpt>
      <trkpt lat="45.19368" lon="1.97648">
        <ele>313</ele>
        <time>2012-08-29T13:59:07Z</time>
      </trkpt>
      <trkpt lat="45.1937" lon="1.97648">
        <ele>309.7</ele>
        <time>2012-08-29T13:59:08Z</time>
      </trkpt>
      <trkpt lat="45.19378" lon="1.97639">
        <ele>310.6</ele>
        <time>2012-08-29T13:59:12Z</time>
      </trkpt>
      <trkpt lat="45.1938" lon="1.97639">
        <ele>312.1</ele>
        <time>2012-08-29T13:59:18Z</time>
      </trkpt>
      <trkpt lat="45.19381" lon="1.97638">
        <ele>313</ele>
        <time>2012-08-29T13:59:22Z</time>
      </trkpt>
      <trkpt lat="45.19384" lon="1.97623">
        <ele>314</ele>
        <time>2012-08-29T13:59:27Z</time>
      </trkpt>
      <trkpt lat="45.19386" lon="1.9762">
        <ele>315</ele>
        <time>2012-08-29T13:59:32Z</time>
      </trkpt>
      <trkpt lat="45.19387" lon="1.97616">
        <ele>315.9</ele>
        <time>2012-08-29T13:59:36Z</time>
      </trkpt>
      <trkpt lat="45.19392" lon="1.97602">
        <ele>316.4</ele>
        <time>2012-08-29T13:59:41Z</time>
      </trkpt>
      <trkpt lat="45.19394" lon="1.97598">
        <ele>318.3</ele>
        <time>2012-08-29T13:59:46Z</time>
      </trkpt>
      <trkpt lat="45.19395" lon="1.97595">
        <ele>317.9</ele>
        <time>2012-08-29T13:59:48Z</time>
      </trkpt>
      <trkpt lat="45.19398" lon="1.97588">
        <ele>318.8</ele>
        <time>2012-08-29T13:59:53Z</time>
      </trkpt>
      <trkpt lat="45.19398" lon="1.97589">
        <ele>319.3</ele>
        <time>2012-08-29T13:59:54Z</time>
      </trkpt>
      <trkpt lat="45.19404" lon="1.97583">
        <ele>320.7</ele>
        <time>2012-08-29T13:59:59Z</time>
      </trkpt>
      <trkpt lat="45.19406" lon="1.9758">
        <ele>320.7</ele>
        <time>2012-08-29T14:00:04Z</time>
      </trkpt>
      <trkpt lat="45.19408" lon="1.97573">
        <ele>321.7</ele>
        <time>2012-08-29T14:00:09Z</time>
      </trkpt>
      <trkpt lat="45.19408" lon="1.97573">
        <ele>322.2</ele>
        <time>2012-08-29T14:00:11Z</time>
      </trkpt>
      <trkpt lat="45.1941" lon="1.97578">
        <ele>323.1</ele>
        <time>2012-08-29T14:00:14Z</time>
      </trkpt>
      <trkpt lat="45.19409" lon="1.97582">
        <ele>324.1</ele>
        <time>2012-08-29T14:00:19Z</time>
      </trkpt>
      <trkpt lat="45.19408" lon="1.97586">
        <ele>324.1</ele>
        <time>2012-08-29T14:00:21Z</time>
      </trkpt>
      <trkpt lat="45.19407" lon="1.97589">
        <ele>324.6</ele>
        <time>2012-08-29T14:00:26Z</time>
      </trkpt>
      <trkpt lat="45.19406" lon="1.97594">
        <ele>325.1</ele>
        <time>2012-08-29T14:00:32Z</time>
      </trkpt>
      <trkpt lat="45.19406" lon="1.97595">
        <ele>325.5</ele>
        <time>2012-08-29T14:00:33Z</time>
      </trkpt>
      <trkpt lat="45.19403" lon="1.97603">
        <ele>326.5</ele>
        <time>2012-08-29T14:00:37Z</time>
      </trkpt>
      <trkpt lat="45.19402" lon="1.97605">
        <ele>327.5</ele>
        <time>2012-08-29T14:00:42Z</time>
      </trkpt>
      <trkpt lat="45.19402" lon="1.97607">
        <ele>327.5</ele>
        <time>2012-08-29T14:00:43Z</time>
      </trkpt>
      <trkpt lat="45.194" lon="1.97622">
        <ele>328</ele>
        <time>2012-08-29T14:00:49Z</time>
      </trkpt>
      <trkpt lat="45.19398" lon="1.97621">
        <ele>329.4</ele>
        <time>2012-08-29T14:00:53Z</time>
      </trkpt>
      <trkpt lat="45.19397" lon="1.9764">
        <ele>330.4</ele>
        <time>2012-08-29T14:00:59Z</time>
      </trkpt>
      <trkpt lat="45.19398" lon="1.97642">
        <ele>330.8</ele>
        <time>2012-08-29T14:01:03Z</time>
      </trkpt>
      <trkpt lat="45.19398" lon="1.97651">
        <ele>331.3</ele>
        <time>2012-08-29T14:01:07Z</time>
      </trkpt>
      <trkpt lat="45.19397" lon="1.9766">
        <ele>332.3</ele>
        <time>2012-08-29T14:01:10Z</time>
      </trkpt>
      <trkpt lat="45.19398" lon="1.97662">
        <ele>333.7</ele>
        <time>2012-08-29T14:01:15Z</time>
      </trkpt>
      <trkpt lat="45.19398" lon="1.97662">
        <ele>333.2</ele>
        <time>2012-08-29T14:01:16Z</time>
      </trkpt>
      <trkpt lat="45.19408" lon="1.97662">
        <ele>334.2</ele>
        <time>2012-08-29T14:01:20Z</time>
      </trkpt>
      <trkpt lat="45.1941" lon="1.97662">
        <ele>335.2</ele>
        <time>2012-08-29T14:01:23Z</time>
      </trkpt>
      <trkpt lat="45.19413" lon="1.97666">
        <ele>336.1</ele>
        <time>2012-08-29T14:01:26Z</time>
      </trkpt>
      <trkpt lat="45.19423" lon="1.97662">
        <ele>337.6</ele>
        <time>2012-08-29T14:01:30Z</time>
      </trkpt>
      <trkpt lat="45.19429" lon="1.97659">
        <ele>338</ele>
        <time>2012-08-29T14:01:36Z</time>
      </trkpt>
      <trkpt lat="45.19426" lon="1.97646">
        <ele>339</ele>
        <time>2012-08-29T14:01:41Z</time>
      </trkpt>
      <trkpt lat="45.19426" lon="1.97642">
        <ele>340.4</ele>
        <time>2012-08-29T14:01:45Z</time>
      </trkpt>
      <trkpt lat="45.19427" lon="1.97636">
        <ele>341.4</ele>
        <time>2012-08-29T14:01:49Z</time>
      </trkpt>
      <trkpt lat="45.19433" lon="1.9762">
        <ele>342.4</ele>
        <time>2012-08-29T14:01:54Z</time>
      </trkpt>
      <trkpt lat="45.19432" lon="1.97619">
        <ele>342.9</ele>
        <time>2012-08-29T14:01:58Z</time>
      </trkpt>
      <trkpt lat="45.19432" lon="1.97618">
        <ele>343.3</ele>
        <time>2012-08-29T14:01:59Z</time>
      </trkpt>
      <trkpt lat="45.19435" lon="1.97605">
        <ele>344.3</ele>
        <time>2012-08-29T14:02:04Z</time>
      </trkpt>
      <trkpt lat="45.19436" lon="1.97602">
        <ele>345.2</ele>
        <time>2012-08-29T14:02:09Z</time>
      </trkpt>
      <trkpt lat="45.19436" lon="1.97602">
        <ele>344.8</ele>
        <time>2012-08-29T14:02:10Z</time>
      </trkpt>
      <trkpt lat="45.19442" lon="1.97592">
        <ele>346.2</ele>
        <time>2012-08-29T14:02:16Z</time>
      </trkpt>
      <trkpt lat="45.19441" lon="1.97592">
        <ele>346.7</ele>
        <time>2012-08-29T14:02:18Z</time>
      </trkpt>
      <trkpt lat="45.19445" lon="1.97576">
        <ele>346.7</ele>
        <time>2012-08-29T14:02:23Z</time>
      </trkpt>
      <trkpt lat="45.19445" lon="1.97571">
        <ele>348.1</ele>
        <time>2012-08-29T14:02:29Z</time>
      </trkpt>
      <trkpt lat="45.19445" lon="1.97568">
        <ele>348.1</ele>
        <time>2012-08-29T14:02:30Z</time>
      </trkpt>
      <trkpt lat="45.19448" lon="1.97553">
        <ele>348.6</ele>
        <time>2012-08-29T14:02:35Z</time>
      </trkpt>
      <trkpt lat="45.19447" lon="1.97555">
        <ele>349.6</ele>
        <time>2012-08-29T14:02:39Z</time>
      </trkpt>
      <trkpt lat="45.19452" lon="1.97547">
        <ele>350.1</ele>
        <time>2012-08-29T14:02:45Z</time>
      </trkpt>
      <trkpt lat="45.19452" lon="1.97546">
        <ele>350.5</ele>
        <time>2012-08-29T14:02:47Z</time>
      </trkpt>
      <trkpt lat="45.19457" lon="1.97535">
        <ele>351.5</ele>
        <time>2012-08-29T14:02:53Z</time>
      </trkpt>
      <trkpt lat="45.19457" lon="1.97535">
        <ele>351.5</ele>
        <time>2012-08-29T14:02:54Z</time>
      </trkpt>
      <trkpt lat="45.1946" lon="1.97527">
        <ele>352</ele>
        <time>2012-08-29T14:03:00Z</time>
      </trkpt>
      <trkpt lat="45.1946" lon="1.97527">
        <ele>352.5</ele>
        <time>2012-08-29T14:03:01Z</time>
      </trkpt>
      <trkpt lat="45.19464" lon="1.97516">
        <ele>353.9</ele>
        <time>2012-08-29T14:03:07Z</time>
      </trkpt>
      <trkpt lat="45.19464" lon="1.97515">
        <ele>354.4</ele>
        <time>2012-08-29T14:03:09Z</time>
      </trkpt>
      <trkpt lat="45.19466" lon="1.97507">
        <ele>355.3</ele>
        <time>2012-08-29T14:03:14Z</time>
      </trkpt>
      <trkpt lat="45.19466" lon="1.97507">
        <ele>354.4</ele>
        <time>2012-08-29T14:03:15Z</time>
      </trkpt>
      <trkpt lat="45.19469" lon="1.975">
        <ele>356.8</ele>
        <time>2012-08-29T14:03:20Z</time>
      </trkpt>
      <trkpt lat="45.19469" lon="1.975">
        <ele>357.3</ele>
        <time>2012-08-29T14:03:21Z</time>
      </trkpt>
      <trkpt lat="45.19472" lon="1.97492">
        <ele>357.8</ele>
        <time>2012-08-29T14:03:26Z</time>
      </trkpt>
      <trkpt lat="45.19474" lon="1.97486">
        <ele>358.2</ele>
        <time>2012-08-29T14:03:30Z</time>
      </trkpt>
      <trkpt lat="45.19474" lon="1.9748">
        <ele>359.2</ele>
        <time>2012-08-29T14:03:34Z</time>
      </trkpt>
      <trkpt lat="45.19472" lon="1.97474">
        <ele>359.7</ele>
        <time>2012-08-29T14:03:39Z</time>
      </trkpt>
      <trkpt lat="45.1947" lon="1.97469">
        <ele>360.6</ele>
        <time>2012-08-29T14:03:43Z</time>
      </trkpt>
      <trkpt lat="45.1947" lon="1.97469">
        <ele>360.6</ele>
        <time>2012-08-29T14:03:44Z</time>
      </trkpt>
      <trkpt lat="45.1947" lon="1.97464">
        <ele>362.5</ele>
        <time>2012-08-29T14:03:50Z</time>
      </trkpt>
      <trkpt lat="45.19468" lon="1.97459">
        <ele>362.5</ele>
        <time>2012-08-29T14:03:54Z</time>
      </trkpt>
      <trkpt lat="45.19465" lon="1.97454">
        <ele>363</ele>
        <time>2012-08-29T14:03:58Z</time>
      </trkpt>
      <trkpt lat="45.19464" lon="1.97446">
        <ele>363.5</ele>
        <time>2012-08-29T14:04:03Z</time>
      </trkpt>
      <trkpt lat="45.19461" lon="1.97438">
        <ele>364</ele>
        <time>2012-08-29T14:04:08Z</time>
      </trkpt>
      <trkpt lat="45.19457" lon="1.97434">
        <ele>363.5</ele>
        <time>2012-08-29T14:04:15Z</time>
      </trkpt>
      <trkpt lat="45.19452" lon="1.97419">
        <ele>365</ele>
        <time>2012-08-29T14:04:22Z</time>
      </trkpt>
      <trkpt lat="45.19451" lon="1.97417">
        <ele>365</ele>
        <time>2012-08-29T14:04:27Z</time>
      </trkpt>
      <trkpt lat="45.19447" lon="1.97403">
        <ele>365.9</ele>
        <time>2012-08-29T14:04:33Z</time>
      </trkpt>
      <trkpt lat="45.19445" lon="1.974">
        <ele>365.4</ele>
        <time>2012-08-29T14:04:38Z</time>
      </trkpt>
      <trkpt lat="45.19445" lon="1.97394">
        <ele>365.9</ele>
        <time>2012-08-29T14:04:41Z</time>
      </trkpt>
      <trkpt lat="45.1944" lon="1.97388">
        <ele>366.4</ele>
        <time>2012-08-29T14:04:48Z</time>
      </trkpt>
      <trkpt lat="45.19439" lon="1.97386">
        <ele>366.9</ele>
        <time>2012-08-29T14:04:49Z</time>
      </trkpt>
      <trkpt lat="45.19436" lon="1.97379">
        <ele>367.4</ele>
        <time>2012-08-29T14:04:57Z</time>
      </trkpt>
      <trkpt lat="45.19431" lon="1.97377">
        <ele>368.3</ele>
        <time>2012-08-29T14:05:06Z</time>
      </trkpt>
      <trkpt lat="45.19409" lon="1.97359">
        <ele>371.2</ele>
        <time>2012-08-29T14:05:14Z</time>
      </trkpt>
      <trkpt lat="45.19407" lon="1.9735">
        <ele>371.7</ele>
        <time>2012-08-29T14:05:16Z</time>
      </trkpt>
      <trkpt lat="45.19408" lon="1.97342">
        <ele>373.1</ele>
        <time>2012-08-29T14:05:19Z</time>
      </trkpt>
      <trkpt lat="45.19408" lon="1.9729">
        <ele>374.1</ele>
        <time>2012-08-29T14:05:27Z</time>
      </trkpt>
      <trkpt lat="45.19417" lon="1.97256">
        <ele>376.5</ele>
        <time>2012-08-29T14:05:33Z</time>
      </trkpt>
      <trkpt lat="45.19431" lon="1.97277">
        <ele>378.4</ele>
        <time>2012-08-29T14:05:39Z</time>
      </trkpt>
      <trkpt lat="45.19429" lon="1.97311">
        <ele>379.9</ele>
        <time>2012-08-29T14:05:45Z</time>
      </trkpt>
      <trkpt lat="45.1943" lon="1.97317">
        <ele>380.3</ele>
        <time>2012-08-29T14:05:46Z</time>
      </trkpt>
      <trkpt lat="45.19438" lon="1.97339">
        <ele>382.3</ele>
        <time>2012-08-29T14:05:50Z</time>
      </trkpt>
      <trkpt lat="45.19455" lon="1.97367">
        <ele>382.3</ele>
        <time>2012-08-29T14:05:57Z</time>
      </trkpt>
      <trkpt lat="45.19467" lon="1.97393">
        <ele>378.9</ele>
        <time>2012-08-29T14:06:02Z</time>
      </trkpt>
      <trkpt lat="45.1947" lon="1.974">
        <ele>378.9</ele>
        <time>2012-08-29T14:06:03Z</time>
      </trkpt>
      <trkpt lat="45.19484" lon="1.97434">
        <ele>377.5</ele>
        <time>2012-08-29T14:06:09Z</time>
      </trkpt>
      <trkpt lat="45.1951" lon="1.97473">
        <ele>377.5</ele>
        <time>2012-08-29T14:06:18Z</time>
      </trkpt>
      <trkpt lat="45.19513" lon="1.9749">
        <ele>378.9</ele>
        <time>2012-08-29T14:06:21Z</time>
      </trkpt>
      <trkpt lat="45.19524" lon="1.97523">
        <ele>380.3</ele>
        <time>2012-08-29T14:06:29Z</time>
      </trkpt>
      <trkpt lat="45.19527" lon="1.97526">
        <ele>380.3</ele>
        <time>2012-08-29T14:06:36Z</time>
      </trkpt>
      <trkpt lat="45.19528" lon="1.97525">
        <ele>381.3</ele>
        <time>2012-08-29T14:06:47Z</time>
      </trkpt>
      <trkpt lat="45.1953" lon="1.97526">
        <ele>381.8</ele>
        <time>2012-08-29T14:06:48Z</time>
      </trkpt>
      <trkpt lat="45.19533" lon="1.97526">
        <ele>382.3</ele>
        <time>2012-08-29T14:06:49Z</time>
      </trkpt>
      <trkpt lat="45.19535" lon="1.97524">
        <ele>382.7</ele>
        <time>2012-08-29T14:06:50Z</time>
      </trkpt>
      <trkpt lat="45.19539" lon="1.97524">
        <ele>383.2</ele>
        <time>2012-08-29T14:06:51Z</time>
      </trkpt>
      <trkpt lat="45.19543" lon="1.97523">
        <ele>383.7</ele>
        <time>2012-08-29T14:06:52Z</time>
      </trkpt>
      <trkpt lat="45.19557" lon="1.97525">
        <ele>387.1</ele>
        <time>2012-08-29T14:06:57Z</time>
      </trkpt>
      <trkpt lat="45.1956" lon="1.97525">
        <ele>386.6</ele>
        <time>2012-08-29T14:06:58Z</time>
      </trkpt>
      <trkpt lat="45.19581" lon="1.97511">
        <ele>388.5</ele>
        <time>2012-08-29T14:07:04Z</time>
      </trkpt>
      <trkpt lat="45.19608" lon="1.97496">
        <ele>390.4</ele>
        <time>2012-08-29T14:07:11Z</time>
      </trkpt>
      <trkpt lat="45.19614" lon="1.97488">
        <ele>390.9</ele>
        <time>2012-08-29T14:07:13Z</time>
      </trkpt>
      <trkpt lat="45.19649" lon="1.97433">
        <ele>394.3</ele>
        <time>2012-08-29T14:07:23Z</time>
      </trkpt>
      <trkpt lat="45.19685" lon="1.97395">
        <ele>395.2</ele>
        <time>2012-08-29T14:07:32Z</time>
      </trkpt>
      <trkpt lat="45.19705" lon="1.97384">
        <ele>395.2</ele>
        <time>2012-08-29T14:07:38Z</time>
      </trkpt>
      <trkpt lat="45.19706" lon="1.97386">
        <ele>395.2</ele>
        <time>2012-08-29T14:07:41Z</time>
      </trkpt>
      <trkpt lat="45.19705" lon="1.97387">
        <ele>395.2</ele>
        <time>2012-08-29T14:07:42Z</time>
      </trkpt>
      <trkpt lat="45.19699" lon="1.97394">
        <ele>394.8</ele>
        <time>2012-08-29T14:07:53Z</time>
      </trkpt>
      <trkpt lat="45.19695" lon="1.97396">
        <ele>395.2</ele>
        <time>2012-08-29T14:07:57Z</time>
      </trkpt>
      <trkpt lat="45.19693" lon="1.97396">
        <ele>395.7</ele>
        <time>2012-08-29T14:07:59Z</time>
      </trkpt>
      <trkpt lat="45.19692" lon="1.97396">
        <ele>395.7</ele>
        <time>2012-08-29T14:08:00Z</time>
      </trkpt>
      <trkpt lat="45.1969" lon="1.97396">
        <ele>396.2</ele>
        <time>2012-08-29T14:08:01Z</time>
      </trkpt>
      <trkpt lat="45.1968" lon="1.97396">
        <ele>399.6</ele>
        <time>2012-08-29T14:08:08Z</time>
      </trkpt>
      <trkpt lat="45.19679" lon="1.97396">
        <ele>399.6</ele>
        <time>2012-08-29T14:08:09Z</time>
      </trkpt>
      <trkpt lat="45.19685" lon="1.97413">
        <ele>400.5</ele>
        <time>2012-08-29T14:08:10Z</time>
      </trkpt>
      <trkpt lat="45.19672" lon="1.97396">
        <ele>402.5</ele>
        <time>2012-08-29T14:08:14Z</time>
      </trkpt>
      <trkpt lat="45.1967" lon="1.97396">
        <ele>402.9</ele>
        <time>2012-08-29T14:08:15Z</time>
      </trkpt>
      <trkpt lat="45.19669" lon="1.97397">
        <ele>402.9</ele>
        <time>2012-08-29T14:08:16Z</time>
      </trkpt>
      <trkpt lat="45.19652" lon="1.97404">
        <ele>403.9</ele>
        <time>2012-08-29T14:08:24Z</time>
      </trkpt>
      <trkpt lat="45.19636" lon="1.97401">
        <ele>406.8</ele>
        <time>2012-08-29T14:08:29Z</time>
      </trkpt>
      <trkpt lat="45.19629" lon="1.97391">
        <ele>408.7</ele>
        <time>2012-08-29T14:08:32Z</time>
      </trkpt>
      <trkpt lat="45.19622" lon="1.97377">
        <ele>410.6</ele>
        <time>2012-08-29T14:08:35Z</time>
      </trkpt>
      <trkpt lat="45.19611" lon="1.9735">
        <ele>414</ele>
        <time>2012-08-29T14:08:40Z</time>
      </trkpt>
      <trkpt lat="45.19608" lon="1.97344">
        <ele>414</ele>
        <time>2012-08-29T14:08:41Z</time>
      </trkpt>
      <trkpt lat="45.19598" lon="1.9731">
        <ele>415.9</ele>
        <time>2012-08-29T14:08:47Z</time>
      </trkpt>
      <trkpt lat="45.19567" lon="1.97282">
        <ele>415.9</ele>
        <time>2012-08-29T14:08:54Z</time>
      </trkpt>
      <trkpt lat="45.19568" lon="1.97296">
        <ele>415.9</ele>
        <time>2012-08-29T14:08:59Z</time>
      </trkpt>
      <trkpt lat="45.19569" lon="1.97294">
        <ele>415.9</ele>
        <time>2012-08-29T14:09:05Z</time>
      </trkpt>
      <trkpt lat="45.19567" lon="1.97264">
        <ele>418.3</ele>
        <time>2012-08-29T14:09:11Z</time>
      </trkpt>
      <trkpt lat="45.19566" lon="1.97242">
        <ele>420.2</ele>
        <time>2012-08-29T14:09:15Z</time>
      </trkpt>
      <trkpt lat="45.19576" lon="1.97193">
        <ele>423.1</ele>
        <time>2012-08-29T14:09:24Z</time>
      </trkpt>
      <trkpt lat="45.19592" lon="1.97152">
        <ele>426.5</ele>
        <time>2012-08-29T14:09:32Z</time>
      </trkpt>
      <trkpt lat="45.19592" lon="1.97117">
        <ele>427.4</ele>
        <time>2012-08-29T14:09:40Z</time>
      </trkpt>
      <trkpt lat="45.1959" lon="1.97084">
        <ele>428.9</ele>
        <time>2012-08-29T14:09:48Z</time>
      </trkpt>
      <trkpt lat="45.19591" lon="1.97071">
        <ele>428.4</ele>
        <time>2012-08-29T14:09:54Z</time>
      </trkpt>
      <trkpt lat="45.19591" lon="1.97069">
        <ele>427.9</ele>
        <time>2012-08-29T14:10:03Z</time>
      </trkpt>
      <trkpt lat="45.19592" lon="1.97066">
        <ele>428.4</ele>
        <time>2012-08-29T14:10:05Z</time>
      </trkpt>
      <trkpt lat="45.1959" lon="1.97031">
        <ele>430.8</ele>
        <time>2012-08-29T14:10:12Z</time>
      </trkpt>
      <trkpt lat="45.19584" lon="1.96979">
        <ele>431.8</ele>
        <time>2012-08-29T14:10:19Z</time>
      </trkpt>
      <trkpt lat="45.1958" lon="1.96971">
        <ele>431.8</ele>
        <time>2012-08-29T14:10:20Z</time>
      </trkpt>
      <trkpt lat="45.19572" lon="1.96952">
        <ele>432.7</ele>
        <time>2012-08-29T14:10:23Z</time>
      </trkpt>
      <trkpt lat="45.1957" lon="1.96947">
        <ele>432.7</ele>
        <time>2012-08-29T14:10:24Z</time>
      </trkpt>
      <trkpt lat="45.1957" lon="1.96941">
        <ele>433.2</ele>
        <time>2012-08-29T14:10:25Z</time>
      </trkpt>
      <trkpt lat="45.19571" lon="1.96937">
        <ele>433.7</ele>
        <time>2012-08-29T14:10:26Z</time>
      </trkpt>
      <trkpt lat="45.19572" lon="1.96934">
        <ele>433.2</ele>
        <time>2012-08-29T14:10:27Z</time>
      </trkpt>
      <trkpt lat="45.19574" lon="1.96931">
        <ele>434.2</ele>
        <time>2012-08-29T14:10:28Z</time>
      </trkpt>
      <trkpt lat="45.19577" lon="1.9693">
        <ele>434.2</ele>
        <time>2012-08-29T14:10:29Z</time>
      </trkpt>
      <trkpt lat="45.19601" lon="1.96926">
        <ele>433.7</ele>
        <time>2012-08-29T14:10:35Z</time>
      </trkpt>
      <trkpt lat="45.19606" lon="1.96926">
        <ele>433.7</ele>
        <time>2012-08-29T14:10:36Z</time>
      </trkpt>
      <trkpt lat="45.19632" lon="1.96926">
        <ele>432.2</ele>
        <time>2012-08-29T14:10:40Z</time>
      </trkpt>
      <trkpt lat="45.1969" lon="1.96911">
        <ele>430.8</ele>
        <time>2012-08-29T14:10:48Z</time>
      </trkpt>
      <trkpt lat="45.19705" lon="1.96907">
        <ele>429.4</ele>
        <time>2012-08-29T14:10:50Z</time>
      </trkpt>
      <trkpt lat="45.19743" lon="1.96893">
        <ele>428.4</ele>
        <time>2012-08-29T14:10:55Z</time>
      </trkpt>
      <trkpt lat="45.1975" lon="1.96887">
        <ele>428.4</ele>
        <time>2012-08-29T14:10:56Z</time>
      </trkpt>
      <trkpt lat="45.19766" lon="1.96873">
        <ele>427.4</ele>
        <time>2012-08-29T14:10:58Z</time>
      </trkpt>
      <trkpt lat="45.19778" lon="1.96858">
        <ele>424.1</ele>
        <time>2012-08-29T14:11:00Z</time>
      </trkpt>
      <trkpt lat="45.19781" lon="1.96855">
        <ele>426</ele>
        <time>2012-08-29T14:11:01Z</time>
      </trkpt>
      <trkpt lat="45.19789" lon="1.96847">
        <ele>426</ele>
        <time>2012-08-29T14:11:02Z</time>
      </trkpt>
      <trkpt lat="45.19793" lon="1.96825">
        <ele>424.6</ele>
        <time>2012-08-29T14:11:06Z</time>
      </trkpt>
      <trkpt lat="45.19782" lon="1.96794">
        <ele>423.6</ele>
        <time>2012-08-29T14:11:12Z</time>
      </trkpt>
      <trkpt lat="45.19773" lon="1.96782">
        <ele>422.6</ele>
        <time>2012-08-29T14:11:19Z</time>
      </trkpt>
      <trkpt lat="45.19774" lon="1.96762">
        <ele>421.7</ele>
        <time>2012-08-29T14:11:26Z</time>
      </trkpt>
      <trkpt lat="45.19787" lon="1.96753">
        <ele>419.8</ele>
        <time>2012-08-29T14:11:32Z</time>
      </trkpt>
      <trkpt lat="45.19813" lon="1.96757">
        <ele>417.4</ele>
        <time>2012-08-29T14:11:38Z</time>
      </trkpt>
      <trkpt lat="45.19833" lon="1.9675">
        <ele>415</ele>
        <time>2012-08-29T14:11:44Z</time>
      </trkpt>
      <trkpt lat="45.19846" lon="1.96734">
        <ele>413.5</ele>
        <time>2012-08-29T14:11:50Z</time>
      </trkpt>
      <trkpt lat="45.19857" lon="1.96735">
        <ele>411.1</ele>
        <time>2012-08-29T14:11:55Z</time>
      </trkpt>
      <trkpt lat="45.19873" lon="1.96744">
        <ele>409.2</ele>
        <time>2012-08-29T14:12:01Z</time>
      </trkpt>
      <trkpt lat="45.19904" lon="1.96756">
        <ele>407.3</ele>
        <time>2012-08-29T14:12:09Z</time>
      </trkpt>
      <trkpt lat="45.19939" lon="1.96741">
        <ele>407.3</ele>
        <time>2012-08-29T14:12:16Z</time>
      </trkpt>
      <trkpt lat="45.19958" lon="1.96728">
        <ele>406.3</ele>
        <time>2012-08-29T14:12:23Z</time>
      </trkpt>
      <trkpt lat="45.19961" lon="1.96728">
        <ele>405.8</ele>
        <time>2012-08-29T14:12:25Z</time>
      </trkpt>
      <trkpt lat="45.19963" lon="1.9673">
        <ele>405.8</ele>
        <time>2012-08-29T14:12:26Z</time>
      </trkpt>
      <trkpt lat="45.19965" lon="1.96732">
        <ele>406.8</ele>
        <time>2012-08-29T14:12:27Z</time>
      </trkpt>
      <trkpt lat="45.19967" lon="1.96735">
        <ele>406.8</ele>
        <time>2012-08-29T14:12:28Z</time>
      </trkpt>
      <trkpt lat="45.19968" lon="1.96739">
        <ele>406.8</ele>
        <time>2012-08-29T14:12:29Z</time>
      </trkpt>
      <trkpt lat="45.1997" lon="1.96743">
        <ele>406.8</ele>
        <time>2012-08-29T14:12:30Z</time>
      </trkpt>
      <trkpt lat="45.1998" lon="1.96784">
        <ele>408.7</ele>
        <time>2012-08-29T14:12:37Z</time>
      </trkpt>
      <trkpt lat="45.1997" lon="1.96814">
        <ele>409.2</ele>
        <time>2012-08-29T14:12:43Z</time>
      </trkpt>
      <trkpt lat="45.19946" lon="1.96853">
        <ele>412.1</ele>
        <time>2012-08-29T14:12:51Z</time>
      </trkpt>
      <trkpt lat="45.19931" lon="1.96887">
        <ele>413</ele>
        <time>2012-08-29T14:12:58Z</time>
      </trkpt>
      <trkpt lat="45.19931" lon="1.96911">
        <ele>415</ele>
        <time>2012-08-29T14:13:03Z</time>
      </trkpt>
      <trkpt lat="45.19932" lon="1.96913">
        <ele>414.5</ele>
        <time>2012-08-29T14:13:04Z</time>
      </trkpt>
      <trkpt lat="45.19934" lon="1.96915">
        <ele>414.5</ele>
        <time>2012-08-29T14:13:05Z</time>
      </trkpt>
      <trkpt lat="45.19936" lon="1.96917">
        <ele>415</ele>
        <time>2012-08-29T14:13:06Z</time>
      </trkpt>
      <trkpt lat="45.19939" lon="1.96919">
        <ele>415</ele>
        <time>2012-08-29T14:13:07Z</time>
      </trkpt>
      <trkpt lat="45.19954" lon="1.96933">
        <ele>416.9</ele>
        <time>2012-08-29T14:13:12Z</time>
      </trkpt>
      <trkpt lat="45.19975" lon="1.96962">
        <ele>418.8</ele>
        <time>2012-08-29T14:13:19Z</time>
      </trkpt>
      <trkpt lat="45.20003" lon="1.96996">
        <ele>421.2</ele>
        <time>2012-08-29T14:13:29Z</time>
      </trkpt>
      <trkpt lat="45.20021" lon="1.9699">
        <ele>422.2</ele>
        <time>2012-08-29T14:13:34Z</time>
      </trkpt>
      <trkpt lat="45.20049" lon="1.96977">
        <ele>424.1</ele>
        <time>2012-08-29T14:13:40Z</time>
      </trkpt>
      <trkpt lat="45.20078" lon="1.96953">
        <ele>427</ele>
        <time>2012-08-29T14:13:49Z</time>
      </trkpt>
      <trkpt lat="45.2011" lon="1.96947">
        <ele>428.9</ele>
        <time>2012-08-29T14:13:57Z</time>
      </trkpt>
      <trkpt lat="45.20121" lon="1.96946">
        <ele>430.3</ele>
        <time>2012-08-29T14:14:00Z</time>
      </trkpt>
      <trkpt lat="45.20144" lon="1.96943">
        <ele>433.2</ele>
        <time>2012-08-29T14:14:06Z</time>
      </trkpt>
      <trkpt lat="45.20149" lon="1.96943">
        <ele>432.7</ele>
        <time>2012-08-29T14:14:07Z</time>
      </trkpt>
      <trkpt lat="45.20171" lon="1.96942">
        <ele>434.6</ele>
        <time>2012-08-29T14:14:12Z</time>
      </trkpt>
      <trkpt lat="45.20184" lon="1.96939">
        <ele>436.1</ele>
        <time>2012-08-29T14:14:15Z</time>
      </trkpt>
      <trkpt lat="45.20222" lon="1.96936">
        <ele>437.5</ele>
        <time>2012-08-29T14:14:23Z</time>
      </trkpt>
      <trkpt lat="45.20251" lon="1.96941">
        <ele>439.9</ele>
        <time>2012-08-29T14:14:29Z</time>
      </trkpt>
      <trkpt lat="45.20278" lon="1.96938">
        <ele>441.4</ele>
        <time>2012-08-29T14:14:35Z</time>
      </trkpt>
      <trkpt lat="45.20293" lon="1.96917">
        <ele>443.3</ele>
        <time>2012-08-29T14:14:40Z</time>
      </trkpt>
      <trkpt lat="45.20314" lon="1.96889">
        <ele>445.2</ele>
        <time>2012-08-29T14:14:47Z</time>
      </trkpt>
      <trkpt lat="45.20338" lon="1.96863">
        <ele>447.6</ele>
        <time>2012-08-29T14:14:54Z</time>
      </trkpt>
      <trkpt lat="45.20362" lon="1.96835">
        <ele>450</ele>
        <time>2012-08-29T14:15:01Z</time>
      </trkpt>
      <trkpt lat="45.20369" lon="1.96826">
        <ele>450.5</ele>
        <time>2012-08-29T14:15:03Z</time>
      </trkpt>
      <trkpt lat="45.20373" lon="1.96823">
        <ele>451</ele>
        <time>2012-08-29T14:15:04Z</time>
      </trkpt>
      <trkpt lat="45.20405" lon="1.96799">
        <ele>454.4</ele>
        <time>2012-08-29T14:15:10Z</time>
      </trkpt>
      <trkpt lat="45.20446" lon="1.96763">
        <ele>457.2</ele>
        <time>2012-08-29T14:15:16Z</time>
      </trkpt>
      <trkpt lat="45.20452" lon="1.96757">
        <ele>457.7</ele>
        <time>2012-08-29T14:15:17Z</time>
      </trkpt>
      <trkpt lat="45.20458" lon="1.96749">
        <ele>457.7</ele>
        <time>2012-08-29T14:15:18Z</time>
      </trkpt>
      <trkpt lat="45.20461" lon="1.96739">
        <ele>459.2</ele>
        <time>2012-08-29T14:15:19Z</time>
      </trkpt>
      <trkpt lat="45.20462" lon="1.96728">
        <ele>459.6</ele>
        <time>2012-08-29T14:15:20Z</time>
      </trkpt>
      <trkpt lat="45.20462" lon="1.96717">
        <ele>460.6</ele>
        <time>2012-08-29T14:15:21Z</time>
      </trkpt>
      <trkpt lat="45.20462" lon="1.96706">
        <ele>461.1</ele>
        <time>2012-08-29T14:15:22Z</time>
      </trkpt>
      <trkpt lat="45.20462" lon="1.96686">
        <ele>461.1</ele>
        <time>2012-08-29T14:15:24Z</time>
      </trkpt>
      <trkpt lat="45.20464" lon="1.96676">
        <ele>461.1</ele>
        <time>2012-08-29T14:15:25Z</time>
      </trkpt>
      <trkpt lat="45.20472" lon="1.96648">
        <ele>462</ele>
        <time>2012-08-29T14:15:28Z</time>
      </trkpt>
      <trkpt lat="45.20479" lon="1.9663">
        <ele>463</ele>
        <time>2012-08-29T14:15:30Z</time>
      </trkpt>
      <trkpt lat="45.20503" lon="1.96564">
        <ele>462.5</ele>
        <time>2012-08-29T14:15:38Z</time>
      </trkpt>
      <trkpt lat="45.20504" lon="1.96545">
        <ele>462</ele>
        <time>2012-08-29T14:15:42Z</time>
      </trkpt>
      <trkpt lat="45.20504" lon="1.96536">
        <ele>462.5</ele>
        <time>2012-08-29T14:15:43Z</time>
      </trkpt>
      <trkpt lat="45.20498" lon="1.96483">
        <ele>465.4</ele>
        <time>2012-08-29T14:15:48Z</time>
      </trkpt>
      <trkpt lat="45.20491" lon="1.96398">
        <ele>465.9</ele>
        <time>2012-08-29T14:15:56Z</time>
      </trkpt>
      <trkpt lat="45.20493" lon="1.9635">
        <ele>464.9</ele>
        <time>2012-08-29T14:16:02Z</time>
      </trkpt>
      <trkpt lat="45.20495" lon="1.96345">
        <ele>464.5</ele>
        <time>2012-08-29T14:16:03Z</time>
      </trkpt>
      <trkpt lat="45.20496" lon="1.96341">
        <ele>464.5</ele>
        <time>2012-08-29T14:16:04Z</time>
      </trkpt>
      <trkpt lat="45.20498" lon="1.96338">
        <ele>464</ele>
        <time>2012-08-29T14:16:05Z</time>
      </trkpt>
      <trkpt lat="45.20499" lon="1.96336">
        <ele>464</ele>
        <time>2012-08-29T14:16:06Z</time>
      </trkpt>
      <trkpt lat="45.20502" lon="1.96335">
        <ele>464</ele>
        <time>2012-08-29T14:16:07Z</time>
      </trkpt>
      <trkpt lat="45.20505" lon="1.96334">
        <ele>463.5</ele>
        <time>2012-08-29T14:16:08Z</time>
      </trkpt>
      <trkpt lat="45.20509" lon="1.96334">
        <ele>463</ele>
        <time>2012-08-29T14:16:09Z</time>
      </trkpt>
      <trkpt lat="45.20534" lon="1.96339">
        <ele>463</ele>
        <time>2012-08-29T14:16:16Z</time>
      </trkpt>
      <trkpt lat="45.20562" lon="1.96347">
        <ele>463.5</ele>
        <time>2012-08-29T14:16:25Z</time>
      </trkpt>
      <trkpt lat="45.20589" lon="1.96351">
        <ele>466.4</ele>
        <time>2012-08-29T14:16:32Z</time>
      </trkpt>
      <trkpt lat="45.20617" lon="1.96355">
        <ele>467.8</ele>
        <time>2012-08-29T14:16:41Z</time>
      </trkpt>
      <trkpt lat="45.20643" lon="1.96364">
        <ele>468.8</ele>
        <time>2012-08-29T14:16:49Z</time>
      </trkpt>
      <trkpt lat="45.2067" lon="1.96364">
        <ele>467.8</ele>
        <time>2012-08-29T14:16:57Z</time>
      </trkpt>
      <trkpt lat="45.20692" lon="1.96352">
        <ele>465.4</ele>
        <time>2012-08-29T14:17:03Z</time>
      </trkpt>
      <trkpt lat="45.20707" lon="1.96328">
        <ele>464</ele>
        <time>2012-08-29T14:17:08Z</time>
      </trkpt>
      <trkpt lat="45.20721" lon="1.96291">
        <ele>461.6</ele>
        <time>2012-08-29T14:17:15Z</time>
      </trkpt>
      <trkpt lat="45.20715" lon="1.9627">
        <ele>461.1</ele>
        <time>2012-08-29T14:17:20Z</time>
      </trkpt>
      <trkpt lat="45.20694" lon="1.96253">
        <ele>463</ele>
        <time>2012-08-29T14:17:26Z</time>
      </trkpt>
      <trkpt lat="45.20672" lon="1.96231">
        <ele>465.9</ele>
        <time>2012-08-29T14:17:33Z</time>
      </trkpt>
      <trkpt lat="45.20669" lon="1.96227">
        <ele>465.9</ele>
        <time>2012-08-29T14:17:34Z</time>
      </trkpt>
      <trkpt lat="45.2065" lon="1.96203">
        <ele>467.8</ele>
        <time>2012-08-29T14:17:41Z</time>
      </trkpt>
      <trkpt lat="45.20643" lon="1.96188">
        <ele>467.8</ele>
        <time>2012-08-29T14:17:44Z</time>
      </trkpt>
      <trkpt lat="45.20637" lon="1.96141">
        <ele>466.9</ele>
        <time>2012-08-29T14:17:52Z</time>
      </trkpt>
      <trkpt lat="45.2064" lon="1.96103">
        <ele>466.4</ele>
        <time>2012-08-29T14:17:59Z</time>
      </trkpt>
      <trkpt lat="45.20646" lon="1.96067">
        <ele>465.9</ele>
        <time>2012-08-29T14:18:07Z</time>
      </trkpt>
      <trkpt lat="45.20652" lon="1.9604">
        <ele>467.3</ele>
        <time>2012-08-29T14:18:14Z</time>
      </trkpt>
      <trkpt lat="45.20658" lon="1.96029">
        <ele>468.8</ele>
        <time>2012-08-29T14:18:17Z</time>
      </trkpt>
      <trkpt lat="45.20669" lon="1.96">
        <ele>471.7</ele>
        <time>2012-08-29T14:18:23Z</time>
      </trkpt>
      <trkpt lat="45.20678" lon="1.95973">
        <ele>472.1</ele>
        <time>2012-08-29T14:18:29Z</time>
      </trkpt>
      <trkpt lat="45.20701" lon="1.95949">
        <ele>475</ele>
        <time>2012-08-29T14:18:36Z</time>
      </trkpt>
      <trkpt lat="45.2071" lon="1.95921">
        <ele>475.5</ele>
        <time>2012-08-29T14:18:42Z</time>
      </trkpt>
      <trkpt lat="45.20714" lon="1.95906">
        <ele>475.5</ele>
        <time>2012-08-29T14:18:47Z</time>
      </trkpt>
      <trkpt lat="45.20707" lon="1.95901">
        <ele>476</ele>
        <time>2012-08-29T14:18:51Z</time>
      </trkpt>
      <trkpt lat="45.207" lon="1.95896">
        <ele>476.5</ele>
        <time>2012-08-29T14:18:59Z</time>
      </trkpt>
      <trkpt lat="45.20693" lon="1.95894">
        <ele>477.9</ele>
        <time>2012-08-29T14:19:06Z</time>
      </trkpt>
      <trkpt lat="45.20678" lon="1.9589">
        <ele>479.4</ele>
        <time>2012-08-29T14:19:13Z</time>
      </trkpt>
      <trkpt lat="45.20665" lon="1.9588">
        <ele>482.2</ele>
        <time>2012-08-29T14:19:21Z</time>
      </trkpt>
      <trkpt lat="45.20656" lon="1.95868">
        <ele>481.8</ele>
        <time>2012-08-29T14:19:28Z</time>
      </trkpt>
      <trkpt lat="45.20653" lon="1.95859">
        <ele>482.2</ele>
        <time>2012-08-29T14:19:36Z</time>
      </trkpt>
      <trkpt lat="45.20639" lon="1.95839">
        <ele>482.2</ele>
        <time>2012-08-29T14:19:44Z</time>
      </trkpt>
      <trkpt lat="45.20624" lon="1.95809">
        <ele>482.2</ele>
        <time>2012-08-29T14:19:53Z</time>
      </trkpt>
      <trkpt lat="45.20612" lon="1.95781">
        <ele>483.2</ele>
        <time>2012-08-29T14:20:02Z</time>
      </trkpt>
      <trkpt lat="45.20601" lon="1.95759">
        <ele>483.7</ele>
        <time>2012-08-29T14:20:10Z</time>
      </trkpt>
      <trkpt lat="45.20586" lon="1.95736">
        <ele>485.1</ele>
        <time>2012-08-29T14:20:17Z</time>
      </trkpt>
      <trkpt lat="45.20578" lon="1.95717">
        <ele>485.1</ele>
        <time>2012-08-29T14:20:23Z</time>
      </trkpt>
      <trkpt lat="45.20583" lon="1.957">
        <ele>483.7</ele>
        <time>2012-08-29T14:20:29Z</time>
      </trkpt>
      <trkpt lat="45.2061" lon="1.95695">
        <ele>483.7</ele>
        <time>2012-08-29T14:20:36Z</time>
      </trkpt>
      <trkpt lat="45.2063" lon="1.95691">
        <ele>484.6</ele>
        <time>2012-08-29T14:20:40Z</time>
      </trkpt>
      <trkpt lat="45.20636" lon="1.95688">
        <ele>484.6</ele>
        <time>2012-08-29T14:20:41Z</time>
      </trkpt>
      <trkpt lat="45.20669" lon="1.9566">
        <ele>484.2</ele>
        <time>2012-08-29T14:20:48Z</time>
      </trkpt>
      <trkpt lat="45.20692" lon="1.95634">
        <ele>484.2</ele>
        <time>2012-08-29T14:20:54Z</time>
      </trkpt>
      <trkpt lat="45.20713" lon="1.9561">
        <ele>484.6</ele>
        <time>2012-08-29T14:20:59Z</time>
      </trkpt>
      <trkpt lat="45.20727" lon="1.95598">
        <ele>483.7</ele>
        <time>2012-08-29T14:21:02Z</time>
      </trkpt>
      <trkpt lat="45.20757" lon="1.9558">
        <ele>484.2</ele>
        <time>2012-08-29T14:21:08Z</time>
      </trkpt>
      <trkpt lat="45.2076" lon="1.95576">
        <ele>484.2</ele>
        <time>2012-08-29T14:21:09Z</time>
      </trkpt>
      <trkpt lat="45.20765" lon="1.95572">
        <ele>484.2</ele>
        <time>2012-08-29T14:21:10Z</time>
      </trkpt>
      <trkpt lat="45.20768" lon="1.95567">
        <ele>484.2</ele>
        <time>2012-08-29T14:21:11Z</time>
      </trkpt>
      <trkpt lat="45.20772" lon="1.95561">
        <ele>483.7</ele>
        <time>2012-08-29T14:21:12Z</time>
      </trkpt>
      <trkpt lat="45.20776" lon="1.95555">
        <ele>484.2</ele>
        <time>2012-08-29T14:21:13Z</time>
      </trkpt>
      <trkpt lat="45.20779" lon="1.95549">
        <ele>484.2</ele>
        <time>2012-08-29T14:21:14Z</time>
      </trkpt>
      <trkpt lat="45.20789" lon="1.95532">
        <ele>483.7</ele>
        <time>2012-08-29T14:21:17Z</time>
      </trkpt>
      <trkpt lat="45.20793" lon="1.95528">
        <ele>483.7</ele>
        <time>2012-08-29T14:21:18Z</time>
      </trkpt>
      <trkpt lat="45.208" lon="1.95522">
        <ele>483.7</ele>
        <time>2012-08-29T14:21:20Z</time>
      </trkpt>
      <trkpt lat="45.20805" lon="1.95519">
        <ele>483.7</ele>
        <time>2012-08-29T14:21:21Z</time>
      </trkpt>
      <trkpt lat="45.20833" lon="1.95505">
        <ele>484.6</ele>
        <time>2012-08-29T14:21:27Z</time>
      </trkpt>
      <trkpt lat="45.20878" lon="1.95498">
        <ele>484.6</ele>
        <time>2012-08-29T14:21:36Z</time>
      </trkpt>
      <trkpt lat="45.20898" lon="1.95499">
        <ele>485.1</ele>
        <time>2012-08-29T14:21:40Z</time>
      </trkpt>
      <trkpt lat="45.20903" lon="1.95497">
        <ele>485.1</ele>
        <time>2012-08-29T14:21:41Z</time>
      </trkpt>
      <trkpt lat="45.20908" lon="1.95495">
        <ele>485.1</ele>
        <time>2012-08-29T14:21:42Z</time>
      </trkpt>
      <trkpt lat="45.20921" lon="1.95486">
        <ele>485.6</ele>
        <time>2012-08-29T14:21:45Z</time>
      </trkpt>
      <trkpt lat="45.20925" lon="1.95482">
        <ele>485.6</ele>
        <time>2012-08-29T14:21:46Z</time>
      </trkpt>
      <trkpt lat="45.20928" lon="1.95478">
        <ele>485.1</ele>
        <time>2012-08-29T14:21:47Z</time>
      </trkpt>
      <trkpt lat="45.20931" lon="1.95474">
        <ele>485.1</ele>
        <time>2012-08-29T14:21:48Z</time>
      </trkpt>
      <trkpt lat="45.20931" lon="1.95469">
        <ele>484.6</ele>
        <time>2012-08-29T14:21:49Z</time>
      </trkpt>
      <trkpt lat="45.20931" lon="1.95463">
        <ele>485.1</ele>
        <time>2012-08-29T14:21:50Z</time>
      </trkpt>
      <trkpt lat="45.2093" lon="1.95454">
        <ele>484.6</ele>
        <time>2012-08-29T14:21:51Z</time>
      </trkpt>
      <trkpt lat="45.20928" lon="1.95444">
        <ele>484.6</ele>
        <time>2012-08-29T14:21:52Z</time>
      </trkpt>
      <trkpt lat="45.20928" lon="1.95438">
        <ele>484.6</ele>
        <time>2012-08-29T14:21:53Z</time>
      </trkpt>
      <trkpt lat="45.20929" lon="1.95431">
        <ele>484.2</ele>
        <time>2012-08-29T14:21:54Z</time>
      </trkpt>
      <trkpt lat="45.20929" lon="1.95424">
        <ele>484.2</ele>
        <time>2012-08-29T14:21:55Z</time>
      </trkpt>
      <trkpt lat="45.20929" lon="1.95417">
        <ele>484.6</ele>
        <time>2012-08-29T14:21:56Z</time>
      </trkpt>
      <trkpt lat="45.20931" lon="1.95409">
        <ele>484.6</ele>
        <time>2012-08-29T14:21:57Z</time>
      </trkpt>
      <trkpt lat="45.20934" lon="1.95404">
        <ele>485.1</ele>
        <time>2012-08-29T14:21:58Z</time>
      </trkpt>
      <trkpt lat="45.20937" lon="1.95399">
        <ele>485.1</ele>
        <time>2012-08-29T14:21:59Z</time>
      </trkpt>
      <trkpt lat="45.2094" lon="1.95395">
        <ele>485.6</ele>
        <time>2012-08-29T14:22:00Z</time>
      </trkpt>
      <trkpt lat="45.20944" lon="1.95392">
        <ele>485.1</ele>
        <time>2012-08-29T14:22:01Z</time>
      </trkpt>
      <trkpt lat="45.20949" lon="1.95388">
        <ele>486.1</ele>
        <time>2012-08-29T14:22:02Z</time>
      </trkpt>
      <trkpt lat="45.20954" lon="1.95385">
        <ele>486.6</ele>
        <time>2012-08-29T14:22:03Z</time>
      </trkpt>
      <trkpt lat="45.2096" lon="1.95381">
        <ele>486.6</ele>
        <time>2012-08-29T14:22:04Z</time>
      </trkpt>
      <trkpt lat="45.20997" lon="1.95366">
        <ele>488</ele>
        <time>2012-08-29T14:22:11Z</time>
      </trkpt>
      <trkpt lat="45.21019" lon="1.95362">
        <ele>489.9</ele>
        <time>2012-08-29T14:22:15Z</time>
      </trkpt>
      <trkpt lat="45.21059" lon="1.95351">
        <ele>493.8</ele>
        <time>2012-08-29T14:22:22Z</time>
      </trkpt>
      <trkpt lat="45.211" lon="1.9534">
        <ele>492.8</ele>
        <time>2012-08-29T14:22:30Z</time>
      </trkpt>
      <trkpt lat="45.21117" lon="1.95329">
        <ele>494.3</ele>
        <time>2012-08-29T14:22:33Z</time>
      </trkpt>
      <trkpt lat="45.21122" lon="1.95324">
        <ele>494.3</ele>
        <time>2012-08-29T14:22:34Z</time>
      </trkpt>
      <trkpt lat="45.21126" lon="1.95319">
        <ele>494.3</ele>
        <time>2012-08-29T14:22:35Z</time>
      </trkpt>
      <trkpt lat="45.2113" lon="1.95314">
        <ele>494.7</ele>
        <time>2012-08-29T14:22:36Z</time>
      </trkpt>
      <trkpt lat="45.21133" lon="1.95309">
        <ele>495.2</ele>
        <time>2012-08-29T14:22:37Z</time>
      </trkpt>
      <trkpt lat="45.21154" lon="1.95289">
        <ele>496.2</ele>
        <time>2012-08-29T14:22:43Z</time>
      </trkpt>
      <trkpt lat="45.21158" lon="1.95289">
        <ele>496.2</ele>
        <time>2012-08-29T14:22:44Z</time>
      </trkpt>
      <trkpt lat="45.21163" lon="1.95288">
        <ele>496.7</ele>
        <time>2012-08-29T14:22:45Z</time>
      </trkpt>
      <trkpt lat="45.21182" lon="1.95287">
        <ele>498.1</ele>
        <time>2012-08-29T14:22:49Z</time>
      </trkpt>
      <trkpt lat="45.21229" lon="1.95288">
        <ele>499.1</ele>
        <time>2012-08-29T14:22:56Z</time>
      </trkpt>
      <trkpt lat="45.21262" lon="1.95293">
        <ele>500</ele>
        <time>2012-08-29T14:23:02Z</time>
      </trkpt>
      <trkpt lat="45.21267" lon="1.95293">
        <ele>500.5</ele>
        <time>2012-08-29T14:23:03Z</time>
      </trkpt>
      <trkpt lat="45.21271" lon="1.95292">
        <ele>500.5</ele>
        <time>2012-08-29T14:23:04Z</time>
      </trkpt>
      <trkpt lat="45.21275" lon="1.9529">
        <ele>501</ele>
        <time>2012-08-29T14:23:05Z</time>
      </trkpt>
      <trkpt lat="45.21279" lon="1.95287">
        <ele>501</ele>
        <time>2012-08-29T14:23:06Z</time>
      </trkpt>
      <trkpt lat="45.21283" lon="1.95284">
        <ele>501</ele>
        <time>2012-08-29T14:23:07Z</time>
      </trkpt>
      <trkpt lat="45.21287" lon="1.9528">
        <ele>501.5</ele>
        <time>2012-08-29T14:23:08Z</time>
      </trkpt>
      <trkpt lat="45.2129" lon="1.95275">
        <ele>501.5</ele>
        <time>2012-08-29T14:23:09Z</time>
      </trkpt>
      <trkpt lat="45.21302" lon="1.95254">
        <ele>503.4</ele>
        <time>2012-08-29T14:23:14Z</time>
      </trkpt>
      <trkpt lat="45.2131" lon="1.95222">
        <ele>504.4</ele>
        <time>2012-08-29T14:23:20Z</time>
      </trkpt>
      <trkpt lat="45.21324" lon="1.9518">
        <ele>507.2</ele>
        <time>2012-08-29T14:23:27Z</time>
      </trkpt>
      <trkpt lat="45.2134" lon="1.95141">
        <ele>510.1</ele>
        <time>2012-08-29T14:23:33Z</time>
      </trkpt>
      <trkpt lat="45.21357" lon="1.95105">
        <ele>512</ele>
        <time>2012-08-29T14:23:39Z</time>
      </trkpt>
      <trkpt lat="45.21364" lon="1.95095">
        <ele>512.5</ele>
        <time>2012-08-29T14:23:41Z</time>
      </trkpt>
      <trkpt lat="45.21367" lon="1.9509">
        <ele>512.5</ele>
        <time>2012-08-29T14:23:42Z</time>
      </trkpt>
      <trkpt lat="45.21371" lon="1.95086">
        <ele>513</ele>
        <time>2012-08-29T14:23:43Z</time>
      </trkpt>
      <trkpt lat="45.21404" lon="1.95052">
        <ele>515.4</ele>
        <time>2012-08-29T14:23:51Z</time>
      </trkpt>
      <trkpt lat="45.21451" lon="1.95009">
        <ele>516.8</ele>
        <time>2012-08-29T14:24:01Z</time>
      </trkpt>
      <trkpt lat="45.21456" lon="1.95002">
        <ele>517.3</ele>
        <time>2012-08-29T14:24:02Z</time>
      </trkpt>
      <trkpt lat="45.21459" lon="1.94995">
        <ele>517.8</ele>
        <time>2012-08-29T14:24:03Z</time>
      </trkpt>
      <trkpt lat="45.21461" lon="1.94987">
        <ele>517.3</ele>
        <time>2012-08-29T14:24:04Z</time>
      </trkpt>
      <trkpt lat="45.21463" lon="1.94981">
        <ele>517.3</ele>
        <time>2012-08-29T14:24:05Z</time>
      </trkpt>
      <trkpt lat="45.21484" lon="1.94926">
        <ele>515.4</ele>
        <time>2012-08-29T14:24:14Z</time>
      </trkpt>
      <trkpt lat="45.21499" lon="1.94907">
        <ele>514.9</ele>
        <time>2012-08-29T14:24:20Z</time>
      </trkpt>
      <trkpt lat="45.21523" lon="1.94896">
        <ele>514</ele>
        <time>2012-08-29T14:24:26Z</time>
      </trkpt>
      <trkpt lat="45.21527" lon="1.94892">
        <ele>513.5</ele>
        <time>2012-08-29T14:24:27Z</time>
      </trkpt>
      <trkpt lat="45.2153" lon="1.94888">
        <ele>514</ele>
        <time>2012-08-29T14:24:28Z</time>
      </trkpt>
      <trkpt lat="45.21532" lon="1.94885">
        <ele>513.5</ele>
        <time>2012-08-29T14:24:29Z</time>
      </trkpt>
      <trkpt lat="45.21533" lon="1.94882">
        <ele>513.5</ele>
        <time>2012-08-29T14:24:30Z</time>
      </trkpt>
      <trkpt lat="45.21534" lon="1.9488">
        <ele>513.5</ele>
        <time>2012-08-29T14:24:31Z</time>
      </trkpt>
      <trkpt lat="45.21534" lon="1.94877">
        <ele>513.5</ele>
        <time>2012-08-29T14:24:32Z</time>
      </trkpt>
      <trkpt lat="45.21526" lon="1.94864">
        <ele>510.1</ele>
        <time>2012-08-29T14:24:40Z</time>
      </trkpt>
      <trkpt lat="45.21525" lon="1.94863">
        <ele>516.4</ele>
        <time>2012-08-29T14:24:41Z</time>
      </trkpt>
      <trkpt lat="45.21524" lon="1.9486">
        <ele>514.9</ele>
        <time>2012-08-29T14:24:42Z</time>
      </trkpt>
      <trkpt lat="45.21522" lon="1.94855">
        <ele>513.5</ele>
        <time>2012-08-29T14:24:44Z</time>
      </trkpt>
      <trkpt lat="45.21503" lon="1.94828">
        <ele>514</ele>
        <time>2012-08-29T14:24:51Z</time>
      </trkpt>
      <trkpt lat="45.21473" lon="1.94788">
        <ele>514.9</ele>
        <time>2012-08-29T14:24:57Z</time>
      </trkpt>
      <trkpt lat="45.2146" lon="1.94764">
        <ele>516.8</ele>
        <time>2012-08-29T14:25:02Z</time>
      </trkpt>
      <trkpt lat="45.21459" lon="1.94757">
        <ele>516.4</ele>
        <time>2012-08-29T14:25:03Z</time>
      </trkpt>
      <trkpt lat="45.21464" lon="1.94739">
        <ele>517.3</ele>
        <time>2012-08-29T14:25:06Z</time>
      </trkpt>
      <trkpt lat="45.21494" lon="1.94717">
        <ele>518.3</ele>
        <time>2012-08-29T14:25:13Z</time>
      </trkpt>
      <trkpt lat="45.21499" lon="1.94715">
        <ele>519.2</ele>
        <time>2012-08-29T14:25:14Z</time>
      </trkpt>
      <trkpt lat="45.21503" lon="1.94713">
        <ele>518.8</ele>
        <time>2012-08-29T14:25:15Z</time>
      </trkpt>
      <trkpt lat="45.21518" lon="1.94708">
        <ele>519.7</ele>
        <time>2012-08-29T14:25:18Z</time>
      </trkpt>
      <trkpt lat="45.21523" lon="1.94706">
        <ele>520.2</ele>
        <time>2012-08-29T14:25:19Z</time>
      </trkpt>
      <trkpt lat="45.21529" lon="1.94703">
        <ele>519.7</ele>
        <time>2012-08-29T14:25:20Z</time>
      </trkpt>
      <trkpt lat="45.21539" lon="1.94695">
        <ele>520.7</ele>
        <time>2012-08-29T14:25:22Z</time>
      </trkpt>
      <trkpt lat="45.2157" lon="1.94658">
        <ele>522.6</ele>
        <time>2012-08-29T14:25:29Z</time>
      </trkpt>
      <trkpt lat="45.21588" lon="1.94626">
        <ele>523.1</ele>
        <time>2012-08-29T14:25:34Z</time>
      </trkpt>
      <trkpt lat="45.21592" lon="1.94622">
        <ele>523.6</ele>
        <time>2012-08-29T14:25:35Z</time>
      </trkpt>
      <trkpt lat="45.21596" lon="1.94619">
        <ele>523.6</ele>
        <time>2012-08-29T14:25:36Z</time>
      </trkpt>
      <trkpt lat="45.216" lon="1.94616">
        <ele>523.6</ele>
        <time>2012-08-29T14:25:37Z</time>
      </trkpt>
      <trkpt lat="45.21604" lon="1.94615">
        <ele>523.1</ele>
        <time>2012-08-29T14:25:38Z</time>
      </trkpt>
      <trkpt lat="45.21607" lon="1.94613">
        <ele>523.6</ele>
        <time>2012-08-29T14:25:39Z</time>
      </trkpt>
      <trkpt lat="45.2161" lon="1.94613">
        <ele>523.6</ele>
        <time>2012-08-29T14:25:40Z</time>
      </trkpt>
      <trkpt lat="45.21614" lon="1.94615">
        <ele>524.1</ele>
        <time>2012-08-29T14:25:41Z</time>
      </trkpt>
      <trkpt lat="45.21617" lon="1.94617">
        <ele>524.1</ele>
        <time>2012-08-29T14:25:42Z</time>
      </trkpt>
      <trkpt lat="45.21634" lon="1.94629">
        <ele>524.5</ele>
        <time>2012-08-29T14:25:47Z</time>
      </trkpt>
      <trkpt lat="45.21658" lon="1.94642">
        <ele>524.1</ele>
        <time>2012-08-29T14:25:53Z</time>
      </trkpt>
      <trkpt lat="45.21678" lon="1.94654">
        <ele>523.6</ele>
        <time>2012-08-29T14:25:59Z</time>
      </trkpt>
      <trkpt lat="45.217" lon="1.94647">
        <ele>523.1</ele>
        <time>2012-08-29T14:26:05Z</time>
      </trkpt>
      <trkpt lat="45.21729" lon="1.94628">
        <ele>523.6</ele>
        <time>2012-08-29T14:26:12Z</time>
      </trkpt>
      <trkpt lat="45.21735" lon="1.94619">
        <ele>524.5</ele>
        <time>2012-08-29T14:26:14Z</time>
      </trkpt>
      <trkpt lat="45.21738" lon="1.94615">
        <ele>524.1</ele>
        <time>2012-08-29T14:26:15Z</time>
      </trkpt>
      <trkpt lat="45.21742" lon="1.9461">
        <ele>524.1</ele>
        <time>2012-08-29T14:26:16Z</time>
      </trkpt>
      <trkpt lat="45.21745" lon="1.94606">
        <ele>524.1</ele>
        <time>2012-08-29T14:26:17Z</time>
      </trkpt>
      <trkpt lat="45.21749" lon="1.94602">
        <ele>524.5</ele>
        <time>2012-08-29T14:26:18Z</time>
      </trkpt>
      <trkpt lat="45.21757" lon="1.94593">
        <ele>524.5</ele>
        <time>2012-08-29T14:26:20Z</time>
      </trkpt>
      <trkpt lat="45.21762" lon="1.94588">
        <ele>524.5</ele>
        <time>2012-08-29T14:26:21Z</time>
      </trkpt>
      <trkpt lat="45.21804" lon="1.94555">
        <ele>525</ele>
        <time>2012-08-29T14:26:29Z</time>
      </trkpt>
      <trkpt lat="45.21835" lon="1.94532">
        <ele>526.5</ele>
        <time>2012-08-29T14:26:36Z</time>
      </trkpt>
      <trkpt lat="45.21863" lon="1.94522">
        <ele>527.4</ele>
        <time>2012-08-29T14:26:43Z</time>
      </trkpt>
      <trkpt lat="45.21889" lon="1.94516">
        <ele>527.9</ele>
        <time>2012-08-29T14:26:50Z</time>
      </trkpt>
      <trkpt lat="45.21895" lon="1.94515">
        <ele>527.9</ele>
        <time>2012-08-29T14:26:57Z</time>
      </trkpt>
      <trkpt lat="45.21894" lon="1.94515">
        <ele>527.9</ele>
        <time>2012-08-29T14:27:07Z</time>
      </trkpt>
      <trkpt lat="45.21895" lon="1.94514">
        <ele>528.4</ele>
        <time>2012-08-29T14:27:14Z</time>
      </trkpt>
      <trkpt lat="45.21888" lon="1.94492">
        <ele>528.4</ele>
        <time>2012-08-29T14:27:21Z</time>
      </trkpt>
      <trkpt lat="45.21879" lon="1.94466">
        <ele>527.9</ele>
        <time>2012-08-29T14:27:27Z</time>
      </trkpt>
      <trkpt lat="45.21884" lon="1.94441">
        <ele>528.9</ele>
        <time>2012-08-29T14:27:33Z</time>
      </trkpt>
      <trkpt lat="45.21896" lon="1.94405">
        <ele>529.3</ele>
        <time>2012-08-29T14:27:40Z</time>
      </trkpt>
      <trkpt lat="45.21914" lon="1.94363">
        <ele>529.3</ele>
        <time>2012-08-29T14:27:48Z</time>
      </trkpt>
      <trkpt lat="45.21932" lon="1.94326">
        <ele>529.3</ele>
        <time>2012-08-29T14:27:55Z</time>
      </trkpt>
      <trkpt lat="45.21945" lon="1.94303">
        <ele>528.4</ele>
        <time>2012-08-29T14:28:02Z</time>
      </trkpt>
      <trkpt lat="45.21956" lon="1.94281">
        <ele>528.9</ele>
        <time>2012-08-29T14:28:08Z</time>
      </trkpt>
      <trkpt lat="45.21972" lon="1.94245">
        <ele>530.3</ele>
        <time>2012-08-29T14:28:16Z</time>
      </trkpt>
      <trkpt lat="45.21992" lon="1.94208">
        <ele>531.8</ele>
        <time>2012-08-29T14:28:24Z</time>
      </trkpt>
      <trkpt lat="45.22005" lon="1.94179">
        <ele>531.8</ele>
        <time>2012-08-29T14:28:31Z</time>
      </trkpt>
      <trkpt lat="45.22014" lon="1.94148">
        <ele>532.7</ele>
        <time>2012-08-29T14:28:38Z</time>
      </trkpt>
      <trkpt lat="45.22015" lon="1.9411">
        <ele>533.7</ele>
        <time>2012-08-29T14:28:45Z</time>
      </trkpt>
      <trkpt lat="45.22019" lon="1.94076">
        <ele>533.7</ele>
        <time>2012-08-29T14:28:52Z</time>
      </trkpt>
      <trkpt lat="45.22026" lon="1.94056">
        <ele>534.2</ele>
        <time>2012-08-29T14:28:59Z</time>
      </trkpt>
      <trkpt lat="45.22026" lon="1.94052">
        <ele>533.7</ele>
        <time>2012-08-29T14:29:01Z</time>
      </trkpt>
      <trkpt lat="45.2202" lon="1.94035">
        <ele>534.6</ele>
        <time>2012-08-29T14:29:10Z</time>
      </trkpt>
      <trkpt lat="45.22008" lon="1.94021">
        <ele>535.1</ele>
        <time>2012-08-29T14:29:17Z</time>
      </trkpt>
      <trkpt lat="45.21998" lon="1.94006">
        <ele>535.6</ele>
        <time>2012-08-29T14:29:23Z</time>
      </trkpt>
      <trkpt lat="45.21995" lon="1.94001">
        <ele>535.6</ele>
        <time>2012-08-29T14:29:25Z</time>
      </trkpt>
      <trkpt lat="45.22003" lon="1.93987">
        <ele>536.5</ele>
        <time>2012-08-29T14:29:31Z</time>
      </trkpt>
      <trkpt lat="45.2201" lon="1.93981">
        <ele>536.1</ele>
        <time>2012-08-29T14:29:34Z</time>
      </trkpt>
      <trkpt lat="45.22027" lon="1.93967">
        <ele>537.5</ele>
        <time>2012-08-29T14:29:41Z</time>
      </trkpt>
      <trkpt lat="45.22041" lon="1.93956">
        <ele>538</ele>
        <time>2012-08-29T14:29:47Z</time>
      </trkpt>
      <trkpt lat="45.22064" lon="1.93939">
        <ele>537.5</ele>
        <time>2012-08-29T14:29:55Z</time>
      </trkpt>
      <trkpt lat="45.22085" lon="1.93937">
        <ele>537.5</ele>
        <time>2012-08-29T14:30:02Z</time>
      </trkpt>
      <trkpt lat="45.22107" lon="1.93931">
        <ele>539.9</ele>
        <time>2012-08-29T14:30:10Z</time>
      </trkpt>
      <trkpt lat="45.22115" lon="1.93926">
        <ele>540.4</ele>
        <time>2012-08-29T14:30:13Z</time>
      </trkpt>
      <trkpt lat="45.2212" lon="1.93889">
        <ele>543.3</ele>
        <time>2012-08-29T14:30:19Z</time>
      </trkpt>
      <trkpt lat="45.22119" lon="1.9388">
        <ele>543.3</ele>
        <time>2012-08-29T14:30:20Z</time>
      </trkpt>
      <trkpt lat="45.22107" lon="1.93804">
        <ele>542.3</ele>
        <time>2012-08-29T14:30:27Z</time>
      </trkpt>
      <trkpt lat="45.22106" lon="1.93794">
        <ele>541.8</ele>
        <time>2012-08-29T14:30:28Z</time>
      </trkpt>
      <trkpt lat="45.22106" lon="1.93787">
        <ele>541.8</ele>
        <time>2012-08-29T14:30:29Z</time>
      </trkpt>
      <trkpt lat="45.22109" lon="1.93768">
        <ele>541.8</ele>
        <time>2012-08-29T14:30:33Z</time>
      </trkpt>
      <trkpt lat="45.22111" lon="1.93763">
        <ele>542.3</ele>
        <time>2012-08-29T14:30:34Z</time>
      </trkpt>
      <trkpt lat="45.22113" lon="1.93757">
        <ele>542.8</ele>
        <time>2012-08-29T14:30:35Z</time>
      </trkpt>
      <trkpt lat="45.22117" lon="1.9375">
        <ele>543.3</ele>
        <time>2012-08-29T14:30:36Z</time>
      </trkpt>
      <trkpt lat="45.22128" lon="1.93726">
        <ele>545.2</ele>
        <time>2012-08-29T14:30:39Z</time>
      </trkpt>
      <trkpt lat="45.22153" lon="1.93687">
        <ele>547.1</ele>
        <time>2012-08-29T14:30:43Z</time>
      </trkpt>
      <trkpt lat="45.22198" lon="1.93643">
        <ele>548.1</ele>
        <time>2012-08-29T14:30:48Z</time>
      </trkpt>
      <trkpt lat="45.22268" lon="1.93577">
        <ele>549</ele>
        <time>2012-08-29T14:30:55Z</time>
      </trkpt>
      <trkpt lat="45.22286" lon="1.93554">
        <ele>548.1</ele>
        <time>2012-08-29T14:30:57Z</time>
      </trkpt>
      <trkpt lat="45.22321" lon="1.93507">
        <ele>548.1</ele>
        <time>2012-08-29T14:31:01Z</time>
      </trkpt>
      <trkpt lat="45.22331" lon="1.93498">
        <ele>548.6</ele>
        <time>2012-08-29T14:31:02Z</time>
      </trkpt>
      <trkpt lat="45.22342" lon="1.9349">
        <ele>548.1</ele>
        <time>2012-08-29T14:31:03Z</time>
      </trkpt>
      <trkpt lat="45.22353" lon="1.93483">
        <ele>547.6</ele>
        <time>2012-08-29T14:31:04Z</time>
      </trkpt>
      <trkpt lat="45.22365" lon="1.93478">
        <ele>546.2</ele>
        <time>2012-08-29T14:31:05Z</time>
      </trkpt>
      <trkpt lat="45.22376" lon="1.93473">
        <ele>546.7</ele>
        <time>2012-08-29T14:31:06Z</time>
      </trkpt>
      <trkpt lat="45.22453" lon="1.93447">
        <ele>545.7</ele>
        <time>2012-08-29T14:31:13Z</time>
      </trkpt>
      <trkpt lat="45.22463" lon="1.93441">
        <ele>546.7</ele>
        <time>2012-08-29T14:31:14Z</time>
      </trkpt>
      <trkpt lat="45.22472" lon="1.93435">
        <ele>545.7</ele>
        <time>2012-08-29T14:31:15Z</time>
      </trkpt>
      <trkpt lat="45.2248" lon="1.93427">
        <ele>545.7</ele>
        <time>2012-08-29T14:31:16Z</time>
      </trkpt>
      <trkpt lat="45.22487" lon="1.93416">
        <ele>545.2</ele>
        <time>2012-08-29T14:31:17Z</time>
      </trkpt>
      <trkpt lat="45.22493" lon="1.93404">
        <ele>545.2</ele>
        <time>2012-08-29T14:31:18Z</time>
      </trkpt>
      <trkpt lat="45.22496" lon="1.93391">
        <ele>544.7</ele>
        <time>2012-08-29T14:31:19Z</time>
      </trkpt>
      <trkpt lat="45.22498" lon="1.93378">
        <ele>544.7</ele>
        <time>2012-08-29T14:31:20Z</time>
      </trkpt>
      <trkpt lat="45.22499" lon="1.93365">
        <ele>545.2</ele>
        <time>2012-08-29T14:31:21Z</time>
      </trkpt>
      <trkpt lat="45.22508" lon="1.93299">
        <ele>543.3</ele>
        <time>2012-08-29T14:31:27Z</time>
      </trkpt>
      <trkpt lat="45.22511" lon="1.93287">
        <ele>541.8</ele>
        <time>2012-08-29T14:31:31Z</time>
      </trkpt>
      <trkpt lat="45.22515" lon="1.93277">
        <ele>543.8</ele>
        <time>2012-08-29T14:31:35Z</time>
      </trkpt>
      <trkpt lat="45.22524" lon="1.93237">
        <ele>544.7</ele>
        <time>2012-08-29T14:31:40Z</time>
      </trkpt>
      <trkpt lat="45.2253" lon="1.93164">
        <ele>545.7</ele>
        <time>2012-08-29T14:31:46Z</time>
      </trkpt>
      <trkpt lat="45.2254" lon="1.93127">
        <ele>546.2</ele>
        <time>2012-08-29T14:31:49Z</time>
      </trkpt>
      <trkpt lat="45.22546" lon="1.93115">
        <ele>545.7</ele>
        <time>2012-08-29T14:31:50Z</time>
      </trkpt>
      <trkpt lat="45.22553" lon="1.93105">
        <ele>546.2</ele>
        <time>2012-08-29T14:31:51Z</time>
      </trkpt>
      <trkpt lat="45.22562" lon="1.93097">
        <ele>546.2</ele>
        <time>2012-08-29T14:31:52Z</time>
      </trkpt>
      <trkpt lat="45.22571" lon="1.93089">
        <ele>546.7</ele>
        <time>2012-08-29T14:31:53Z</time>
      </trkpt>
      <trkpt lat="45.22591" lon="1.9307">
        <ele>547.6</ele>
        <time>2012-08-29T14:31:55Z</time>
      </trkpt>
      <trkpt lat="45.22687" lon="1.92985">
        <ele>546.7</ele>
        <time>2012-08-29T14:32:04Z</time>
      </trkpt>
      <trkpt lat="45.22698" lon="1.92975">
        <ele>546.2</ele>
        <time>2012-08-29T14:32:05Z</time>
      </trkpt>
      <trkpt lat="45.22718" lon="1.9296">
        <ele>544.7</ele>
        <time>2012-08-29T14:32:07Z</time>
      </trkpt>
      <trkpt lat="45.22727" lon="1.92955">
        <ele>543.3</ele>
        <time>2012-08-29T14:32:08Z</time>
      </trkpt>
      <trkpt lat="45.22735" lon="1.92952">
        <ele>542.8</ele>
        <time>2012-08-29T14:32:09Z</time>
      </trkpt>
      <trkpt lat="45.22741" lon="1.92951">
        <ele>542.8</ele>
        <time>2012-08-29T14:32:10Z</time>
      </trkpt>
      <trkpt lat="45.22749" lon="1.92952">
        <ele>542.8</ele>
        <time>2012-08-29T14:32:11Z</time>
      </trkpt>
      <trkpt lat="45.22799" lon="1.9295">
        <ele>543.8</ele>
        <time>2012-08-29T14:32:18Z</time>
      </trkpt>
      <trkpt lat="45.22839" lon="1.92932">
        <ele>543.3</ele>
        <time>2012-08-29T14:32:24Z</time>
      </trkpt>
      <trkpt lat="45.22878" lon="1.92906">
        <ele>541.4</ele>
        <time>2012-08-29T14:32:30Z</time>
      </trkpt>
      <trkpt lat="45.22924" lon="1.92881">
        <ele>539.4</ele>
        <time>2012-08-29T14:32:36Z</time>
      </trkpt>
      <trkpt lat="45.22977" lon="1.9286">
        <ele>537.5</ele>
        <time>2012-08-29T14:32:43Z</time>
      </trkpt>
      <trkpt lat="45.23" lon="1.92851">
        <ele>536.5</ele>
        <time>2012-08-29T14:32:46Z</time>
      </trkpt>
      <trkpt lat="45.23023" lon="1.9284">
        <ele>537.5</ele>
        <time>2012-08-29T14:32:51Z</time>
      </trkpt>
      <trkpt lat="45.23058" lon="1.9281">
        <ele>537.5</ele>
        <time>2012-08-29T14:33:00Z</time>
      </trkpt>
      <trkpt lat="45.23087" lon="1.92779">
        <ele>537</ele>
        <time>2012-08-29T14:33:08Z</time>
      </trkpt>
      <trkpt lat="45.23115" lon="1.92753">
        <ele>535.1</ele>
        <time>2012-08-29T14:33:16Z</time>
      </trkpt>
      <trkpt lat="45.23137" lon="1.92738">
        <ele>536.5</ele>
        <time>2012-08-29T14:33:22Z</time>
      </trkpt>
      <trkpt lat="45.23198" lon="1.92734">
        <ele>535.6</ele>
        <time>2012-08-29T14:33:23Z</time>
      </trkpt>
      <trkpt lat="45.23201" lon="1.92732">
        <ele>536.1</ele>
        <time>2012-08-29T14:33:24Z</time>
      </trkpt>
      <trkpt lat="45.23223" lon="1.9271">
        <ele>536.1</ele>
        <time>2012-08-29T14:33:31Z</time>
      </trkpt>
      <trkpt lat="45.23235" lon="1.92702">
        <ele>536.1</ele>
        <time>2012-08-29T14:33:34Z</time>
      </trkpt>
      <trkpt lat="45.23246" lon="1.92703">
        <ele>535.6</ele>
        <time>2012-08-29T14:33:36Z</time>
      </trkpt>
      <trkpt lat="45.23253" lon="1.92705">
        <ele>535.1</ele>
        <time>2012-08-29T14:33:37Z</time>
      </trkpt>
      <trkpt lat="45.23259" lon="1.92707">
        <ele>534.6</ele>
        <time>2012-08-29T14:33:38Z</time>
      </trkpt>
      <trkpt lat="45.2327" lon="1.92712">
        <ele>539.9</ele>
        <time>2012-08-29T14:33:40Z</time>
      </trkpt>
      <trkpt lat="45.23274" lon="1.92713">
        <ele>535.1</ele>
        <time>2012-08-29T14:33:41Z</time>
      </trkpt>
      <trkpt lat="45.23285" lon="1.92716">
        <ele>535.1</ele>
        <time>2012-08-29T14:33:43Z</time>
      </trkpt>
      <trkpt lat="45.23291" lon="1.92715">
        <ele>535.1</ele>
        <time>2012-08-29T14:33:44Z</time>
      </trkpt>
      <trkpt lat="45.23296" lon="1.92714">
        <ele>535.1</ele>
        <time>2012-08-29T14:33:45Z</time>
      </trkpt>
      <trkpt lat="45.23301" lon="1.92711">
        <ele>535.1</ele>
        <time>2012-08-29T14:33:46Z</time>
      </trkpt>
      <trkpt lat="45.23308" lon="1.92707">
        <ele>535.6</ele>
        <time>2012-08-29T14:33:47Z</time>
      </trkpt>
      <trkpt lat="45.23334" lon="1.92692">
        <ele>538.5</ele>
        <time>2012-08-29T14:33:50Z</time>
      </trkpt>
      <trkpt lat="45.23396" lon="1.92635">
        <ele>541.4</ele>
        <time>2012-08-29T14:33:56Z</time>
      </trkpt>
      <trkpt lat="45.23407" lon="1.92626">
        <ele>541.4</ele>
        <time>2012-08-29T14:33:57Z</time>
      </trkpt>
      <trkpt lat="45.23459" lon="1.92593">
        <ele>541.4</ele>
        <time>2012-08-29T14:34:02Z</time>
      </trkpt>
      <trkpt lat="45.23489" lon="1.9257">
        <ele>539.9</ele>
        <time>2012-08-29T14:34:06Z</time>
      </trkpt>
      <trkpt lat="45.23541" lon="1.92524">
        <ele>538</ele>
        <time>2012-08-29T14:34:14Z</time>
      </trkpt>
      <trkpt lat="45.23558" lon="1.92512">
        <ele>536.5</ele>
        <time>2012-08-29T14:34:17Z</time>
      </trkpt>
      <trkpt lat="45.23591" lon="1.92497">
        <ele>536.5</ele>
        <time>2012-08-29T14:34:24Z</time>
      </trkpt>
      <trkpt lat="45.23615" lon="1.92484">
        <ele>537.5</ele>
        <time>2012-08-29T14:34:30Z</time>
      </trkpt>
      <trkpt lat="45.23618" lon="1.9248">
        <ele>537</ele>
        <time>2012-08-29T14:34:31Z</time>
      </trkpt>
      <trkpt lat="45.23621" lon="1.92475">
        <ele>537.5</ele>
        <time>2012-08-29T14:34:32Z</time>
      </trkpt>
      <trkpt lat="45.23632" lon="1.92461">
        <ele>537</ele>
        <time>2012-08-29T14:34:35Z</time>
      </trkpt>
      <trkpt lat="45.23636" lon="1.92457">
        <ele>537.5</ele>
        <time>2012-08-29T14:34:36Z</time>
      </trkpt>
      <trkpt lat="45.2364" lon="1.92455">
        <ele>537.5</ele>
        <time>2012-08-29T14:34:37Z</time>
      </trkpt>
      <trkpt lat="45.23644" lon="1.92453">
        <ele>537</ele>
        <time>2012-08-29T14:34:38Z</time>
      </trkpt>
      <trkpt lat="45.23649" lon="1.92451">
        <ele>537</ele>
        <time>2012-08-29T14:34:39Z</time>
      </trkpt>
      <trkpt lat="45.23654" lon="1.92451">
        <ele>536.5</ele>
        <time>2012-08-29T14:34:40Z</time>
      </trkpt>
      <trkpt lat="45.23704" lon="1.92448">
        <ele>535.1</ele>
        <time>2012-08-29T14:34:45Z</time>
      </trkpt>
      <trkpt lat="45.23784" lon="1.92435">
        <ele>532.2</ele>
        <time>2012-08-29T14:34:52Z</time>
      </trkpt>
      <trkpt lat="45.23795" lon="1.92434">
        <ele>531.8</ele>
        <time>2012-08-29T14:34:53Z</time>
      </trkpt>
      <trkpt lat="45.23854" lon="1.92435">
        <ele>528.9</ele>
        <time>2012-08-29T14:34:59Z</time>
      </trkpt>
      <trkpt lat="45.23878" lon="1.92437">
        <ele>527.4</ele>
        <time>2012-08-29T14:35:02Z</time>
      </trkpt>
      <trkpt lat="45.23887" lon="1.9244">
        <ele>526.9</ele>
        <time>2012-08-29T14:35:03Z</time>
      </trkpt>
      <trkpt lat="45.23926" lon="1.92456">
        <ele>525</ele>
        <time>2012-08-29T14:35:08Z</time>
      </trkpt>
      <trkpt lat="45.23934" lon="1.92458">
        <ele>525</ele>
        <time>2012-08-29T14:35:09Z</time>
      </trkpt>
      <trkpt lat="45.23942" lon="1.92458">
        <ele>524.5</ele>
        <time>2012-08-29T14:35:10Z</time>
      </trkpt>
      <trkpt lat="45.2395" lon="1.92457">
        <ele>524.1</ele>
        <time>2012-08-29T14:35:11Z</time>
      </trkpt>
      <trkpt lat="45.23958" lon="1.92455">
        <ele>524.5</ele>
        <time>2012-08-29T14:35:12Z</time>
      </trkpt>
      <trkpt lat="45.23966" lon="1.92451">
        <ele>524.5</ele>
        <time>2012-08-29T14:35:13Z</time>
      </trkpt>
      <trkpt lat="45.23974" lon="1.92446">
        <ele>524.5</ele>
        <time>2012-08-29T14:35:14Z</time>
      </trkpt>
      <trkpt lat="45.23982" lon="1.92441">
        <ele>524.1</ele>
        <time>2012-08-29T14:35:15Z</time>
      </trkpt>
      <trkpt lat="45.24026" lon="1.92413">
        <ele>523.6</ele>
        <time>2012-08-29T14:35:22Z</time>
      </trkpt>
      <trkpt lat="45.24043" lon="1.92397">
        <ele>523.6</ele>
        <time>2012-08-29T14:35:25Z</time>
      </trkpt>
      <trkpt lat="45.24049" lon="1.92389">
        <ele>522.6</ele>
        <time>2012-08-29T14:35:26Z</time>
      </trkpt>
      <trkpt lat="45.24054" lon="1.92381">
        <ele>523.1</ele>
        <time>2012-08-29T14:35:27Z</time>
      </trkpt>
      <trkpt lat="45.24079" lon="1.92335">
        <ele>521.2</ele>
        <time>2012-08-29T14:35:33Z</time>
      </trkpt>
      <trkpt lat="45.24083" lon="1.92329">
        <ele>521.2</ele>
        <time>2012-08-29T14:35:34Z</time>
      </trkpt>
      <trkpt lat="45.24087" lon="1.92325">
        <ele>521.2</ele>
        <time>2012-08-29T14:35:35Z</time>
      </trkpt>
      <trkpt lat="45.24091" lon="1.92322">
        <ele>521.2</ele>
        <time>2012-08-29T14:35:36Z</time>
      </trkpt>
      <trkpt lat="45.24096" lon="1.9232">
        <ele>521.2</ele>
        <time>2012-08-29T14:35:37Z</time>
      </trkpt>
      <trkpt lat="45.24101" lon="1.9232">
        <ele>521.2</ele>
        <time>2012-08-29T14:35:38Z</time>
      </trkpt>
      <trkpt lat="45.24106" lon="1.9232">
        <ele>521.7</ele>
        <time>2012-08-29T14:35:39Z</time>
      </trkpt>
      <trkpt lat="45.24111" lon="1.92322">
        <ele>521.7</ele>
        <time>2012-08-29T14:35:40Z</time>
      </trkpt>
      <trkpt lat="45.24117" lon="1.92325">
        <ele>521.2</ele>
        <time>2012-08-29T14:35:41Z</time>
      </trkpt>
      <trkpt lat="45.24122" lon="1.92327">
        <ele>520.2</ele>
        <time>2012-08-29T14:35:42Z</time>
      </trkpt>
      <trkpt lat="45.24127" lon="1.92328">
        <ele>520.2</ele>
        <time>2012-08-29T14:35:43Z</time>
      </trkpt>
      <trkpt lat="45.2417" lon="1.92344">
        <ele>522.1</ele>
        <time>2012-08-29T14:35:51Z</time>
      </trkpt>
      <trkpt lat="45.24186" lon="1.92351">
        <ele>521.7</ele>
        <time>2012-08-29T14:35:54Z</time>
      </trkpt>
      <trkpt lat="45.24213" lon="1.92363">
        <ele>525</ele>
        <time>2012-08-29T14:35:59Z</time>
      </trkpt>
      <trkpt lat="45.24225" lon="1.92366">
        <ele>522.1</ele>
        <time>2012-08-29T14:36:01Z</time>
      </trkpt>
      <trkpt lat="45.24231" lon="1.92366">
        <ele>522.6</ele>
        <time>2012-08-29T14:36:02Z</time>
      </trkpt>
      <trkpt lat="45.24237" lon="1.92366">
        <ele>522.6</ele>
        <time>2012-08-29T14:36:03Z</time>
      </trkpt>
      <trkpt lat="45.24244" lon="1.92364">
        <ele>522.6</ele>
        <time>2012-08-29T14:36:04Z</time>
      </trkpt>
      <trkpt lat="45.24249" lon="1.92361">
        <ele>522.6</ele>
        <time>2012-08-29T14:36:05Z</time>
      </trkpt>
      <trkpt lat="45.24255" lon="1.92356">
        <ele>522.6</ele>
        <time>2012-08-29T14:36:06Z</time>
      </trkpt>
      <trkpt lat="45.24259" lon="1.92352">
        <ele>522.6</ele>
        <time>2012-08-29T14:36:07Z</time>
      </trkpt>
      <trkpt lat="45.24267" lon="1.92342">
        <ele>521.7</ele>
        <time>2012-08-29T14:36:09Z</time>
      </trkpt>
      <trkpt lat="45.2427" lon="1.92336">
        <ele>522.1</ele>
        <time>2012-08-29T14:36:10Z</time>
      </trkpt>
      <trkpt lat="45.24271" lon="1.9233">
        <ele>522.1</ele>
        <time>2012-08-29T14:36:11Z</time>
      </trkpt>
      <trkpt lat="45.24273" lon="1.92324">
        <ele>522.1</ele>
        <time>2012-08-29T14:36:12Z</time>
      </trkpt>
      <trkpt lat="45.24274" lon="1.92317">
        <ele>522.1</ele>
        <time>2012-08-29T14:36:13Z</time>
      </trkpt>
      <trkpt lat="45.24276" lon="1.92309">
        <ele>522.6</ele>
        <time>2012-08-29T14:36:14Z</time>
      </trkpt>
      <trkpt lat="45.24278" lon="1.92301">
        <ele>523.1</ele>
        <time>2012-08-29T14:36:15Z</time>
      </trkpt>
      <trkpt lat="45.24292" lon="1.92251">
        <ele>526.9</ele>
        <time>2012-08-29T14:36:21Z</time>
      </trkpt>
      <trkpt lat="45.24305" lon="1.92205">
        <ele>529.3</ele>
        <time>2012-08-29T14:36:25Z</time>
      </trkpt>
      <trkpt lat="45.24312" lon="1.9217">
        <ele>531.3</ele>
        <time>2012-08-29T14:36:28Z</time>
      </trkpt>
      <trkpt lat="45.24312" lon="1.92158">
        <ele>532.2</ele>
        <time>2012-08-29T14:36:29Z</time>
      </trkpt>
      <trkpt lat="45.24311" lon="1.92147">
        <ele>531.8</ele>
        <time>2012-08-29T14:36:30Z</time>
      </trkpt>
      <trkpt lat="45.24308" lon="1.92137">
        <ele>531.8</ele>
        <time>2012-08-29T14:36:31Z</time>
      </trkpt>
      <trkpt lat="45.24306" lon="1.92128">
        <ele>531.8</ele>
        <time>2012-08-29T14:36:32Z</time>
      </trkpt>
      <trkpt lat="45.24299" lon="1.92105">
        <ele>532.2</ele>
        <time>2012-08-29T14:36:35Z</time>
      </trkpt>
      <trkpt lat="45.24298" lon="1.92099">
        <ele>532.2</ele>
        <time>2012-08-29T14:36:36Z</time>
      </trkpt>
      <trkpt lat="45.24299" lon="1.92093">
        <ele>532.2</ele>
        <time>2012-08-29T14:36:37Z</time>
      </trkpt>
      <trkpt lat="45.243" lon="1.92087">
        <ele>531.8</ele>
        <time>2012-08-29T14:36:38Z</time>
      </trkpt>
      <trkpt lat="45.24302" lon="1.92081">
        <ele>531.3</ele>
        <time>2012-08-29T14:36:39Z</time>
      </trkpt>
      <trkpt lat="45.24306" lon="1.92075">
        <ele>531.3</ele>
        <time>2012-08-29T14:36:40Z</time>
      </trkpt>
      <trkpt lat="45.2431" lon="1.92068">
        <ele>531.8</ele>
        <time>2012-08-29T14:36:41Z</time>
      </trkpt>
      <trkpt lat="45.24325" lon="1.92043">
        <ele>530.3</ele>
        <time>2012-08-29T14:36:44Z</time>
      </trkpt>
      <trkpt lat="45.24329" lon="1.92033">
        <ele>529.8</ele>
        <time>2012-08-29T14:36:45Z</time>
      </trkpt>
      <trkpt lat="45.24335" lon="1.92016">
        <ele>529.8</ele>
        <time>2012-08-29T14:36:47Z</time>
      </trkpt>
      <trkpt lat="45.24335" lon="1.92009">
        <ele>530.3</ele>
        <time>2012-08-29T14:36:48Z</time>
      </trkpt>
      <trkpt lat="45.24334" lon="1.92003">
        <ele>530.8</ele>
        <time>2012-08-29T14:36:49Z</time>
      </trkpt>
      <trkpt lat="45.24334" lon="1.91997">
        <ele>531.3</ele>
        <time>2012-08-29T14:36:50Z</time>
      </trkpt>
      <trkpt lat="45.2433" lon="1.91992">
        <ele>531.3</ele>
        <time>2012-08-29T14:36:51Z</time>
      </trkpt>
      <trkpt lat="45.24324" lon="1.91988">
        <ele>532.2</ele>
        <time>2012-08-29T14:36:52Z</time>
      </trkpt>
      <trkpt lat="45.24318" lon="1.91985">
        <ele>532.2</ele>
        <time>2012-08-29T14:36:53Z</time>
      </trkpt>
      <trkpt lat="45.24285" lon="1.91972">
        <ele>534.6</ele>
        <time>2012-08-29T14:36:58Z</time>
      </trkpt>
      <trkpt lat="45.24279" lon="1.91969">
        <ele>535.1</ele>
        <time>2012-08-29T14:36:59Z</time>
      </trkpt>
      <trkpt lat="45.24274" lon="1.91965">
        <ele>535.6</ele>
        <time>2012-08-29T14:37:00Z</time>
      </trkpt>
      <trkpt lat="45.2427" lon="1.9196">
        <ele>536.1</ele>
        <time>2012-08-29T14:37:01Z</time>
      </trkpt>
      <trkpt lat="45.24268" lon="1.91954">
        <ele>536.5</ele>
        <time>2012-08-29T14:37:02Z</time>
      </trkpt>
      <trkpt lat="45.24266" lon="1.91947">
        <ele>537</ele>
        <time>2012-08-29T14:37:03Z</time>
      </trkpt>
      <trkpt lat="45.24265" lon="1.91941">
        <ele>537</ele>
        <time>2012-08-29T14:37:04Z</time>
      </trkpt>
      <trkpt lat="45.24266" lon="1.91936">
        <ele>536.5</ele>
        <time>2012-08-29T14:37:05Z</time>
      </trkpt>
      <trkpt lat="45.24267" lon="1.91933">
        <ele>537</ele>
        <time>2012-08-29T14:37:06Z</time>
      </trkpt>
      <trkpt lat="45.24268" lon="1.9193">
        <ele>537</ele>
        <time>2012-08-29T14:37:07Z</time>
      </trkpt>
      <trkpt lat="45.24269" lon="1.91928">
        <ele>537</ele>
        <time>2012-08-29T14:37:08Z</time>
      </trkpt>
      <trkpt lat="45.24271" lon="1.91924">
        <ele>537.5</ele>
        <time>2012-08-29T14:37:12Z</time>
      </trkpt>
      <trkpt lat="45.24272" lon="1.91922">
        <ele>537.5</ele>
        <time>2012-08-29T14:37:13Z</time>
      </trkpt>
      <trkpt lat="45.24278" lon="1.91906">
        <ele>538</ele>
        <time>2012-08-29T14:37:19Z</time>
      </trkpt>
      <trkpt lat="45.24279" lon="1.91898">
        <ele>539</ele>
        <time>2012-08-29T14:37:27Z</time>
      </trkpt>
      <trkpt lat="45.24294" lon="1.91867">
        <ele>540.4</ele>
        <time>2012-08-29T14:37:34Z</time>
      </trkpt>
      <trkpt lat="45.24296" lon="1.91862">
        <ele>539.9</ele>
        <time>2012-08-29T14:37:35Z</time>
      </trkpt>
      <trkpt lat="45.24298" lon="1.91857">
        <ele>539.9</ele>
        <time>2012-08-29T14:37:36Z</time>
      </trkpt>
      <trkpt lat="45.24314" lon="1.91801">
        <ele>539.4</ele>
        <time>2012-08-29T14:37:45Z</time>
      </trkpt>
      <trkpt lat="45.24318" lon="1.91789">
        <ele>539.9</ele>
        <time>2012-08-29T14:37:47Z</time>
      </trkpt>
      <trkpt lat="45.2432" lon="1.91784">
        <ele>539.9</ele>
        <time>2012-08-29T14:37:48Z</time>
      </trkpt>
      <trkpt lat="45.24338" lon="1.9176">
        <ele>539.4</ele>
        <time>2012-08-29T14:37:55Z</time>
      </trkpt>
      <trkpt lat="45.24355" lon="1.91748">
        <ele>538</ele>
        <time>2012-08-29T14:38:02Z</time>
      </trkpt>
      <trkpt lat="45.24373" lon="1.91745">
        <ele>537</ele>
        <time>2012-08-29T14:38:08Z</time>
      </trkpt>
      <trkpt lat="45.24387" lon="1.91734">
        <ele>537.5</ele>
        <time>2012-08-29T14:38:13Z</time>
      </trkpt>
      <trkpt lat="45.24401" lon="1.91722">
        <ele>537</ele>
        <time>2012-08-29T14:38:20Z</time>
      </trkpt>
      <trkpt lat="45.24412" lon="1.91711">
        <ele>537.5</ele>
        <time>2012-08-29T14:38:26Z</time>
      </trkpt>
      <trkpt lat="45.24426" lon="1.91701">
        <ele>537.5</ele>
        <time>2012-08-29T14:38:33Z</time>
      </trkpt>
      <trkpt lat="45.2444" lon="1.91689">
        <ele>538</ele>
        <time>2012-08-29T14:38:40Z</time>
      </trkpt>
      <trkpt lat="45.24457" lon="1.91667">
        <ele>537.5</ele>
        <time>2012-08-29T14:38:48Z</time>
      </trkpt>
      <trkpt lat="45.24472" lon="1.91638">
        <ele>537.5</ele>
        <time>2012-08-29T14:38:56Z</time>
      </trkpt>
      <trkpt lat="45.24487" lon="1.91614">
        <ele>537</ele>
        <time>2012-08-29T14:39:02Z</time>
      </trkpt>
      <trkpt lat="45.24495" lon="1.916">
        <ele>537</ele>
        <time>2012-08-29T14:39:08Z</time>
      </trkpt>
      <trkpt lat="45.24508" lon="1.9157">
        <ele>536.5</ele>
        <time>2012-08-29T14:39:17Z</time>
      </trkpt>
      <trkpt lat="45.24522" lon="1.91534">
        <ele>538</ele>
        <time>2012-08-29T14:39:27Z</time>
      </trkpt>
      <trkpt lat="45.24537" lon="1.91505">
        <ele>538</ele>
        <time>2012-08-29T14:39:36Z</time>
      </trkpt>
      <trkpt lat="45.24555" lon="1.91471">
        <ele>538.5</ele>
        <time>2012-08-29T14:39:48Z</time>
      </trkpt>
      <trkpt lat="45.24569" lon="1.91436">
        <ele>538.5</ele>
        <time>2012-08-29T14:39:57Z</time>
      </trkpt>
      <trkpt lat="45.24579" lon="1.91401">
        <ele>538.5</ele>
        <time>2012-08-29T14:40:05Z</time>
      </trkpt>
      <trkpt lat="45.24589" lon="1.91358">
        <ele>539</ele>
        <time>2012-08-29T14:40:14Z</time>
      </trkpt>
      <trkpt lat="45.24592" lon="1.91326">
        <ele>538.5</ele>
        <time>2012-08-29T14:40:21Z</time>
      </trkpt>
      <trkpt lat="45.24597" lon="1.91315">
        <ele>537.5</ele>
        <time>2012-08-29T14:40:27Z</time>
      </trkpt>
      <trkpt lat="45.24599" lon="1.91316">
        <ele>537.5</ele>
        <time>2012-08-29T14:40:28Z</time>
      </trkpt>
      <trkpt lat="45.24604" lon="1.91321">
        <ele>537.5</ele>
        <time>2012-08-29T14:40:31Z</time>
      </trkpt>
      <trkpt lat="45.24619" lon="1.91328">
        <ele>536.5</ele>
        <time>2012-08-29T14:40:40Z</time>
      </trkpt>
      <trkpt lat="45.24628" lon="1.91334">
        <ele>537</ele>
        <time>2012-08-29T14:40:49Z</time>
      </trkpt>
      <trkpt lat="45.24637" lon="1.91363">
        <ele>538</ele>
        <time>2012-08-29T14:40:58Z</time>
      </trkpt>
      <trkpt lat="45.24645" lon="1.91427">
        <ele>539.4</ele>
        <time>2012-08-29T14:41:09Z</time>
      </trkpt>
      <trkpt lat="45.24655" lon="1.91508">
        <ele>539.4</ele>
        <time>2012-08-29T14:41:22Z</time>
      </trkpt>
      <trkpt lat="45.24664" lon="1.91563">
        <ele>540.4</ele>
        <time>2012-08-29T14:41:32Z</time>
      </trkpt>
      <trkpt lat="45.24671" lon="1.91621">
        <ele>541.4</ele>
        <time>2012-08-29T14:41:42Z</time>
      </trkpt>
      <trkpt lat="45.24675" lon="1.91672">
        <ele>542.3</ele>
        <time>2012-08-29T14:41:50Z</time>
      </trkpt>
      <trkpt lat="45.24682" lon="1.91699">
        <ele>539</ele>
        <time>2012-08-29T14:41:54Z</time>
      </trkpt>
      <trkpt lat="45.24684" lon="1.91706">
        <ele>543.3</ele>
        <time>2012-08-29T14:41:55Z</time>
      </trkpt>
      <trkpt lat="45.24701" lon="1.91759">
        <ele>541.4</ele>
        <time>2012-08-29T14:42:04Z</time>
      </trkpt>
      <trkpt lat="45.24711" lon="1.91808">
        <ele>541.4</ele>
        <time>2012-08-29T14:42:12Z</time>
      </trkpt>
      <trkpt lat="45.24724" lon="1.91859">
        <ele>542.8</ele>
        <time>2012-08-29T14:42:22Z</time>
      </trkpt>
      <trkpt lat="45.24739" lon="1.91897">
        <ele>543.8</ele>
        <time>2012-08-29T14:42:29Z</time>
      </trkpt>
      <trkpt lat="45.24742" lon="1.91904">
        <ele>544.2</ele>
        <time>2012-08-29T14:42:30Z</time>
      </trkpt>
      <trkpt lat="45.2476" lon="1.91953">
        <ele>545.2</ele>
        <time>2012-08-29T14:42:39Z</time>
      </trkpt>
      <trkpt lat="45.24761" lon="1.91967">
        <ele>545.2</ele>
        <time>2012-08-29T14:42:46Z</time>
      </trkpt>
      <trkpt lat="45.24765" lon="1.91982">
        <ele>545.7</ele>
        <time>2012-08-29T14:42:53Z</time>
      </trkpt>
      <trkpt lat="45.24778" lon="1.92014">
        <ele>546.7</ele>
        <time>2012-08-29T14:43:03Z</time>
      </trkpt>
      <trkpt lat="45.24794" lon="1.9205">
        <ele>546.2</ele>
        <time>2012-08-29T14:43:13Z</time>
      </trkpt>
      <trkpt lat="45.2481" lon="1.92091">
        <ele>546.2</ele>
        <time>2012-08-29T14:43:22Z</time>
      </trkpt>
      <trkpt lat="45.24819" lon="1.92134">
        <ele>546.2</ele>
        <time>2012-08-29T14:43:30Z</time>
      </trkpt>
      <trkpt lat="45.24823" lon="1.92162">
        <ele>546.2</ele>
        <time>2012-08-29T14:43:38Z</time>
      </trkpt>
      <trkpt lat="45.24826" lon="1.92173">
        <ele>545.7</ele>
        <time>2012-08-29T14:43:46Z</time>
      </trkpt>
      <trkpt lat="45.24836" lon="1.92193">
        <ele>546.2</ele>
        <time>2012-08-29T14:43:58Z</time>
      </trkpt>
      <trkpt lat="45.24845" lon="1.92217">
        <ele>546.2</ele>
        <time>2012-08-29T14:44:08Z</time>
      </trkpt>
      <trkpt lat="45.24851" lon="1.92232">
        <ele>546.7</ele>
        <time>2012-08-29T14:44:18Z</time>
      </trkpt>
      <trkpt lat="45.24855" lon="1.92246">
        <ele>546.7</ele>
        <time>2012-08-29T14:44:27Z</time>
      </trkpt>
      <trkpt lat="45.24865" lon="1.9227">
        <ele>547.1</ele>
        <time>2012-08-29T14:44:37Z</time>
      </trkpt>
      <trkpt lat="45.24876" lon="1.92293">
        <ele>548.1</ele>
        <time>2012-08-29T14:44:45Z</time>
      </trkpt>
      <trkpt lat="45.24883" lon="1.92307">
        <ele>548.6</ele>
        <time>2012-08-29T14:44:52Z</time>
      </trkpt>
      <trkpt lat="45.249" lon="1.92338">
        <ele>548.6</ele>
        <time>2012-08-29T14:45:00Z</time>
      </trkpt>
      <trkpt lat="45.24911" lon="1.92359">
        <ele>549</ele>
        <time>2012-08-29T14:45:07Z</time>
      </trkpt>
      <trkpt lat="45.24913" lon="1.92369">
        <ele>548.6</ele>
        <time>2012-08-29T14:45:13Z</time>
      </trkpt>
      <trkpt lat="45.24928" lon="1.92384">
        <ele>550</ele>
        <time>2012-08-29T14:45:17Z</time>
      </trkpt>
      <trkpt lat="45.24957" lon="1.92406">
        <ele>553.4</ele>
        <time>2012-08-29T14:45:21Z</time>
      </trkpt>
      <trkpt lat="45.24985" lon="1.92428">
        <ele>556.3</ele>
        <time>2012-08-29T14:45:24Z</time>
      </trkpt>
      <trkpt lat="45.2506" lon="1.92485">
        <ele>554.8</ele>
        <time>2012-08-29T14:45:31Z</time>
      </trkpt>
      <trkpt lat="45.25133" lon="1.9254">
        <ele>552.4</ele>
        <time>2012-08-29T14:45:37Z</time>
      </trkpt>
      <trkpt lat="45.25142" lon="1.92547">
        <ele>552.4</ele>
        <time>2012-08-29T14:45:38Z</time>
      </trkpt>
      <trkpt lat="45.25186" lon="1.92582">
        <ele>550</ele>
        <time>2012-08-29T14:45:44Z</time>
      </trkpt>
      <trkpt lat="45.25197" lon="1.92588">
        <ele>551</ele>
        <time>2012-08-29T14:45:48Z</time>
      </trkpt>
      <trkpt lat="45.25204" lon="1.92591">
        <ele>551</ele>
        <time>2012-08-29T14:45:50Z</time>
      </trkpt>
      <trkpt lat="45.25236" lon="1.92613">
        <ele>553.4</ele>
        <time>2012-08-29T14:45:57Z</time>
      </trkpt>
      <trkpt lat="45.25276" lon="1.92648">
        <ele>556.7</ele>
        <time>2012-08-29T14:46:04Z</time>
      </trkpt>
      <trkpt lat="45.25283" lon="1.92653">
        <ele>556.7</ele>
        <time>2012-08-29T14:46:05Z</time>
      </trkpt>
      <trkpt lat="45.25346" lon="1.92704">
        <ele>558.2</ele>
        <time>2012-08-29T14:46:12Z</time>
      </trkpt>
      <trkpt lat="45.25369" lon="1.92722">
        <ele>559.6</ele>
        <time>2012-08-29T14:46:14Z</time>
      </trkpt>
      <trkpt lat="45.25427" lon="1.92767">
        <ele>560.6</ele>
        <time>2012-08-29T14:46:19Z</time>
      </trkpt>
      <trkpt lat="45.25488" lon="1.9282">
        <ele>560.1</ele>
        <time>2012-08-29T14:46:26Z</time>
      </trkpt>
      <trkpt lat="45.25549" lon="1.92885">
        <ele>560.1</ele>
        <time>2012-08-29T14:46:34Z</time>
      </trkpt>
      <trkpt lat="45.25601" lon="1.92939">
        <ele>559.6</ele>
        <time>2012-08-29T14:46:42Z</time>
      </trkpt>
      <trkpt lat="45.25646" lon="1.92986">
        <ele>559.6</ele>
        <time>2012-08-29T14:46:49Z</time>
      </trkpt>
      <trkpt lat="45.25686" lon="1.93033">
        <ele>560.6</ele>
        <time>2012-08-29T14:46:56Z</time>
      </trkpt>
      <trkpt lat="45.25694" lon="1.93041">
        <ele>560.6</ele>
        <time>2012-08-29T14:46:57Z</time>
      </trkpt>
      <trkpt lat="45.2575" lon="1.93104">
        <ele>561.1</ele>
        <time>2012-08-29T14:47:04Z</time>
      </trkpt>
      <trkpt lat="45.25804" lon="1.93171">
        <ele>558.2</ele>
        <time>2012-08-29T14:47:11Z</time>
      </trkpt>
      <trkpt lat="45.2581" lon="1.93177">
        <ele>558.2</ele>
        <time>2012-08-29T14:47:12Z</time>
      </trkpt>
      <trkpt lat="45.25833" lon="1.93198">
        <ele>557.7</ele>
        <time>2012-08-29T14:47:17Z</time>
      </trkpt>
      <trkpt lat="45.25861" lon="1.93228">
        <ele>557.2</ele>
        <time>2012-08-29T14:47:25Z</time>
      </trkpt>
      <trkpt lat="45.25882" lon="1.93245">
        <ele>557.2</ele>
        <time>2012-08-29T14:47:31Z</time>
      </trkpt>
      <trkpt lat="45.25919" lon="1.93277">
        <ele>557.2</ele>
        <time>2012-08-29T14:47:38Z</time>
      </trkpt>
      <trkpt lat="45.25969" lon="1.93312">
        <ele>557.2</ele>
        <time>2012-08-29T14:47:47Z</time>
      </trkpt>
      <trkpt lat="45.26017" lon="1.93347">
        <ele>557.7</ele>
        <time>2012-08-29T14:47:55Z</time>
      </trkpt>
      <trkpt lat="45.26058" lon="1.93375">
        <ele>557.2</ele>
        <time>2012-08-29T14:48:03Z</time>
      </trkpt>
      <trkpt lat="45.26094" lon="1.93395">
        <ele>558.2</ele>
        <time>2012-08-29T14:48:10Z</time>
      </trkpt>
      <trkpt lat="45.26133" lon="1.9342">
        <ele>559.6</ele>
        <time>2012-08-29T14:48:15Z</time>
      </trkpt>
      <trkpt lat="45.26199" lon="1.93458">
        <ele>559.6</ele>
        <time>2012-08-29T14:48:23Z</time>
      </trkpt>
      <trkpt lat="45.2624" lon="1.9349">
        <ele>558.2</ele>
        <time>2012-08-29T14:48:29Z</time>
      </trkpt>
      <trkpt lat="45.26296" lon="1.93526">
        <ele>558.7</ele>
        <time>2012-08-29T14:48:37Z</time>
      </trkpt>
      <trkpt lat="45.2634" lon="1.93562">
        <ele>555.3</ele>
        <time>2012-08-29T14:48:43Z</time>
      </trkpt>
      <trkpt lat="45.26353" lon="1.93573">
        <ele>555.3</ele>
        <time>2012-08-29T14:48:45Z</time>
      </trkpt>
      <trkpt lat="45.26379" lon="1.93603">
        <ele>556.3</ele>
        <time>2012-08-29T14:48:51Z</time>
      </trkpt>
      <trkpt lat="45.26381" lon="1.9361">
        <ele>556.7</ele>
        <time>2012-08-29T14:48:52Z</time>
      </trkpt>
      <trkpt lat="45.26384" lon="1.93631">
        <ele>556.7</ele>
        <time>2012-08-29T14:48:55Z</time>
      </trkpt>
      <trkpt lat="45.26382" lon="1.93638">
        <ele>556.3</ele>
        <time>2012-08-29T14:48:56Z</time>
      </trkpt>
      <trkpt lat="45.26379" lon="1.93645">
        <ele>556.3</ele>
        <time>2012-08-29T14:48:57Z</time>
      </trkpt>
      <trkpt lat="45.26375" lon="1.93691">
        <ele>557.7</ele>
        <time>2012-08-29T14:49:03Z</time>
      </trkpt>
      <trkpt lat="45.26387" lon="1.93759">
        <ele>559.1</ele>
        <time>2012-08-29T14:49:11Z</time>
      </trkpt>
      <trkpt lat="45.26401" lon="1.93847">
        <ele>560.1</ele>
        <time>2012-08-29T14:49:19Z</time>
      </trkpt>
      <trkpt lat="45.2642" lon="1.93939">
        <ele>561.1</ele>
        <time>2012-08-29T14:49:28Z</time>
      </trkpt>
      <trkpt lat="45.26426" lon="1.93971">
        <ele>560.6</ele>
        <time>2012-08-29T14:49:32Z</time>
      </trkpt>
      <trkpt lat="45.26429" lon="1.93978">
        <ele>559.6</ele>
        <time>2012-08-29T14:49:33Z</time>
      </trkpt>
      <trkpt lat="45.26431" lon="1.93985">
        <ele>559.6</ele>
        <time>2012-08-29T14:49:34Z</time>
      </trkpt>
      <trkpt lat="45.26461" lon="1.94043">
        <ele>560.6</ele>
        <time>2012-08-29T14:49:42Z</time>
      </trkpt>
      <trkpt lat="45.26497" lon="1.94098">
        <ele>558.7</ele>
        <time>2012-08-29T14:49:50Z</time>
      </trkpt>
      <trkpt lat="45.26529" lon="1.94143">
        <ele>558.2</ele>
        <time>2012-08-29T14:49:57Z</time>
      </trkpt>
      <trkpt lat="45.26575" lon="1.94201">
        <ele>557.7</ele>
        <time>2012-08-29T14:50:06Z</time>
      </trkpt>
      <trkpt lat="45.26611" lon="1.9426">
        <ele>555.3</ele>
        <time>2012-08-29T14:50:14Z</time>
      </trkpt>
      <trkpt lat="45.26627" lon="1.94321">
        <ele>554.8</ele>
        <time>2012-08-29T14:50:21Z</time>
      </trkpt>
      <trkpt lat="45.26636" lon="1.94391">
        <ele>552.9</ele>
        <time>2012-08-29T14:50:28Z</time>
      </trkpt>
      <trkpt lat="45.26638" lon="1.94414">
        <ele>552.9</ele>
        <time>2012-08-29T14:50:31Z</time>
      </trkpt>
      <trkpt lat="45.26647" lon="1.94465">
        <ele>553.4</ele>
        <time>2012-08-29T14:50:37Z</time>
      </trkpt>
      <trkpt lat="45.26652" lon="1.94538">
        <ele>552.9</ele>
        <time>2012-08-29T14:50:44Z</time>
      </trkpt>
      <trkpt lat="45.26666" lon="1.94634">
        <ele>550</ele>
        <time>2012-08-29T14:50:53Z</time>
      </trkpt>
      <trkpt lat="45.26669" lon="1.94656">
        <ele>549</ele>
        <time>2012-08-29T14:50:55Z</time>
      </trkpt>
      <trkpt lat="45.26674" lon="1.94733">
        <ele>547.1</ele>
        <time>2012-08-29T14:51:02Z</time>
      </trkpt>
      <trkpt lat="45.26675" lon="1.94752">
        <ele>546.2</ele>
        <time>2012-08-29T14:51:04Z</time>
      </trkpt>
      <trkpt lat="45.26677" lon="1.94761">
        <ele>545.7</ele>
        <time>2012-08-29T14:51:05Z</time>
      </trkpt>
      <trkpt lat="45.26679" lon="1.94769">
        <ele>544.7</ele>
        <time>2012-08-29T14:51:06Z</time>
      </trkpt>
      <trkpt lat="45.26681" lon="1.94777">
        <ele>543.8</ele>
        <time>2012-08-29T14:51:07Z</time>
      </trkpt>
      <trkpt lat="45.26684" lon="1.94784">
        <ele>543.3</ele>
        <time>2012-08-29T14:51:08Z</time>
      </trkpt>
      <trkpt lat="45.26688" lon="1.9479">
        <ele>542.8</ele>
        <time>2012-08-29T14:51:09Z</time>
      </trkpt>
      <trkpt lat="45.26693" lon="1.94796">
        <ele>542.3</ele>
        <time>2012-08-29T14:51:10Z</time>
      </trkpt>
      <trkpt lat="45.26699" lon="1.948">
        <ele>541.4</ele>
        <time>2012-08-29T14:51:11Z</time>
      </trkpt>
      <trkpt lat="45.26705" lon="1.94805">
        <ele>540.4</ele>
        <time>2012-08-29T14:51:12Z</time>
      </trkpt>
      <trkpt lat="45.26725" lon="1.9482">
        <ele>538</ele>
        <time>2012-08-29T14:51:15Z</time>
      </trkpt>
      <trkpt lat="45.26731" lon="1.94826">
        <ele>536.5</ele>
        <time>2012-08-29T14:51:16Z</time>
      </trkpt>
      <trkpt lat="45.26737" lon="1.94833">
        <ele>536.5</ele>
        <time>2012-08-29T14:51:17Z</time>
      </trkpt>
      <trkpt lat="45.26751" lon="1.94856">
        <ele>534.2</ele>
        <time>2012-08-29T14:51:20Z</time>
      </trkpt>
      <trkpt lat="45.26756" lon="1.94866">
        <ele>534.2</ele>
        <time>2012-08-29T14:51:21Z</time>
      </trkpt>
      <trkpt lat="45.26759" lon="1.94876">
        <ele>532.7</ele>
        <time>2012-08-29T14:51:22Z</time>
      </trkpt>
      <trkpt lat="45.26762" lon="1.94887">
        <ele>531.8</ele>
        <time>2012-08-29T14:51:23Z</time>
      </trkpt>
      <trkpt lat="45.26765" lon="1.94899">
        <ele>530.8</ele>
        <time>2012-08-29T14:51:24Z</time>
      </trkpt>
      <trkpt lat="45.26767" lon="1.94911">
        <ele>529.8</ele>
        <time>2012-08-29T14:51:25Z</time>
      </trkpt>
      <trkpt lat="45.26774" lon="1.94958">
        <ele>528.4</ele>
        <time>2012-08-29T14:51:29Z</time>
      </trkpt>
      <trkpt lat="45.2678" lon="1.95018">
        <ele>527.9</ele>
        <time>2012-08-29T14:51:34Z</time>
      </trkpt>
      <trkpt lat="45.2678" lon="1.95041">
        <ele>526.9</ele>
        <time>2012-08-29T14:51:36Z</time>
      </trkpt>
      <trkpt lat="45.26779" lon="1.95051">
        <ele>526</ele>
        <time>2012-08-29T14:51:37Z</time>
      </trkpt>
      <trkpt lat="45.26763" lon="1.95119">
        <ele>525</ele>
        <time>2012-08-29T14:51:44Z</time>
      </trkpt>
      <trkpt lat="45.26759" lon="1.95127">
        <ele>524.1</ele>
        <time>2012-08-29T14:51:45Z</time>
      </trkpt>
      <trkpt lat="45.26755" lon="1.95133">
        <ele>524.1</ele>
        <time>2012-08-29T14:51:46Z</time>
      </trkpt>
      <trkpt lat="45.26751" lon="1.95138">
        <ele>524.1</ele>
        <time>2012-08-29T14:51:47Z</time>
      </trkpt>
      <trkpt lat="45.26746" lon="1.95144">
        <ele>523.6</ele>
        <time>2012-08-29T14:51:48Z</time>
      </trkpt>
      <trkpt lat="45.26734" lon="1.9516">
        <ele>524.1</ele>
        <time>2012-08-29T14:51:51Z</time>
      </trkpt>
      <trkpt lat="45.26731" lon="1.95166">
        <ele>524.1</ele>
        <time>2012-08-29T14:51:52Z</time>
      </trkpt>
      <trkpt lat="45.26728" lon="1.95172">
        <ele>524.1</ele>
        <time>2012-08-29T14:51:53Z</time>
      </trkpt>
      <trkpt lat="45.26726" lon="1.95178">
        <ele>523.6</ele>
        <time>2012-08-29T14:51:54Z</time>
      </trkpt>
      <trkpt lat="45.26725" lon="1.95185">
        <ele>523.6</ele>
        <time>2012-08-29T14:51:55Z</time>
      </trkpt>
      <trkpt lat="45.26724" lon="1.95191">
        <ele>523.6</ele>
        <time>2012-08-29T14:51:56Z</time>
      </trkpt>
      <trkpt lat="45.26724" lon="1.95199">
        <ele>523.6</ele>
        <time>2012-08-29T14:51:57Z</time>
      </trkpt>
      <trkpt lat="45.26725" lon="1.95206">
        <ele>524.1</ele>
        <time>2012-08-29T14:51:58Z</time>
      </trkpt>
      <trkpt lat="45.26726" lon="1.95213">
        <ele>524.1</ele>
        <time>2012-08-29T14:51:59Z</time>
      </trkpt>
      <trkpt lat="45.26727" lon="1.95219">
        <ele>524.5</ele>
        <time>2012-08-29T14:52:00Z</time>
      </trkpt>
      <trkpt lat="45.26728" lon="1.95226">
        <ele>524.1</ele>
        <time>2012-08-29T14:52:01Z</time>
      </trkpt>
      <trkpt lat="45.2673" lon="1.95233">
        <ele>525</ele>
        <time>2012-08-29T14:52:02Z</time>
      </trkpt>
      <trkpt lat="45.26749" lon="1.95305">
        <ele>526.9</ele>
        <time>2012-08-29T14:52:11Z</time>
      </trkpt>
      <trkpt lat="45.26764" lon="1.95364">
        <ele>530.3</ele>
        <time>2012-08-29T14:52:18Z</time>
      </trkpt>
      <trkpt lat="45.2677" lon="1.95394">
        <ele>534.2</ele>
        <time>2012-08-29T14:52:22Z</time>
      </trkpt>
      <trkpt lat="45.26775" lon="1.95425">
        <ele>536.1</ele>
        <time>2012-08-29T14:52:26Z</time>
      </trkpt>
      <trkpt lat="45.26778" lon="1.95433">
        <ele>536.5</ele>
        <time>2012-08-29T14:52:27Z</time>
      </trkpt>
      <trkpt lat="45.26782" lon="1.9544">
        <ele>536.1</ele>
        <time>2012-08-29T14:52:28Z</time>
      </trkpt>
      <trkpt lat="45.26801" lon="1.95477">
        <ele>539.9</ele>
        <time>2012-08-29T14:52:33Z</time>
      </trkpt>
      <trkpt lat="45.26803" lon="1.95485">
        <ele>539.9</ele>
        <time>2012-08-29T14:52:34Z</time>
      </trkpt>
      <trkpt lat="45.26803" lon="1.95493">
        <ele>540.9</ele>
        <time>2012-08-29T14:52:35Z</time>
      </trkpt>
      <trkpt lat="45.26803" lon="1.95503">
        <ele>541.4</ele>
        <time>2012-08-29T14:52:36Z</time>
      </trkpt>
      <trkpt lat="45.26805" lon="1.95511">
        <ele>540.9</ele>
        <time>2012-08-29T14:52:37Z</time>
      </trkpt>
      <trkpt lat="45.26807" lon="1.95519">
        <ele>541.8</ele>
        <time>2012-08-29T14:52:38Z</time>
      </trkpt>
      <trkpt lat="45.2681" lon="1.95527">
        <ele>542.3</ele>
        <time>2012-08-29T14:52:39Z</time>
      </trkpt>
      <trkpt lat="45.26814" lon="1.95533">
        <ele>542.3</ele>
        <time>2012-08-29T14:52:40Z</time>
      </trkpt>
      <trkpt lat="45.26818" lon="1.95538">
        <ele>542.3</ele>
        <time>2012-08-29T14:52:41Z</time>
      </trkpt>
      <trkpt lat="45.26823" lon="1.95542">
        <ele>542.8</ele>
        <time>2012-08-29T14:52:42Z</time>
      </trkpt>
      <trkpt lat="45.26827" lon="1.95545">
        <ele>542.8</ele>
        <time>2012-08-29T14:52:43Z</time>
      </trkpt>
      <trkpt lat="45.26836" lon="1.9555">
        <ele>543.3</ele>
        <time>2012-08-29T14:52:45Z</time>
      </trkpt>
      <trkpt lat="45.26839" lon="1.95554">
        <ele>543.8</ele>
        <time>2012-08-29T14:52:46Z</time>
      </trkpt>
      <trkpt lat="45.2684" lon="1.95559">
        <ele>544.2</ele>
        <time>2012-08-29T14:52:47Z</time>
      </trkpt>
      <trkpt lat="45.2684" lon="1.95564">
        <ele>543.8</ele>
        <time>2012-08-29T14:52:48Z</time>
      </trkpt>
      <trkpt lat="45.2684" lon="1.9557">
        <ele>543.3</ele>
        <time>2012-08-29T14:52:49Z</time>
      </trkpt>
      <trkpt lat="45.26842" lon="1.95576">
        <ele>542.8</ele>
        <time>2012-08-29T14:52:50Z</time>
      </trkpt>
      <trkpt lat="45.26845" lon="1.95582">
        <ele>542.3</ele>
        <time>2012-08-29T14:52:51Z</time>
      </trkpt>
      <trkpt lat="45.26849" lon="1.95588">
        <ele>541.8</ele>
        <time>2012-08-29T14:52:52Z</time>
      </trkpt>
      <trkpt lat="45.26856" lon="1.95603">
        <ele>541.8</ele>
        <time>2012-08-29T14:52:54Z</time>
      </trkpt>
      <trkpt lat="45.26858" lon="1.95611">
        <ele>541.8</ele>
        <time>2012-08-29T14:52:55Z</time>
      </trkpt>
      <trkpt lat="45.26859" lon="1.95621">
        <ele>541.8</ele>
        <time>2012-08-29T14:52:56Z</time>
      </trkpt>
      <trkpt lat="45.2686" lon="1.95631">
        <ele>542.3</ele>
        <time>2012-08-29T14:52:57Z</time>
      </trkpt>
      <trkpt lat="45.2686" lon="1.95643">
        <ele>541.8</ele>
        <time>2012-08-29T14:52:58Z</time>
      </trkpt>
      <trkpt lat="45.26859" lon="1.95654">
        <ele>540.9</ele>
        <time>2012-08-29T14:52:59Z</time>
      </trkpt>
      <trkpt lat="45.26858" lon="1.95666">
        <ele>541.4</ele>
        <time>2012-08-29T14:53:00Z</time>
      </trkpt>
      <trkpt lat="45.26852" lon="1.95701">
        <ele>541.4</ele>
        <time>2012-08-29T14:53:03Z</time>
      </trkpt>
      <trkpt lat="45.26849" lon="1.95711">
        <ele>541.4</ele>
        <time>2012-08-29T14:53:04Z</time>
      </trkpt>
      <trkpt lat="45.26845" lon="1.9572">
        <ele>541.4</ele>
        <time>2012-08-29T14:53:05Z</time>
      </trkpt>
      <trkpt lat="45.26829" lon="1.9576">
        <ele>538.5</ele>
        <time>2012-08-29T14:53:10Z</time>
      </trkpt>
      <trkpt lat="45.26827" lon="1.95763">
        <ele>538.5</ele>
        <time>2012-08-29T14:53:11Z</time>
      </trkpt>
      <trkpt lat="45.26825" lon="1.95765">
        <ele>537.5</ele>
        <time>2012-08-29T14:53:12Z</time>
      </trkpt>
      <trkpt lat="45.26824" lon="1.95766">
        <ele>538.5</ele>
        <time>2012-08-29T14:53:18Z</time>
      </trkpt>
      <trkpt lat="45.26824" lon="1.95766">
        <ele>534.2</ele>
        <time>2012-08-29T14:53:19Z</time>
      </trkpt>
      <trkpt lat="45.26824" lon="1.95767">
        <ele>539.9</ele>
        <time>2012-08-29T14:53:20Z</time>
      </trkpt>
      <trkpt lat="45.26825" lon="1.95768">
        <ele>538</ele>
        <time>2012-08-29T14:53:21Z</time>
      </trkpt>
      <trkpt lat="45.26825" lon="1.95771">
        <ele>537</ele>
        <time>2012-08-29T14:53:28Z</time>
      </trkpt>
      <trkpt lat="45.26825" lon="1.95771">
        <ele>534.2</ele>
        <time>2012-08-29T14:53:31Z</time>
      </trkpt>
      <trkpt lat="45.26825" lon="1.95771">
        <ele>537</ele>
        <time>2012-08-29T14:53:32Z</time>
      </trkpt>
      <trkpt lat="45.26825" lon="1.95771">
        <ele>529.3</ele>
        <time>2012-08-29T14:53:44Z</time>
      </trkpt>
      <trkpt lat="45.26823" lon="1.95766">
        <ele>493.8</ele>
        <time>2012-08-30T08:14:50Z</time>
      </trkpt>
      <trkpt lat="45.26823" lon="1.95766">
        <ele>496.2</ele>
        <time>2012-08-30T08:14:51Z</time>
      </trkpt>
      <trkpt lat="45.26823" lon="1.95767">
        <ele>493.3</ele>
        <time>2012-08-30T08:14:52Z</time>
      </trkpt>
      <trkpt lat="45.26822" lon="1.95767">
        <ele>493.8</ele>
        <time>2012-08-30T08:15:09Z</time>
      </trkpt>
      <trkpt lat="45.26818" lon="1.95764">
        <ele>499.1</ele>
        <time>2012-08-30T08:15:12Z</time>
      </trkpt>
      <trkpt lat="45.26811" lon="1.95762">
        <ele>502.9</ele>
        <time>2012-08-30T08:15:14Z</time>
      </trkpt>
      <trkpt lat="45.26805" lon="1.95763">
        <ele>503.4</ele>
        <time>2012-08-30T08:15:15Z</time>
      </trkpt>
      <trkpt lat="45.26801" lon="1.95763">
        <ele>505.3</ele>
        <time>2012-08-30T08:15:16Z</time>
      </trkpt>
      <trkpt lat="45.26797" lon="1.95764">
        <ele>507.2</ele>
        <time>2012-08-30T08:15:17Z</time>
      </trkpt>
      <trkpt lat="45.26788" lon="1.95766">
        <ele>510.6</ele>
        <time>2012-08-30T08:15:19Z</time>
      </trkpt>
      <trkpt lat="45.26769" lon="1.9577">
        <ele>513</ele>
        <time>2012-08-30T08:15:22Z</time>
      </trkpt>
      <trkpt lat="45.26763" lon="1.9577">
        <ele>514</ele>
        <time>2012-08-30T08:15:23Z</time>
      </trkpt>
      <trkpt lat="45.26749" lon="1.95768">
        <ele>514.9</ele>
        <time>2012-08-30T08:15:25Z</time>
      </trkpt>
      <trkpt lat="45.26696" lon="1.95759">
        <ele>518.3</ele>
        <time>2012-08-30T08:15:32Z</time>
      </trkpt>
      <trkpt lat="45.26659" lon="1.95748">
        <ele>520.7</ele>
        <time>2012-08-30T08:15:37Z</time>
      </trkpt>
      <trkpt lat="45.26653" lon="1.95744">
        <ele>520.7</ele>
        <time>2012-08-30T08:15:38Z</time>
      </trkpt>
      <trkpt lat="45.26619" lon="1.95722">
        <ele>520.7</ele>
        <time>2012-08-30T08:15:43Z</time>
      </trkpt>
      <trkpt lat="45.26613" lon="1.9572">
        <ele>519.7</ele>
        <time>2012-08-30T08:15:44Z</time>
      </trkpt>
      <trkpt lat="45.26606" lon="1.9572">
        <ele>519.7</ele>
        <time>2012-08-30T08:15:45Z</time>
      </trkpt>
      <trkpt lat="45.26599" lon="1.95721">
        <ele>518.8</ele>
        <time>2012-08-30T08:15:46Z</time>
      </trkpt>
      <trkpt lat="45.26591" lon="1.95724">
        <ele>519.2</ele>
        <time>2012-08-30T08:15:47Z</time>
      </trkpt>
      <trkpt lat="45.26582" lon="1.95727">
        <ele>518.3</ele>
        <time>2012-08-30T08:15:48Z</time>
      </trkpt>
      <trkpt lat="45.26527" lon="1.95756">
        <ele>517.8</ele>
        <time>2012-08-30T08:15:53Z</time>
      </trkpt>
      <trkpt lat="45.26463" lon="1.95795">
        <ele>518.3</ele>
        <time>2012-08-30T08:15:59Z</time>
      </trkpt>
      <trkpt lat="45.26453" lon="1.95797">
        <ele>518.8</ele>
        <time>2012-08-30T08:16:00Z</time>
      </trkpt>
      <trkpt lat="45.26444" lon="1.95797">
        <ele>520.7</ele>
        <time>2012-08-30T08:16:01Z</time>
      </trkpt>
      <trkpt lat="45.26434" lon="1.95795">
        <ele>522.1</ele>
        <time>2012-08-30T08:16:02Z</time>
      </trkpt>
      <trkpt lat="45.26426" lon="1.9579">
        <ele>522.6</ele>
        <time>2012-08-30T08:16:03Z</time>
      </trkpt>
      <trkpt lat="45.26418" lon="1.95785">
        <ele>523.1</ele>
        <time>2012-08-30T08:16:04Z</time>
      </trkpt>
      <trkpt lat="45.26397" lon="1.95766">
        <ele>525.5</ele>
        <time>2012-08-30T08:16:07Z</time>
      </trkpt>
      <trkpt lat="45.26391" lon="1.95757">
        <ele>525</ele>
        <time>2012-08-30T08:16:08Z</time>
      </trkpt>
      <trkpt lat="45.26363" lon="1.95705">
        <ele>526</ele>
        <time>2012-08-30T08:16:13Z</time>
      </trkpt>
      <trkpt lat="45.26361" lon="1.95693">
        <ele>526.5</ele>
        <time>2012-08-30T08:16:14Z</time>
      </trkpt>
      <trkpt lat="45.26346" lon="1.95655">
        <ele>526.5</ele>
        <time>2012-08-30T08:16:18Z</time>
      </trkpt>
      <trkpt lat="45.2634" lon="1.95647">
        <ele>526.5</ele>
        <time>2012-08-30T08:16:19Z</time>
      </trkpt>
      <trkpt lat="45.26315" lon="1.95618">
        <ele>526.9</ele>
        <time>2012-08-30T08:16:23Z</time>
      </trkpt>
      <trkpt lat="45.26311" lon="1.9561">
        <ele>527.4</ele>
        <time>2012-08-30T08:16:24Z</time>
      </trkpt>
      <trkpt lat="45.26307" lon="1.95601">
        <ele>526.5</ele>
        <time>2012-08-30T08:16:25Z</time>
      </trkpt>
      <trkpt lat="45.26305" lon="1.95592">
        <ele>526.5</ele>
        <time>2012-08-30T08:16:26Z</time>
      </trkpt>
      <trkpt lat="45.26304" lon="1.95582">
        <ele>526.5</ele>
        <time>2012-08-30T08:16:27Z</time>
      </trkpt>
      <trkpt lat="45.26302" lon="1.95572">
        <ele>526.9</ele>
        <time>2012-08-30T08:16:28Z</time>
      </trkpt>
      <trkpt lat="45.26301" lon="1.95553">
        <ele>527.9</ele>
        <time>2012-08-30T08:16:30Z</time>
      </trkpt>
      <trkpt lat="45.26297" lon="1.95544">
        <ele>529.3</ele>
        <time>2012-08-30T08:16:32Z</time>
      </trkpt>
      <trkpt lat="45.26296" lon="1.95512">
        <ele>530.8</ele>
        <time>2012-08-30T08:16:39Z</time>
      </trkpt>
      <trkpt lat="45.26297" lon="1.9551">
        <ele>531.3</ele>
        <time>2012-08-30T08:16:40Z</time>
      </trkpt>
      <trkpt lat="45.26299" lon="1.95508">
        <ele>530.8</ele>
        <time>2012-08-30T08:16:41Z</time>
      </trkpt>
      <trkpt lat="45.26302" lon="1.95506">
        <ele>531.3</ele>
        <time>2012-08-30T08:16:42Z</time>
      </trkpt>
      <trkpt lat="45.26307" lon="1.95506">
        <ele>531.8</ele>
        <time>2012-08-30T08:16:48Z</time>
      </trkpt>
      <trkpt lat="45.26307" lon="1.95506">
        <ele>530.3</ele>
        <time>2012-08-30T08:16:59Z</time>
      </trkpt>
      <trkpt lat="45.26307" lon="1.95506">
        <ele>530.3</ele>
        <time>2012-08-30T08:17:15Z</time>
      </trkpt>
      <trkpt lat="45.26308" lon="1.95506">
        <ele>530.3</ele>
        <time>2012-08-30T08:17:37Z</time>
      </trkpt>
      <trkpt lat="45.26308" lon="1.95506">
        <ele>530.8</ele>
        <time>2012-08-30T08:17:58Z</time>
      </trkpt>
      <trkpt lat="45.26308" lon="1.95506">
        <ele>530.3</ele>
        <time>2012-08-30T08:18:18Z</time>
      </trkpt>
      <trkpt lat="45.26308" lon="1.95506">
        <ele>530.8</ele>
        <time>2012-08-30T08:18:37Z</time>
      </trkpt>
      <trkpt lat="45.26309" lon="1.95506">
        <ele>530.8</ele>
        <time>2012-08-30T08:18:56Z</time>
      </trkpt>
      <trkpt lat="45.26309" lon="1.95506">
        <ele>530.8</ele>
        <time>2012-08-30T08:19:17Z</time>
      </trkpt>
      <trkpt lat="45.26309" lon="1.95506">
        <ele>530.3</ele>
        <time>2012-08-30T08:19:37Z</time>
      </trkpt>
      <trkpt lat="45.26309" lon="1.95506">
        <ele>531.3</ele>
        <time>2012-08-30T08:19:59Z</time>
      </trkpt>
      <trkpt lat="45.26309" lon="1.95506">
        <ele>530.8</ele>
        <time>2012-08-30T08:20:20Z</time>
      </trkpt>
      <trkpt lat="45.26309" lon="1.95506">
        <ele>531.8</ele>
        <time>2012-08-30T08:20:42Z</time>
      </trkpt>
      <trkpt lat="45.26309" lon="1.95507">
        <ele>531.8</ele>
        <time>2012-08-30T08:21:02Z</time>
      </trkpt>
      <trkpt lat="45.26309" lon="1.95507">
        <ele>531.8</ele>
        <time>2012-08-30T08:21:23Z</time>
      </trkpt>
      <trkpt lat="45.26309" lon="1.95507">
        <ele>531.8</ele>
        <time>2012-08-30T08:21:42Z</time>
      </trkpt>
      <trkpt lat="45.26309" lon="1.95507">
        <ele>531.3</ele>
        <time>2012-08-30T08:22:01Z</time>
      </trkpt>
      <trkpt lat="45.26309" lon="1.95507">
        <ele>531.8</ele>
        <time>2012-08-30T08:22:19Z</time>
      </trkpt>
      <trkpt lat="45.26309" lon="1.95507">
        <ele>531.8</ele>
        <time>2012-08-30T08:22:39Z</time>
      </trkpt>
      <trkpt lat="45.2631" lon="1.95507">
        <ele>531.3</ele>
        <time>2012-08-30T08:22:55Z</time>
      </trkpt>
      <trkpt lat="45.2631" lon="1.95507">
        <ele>532.2</ele>
        <time>2012-08-30T08:23:15Z</time>
      </trkpt>
      <trkpt lat="45.2631" lon="1.95507">
        <ele>532.2</ele>
        <time>2012-08-30T08:23:31Z</time>
      </trkpt>
      <trkpt lat="45.2631" lon="1.95507">
        <ele>531.8</ele>
        <time>2012-08-30T08:23:53Z</time>
      </trkpt>
      <trkpt lat="45.2631" lon="1.95506">
        <ele>532.2</ele>
        <time>2012-08-30T08:24:13Z</time>
      </trkpt>
      <trkpt lat="45.2631" lon="1.95506">
        <ele>532.2</ele>
        <time>2012-08-30T08:24:31Z</time>
      </trkpt>
      <trkpt lat="45.2631" lon="1.95505">
        <ele>532.2</ele>
        <time>2012-08-30T08:24:50Z</time>
      </trkpt>
      <trkpt lat="45.2631" lon="1.95505">
        <ele>532.7</ele>
        <time>2012-08-30T08:25:08Z</time>
      </trkpt>
      <trkpt lat="45.2631" lon="1.95505">
        <ele>532.2</ele>
        <time>2012-08-30T08:25:27Z</time>
      </trkpt>
      <trkpt lat="45.2631" lon="1.95505">
        <ele>532.2</ele>
        <time>2012-08-30T08:25:46Z</time>
      </trkpt>
      <trkpt lat="45.2631" lon="1.95505">
        <ele>532.2</ele>
        <time>2012-08-30T08:26:02Z</time>
      </trkpt>
      <trkpt lat="45.2631" lon="1.95504">
        <ele>532.2</ele>
        <time>2012-08-30T08:26:18Z</time>
      </trkpt>
      <trkpt lat="45.2631" lon="1.95504">
        <ele>532.7</ele>
        <time>2012-08-30T08:26:30Z</time>
      </trkpt>
      <trkpt lat="45.2631" lon="1.95504">
        <ele>532.2</ele>
        <time>2012-08-30T08:26:43Z</time>
      </trkpt>
      <trkpt lat="45.2631" lon="1.95504">
        <ele>532.2</ele>
        <time>2012-08-30T08:26:58Z</time>
      </trkpt>
      <trkpt lat="45.26306" lon="1.95505">
        <ele>533.2</ele>
        <time>2012-08-30T08:27:07Z</time>
      </trkpt>
      <trkpt lat="45.26305" lon="1.95509">
        <ele>533.2</ele>
        <time>2012-08-30T08:27:12Z</time>
      </trkpt>
      <trkpt lat="45.26305" lon="1.95512">
        <ele>532.7</ele>
        <time>2012-08-30T08:27:13Z</time>
      </trkpt>
      <trkpt lat="45.26305" lon="1.95514">
        <ele>532.2</ele>
        <time>2012-08-30T08:27:14Z</time>
      </trkpt>
      <trkpt lat="45.26305" lon="1.95517">
        <ele>532.7</ele>
        <time>2012-08-30T08:27:15Z</time>
      </trkpt>
      <trkpt lat="45.26307" lon="1.95529">
        <ele>531.3</ele>
        <time>2012-08-30T08:27:18Z</time>
      </trkpt>
      <trkpt lat="45.2631" lon="1.95542">
        <ele>530.3</ele>
        <time>2012-08-30T08:27:20Z</time>
      </trkpt>
      <trkpt lat="45.26314" lon="1.95557">
        <ele>530.3</ele>
        <time>2012-08-30T08:27:22Z</time>
      </trkpt>
      <trkpt lat="45.26316" lon="1.95565">
        <ele>529.3</ele>
        <time>2012-08-30T08:27:23Z</time>
      </trkpt>
      <trkpt lat="45.26319" lon="1.95599">
        <ele>528.4</ele>
        <time>2012-08-30T08:27:27Z</time>
      </trkpt>
      <trkpt lat="45.2632" lon="1.95606">
        <ele>528.9</ele>
        <time>2012-08-30T08:27:28Z</time>
      </trkpt>
      <trkpt lat="45.26322" lon="1.95612">
        <ele>529.3</ele>
        <time>2012-08-30T08:27:29Z</time>
      </trkpt>
      <trkpt lat="45.26324" lon="1.95618">
        <ele>528.9</ele>
        <time>2012-08-30T08:27:30Z</time>
      </trkpt>
      <trkpt lat="45.26327" lon="1.95623">
        <ele>528.4</ele>
        <time>2012-08-30T08:27:31Z</time>
      </trkpt>
      <trkpt lat="45.26335" lon="1.95633">
        <ele>527.9</ele>
        <time>2012-08-30T08:27:33Z</time>
      </trkpt>
      <trkpt lat="45.26357" lon="1.95662">
        <ele>531.3</ele>
        <time>2012-08-30T08:27:38Z</time>
      </trkpt>
      <trkpt lat="45.26361" lon="1.95668">
        <ele>526.5</ele>
        <time>2012-08-30T08:27:39Z</time>
      </trkpt>
      <trkpt lat="45.26364" lon="1.95675">
        <ele>526.5</ele>
        <time>2012-08-30T08:27:40Z</time>
      </trkpt>
      <trkpt lat="45.26381" lon="1.95727">
        <ele>525</ele>
        <time>2012-08-30T08:27:46Z</time>
      </trkpt>
      <trkpt lat="45.26393" lon="1.95754">
        <ele>525.5</ele>
        <time>2012-08-30T08:27:49Z</time>
      </trkpt>
      <trkpt lat="45.26399" lon="1.95761">
        <ele>526</ele>
        <time>2012-08-30T08:27:50Z</time>
      </trkpt>
      <trkpt lat="45.26436" lon="1.95794">
        <ele>523.1</ele>
        <time>2012-08-30T08:27:55Z</time>
      </trkpt>
      <trkpt lat="45.26445" lon="1.95796">
        <ele>521.7</ele>
        <time>2012-08-30T08:27:56Z</time>
      </trkpt>
      <trkpt lat="45.26453" lon="1.95797">
        <ele>520.7</ele>
        <time>2012-08-30T08:27:57Z</time>
      </trkpt>
      <trkpt lat="45.26461" lon="1.95796">
        <ele>520.2</ele>
        <time>2012-08-30T08:27:58Z</time>
      </trkpt>
      <trkpt lat="45.26469" lon="1.95793">
        <ele>520.7</ele>
        <time>2012-08-30T08:27:59Z</time>
      </trkpt>
      <trkpt lat="45.26477" lon="1.9579">
        <ele>520.7</ele>
        <time>2012-08-30T08:28:00Z</time>
      </trkpt>
      <trkpt lat="45.26485" lon="1.95786">
        <ele>520.2</ele>
        <time>2012-08-30T08:28:01Z</time>
      </trkpt>
      <trkpt lat="45.26494" lon="1.95781">
        <ele>520.7</ele>
        <time>2012-08-30T08:28:02Z</time>
      </trkpt>
      <trkpt lat="45.26522" lon="1.95764">
        <ele>522.6</ele>
        <time>2012-08-30T08:28:05Z</time>
      </trkpt>
      <trkpt lat="45.26558" lon="1.95744">
        <ele>525.5</ele>
        <time>2012-08-30T08:28:09Z</time>
      </trkpt>
      <trkpt lat="45.26592" lon="1.9573">
        <ele>529.8</ele>
        <time>2012-08-30T08:28:13Z</time>
      </trkpt>
      <trkpt lat="45.26608" lon="1.95724">
        <ele>532.7</ele>
        <time>2012-08-30T08:28:15Z</time>
      </trkpt>
      <trkpt lat="45.26616" lon="1.95724">
        <ele>532.7</ele>
        <time>2012-08-30T08:28:16Z</time>
      </trkpt>
      <trkpt lat="45.26624" lon="1.95725">
        <ele>532.7</ele>
        <time>2012-08-30T08:28:17Z</time>
      </trkpt>
      <trkpt lat="45.2663" lon="1.95728">
        <ele>532.7</ele>
        <time>2012-08-30T08:28:18Z</time>
      </trkpt>
      <trkpt lat="45.26635" lon="1.95731">
        <ele>532.2</ele>
        <time>2012-08-30T08:28:19Z</time>
      </trkpt>
      <trkpt lat="45.2664" lon="1.95734">
        <ele>532.7</ele>
        <time>2012-08-30T08:28:20Z</time>
      </trkpt>
      <trkpt lat="45.26644" lon="1.95736">
        <ele>532.7</ele>
        <time>2012-08-30T08:28:21Z</time>
      </trkpt>
      <trkpt lat="45.26646" lon="1.95737">
        <ele>532.7</ele>
        <time>2012-08-30T08:28:22Z</time>
      </trkpt>
      <trkpt lat="45.26646" lon="1.95739">
        <ele>532.7</ele>
        <time>2012-08-30T08:28:28Z</time>
      </trkpt>
      <trkpt lat="45.26646" lon="1.95739">
        <ele>533.2</ele>
        <time>2012-08-30T08:28:44Z</time>
      </trkpt>
      <trkpt lat="45.26646" lon="1.95739">
        <ele>532.7</ele>
        <time>2012-08-30T08:28:56Z</time>
      </trkpt>
      <trkpt lat="45.26655" lon="1.95745">
        <ele>534.6</ele>
        <time>2012-08-30T08:29:03Z</time>
      </trkpt>
      <trkpt lat="45.26667" lon="1.9575">
        <ele>536.1</ele>
        <time>2012-08-30T08:29:06Z</time>
      </trkpt>
      <trkpt lat="45.26698" lon="1.95755">
        <ele>539.4</ele>
        <time>2012-08-30T08:29:10Z</time>
      </trkpt>
      <trkpt lat="45.26725" lon="1.95758">
        <ele>542.3</ele>
        <time>2012-08-30T08:29:13Z</time>
      </trkpt>
      <trkpt lat="45.26758" lon="1.95763">
        <ele>542.8</ele>
        <time>2012-08-30T08:29:16Z</time>
      </trkpt>
      <trkpt lat="45.26802" lon="1.95759">
        <ele>540.4</ele>
        <time>2012-08-30T08:29:21Z</time>
      </trkpt>
      <trkpt lat="45.26819" lon="1.95764">
        <ele>537.5</ele>
        <time>2012-08-30T08:29:24Z</time>
      </trkpt>
      <trkpt lat="45.26823" lon="1.95767">
        <ele>537.5</ele>
        <time>2012-08-30T08:29:25Z</time>
      </trkpt>
      <trkpt lat="45.26826" lon="1.95772">
        <ele>537</ele>
        <time>2012-08-30T08:29:26Z</time>
      </trkpt>
      <trkpt lat="45.26829" lon="1.95778">
        <ele>537</ele>
        <time>2012-08-30T08:29:27Z</time>
      </trkpt>
      <trkpt lat="45.26831" lon="1.95787">
        <ele>537</ele>
        <time>2012-08-30T08:29:28Z</time>
      </trkpt>
      <trkpt lat="45.26831" lon="1.95796">
        <ele>537</ele>
        <time>2012-08-30T08:29:29Z</time>
      </trkpt>
      <trkpt lat="45.26833" lon="1.95807">
        <ele>536.5</ele>
        <time>2012-08-30T08:29:30Z</time>
      </trkpt>
      <trkpt lat="45.26836" lon="1.9584">
        <ele>536.1</ele>
        <time>2012-08-30T08:29:33Z</time>
      </trkpt>
      <trkpt lat="45.26839" lon="1.95851">
        <ele>535.6</ele>
        <time>2012-08-30T08:29:34Z</time>
      </trkpt>
      <trkpt lat="45.26842" lon="1.95862">
        <ele>535.6</ele>
        <time>2012-08-30T08:29:35Z</time>
      </trkpt>
      <trkpt lat="45.26846" lon="1.95872">
        <ele>535.1</ele>
        <time>2012-08-30T08:29:36Z</time>
      </trkpt>
      <trkpt lat="45.26851" lon="1.95883">
        <ele>535.6</ele>
        <time>2012-08-30T08:29:37Z</time>
      </trkpt>
      <trkpt lat="45.26863" lon="1.95904">
        <ele>535.1</ele>
        <time>2012-08-30T08:29:39Z</time>
      </trkpt>
      <trkpt lat="45.2687" lon="1.95913">
        <ele>534.2</ele>
        <time>2012-08-30T08:29:40Z</time>
      </trkpt>
      <trkpt lat="45.26887" lon="1.95927">
        <ele>533.7</ele>
        <time>2012-08-30T08:29:42Z</time>
      </trkpt>
      <trkpt lat="45.26896" lon="1.95932">
        <ele>533.2</ele>
        <time>2012-08-30T08:29:43Z</time>
      </trkpt>
      <trkpt lat="45.26907" lon="1.95935">
        <ele>532.7</ele>
        <time>2012-08-30T08:29:44Z</time>
      </trkpt>
      <trkpt lat="45.26944" lon="1.95953">
        <ele>533.2</ele>
        <time>2012-08-30T08:29:48Z</time>
      </trkpt>
      <trkpt lat="45.26971" lon="1.9598">
        <ele>534.2</ele>
        <time>2012-08-30T08:29:52Z</time>
      </trkpt>
      <trkpt lat="45.26975" lon="1.95987">
        <ele>533.7</ele>
        <time>2012-08-30T08:29:53Z</time>
      </trkpt>
      <trkpt lat="45.26978" lon="1.95995">
        <ele>533.2</ele>
        <time>2012-08-30T08:29:54Z</time>
      </trkpt>
      <trkpt lat="45.26981" lon="1.96004">
        <ele>533.2</ele>
        <time>2012-08-30T08:29:55Z</time>
      </trkpt>
      <trkpt lat="45.26981" lon="1.96013">
        <ele>532.7</ele>
        <time>2012-08-30T08:29:56Z</time>
      </trkpt>
      <trkpt lat="45.26982" lon="1.96022">
        <ele>532.2</ele>
        <time>2012-08-30T08:29:57Z</time>
      </trkpt>
      <trkpt lat="45.26995" lon="1.96094">
        <ele>533.2</ele>
        <time>2012-08-30T08:30:05Z</time>
      </trkpt>
      <trkpt lat="45.26995" lon="1.96109">
        <ele>532.7</ele>
        <time>2012-08-30T08:30:07Z</time>
      </trkpt>
      <trkpt lat="45.26995" lon="1.96114">
        <ele>532.7</ele>
        <time>2012-08-30T08:30:08Z</time>
      </trkpt>
      <trkpt lat="45.26994" lon="1.96121">
        <ele>532.7</ele>
        <time>2012-08-30T08:30:12Z</time>
      </trkpt>
      <trkpt lat="45.26994" lon="1.96121">
        <ele>533.2</ele>
        <time>2012-08-30T08:30:25Z</time>
      </trkpt>
      <trkpt lat="45.26994" lon="1.96119">
        <ele>532.7</ele>
        <time>2012-08-30T08:30:36Z</time>
      </trkpt>
      <trkpt lat="45.26995" lon="1.96119">
        <ele>533.2</ele>
        <time>2012-08-30T08:30:46Z</time>
      </trkpt>
      <trkpt lat="45.26995" lon="1.96121">
        <ele>532.7</ele>
        <time>2012-08-30T08:30:50Z</time>
      </trkpt>
      <trkpt lat="45.26997" lon="1.96123">
        <ele>533.2</ele>
        <time>2012-08-30T08:30:59Z</time>
      </trkpt>
      <trkpt lat="45.26998" lon="1.96125">
        <ele>533.2</ele>
        <time>2012-08-30T08:31:01Z</time>
      </trkpt>
      <trkpt lat="45.26999" lon="1.96125">
        <ele>532.7</ele>
        <time>2012-08-30T08:31:02Z</time>
      </trkpt>
      <trkpt lat="45.27" lon="1.96126">
        <ele>532.7</ele>
        <time>2012-08-30T08:31:03Z</time>
      </trkpt>
      <trkpt lat="45.27012" lon="1.96127">
        <ele>531.8</ele>
        <time>2012-08-30T08:31:11Z</time>
      </trkpt>
      <trkpt lat="45.27019" lon="1.96131">
        <ele>530.8</ele>
        <time>2012-08-30T08:31:19Z</time>
      </trkpt>
      <trkpt lat="45.27035" lon="1.9614">
        <ele>530.8</ele>
        <time>2012-08-30T08:31:27Z</time>
      </trkpt>
      <trkpt lat="45.27045" lon="1.96143">
        <ele>529.8</ele>
        <time>2012-08-30T08:31:35Z</time>
      </trkpt>
      <trkpt lat="45.27053" lon="1.96145">
        <ele>529.3</ele>
        <time>2012-08-30T08:31:42Z</time>
      </trkpt>
      <trkpt lat="45.27068" lon="1.96149">
        <ele>529.3</ele>
        <time>2012-08-30T08:31:50Z</time>
      </trkpt>
      <trkpt lat="45.27073" lon="1.96151">
        <ele>529.3</ele>
        <time>2012-08-30T08:31:56Z</time>
      </trkpt>
      <trkpt lat="45.27085" lon="1.96153">
        <ele>529.3</ele>
        <time>2012-08-30T08:32:05Z</time>
      </trkpt>
      <trkpt lat="45.27099" lon="1.96157">
        <ele>528.4</ele>
        <time>2012-08-30T08:32:13Z</time>
      </trkpt>
      <trkpt lat="45.27103" lon="1.96161">
        <ele>528.9</ele>
        <time>2012-08-30T08:32:21Z</time>
      </trkpt>
      <trkpt lat="45.27114" lon="1.96164">
        <ele>529.3</ele>
        <time>2012-08-30T08:32:27Z</time>
      </trkpt>
      <trkpt lat="45.27124" lon="1.96172">
        <ele>528.9</ele>
        <time>2012-08-30T08:32:35Z</time>
      </trkpt>
      <trkpt lat="45.27133" lon="1.96174">
        <ele>528.9</ele>
        <time>2012-08-30T08:32:45Z</time>
      </trkpt>
      <trkpt lat="45.27147" lon="1.96179">
        <ele>528.9</ele>
        <time>2012-08-30T08:32:52Z</time>
      </trkpt>
      <trkpt lat="45.27155" lon="1.96184">
        <ele>528.4</ele>
        <time>2012-08-30T08:32:58Z</time>
      </trkpt>
      <trkpt lat="45.27164" lon="1.96187">
        <ele>528.4</ele>
        <time>2012-08-30T08:33:07Z</time>
      </trkpt>
      <trkpt lat="45.27173" lon="1.96192">
        <ele>528.9</ele>
        <time>2012-08-30T08:33:14Z</time>
      </trkpt>
      <trkpt lat="45.27174" lon="1.96192">
        <ele>528.4</ele>
        <time>2012-08-30T08:33:19Z</time>
      </trkpt>
      <trkpt lat="45.27179" lon="1.96186">
        <ele>528.9</ele>
        <time>2012-08-30T08:33:24Z</time>
      </trkpt>
      <trkpt lat="45.27189" lon="1.96176">
        <ele>528.9</ele>
        <time>2012-08-30T08:33:31Z</time>
      </trkpt>
      <trkpt lat="45.27195" lon="1.96155">
        <ele>530.3</ele>
        <time>2012-08-30T08:33:42Z</time>
      </trkpt>
      <trkpt lat="45.27197" lon="1.96155">
        <ele>530.3</ele>
        <time>2012-08-30T08:33:45Z</time>
      </trkpt>
      <trkpt lat="45.27212" lon="1.96155">
        <ele>531.3</ele>
        <time>2012-08-30T08:33:53Z</time>
      </trkpt>
      <trkpt lat="45.27222" lon="1.96157">
        <ele>531.8</ele>
        <time>2012-08-30T08:34:02Z</time>
      </trkpt>
      <trkpt lat="45.27229" lon="1.96162">
        <ele>532.2</ele>
        <time>2012-08-30T08:34:09Z</time>
      </trkpt>
      <trkpt lat="45.27239" lon="1.96163">
        <ele>532.7</ele>
        <time>2012-08-30T08:34:16Z</time>
      </trkpt>
      <trkpt lat="45.27246" lon="1.96158">
        <ele>533.7</ele>
        <time>2012-08-30T08:34:22Z</time>
      </trkpt>
      <trkpt lat="45.27253" lon="1.96159">
        <ele>534.2</ele>
        <time>2012-08-30T08:34:29Z</time>
      </trkpt>
      <trkpt lat="45.27259" lon="1.96172">
        <ele>533.7</ele>
        <time>2012-08-30T08:34:38Z</time>
      </trkpt>
      <trkpt lat="45.27264" lon="1.96187">
        <ele>532.7</ele>
        <time>2012-08-30T08:34:48Z</time>
      </trkpt>
      <trkpt lat="45.27268" lon="1.9619">
        <ele>532.7</ele>
        <time>2012-08-30T08:34:51Z</time>
      </trkpt>
      <trkpt lat="45.27281" lon="1.96206">
        <ele>532.7</ele>
        <time>2012-08-30T08:35:03Z</time>
      </trkpt>
      <trkpt lat="45.27288" lon="1.96222">
        <ele>530.3</ele>
        <time>2012-08-30T08:35:14Z</time>
      </trkpt>
      <trkpt lat="45.27298" lon="1.96234">
        <ele>529.8</ele>
        <time>2012-08-30T08:35:22Z</time>
      </trkpt>
      <trkpt lat="45.27307" lon="1.96239">
        <ele>528.9</ele>
        <time>2012-08-30T08:35:29Z</time>
      </trkpt>
      <trkpt lat="45.27318" lon="1.96248">
        <ele>528.4</ele>
        <time>2012-08-30T08:35:37Z</time>
      </trkpt>
      <trkpt lat="45.27323" lon="1.96251">
        <ele>526.9</ele>
        <time>2012-08-30T08:35:45Z</time>
      </trkpt>
      <trkpt lat="45.27335" lon="1.96259">
        <ele>526.5</ele>
        <time>2012-08-30T08:35:55Z</time>
      </trkpt>
      <trkpt lat="45.27351" lon="1.96268">
        <ele>525</ele>
        <time>2012-08-30T08:36:06Z</time>
      </trkpt>
      <trkpt lat="45.27369" lon="1.96272">
        <ele>523.6</ele>
        <time>2012-08-30T08:36:17Z</time>
      </trkpt>
      <trkpt lat="45.2738" lon="1.96265">
        <ele>522.1</ele>
        <time>2012-08-30T08:36:28Z</time>
      </trkpt>
      <trkpt lat="45.27383" lon="1.96268">
        <ele>521.7</ele>
        <time>2012-08-30T08:36:31Z</time>
      </trkpt>
      <trkpt lat="45.27395" lon="1.96273">
        <ele>520.7</ele>
        <time>2012-08-30T08:36:37Z</time>
      </trkpt>
      <trkpt lat="45.27408" lon="1.96281">
        <ele>520.7</ele>
        <time>2012-08-30T08:36:46Z</time>
      </trkpt>
      <trkpt lat="45.27417" lon="1.96289">
        <ele>520.7</ele>
        <time>2012-08-30T08:36:53Z</time>
      </trkpt>
      <trkpt lat="45.27423" lon="1.96299">
        <ele>521.7</ele>
        <time>2012-08-30T08:37:02Z</time>
      </trkpt>
      <trkpt lat="45.27427" lon="1.96307">
        <ele>523.6</ele>
        <time>2012-08-30T08:37:07Z</time>
      </trkpt>
      <trkpt lat="45.27428" lon="1.96309">
        <ele>524.1</ele>
        <time>2012-08-30T08:37:10Z</time>
      </trkpt>
      <trkpt lat="45.27438" lon="1.96315">
        <ele>527.4</ele>
        <time>2012-08-30T08:37:19Z</time>
      </trkpt>
      <trkpt lat="45.2745" lon="1.9632">
        <ele>528.9</ele>
        <time>2012-08-30T08:37:28Z</time>
      </trkpt>
      <trkpt lat="45.27462" lon="1.96329">
        <ele>530.8</ele>
        <time>2012-08-30T08:37:38Z</time>
      </trkpt>
      <trkpt lat="45.27475" lon="1.96337">
        <ele>530.8</ele>
        <time>2012-08-30T08:37:48Z</time>
      </trkpt>
      <trkpt lat="45.27486" lon="1.96344">
        <ele>531.3</ele>
        <time>2012-08-30T08:37:57Z</time>
      </trkpt>
      <trkpt lat="45.27497" lon="1.96344">
        <ele>531.3</ele>
        <time>2012-08-30T08:38:06Z</time>
      </trkpt>
      <trkpt lat="45.27508" lon="1.96348">
        <ele>530.3</ele>
        <time>2012-08-30T08:38:16Z</time>
      </trkpt>
      <trkpt lat="45.27519" lon="1.96353">
        <ele>531.3</ele>
        <time>2012-08-30T08:38:24Z</time>
      </trkpt>
      <trkpt lat="45.27529" lon="1.96359">
        <ele>531.3</ele>
        <time>2012-08-30T08:38:31Z</time>
      </trkpt>
      <trkpt lat="45.27537" lon="1.96363">
        <ele>531.8</ele>
        <time>2012-08-30T08:38:39Z</time>
      </trkpt>
      <trkpt lat="45.27545" lon="1.96369">
        <ele>532.2</ele>
        <time>2012-08-30T08:38:44Z</time>
      </trkpt>
      <trkpt lat="45.27554" lon="1.96374">
        <ele>532.2</ele>
        <time>2012-08-30T08:38:52Z</time>
      </trkpt>
      <trkpt lat="45.27564" lon="1.9638">
        <ele>532.7</ele>
        <time>2012-08-30T08:39:01Z</time>
      </trkpt>
      <trkpt lat="45.27576" lon="1.96385">
        <ele>532.7</ele>
        <time>2012-08-30T08:39:11Z</time>
      </trkpt>
      <trkpt lat="45.27589" lon="1.96374">
        <ele>531.3</ele>
        <time>2012-08-30T08:39:19Z</time>
      </trkpt>
      <trkpt lat="45.27593" lon="1.96375">
        <ele>530.8</ele>
        <time>2012-08-30T08:39:23Z</time>
      </trkpt>
      <trkpt lat="45.27607" lon="1.96377">
        <ele>529.8</ele>
        <time>2012-08-30T08:39:32Z</time>
      </trkpt>
      <trkpt lat="45.27615" lon="1.96386">
        <ele>530.3</ele>
        <time>2012-08-30T08:39:39Z</time>
      </trkpt>
      <trkpt lat="45.27615" lon="1.96391">
        <ele>530.8</ele>
        <time>2012-08-30T08:39:43Z</time>
      </trkpt>
      <trkpt lat="45.27615" lon="1.96396">
        <ele>530.3</ele>
        <time>2012-08-30T08:39:46Z</time>
      </trkpt>
      <trkpt lat="45.27618" lon="1.96411">
        <ele>529.8</ele>
        <time>2012-08-30T08:39:56Z</time>
      </trkpt>
      <trkpt lat="45.27626" lon="1.9642">
        <ele>529.3</ele>
        <time>2012-08-30T08:40:03Z</time>
      </trkpt>
      <trkpt lat="45.27628" lon="1.96422">
        <ele>529.3</ele>
        <time>2012-08-30T08:40:09Z</time>
      </trkpt>
      <trkpt lat="45.27642" lon="1.96427">
        <ele>529.8</ele>
        <time>2012-08-30T08:40:17Z</time>
      </trkpt>
      <trkpt lat="45.27652" lon="1.96431">
        <ele>529.8</ele>
        <time>2012-08-30T08:40:26Z</time>
      </trkpt>
      <trkpt lat="45.27662" lon="1.96434">
        <ele>529.3</ele>
        <time>2012-08-30T08:40:32Z</time>
      </trkpt>
      <trkpt lat="45.27667" lon="1.96434">
        <ele>529.8</ele>
        <time>2012-08-30T08:40:35Z</time>
      </trkpt>
      <trkpt lat="45.27679" lon="1.96435">
        <ele>529.8</ele>
        <time>2012-08-30T08:40:43Z</time>
      </trkpt>
      <trkpt lat="45.2769" lon="1.96436">
        <ele>529.8</ele>
        <time>2012-08-30T08:40:51Z</time>
      </trkpt>
      <trkpt lat="45.27699" lon="1.96439">
        <ele>529.3</ele>
        <time>2012-08-30T08:40:58Z</time>
      </trkpt>
      <trkpt lat="45.277" lon="1.96439">
        <ele>529.8</ele>
        <time>2012-08-30T08:40:59Z</time>
      </trkpt>
      <trkpt lat="45.27713" lon="1.96437">
        <ele>529.8</ele>
        <time>2012-08-30T08:41:07Z</time>
      </trkpt>
      <trkpt lat="45.27724" lon="1.9644">
        <ele>529.8</ele>
        <time>2012-08-30T08:41:15Z</time>
      </trkpt>
      <trkpt lat="45.27731" lon="1.96442">
        <ele>529.3</ele>
        <time>2012-08-30T08:41:22Z</time>
      </trkpt>
      <trkpt lat="45.27741" lon="1.96447">
        <ele>529.8</ele>
        <time>2012-08-30T08:41:30Z</time>
      </trkpt>
      <trkpt lat="45.27742" lon="1.96452">
        <ele>528.4</ele>
        <time>2012-08-30T08:41:33Z</time>
      </trkpt>
      <trkpt lat="45.27739" lon="1.96465">
        <ele>527.4</ele>
        <time>2012-08-30T08:41:43Z</time>
      </trkpt>
      <trkpt lat="45.2774" lon="1.96467">
        <ele>528.4</ele>
        <time>2012-08-30T08:41:44Z</time>
      </trkpt>
      <trkpt lat="45.27742" lon="1.96482">
        <ele>528.4</ele>
        <time>2012-08-30T08:41:53Z</time>
      </trkpt>
      <trkpt lat="45.27744" lon="1.96483">
        <ele>527.9</ele>
        <time>2012-08-30T08:41:55Z</time>
      </trkpt>
      <trkpt lat="45.27753" lon="1.96491">
        <ele>528.9</ele>
        <time>2012-08-30T08:42:05Z</time>
      </trkpt>
      <trkpt lat="45.27761" lon="1.96498">
        <ele>528.9</ele>
        <time>2012-08-30T08:42:15Z</time>
      </trkpt>
      <trkpt lat="45.27768" lon="1.96508">
        <ele>530.3</ele>
        <time>2012-08-30T08:42:24Z</time>
      </trkpt>
      <trkpt lat="45.27769" lon="1.96511">
        <ele>530.8</ele>
        <time>2012-08-30T08:42:25Z</time>
      </trkpt>
      <trkpt lat="45.27778" lon="1.96529">
        <ele>531.8</ele>
        <time>2012-08-30T08:42:32Z</time>
      </trkpt>
      <trkpt lat="45.27784" lon="1.96543">
        <ele>533.2</ele>
        <time>2012-08-30T08:42:41Z</time>
      </trkpt>
      <trkpt lat="45.27786" lon="1.96545">
        <ele>533.2</ele>
        <time>2012-08-30T08:42:44Z</time>
      </trkpt>
      <trkpt lat="45.2779" lon="1.9655">
        <ele>534.2</ele>
        <time>2012-08-30T08:42:49Z</time>
      </trkpt>
      <trkpt lat="45.27797" lon="1.96563">
        <ele>535.6</ele>
        <time>2012-08-30T08:42:59Z</time>
      </trkpt>
      <trkpt lat="45.27802" lon="1.96575">
        <ele>535.6</ele>
        <time>2012-08-30T08:43:05Z</time>
      </trkpt>
      <trkpt lat="45.27804" lon="1.96592">
        <ele>535.6</ele>
        <time>2012-08-30T08:43:13Z</time>
      </trkpt>
      <trkpt lat="45.27807" lon="1.96604">
        <ele>535.6</ele>
        <time>2012-08-30T08:43:20Z</time>
      </trkpt>
      <trkpt lat="45.27813" lon="1.96615">
        <ele>536.1</ele>
        <time>2012-08-30T08:43:27Z</time>
      </trkpt>
      <trkpt lat="45.27816" lon="1.96631">
        <ele>536.1</ele>
        <time>2012-08-30T08:43:37Z</time>
      </trkpt>
      <trkpt lat="45.2782" lon="1.96644">
        <ele>536.5</ele>
        <time>2012-08-30T08:43:46Z</time>
      </trkpt>
      <trkpt lat="45.27825" lon="1.96659">
        <ele>536.1</ele>
        <time>2012-08-30T08:43:55Z</time>
      </trkpt>
      <trkpt lat="45.27831" lon="1.9667">
        <ele>537</ele>
        <time>2012-08-30T08:44:03Z</time>
      </trkpt>
      <trkpt lat="45.27836" lon="1.96685">
        <ele>537.5</ele>
        <time>2012-08-30T08:44:12Z</time>
      </trkpt>
      <trkpt lat="45.27839" lon="1.96701">
        <ele>537.5</ele>
        <time>2012-08-30T08:44:21Z</time>
      </trkpt>
      <trkpt lat="45.2784" lon="1.96704">
        <ele>538.5</ele>
        <time>2012-08-30T08:44:23Z</time>
      </trkpt>
      <trkpt lat="45.27845" lon="1.96723">
        <ele>538.5</ele>
        <time>2012-08-30T08:44:33Z</time>
      </trkpt>
      <trkpt lat="45.27845" lon="1.96736">
        <ele>539</ele>
        <time>2012-08-30T08:44:40Z</time>
      </trkpt>
      <trkpt lat="45.27845" lon="1.9674">
        <ele>538.5</ele>
        <time>2012-08-30T08:44:45Z</time>
      </trkpt>
      <trkpt lat="45.27846" lon="1.9674">
        <ele>538</ele>
        <time>2012-08-30T08:44:54Z</time>
      </trkpt>
      <trkpt lat="45.27846" lon="1.96739">
        <ele>538</ele>
        <time>2012-08-30T08:45:05Z</time>
      </trkpt>
      <trkpt lat="45.27846" lon="1.96722">
        <ele>538.5</ele>
        <time>2012-08-30T08:45:10Z</time>
      </trkpt>
      <trkpt lat="45.27847" lon="1.96698">
        <ele>537.5</ele>
        <time>2012-08-30T08:45:15Z</time>
      </trkpt>
      <trkpt lat="45.27837" lon="1.96686">
        <ele>536.5</ele>
        <time>2012-08-30T08:45:21Z</time>
      </trkpt>
      <trkpt lat="45.27839" lon="1.96688">
        <ele>537.5</ele>
        <time>2012-08-30T08:45:28Z</time>
      </trkpt>
      <trkpt lat="45.27843" lon="1.96697">
        <ele>537</ele>
        <time>2012-08-30T08:45:34Z</time>
      </trkpt>
      <trkpt lat="45.27844" lon="1.96732">
        <ele>538</ele>
        <time>2012-08-30T08:45:39Z</time>
      </trkpt>
      <trkpt lat="45.27845" lon="1.96755">
        <ele>539.9</ele>
        <time>2012-08-30T08:45:41Z</time>
      </trkpt>
      <trkpt lat="45.27848" lon="1.96782">
        <ele>539.9</ele>
        <time>2012-08-30T08:45:43Z</time>
      </trkpt>
      <trkpt lat="45.27852" lon="1.96812">
        <ele>541.4</ele>
        <time>2012-08-30T08:45:45Z</time>
      </trkpt>
      <trkpt lat="45.27855" lon="1.96859">
        <ele>542.8</ele>
        <time>2012-08-30T08:45:48Z</time>
      </trkpt>
      <trkpt lat="45.27866" lon="1.96954">
        <ele>543.8</ele>
        <time>2012-08-30T08:45:54Z</time>
      </trkpt>
      <trkpt lat="45.2787" lon="1.96969">
        <ele>544.2</ele>
        <time>2012-08-30T08:45:55Z</time>
      </trkpt>
      <trkpt lat="45.27889" lon="1.97036">
        <ele>544.2</ele>
        <time>2012-08-30T08:46:00Z</time>
      </trkpt>
      <trkpt lat="45.2789" lon="1.97048">
        <ele>543.8</ele>
        <time>2012-08-30T08:46:01Z</time>
      </trkpt>
      <trkpt lat="45.2789" lon="1.97059">
        <ele>543.3</ele>
        <time>2012-08-30T08:46:02Z</time>
      </trkpt>
      <trkpt lat="45.2789" lon="1.97074">
        <ele>541.8</ele>
        <time>2012-08-30T08:46:04Z</time>
      </trkpt>
      <trkpt lat="45.27892" lon="1.97079">
        <ele>542.3</ele>
        <time>2012-08-30T08:46:05Z</time>
      </trkpt>
      <trkpt lat="45.27896" lon="1.97082">
        <ele>541.8</ele>
        <time>2012-08-30T08:46:06Z</time>
      </trkpt>
      <trkpt lat="45.27902" lon="1.97081">
        <ele>542.8</ele>
        <time>2012-08-30T08:46:07Z</time>
      </trkpt>
      <trkpt lat="45.27907" lon="1.97079">
        <ele>544.2</ele>
        <time>2012-08-30T08:46:08Z</time>
      </trkpt>
      <trkpt lat="45.27914" lon="1.97075">
        <ele>544.7</ele>
        <time>2012-08-30T08:46:09Z</time>
      </trkpt>
      <trkpt lat="45.27929" lon="1.9707">
        <ele>548.1</ele>
        <time>2012-08-30T08:46:11Z</time>
      </trkpt>
      <trkpt lat="45.27937" lon="1.97069">
        <ele>549</ele>
        <time>2012-08-30T08:46:12Z</time>
      </trkpt>
      <trkpt lat="45.27946" lon="1.97069">
        <ele>550.5</ele>
        <time>2012-08-30T08:46:13Z</time>
      </trkpt>
      <trkpt lat="45.27955" lon="1.9707">
        <ele>551</ele>
        <time>2012-08-30T08:46:14Z</time>
      </trkpt>
      <trkpt lat="45.27963" lon="1.97072">
        <ele>551.5</ele>
        <time>2012-08-30T08:46:15Z</time>
      </trkpt>
      <trkpt lat="45.27971" lon="1.97073">
        <ele>551.5</ele>
        <time>2012-08-30T08:46:16Z</time>
      </trkpt>
      <trkpt lat="45.27993" lon="1.97072">
        <ele>554.3</ele>
        <time>2012-08-30T08:46:19Z</time>
      </trkpt>
      <trkpt lat="45.28016" lon="1.97067">
        <ele>557.7</ele>
        <time>2012-08-30T08:46:22Z</time>
      </trkpt>
      <trkpt lat="45.2808" lon="1.97051">
        <ele>556.7</ele>
        <time>2012-08-30T08:46:29Z</time>
      </trkpt>
      <trkpt lat="45.2812" lon="1.97048">
        <ele>557.2</ele>
        <time>2012-08-30T08:46:33Z</time>
      </trkpt>
      <trkpt lat="45.28173" lon="1.97046">
        <ele>560.1</ele>
        <time>2012-08-30T08:46:38Z</time>
      </trkpt>
      <trkpt lat="45.28183" lon="1.97046">
        <ele>560.6</ele>
        <time>2012-08-30T08:46:39Z</time>
      </trkpt>
      <trkpt lat="45.28194" lon="1.97048">
        <ele>560.1</ele>
        <time>2012-08-30T08:46:40Z</time>
      </trkpt>
      <trkpt lat="45.28225" lon="1.97053">
        <ele>562</ele>
        <time>2012-08-30T08:46:43Z</time>
      </trkpt>
      <trkpt lat="45.28236" lon="1.97053">
        <ele>562</ele>
        <time>2012-08-30T08:46:44Z</time>
      </trkpt>
      <trkpt lat="45.28283" lon="1.97048">
        <ele>560.6</ele>
        <time>2012-08-30T08:46:49Z</time>
      </trkpt>
      <trkpt lat="45.2829" lon="1.97048">
        <ele>560.6</ele>
        <time>2012-08-30T08:46:50Z</time>
      </trkpt>
      <trkpt lat="45.28301" lon="1.97049">
        <ele>560.1</ele>
        <time>2012-08-30T08:46:53Z</time>
      </trkpt>
      <trkpt lat="45.28303" lon="1.97049">
        <ele>560.1</ele>
        <time>2012-08-30T08:46:55Z</time>
      </trkpt>
      <trkpt lat="45.28307" lon="1.97046">
        <ele>560.1</ele>
        <time>2012-08-30T08:46:56Z</time>
      </trkpt>
      <trkpt lat="45.2831" lon="1.97043">
        <ele>560.1</ele>
        <time>2012-08-30T08:46:57Z</time>
      </trkpt>
      <trkpt lat="45.28331" lon="1.97017">
        <ele>562.5</ele>
        <time>2012-08-30T08:47:01Z</time>
      </trkpt>
      <trkpt lat="45.28345" lon="1.97003">
        <ele>561.5</ele>
        <time>2012-08-30T08:47:03Z</time>
      </trkpt>
      <trkpt lat="45.28399" lon="1.9697">
        <ele>563.5</ele>
        <time>2012-08-30T08:47:09Z</time>
      </trkpt>
      <trkpt lat="45.28411" lon="1.96965">
        <ele>562.5</ele>
        <time>2012-08-30T08:47:10Z</time>
      </trkpt>
      <trkpt lat="45.28447" lon="1.96949">
        <ele>559.6</ele>
        <time>2012-08-30T08:47:13Z</time>
      </trkpt>
      <trkpt lat="45.2852" lon="1.96902">
        <ele>559.1</ele>
        <time>2012-08-30T08:47:20Z</time>
      </trkpt>
      <trkpt lat="45.28534" lon="1.96893">
        <ele>559.1</ele>
        <time>2012-08-30T08:47:23Z</time>
      </trkpt>
      <trkpt lat="45.28537" lon="1.96889">
        <ele>559.1</ele>
        <time>2012-08-30T08:47:24Z</time>
      </trkpt>
      <trkpt lat="45.28537" lon="1.96885">
        <ele>559.1</ele>
        <time>2012-08-30T08:47:25Z</time>
      </trkpt>
      <trkpt lat="45.28538" lon="1.9688">
        <ele>559.1</ele>
        <time>2012-08-30T08:47:26Z</time>
      </trkpt>
      <trkpt lat="45.28537" lon="1.96839">
        <ele>560.6</ele>
        <time>2012-08-30T08:47:33Z</time>
      </trkpt>
      <trkpt lat="45.28536" lon="1.96825">
        <ele>560.6</ele>
        <time>2012-08-30T08:47:35Z</time>
      </trkpt>
      <trkpt lat="45.2853" lon="1.96777">
        <ele>559.6</ele>
        <time>2012-08-30T08:47:42Z</time>
      </trkpt>
      <trkpt lat="45.28531" lon="1.96756">
        <ele>558.7</ele>
        <time>2012-08-30T08:47:45Z</time>
      </trkpt>
      <trkpt lat="45.28534" lon="1.96706">
        <ele>556.3</ele>
        <time>2012-08-30T08:47:53Z</time>
      </trkpt>
      <trkpt lat="45.28544" lon="1.96688">
        <ele>555.8</ele>
        <time>2012-08-30T08:47:59Z</time>
      </trkpt>
      <trkpt lat="45.2855" lon="1.96674">
        <ele>553.9</ele>
        <time>2012-08-30T08:48:08Z</time>
      </trkpt>
      <trkpt lat="45.2856" lon="1.96652">
        <ele>553.4</ele>
        <time>2012-08-30T08:48:17Z</time>
      </trkpt>
      <trkpt lat="45.28566" lon="1.96637">
        <ele>551.9</ele>
        <time>2012-08-30T08:48:22Z</time>
      </trkpt>
      <trkpt lat="45.28576" lon="1.9662">
        <ele>550.5</ele>
        <time>2012-08-30T08:48:31Z</time>
      </trkpt>
      <trkpt lat="45.28584" lon="1.96602">
        <ele>549</ele>
        <time>2012-08-30T08:48:39Z</time>
      </trkpt>
      <trkpt lat="45.28587" lon="1.96595">
        <ele>548.6</ele>
        <time>2012-08-30T08:48:41Z</time>
      </trkpt>
      <trkpt lat="45.28594" lon="1.96579">
        <ele>547.1</ele>
        <time>2012-08-30T08:48:45Z</time>
      </trkpt>
      <trkpt lat="45.28605" lon="1.96542">
        <ele>546.2</ele>
        <time>2012-08-30T08:48:53Z</time>
      </trkpt>
      <trkpt lat="45.28611" lon="1.96497">
        <ele>546.2</ele>
        <time>2012-08-30T08:49:02Z</time>
      </trkpt>
      <trkpt lat="45.28609" lon="1.9647">
        <ele>546.2</ele>
        <time>2012-08-30T08:49:10Z</time>
      </trkpt>
      <trkpt lat="45.28608" lon="1.96442">
        <ele>547.1</ele>
        <time>2012-08-30T08:49:19Z</time>
      </trkpt>
      <trkpt lat="45.28608" lon="1.96418">
        <ele>547.1</ele>
        <time>2012-08-30T08:49:26Z</time>
      </trkpt>
      <trkpt lat="45.28609" lon="1.96386">
        <ele>546.2</ele>
        <time>2012-08-30T08:49:37Z</time>
      </trkpt>
      <trkpt lat="45.28604" lon="1.96351">
        <ele>546.7</ele>
        <time>2012-08-30T08:49:46Z</time>
      </trkpt>
      <trkpt lat="45.28598" lon="1.96322">
        <ele>547.1</ele>
        <time>2012-08-30T08:49:54Z</time>
      </trkpt>
      <trkpt lat="45.28598" lon="1.96297">
        <ele>545.7</ele>
        <time>2012-08-30T08:50:01Z</time>
      </trkpt>
      <trkpt lat="45.28603" lon="1.96263">
        <ele>543.8</ele>
        <time>2012-08-30T08:50:10Z</time>
      </trkpt>
      <trkpt lat="45.28614" lon="1.96241">
        <ele>543.3</ele>
        <time>2012-08-30T08:50:17Z</time>
      </trkpt>
      <trkpt lat="45.28639" lon="1.96216">
        <ele>542.8</ele>
        <time>2012-08-30T08:50:26Z</time>
      </trkpt>
      <trkpt lat="45.28657" lon="1.96195">
        <ele>542.8</ele>
        <time>2012-08-30T08:50:34Z</time>
      </trkpt>
      <trkpt lat="45.28671" lon="1.96177">
        <ele>542.8</ele>
        <time>2012-08-30T08:50:42Z</time>
      </trkpt>
      <trkpt lat="45.28688" lon="1.9615">
        <ele>544.2</ele>
        <time>2012-08-30T08:50:51Z</time>
      </trkpt>
      <trkpt lat="45.287" lon="1.96133">
        <ele>545.7</ele>
        <time>2012-08-30T08:50:58Z</time>
      </trkpt>
      <trkpt lat="45.28717" lon="1.96111">
        <ele>548.6</ele>
        <time>2012-08-30T08:51:06Z</time>
      </trkpt>
      <trkpt lat="45.28731" lon="1.96093">
        <ele>550</ele>
        <time>2012-08-30T08:51:15Z</time>
      </trkpt>
      <trkpt lat="45.28738" lon="1.9609">
        <ele>552.9</ele>
        <time>2012-08-30T08:51:18Z</time>
      </trkpt>
      <trkpt lat="45.28741" lon="1.96087">
        <ele>545.2</ele>
        <time>2012-08-30T08:51:19Z</time>
      </trkpt>
      <trkpt lat="45.28744" lon="1.96084">
        <ele>550.5</ele>
        <time>2012-08-30T08:51:20Z</time>
      </trkpt>
      <trkpt lat="45.28757" lon="1.96072">
        <ele>551</ele>
        <time>2012-08-30T08:51:27Z</time>
      </trkpt>
      <trkpt lat="45.28775" lon="1.96053">
        <ele>552.4</ele>
        <time>2012-08-30T08:51:35Z</time>
      </trkpt>
      <trkpt lat="45.28788" lon="1.96033">
        <ele>552.4</ele>
        <time>2012-08-30T08:51:42Z</time>
      </trkpt>
      <trkpt lat="45.28804" lon="1.96012">
        <ele>553.4</ele>
        <time>2012-08-30T08:51:48Z</time>
      </trkpt>
      <trkpt lat="45.28831" lon="1.9598">
        <ele>555.3</ele>
        <time>2012-08-30T08:51:58Z</time>
      </trkpt>
      <trkpt lat="45.28857" lon="1.95966">
        <ele>556.3</ele>
        <time>2012-08-30T08:52:07Z</time>
      </trkpt>
      <trkpt lat="45.28882" lon="1.9596">
        <ele>557.2</ele>
        <time>2012-08-30T08:52:13Z</time>
      </trkpt>
      <trkpt lat="45.28886" lon="1.95959">
        <ele>557.2</ele>
        <time>2012-08-30T08:52:14Z</time>
      </trkpt>
      <trkpt lat="45.28891" lon="1.95958">
        <ele>557.2</ele>
        <time>2012-08-30T08:52:15Z</time>
      </trkpt>
      <trkpt lat="45.28896" lon="1.95957">
        <ele>557.7</ele>
        <time>2012-08-30T08:52:16Z</time>
      </trkpt>
      <trkpt lat="45.289" lon="1.95954">
        <ele>557.2</ele>
        <time>2012-08-30T08:52:17Z</time>
      </trkpt>
      <trkpt lat="45.28903" lon="1.95951">
        <ele>557.7</ele>
        <time>2012-08-30T08:52:18Z</time>
      </trkpt>
      <trkpt lat="45.28907" lon="1.95948">
        <ele>558.2</ele>
        <time>2012-08-30T08:52:19Z</time>
      </trkpt>
      <trkpt lat="45.2891" lon="1.95944">
        <ele>557.7</ele>
        <time>2012-08-30T08:52:20Z</time>
      </trkpt>
      <trkpt lat="45.28914" lon="1.95939">
        <ele>557.7</ele>
        <time>2012-08-30T08:52:21Z</time>
      </trkpt>
      <trkpt lat="45.28917" lon="1.95934">
        <ele>558.2</ele>
        <time>2012-08-30T08:52:22Z</time>
      </trkpt>
      <trkpt lat="45.2892" lon="1.95929">
        <ele>558.2</ele>
        <time>2012-08-30T08:52:23Z</time>
      </trkpt>
      <trkpt lat="45.28921" lon="1.95923">
        <ele>558.7</ele>
        <time>2012-08-30T08:52:24Z</time>
      </trkpt>
      <trkpt lat="45.28923" lon="1.95915">
        <ele>558.7</ele>
        <time>2012-08-30T08:52:25Z</time>
      </trkpt>
      <trkpt lat="45.28924" lon="1.95908">
        <ele>559.1</ele>
        <time>2012-08-30T08:52:26Z</time>
      </trkpt>
      <trkpt lat="45.28927" lon="1.95846">
        <ele>560.1</ele>
        <time>2012-08-30T08:52:35Z</time>
      </trkpt>
      <trkpt lat="45.28921" lon="1.95829">
        <ele>560.1</ele>
        <time>2012-08-30T08:52:40Z</time>
      </trkpt>
      <trkpt lat="45.28915" lon="1.95817">
        <ele>560.1</ele>
        <time>2012-08-30T08:52:43Z</time>
      </trkpt>
      <trkpt lat="45.28907" lon="1.95804">
        <ele>560.6</ele>
        <time>2012-08-30T08:52:45Z</time>
      </trkpt>
      <trkpt lat="45.28902" lon="1.95794">
        <ele>560.6</ele>
        <time>2012-08-30T08:52:46Z</time>
      </trkpt>
      <trkpt lat="45.28883" lon="1.95731">
        <ele>560.1</ele>
        <time>2012-08-30T08:52:51Z</time>
      </trkpt>
      <trkpt lat="45.28878" lon="1.95702">
        <ele>556.7</ele>
        <time>2012-08-30T08:52:53Z</time>
      </trkpt>
      <trkpt lat="45.28875" lon="1.95689">
        <ele>556.3</ele>
        <time>2012-08-30T08:52:54Z</time>
      </trkpt>
      <trkpt lat="45.28871" lon="1.95654">
        <ele>554.3</ele>
        <time>2012-08-30T08:52:57Z</time>
      </trkpt>
      <trkpt lat="45.28872" lon="1.95644">
        <ele>553.9</ele>
        <time>2012-08-30T08:52:58Z</time>
      </trkpt>
      <trkpt lat="45.28873" lon="1.95634">
        <ele>554.3</ele>
        <time>2012-08-30T08:52:59Z</time>
      </trkpt>
      <trkpt lat="45.28876" lon="1.95626">
        <ele>554.3</ele>
        <time>2012-08-30T08:53:00Z</time>
      </trkpt>
      <trkpt lat="45.2888" lon="1.95618">
        <ele>554.8</ele>
        <time>2012-08-30T08:53:01Z</time>
      </trkpt>
      <trkpt lat="45.28883" lon="1.95611">
        <ele>554.8</ele>
        <time>2012-08-30T08:53:02Z</time>
      </trkpt>
      <trkpt lat="45.28887" lon="1.95604">
        <ele>555.3</ele>
        <time>2012-08-30T08:53:03Z</time>
      </trkpt>
      <trkpt lat="45.28891" lon="1.95599">
        <ele>555.8</ele>
        <time>2012-08-30T08:53:04Z</time>
      </trkpt>
      <trkpt lat="45.289" lon="1.95591">
        <ele>555.8</ele>
        <time>2012-08-30T08:53:08Z</time>
      </trkpt>
      <trkpt lat="45.28899" lon="1.95591">
        <ele>555.8</ele>
        <time>2012-08-30T08:53:16Z</time>
      </trkpt>
      <trkpt lat="45.289" lon="1.95591">
        <ele>556.3</ele>
        <time>2012-08-30T08:53:24Z</time>
      </trkpt>
      <trkpt lat="45.289" lon="1.95592">
        <ele>555.8</ele>
        <time>2012-08-30T08:53:27Z</time>
      </trkpt>
      <trkpt lat="45.28898" lon="1.9559">
        <ele>554.8</ele>
        <time>2012-08-30T08:53:28Z</time>
      </trkpt>
      <trkpt lat="45.28897" lon="1.95588">
        <ele>555.3</ele>
        <time>2012-08-30T08:53:29Z</time>
      </trkpt>
      <trkpt lat="45.28895" lon="1.95588">
        <ele>555.3</ele>
        <time>2012-08-30T08:53:30Z</time>
      </trkpt>
      <trkpt lat="45.28894" lon="1.95588">
        <ele>555.3</ele>
        <time>2012-08-30T08:53:31Z</time>
      </trkpt>
      <trkpt lat="45.28893" lon="1.95588">
        <ele>555.8</ele>
        <time>2012-08-30T08:53:32Z</time>
      </trkpt>
      <trkpt lat="45.28892" lon="1.95588">
        <ele>554.8</ele>
        <time>2012-08-30T08:53:33Z</time>
      </trkpt>
      <trkpt lat="45.28891" lon="1.95588">
        <ele>554.8</ele>
        <time>2012-08-30T08:53:34Z</time>
      </trkpt>
      <trkpt lat="45.28887" lon="1.95585">
        <ele>555.3</ele>
        <time>2012-08-30T08:53:40Z</time>
      </trkpt>
      <trkpt lat="45.28886" lon="1.95582">
        <ele>555.8</ele>
        <time>2012-08-30T08:53:42Z</time>
      </trkpt>
      <trkpt lat="45.28885" lon="1.95581">
        <ele>555.3</ele>
        <time>2012-08-30T08:53:43Z</time>
      </trkpt>
      <trkpt lat="45.28877" lon="1.95576">
        <ele>555.3</ele>
        <time>2012-08-30T08:53:49Z</time>
      </trkpt>
      <trkpt lat="45.2887" lon="1.95577">
        <ele>555.3</ele>
        <time>2012-08-30T08:53:56Z</time>
      </trkpt>
      <trkpt lat="45.28861" lon="1.9558">
        <ele>555.8</ele>
        <time>2012-08-30T08:54:04Z</time>
      </trkpt>
      <trkpt lat="45.28854" lon="1.95585">
        <ele>555.3</ele>
        <time>2012-08-30T08:54:11Z</time>
      </trkpt>
      <trkpt lat="45.28842" lon="1.95593">
        <ele>555.8</ele>
        <time>2012-08-30T08:54:19Z</time>
      </trkpt>
      <trkpt lat="45.28837" lon="1.95595">
        <ele>555.8</ele>
        <time>2012-08-30T08:54:22Z</time>
      </trkpt>
      <trkpt lat="45.28836" lon="1.95596">
        <ele>555.8</ele>
        <time>2012-08-30T08:54:23Z</time>
      </trkpt>
      <trkpt lat="45.28835" lon="1.95596">
        <ele>555.3</ele>
        <time>2012-08-30T08:54:24Z</time>
      </trkpt>
      <trkpt lat="45.28824" lon="1.956">
        <ele>555.3</ele>
        <time>2012-08-30T08:54:31Z</time>
      </trkpt>
      <trkpt lat="45.28817" lon="1.95601">
        <ele>554.8</ele>
        <time>2012-08-30T08:54:36Z</time>
      </trkpt>
      <trkpt lat="45.28809" lon="1.95605">
        <ele>554.3</ele>
        <time>2012-08-30T08:54:43Z</time>
      </trkpt>
      <trkpt lat="45.28796" lon="1.95609">
        <ele>554.8</ele>
        <time>2012-08-30T08:54:53Z</time>
      </trkpt>
      <trkpt lat="45.2878" lon="1.95615">
        <ele>555.3</ele>
        <time>2012-08-30T08:55:03Z</time>
      </trkpt>
      <trkpt lat="45.28778" lon="1.95615">
        <ele>555.3</ele>
        <time>2012-08-30T08:55:04Z</time>
      </trkpt>
      <trkpt lat="45.28777" lon="1.95615">
        <ele>555.3</ele>
        <time>2012-08-30T08:55:05Z</time>
      </trkpt>
      <trkpt lat="45.28775" lon="1.95616">
        <ele>554.8</ele>
        <time>2012-08-30T08:55:06Z</time>
      </trkpt>
      <trkpt lat="45.28774" lon="1.95616">
        <ele>555.3</ele>
        <time>2012-08-30T08:55:07Z</time>
      </trkpt>
      <trkpt lat="45.28772" lon="1.95617">
        <ele>554.3</ele>
        <time>2012-08-30T08:55:08Z</time>
      </trkpt>
      <trkpt lat="45.2877" lon="1.95617">
        <ele>554.8</ele>
        <time>2012-08-30T08:55:09Z</time>
      </trkpt>
      <trkpt lat="45.28765" lon="1.95617">
        <ele>554.3</ele>
        <time>2012-08-30T08:55:15Z</time>
      </trkpt>
      <trkpt lat="45.28756" lon="1.9562">
        <ele>554.3</ele>
        <time>2012-08-30T08:55:21Z</time>
      </trkpt>
      <trkpt lat="45.28743" lon="1.95625">
        <ele>554.3</ele>
        <time>2012-08-30T08:55:26Z</time>
      </trkpt>
      <trkpt lat="45.28742" lon="1.95627">
        <ele>554.3</ele>
        <time>2012-08-30T08:55:27Z</time>
      </trkpt>
      <trkpt lat="45.28737" lon="1.9563">
        <ele>554.3</ele>
        <time>2012-08-30T08:55:30Z</time>
      </trkpt>
      <trkpt lat="45.28731" lon="1.9563">
        <ele>553.9</ele>
        <time>2012-08-30T08:55:36Z</time>
      </trkpt>
      <trkpt lat="45.28722" lon="1.9563">
        <ele>553.4</ele>
        <time>2012-08-30T08:55:44Z</time>
      </trkpt>
      <trkpt lat="45.2871" lon="1.95632">
        <ele>552.9</ele>
        <time>2012-08-30T08:55:49Z</time>
      </trkpt>
      <trkpt lat="45.28698" lon="1.95631">
        <ele>552.4</ele>
        <time>2012-08-30T08:55:54Z</time>
      </trkpt>
      <trkpt lat="45.28689" lon="1.9563">
        <ele>551.9</ele>
        <time>2012-08-30T08:56:01Z</time>
      </trkpt>
      <trkpt lat="45.28683" lon="1.95626">
        <ele>550</ele>
        <time>2012-08-30T08:56:09Z</time>
      </trkpt>
      <trkpt lat="45.28682" lon="1.95624">
        <ele>550</ele>
        <time>2012-08-30T08:56:10Z</time>
      </trkpt>
      <trkpt lat="45.28674" lon="1.95606">
        <ele>549</ele>
        <time>2012-08-30T08:56:15Z</time>
      </trkpt>
      <trkpt lat="45.28671" lon="1.95594">
        <ele>548.1</ele>
        <time>2012-08-30T08:56:19Z</time>
      </trkpt>
      <trkpt lat="45.28671" lon="1.95581">
        <ele>547.1</ele>
        <time>2012-08-30T08:56:25Z</time>
      </trkpt>
      <trkpt lat="45.28673" lon="1.95584">
        <ele>545.7</ele>
        <time>2012-08-30T08:56:30Z</time>
      </trkpt>
      <trkpt lat="45.28675" lon="1.95583">
        <ele>544.2</ele>
        <time>2012-08-30T08:56:35Z</time>
      </trkpt>
      <trkpt lat="45.28676" lon="1.9558">
        <ele>543.8</ele>
        <time>2012-08-30T08:56:36Z</time>
      </trkpt>
      <trkpt lat="45.28677" lon="1.95577">
        <ele>542.8</ele>
        <time>2012-08-30T08:56:37Z</time>
      </trkpt>
      <trkpt lat="45.28678" lon="1.95575">
        <ele>542.8</ele>
        <time>2012-08-30T08:56:38Z</time>
      </trkpt>
      <trkpt lat="45.28679" lon="1.95572">
        <ele>543.3</ele>
        <time>2012-08-30T08:56:39Z</time>
      </trkpt>
      <trkpt lat="45.2868" lon="1.95568">
        <ele>542.8</ele>
        <time>2012-08-30T08:56:40Z</time>
      </trkpt>
      <trkpt lat="45.28681" lon="1.95565">
        <ele>542.3</ele>
        <time>2012-08-30T08:56:41Z</time>
      </trkpt>
      <trkpt lat="45.28682" lon="1.95562">
        <ele>541.8</ele>
        <time>2012-08-30T08:56:42Z</time>
      </trkpt>
      <trkpt lat="45.28683" lon="1.95558">
        <ele>541.4</ele>
        <time>2012-08-30T08:56:43Z</time>
      </trkpt>
      <trkpt lat="45.28684" lon="1.95555">
        <ele>541.4</ele>
        <time>2012-08-30T08:56:44Z</time>
      </trkpt>
      <trkpt lat="45.28684" lon="1.95552">
        <ele>540.9</ele>
        <time>2012-08-30T08:56:45Z</time>
      </trkpt>
      <trkpt lat="45.28685" lon="1.95532">
        <ele>539.9</ele>
        <time>2012-08-30T08:56:52Z</time>
      </trkpt>
      <trkpt lat="45.28683" lon="1.95524">
        <ele>539</ele>
        <time>2012-08-30T08:56:57Z</time>
      </trkpt>
      <trkpt lat="45.28684" lon="1.95523">
        <ele>539</ele>
        <time>2012-08-30T08:56:58Z</time>
      </trkpt>
      <trkpt lat="45.28685" lon="1.9552">
        <ele>537.5</ele>
        <time>2012-08-30T08:57:05Z</time>
      </trkpt>
      <trkpt lat="45.28686" lon="1.95515">
        <ele>537.5</ele>
        <time>2012-08-30T08:57:08Z</time>
      </trkpt>
      <trkpt lat="45.28687" lon="1.95505">
        <ele>536.5</ele>
        <time>2012-08-30T08:57:12Z</time>
      </trkpt>
      <trkpt lat="45.28688" lon="1.955">
        <ele>536.1</ele>
        <time>2012-08-30T08:57:14Z</time>
      </trkpt>
      <trkpt lat="45.28688" lon="1.95497">
        <ele>536.1</ele>
        <time>2012-08-30T08:57:15Z</time>
      </trkpt>
      <trkpt lat="45.28692" lon="1.95477">
        <ele>536.1</ele>
        <time>2012-08-30T08:57:21Z</time>
      </trkpt>
      <trkpt lat="45.28695" lon="1.9547">
        <ele>536.1</ele>
        <time>2012-08-30T08:57:27Z</time>
      </trkpt>
      <trkpt lat="45.28696" lon="1.95469">
        <ele>535.1</ele>
        <time>2012-08-30T08:57:33Z</time>
      </trkpt>
      <trkpt lat="45.287" lon="1.95464">
        <ele>535.6</ele>
        <time>2012-08-30T08:57:38Z</time>
      </trkpt>
      <trkpt lat="45.28702" lon="1.95463">
        <ele>535.6</ele>
        <time>2012-08-30T08:57:39Z</time>
      </trkpt>
      <trkpt lat="45.28703" lon="1.95462">
        <ele>535.6</ele>
        <time>2012-08-30T08:57:40Z</time>
      </trkpt>
      <trkpt lat="45.28713" lon="1.9545">
        <ele>535.6</ele>
        <time>2012-08-30T08:57:46Z</time>
      </trkpt>
      <trkpt lat="45.28725" lon="1.95438">
        <ele>535.6</ele>
        <time>2012-08-30T08:57:52Z</time>
      </trkpt>
      <trkpt lat="45.28727" lon="1.95437">
        <ele>535.6</ele>
        <time>2012-08-30T08:57:53Z</time>
      </trkpt>
      <trkpt lat="45.28732" lon="1.95435">
        <ele>536.1</ele>
        <time>2012-08-30T08:58:00Z</time>
      </trkpt>
      <trkpt lat="45.28735" lon="1.95436">
        <ele>537</ele>
        <time>2012-08-30T08:58:06Z</time>
      </trkpt>
      <trkpt lat="45.28743" lon="1.95437">
        <ele>537</ele>
        <time>2012-08-30T08:58:15Z</time>
      </trkpt>
      <trkpt lat="45.28754" lon="1.95435">
        <ele>537</ele>
        <time>2012-08-30T08:58:22Z</time>
      </trkpt>
      <trkpt lat="45.28766" lon="1.95428">
        <ele>537.5</ele>
        <time>2012-08-30T08:58:28Z</time>
      </trkpt>
      <trkpt lat="45.2877" lon="1.95424">
        <ele>538</ele>
        <time>2012-08-30T08:58:30Z</time>
      </trkpt>
      <trkpt lat="45.2877" lon="1.95421">
        <ele>538</ele>
        <time>2012-08-30T08:58:31Z</time>
      </trkpt>
      <trkpt lat="45.28772" lon="1.95418">
        <ele>538</ele>
        <time>2012-08-30T08:58:32Z</time>
      </trkpt>
      <trkpt lat="45.28779" lon="1.95401">
        <ele>538</ele>
        <time>2012-08-30T08:58:39Z</time>
      </trkpt>
      <trkpt lat="45.28782" lon="1.9539">
        <ele>537.5</ele>
        <time>2012-08-30T08:58:45Z</time>
      </trkpt>
      <trkpt lat="45.28783" lon="1.95389">
        <ele>538</ele>
        <time>2012-08-30T08:58:46Z</time>
      </trkpt>
      <trkpt lat="45.28784" lon="1.95388">
        <ele>538.5</ele>
        <time>2012-08-30T08:58:47Z</time>
      </trkpt>
      <trkpt lat="45.28784" lon="1.95386">
        <ele>538.5</ele>
        <time>2012-08-30T08:58:48Z</time>
      </trkpt>
      <trkpt lat="45.28784" lon="1.95386">
        <ele>538</ele>
        <time>2012-08-30T08:58:49Z</time>
      </trkpt>
      <trkpt lat="45.28785" lon="1.95385">
        <ele>538</ele>
        <time>2012-08-30T08:58:50Z</time>
      </trkpt>
      <trkpt lat="45.28786" lon="1.95381">
        <ele>538</ele>
        <time>2012-08-30T08:58:56Z</time>
      </trkpt>
      <trkpt lat="45.28787" lon="1.95379">
        <ele>538.5</ele>
        <time>2012-08-30T08:59:03Z</time>
      </trkpt>
      <trkpt lat="45.28792" lon="1.95377">
        <ele>539</ele>
        <time>2012-08-30T08:59:08Z</time>
      </trkpt>
      <trkpt lat="45.28806" lon="1.95371">
        <ele>538.5</ele>
        <time>2012-08-30T08:59:14Z</time>
      </trkpt>
      <trkpt lat="45.28823" lon="1.95364">
        <ele>539.4</ele>
        <time>2012-08-30T08:59:20Z</time>
      </trkpt>
      <trkpt lat="45.2883" lon="1.9536">
        <ele>539.4</ele>
        <time>2012-08-30T08:59:25Z</time>
      </trkpt>
      <trkpt lat="45.28831" lon="1.9536">
        <ele>540.4</ele>
        <time>2012-08-30T08:59:31Z</time>
      </trkpt>
      <trkpt lat="45.28833" lon="1.9536">
        <ele>540.4</ele>
        <time>2012-08-30T08:59:38Z</time>
      </trkpt>
      <trkpt lat="45.28835" lon="1.95359">
        <ele>540.4</ele>
        <time>2012-08-30T08:59:39Z</time>
      </trkpt>
      <trkpt lat="45.28836" lon="1.95359">
        <ele>540.9</ele>
        <time>2012-08-30T08:59:40Z</time>
      </trkpt>
      <trkpt lat="45.28838" lon="1.95358">
        <ele>540.9</ele>
        <time>2012-08-30T08:59:42Z</time>
      </trkpt>
      <trkpt lat="45.2884" lon="1.95356">
        <ele>541.8</ele>
        <time>2012-08-30T08:59:43Z</time>
      </trkpt>
      <trkpt lat="45.28851" lon="1.9534">
        <ele>540.9</ele>
        <time>2012-08-30T08:59:50Z</time>
      </trkpt>
      <trkpt lat="45.28864" lon="1.95322">
        <ele>542.3</ele>
        <time>2012-08-30T08:59:55Z</time>
      </trkpt>
      <trkpt lat="45.28872" lon="1.95309">
        <ele>541.4</ele>
        <time>2012-08-30T08:59:59Z</time>
      </trkpt>
      <trkpt lat="45.28876" lon="1.953">
        <ele>542.8</ele>
        <time>2012-08-30T09:00:02Z</time>
      </trkpt>
      <trkpt lat="45.28878" lon="1.95297">
        <ele>542.3</ele>
        <time>2012-08-30T09:00:04Z</time>
      </trkpt>
      <trkpt lat="45.2888" lon="1.95295">
        <ele>542.3</ele>
        <time>2012-08-30T09:00:07Z</time>
      </trkpt>
      <trkpt lat="45.28882" lon="1.95294">
        <ele>542.8</ele>
        <time>2012-08-30T09:00:08Z</time>
      </trkpt>
      <trkpt lat="45.28884" lon="1.9529">
        <ele>544.2</ele>
        <time>2012-08-30T09:00:10Z</time>
      </trkpt>
      <trkpt lat="45.28887" lon="1.95292">
        <ele>544.7</ele>
        <time>2012-08-30T09:00:16Z</time>
      </trkpt>
      <trkpt lat="45.28887" lon="1.95295">
        <ele>544.2</ele>
        <time>2012-08-30T09:00:22Z</time>
      </trkpt>
      <trkpt lat="45.28886" lon="1.95294">
        <ele>544.2</ele>
        <time>2012-08-30T09:00:33Z</time>
      </trkpt>
      <trkpt lat="45.28883" lon="1.95292">
        <ele>544.7</ele>
        <time>2012-08-30T09:00:35Z</time>
      </trkpt>
      <trkpt lat="45.28882" lon="1.95291">
        <ele>543.8</ele>
        <time>2012-08-30T09:00:36Z</time>
      </trkpt>
      <trkpt lat="45.2888" lon="1.95288">
        <ele>544.2</ele>
        <time>2012-08-30T09:00:37Z</time>
      </trkpt>
      <trkpt lat="45.28879" lon="1.95285">
        <ele>543.3</ele>
        <time>2012-08-30T09:00:38Z</time>
      </trkpt>
      <trkpt lat="45.28878" lon="1.95282">
        <ele>543.3</ele>
        <time>2012-08-30T09:00:39Z</time>
      </trkpt>
      <trkpt lat="45.28877" lon="1.95279">
        <ele>544.2</ele>
        <time>2012-08-30T09:00:40Z</time>
      </trkpt>
      <trkpt lat="45.28865" lon="1.95249">
        <ele>544.7</ele>
        <time>2012-08-30T09:00:47Z</time>
      </trkpt>
      <trkpt lat="45.28857" lon="1.95221">
        <ele>545.7</ele>
        <time>2012-08-30T09:00:53Z</time>
      </trkpt>
      <trkpt lat="45.28863" lon="1.9519">
        <ele>545.7</ele>
        <time>2012-08-30T09:00:59Z</time>
      </trkpt>
      <trkpt lat="45.28884" lon="1.95162">
        <ele>545.7</ele>
        <time>2012-08-30T09:01:06Z</time>
      </trkpt>
      <trkpt lat="45.2891" lon="1.95143">
        <ele>546.2</ele>
        <time>2012-08-30T09:01:13Z</time>
      </trkpt>
      <trkpt lat="45.28944" lon="1.95133">
        <ele>546.7</ele>
        <time>2012-08-30T09:01:21Z</time>
      </trkpt>
      <trkpt lat="45.28948" lon="1.95133">
        <ele>546.2</ele>
        <time>2012-08-30T09:01:22Z</time>
      </trkpt>
      <trkpt lat="45.28953" lon="1.95135">
        <ele>546.2</ele>
        <time>2012-08-30T09:01:23Z</time>
      </trkpt>
      <trkpt lat="45.28961" lon="1.9514">
        <ele>546.2</ele>
        <time>2012-08-30T09:01:25Z</time>
      </trkpt>
      <trkpt lat="45.28965" lon="1.95142">
        <ele>546.2</ele>
        <time>2012-08-30T09:01:26Z</time>
      </trkpt>
      <trkpt lat="45.28968" lon="1.95145">
        <ele>546.2</ele>
        <time>2012-08-30T09:01:27Z</time>
      </trkpt>
      <trkpt lat="45.28972" lon="1.95149">
        <ele>546.7</ele>
        <time>2012-08-30T09:01:28Z</time>
      </trkpt>
      <trkpt lat="45.28975" lon="1.95153">
        <ele>547.1</ele>
        <time>2012-08-30T09:01:29Z</time>
      </trkpt>
      <trkpt lat="45.28978" lon="1.95157">
        <ele>547.6</ele>
        <time>2012-08-30T09:01:30Z</time>
      </trkpt>
      <trkpt lat="45.2898" lon="1.95161">
        <ele>546.2</ele>
        <time>2012-08-30T09:01:31Z</time>
      </trkpt>
      <trkpt lat="45.28983" lon="1.95165">
        <ele>545.7</ele>
        <time>2012-08-30T09:01:32Z</time>
      </trkpt>
      <trkpt lat="45.28985" lon="1.9517">
        <ele>545.7</ele>
        <time>2012-08-30T09:01:33Z</time>
      </trkpt>
      <trkpt lat="45.28988" lon="1.95174">
        <ele>545.2</ele>
        <time>2012-08-30T09:01:34Z</time>
      </trkpt>
      <trkpt lat="45.28992" lon="1.95176">
        <ele>546.2</ele>
        <time>2012-08-30T09:01:35Z</time>
      </trkpt>
      <trkpt lat="45.28996" lon="1.95177">
        <ele>545.7</ele>
        <time>2012-08-30T09:01:36Z</time>
      </trkpt>
      <trkpt lat="45.29001" lon="1.95176">
        <ele>545.2</ele>
        <time>2012-08-30T09:01:37Z</time>
      </trkpt>
      <trkpt lat="45.29005" lon="1.95175">
        <ele>545.7</ele>
        <time>2012-08-30T09:01:38Z</time>
      </trkpt>
      <trkpt lat="45.29009" lon="1.95173">
        <ele>546.2</ele>
        <time>2012-08-30T09:01:39Z</time>
      </trkpt>
      <trkpt lat="45.29034" lon="1.95156">
        <ele>546.7</ele>
        <time>2012-08-30T09:01:46Z</time>
      </trkpt>
      <trkpt lat="45.29052" lon="1.9515">
        <ele>546.7</ele>
        <time>2012-08-30T09:01:50Z</time>
      </trkpt>
      <trkpt lat="45.29062" lon="1.95151">
        <ele>547.1</ele>
        <time>2012-08-30T09:01:52Z</time>
      </trkpt>
      <trkpt lat="45.29081" lon="1.95156">
        <ele>546.7</ele>
        <time>2012-08-30T09:01:56Z</time>
      </trkpt>
      <trkpt lat="45.29086" lon="1.95156">
        <ele>546.7</ele>
        <time>2012-08-30T09:01:57Z</time>
      </trkpt>
      <trkpt lat="45.29095" lon="1.95156">
        <ele>546.7</ele>
        <time>2012-08-30T09:01:59Z</time>
      </trkpt>
      <trkpt lat="45.29098" lon="1.95154">
        <ele>547.1</ele>
        <time>2012-08-30T09:02:00Z</time>
      </trkpt>
      <trkpt lat="45.29101" lon="1.95152">
        <ele>547.6</ele>
        <time>2012-08-30T09:02:01Z</time>
      </trkpt>
      <trkpt lat="45.29103" lon="1.95148">
        <ele>547.1</ele>
        <time>2012-08-30T09:02:02Z</time>
      </trkpt>
      <trkpt lat="45.29103" lon="1.95143">
        <ele>547.1</ele>
        <time>2012-08-30T09:02:03Z</time>
      </trkpt>
      <trkpt lat="45.29103" lon="1.95136">
        <ele>547.6</ele>
        <time>2012-08-30T09:02:04Z</time>
      </trkpt>
      <trkpt lat="45.29102" lon="1.95128">
        <ele>547.1</ele>
        <time>2012-08-30T09:02:05Z</time>
      </trkpt>
      <trkpt lat="45.29099" lon="1.95121">
        <ele>547.1</ele>
        <time>2012-08-30T09:02:06Z</time>
      </trkpt>
      <trkpt lat="45.29095" lon="1.95114">
        <ele>547.1</ele>
        <time>2012-08-30T09:02:07Z</time>
      </trkpt>
      <trkpt lat="45.29091" lon="1.95109">
        <ele>547.1</ele>
        <time>2012-08-30T09:02:08Z</time>
      </trkpt>
      <trkpt lat="45.29086" lon="1.95105">
        <ele>546.7</ele>
        <time>2012-08-30T09:02:09Z</time>
      </trkpt>
      <trkpt lat="45.29082" lon="1.951">
        <ele>546.7</ele>
        <time>2012-08-30T09:02:10Z</time>
      </trkpt>
      <trkpt lat="45.29077" lon="1.95095">
        <ele>547.1</ele>
        <time>2012-08-30T09:02:11Z</time>
      </trkpt>
      <trkpt lat="45.29068" lon="1.95086">
        <ele>547.1</ele>
        <time>2012-08-30T09:02:14Z</time>
      </trkpt>
      <trkpt lat="45.29066" lon="1.95081">
        <ele>546.2</ele>
        <time>2012-08-30T09:02:15Z</time>
      </trkpt>
      <trkpt lat="45.29066" lon="1.95076">
        <ele>546.7</ele>
        <time>2012-08-30T09:02:16Z</time>
      </trkpt>
      <trkpt lat="45.29067" lon="1.95071">
        <ele>546.2</ele>
        <time>2012-08-30T09:02:17Z</time>
      </trkpt>
      <trkpt lat="45.29069" lon="1.95066">
        <ele>547.1</ele>
        <time>2012-08-30T09:02:18Z</time>
      </trkpt>
      <trkpt lat="45.29071" lon="1.95062">
        <ele>547.1</ele>
        <time>2012-08-30T09:02:19Z</time>
      </trkpt>
      <trkpt lat="45.29073" lon="1.95057">
        <ele>547.6</ele>
        <time>2012-08-30T09:02:20Z</time>
      </trkpt>
      <trkpt lat="45.29076" lon="1.95052">
        <ele>547.6</ele>
        <time>2012-08-30T09:02:21Z</time>
      </trkpt>
      <trkpt lat="45.29083" lon="1.9503">
        <ele>548.1</ele>
        <time>2012-08-30T09:02:25Z</time>
      </trkpt>
      <trkpt lat="45.29083" lon="1.95024">
        <ele>548.1</ele>
        <time>2012-08-30T09:02:26Z</time>
      </trkpt>
      <trkpt lat="45.29082" lon="1.95017">
        <ele>548.6</ele>
        <time>2012-08-30T09:02:27Z</time>
      </trkpt>
      <trkpt lat="45.29079" lon="1.94978">
        <ele>548.6</ele>
        <time>2012-08-30T09:02:34Z</time>
      </trkpt>
      <trkpt lat="45.29085" lon="1.94946">
        <ele>547.1</ele>
        <time>2012-08-30T09:02:40Z</time>
      </trkpt>
      <trkpt lat="45.29097" lon="1.94926">
        <ele>546.7</ele>
        <time>2012-08-30T09:02:46Z</time>
      </trkpt>
      <trkpt lat="45.29117" lon="1.94916">
        <ele>546.7</ele>
        <time>2012-08-30T09:02:53Z</time>
      </trkpt>
      <trkpt lat="45.29132" lon="1.94909">
        <ele>545.7</ele>
        <time>2012-08-30T09:02:56Z</time>
      </trkpt>
      <trkpt lat="45.29135" lon="1.94905">
        <ele>545.7</ele>
        <time>2012-08-30T09:02:57Z</time>
      </trkpt>
      <trkpt lat="45.29138" lon="1.94902">
        <ele>546.2</ele>
        <time>2012-08-30T09:02:58Z</time>
      </trkpt>
      <trkpt lat="45.29139" lon="1.94897">
        <ele>545.7</ele>
        <time>2012-08-30T09:02:59Z</time>
      </trkpt>
      <trkpt lat="45.29136" lon="1.94884">
        <ele>546.2</ele>
        <time>2012-08-30T09:03:02Z</time>
      </trkpt>
      <trkpt lat="45.29108" lon="1.94852">
        <ele>545.7</ele>
        <time>2012-08-30T09:03:10Z</time>
      </trkpt>
      <trkpt lat="45.29081" lon="1.94828">
        <ele>545.7</ele>
        <time>2012-08-30T09:03:17Z</time>
      </trkpt>
      <trkpt lat="45.29077" lon="1.94826">
        <ele>545.7</ele>
        <time>2012-08-30T09:03:18Z</time>
      </trkpt>
      <trkpt lat="45.29073" lon="1.94826">
        <ele>545.7</ele>
        <time>2012-08-30T09:03:19Z</time>
      </trkpt>
      <trkpt lat="45.29069" lon="1.94826">
        <ele>545.7</ele>
        <time>2012-08-30T09:03:20Z</time>
      </trkpt>
      <trkpt lat="45.29065" lon="1.94828">
        <ele>546.7</ele>
        <time>2012-08-30T09:03:21Z</time>
      </trkpt>
      <trkpt lat="45.2906" lon="1.9483">
        <ele>545.7</ele>
        <time>2012-08-30T09:03:22Z</time>
      </trkpt>
      <trkpt lat="45.29057" lon="1.94833">
        <ele>545.7</ele>
        <time>2012-08-30T09:03:23Z</time>
      </trkpt>
      <trkpt lat="45.29053" lon="1.94836">
        <ele>545.7</ele>
        <time>2012-08-30T09:03:24Z</time>
      </trkpt>
      <trkpt lat="45.29049" lon="1.94839">
        <ele>545.2</ele>
        <time>2012-08-30T09:03:25Z</time>
      </trkpt>
      <trkpt lat="45.29023" lon="1.94865">
        <ele>544.7</ele>
        <time>2012-08-30T09:03:33Z</time>
      </trkpt>
      <trkpt lat="45.2902" lon="1.94867">
        <ele>545.2</ele>
        <time>2012-08-30T09:03:34Z</time>
      </trkpt>
      <trkpt lat="45.29017" lon="1.94866">
        <ele>544.7</ele>
        <time>2012-08-30T09:03:35Z</time>
      </trkpt>
      <trkpt lat="45.29015" lon="1.94864">
        <ele>544.7</ele>
        <time>2012-08-30T09:03:36Z</time>
      </trkpt>
      <trkpt lat="45.29013" lon="1.94845">
        <ele>544.2</ele>
        <time>2012-08-30T09:03:40Z</time>
      </trkpt>
      <trkpt lat="45.29015" lon="1.94841">
        <ele>544.2</ele>
        <time>2012-08-30T09:03:41Z</time>
      </trkpt>
      <trkpt lat="45.29033" lon="1.94798">
        <ele>546.7</ele>
        <time>2012-08-30T09:03:49Z</time>
      </trkpt>
      <trkpt lat="45.29044" lon="1.94771">
        <ele>549</ele>
        <time>2012-08-30T09:03:55Z</time>
      </trkpt>
      <trkpt lat="45.29046" lon="1.94769">
        <ele>550</ele>
        <time>2012-08-30T09:03:56Z</time>
      </trkpt>
      <trkpt lat="45.29049" lon="1.94768">
        <ele>550</ele>
        <time>2012-08-30T09:03:57Z</time>
      </trkpt>
      <trkpt lat="45.28995" lon="1.94726">
        <ele>550.2</ele>
      </trkpt>
      <trkpt lat="45.28971" lon="1.94731">
        <ele>549.05</ele>
        <time>2012-08-30T09:07:17Z</time>
      </trkpt>
      <trkpt lat="45.28965" lon="1.94734">
        <ele>548.57</ele>
        <time>2012-08-30T09:07:18Z</time>
      </trkpt>
      <trkpt lat="45.28923" lon="1.94758">
        <ele>550.49</ele>
        <time>2012-08-30T09:07:26Z</time>
      </trkpt>
      <trkpt lat="45.28919" lon="1.9476">
        <ele>551.45</ele>
        <time>2012-08-30T09:07:27Z</time>
      </trkpt>
      <trkpt lat="45.28916" lon="1.9476">
        <ele>550.97</ele>
        <time>2012-08-30T09:07:28Z</time>
      </trkpt>
      <trkpt lat="45.28913" lon="1.9476">
        <ele>550.97</ele>
        <time>2012-08-30T09:07:29Z</time>
      </trkpt>
      <trkpt lat="45.28911" lon="1.94759">
        <ele>550.97</ele>
        <time>2012-08-30T09:07:30Z</time>
      </trkpt>
      <trkpt lat="45.28909" lon="1.94758">
        <ele>551.45</ele>
        <time>2012-08-30T09:07:31Z</time>
      </trkpt>
      <trkpt lat="45.28908" lon="1.94755">
        <ele>551.45</ele>
        <time>2012-08-30T09:07:32Z</time>
      </trkpt>
      <trkpt lat="45.28907" lon="1.94752">
        <ele>551.45</ele>
        <time>2012-08-30T09:07:33Z</time>
      </trkpt>
      <trkpt lat="45.28907" lon="1.94749">
        <ele>551.93</ele>
        <time>2012-08-30T09:07:34Z</time>
      </trkpt>
      <trkpt lat="45.28903" lon="1.94734">
        <ele>553.38</ele>
        <time>2012-08-30T09:07:38Z</time>
      </trkpt>
      <trkpt lat="45.28907" lon="1.94706">
        <ele>556.26</ele>
        <time>2012-08-30T09:07:45Z</time>
      </trkpt>
      <trkpt lat="45.28922" lon="1.94674">
        <ele>558.18</ele>
        <time>2012-08-30T09:07:52Z</time>
      </trkpt>
      <trkpt lat="45.28926" lon="1.94663">
        <ele>558.66</ele>
        <time>2012-08-30T09:07:54Z</time>
      </trkpt>
      <trkpt lat="45.28928" lon="1.94656">
        <ele>558.66</ele>
        <time>2012-08-30T09:07:55Z</time>
      </trkpt>
      <trkpt lat="45.28929" lon="1.94649">
        <ele>558.66</ele>
        <time>2012-08-30T09:07:56Z</time>
      </trkpt>
      <trkpt lat="45.2893" lon="1.94636">
        <ele>559.62</ele>
        <time>2012-08-30T09:07:58Z</time>
      </trkpt>
      <trkpt lat="45.2893" lon="1.9463">
        <ele>560.11</ele>
        <time>2012-08-30T09:07:59Z</time>
      </trkpt>
      <trkpt lat="45.28931" lon="1.94602">
        <ele>557.22</ele>
        <time>2012-08-30T09:08:04Z</time>
      </trkpt>
      <trkpt lat="45.2893" lon="1.94597">
        <ele>561.55</ele>
        <time>2012-08-30T09:08:05Z</time>
      </trkpt>
      <trkpt lat="45.2893" lon="1.9458">
        <ele>561.07</ele>
        <time>2012-08-30T09:08:07Z</time>
      </trkpt>
      <trkpt lat="45.28918" lon="1.94531">
        <ele>562.51</ele>
        <time>2012-08-30T09:08:13Z</time>
      </trkpt>
      <trkpt lat="45.289" lon="1.94476">
        <ele>564.43</ele>
        <time>2012-08-30T09:08:20Z</time>
      </trkpt>
      <trkpt lat="45.28885" lon="1.94422">
        <ele>566.35</ele>
        <time>2012-08-30T09:08:27Z</time>
      </trkpt>
      <trkpt lat="45.28882" lon="1.94417">
        <ele>567.32</ele>
        <time>2012-08-30T09:08:28Z</time>
      </trkpt>
      <trkpt lat="45.28879" lon="1.94412">
        <ele>567.32</ele>
        <time>2012-08-30T09:08:29Z</time>
      </trkpt>
      <trkpt lat="45.28876" lon="1.94409">
        <ele>567.8</ele>
        <time>2012-08-30T09:08:30Z</time>
      </trkpt>
      <trkpt lat="45.28872" lon="1.94407">
        <ele>568.76</ele>
        <time>2012-08-30T09:08:31Z</time>
      </trkpt>
      <trkpt lat="45.28868" lon="1.94406">
        <ele>568.76</ele>
        <time>2012-08-30T09:08:32Z</time>
      </trkpt>
      <trkpt lat="45.28864" lon="1.94405">
        <ele>569.24</ele>
        <time>2012-08-30T09:08:33Z</time>
      </trkpt>
      <trkpt lat="45.28859" lon="1.94404">
        <ele>570.2</ele>
        <time>2012-08-30T09:08:34Z</time>
      </trkpt>
      <trkpt lat="45.28838" lon="1.94403">
        <ele>572.6</ele>
        <time>2012-08-30T09:08:38Z</time>
      </trkpt>
      <trkpt lat="45.2882" lon="1.94402">
        <ele>573.56</ele>
        <time>2012-08-30T09:08:41Z</time>
      </trkpt>
      <trkpt lat="45.28814" lon="1.944">
        <ele>574.04</ele>
        <time>2012-08-30T09:08:42Z</time>
      </trkpt>
      <trkpt lat="45.28809" lon="1.94397">
        <ele>574.53</ele>
        <time>2012-08-30T09:08:43Z</time>
      </trkpt>
      <trkpt lat="45.28803" lon="1.94394">
        <ele>575.01</ele>
        <time>2012-08-30T09:08:44Z</time>
      </trkpt>
      <trkpt lat="45.28798" lon="1.9439">
        <ele>575.97</ele>
        <time>2012-08-30T09:08:45Z</time>
      </trkpt>
      <trkpt lat="45.28793" lon="1.94385">
        <ele>576.45</ele>
        <time>2012-08-30T09:08:46Z</time>
      </trkpt>
      <trkpt lat="45.28788" lon="1.9438">
        <ele>576.93</ele>
        <time>2012-08-30T09:08:47Z</time>
      </trkpt>
      <trkpt lat="45.28783" lon="1.94373">
        <ele>577.41</ele>
        <time>2012-08-30T09:08:48Z</time>
      </trkpt>
      <trkpt lat="45.28776" lon="1.94359">
        <ele>578.37</ele>
        <time>2012-08-30T09:08:50Z</time>
      </trkpt>
      <trkpt lat="45.28768" lon="1.94324">
        <ele>580.29</ele>
        <time>2012-08-30T09:08:56Z</time>
      </trkpt>
      <trkpt lat="45.28763" lon="1.943">
        <ele>581.25</ele>
        <time>2012-08-30T09:09:00Z</time>
      </trkpt>
      <trkpt lat="45.28759" lon="1.94296">
        <ele>581.25</ele>
        <time>2012-08-30T09:09:01Z</time>
      </trkpt>
      <trkpt lat="45.28755" lon="1.94292">
        <ele>581.73</ele>
        <time>2012-08-30T09:09:02Z</time>
      </trkpt>
      <trkpt lat="45.28742" lon="1.9428">
        <ele>583.18</ele>
        <time>2012-08-30T09:09:05Z</time>
      </trkpt>
      <trkpt lat="45.287" lon="1.94249">
        <ele>582.7</ele>
        <time>2012-08-30T09:09:13Z</time>
      </trkpt>
      <trkpt lat="45.28666" lon="1.94223">
        <ele>581.25</ele>
        <time>2012-08-30T09:09:18Z</time>
      </trkpt>
      <trkpt lat="45.28658" lon="1.94218">
        <ele>581.73</ele>
        <time>2012-08-30T09:09:19Z</time>
      </trkpt>
      <trkpt lat="45.28638" lon="1.94208">
        <ele>580.29</ele>
        <time>2012-08-30T09:09:22Z</time>
      </trkpt>
      <trkpt lat="45.28581" lon="1.94191">
        <ele>578.37</ele>
        <time>2012-08-30T09:09:30Z</time>
      </trkpt>
      <trkpt lat="45.2854" lon="1.94184">
        <ele>579.81</ele>
        <time>2012-08-30T09:09:36Z</time>
      </trkpt>
      <trkpt lat="45.2849" lon="1.94179">
        <ele>578.85</ele>
        <time>2012-08-30T09:09:43Z</time>
      </trkpt>
      <trkpt lat="45.28448" lon="1.94176">
        <ele>578.85</ele>
        <time>2012-08-30T09:09:50Z</time>
      </trkpt>
      <trkpt lat="45.28391" lon="1.94183">
        <ele>576.45</ele>
        <time>2012-08-30T09:09:59Z</time>
      </trkpt>
      <trkpt lat="45.28336" lon="1.94196">
        <ele>574.04</ele>
        <time>2012-08-30T09:10:07Z</time>
      </trkpt>
      <trkpt lat="45.28272" lon="1.94211">
        <ele>570.68</ele>
        <time>2012-08-30T09:10:16Z</time>
      </trkpt>
      <trkpt lat="45.28202" lon="1.94227">
        <ele>567.8</ele>
        <time>2012-08-30T09:10:26Z</time>
      </trkpt>
      <trkpt lat="45.28158" lon="1.94245">
        <ele>568.28</ele>
        <time>2012-08-30T09:10:32Z</time>
      </trkpt>
      <trkpt lat="45.28072" lon="1.94269">
        <ele>565.87</ele>
        <time>2012-08-30T09:10:39Z</time>
      </trkpt>
      <trkpt lat="45.28018" lon="1.94292">
        <ele>562.99</ele>
        <time>2012-08-30T09:10:45Z</time>
      </trkpt>
      <trkpt lat="45.28006" lon="1.94294">
        <ele>560.59</ele>
        <time>2012-08-30T09:10:48Z</time>
      </trkpt>
      <trkpt lat="45.28006" lon="1.94294">
        <ele>554.82</ele>
        <time>2012-08-30T09:10:49Z</time>
      </trkpt>
      <trkpt lat="45.28006" lon="1.94294">
        <ele>561.55</ele>
        <time>2012-08-30T09:10:50Z</time>
      </trkpt>
      <trkpt lat="45.28001" lon="1.94298">
        <ele>560.59</ele>
        <time>2012-08-30T09:10:52Z</time>
      </trkpt>
      <trkpt lat="45.27988" lon="1.9431">
        <ele>552.41</ele>
        <time>2012-08-30T09:10:55Z</time>
      </trkpt>
      <trkpt lat="45.27982" lon="1.94314">
        <ele>562.03</ele>
        <time>2012-08-30T09:10:56Z</time>
      </trkpt>
      <trkpt lat="45.27974" lon="1.94316">
        <ele>563.95</ele>
        <time>2012-08-30T09:10:57Z</time>
      </trkpt>
      <trkpt lat="45.27964" lon="1.94319">
        <ele>563.95</ele>
        <time>2012-08-30T09:10:58Z</time>
      </trkpt>
      <trkpt lat="45.27918" lon="1.94332">
        <ele>564.43</ele>
        <time>2012-08-30T09:11:03Z</time>
      </trkpt>
      <trkpt lat="45.27911" lon="1.94337">
        <ele>563.47</ele>
        <time>2012-08-30T09:11:04Z</time>
      </trkpt>
      <trkpt lat="45.27903" lon="1.94344">
        <ele>562.99</ele>
        <time>2012-08-30T09:11:05Z</time>
      </trkpt>
      <trkpt lat="45.27897" lon="1.94352">
        <ele>562.99</ele>
        <time>2012-08-30T09:11:06Z</time>
      </trkpt>
      <trkpt lat="45.2789" lon="1.94361">
        <ele>562.99</ele>
        <time>2012-08-30T09:11:07Z</time>
      </trkpt>
      <trkpt lat="45.27863" lon="1.94397">
        <ele>566.35</ele>
        <time>2012-08-30T09:11:11Z</time>
      </trkpt>
      <trkpt lat="45.27835" lon="1.94431">
        <ele>569.72</ele>
        <time>2012-08-30T09:11:16Z</time>
      </trkpt>
      <trkpt lat="45.27829" lon="1.94435">
        <ele>570.2</ele>
        <time>2012-08-30T09:11:17Z</time>
      </trkpt>
      <trkpt lat="45.27804" lon="1.94451">
        <ele>568.28</ele>
        <time>2012-08-30T09:11:21Z</time>
      </trkpt>
      <trkpt lat="45.27799" lon="1.94456">
        <ele>568.76</ele>
        <time>2012-08-30T09:11:22Z</time>
      </trkpt>
      <trkpt lat="45.27795" lon="1.94462">
        <ele>568.28</ele>
        <time>2012-08-30T09:11:23Z</time>
      </trkpt>
      <trkpt lat="45.27769" lon="1.94507">
        <ele>565.39</ele>
        <time>2012-08-30T09:11:31Z</time>
      </trkpt>
      <trkpt lat="45.27764" lon="1.94515">
        <ele>563.95</ele>
        <time>2012-08-30T09:11:33Z</time>
      </trkpt>
      <trkpt lat="45.27762" lon="1.94517">
        <ele>563.95</ele>
        <time>2012-08-30T09:11:34Z</time>
      </trkpt>
      <trkpt lat="45.27758" lon="1.94517">
        <ele>563.47</ele>
        <time>2012-08-30T09:11:35Z</time>
      </trkpt>
      <trkpt lat="45.27755" lon="1.94516">
        <ele>562.99</ele>
        <time>2012-08-30T09:11:36Z</time>
      </trkpt>
      <trkpt lat="45.27753" lon="1.94513">
        <ele>562.99</ele>
        <time>2012-08-30T09:11:37Z</time>
      </trkpt>
      <trkpt lat="45.27751" lon="1.94509">
        <ele>562.99</ele>
        <time>2012-08-30T09:11:38Z</time>
      </trkpt>
      <trkpt lat="45.2775" lon="1.94505">
        <ele>562.51</ele>
        <time>2012-08-30T09:11:39Z</time>
      </trkpt>
      <trkpt lat="45.27736" lon="1.94484">
        <ele>560.11</ele>
        <time>2012-08-30T09:11:46Z</time>
      </trkpt>
      <trkpt lat="45.27731" lon="1.94484">
        <ele>559.14</ele>
        <time>2012-08-30T09:11:48Z</time>
      </trkpt>
      <trkpt lat="45.27713" lon="1.94487">
        <ele>556.26</ele>
        <time>2012-08-30T09:11:54Z</time>
      </trkpt>
      <trkpt lat="45.27708" lon="1.94488">
        <ele>556.26</ele>
        <time>2012-08-30T09:11:55Z</time>
      </trkpt>
      <trkpt lat="45.2769" lon="1.94495">
        <ele>552.9</ele>
        <time>2012-08-30T09:12:01Z</time>
      </trkpt>
      <trkpt lat="45.27688" lon="1.94496">
        <ele>552.9</ele>
        <time>2012-08-30T09:12:02Z</time>
      </trkpt>
      <trkpt lat="45.27681" lon="1.94496">
        <ele>552.41</ele>
        <time>2012-08-30T09:12:09Z</time>
      </trkpt>
      <trkpt lat="45.27679" lon="1.94494">
        <ele>551.93</ele>
        <time>2012-08-30T09:12:17Z</time>
      </trkpt>
      <trkpt lat="45.27678" lon="1.94492">
        <ele>551.93</ele>
        <time>2012-08-30T09:12:18Z</time>
      </trkpt>
      <trkpt lat="45.27677" lon="1.94488">
        <ele>552.41</ele>
        <time>2012-08-30T09:12:19Z</time>
      </trkpt>
      <trkpt lat="45.2767" lon="1.94454">
        <ele>552.9</ele>
        <time>2012-08-30T09:12:25Z</time>
      </trkpt>
      <trkpt lat="45.27656" lon="1.94402">
        <ele>553.86</ele>
        <time>2012-08-30T09:12:31Z</time>
      </trkpt>
      <trkpt lat="45.27654" lon="1.94394">
        <ele>553.86</ele>
        <time>2012-08-30T09:12:32Z</time>
      </trkpt>
      <trkpt lat="45.27653" lon="1.94387">
        <ele>555.3</ele>
        <time>2012-08-30T09:12:33Z</time>
      </trkpt>
      <trkpt lat="45.27653" lon="1.9438">
        <ele>554.34</ele>
        <time>2012-08-30T09:12:34Z</time>
      </trkpt>
      <trkpt lat="45.27651" lon="1.94325">
        <ele>552.9</ele>
        <time>2012-08-30T09:12:40Z</time>
      </trkpt>
      <trkpt lat="45.2765" lon="1.94315">
        <ele>552.9</ele>
        <time>2012-08-30T09:12:41Z</time>
      </trkpt>
      <trkpt lat="45.27647" lon="1.94305">
        <ele>552.41</ele>
        <time>2012-08-30T09:12:42Z</time>
      </trkpt>
      <trkpt lat="45.27644" lon="1.94295">
        <ele>552.9</ele>
        <time>2012-08-30T09:12:43Z</time>
      </trkpt>
      <trkpt lat="45.27639" lon="1.94285">
        <ele>553.38</ele>
        <time>2012-08-30T09:12:44Z</time>
      </trkpt>
      <trkpt lat="45.27633" lon="1.94275">
        <ele>553.86</ele>
        <time>2012-08-30T09:12:45Z</time>
      </trkpt>
      <trkpt lat="45.27626" lon="1.94267">
        <ele>554.82</ele>
        <time>2012-08-30T09:12:46Z</time>
      </trkpt>
      <trkpt lat="45.27618" lon="1.9426">
        <ele>553.38</ele>
        <time>2012-08-30T09:12:47Z</time>
      </trkpt>
      <trkpt lat="45.2761" lon="1.94252">
        <ele>552.9</ele>
        <time>2012-08-30T09:12:48Z</time>
      </trkpt>
      <trkpt lat="45.27539" lon="1.94186">
        <ele>552.9</ele>
        <time>2012-08-30T09:12:57Z</time>
      </trkpt>
      <trkpt lat="45.27533" lon="1.9418">
        <ele>550.97</ele>
        <time>2012-08-30T09:12:58Z</time>
      </trkpt>
      <trkpt lat="45.27525" lon="1.94176">
        <ele>550.49</ele>
        <time>2012-08-30T09:12:59Z</time>
      </trkpt>
      <trkpt lat="45.27517" lon="1.94172">
        <ele>550.97</ele>
        <time>2012-08-30T09:13:00Z</time>
      </trkpt>
      <trkpt lat="45.27508" lon="1.9417">
        <ele>550.49</ele>
        <time>2012-08-30T09:13:01Z</time>
      </trkpt>
      <trkpt lat="45.275" lon="1.94168">
        <ele>550.01</ele>
        <time>2012-08-30T09:13:02Z</time>
      </trkpt>
      <trkpt lat="45.27483" lon="1.94164">
        <ele>550.97</ele>
        <time>2012-08-30T09:13:04Z</time>
      </trkpt>
      <trkpt lat="45.27475" lon="1.9416">
        <ele>550.97</ele>
        <time>2012-08-30T09:13:05Z</time>
      </trkpt>
      <trkpt lat="45.27469" lon="1.94153">
        <ele>550.97</ele>
        <time>2012-08-30T09:13:06Z</time>
      </trkpt>
      <trkpt lat="45.27463" lon="1.94145">
        <ele>550.97</ele>
        <time>2012-08-30T09:13:07Z</time>
      </trkpt>
      <trkpt lat="45.27457" lon="1.94136">
        <ele>550.97</ele>
        <time>2012-08-30T09:13:08Z</time>
      </trkpt>
      <trkpt lat="45.27452" lon="1.94126">
        <ele>550.97</ele>
        <time>2012-08-30T09:13:09Z</time>
      </trkpt>
      <trkpt lat="45.27447" lon="1.94115">
        <ele>550.49</ele>
        <time>2012-08-30T09:13:10Z</time>
      </trkpt>
      <trkpt lat="45.27442" lon="1.94104">
        <ele>550.01</ele>
        <time>2012-08-30T09:13:11Z</time>
      </trkpt>
      <trkpt lat="45.27426" lon="1.94039">
        <ele>549.53</ele>
        <time>2012-08-30T09:13:16Z</time>
      </trkpt>
      <trkpt lat="45.27425" lon="1.94025">
        <ele>549.53</ele>
        <time>2012-08-30T09:13:17Z</time>
      </trkpt>
      <trkpt lat="45.27425" lon="1.93985">
        <ele>548.09</ele>
        <time>2012-08-30T09:13:20Z</time>
      </trkpt>
      <trkpt lat="45.27422" lon="1.93932">
        <ele>544.72</ele>
        <time>2012-08-30T09:13:24Z</time>
      </trkpt>
      <trkpt lat="45.27414" lon="1.93884">
        <ele>542.32</ele>
        <time>2012-08-30T09:13:28Z</time>
      </trkpt>
      <trkpt lat="45.27413" lon="1.93869">
        <ele>539.92</ele>
        <time>2012-08-30T09:13:30Z</time>
      </trkpt>
      <trkpt lat="45.27412" lon="1.93862">
        <ele>540.4</ele>
        <time>2012-08-30T09:13:31Z</time>
      </trkpt>
      <trkpt lat="45.2741" lon="1.93856">
        <ele>540.88</ele>
        <time>2012-08-30T09:13:32Z</time>
      </trkpt>
      <trkpt lat="45.27407" lon="1.9385">
        <ele>539.92</ele>
        <time>2012-08-30T09:13:33Z</time>
      </trkpt>
      <trkpt lat="45.27404" lon="1.93845">
        <ele>539.44</ele>
        <time>2012-08-30T09:13:34Z</time>
      </trkpt>
      <trkpt lat="45.27399" lon="1.93839">
        <ele>537.99</ele>
        <time>2012-08-30T09:13:35Z</time>
      </trkpt>
      <trkpt lat="45.27393" lon="1.93833">
        <ele>538.48</ele>
        <time>2012-08-30T09:13:36Z</time>
      </trkpt>
      <trkpt lat="45.27386" lon="1.93828">
        <ele>537.51</ele>
        <time>2012-08-30T09:13:37Z</time>
      </trkpt>
      <trkpt lat="45.27378" lon="1.93824">
        <ele>537.51</ele>
        <time>2012-08-30T09:13:38Z</time>
      </trkpt>
      <trkpt lat="45.27369" lon="1.93821">
        <ele>536.55</ele>
        <time>2012-08-30T09:13:39Z</time>
      </trkpt>
      <trkpt lat="45.27361" lon="1.93819">
        <ele>536.07</ele>
        <time>2012-08-30T09:13:40Z</time>
      </trkpt>
      <trkpt lat="45.27353" lon="1.93817">
        <ele>535.11</ele>
        <time>2012-08-30T09:13:41Z</time>
      </trkpt>
      <trkpt lat="45.27345" lon="1.93815">
        <ele>535.11</ele>
        <time>2012-08-30T09:13:42Z</time>
      </trkpt>
      <trkpt lat="45.27338" lon="1.93812">
        <ele>534.63</ele>
        <time>2012-08-30T09:13:43Z</time>
      </trkpt>
      <trkpt lat="45.27331" lon="1.93807">
        <ele>534.15</ele>
        <time>2012-08-30T09:13:44Z</time>
      </trkpt>
      <trkpt lat="45.27325" lon="1.93802">
        <ele>533.19</ele>
        <time>2012-08-30T09:13:45Z</time>
      </trkpt>
      <trkpt lat="45.2732" lon="1.93797">
        <ele>533.19</ele>
        <time>2012-08-30T09:13:46Z</time>
      </trkpt>
      <trkpt lat="45.27296" lon="1.93774">
        <ele>532.71</ele>
        <time>2012-08-30T09:13:52Z</time>
      </trkpt>
      <trkpt lat="45.27291" lon="1.93762">
        <ele>534.15</ele>
        <time>2012-08-30T09:13:57Z</time>
      </trkpt>
      <trkpt lat="45.27291" lon="1.9376">
        <ele>534.15</ele>
        <time>2012-08-30T09:13:58Z</time>
      </trkpt>
      <trkpt lat="45.2729" lon="1.93758">
        <ele>535.11</ele>
        <time>2012-08-30T09:13:59Z</time>
      </trkpt>
      <trkpt lat="45.27287" lon="1.93756">
        <ele>535.11</ele>
        <time>2012-08-30T09:14:00Z</time>
      </trkpt>
      <trkpt lat="45.27284" lon="1.93754">
        <ele>535.59</ele>
        <time>2012-08-30T09:14:01Z</time>
      </trkpt>
      <trkpt lat="45.27279" lon="1.93752">
        <ele>536.55</ele>
        <time>2012-08-30T09:14:02Z</time>
      </trkpt>
      <trkpt lat="45.27275" lon="1.93751">
        <ele>536.55</ele>
        <time>2012-08-30T09:14:03Z</time>
      </trkpt>
      <trkpt lat="45.27261" lon="1.93747">
        <ele>537.99</ele>
        <time>2012-08-30T09:14:06Z</time>
      </trkpt>
      <trkpt lat="45.27237" lon="1.93743">
        <ele>541.36</ele>
        <time>2012-08-30T09:14:11Z</time>
      </trkpt>
      <trkpt lat="45.27188" lon="1.93742">
        <ele>545.2</ele>
        <time>2012-08-30T09:14:19Z</time>
      </trkpt>
      <trkpt lat="45.27182" lon="1.93741">
        <ele>545.2</ele>
        <time>2012-08-30T09:14:20Z</time>
      </trkpt>
      <trkpt lat="45.27146" lon="1.93736">
        <ele>547.61</ele>
        <time>2012-08-30T09:14:26Z</time>
      </trkpt>
      <trkpt lat="45.27099" lon="1.93711">
        <ele>549.05</ele>
        <time>2012-08-30T09:14:33Z</time>
      </trkpt>
      <trkpt lat="45.27068" lon="1.93705">
        <ele>550.01</ele>
        <time>2012-08-30T09:14:38Z</time>
      </trkpt>
      <trkpt lat="45.27023" lon="1.93719">
        <ele>549.05</ele>
        <time>2012-08-30T09:14:44Z</time>
      </trkpt>
      <trkpt lat="45.27003" lon="1.93728">
        <ele>546.65</ele>
        <time>2012-08-30T09:14:48Z</time>
      </trkpt>
      <trkpt lat="45.26978" lon="1.93739">
        <ele>546.65</ele>
        <time>2012-08-30T09:14:54Z</time>
      </trkpt>
      <trkpt lat="45.26935" lon="1.93752">
        <ele>547.13</ele>
        <time>2012-08-30T09:15:04Z</time>
      </trkpt>
      <trkpt lat="45.26901" lon="1.93763">
        <ele>548.57</ele>
        <time>2012-08-30T09:15:11Z</time>
      </trkpt>
      <trkpt lat="45.26858" lon="1.93768">
        <ele>549.53</ele>
        <time>2012-08-30T09:15:17Z</time>
      </trkpt>
      <trkpt lat="45.26842" lon="1.93766">
        <ele>550.01</ele>
        <time>2012-08-30T09:15:19Z</time>
      </trkpt>
      <trkpt lat="45.26814" lon="1.93763">
        <ele>544.72</ele>
        <time>2012-08-30T09:15:24Z</time>
      </trkpt>
      <trkpt lat="45.2681" lon="1.93763">
        <ele>554.34</ele>
        <time>2012-08-30T09:15:25Z</time>
      </trkpt>
      <trkpt lat="45.26806" lon="1.93763">
        <ele>549.05</ele>
        <time>2012-08-30T09:15:26Z</time>
      </trkpt>
      <trkpt lat="45.26785" lon="1.93761">
        <ele>550.49</ele>
        <time>2012-08-30T09:15:30Z</time>
      </trkpt>
      <trkpt lat="45.26779" lon="1.93758">
        <ele>550.49</ele>
        <time>2012-08-30T09:15:31Z</time>
      </trkpt>
      <trkpt lat="45.26774" lon="1.93755">
        <ele>550.01</ele>
        <time>2012-08-30T09:15:32Z</time>
      </trkpt>
      <trkpt lat="45.26769" lon="1.93751">
        <ele>550.49</ele>
        <time>2012-08-30T09:15:33Z</time>
      </trkpt>
      <trkpt lat="45.26763" lon="1.93746">
        <ele>550.01</ele>
        <time>2012-08-30T09:15:34Z</time>
      </trkpt>
      <trkpt lat="45.26758" lon="1.93739">
        <ele>550.49</ele>
        <time>2012-08-30T09:15:35Z</time>
      </trkpt>
      <trkpt lat="45.26753" lon="1.93733">
        <ele>550.01</ele>
        <time>2012-08-30T09:15:36Z</time>
      </trkpt>
      <trkpt lat="45.26725" lon="1.93705">
        <ele>550.97</ele>
        <time>2012-08-30T09:15:41Z</time>
      </trkpt>
      <trkpt lat="45.26674" lon="1.93674">
        <ele>553.86</ele>
        <time>2012-08-30T09:15:48Z</time>
      </trkpt>
      <trkpt lat="45.26625" lon="1.93635">
        <ele>556.26</ele>
        <time>2012-08-30T09:15:54Z</time>
      </trkpt>
      <trkpt lat="45.26579" lon="1.93624">
        <ele>557.22</ele>
        <time>2012-08-30T09:15:59Z</time>
      </trkpt>
      <trkpt lat="45.26553" lon="1.93621">
        <ele>555.3</ele>
        <time>2012-08-30T09:16:02Z</time>
      </trkpt>
      <trkpt lat="45.26526" lon="1.93617">
        <ele>555.78</ele>
        <time>2012-08-30T09:16:07Z</time>
      </trkpt>
      <trkpt lat="45.26482" lon="1.93619">
        <ele>557.7</ele>
        <time>2012-08-30T09:16:15Z</time>
      </trkpt>
      <trkpt lat="45.2645" lon="1.9362">
        <ele>556.74</ele>
        <time>2012-08-30T09:16:20Z</time>
      </trkpt>
      <trkpt lat="45.26445" lon="1.93622">
        <ele>556.26</ele>
        <time>2012-08-30T09:16:21Z</time>
      </trkpt>
      <trkpt lat="45.26433" lon="1.93627">
        <ele>556.74</ele>
        <time>2012-08-30T09:16:23Z</time>
      </trkpt>
      <trkpt lat="45.2641" lon="1.93633">
        <ele>557.7</ele>
        <time>2012-08-30T09:16:27Z</time>
      </trkpt>
      <trkpt lat="45.26404" lon="1.93632">
        <ele>557.7</ele>
        <time>2012-08-30T09:16:28Z</time>
      </trkpt>
      <trkpt lat="45.26397" lon="1.93629">
        <ele>557.22</ele>
        <time>2012-08-30T09:16:29Z</time>
      </trkpt>
      <trkpt lat="45.26391" lon="1.93625">
        <ele>557.7</ele>
        <time>2012-08-30T09:16:30Z</time>
      </trkpt>
      <trkpt lat="45.26387" lon="1.9362">
        <ele>557.22</ele>
        <time>2012-08-30T09:16:31Z</time>
      </trkpt>
      <trkpt lat="45.26383" lon="1.93616">
        <ele>556.74</ele>
        <time>2012-08-30T09:16:32Z</time>
      </trkpt>
      <trkpt lat="45.26375" lon="1.93602">
        <ele>555.78</ele>
        <time>2012-08-30T09:16:36Z</time>
      </trkpt>
      <trkpt lat="45.26369" lon="1.93588">
        <ele>556.26</ele>
        <time>2012-08-30T09:16:39Z</time>
      </trkpt>
      <trkpt lat="45.26366" lon="1.93582">
        <ele>555.78</ele>
        <time>2012-08-30T09:16:40Z</time>
      </trkpt>
      <trkpt lat="45.26363" lon="1.93577">
        <ele>555.78</ele>
        <time>2012-08-30T09:16:41Z</time>
      </trkpt>
      <trkpt lat="45.2636" lon="1.93573">
        <ele>554.82</ele>
        <time>2012-08-30T09:16:42Z</time>
      </trkpt>
      <trkpt lat="45.26357" lon="1.93569">
        <ele>554.82</ele>
        <time>2012-08-30T09:16:43Z</time>
      </trkpt>
      <trkpt lat="45.26346" lon="1.93556">
        <ele>555.3</ele>
        <time>2012-08-30T09:16:49Z</time>
      </trkpt>
      <trkpt lat="45.26321" lon="1.93536">
        <ele>556.26</ele>
        <time>2012-08-30T09:16:55Z</time>
      </trkpt>
      <trkpt lat="45.26275" lon="1.93509">
        <ele>557.22</ele>
        <time>2012-08-30T09:17:01Z</time>
      </trkpt>
      <trkpt lat="45.26266" lon="1.93504">
        <ele>557.22</ele>
        <time>2012-08-30T09:17:03Z</time>
      </trkpt>
      <trkpt lat="45.26246" lon="1.9349">
        <ele>557.22</ele>
        <time>2012-08-30T09:17:08Z</time>
      </trkpt>
      <trkpt lat="45.26246" lon="1.93486">
        <ele>556.74</ele>
        <time>2012-08-30T09:17:09Z</time>
      </trkpt>
      <trkpt lat="45.26246" lon="1.93481">
        <ele>557.22</ele>
        <time>2012-08-30T09:17:10Z</time>
      </trkpt>
      <trkpt lat="45.26247" lon="1.93475">
        <ele>556.26</ele>
        <time>2012-08-30T09:17:11Z</time>
      </trkpt>
      <trkpt lat="45.26249" lon="1.93468">
        <ele>556.74</ele>
        <time>2012-08-30T09:17:12Z</time>
      </trkpt>
      <trkpt lat="45.26263" lon="1.93404">
        <ele>556.74</ele>
        <time>2012-08-30T09:17:19Z</time>
      </trkpt>
      <trkpt lat="45.26266" lon="1.93396">
        <ele>556.74</ele>
        <time>2012-08-30T09:17:20Z</time>
      </trkpt>
      <trkpt lat="45.26274" lon="1.93377">
        <ele>556.26</ele>
        <time>2012-08-30T09:17:23Z</time>
      </trkpt>
      <trkpt lat="45.26277" lon="1.93371">
        <ele>555.78</ele>
        <time>2012-08-30T09:17:24Z</time>
      </trkpt>
      <trkpt lat="45.26279" lon="1.93363">
        <ele>555.78</ele>
        <time>2012-08-30T09:17:25Z</time>
      </trkpt>
      <trkpt lat="45.26282" lon="1.93356">
        <ele>556.26</ele>
        <time>2012-08-30T09:17:26Z</time>
      </trkpt>
      <trkpt lat="45.26284" lon="1.93348">
        <ele>555.78</ele>
        <time>2012-08-30T09:17:27Z</time>
      </trkpt>
      <trkpt lat="45.26294" lon="1.93298">
        <ele>557.22</ele>
        <time>2012-08-30T09:17:33Z</time>
      </trkpt>
      <trkpt lat="45.26315" lon="1.93232">
        <ele>558.66</ele>
        <time>2012-08-30T09:17:40Z</time>
      </trkpt>
      <trkpt lat="45.26346" lon="1.93162">
        <ele>559.14</ele>
        <time>2012-08-30T09:17:48Z</time>
      </trkpt>
      <trkpt lat="45.26363" lon="1.93128">
        <ele>557.7</ele>
        <time>2012-08-30T09:17:52Z</time>
      </trkpt>
      <trkpt lat="45.2638" lon="1.93092">
        <ele>556.74</ele>
        <time>2012-08-30T09:17:57Z</time>
      </trkpt>
      <trkpt lat="45.26393" lon="1.93061">
        <ele>557.22</ele>
        <time>2012-08-30T09:18:02Z</time>
      </trkpt>
      <trkpt lat="45.26403" lon="1.93021">
        <ele>556.26</ele>
        <time>2012-08-30T09:18:08Z</time>
      </trkpt>
      <trkpt lat="45.26404" lon="1.93014">
        <ele>556.74</ele>
        <time>2012-08-30T09:18:10Z</time>
      </trkpt>
      <trkpt lat="45.26402" lon="1.92997">
        <ele>555.78</ele>
        <time>2012-08-30T09:18:17Z</time>
      </trkpt>
      <trkpt lat="45.26401" lon="1.9299">
        <ele>556.26</ele>
        <time>2012-08-30T09:18:23Z</time>
      </trkpt>
      <trkpt lat="45.26404" lon="1.92971">
        <ele>556.26</ele>
        <time>2012-08-30T09:18:29Z</time>
      </trkpt>
      <trkpt lat="45.26409" lon="1.92943">
        <ele>555.78</ele>
        <time>2012-08-30T09:18:38Z</time>
      </trkpt>
      <trkpt lat="45.26416" lon="1.92912">
        <ele>554.82</ele>
        <time>2012-08-30T09:18:46Z</time>
      </trkpt>
      <trkpt lat="45.26422" lon="1.92887">
        <ele>554.82</ele>
        <time>2012-08-30T09:18:54Z</time>
      </trkpt>
      <trkpt lat="45.26424" lon="1.92855">
        <ele>554.82</ele>
        <time>2012-08-30T09:19:02Z</time>
      </trkpt>
      <trkpt lat="45.26431" lon="1.92831">
        <ele>554.82</ele>
        <time>2012-08-30T09:19:08Z</time>
      </trkpt>
      <trkpt lat="45.26435" lon="1.92802">
        <ele>554.34</ele>
        <time>2012-08-30T09:19:15Z</time>
      </trkpt>
      <trkpt lat="45.26437" lon="1.92778">
        <ele>554.34</ele>
        <time>2012-08-30T09:19:21Z</time>
      </trkpt>
      <trkpt lat="45.26438" lon="1.92775">
        <ele>553.86</ele>
        <time>2012-08-30T09:19:22Z</time>
      </trkpt>
      <trkpt lat="45.26439" lon="1.92754">
        <ele>554.34</ele>
        <time>2012-08-30T09:19:30Z</time>
      </trkpt>
      <trkpt lat="45.26445" lon="1.92742">
        <ele>546.65</ele>
        <time>2012-08-30T09:19:34Z</time>
      </trkpt>
      <trkpt lat="45.26449" lon="1.92724">
        <ele>554.34</ele>
        <time>2012-08-30T09:19:39Z</time>
      </trkpt>
      <trkpt lat="45.26435" lon="1.92704">
        <ele>556.26</ele>
        <time>2012-08-30T09:19:46Z</time>
      </trkpt>
      <trkpt lat="45.26412" lon="1.92683">
        <ele>556.74</ele>
        <time>2012-08-30T09:19:54Z</time>
      </trkpt>
      <trkpt lat="45.2641" lon="1.92681">
        <ele>556.74</ele>
        <time>2012-08-30T09:19:55Z</time>
      </trkpt>
      <trkpt lat="45.26404" lon="1.9267">
        <ele>557.22</ele>
        <time>2012-08-30T09:19:59Z</time>
      </trkpt>
      <trkpt lat="45.26407" lon="1.92659">
        <ele>556.74</ele>
        <time>2012-08-30T09:20:03Z</time>
      </trkpt>
      <trkpt lat="45.26418" lon="1.92632">
        <ele>555.3</ele>
        <time>2012-08-30T09:20:10Z</time>
      </trkpt>
      <trkpt lat="45.26436" lon="1.926">
        <ele>553.86</ele>
        <time>2012-08-30T09:20:18Z</time>
      </trkpt>
      <trkpt lat="45.26449" lon="1.9257">
        <ele>553.38</ele>
        <time>2012-08-30T09:20:25Z</time>
      </trkpt>
      <trkpt lat="45.26454" lon="1.92551">
        <ele>552.9</ele>
        <time>2012-08-30T09:20:31Z</time>
      </trkpt>
      <trkpt lat="45.26469" lon="1.92523">
        <ele>554.82</ele>
        <time>2012-08-30T09:20:39Z</time>
      </trkpt>
      <trkpt lat="45.26479" lon="1.92492">
        <ele>555.78</ele>
        <time>2012-08-30T09:20:45Z</time>
      </trkpt>
      <trkpt lat="45.26481" lon="1.92456">
        <ele>557.22</ele>
        <time>2012-08-30T09:20:53Z</time>
      </trkpt>
      <trkpt lat="45.26478" lon="1.92412">
        <ele>556.26</ele>
        <time>2012-08-30T09:21:01Z</time>
      </trkpt>
      <trkpt lat="45.26474" lon="1.9238">
        <ele>554.82</ele>
        <time>2012-08-30T09:21:08Z</time>
      </trkpt>
      <trkpt lat="45.26473" lon="1.9236">
        <ele>553.38</ele>
        <time>2012-08-30T09:21:15Z</time>
      </trkpt>
      <trkpt lat="45.26467" lon="1.92353">
        <ele>551.45</ele>
        <time>2012-08-30T09:21:20Z</time>
      </trkpt>
      <trkpt lat="45.26455" lon="1.92331">
        <ele>550.97</ele>
        <time>2012-08-30T09:21:26Z</time>
      </trkpt>
      <trkpt lat="45.26438" lon="1.92304">
        <ele>550.01</ele>
        <time>2012-08-30T09:21:34Z</time>
      </trkpt>
      <trkpt lat="45.26428" lon="1.92292">
        <ele>549.53</ele>
        <time>2012-08-30T09:21:37Z</time>
      </trkpt>
      <trkpt lat="45.26414" lon="1.92262">
        <ele>549.05</ele>
        <time>2012-08-30T09:21:44Z</time>
      </trkpt>
      <trkpt lat="45.2641" lon="1.92232">
        <ele>549.53</ele>
        <time>2012-08-30T09:21:51Z</time>
      </trkpt>
      <trkpt lat="45.26416" lon="1.92186">
        <ele>550.49</ele>
        <time>2012-08-30T09:21:59Z</time>
      </trkpt>
      <trkpt lat="45.26421" lon="1.92149">
        <ele>551.93</ele>
        <time>2012-08-30T09:22:06Z</time>
      </trkpt>
      <trkpt lat="45.26429" lon="1.9211">
        <ele>550.97</ele>
        <time>2012-08-30T09:22:15Z</time>
      </trkpt>
      <trkpt lat="45.26432" lon="1.92099">
        <ele>550.49</ele>
        <time>2012-08-30T09:22:18Z</time>
      </trkpt>
      <trkpt lat="45.26437" lon="1.92081">
        <ele>548.57</ele>
        <time>2012-08-30T09:22:25Z</time>
      </trkpt>
      <trkpt lat="45.26442" lon="1.92062">
        <ele>547.61</ele>
        <time>2012-08-30T09:22:36Z</time>
      </trkpt>
      <trkpt lat="45.26447" lon="1.92038">
        <ele>544.72</ele>
        <time>2012-08-30T09:22:46Z</time>
      </trkpt>
      <trkpt lat="45.26447" lon="1.92017">
        <ele>544.24</ele>
        <time>2012-08-30T09:22:56Z</time>
      </trkpt>
      <trkpt lat="45.26448" lon="1.92005">
        <ele>542.32</ele>
        <time>2012-08-30T09:23:01Z</time>
      </trkpt>
      <trkpt lat="45.26453" lon="1.91979">
        <ele>540.88</ele>
        <time>2012-08-30T09:23:10Z</time>
      </trkpt>
      <trkpt lat="45.26457" lon="1.91969">
        <ele>540.4</ele>
        <time>2012-08-30T09:23:18Z</time>
      </trkpt>
      <trkpt lat="45.26458" lon="1.91967">
        <ele>539.92</ele>
        <time>2012-08-30T09:23:31Z</time>
      </trkpt>
      <trkpt lat="45.26459" lon="1.91964">
        <ele>539.92</ele>
        <time>2012-08-30T09:23:39Z</time>
      </trkpt>
      <trkpt lat="45.26459" lon="1.91964">
        <ele>539.92</ele>
        <time>2012-08-30T09:23:54Z</time>
      </trkpt>
      <trkpt lat="45.26459" lon="1.91964">
        <ele>539.92</ele>
        <time>2012-08-30T09:24:10Z</time>
      </trkpt>
      <trkpt lat="45.26458" lon="1.91964">
        <ele>539.92</ele>
        <time>2012-08-30T09:24:29Z</time>
      </trkpt>
      <trkpt lat="45.26458" lon="1.91964">
        <ele>539.92</ele>
        <time>2012-08-30T09:24:46Z</time>
      </trkpt>
      <trkpt lat="45.26458" lon="1.91964">
        <ele>539.92</ele>
        <time>2012-08-30T09:25:02Z</time>
      </trkpt>
      <trkpt lat="45.26458" lon="1.91964">
        <ele>539.92</ele>
        <time>2012-08-30T09:25:20Z</time>
      </trkpt>
      <trkpt lat="45.26458" lon="1.91963">
        <ele>539.92</ele>
        <time>2012-08-30T09:25:36Z</time>
      </trkpt>
      <trkpt lat="45.26458" lon="1.91963">
        <ele>539.44</ele>
        <time>2012-08-30T09:25:51Z</time>
      </trkpt>
      <trkpt lat="45.26458" lon="1.91963">
        <ele>539.92</ele>
        <time>2012-08-30T09:26:04Z</time>
      </trkpt>
      <trkpt lat="45.26458" lon="1.91962">
        <ele>539.92</ele>
        <time>2012-08-30T09:26:13Z</time>
      </trkpt>
      <trkpt lat="45.26458" lon="1.91956">
        <ele>539.44</ele>
        <time>2012-08-30T09:26:22Z</time>
      </trkpt>
      <trkpt lat="45.26458" lon="1.91957">
        <ele>539.92</ele>
        <time>2012-08-30T09:26:28Z</time>
      </trkpt>
      <trkpt lat="45.26439" lon="1.91951">
        <ele>538.96</ele>
        <time>2012-08-30T09:26:35Z</time>
      </trkpt>
      <trkpt lat="45.26431" lon="1.91953">
        <ele>532.71</ele>
        <time>2012-08-30T09:26:37Z</time>
      </trkpt>
      <trkpt lat="45.26426" lon="1.91954">
        <ele>538.96</ele>
        <time>2012-08-30T09:26:38Z</time>
      </trkpt>
      <trkpt lat="45.2642" lon="1.91956">
        <ele>538.48</ele>
        <time>2012-08-30T09:26:39Z</time>
      </trkpt>
      <trkpt lat="45.26414" lon="1.91957">
        <ele>534.63</ele>
        <time>2012-08-30T09:26:40Z</time>
      </trkpt>
      <trkpt lat="45.26407" lon="1.91959">
        <ele>539.44</ele>
        <time>2012-08-30T09:26:41Z</time>
      </trkpt>
      <trkpt lat="45.26387" lon="1.91964">
        <ele>536.07</ele>
        <time>2012-08-30T09:26:44Z</time>
      </trkpt>
      <trkpt lat="45.26358" lon="1.91969">
        <ele>535.11</ele>
        <time>2012-08-30T09:26:49Z</time>
      </trkpt>
      <trkpt lat="45.26352" lon="1.91971">
        <ele>535.59</ele>
        <time>2012-08-30T09:26:50Z</time>
      </trkpt>
      <trkpt lat="45.2632" lon="1.91993">
        <ele>530.79</ele>
        <time>2012-08-30T09:26:56Z</time>
      </trkpt>
      <trkpt lat="45.26314" lon="1.91997">
        <ele>526.46</ele>
        <time>2012-08-30T09:26:57Z</time>
      </trkpt>
      <trkpt lat="45.26308" lon="1.92001">
        <ele>536.07</ele>
        <time>2012-08-30T09:26:58Z</time>
      </trkpt>
      <trkpt lat="45.26302" lon="1.92005">
        <ele>534.15</ele>
        <time>2012-08-30T09:26:59Z</time>
      </trkpt>
      <trkpt lat="45.26262" lon="1.92029">
        <ele>533.67</ele>
        <time>2012-08-30T09:27:06Z</time>
      </trkpt>
      <trkpt lat="45.26257" lon="1.92033">
        <ele>526.46</ele>
        <time>2012-08-30T09:27:07Z</time>
      </trkpt>
      <trkpt lat="45.26252" lon="1.92038">
        <ele>526.46</ele>
        <time>2012-08-30T09:27:08Z</time>
      </trkpt>
      <trkpt lat="45.26247" lon="1.92044">
        <ele>532.23</ele>
        <time>2012-08-30T09:27:09Z</time>
      </trkpt>
      <trkpt lat="45.26242" lon="1.92049">
        <ele>531.75</ele>
        <time>2012-08-30T09:27:10Z</time>
      </trkpt>
      <trkpt lat="45.26212" lon="1.92074">
        <ele>531.27</ele>
        <time>2012-08-30T09:27:16Z</time>
      </trkpt>
      <trkpt lat="45.26202" lon="1.92079">
        <ele>531.27</ele>
        <time>2012-08-30T09:27:18Z</time>
      </trkpt>
      <trkpt lat="45.26197" lon="1.9208">
        <ele>530.79</ele>
        <time>2012-08-30T09:27:19Z</time>
      </trkpt>
      <trkpt lat="45.26193" lon="1.9208">
        <ele>529.82</ele>
        <time>2012-08-30T09:27:20Z</time>
      </trkpt>
      <trkpt lat="45.26189" lon="1.92078">
        <ele>529.82</ele>
        <time>2012-08-30T09:27:21Z</time>
      </trkpt>
      <trkpt lat="45.26185" lon="1.92077">
        <ele>528.86</ele>
        <time>2012-08-30T09:27:22Z</time>
      </trkpt>
      <trkpt lat="45.2618" lon="1.92077">
        <ele>528.86</ele>
        <time>2012-08-30T09:27:23Z</time>
      </trkpt>
      <trkpt lat="45.26177" lon="1.92079">
        <ele>527.9</ele>
        <time>2012-08-30T09:27:24Z</time>
      </trkpt>
      <trkpt lat="45.26172" lon="1.92083">
        <ele>527.9</ele>
        <time>2012-08-30T09:27:25Z</time>
      </trkpt>
      <trkpt lat="45.26168" lon="1.92088">
        <ele>527.42</ele>
        <time>2012-08-30T09:27:26Z</time>
      </trkpt>
      <trkpt lat="45.26164" lon="1.92094">
        <ele>526.94</ele>
        <time>2012-08-30T09:27:27Z</time>
      </trkpt>
      <trkpt lat="45.2616" lon="1.92099">
        <ele>526.94</ele>
        <time>2012-08-30T09:27:28Z</time>
      </trkpt>
      <trkpt lat="45.26154" lon="1.92103">
        <ele>527.42</ele>
        <time>2012-08-30T09:27:29Z</time>
      </trkpt>
      <trkpt lat="45.26149" lon="1.92106">
        <ele>527.42</ele>
        <time>2012-08-30T09:27:30Z</time>
      </trkpt>
      <trkpt lat="45.26144" lon="1.92106">
        <ele>526.94</ele>
        <time>2012-08-30T09:27:31Z</time>
      </trkpt>
      <trkpt lat="45.26138" lon="1.92105">
        <ele>527.42</ele>
        <time>2012-08-30T09:27:32Z</time>
      </trkpt>
      <trkpt lat="45.26133" lon="1.92102">
        <ele>526.94</ele>
        <time>2012-08-30T09:27:33Z</time>
      </trkpt>
      <trkpt lat="45.26129" lon="1.921">
        <ele>527.9</ele>
        <time>2012-08-30T09:27:34Z</time>
      </trkpt>
      <trkpt lat="45.26114" lon="1.92095">
        <ele>528.86</ele>
        <time>2012-08-30T09:27:38Z</time>
      </trkpt>
      <trkpt lat="45.26103" lon="1.92099">
        <ele>530.3</ele>
        <time>2012-08-30T09:27:40Z</time>
      </trkpt>
      <trkpt lat="45.26097" lon="1.92103">
        <ele>530.79</ele>
        <time>2012-08-30T09:27:41Z</time>
      </trkpt>
      <trkpt lat="45.26086" lon="1.92114">
        <ele>532.23</ele>
        <time>2012-08-30T09:27:43Z</time>
      </trkpt>
      <trkpt lat="45.26049" lon="1.92148">
        <ele>533.67</ele>
        <time>2012-08-30T09:27:49Z</time>
      </trkpt>
      <trkpt lat="45.2602" lon="1.92168">
        <ele>534.63</ele>
        <time>2012-08-30T09:27:53Z</time>
      </trkpt>
      <trkpt lat="45.25975" lon="1.92211">
        <ele>536.07</ele>
        <time>2012-08-30T09:27:59Z</time>
      </trkpt>
      <trkpt lat="45.25957" lon="1.92233">
        <ele>535.59</ele>
        <time>2012-08-30T09:28:02Z</time>
      </trkpt>
      <trkpt lat="45.25951" lon="1.92241">
        <ele>536.07</ele>
        <time>2012-08-30T09:28:03Z</time>
      </trkpt>
      <trkpt lat="45.25938" lon="1.92267">
        <ele>537.03</ele>
        <time>2012-08-30T09:28:06Z</time>
      </trkpt>
      <trkpt lat="45.25935" lon="1.92277">
        <ele>537.99</ele>
        <time>2012-08-30T09:28:07Z</time>
      </trkpt>
      <trkpt lat="45.25933" lon="1.92287">
        <ele>539.44</ele>
        <time>2012-08-30T09:28:08Z</time>
      </trkpt>
      <trkpt lat="45.2593" lon="1.92297">
        <ele>539.44</ele>
        <time>2012-08-30T09:28:09Z</time>
      </trkpt>
      <trkpt lat="45.25921" lon="1.92322">
        <ele>543.28</ele>
        <time>2012-08-30T09:28:12Z</time>
      </trkpt>
      <trkpt lat="45.25914" lon="1.92328">
        <ele>541.36</ele>
        <time>2012-08-30T09:28:13Z</time>
      </trkpt>
      <trkpt lat="45.25907" lon="1.9233">
        <ele>545.69</ele>
        <time>2012-08-30T09:28:14Z</time>
      </trkpt>
      <trkpt lat="45.259" lon="1.92331">
        <ele>550.01</ele>
        <time>2012-08-30T09:28:15Z</time>
      </trkpt>
      <trkpt lat="45.25893" lon="1.92332">
        <ele>541.36</ele>
        <time>2012-08-30T09:28:16Z</time>
      </trkpt>
      <trkpt lat="45.25887" lon="1.92334">
        <ele>548.57</ele>
        <time>2012-08-30T09:28:17Z</time>
      </trkpt>
      <trkpt lat="45.2588" lon="1.92335">
        <ele>550.01</ele>
        <time>2012-08-30T09:28:18Z</time>
      </trkpt>
      <trkpt lat="45.25872" lon="1.9234">
        <ele>548.57</ele>
        <time>2012-08-30T09:28:19Z</time>
      </trkpt>
      <trkpt lat="45.25864" lon="1.92346">
        <ele>546.65</ele>
        <time>2012-08-30T09:28:20Z</time>
      </trkpt>
      <trkpt lat="45.2582" lon="1.92395">
        <ele>549.05</ele>
        <time>2012-08-30T09:28:26Z</time>
      </trkpt>
      <trkpt lat="45.25807" lon="1.92407">
        <ele>547.61</ele>
        <time>2012-08-30T09:28:28Z</time>
      </trkpt>
      <trkpt lat="45.25801" lon="1.92409">
        <ele>547.13</ele>
        <time>2012-08-30T09:28:29Z</time>
      </trkpt>
      <trkpt lat="45.25795" lon="1.92409">
        <ele>547.13</ele>
        <time>2012-08-30T09:28:30Z</time>
      </trkpt>
      <trkpt lat="45.25789" lon="1.92408">
        <ele>547.13</ele>
        <time>2012-08-30T09:28:31Z</time>
      </trkpt>
      <trkpt lat="45.25783" lon="1.92406">
        <ele>546.65</ele>
        <time>2012-08-30T09:28:32Z</time>
      </trkpt>
      <trkpt lat="45.25777" lon="1.92403">
        <ele>547.13</ele>
        <time>2012-08-30T09:28:33Z</time>
      </trkpt>
      <trkpt lat="45.25772" lon="1.924">
        <ele>547.13</ele>
        <time>2012-08-30T09:28:34Z</time>
      </trkpt>
      <trkpt lat="45.25767" lon="1.92396">
        <ele>547.61</ele>
        <time>2012-08-30T09:28:35Z</time>
      </trkpt>
      <trkpt lat="45.25762" lon="1.92392">
        <ele>547.61</ele>
        <time>2012-08-30T09:28:36Z</time>
      </trkpt>
      <trkpt lat="45.25758" lon="1.92386">
        <ele>547.13</ele>
        <time>2012-08-30T09:28:37Z</time>
      </trkpt>
      <trkpt lat="45.25753" lon="1.9238">
        <ele>547.61</ele>
        <time>2012-08-30T09:28:38Z</time>
      </trkpt>
      <trkpt lat="45.2575" lon="1.92372">
        <ele>547.13</ele>
        <time>2012-08-30T09:28:39Z</time>
      </trkpt>
      <trkpt lat="45.25748" lon="1.92361">
        <ele>546.17</ele>
        <time>2012-08-30T09:28:40Z</time>
      </trkpt>
      <trkpt lat="45.25745" lon="1.92351">
        <ele>545.2</ele>
        <time>2012-08-30T09:28:41Z</time>
      </trkpt>
      <trkpt lat="45.25742" lon="1.9234">
        <ele>545.2</ele>
        <time>2012-08-30T09:28:42Z</time>
      </trkpt>
      <trkpt lat="45.25737" lon="1.92331">
        <ele>544.72</ele>
        <time>2012-08-30T09:28:43Z</time>
      </trkpt>
      <trkpt lat="45.25731" lon="1.92325">
        <ele>544.72</ele>
        <time>2012-08-30T09:28:44Z</time>
      </trkpt>
      <trkpt lat="45.25705" lon="1.92306">
        <ele>542.8</ele>
        <time>2012-08-30T09:28:48Z</time>
      </trkpt>
      <trkpt lat="45.25685" lon="1.92293">
        <ele>539.44</ele>
        <time>2012-08-30T09:28:51Z</time>
      </trkpt>
      <trkpt lat="45.25661" lon="1.92274">
        <ele>537.03</ele>
        <time>2012-08-30T09:28:55Z</time>
      </trkpt>
      <trkpt lat="45.25606" lon="1.92231">
        <ele>536.55</ele>
        <time>2012-08-30T09:29:04Z</time>
      </trkpt>
      <trkpt lat="45.256" lon="1.92227">
        <ele>537.03</ele>
        <time>2012-08-30T09:29:05Z</time>
      </trkpt>
      <trkpt lat="45.25587" lon="1.92223">
        <ele>538.48</ele>
        <time>2012-08-30T09:29:07Z</time>
      </trkpt>
      <trkpt lat="45.25542" lon="1.92219">
        <ele>542.32</ele>
        <time>2012-08-30T09:29:13Z</time>
      </trkpt>
      <trkpt lat="45.25534" lon="1.92218">
        <ele>542.32</ele>
        <time>2012-08-30T09:29:14Z</time>
      </trkpt>
      <trkpt lat="45.25519" lon="1.92216">
        <ele>543.76</ele>
        <time>2012-08-30T09:29:16Z</time>
      </trkpt>
      <trkpt lat="45.25502" lon="1.92211">
        <ele>545.2</ele>
        <time>2012-08-30T09:29:18Z</time>
      </trkpt>
      <trkpt lat="45.25462" lon="1.92195">
        <ele>546.17</ele>
        <time>2012-08-30T09:29:24Z</time>
      </trkpt>
      <trkpt lat="45.25425" lon="1.92165">
        <ele>543.76</ele>
        <time>2012-08-30T09:29:31Z</time>
      </trkpt>
      <trkpt lat="45.25415" lon="1.92156">
        <ele>544.72</ele>
        <time>2012-08-30T09:29:34Z</time>
      </trkpt>
      <trkpt lat="45.25412" lon="1.92146">
        <ele>544.72</ele>
        <time>2012-08-30T09:29:37Z</time>
      </trkpt>
      <trkpt lat="45.25412" lon="1.92141">
        <ele>544.24</ele>
        <time>2012-08-30T09:29:38Z</time>
      </trkpt>
      <trkpt lat="45.25414" lon="1.92135">
        <ele>543.76</ele>
        <time>2012-08-30T09:29:39Z</time>
      </trkpt>
      <trkpt lat="45.25417" lon="1.92129">
        <ele>544.72</ele>
        <time>2012-08-30T09:29:40Z</time>
      </trkpt>
      <trkpt lat="45.2542" lon="1.92123">
        <ele>544.24</ele>
        <time>2012-08-30T09:29:41Z</time>
      </trkpt>
      <trkpt lat="45.25423" lon="1.92116">
        <ele>544.24</ele>
        <time>2012-08-30T09:29:42Z</time>
      </trkpt>
      <trkpt lat="45.2543" lon="1.92101">
        <ele>537.03</ele>
        <time>2012-08-30T09:29:45Z</time>
      </trkpt>
      <trkpt lat="45.25431" lon="1.92097">
        <ele>543.28</ele>
        <time>2012-08-30T09:29:46Z</time>
      </trkpt>
      <trkpt lat="45.25429" lon="1.92093">
        <ele>548.09</ele>
        <time>2012-08-30T09:29:47Z</time>
      </trkpt>
      <trkpt lat="45.25426" lon="1.92089">
        <ele>544.24</ele>
        <time>2012-08-30T09:29:48Z</time>
      </trkpt>
      <trkpt lat="45.25423" lon="1.92088">
        <ele>544.24</ele>
        <time>2012-08-30T09:29:49Z</time>
      </trkpt>
      <trkpt lat="45.2542" lon="1.92087">
        <ele>543.76</ele>
        <time>2012-08-30T09:29:50Z</time>
      </trkpt>
      <trkpt lat="45.25418" lon="1.92088">
        <ele>543.76</ele>
        <time>2012-08-30T09:29:51Z</time>
      </trkpt>
      <trkpt lat="45.25414" lon="1.92089">
        <ele>543.76</ele>
        <time>2012-08-30T09:29:52Z</time>
      </trkpt>
      <trkpt lat="45.25383" lon="1.92095">
        <ele>544.24</ele>
        <time>2012-08-30T09:30:00Z</time>
      </trkpt>
      <trkpt lat="45.25343" lon="1.92094">
        <ele>541.84</ele>
        <time>2012-08-30T09:30:10Z</time>
      </trkpt>
      <trkpt lat="45.25307" lon="1.92093">
        <ele>540.88</ele>
        <time>2012-08-30T09:30:19Z</time>
      </trkpt>
      <trkpt lat="45.25281" lon="1.92072">
        <ele>541.84</ele>
        <time>2012-08-30T09:30:27Z</time>
      </trkpt>
      <trkpt lat="45.25246" lon="1.92037">
        <ele>543.28</ele>
        <time>2012-08-30T09:30:37Z</time>
      </trkpt>
      <trkpt lat="45.25222" lon="1.92011">
        <ele>543.28</ele>
        <time>2012-08-30T09:30:45Z</time>
      </trkpt>
      <trkpt lat="45.25203" lon="1.91988">
        <ele>543.76</ele>
        <time>2012-08-30T09:30:52Z</time>
      </trkpt>
      <trkpt lat="45.25184" lon="1.91961">
        <ele>544.24</ele>
        <time>2012-08-30T09:31:00Z</time>
      </trkpt>
      <trkpt lat="45.25168" lon="1.91931">
        <ele>544.24</ele>
        <time>2012-08-30T09:31:08Z</time>
      </trkpt>
      <trkpt lat="45.25164" lon="1.9192">
        <ele>543.76</ele>
        <time>2012-08-30T09:31:14Z</time>
      </trkpt>
      <trkpt lat="45.25161" lon="1.9191">
        <ele>543.28</ele>
        <time>2012-08-30T09:31:22Z</time>
      </trkpt>
      <trkpt lat="45.25153" lon="1.91884">
        <ele>544.24</ele>
        <time>2012-08-30T09:31:29Z</time>
      </trkpt>
      <trkpt lat="45.25139" lon="1.91832">
        <ele>544.24</ele>
        <time>2012-08-30T09:31:39Z</time>
      </trkpt>
      <trkpt lat="45.25129" lon="1.918">
        <ele>544.24</ele>
        <time>2012-08-30T09:31:46Z</time>
      </trkpt>
      <trkpt lat="45.25106" lon="1.91754">
        <ele>543.28</ele>
        <time>2012-08-30T09:31:55Z</time>
      </trkpt>
      <trkpt lat="45.25083" lon="1.91713">
        <ele>541.84</ele>
        <time>2012-08-30T09:32:04Z</time>
      </trkpt>
      <trkpt lat="45.25066" lon="1.91686">
        <ele>541.36</ele>
        <time>2012-08-30T09:32:11Z</time>
      </trkpt>
      <trkpt lat="45.25047" lon="1.91645">
        <ele>540.4</ele>
        <time>2012-08-30T09:32:19Z</time>
      </trkpt>
      <trkpt lat="45.25032" lon="1.91618">
        <ele>539.44</ele>
        <time>2012-08-30T09:32:27Z</time>
      </trkpt>
      <trkpt lat="45.25017" lon="1.91588">
        <ele>539.92</ele>
        <time>2012-08-30T09:32:34Z</time>
      </trkpt>
      <trkpt lat="45.25006" lon="1.91572">
        <ele>539.92</ele>
        <time>2012-08-30T09:32:40Z</time>
      </trkpt>
      <trkpt lat="45.24988" lon="1.91554">
        <ele>539.44</ele>
        <time>2012-08-30T09:32:48Z</time>
      </trkpt>
      <trkpt lat="45.24971" lon="1.91527">
        <ele>538.96</ele>
        <time>2012-08-30T09:32:56Z</time>
      </trkpt>
      <trkpt lat="45.24952" lon="1.91495">
        <ele>539.44</ele>
        <time>2012-08-30T09:33:06Z</time>
      </trkpt>
      <trkpt lat="45.24933" lon="1.91455">
        <ele>538.96</ele>
        <time>2012-08-30T09:33:16Z</time>
      </trkpt>
      <trkpt lat="45.24912" lon="1.91417">
        <ele>538.96</ele>
        <time>2012-08-30T09:33:26Z</time>
      </trkpt>
      <trkpt lat="45.24896" lon="1.91391">
        <ele>538.96</ele>
        <time>2012-08-30T09:33:34Z</time>
      </trkpt>
      <trkpt lat="45.24888" lon="1.91376">
        <ele>538.48</ele>
        <time>2012-08-30T09:33:41Z</time>
      </trkpt>
      <trkpt lat="45.24876" lon="1.91355">
        <ele>538.96</ele>
        <time>2012-08-30T09:33:48Z</time>
      </trkpt>
      <trkpt lat="45.2486" lon="1.91319">
        <ele>538.96</ele>
        <time>2012-08-30T09:33:57Z</time>
      </trkpt>
      <trkpt lat="45.24855" lon="1.91277">
        <ele>538.48</ele>
        <time>2012-08-30T09:34:06Z</time>
      </trkpt>
      <trkpt lat="45.24853" lon="1.91235">
        <ele>537.99</ele>
        <time>2012-08-30T09:34:16Z</time>
      </trkpt>
      <trkpt lat="45.24851" lon="1.91208">
        <ele>537.03</ele>
        <time>2012-08-30T09:34:23Z</time>
      </trkpt>
      <trkpt lat="45.24843" lon="1.91173">
        <ele>535.11</ele>
        <time>2012-08-30T09:34:31Z</time>
      </trkpt>
      <trkpt lat="45.24831" lon="1.91133">
        <ele>533.19</ele>
        <time>2012-08-30T09:34:39Z</time>
      </trkpt>
      <trkpt lat="45.24817" lon="1.91084">
        <ele>531.75</ele>
        <time>2012-08-30T09:34:47Z</time>
      </trkpt>
      <trkpt lat="45.24803" lon="1.9105">
        <ele>530.79</ele>
        <time>2012-08-30T09:34:55Z</time>
      </trkpt>
      <trkpt lat="45.2478" lon="1.91018">
        <ele>529.82</ele>
        <time>2012-08-30T09:35:02Z</time>
      </trkpt>
      <trkpt lat="45.24769" lon="1.91">
        <ele>528.86</ele>
        <time>2012-08-30T09:35:09Z</time>
      </trkpt>
      <trkpt lat="45.24765" lon="1.90992">
        <ele>528.38</ele>
        <time>2012-08-30T09:35:18Z</time>
      </trkpt>
      <trkpt lat="45.24765" lon="1.90992">
        <ele>528.38</ele>
        <time>2012-08-30T09:35:23Z</time>
      </trkpt>
      <trkpt lat="45.24755" lon="1.90977">
        <ele>528.38</ele>
        <time>2012-08-30T09:35:29Z</time>
      </trkpt>
      <trkpt lat="45.24732" lon="1.90945">
        <ele>527.42</ele>
        <time>2012-08-30T09:35:35Z</time>
      </trkpt>
      <trkpt lat="45.24719" lon="1.9092">
        <ele>530.79</ele>
        <time>2012-08-30T09:35:38Z</time>
      </trkpt>
      <trkpt lat="45.24714" lon="1.90912">
        <ele>524.06</ele>
        <time>2012-08-30T09:35:39Z</time>
      </trkpt>
      <trkpt lat="45.24709" lon="1.90903">
        <ele>528.86</ele>
        <time>2012-08-30T09:35:40Z</time>
      </trkpt>
      <trkpt lat="45.24705" lon="1.90894">
        <ele>525.5</ele>
        <time>2012-08-30T09:35:41Z</time>
      </trkpt>
      <trkpt lat="45.24696" lon="1.90875">
        <ele>531.27</ele>
        <time>2012-08-30T09:35:43Z</time>
      </trkpt>
      <trkpt lat="45.24692" lon="1.90865">
        <ele>531.27</ele>
        <time>2012-08-30T09:35:44Z</time>
      </trkpt>
      <trkpt lat="45.24678" lon="1.90806">
        <ele>529.82</ele>
        <time>2012-08-30T09:35:50Z</time>
      </trkpt>
      <trkpt lat="45.24667" lon="1.90741">
        <ele>530.79</ele>
        <time>2012-08-30T09:35:57Z</time>
      </trkpt>
      <trkpt lat="45.24665" lon="1.90718">
        <ele>529.82</ele>
        <time>2012-08-30T09:36:02Z</time>
      </trkpt>
      <trkpt lat="45.24661" lon="1.90681">
        <ele>529.34</ele>
        <time>2012-08-30T09:36:11Z</time>
      </trkpt>
      <trkpt lat="45.24661" lon="1.90651">
        <ele>529.82</ele>
        <time>2012-08-30T09:36:19Z</time>
      </trkpt>
      <trkpt lat="45.24658" lon="1.90614">
        <ele>529.82</ele>
        <time>2012-08-30T09:36:27Z</time>
      </trkpt>
      <trkpt lat="45.24649" lon="1.90576">
        <ele>529.82</ele>
        <time>2012-08-30T09:36:33Z</time>
      </trkpt>
      <trkpt lat="45.24634" lon="1.90546">
        <ele>530.3</ele>
        <time>2012-08-30T09:36:40Z</time>
      </trkpt>
      <trkpt lat="45.24618" lon="1.90493">
        <ele>530.3</ele>
        <time>2012-08-30T09:36:50Z</time>
      </trkpt>
      <trkpt lat="45.24613" lon="1.90463">
        <ele>529.82</ele>
        <time>2012-08-30T09:36:57Z</time>
      </trkpt>
      <trkpt lat="45.24604" lon="1.90434">
        <ele>530.79</ele>
        <time>2012-08-30T09:37:05Z</time>
      </trkpt>
      <trkpt lat="45.24596" lon="1.90401">
        <ele>531.27</ele>
        <time>2012-08-30T09:37:14Z</time>
      </trkpt>
      <trkpt lat="45.24591" lon="1.9037">
        <ele>530.79</ele>
        <time>2012-08-30T09:37:21Z</time>
      </trkpt>
      <trkpt lat="45.24589" lon="1.90347">
        <ele>531.27</ele>
        <time>2012-08-30T09:37:27Z</time>
      </trkpt>
      <trkpt lat="45.24587" lon="1.90309">
        <ele>531.75</ele>
        <time>2012-08-30T09:37:37Z</time>
      </trkpt>
      <trkpt lat="45.24585" lon="1.90288">
        <ele>532.23</ele>
        <time>2012-08-30T09:37:43Z</time>
      </trkpt>
      <trkpt lat="45.2458" lon="1.90263">
        <ele>532.71</ele>
        <time>2012-08-30T09:37:50Z</time>
      </trkpt>
      <trkpt lat="45.24577" lon="1.90247">
        <ele>533.19</ele>
        <time>2012-08-30T09:37:58Z</time>
      </trkpt>
      <trkpt lat="45.24574" lon="1.9023">
        <ele>533.67</ele>
        <time>2012-08-30T09:38:08Z</time>
      </trkpt>
      <trkpt lat="45.24574" lon="1.90223">
        <ele>534.15</ele>
        <time>2012-08-30T09:38:17Z</time>
      </trkpt>
      <trkpt lat="45.24574" lon="1.90222">
        <ele>534.63</ele>
        <time>2012-08-30T09:38:27Z</time>
      </trkpt>
      <trkpt lat="45.24572" lon="1.90213">
        <ele>534.63</ele>
        <time>2012-08-30T09:38:37Z</time>
      </trkpt>
      <trkpt lat="45.24572" lon="1.90196">
        <ele>535.11</ele>
        <time>2012-08-30T09:38:45Z</time>
      </trkpt>
      <trkpt lat="45.24572" lon="1.90176">
        <ele>535.59</ele>
        <time>2012-08-30T09:38:56Z</time>
      </trkpt>
      <trkpt lat="45.24569" lon="1.90153">
        <ele>536.07</ele>
        <time>2012-08-30T09:39:06Z</time>
      </trkpt>
      <trkpt lat="45.24567" lon="1.90141">
        <ele>529.82</ele>
        <time>2012-08-30T09:39:12Z</time>
      </trkpt>
      <trkpt lat="45.24567" lon="1.90139">
        <ele>536.07</ele>
        <time>2012-08-30T09:39:13Z</time>
      </trkpt>
      <trkpt lat="45.24566" lon="1.90123">
        <ele>536.07</ele>
        <time>2012-08-30T09:39:21Z</time>
      </trkpt>
      <trkpt lat="45.24562" lon="1.9008">
        <ele>535.59</ele>
        <time>2012-08-30T09:39:32Z</time>
      </trkpt>
      <trkpt lat="45.24549" lon="1.90037">
        <ele>535.11</ele>
        <time>2012-08-30T09:39:42Z</time>
      </trkpt>
      <trkpt lat="45.24529" lon="1.89995">
        <ele>534.15</ele>
        <time>2012-08-30T09:39:53Z</time>
      </trkpt>
      <trkpt lat="45.24514" lon="1.89961">
        <ele>533.67</ele>
        <time>2012-08-30T09:40:01Z</time>
      </trkpt>
      <trkpt lat="45.24506" lon="1.89921">
        <ele>533.19</ele>
        <time>2012-08-30T09:40:09Z</time>
      </trkpt>
      <trkpt lat="45.24504" lon="1.89881">
        <ele>533.19</ele>
        <time>2012-08-30T09:40:16Z</time>
      </trkpt>
      <trkpt lat="45.24504" lon="1.89852">
        <ele>528.38</ele>
        <time>2012-08-30T09:40:21Z</time>
      </trkpt>
      <trkpt lat="45.24504" lon="1.89847">
        <ele>531.75</ele>
        <time>2012-08-30T09:40:22Z</time>
      </trkpt>
      <trkpt lat="45.24505" lon="1.89838">
        <ele>533.67</ele>
        <time>2012-08-30T09:40:24Z</time>
      </trkpt>
      <trkpt lat="45.24512" lon="1.89823">
        <ele>531.27</ele>
        <time>2012-08-30T09:40:28Z</time>
      </trkpt>
      <trkpt lat="45.24525" lon="1.89801">
        <ele>525.5</ele>
        <time>2012-08-30T09:40:35Z</time>
      </trkpt>
      <trkpt lat="45.24525" lon="1.89799">
        <ele>531.27</ele>
        <time>2012-08-30T09:40:36Z</time>
      </trkpt>
      <trkpt lat="45.24524" lon="1.89797">
        <ele>529.82</ele>
        <time>2012-08-30T09:40:37Z</time>
      </trkpt>
      <trkpt lat="45.24524" lon="1.89794">
        <ele>530.79</ele>
        <time>2012-08-30T09:40:38Z</time>
      </trkpt>
      <trkpt lat="45.24519" lon="1.89768">
        <ele>529.34</ele>
        <time>2012-08-30T09:40:46Z</time>
      </trkpt>
      <trkpt lat="45.24517" lon="1.89713">
        <ele>527.9</ele>
        <time>2012-08-30T09:40:55Z</time>
      </trkpt>
      <trkpt lat="45.24516" lon="1.89685">
        <ele>524.06</ele>
        <time>2012-08-30T09:40:59Z</time>
      </trkpt>
      <trkpt lat="45.24517" lon="1.8968">
        <ele>528.38</ele>
        <time>2012-08-30T09:41:00Z</time>
      </trkpt>
      <trkpt lat="45.24526" lon="1.89636">
        <ele>527.9</ele>
        <time>2012-08-30T09:41:09Z</time>
      </trkpt>
      <trkpt lat="45.24526" lon="1.89633">
        <ele>525.02</ele>
        <time>2012-08-30T09:41:11Z</time>
      </trkpt>
      <trkpt lat="45.24526" lon="1.89633">
        <ele>530.3</ele>
        <time>2012-08-30T09:41:12Z</time>
      </trkpt>
      <trkpt lat="45.24526" lon="1.89632">
        <ele>530.79</ele>
        <time>2012-08-30T09:41:13Z</time>
      </trkpt>
      <trkpt lat="45.24526" lon="1.89631">
        <ele>527.9</ele>
        <time>2012-08-30T09:41:14Z</time>
      </trkpt>
      <trkpt lat="45.24526" lon="1.89629">
        <ele>527.9</ele>
        <time>2012-08-30T09:41:15Z</time>
      </trkpt>
      <trkpt lat="45.24524" lon="1.89627">
        <ele>527.9</ele>
        <time>2012-08-30T09:41:16Z</time>
      </trkpt>
      <trkpt lat="45.24521" lon="1.89626">
        <ele>526.94</ele>
        <time>2012-08-30T09:41:17Z</time>
      </trkpt>
      <trkpt lat="45.24517" lon="1.89627">
        <ele>527.9</ele>
        <time>2012-08-30T09:41:18Z</time>
      </trkpt>
      <trkpt lat="45.24514" lon="1.89628">
        <ele>527.9</ele>
        <time>2012-08-30T09:41:19Z</time>
      </trkpt>
      <trkpt lat="45.24485" lon="1.89641">
        <ele>530.79</ele>
        <time>2012-08-30T09:41:24Z</time>
      </trkpt>
      <trkpt lat="45.24477" lon="1.89647">
        <ele>531.27</ele>
        <time>2012-08-30T09:41:25Z</time>
      </trkpt>
      <trkpt lat="45.24468" lon="1.89655">
        <ele>531.27</ele>
        <time>2012-08-30T09:41:26Z</time>
      </trkpt>
      <trkpt lat="45.24411" lon="1.89706">
        <ele>532.23</ele>
        <time>2012-08-30T09:41:32Z</time>
      </trkpt>
      <trkpt lat="45.24356" lon="1.89731">
        <ele>533.19</ele>
        <time>2012-08-30T09:41:37Z</time>
      </trkpt>
      <trkpt lat="45.24344" lon="1.89733">
        <ele>534.63</ele>
        <time>2012-08-30T09:41:38Z</time>
      </trkpt>
      <trkpt lat="45.24274" lon="1.89731">
        <ele>533.67</ele>
        <time>2012-08-30T09:41:44Z</time>
      </trkpt>
      <trkpt lat="45.24263" lon="1.89727">
        <ele>535.11</ele>
        <time>2012-08-30T09:41:45Z</time>
      </trkpt>
      <trkpt lat="45.24254" lon="1.89719">
        <ele>536.07</ele>
        <time>2012-08-30T09:41:46Z</time>
      </trkpt>
      <trkpt lat="45.24244" lon="1.8971">
        <ele>535.59</ele>
        <time>2012-08-30T09:41:47Z</time>
      </trkpt>
      <trkpt lat="45.24235" lon="1.897">
        <ele>535.11</ele>
        <time>2012-08-30T09:41:48Z</time>
      </trkpt>
      <trkpt lat="45.24187" lon="1.89643">
        <ele>532.71</ele>
        <time>2012-08-30T09:41:54Z</time>
      </trkpt>
      <trkpt lat="45.2418" lon="1.89637">
        <ele>532.23</ele>
        <time>2012-08-30T09:41:55Z</time>
      </trkpt>
      <trkpt lat="45.24173" lon="1.89632">
        <ele>532.71</ele>
        <time>2012-08-30T09:41:56Z</time>
      </trkpt>
      <trkpt lat="45.2413" lon="1.89608">
        <ele>532.71</ele>
        <time>2012-08-30T09:42:01Z</time>
      </trkpt>
      <trkpt lat="45.24077" lon="1.89599">
        <ele>533.19</ele>
        <time>2012-08-30T09:42:06Z</time>
      </trkpt>
      <trkpt lat="45.2403" lon="1.89599">
        <ele>529.82</ele>
        <time>2012-08-30T09:42:11Z</time>
      </trkpt>
      <trkpt lat="45.24012" lon="1.89598">
        <ele>527.9</ele>
        <time>2012-08-30T09:42:15Z</time>
      </trkpt>
      <trkpt lat="45.24011" lon="1.89597">
        <ele>527.9</ele>
        <time>2012-08-30T09:42:20Z</time>
      </trkpt>
      <trkpt lat="45.24011" lon="1.89597">
        <ele>521.65</ele>
        <time>2012-08-30T09:42:22Z</time>
      </trkpt>
      <trkpt lat="45.24011" lon="1.89597">
        <ele>526.46</ele>
        <time>2012-08-30T09:42:23Z</time>
      </trkpt>
      <trkpt lat="45.24011" lon="1.89597">
        <ele>527.9</ele>
        <time>2012-08-30T09:42:25Z</time>
      </trkpt>
      <trkpt lat="45.24011" lon="1.89597">
        <ele>528.38</ele>
        <time>2012-08-30T09:42:42Z</time>
      </trkpt>
      <trkpt lat="45.24011" lon="1.89597">
        <ele>527.9</ele>
        <time>2012-08-30T09:42:54Z</time>
      </trkpt>
      <trkpt lat="45.24006" lon="1.89595">
        <ele>526.94</ele>
        <time>2012-08-30T09:43:00Z</time>
      </trkpt>
      <trkpt lat="45.23995" lon="1.89592">
        <ele>526.46</ele>
        <time>2012-08-30T09:43:07Z</time>
      </trkpt>
      <trkpt lat="45.2399" lon="1.89588">
        <ele>525.5</ele>
        <time>2012-08-30T09:43:13Z</time>
      </trkpt>
      <trkpt lat="45.23987" lon="1.89583">
        <ele>525.02</ele>
        <time>2012-08-30T09:43:17Z</time>
      </trkpt>
      <trkpt lat="45.23975" lon="1.89577">
        <ele>525.02</ele>
        <time>2012-08-30T09:43:21Z</time>
      </trkpt>
      <trkpt lat="45.23965" lon="1.89574">
        <ele>525.02</ele>
        <time>2012-08-30T09:43:26Z</time>
      </trkpt>
      <trkpt lat="45.23965" lon="1.89573">
        <ele>524.54</ele>
        <time>2012-08-30T09:43:30Z</time>
      </trkpt>
      <trkpt lat="45.23965" lon="1.89571">
        <ele>524.54</ele>
        <time>2012-08-30T09:43:34Z</time>
      </trkpt>
      <trkpt lat="45.23961" lon="1.89569">
        <ele>524.06</ele>
        <time>2012-08-30T09:43:37Z</time>
      </trkpt>
      <trkpt lat="45.23958" lon="1.89567">
        <ele>524.06</ele>
        <time>2012-08-30T09:43:38Z</time>
      </trkpt>
      <trkpt lat="45.23956" lon="1.89565">
        <ele>523.58</ele>
        <time>2012-08-30T09:43:39Z</time>
      </trkpt>
      <trkpt lat="45.23946" lon="1.89561">
        <ele>522.61</ele>
        <time>2012-08-30T09:43:44Z</time>
      </trkpt>
      <trkpt lat="45.23938" lon="1.89555">
        <ele>522.61</ele>
        <time>2012-08-30T09:43:51Z</time>
      </trkpt>
      <trkpt lat="45.23935" lon="1.89551">
        <ele>522.61</ele>
        <time>2012-08-30T09:43:54Z</time>
      </trkpt>
      <trkpt lat="45.23931" lon="1.89545">
        <ele>521.65</ele>
        <time>2012-08-30T09:44:01Z</time>
      </trkpt>
      <trkpt lat="45.23923" lon="1.89541">
        <ele>520.21</ele>
        <time>2012-08-30T09:44:08Z</time>
      </trkpt>
      <trkpt lat="45.23919" lon="1.89539">
        <ele>519.73</ele>
        <time>2012-08-30T09:44:10Z</time>
      </trkpt>
      <trkpt lat="45.23916" lon="1.89538">
        <ele>519.73</ele>
        <time>2012-08-30T09:44:11Z</time>
      </trkpt>
      <trkpt lat="45.23914" lon="1.89537">
        <ele>519.73</ele>
        <time>2012-08-30T09:44:12Z</time>
      </trkpt>
      <trkpt lat="45.23912" lon="1.89537">
        <ele>519.25</ele>
        <time>2012-08-30T09:44:13Z</time>
      </trkpt>
      <trkpt lat="45.2391" lon="1.89536">
        <ele>519.25</ele>
        <time>2012-08-30T09:44:14Z</time>
      </trkpt>
      <trkpt lat="45.23908" lon="1.89537">
        <ele>518.77</ele>
        <time>2012-08-30T09:44:15Z</time>
      </trkpt>
      <trkpt lat="45.23906" lon="1.89537">
        <ele>519.25</ele>
        <time>2012-08-30T09:44:16Z</time>
      </trkpt>
      <trkpt lat="45.23901" lon="1.89537">
        <ele>518.77</ele>
        <time>2012-08-30T09:44:23Z</time>
      </trkpt>
      <trkpt lat="45.23897" lon="1.89535">
        <ele>518.29</ele>
        <time>2012-08-30T09:44:28Z</time>
      </trkpt>
      <trkpt lat="45.23895" lon="1.89533">
        <ele>517.81</ele>
        <time>2012-08-30T09:44:29Z</time>
      </trkpt>
      <trkpt lat="45.23891" lon="1.89533">
        <ele>518.29</ele>
        <time>2012-08-30T09:44:30Z</time>
      </trkpt>
      <trkpt lat="45.23887" lon="1.89532">
        <ele>518.29</ele>
        <time>2012-08-30T09:44:31Z</time>
      </trkpt>
      <trkpt lat="45.23883" lon="1.89531">
        <ele>517.81</ele>
        <time>2012-08-30T09:44:32Z</time>
      </trkpt>
      <trkpt lat="45.23879" lon="1.89529">
        <ele>517.81</ele>
        <time>2012-08-30T09:44:33Z</time>
      </trkpt>
      <trkpt lat="45.23869" lon="1.89525">
        <ele>517.81</ele>
        <time>2012-08-30T09:44:37Z</time>
      </trkpt>
      <trkpt lat="45.23868" lon="1.89523">
        <ele>517.81</ele>
        <time>2012-08-30T09:44:40Z</time>
      </trkpt>
      <trkpt lat="45.23867" lon="1.89524">
        <ele>517.81</ele>
        <time>2012-08-30T09:44:42Z</time>
      </trkpt>
      <trkpt lat="45.23866" lon="1.89523">
        <ele>517.33</ele>
        <time>2012-08-30T09:44:43Z</time>
      </trkpt>
      <trkpt lat="45.23863" lon="1.89523">
        <ele>517.33</ele>
        <time>2012-08-30T09:44:44Z</time>
      </trkpt>
      <trkpt lat="45.23861" lon="1.89522">
        <ele>517.33</ele>
        <time>2012-08-30T09:44:45Z</time>
      </trkpt>
      <trkpt lat="45.23859" lon="1.89522">
        <ele>517.33</ele>
        <time>2012-08-30T09:44:46Z</time>
      </trkpt>
      <trkpt lat="45.23856" lon="1.8952">
        <ele>517.33</ele>
        <time>2012-08-30T09:44:47Z</time>
      </trkpt>
      <trkpt lat="45.23853" lon="1.89519">
        <ele>517.33</ele>
        <time>2012-08-30T09:44:48Z</time>
      </trkpt>
      <trkpt lat="45.23849" lon="1.89519">
        <ele>517.33</ele>
        <time>2012-08-30T09:44:49Z</time>
      </trkpt>
      <trkpt lat="45.23841" lon="1.89518">
        <ele>516.85</ele>
        <time>2012-08-30T09:44:54Z</time>
      </trkpt>
      <trkpt lat="45.23839" lon="1.89516">
        <ele>516.37</ele>
        <time>2012-08-30T09:44:59Z</time>
      </trkpt>
      <trkpt lat="45.23837" lon="1.89515">
        <ele>516.85</ele>
        <time>2012-08-30T09:45:00Z</time>
      </trkpt>
      <trkpt lat="45.23835" lon="1.89514">
        <ele>516.85</ele>
        <time>2012-08-30T09:45:01Z</time>
      </trkpt>
      <trkpt lat="45.23833" lon="1.89513">
        <ele>516.85</ele>
        <time>2012-08-30T09:45:02Z</time>
      </trkpt>
      <trkpt lat="45.2383" lon="1.89512">
        <ele>516.37</ele>
        <time>2012-08-30T09:45:03Z</time>
      </trkpt>
      <trkpt lat="45.23826" lon="1.89511">
        <ele>515.88</ele>
        <time>2012-08-30T09:45:04Z</time>
      </trkpt>
      <trkpt lat="45.23822" lon="1.89511">
        <ele>516.37</ele>
        <time>2012-08-30T09:45:05Z</time>
      </trkpt>
      <trkpt lat="45.23819" lon="1.8951">
        <ele>516.85</ele>
        <time>2012-08-30T09:45:06Z</time>
      </trkpt>
      <trkpt lat="45.23818" lon="1.89509">
        <ele>516.37</ele>
        <time>2012-08-30T09:45:07Z</time>
      </trkpt>
      <trkpt lat="45.23816" lon="1.89508">
        <ele>515.88</ele>
        <time>2012-08-30T09:45:08Z</time>
      </trkpt>
      <trkpt lat="45.23814" lon="1.89508">
        <ele>515.88</ele>
        <time>2012-08-30T09:45:09Z</time>
      </trkpt>
      <trkpt lat="45.23812" lon="1.89507">
        <ele>515.88</ele>
        <time>2012-08-30T09:45:10Z</time>
      </trkpt>
      <trkpt lat="45.23811" lon="1.89507">
        <ele>515.88</ele>
        <time>2012-08-30T09:45:11Z</time>
      </trkpt>
      <trkpt lat="45.23811" lon="1.89505">
        <ele>515.88</ele>
        <time>2012-08-30T09:45:15Z</time>
      </trkpt>
      <trkpt lat="45.23812" lon="1.89504">
        <ele>515.88</ele>
        <time>2012-08-30T09:45:16Z</time>
      </trkpt>
      <trkpt lat="45.23812" lon="1.89504">
        <ele>514.92</ele>
        <time>2012-08-30T09:45:18Z</time>
      </trkpt>
      <trkpt lat="45.238" lon="1.895">
        <ele>514.92</ele>
        <time>2012-08-30T09:45:23Z</time>
      </trkpt>
      <trkpt lat="45.23793" lon="1.89498">
        <ele>515.4</ele>
        <time>2012-08-30T09:45:28Z</time>
      </trkpt>
      <trkpt lat="45.23787" lon="1.89495">
        <ele>514.92</ele>
        <time>2012-08-30T09:45:35Z</time>
      </trkpt>
      <trkpt lat="45.23777" lon="1.89494">
        <ele>511.56</ele>
        <time>2012-08-30T09:45:40Z</time>
      </trkpt>
      <trkpt lat="45.23771" lon="1.89494">
        <ele>515.4</ele>
        <time>2012-08-30T09:45:44Z</time>
      </trkpt>
      <trkpt lat="45.23763" lon="1.89492">
        <ele>513.96</ele>
        <time>2012-08-30T09:45:52Z</time>
      </trkpt>
      <trkpt lat="45.23763" lon="1.89492">
        <ele>509.64</ele>
        <time>2012-08-30T09:45:54Z</time>
      </trkpt>
      <trkpt lat="45.23763" lon="1.89492">
        <ele>515.4</ele>
        <time>2012-08-30T09:45:55Z</time>
      </trkpt>
      <trkpt lat="45.23763" lon="1.89492">
        <ele>512.04</ele>
        <time>2012-08-30T09:45:58Z</time>
      </trkpt>
      <trkpt lat="45.23763" lon="1.89492">
        <ele>516.85</ele>
        <time>2012-08-30T09:45:59Z</time>
      </trkpt>
      <trkpt lat="45.23763" lon="1.89492">
        <ele>513.96</ele>
        <time>2012-08-30T09:46:01Z</time>
      </trkpt>
      <trkpt lat="45.23759" lon="1.89491">
        <ele>513.48</ele>
        <time>2012-08-30T09:46:09Z</time>
      </trkpt>
      <trkpt lat="45.23756" lon="1.89489">
        <ele>512.52</ele>
        <time>2012-08-30T09:46:15Z</time>
      </trkpt>
      <trkpt lat="45.23751" lon="1.89491">
        <ele>512.04</ele>
        <time>2012-08-30T09:46:20Z</time>
      </trkpt>
      <trkpt lat="45.23739" lon="1.89487">
        <ele>512.04</ele>
        <time>2012-08-30T09:46:25Z</time>
      </trkpt>
      <trkpt lat="45.23733" lon="1.89487">
        <ele>511.56</ele>
        <time>2012-08-30T09:46:28Z</time>
      </trkpt>
      <trkpt lat="45.2373" lon="1.89488">
        <ele>512.04</ele>
        <time>2012-08-30T09:46:32Z</time>
      </trkpt>
      <trkpt lat="45.2373" lon="1.89488">
        <ele>510.12</ele>
        <time>2012-08-30T09:46:34Z</time>
      </trkpt>
      <trkpt lat="45.2373" lon="1.89488">
        <ele>510.6</ele>
        <time>2012-08-30T09:46:52Z</time>
      </trkpt>
      <trkpt lat="45.2373" lon="1.89488">
        <ele>510.6</ele>
        <time>2012-08-30T09:47:08Z</time>
      </trkpt>
      <trkpt lat="45.2373" lon="1.89488">
        <ele>511.08</ele>
        <time>2012-08-30T09:47:09Z</time>
      </trkpt>
      <trkpt lat="45.23728" lon="1.89487">
        <ele>511.56</ele>
        <time>2012-08-30T09:47:11Z</time>
      </trkpt>
      <trkpt lat="45.23716" lon="1.89485">
        <ele>510.12</ele>
        <time>2012-08-30T09:47:18Z</time>
      </trkpt>
      <trkpt lat="45.23712" lon="1.89485">
        <ele>509.64</ele>
        <time>2012-08-30T09:47:25Z</time>
      </trkpt>
      <trkpt lat="45.2371" lon="1.89485">
        <ele>509.64</ele>
        <time>2012-08-30T09:47:26Z</time>
      </trkpt>
      <trkpt lat="45.23699" lon="1.89485">
        <ele>507.71</ele>
        <time>2012-08-30T09:47:34Z</time>
      </trkpt>
      <trkpt lat="45.23695" lon="1.89485">
        <ele>506.75</ele>
        <time>2012-08-30T09:47:36Z</time>
      </trkpt>
      <trkpt lat="45.23684" lon="1.89484">
        <ele>506.27</ele>
        <time>2012-08-30T09:47:41Z</time>
      </trkpt>
      <trkpt lat="45.23677" lon="1.89482">
        <ele>504.35</ele>
        <time>2012-08-30T09:47:49Z</time>
      </trkpt>
      <trkpt lat="45.23663" lon="1.89477">
        <ele>503.39</ele>
        <time>2012-08-30T09:47:55Z</time>
      </trkpt>
      <trkpt lat="45.23652" lon="1.89475">
        <ele>502.43</ele>
        <time>2012-08-30T09:48:00Z</time>
      </trkpt>
      <trkpt lat="45.23642" lon="1.89471">
        <ele>501.46</ele>
        <time>2012-08-30T09:48:06Z</time>
      </trkpt>
      <trkpt lat="45.23638" lon="1.89467">
        <ele>500.98</ele>
        <time>2012-08-30T09:48:12Z</time>
      </trkpt>
      <trkpt lat="45.23636" lon="1.89467">
        <ele>500.5</ele>
        <time>2012-08-30T09:48:14Z</time>
      </trkpt>
      <trkpt lat="45.23624" lon="1.89467">
        <ele>500.5</ele>
        <time>2012-08-30T09:48:19Z</time>
      </trkpt>
      <trkpt lat="45.23615" lon="1.89463">
        <ele>499.06</ele>
        <time>2012-08-30T09:48:26Z</time>
      </trkpt>
      <trkpt lat="45.23608" lon="1.8946">
        <ele>496.18</ele>
        <time>2012-08-30T09:48:33Z</time>
      </trkpt>
      <trkpt lat="45.23596" lon="1.8946">
        <ele>498.1</ele>
        <time>2012-08-30T09:48:39Z</time>
      </trkpt>
      <trkpt lat="45.23587" lon="1.89456">
        <ele>496.18</ele>
        <time>2012-08-30T09:48:43Z</time>
      </trkpt>
      <trkpt lat="45.23572" lon="1.89456">
        <ele>494.26</ele>
        <time>2012-08-30T09:48:52Z</time>
      </trkpt>
      <trkpt lat="45.23568" lon="1.89454">
        <ele>494.26</ele>
        <time>2012-08-30T09:48:55Z</time>
      </trkpt>
      <trkpt lat="45.23559" lon="1.89453">
        <ele>493.29</ele>
        <time>2012-08-30T09:49:01Z</time>
      </trkpt>
      <trkpt lat="45.23556" lon="1.89449">
        <ele>492.33</ele>
        <time>2012-08-30T09:49:06Z</time>
      </trkpt>
      <trkpt lat="45.23539" lon="1.89447">
        <ele>490.89</ele>
        <time>2012-08-30T09:49:12Z</time>
      </trkpt>
      <trkpt lat="45.23533" lon="1.89442">
        <ele>490.89</ele>
        <time>2012-08-30T09:49:16Z</time>
      </trkpt>
      <trkpt lat="45.23531" lon="1.89442">
        <ele>486.08</ele>
        <time>2012-08-30T09:49:19Z</time>
      </trkpt>
      <trkpt lat="45.23529" lon="1.89441">
        <ele>495.22</ele>
        <time>2012-08-30T09:49:20Z</time>
      </trkpt>
      <trkpt lat="45.23528" lon="1.89441">
        <ele>490.41</ele>
        <time>2012-08-30T09:49:21Z</time>
      </trkpt>
      <trkpt lat="45.23525" lon="1.89441">
        <ele>489.93</ele>
        <time>2012-08-30T09:49:23Z</time>
      </trkpt>
      <trkpt lat="45.23521" lon="1.89441">
        <ele>489.93</ele>
        <time>2012-08-30T09:49:29Z</time>
      </trkpt>
      <trkpt lat="45.23521" lon="1.89441">
        <ele>488.97</ele>
        <time>2012-08-30T09:49:37Z</time>
      </trkpt>
      <trkpt lat="45.23521" lon="1.89441">
        <ele>489.45</ele>
        <time>2012-08-30T09:49:50Z</time>
      </trkpt>
      <trkpt lat="45.23521" lon="1.89441">
        <ele>489.45</ele>
        <time>2012-08-30T09:50:07Z</time>
      </trkpt>
      <trkpt lat="45.23521" lon="1.89441">
        <ele>489.45</ele>
        <time>2012-08-30T09:50:25Z</time>
      </trkpt>
      <trkpt lat="45.23521" lon="1.89441">
        <ele>489.93</ele>
        <time>2012-08-30T09:50:31Z</time>
      </trkpt>
      <trkpt lat="45.23523" lon="1.89431">
        <ele>489.93</ele>
        <time>2012-08-30T09:50:34Z</time>
      </trkpt>
      <trkpt lat="45.23524" lon="1.89424">
        <ele>489.93</ele>
        <time>2012-08-30T09:50:35Z</time>
      </trkpt>
      <trkpt lat="45.23525" lon="1.89418">
        <ele>490.41</ele>
        <time>2012-08-30T09:50:36Z</time>
      </trkpt>
      <trkpt lat="45.23525" lon="1.89411">
        <ele>491.37</ele>
        <time>2012-08-30T09:50:37Z</time>
      </trkpt>
      <trkpt lat="45.23525" lon="1.89402">
        <ele>491.37</ele>
        <time>2012-08-30T09:50:38Z</time>
      </trkpt>
      <trkpt lat="45.23525" lon="1.89367">
        <ele>493.77</ele>
        <time>2012-08-30T09:50:41Z</time>
      </trkpt>
      <trkpt lat="45.23524" lon="1.89287">
        <ele>496.18</ele>
        <time>2012-08-30T09:50:47Z</time>
      </trkpt>
      <trkpt lat="45.23526" lon="1.89226">
        <ele>498.1</ele>
        <time>2012-08-30T09:50:52Z</time>
      </trkpt>
      <trkpt lat="45.23527" lon="1.89216">
        <ele>497.14</ele>
        <time>2012-08-30T09:50:53Z</time>
      </trkpt>
      <trkpt lat="45.23529" lon="1.89206">
        <ele>497.14</ele>
        <time>2012-08-30T09:50:54Z</time>
      </trkpt>
      <trkpt lat="45.23533" lon="1.89198">
        <ele>498.1</ele>
        <time>2012-08-30T09:50:55Z</time>
      </trkpt>
      <trkpt lat="45.23538" lon="1.89191">
        <ele>496.66</ele>
        <time>2012-08-30T09:50:56Z</time>
      </trkpt>
      <trkpt lat="45.23543" lon="1.89185">
        <ele>491.85</ele>
        <time>2012-08-30T09:50:57Z</time>
      </trkpt>
      <trkpt lat="45.23549" lon="1.89179">
        <ele>497.62</ele>
        <time>2012-08-30T09:50:58Z</time>
      </trkpt>
      <trkpt lat="45.23555" lon="1.89174">
        <ele>495.7</ele>
        <time>2012-08-30T09:50:59Z</time>
      </trkpt>
      <trkpt lat="45.23562" lon="1.8917">
        <ele>495.7</ele>
        <time>2012-08-30T09:51:00Z</time>
      </trkpt>
      <trkpt lat="45.23568" lon="1.89167">
        <ele>495.7</ele>
        <time>2012-08-30T09:51:01Z</time>
      </trkpt>
      <trkpt lat="45.23573" lon="1.89164">
        <ele>494.74</ele>
        <time>2012-08-30T09:51:02Z</time>
      </trkpt>
      <trkpt lat="45.23584" lon="1.8916">
        <ele>493.77</ele>
        <time>2012-08-30T09:51:04Z</time>
      </trkpt>
      <trkpt lat="45.23613" lon="1.89152">
        <ele>490.89</ele>
        <time>2012-08-30T09:51:10Z</time>
      </trkpt>
      <trkpt lat="45.23623" lon="1.89147">
        <ele>490.41</ele>
        <time>2012-08-30T09:51:12Z</time>
      </trkpt>
      <trkpt lat="45.23628" lon="1.89144">
        <ele>489.45</ele>
        <time>2012-08-30T09:51:13Z</time>
      </trkpt>
      <trkpt lat="45.23632" lon="1.8914">
        <ele>489.45</ele>
        <time>2012-08-30T09:51:14Z</time>
      </trkpt>
      <trkpt lat="45.23639" lon="1.89131">
        <ele>488.97</ele>
        <time>2012-08-30T09:51:16Z</time>
      </trkpt>
      <trkpt lat="45.23641" lon="1.89126">
        <ele>488.97</ele>
        <time>2012-08-30T09:51:17Z</time>
      </trkpt>
      <trkpt lat="45.23643" lon="1.8912">
        <ele>488.97</ele>
        <time>2012-08-30T09:51:18Z</time>
      </trkpt>
      <trkpt lat="45.23644" lon="1.89115">
        <ele>489.45</ele>
        <time>2012-08-30T09:51:19Z</time>
      </trkpt>
      <trkpt lat="45.23646" lon="1.8911">
        <ele>488.97</ele>
        <time>2012-08-30T09:51:20Z</time>
      </trkpt>
      <trkpt lat="45.23651" lon="1.89094">
        <ele>487.53</ele>
        <time>2012-08-30T09:51:25Z</time>
      </trkpt>
      <trkpt lat="45.23651" lon="1.89091">
        <ele>487.53</ele>
        <time>2012-08-30T09:51:31Z</time>
      </trkpt>
      <trkpt lat="45.2365" lon="1.89089">
        <ele>487.53</ele>
        <time>2012-08-30T09:51:32Z</time>
      </trkpt>
      <trkpt lat="45.23649" lon="1.89088">
        <ele>488.01</ele>
        <time>2012-08-30T09:51:33Z</time>
      </trkpt>
      <trkpt lat="45.23648" lon="1.89087">
        <ele>487.05</ele>
        <time>2012-08-30T09:51:38Z</time>
      </trkpt>
      <trkpt lat="45.23647" lon="1.89088">
        <ele>485.12</ele>
        <time>2012-08-30T09:51:42Z</time>
      </trkpt>
      <trkpt lat="45.23645" lon="1.8909">
        <ele>488.97</ele>
        <time>2012-08-30T09:51:43Z</time>
      </trkpt>
      <trkpt lat="45.2364" lon="1.89111">
        <ele>489.45</ele>
        <time>2012-08-30T09:51:47Z</time>
      </trkpt>
      <trkpt lat="45.23627" lon="1.89138">
        <ele>489.93</ele>
        <time>2012-08-30T09:51:52Z</time>
      </trkpt>
      <trkpt lat="45.23623" lon="1.89142">
        <ele>489.93</ele>
        <time>2012-08-30T09:51:53Z</time>
      </trkpt>
      <trkpt lat="45.23618" lon="1.89145">
        <ele>490.89</ele>
        <time>2012-08-30T09:51:54Z</time>
      </trkpt>
      <trkpt lat="45.23614" lon="1.89148">
        <ele>491.37</ele>
        <time>2012-08-30T09:51:55Z</time>
      </trkpt>
      <trkpt lat="45.23609" lon="1.8915">
        <ele>491.85</ele>
        <time>2012-08-30T09:51:56Z</time>
      </trkpt>
      <trkpt lat="45.23605" lon="1.89151">
        <ele>492.33</ele>
        <time>2012-08-30T09:51:57Z</time>
      </trkpt>
      <trkpt lat="45.236" lon="1.89152">
        <ele>491.85</ele>
        <time>2012-08-30T09:51:58Z</time>
      </trkpt>
      <trkpt lat="45.23596" lon="1.89153">
        <ele>492.33</ele>
        <time>2012-08-30T09:51:59Z</time>
      </trkpt>
      <trkpt lat="45.23588" lon="1.89154">
        <ele>492.33</ele>
        <time>2012-08-30T09:52:03Z</time>
      </trkpt>
      <trkpt lat="45.23588" lon="1.89154">
        <ele>492.81</ele>
        <time>2012-08-30T09:52:13Z</time>
      </trkpt>
      <trkpt lat="45.23588" lon="1.89154">
        <ele>492.33</ele>
        <time>2012-08-30T09:52:14Z</time>
      </trkpt>
      <trkpt lat="45.23588" lon="1.89154">
        <ele>491.85</ele>
        <time>2012-08-30T09:52:21Z</time>
      </trkpt>
      <trkpt lat="45.23588" lon="1.8915">
        <ele>491.85</ele>
        <time>2012-08-30T09:52:24Z</time>
      </trkpt>
      <trkpt lat="45.23583" lon="1.89141">
        <ele>491.85</ele>
        <time>2012-08-30T09:52:30Z</time>
      </trkpt>
      <trkpt lat="45.23582" lon="1.89139">
        <ele>491.37</ele>
        <time>2012-08-30T09:52:31Z</time>
      </trkpt>
      <trkpt lat="45.23581" lon="1.89126">
        <ele>490.41</ele>
        <time>2012-08-30T09:52:39Z</time>
      </trkpt>
      <trkpt lat="45.23579" lon="1.89116">
        <ele>488.49</ele>
        <time>2012-08-30T09:52:44Z</time>
      </trkpt>
      <trkpt lat="45.23579" lon="1.89112">
        <ele>488.01</ele>
        <time>2012-08-30T09:52:46Z</time>
      </trkpt>
      <trkpt lat="45.23581" lon="1.89104">
        <ele>483.2</ele>
        <time>2012-08-30T09:52:51Z</time>
      </trkpt>
      <trkpt lat="45.23581" lon="1.89102">
        <ele>489.45</ele>
        <time>2012-08-30T09:52:52Z</time>
      </trkpt>
      <trkpt lat="45.23582" lon="1.89084">
        <ele>483.68</ele>
        <time>2012-08-30T09:53:00Z</time>
      </trkpt>
      <trkpt lat="45.23583" lon="1.89083">
        <ele>483.68</ele>
        <time>2012-08-30T09:53:01Z</time>
      </trkpt>
      <trkpt lat="45.23584" lon="1.89074">
        <ele>482.24</ele>
        <time>2012-08-30T09:53:06Z</time>
      </trkpt>
      <trkpt lat="45.23586" lon="1.89064">
        <ele>480.8</ele>
        <time>2012-08-30T09:53:11Z</time>
      </trkpt>
      <trkpt lat="45.23584" lon="1.89057">
        <ele>481.28</ele>
        <time>2012-08-30T09:53:15Z</time>
      </trkpt>
      <trkpt lat="45.23576" lon="1.89046">
        <ele>482.24</ele>
        <time>2012-08-30T09:53:22Z</time>
      </trkpt>
      <trkpt lat="45.23573" lon="1.89042">
        <ele>483.2</ele>
        <time>2012-08-30T09:53:25Z</time>
      </trkpt>
      <trkpt lat="45.23573" lon="1.89036">
        <ele>482.24</ele>
        <time>2012-08-30T09:53:31Z</time>
      </trkpt>
      <trkpt lat="45.23574" lon="1.89029">
        <ele>481.76</ele>
        <time>2012-08-30T09:53:37Z</time>
      </trkpt>
      <trkpt lat="45.23574" lon="1.89024">
        <ele>481.76</ele>
        <time>2012-08-30T09:53:39Z</time>
      </trkpt>
      <trkpt lat="45.2357" lon="1.88994">
        <ele>479.84</ele>
        <time>2012-08-30T09:53:46Z</time>
      </trkpt>
      <trkpt lat="45.23565" lon="1.88977">
        <ele>479.35</ele>
        <time>2012-08-30T09:53:52Z</time>
      </trkpt>
      <trkpt lat="45.23565" lon="1.88975">
        <ele>478.87</ele>
        <time>2012-08-30T09:53:53Z</time>
      </trkpt>
      <trkpt lat="45.23571" lon="1.88962">
        <ele>477.43</ele>
        <time>2012-08-30T09:54:00Z</time>
      </trkpt>
      <trkpt lat="45.23575" lon="1.88951">
        <ele>476.47</ele>
        <time>2012-08-30T09:54:07Z</time>
      </trkpt>
      <trkpt lat="45.23575" lon="1.88951">
        <ele>475.51</ele>
        <time>2012-08-30T09:54:08Z</time>
      </trkpt>
      <trkpt lat="45.23576" lon="1.88945">
        <ele>475.03</ele>
        <time>2012-08-30T09:54:11Z</time>
      </trkpt>
      <trkpt lat="45.23579" lon="1.88939">
        <ele>474.07</ele>
        <time>2012-08-30T09:54:16Z</time>
      </trkpt>
      <trkpt lat="45.23579" lon="1.88937">
        <ele>473.11</ele>
        <time>2012-08-30T09:54:18Z</time>
      </trkpt>
      <trkpt lat="45.23576" lon="1.88922">
        <ele>472.63</ele>
        <time>2012-08-30T09:54:23Z</time>
      </trkpt>
      <trkpt lat="45.23575" lon="1.88914">
        <ele>472.63</ele>
        <time>2012-08-30T09:54:25Z</time>
      </trkpt>
      <trkpt lat="45.23574" lon="1.889">
        <ele>470.7</ele>
        <time>2012-08-30T09:54:31Z</time>
      </trkpt>
      <trkpt lat="45.23577" lon="1.88886">
        <ele>468.78</ele>
        <time>2012-08-30T09:54:39Z</time>
      </trkpt>
      <trkpt lat="45.23579" lon="1.88876">
        <ele>467.34</ele>
        <time>2012-08-30T09:54:46Z</time>
      </trkpt>
      <trkpt lat="45.23579" lon="1.88872">
        <ele>466.38</ele>
        <time>2012-08-30T09:54:48Z</time>
      </trkpt>
      <trkpt lat="45.2358" lon="1.88862">
        <ele>465.42</ele>
        <time>2012-08-30T09:54:54Z</time>
      </trkpt>
      <trkpt lat="45.2358" lon="1.8885">
        <ele>463.49</ele>
        <time>2012-08-30T09:55:01Z</time>
      </trkpt>
      <trkpt lat="45.2358" lon="1.88846">
        <ele>463.97</ele>
        <time>2012-08-30T09:55:03Z</time>
      </trkpt>
      <trkpt lat="45.23581" lon="1.88831">
        <ele>461.57</ele>
        <time>2012-08-30T09:55:11Z</time>
      </trkpt>
      <trkpt lat="45.23588" lon="1.88819">
        <ele>460.13</ele>
        <time>2012-08-30T09:55:17Z</time>
      </trkpt>
      <trkpt lat="45.23589" lon="1.8882">
        <ele>460.13</ele>
        <time>2012-08-30T09:55:18Z</time>
      </trkpt>
      <trkpt lat="45.2359" lon="1.88817">
        <ele>459.65</ele>
        <time>2012-08-30T09:55:21Z</time>
      </trkpt>
      <trkpt lat="45.23603" lon="1.88813">
        <ele>459.17</ele>
        <time>2012-08-30T09:55:28Z</time>
      </trkpt>
      <trkpt lat="45.23612" lon="1.88812">
        <ele>458.69</ele>
        <time>2012-08-30T09:55:35Z</time>
      </trkpt>
      <trkpt lat="45.23617" lon="1.88809">
        <ele>458.69</ele>
        <time>2012-08-30T09:55:40Z</time>
      </trkpt>
      <trkpt lat="45.2362" lon="1.88803">
        <ele>458.21</ele>
        <time>2012-08-30T09:55:44Z</time>
      </trkpt>
      <trkpt lat="45.23626" lon="1.88786">
        <ele>457.24</ele>
        <time>2012-08-30T09:55:51Z</time>
      </trkpt>
      <trkpt lat="45.23625" lon="1.88778">
        <ele>457.24</ele>
        <time>2012-08-30T09:55:56Z</time>
      </trkpt>
      <trkpt lat="45.23625" lon="1.88765">
        <ele>456.76</ele>
        <time>2012-08-30T09:56:01Z</time>
      </trkpt>
      <trkpt lat="45.23624" lon="1.88753">
        <ele>456.28</ele>
        <time>2012-08-30T09:56:06Z</time>
      </trkpt>
      <trkpt lat="45.23623" lon="1.88746">
        <ele>455.32</ele>
        <time>2012-08-30T09:56:13Z</time>
      </trkpt>
      <trkpt lat="45.23619" lon="1.88737">
        <ele>454.84</ele>
        <time>2012-08-30T09:56:20Z</time>
      </trkpt>
      <trkpt lat="45.23618" lon="1.88728">
        <ele>453.4</ele>
        <time>2012-08-30T09:56:25Z</time>
      </trkpt>
      <trkpt lat="45.23613" lon="1.88718">
        <ele>452.44</ele>
        <time>2012-08-30T09:56:33Z</time>
      </trkpt>
      <trkpt lat="45.23612" lon="1.88717">
        <ele>452.92</ele>
        <time>2012-08-30T09:56:35Z</time>
      </trkpt>
      <trkpt lat="45.2361" lon="1.88716">
        <ele>451.96</ele>
        <time>2012-08-30T09:56:37Z</time>
      </trkpt>
      <trkpt lat="45.23604" lon="1.88714">
        <ele>452.44</ele>
        <time>2012-08-30T09:56:43Z</time>
      </trkpt>
      <trkpt lat="45.23597" lon="1.88714">
        <ele>452.92</ele>
        <time>2012-08-30T09:56:50Z</time>
      </trkpt>
      <trkpt lat="45.23591" lon="1.88719">
        <ele>452.92</ele>
        <time>2012-08-30T09:56:58Z</time>
      </trkpt>
      <trkpt lat="45.23584" lon="1.88722">
        <ele>453.4</ele>
        <time>2012-08-30T09:57:05Z</time>
      </trkpt>
      <trkpt lat="45.23579" lon="1.88726">
        <ele>453.4</ele>
        <time>2012-08-30T09:57:12Z</time>
      </trkpt>
      <trkpt lat="45.23571" lon="1.88731">
        <ele>457.24</ele>
        <time>2012-08-30T09:57:20Z</time>
      </trkpt>
      <trkpt lat="45.2357" lon="1.88733">
        <ele>453.4</ele>
        <time>2012-08-30T09:57:21Z</time>
      </trkpt>
      <trkpt lat="45.23562" lon="1.88742">
        <ele>452.92</ele>
        <time>2012-08-30T09:57:29Z</time>
      </trkpt>
      <trkpt lat="45.2356" lon="1.88744">
        <ele>462.05</ele>
        <time>2012-08-30T09:57:31Z</time>
      </trkpt>
      <trkpt lat="45.23559" lon="1.88745">
        <ele>455.32</ele>
        <time>2012-08-30T09:57:32Z</time>
      </trkpt>
      <trkpt lat="45.23557" lon="1.88747">
        <ele>450.52</ele>
        <time>2012-08-30T09:57:34Z</time>
      </trkpt>
      <trkpt lat="45.23556" lon="1.88748">
        <ele>458.21</ele>
        <time>2012-08-30T09:57:35Z</time>
      </trkpt>
      <trkpt lat="45.23555" lon="1.8875">
        <ele>449.07</ele>
        <time>2012-08-30T09:57:36Z</time>
      </trkpt>
      <trkpt lat="45.23554" lon="1.8875">
        <ele>455.8</ele>
        <time>2012-08-30T09:57:37Z</time>
      </trkpt>
      <trkpt lat="45.2355" lon="1.88753">
        <ele>454.36</ele>
        <time>2012-08-30T09:57:39Z</time>
      </trkpt>
      <trkpt lat="45.23546" lon="1.88759">
        <ele>451.96</ele>
        <time>2012-08-30T09:57:43Z</time>
      </trkpt>
      <trkpt lat="45.23546" lon="1.8876">
        <ele>455.8</ele>
        <time>2012-08-30T09:57:44Z</time>
      </trkpt>
      <trkpt lat="45.23542" lon="1.88763">
        <ele>451.48</ele>
        <time>2012-08-30T09:57:49Z</time>
      </trkpt>
      <trkpt lat="45.23541" lon="1.88764">
        <ele>456.76</ele>
        <time>2012-08-30T09:57:50Z</time>
      </trkpt>
      <trkpt lat="45.23537" lon="1.88771">
        <ele>454.84</ele>
        <time>2012-08-30T09:57:53Z</time>
      </trkpt>
      <trkpt lat="45.23528" lon="1.88791">
        <ele>455.32</ele>
        <time>2012-08-30T09:58:00Z</time>
      </trkpt>
      <trkpt lat="45.23524" lon="1.88809">
        <ele>455.8</ele>
        <time>2012-08-30T09:58:07Z</time>
      </trkpt>
      <trkpt lat="45.23522" lon="1.88816">
        <ele>455.8</ele>
        <time>2012-08-30T09:58:14Z</time>
      </trkpt>
      <trkpt lat="45.23518" lon="1.88818">
        <ele>455.8</ele>
        <time>2012-08-30T09:58:22Z</time>
      </trkpt>
      <trkpt lat="45.23517" lon="1.88826">
        <ele>456.28</ele>
        <time>2012-08-30T09:58:28Z</time>
      </trkpt>
      <trkpt lat="45.23518" lon="1.88832">
        <ele>457.24</ele>
        <time>2012-08-30T09:58:36Z</time>
      </trkpt>
      <trkpt lat="45.23518" lon="1.88834">
        <ele>457.24</ele>
        <time>2012-08-30T09:58:43Z</time>
      </trkpt>
      <trkpt lat="45.23518" lon="1.88834">
        <ele>457.72</ele>
        <time>2012-08-30T09:58:50Z</time>
      </trkpt>
      <trkpt lat="45.23518" lon="1.88837">
        <ele>457.24</ele>
        <time>2012-08-30T09:58:57Z</time>
      </trkpt>
      <trkpt lat="45.23518" lon="1.88837">
        <ele>457.24</ele>
        <time>2012-08-30T09:59:07Z</time>
      </trkpt>
      <trkpt lat="45.23518" lon="1.88837">
        <ele>457.24</ele>
        <time>2012-08-30T09:59:22Z</time>
      </trkpt>
      <trkpt lat="45.23518" lon="1.88838">
        <ele>457.72</ele>
        <time>2012-08-30T09:59:40Z</time>
      </trkpt>
      <trkpt lat="45.23518" lon="1.88838">
        <ele>468.78</ele>
        <time>2012-08-30T09:59:53Z</time>
      </trkpt>
      <trkpt lat="45.23518" lon="1.88838">
        <ele>455.8</ele>
        <time>2012-08-30T09:59:54Z</time>
      </trkpt>
      <trkpt lat="45.23518" lon="1.88838">
        <ele>459.17</ele>
        <time>2012-08-30T09:59:56Z</time>
      </trkpt>
      <trkpt lat="45.23518" lon="1.88838">
        <ele>455.8</ele>
        <time>2012-08-30T10:00:00Z</time>
      </trkpt>
      <trkpt lat="45.23518" lon="1.88838">
        <ele>459.17</ele>
        <time>2012-08-30T10:00:07Z</time>
      </trkpt>
      <trkpt lat="45.23518" lon="1.88838">
        <ele>455.8</ele>
        <time>2012-08-30T10:00:08Z</time>
      </trkpt>
      <trkpt lat="45.23518" lon="1.88838">
        <ele>460.13</ele>
        <time>2012-08-30T10:00:11Z</time>
      </trkpt>
      <trkpt lat="45.23518" lon="1.88838">
        <ele>458.69</ele>
        <time>2012-08-30T10:00:12Z</time>
      </trkpt>
      <trkpt lat="45.23518" lon="1.88838">
        <ele>455.32</ele>
        <time>2012-08-30T10:00:19Z</time>
      </trkpt>
      <trkpt lat="45.23518" lon="1.88838">
        <ele>458.21</ele>
        <time>2012-08-30T10:00:20Z</time>
      </trkpt>
      <trkpt lat="45.23518" lon="1.88838">
        <ele>454.84</ele>
        <time>2012-08-30T10:00:26Z</time>
      </trkpt>
      <trkpt lat="45.23518" lon="1.88838">
        <ele>455.32</ele>
        <time>2012-08-30T10:00:27Z</time>
      </trkpt>
      <trkpt lat="45.23518" lon="1.88838">
        <ele>458.69</ele>
        <time>2012-08-30T10:00:28Z</time>
      </trkpt>
      <trkpt lat="45.23518" lon="1.88838">
        <ele>459.17</ele>
        <time>2012-08-30T10:00:29Z</time>
      </trkpt>
      <trkpt lat="45.23518" lon="1.88838">
        <ele>455.32</ele>
        <time>2012-08-30T10:00:32Z</time>
      </trkpt>
      <trkpt lat="45.23518" lon="1.88838">
        <ele>455.8</ele>
        <time>2012-08-30T10:00:50Z</time>
      </trkpt>
      <trkpt lat="45.23518" lon="1.88838">
        <ele>449.07</ele>
        <time>2012-08-30T10:00:53Z</time>
      </trkpt>
      <trkpt lat="45.23518" lon="1.88838">
        <ele>459.17</ele>
        <time>2012-08-30T10:00:54Z</time>
      </trkpt>
      <trkpt lat="45.23518" lon="1.88838">
        <ele>458.21</ele>
        <time>2012-08-30T10:00:55Z</time>
      </trkpt>
      <trkpt lat="45.23518" lon="1.88838">
        <ele>457.72</ele>
        <time>2012-08-30T10:01:06Z</time>
      </trkpt>
      <trkpt lat="45.23518" lon="1.88838">
        <ele>458.21</ele>
        <time>2012-08-30T10:01:19Z</time>
      </trkpt>
      <trkpt lat="45.23518" lon="1.88838">
        <ele>458.21</ele>
        <time>2012-08-30T10:01:23Z</time>
      </trkpt>
      <trkpt lat="45.2352" lon="1.88863">
        <ele>458.69</ele>
        <time>2012-08-30T10:01:32Z</time>
      </trkpt>
      <trkpt lat="45.23519" lon="1.88875">
        <ele>458.69</ele>
        <time>2012-08-30T10:01:37Z</time>
      </trkpt>
      <trkpt lat="45.23503" lon="1.88913">
        <ele>459.17</ele>
        <time>2012-08-30T10:01:45Z</time>
      </trkpt>
      <trkpt lat="45.23478" lon="1.88928">
        <ele>459.17</ele>
        <time>2012-08-30T10:01:52Z</time>
      </trkpt>
      <trkpt lat="45.23443" lon="1.88935">
        <ele>459.17</ele>
        <time>2012-08-30T10:02:01Z</time>
      </trkpt>
      <trkpt lat="45.23417" lon="1.88932">
        <ele>459.17</ele>
        <time>2012-08-30T10:02:07Z</time>
      </trkpt>
      <trkpt lat="45.23392" lon="1.88937">
        <ele>460.13</ele>
        <time>2012-08-30T10:02:14Z</time>
      </trkpt>
      <trkpt lat="45.23369" lon="1.88943">
        <ele>460.13</ele>
        <time>2012-08-30T10:02:21Z</time>
      </trkpt>
      <trkpt lat="45.23353" lon="1.88957">
        <ele>463.01</ele>
        <time>2012-08-30T10:02:27Z</time>
      </trkpt>
      <trkpt lat="45.2335" lon="1.88962">
        <ele>459.65</ele>
        <time>2012-08-30T10:02:28Z</time>
      </trkpt>
      <trkpt lat="45.23348" lon="1.88966">
        <ele>459.65</ele>
        <time>2012-08-30T10:02:29Z</time>
      </trkpt>
      <trkpt lat="45.23335" lon="1.89003">
        <ele>459.65</ele>
        <time>2012-08-30T10:02:37Z</time>
      </trkpt>
      <trkpt lat="45.23338" lon="1.89034">
        <ele>460.13</ele>
        <time>2012-08-30T10:02:44Z</time>
      </trkpt>
      <trkpt lat="45.23342" lon="1.89066">
        <ele>459.65</ele>
        <time>2012-08-30T10:02:50Z</time>
      </trkpt>
      <trkpt lat="45.23346" lon="1.89123">
        <ele>460.13</ele>
        <time>2012-08-30T10:02:58Z</time>
      </trkpt>
      <trkpt lat="45.23352" lon="1.89168">
        <ele>460.61</ele>
        <time>2012-08-30T10:03:06Z</time>
      </trkpt>
      <trkpt lat="45.23354" lon="1.89208">
        <ele>460.61</ele>
        <time>2012-08-30T10:03:14Z</time>
      </trkpt>
      <trkpt lat="45.23344" lon="1.89245">
        <ele>461.09</ele>
        <time>2012-08-30T10:03:21Z</time>
      </trkpt>
      <trkpt lat="45.23325" lon="1.89285">
        <ele>462.05</ele>
        <time>2012-08-30T10:03:29Z</time>
      </trkpt>
      <trkpt lat="45.23303" lon="1.89325">
        <ele>463.01</ele>
        <time>2012-08-30T10:03:38Z</time>
      </trkpt>
      <trkpt lat="45.23283" lon="1.89352">
        <ele>463.49</ele>
        <time>2012-08-30T10:03:45Z</time>
      </trkpt>
      <trkpt lat="45.23267" lon="1.89377">
        <ele>463.49</ele>
        <time>2012-08-30T10:03:52Z</time>
      </trkpt>
      <trkpt lat="45.23248" lon="1.89399">
        <ele>464.93</ele>
        <time>2012-08-30T10:03:59Z</time>
      </trkpt>
      <trkpt lat="45.23228" lon="1.89417">
        <ele>465.42</ele>
        <time>2012-08-30T10:04:06Z</time>
      </trkpt>
      <trkpt lat="45.23205" lon="1.8944">
        <ele>466.38</ele>
        <time>2012-08-30T10:04:14Z</time>
      </trkpt>
      <trkpt lat="45.23175" lon="1.8947">
        <ele>466.86</ele>
        <time>2012-08-30T10:04:23Z</time>
      </trkpt>
      <trkpt lat="45.23156" lon="1.89501">
        <ele>467.34</ele>
        <time>2012-08-30T10:04:30Z</time>
      </trkpt>
      <trkpt lat="45.23144" lon="1.89532">
        <ele>468.78</ele>
        <time>2012-08-30T10:04:36Z</time>
      </trkpt>
      <trkpt lat="45.2314" lon="1.89573">
        <ele>470.22</ele>
        <time>2012-08-30T10:04:43Z</time>
      </trkpt>
      <trkpt lat="45.23148" lon="1.89613">
        <ele>471.18</ele>
        <time>2012-08-30T10:04:50Z</time>
      </trkpt>
      <trkpt lat="45.23163" lon="1.89638">
        <ele>471.66</ele>
        <time>2012-08-30T10:04:56Z</time>
      </trkpt>
      <trkpt lat="45.23186" lon="1.89657">
        <ele>472.14</ele>
        <time>2012-08-30T10:05:03Z</time>
      </trkpt>
      <trkpt lat="45.23214" lon="1.89677">
        <ele>471.66</ele>
        <time>2012-08-30T10:05:11Z</time>
      </trkpt>
      <trkpt lat="45.23236" lon="1.89692">
        <ele>472.63</ele>
        <time>2012-08-30T10:05:18Z</time>
      </trkpt>
      <trkpt lat="45.23259" lon="1.89712">
        <ele>472.14</ele>
        <time>2012-08-30T10:05:26Z</time>
      </trkpt>
      <trkpt lat="45.23282" lon="1.89758">
        <ele>472.63</ele>
        <time>2012-08-30T10:05:34Z</time>
      </trkpt>
      <trkpt lat="45.23295" lon="1.89801">
        <ele>473.11</ele>
        <time>2012-08-30T10:05:43Z</time>
      </trkpt>
      <trkpt lat="45.23288" lon="1.89826">
        <ele>473.11</ele>
        <time>2012-08-30T10:05:48Z</time>
      </trkpt>
      <trkpt lat="45.23271" lon="1.89846">
        <ele>473.11</ele>
        <time>2012-08-30T10:05:54Z</time>
      </trkpt>
      <trkpt lat="45.23259" lon="1.89856">
        <ele>474.07</ele>
        <time>2012-08-30T10:06:00Z</time>
      </trkpt>
      <trkpt lat="45.23259" lon="1.89856">
        <ele>473.59</ele>
        <time>2012-08-30T10:06:01Z</time>
      </trkpt>
      <trkpt lat="45.23252" lon="1.89864">
        <ele>473.59</ele>
        <time>2012-08-30T10:06:04Z</time>
      </trkpt>
      <trkpt lat="45.23249" lon="1.89868">
        <ele>474.55</ele>
        <time>2012-08-30T10:06:05Z</time>
      </trkpt>
      <trkpt lat="45.23241" lon="1.89874">
        <ele>475.03</ele>
        <time>2012-08-30T10:06:07Z</time>
      </trkpt>
      <trkpt lat="45.23215" lon="1.89895">
        <ele>476.95</ele>
        <time>2012-08-30T10:06:12Z</time>
      </trkpt>
      <trkpt lat="45.23209" lon="1.89902">
        <ele>476.95</ele>
        <time>2012-08-30T10:06:13Z</time>
      </trkpt>
      <trkpt lat="45.23204" lon="1.8991">
        <ele>476.95</ele>
        <time>2012-08-30T10:06:14Z</time>
      </trkpt>
      <trkpt lat="45.23195" lon="1.89926">
        <ele>477.91</ele>
        <time>2012-08-30T10:06:16Z</time>
      </trkpt>
      <trkpt lat="45.23192" lon="1.89934">
        <ele>476.95</ele>
        <time>2012-08-30T10:06:17Z</time>
      </trkpt>
      <trkpt lat="45.2318" lon="1.89959">
        <ele>478.39</ele>
        <time>2012-08-30T10:06:22Z</time>
      </trkpt>
      <trkpt lat="45.23169" lon="1.89969">
        <ele>477.91</ele>
        <time>2012-08-30T10:06:25Z</time>
      </trkpt>
      <trkpt lat="45.2315" lon="1.89985">
        <ele>476.47</ele>
        <time>2012-08-30T10:06:31Z</time>
      </trkpt>
      <trkpt lat="45.23146" lon="1.89982">
        <ele>475.99</ele>
        <time>2012-08-30T10:06:32Z</time>
      </trkpt>
      <trkpt lat="45.23119" lon="1.89958">
        <ele>475.51</ele>
        <time>2012-08-30T10:06:39Z</time>
      </trkpt>
      <trkpt lat="45.23108" lon="1.89942">
        <ele>475.99</ele>
        <time>2012-08-30T10:06:45Z</time>
      </trkpt>
      <trkpt lat="45.23097" lon="1.8991">
        <ele>475.51</ele>
        <time>2012-08-30T10:06:51Z</time>
      </trkpt>
      <trkpt lat="45.23086" lon="1.89877">
        <ele>474.55</ele>
        <time>2012-08-30T10:06:57Z</time>
      </trkpt>
      <trkpt lat="45.23076" lon="1.89863">
        <ele>474.55</ele>
        <time>2012-08-30T10:07:04Z</time>
      </trkpt>
      <trkpt lat="45.23057" lon="1.89858">
        <ele>476.47</ele>
        <time>2012-08-30T10:07:11Z</time>
      </trkpt>
      <trkpt lat="45.23031" lon="1.89866">
        <ele>480.32</ele>
        <time>2012-08-30T10:07:18Z</time>
      </trkpt>
      <trkpt lat="45.23027" lon="1.89868">
        <ele>480.32</ele>
        <time>2012-08-30T10:07:19Z</time>
      </trkpt>
      <trkpt lat="45.23018" lon="1.89874">
        <ele>480.8</ele>
        <time>2012-08-30T10:07:22Z</time>
      </trkpt>
      <trkpt lat="45.23008" lon="1.89888">
        <ele>482.24</ele>
        <time>2012-08-30T10:07:25Z</time>
      </trkpt>
      <trkpt lat="45.23004" lon="1.89892">
        <ele>483.2</ele>
        <time>2012-08-30T10:07:26Z</time>
      </trkpt>
      <trkpt lat="45.22981" lon="1.89916">
        <ele>484.64</ele>
        <time>2012-08-30T10:07:33Z</time>
      </trkpt>
      <trkpt lat="45.22977" lon="1.89917">
        <ele>483.2</ele>
        <time>2012-08-30T10:07:34Z</time>
      </trkpt>
      <trkpt lat="45.22967" lon="1.89918">
        <ele>478.87</ele>
        <time>2012-08-30T10:07:36Z</time>
      </trkpt>
      <trkpt lat="45.22962" lon="1.89919">
        <ele>486.08</ele>
        <time>2012-08-30T10:07:37Z</time>
      </trkpt>
      <trkpt lat="45.2295" lon="1.89919">
        <ele>487.05</ele>
        <time>2012-08-30T10:07:39Z</time>
      </trkpt>
      <trkpt lat="45.2293" lon="1.8992">
        <ele>490.89</ele>
        <time>2012-08-30T10:07:42Z</time>
      </trkpt>
      <trkpt lat="45.22923" lon="1.8992">
        <ele>487.53</ele>
        <time>2012-08-30T10:07:43Z</time>
      </trkpt>
      <trkpt lat="45.22908" lon="1.8992">
        <ele>491.37</ele>
        <time>2012-08-30T10:07:45Z</time>
      </trkpt>
      <trkpt lat="45.229" lon="1.8992">
        <ele>487.53</ele>
        <time>2012-08-30T10:07:46Z</time>
      </trkpt>
      <trkpt lat="45.22892" lon="1.89921">
        <ele>491.37</ele>
        <time>2012-08-30T10:07:47Z</time>
      </trkpt>
      <trkpt lat="45.22884" lon="1.89923">
        <ele>488.01</ele>
        <time>2012-08-30T10:07:48Z</time>
      </trkpt>
      <trkpt lat="45.22877" lon="1.89924">
        <ele>482.24</ele>
        <time>2012-08-30T10:07:49Z</time>
      </trkpt>
      <trkpt lat="45.2287" lon="1.89926">
        <ele>490.41</ele>
        <time>2012-08-30T10:07:50Z</time>
      </trkpt>
      <trkpt lat="45.22846" lon="1.89938">
        <ele>488.01</ele>
        <time>2012-08-30T10:07:55Z</time>
      </trkpt>
      <trkpt lat="45.22844" lon="1.89938">
        <ele>488.01</ele>
        <time>2012-08-30T10:07:56Z</time>
      </trkpt>
      <trkpt lat="45.22842" lon="1.89937">
        <ele>488.49</ele>
        <time>2012-08-30T10:07:57Z</time>
      </trkpt>
      <trkpt lat="45.22833" lon="1.89915">
        <ele>487.53</ele>
        <time>2012-08-30T10:08:02Z</time>
      </trkpt>
      <trkpt lat="45.2283" lon="1.89901">
        <ele>485.12</ele>
        <time>2012-08-30T10:08:06Z</time>
      </trkpt>
      <trkpt lat="45.22835" lon="1.89889">
        <ele>485.12</ele>
        <time>2012-08-30T10:08:11Z</time>
      </trkpt>
      <trkpt lat="45.22839" lon="1.89876">
        <ele>484.16</ele>
        <time>2012-08-30T10:08:18Z</time>
      </trkpt>
      <trkpt lat="45.22839" lon="1.89873">
        <ele>484.16</ele>
        <time>2012-08-30T10:08:26Z</time>
      </trkpt>
      <trkpt lat="45.22839" lon="1.89873">
        <ele>487.53</ele>
        <time>2012-08-30T10:08:32Z</time>
      </trkpt>
      <trkpt lat="45.22839" lon="1.89873">
        <ele>484.64</ele>
        <time>2012-08-30T10:08:33Z</time>
      </trkpt>
      <trkpt lat="45.22841" lon="1.89874">
        <ele>484.16</ele>
        <time>2012-08-30T10:08:43Z</time>
      </trkpt>
      <trkpt lat="45.22841" lon="1.89866">
        <ele>483.68</ele>
        <time>2012-08-30T10:08:48Z</time>
      </trkpt>
      <trkpt lat="45.22841" lon="1.89864">
        <ele>483.2</ele>
        <time>2012-08-30T10:08:49Z</time>
      </trkpt>
      <trkpt lat="45.22842" lon="1.89862">
        <ele>483.68</ele>
        <time>2012-08-30T10:08:50Z</time>
      </trkpt>
      <trkpt lat="45.22842" lon="1.8986">
        <ele>483.2</ele>
        <time>2012-08-30T10:08:51Z</time>
      </trkpt>
      <trkpt lat="45.22842" lon="1.89857">
        <ele>482.72</ele>
        <time>2012-08-30T10:08:52Z</time>
      </trkpt>
      <trkpt lat="45.22842" lon="1.89855">
        <ele>483.2</ele>
        <time>2012-08-30T10:08:53Z</time>
      </trkpt>
      <trkpt lat="45.22843" lon="1.89852">
        <ele>481.76</ele>
        <time>2012-08-30T10:08:54Z</time>
      </trkpt>
      <trkpt lat="45.22844" lon="1.89848">
        <ele>482.72</ele>
        <time>2012-08-30T10:08:55Z</time>
      </trkpt>
      <trkpt lat="45.22844" lon="1.89845">
        <ele>482.72</ele>
        <time>2012-08-30T10:08:56Z</time>
      </trkpt>
      <trkpt lat="45.22844" lon="1.89843">
        <ele>482.24</ele>
        <time>2012-08-30T10:08:57Z</time>
      </trkpt>
      <trkpt lat="45.22844" lon="1.8984">
        <ele>482.24</ele>
        <time>2012-08-30T10:08:58Z</time>
      </trkpt>
      <trkpt lat="45.22844" lon="1.89838">
        <ele>482.24</ele>
        <time>2012-08-30T10:08:59Z</time>
      </trkpt>
      <trkpt lat="45.22844" lon="1.8983">
        <ele>482.24</ele>
        <time>2012-08-30T10:09:04Z</time>
      </trkpt>
      <trkpt lat="45.22845" lon="1.89829">
        <ele>481.76</ele>
        <time>2012-08-30T10:09:05Z</time>
      </trkpt>
      <trkpt lat="45.22845" lon="1.89828">
        <ele>481.28</ele>
        <time>2012-08-30T10:09:06Z</time>
      </trkpt>
      <trkpt lat="45.22845" lon="1.89824">
        <ele>481.76</ele>
        <time>2012-08-30T10:09:13Z</time>
      </trkpt>
      <trkpt lat="45.22844" lon="1.89824">
        <ele>481.28</ele>
        <time>2012-08-30T10:09:14Z</time>
      </trkpt>
      <trkpt lat="45.22843" lon="1.89825">
        <ele>481.28</ele>
        <time>2012-08-30T10:09:15Z</time>
      </trkpt>
      <trkpt lat="45.22842" lon="1.89826">
        <ele>481.28</ele>
        <time>2012-08-30T10:09:16Z</time>
      </trkpt>
      <trkpt lat="45.22841" lon="1.89826">
        <ele>481.28</ele>
        <time>2012-08-30T10:09:17Z</time>
      </trkpt>
      <trkpt lat="45.22839" lon="1.89826">
        <ele>481.28</ele>
        <time>2012-08-30T10:09:18Z</time>
      </trkpt>
      <trkpt lat="45.22838" lon="1.89826">
        <ele>481.28</ele>
        <time>2012-08-30T10:09:19Z</time>
      </trkpt>
      <trkpt lat="45.22837" lon="1.89827">
        <ele>481.28</ele>
        <time>2012-08-30T10:09:20Z</time>
      </trkpt>
      <trkpt lat="45.22836" lon="1.89828">
        <ele>481.28</ele>
        <time>2012-08-30T10:09:21Z</time>
      </trkpt>
      <trkpt lat="45.22835" lon="1.8983">
        <ele>480.8</ele>
        <time>2012-08-30T10:09:22Z</time>
      </trkpt>
      <trkpt lat="45.22834" lon="1.89831">
        <ele>480.8</ele>
        <time>2012-08-30T10:09:23Z</time>
      </trkpt>
      <trkpt lat="45.22833" lon="1.89832">
        <ele>480.8</ele>
        <time>2012-08-30T10:09:24Z</time>
      </trkpt>
      <trkpt lat="45.22832" lon="1.89834">
        <ele>480.32</ele>
        <time>2012-08-30T10:09:25Z</time>
      </trkpt>
      <trkpt lat="45.22831" lon="1.89835">
        <ele>480.8</ele>
        <time>2012-08-30T10:09:26Z</time>
      </trkpt>
      <trkpt lat="45.22826" lon="1.8984">
        <ele>480.8</ele>
        <time>2012-08-30T10:09:32Z</time>
      </trkpt>
      <trkpt lat="45.22822" lon="1.89843">
        <ele>480.32</ele>
        <time>2012-08-30T10:09:35Z</time>
      </trkpt>
      <trkpt lat="45.22819" lon="1.89849">
        <ele>480.32</ele>
        <time>2012-08-30T10:09:38Z</time>
      </trkpt>
      <trkpt lat="45.22818" lon="1.89853">
        <ele>479.84</ele>
        <time>2012-08-30T10:09:40Z</time>
      </trkpt>
      <trkpt lat="45.22817" lon="1.89855">
        <ele>480.8</ele>
        <time>2012-08-30T10:09:41Z</time>
      </trkpt>
      <trkpt lat="45.22816" lon="1.89857">
        <ele>479.35</ele>
        <time>2012-08-30T10:09:42Z</time>
      </trkpt>
      <trkpt lat="45.22816" lon="1.89858">
        <ele>482.24</ele>
        <time>2012-08-30T10:09:43Z</time>
      </trkpt>
      <trkpt lat="45.22815" lon="1.8986">
        <ele>479.35</ele>
        <time>2012-08-30T10:09:44Z</time>
      </trkpt>
      <trkpt lat="45.22815" lon="1.89862">
        <ele>482.24</ele>
        <time>2012-08-30T10:09:45Z</time>
      </trkpt>
      <trkpt lat="45.22814" lon="1.89863">
        <ele>475.03</ele>
        <time>2012-08-30T10:09:46Z</time>
      </trkpt>
      <trkpt lat="45.22813" lon="1.89865">
        <ele>480.32</ele>
        <time>2012-08-30T10:09:47Z</time>
      </trkpt>
      <trkpt lat="45.22812" lon="1.89867">
        <ele>479.35</ele>
        <time>2012-08-30T10:09:48Z</time>
      </trkpt>
      <trkpt lat="45.22804" lon="1.89875">
        <ele>479.84</ele>
        <time>2012-08-30T10:09:52Z</time>
      </trkpt>
      <trkpt lat="45.22804" lon="1.89877">
        <ele>478.87</ele>
        <time>2012-08-30T10:09:53Z</time>
      </trkpt>
      <trkpt lat="45.22802" lon="1.89879">
        <ele>479.35</ele>
        <time>2012-08-30T10:09:54Z</time>
      </trkpt>
      <trkpt lat="45.22801" lon="1.89881">
        <ele>479.35</ele>
        <time>2012-08-30T10:09:55Z</time>
      </trkpt>
      <trkpt lat="45.22799" lon="1.89883">
        <ele>478.39</ele>
        <time>2012-08-30T10:10:00Z</time>
      </trkpt>
      <trkpt lat="45.22797" lon="1.89884">
        <ele>478.87</ele>
        <time>2012-08-30T10:10:03Z</time>
      </trkpt>
      <trkpt lat="45.22794" lon="1.89885">
        <ele>478.39</ele>
        <time>2012-08-30T10:10:05Z</time>
      </trkpt>
      <trkpt lat="45.22792" lon="1.89887">
        <ele>478.39</ele>
        <time>2012-08-30T10:10:06Z</time>
      </trkpt>
      <trkpt lat="45.22791" lon="1.89888">
        <ele>478.39</ele>
        <time>2012-08-30T10:10:07Z</time>
      </trkpt>
      <trkpt lat="45.22788" lon="1.89889">
        <ele>478.87</ele>
        <time>2012-08-30T10:10:08Z</time>
      </trkpt>
      <trkpt lat="45.22784" lon="1.8989">
        <ele>478.87</ele>
        <time>2012-08-30T10:10:09Z</time>
      </trkpt>
      <trkpt lat="45.22769" lon="1.89898">
        <ele>478.87</ele>
        <time>2012-08-30T10:10:14Z</time>
      </trkpt>
      <trkpt lat="45.2276" lon="1.89902">
        <ele>478.39</ele>
        <time>2012-08-30T10:10:19Z</time>
      </trkpt>
      <trkpt lat="45.2276" lon="1.89901">
        <ele>477.91</ele>
        <time>2012-08-30T10:10:21Z</time>
      </trkpt>
      <trkpt lat="45.22757" lon="1.899">
        <ele>478.39</ele>
        <time>2012-08-30T10:10:28Z</time>
      </trkpt>
      <trkpt lat="45.22756" lon="1.89898">
        <ele>478.39</ele>
        <time>2012-08-30T10:10:30Z</time>
      </trkpt>
      <trkpt lat="45.22755" lon="1.89898">
        <ele>478.39</ele>
        <time>2012-08-30T10:10:31Z</time>
      </trkpt>
      <trkpt lat="45.22749" lon="1.89897">
        <ele>478.39</ele>
        <time>2012-08-30T10:10:35Z</time>
      </trkpt>
      <trkpt lat="45.22732" lon="1.89904">
        <ele>477.43</ele>
        <time>2012-08-30T10:10:41Z</time>
      </trkpt>
      <trkpt lat="45.22722" lon="1.89912">
        <ele>477.43</ele>
        <time>2012-08-30T10:10:47Z</time>
      </trkpt>
      <trkpt lat="45.2272" lon="1.89909">
        <ele>476.47</ele>
        <time>2012-08-30T10:10:54Z</time>
      </trkpt>
      <trkpt lat="45.22718" lon="1.89908">
        <ele>475.99</ele>
        <time>2012-08-30T10:10:58Z</time>
      </trkpt>
      <trkpt lat="45.22716" lon="1.89907">
        <ele>476.47</ele>
        <time>2012-08-30T10:10:59Z</time>
      </trkpt>
      <trkpt lat="45.22707" lon="1.89911">
        <ele>475.99</ele>
        <time>2012-08-30T10:11:05Z</time>
      </trkpt>
      <trkpt lat="45.22704" lon="1.89911">
        <ele>475.99</ele>
        <time>2012-08-30T10:11:06Z</time>
      </trkpt>
      <trkpt lat="45.22702" lon="1.89912">
        <ele>475.99</ele>
        <time>2012-08-30T10:11:07Z</time>
      </trkpt>
      <trkpt lat="45.227" lon="1.89913">
        <ele>475.99</ele>
        <time>2012-08-30T10:11:08Z</time>
      </trkpt>
      <trkpt lat="45.22697" lon="1.89913">
        <ele>475.99</ele>
        <time>2012-08-30T10:11:09Z</time>
      </trkpt>
      <trkpt lat="45.22694" lon="1.89914">
        <ele>475.51</ele>
        <time>2012-08-30T10:11:10Z</time>
      </trkpt>
      <trkpt lat="45.22679" lon="1.89915">
        <ele>475.51</ele>
        <time>2012-08-30T10:11:17Z</time>
      </trkpt>
      <trkpt lat="45.22672" lon="1.89911">
        <ele>475.51</ele>
        <time>2012-08-30T10:11:23Z</time>
      </trkpt>
      <trkpt lat="45.22671" lon="1.8991">
        <ele>475.03</ele>
        <time>2012-08-30T10:11:24Z</time>
      </trkpt>
      <trkpt lat="45.2267" lon="1.89909">
        <ele>475.03</ele>
        <time>2012-08-30T10:11:25Z</time>
      </trkpt>
      <trkpt lat="45.22666" lon="1.89904">
        <ele>475.99</ele>
        <time>2012-08-30T10:11:32Z</time>
      </trkpt>
      <trkpt lat="45.22665" lon="1.89897">
        <ele>475.03</ele>
        <time>2012-08-30T10:11:38Z</time>
      </trkpt>
      <trkpt lat="45.22664" lon="1.89896">
        <ele>475.51</ele>
        <time>2012-08-30T10:11:48Z</time>
      </trkpt>
      <trkpt lat="45.22664" lon="1.89896">
        <ele>476.95</ele>
        <time>2012-08-30T10:11:49Z</time>
      </trkpt>
      <trkpt lat="45.22659" lon="1.8989">
        <ele>476.47</ele>
        <time>2012-08-30T10:11:52Z</time>
      </trkpt>
      <trkpt lat="45.22648" lon="1.89876">
        <ele>476.47</ele>
        <time>2012-08-30T10:11:59Z</time>
      </trkpt>
      <trkpt lat="45.22644" lon="1.89865">
        <ele>475.99</ele>
        <time>2012-08-30T10:12:04Z</time>
      </trkpt>
      <trkpt lat="45.22643" lon="1.89859">
        <ele>475.51</ele>
        <time>2012-08-30T10:12:07Z</time>
      </trkpt>
      <trkpt lat="45.22637" lon="1.8985">
        <ele>476.95</ele>
        <time>2012-08-30T10:12:11Z</time>
      </trkpt>
      <trkpt lat="45.22624" lon="1.89834">
        <ele>475.99</ele>
        <time>2012-08-30T10:12:17Z</time>
      </trkpt>
      <trkpt lat="45.22615" lon="1.8982">
        <ele>476.47</ele>
        <time>2012-08-30T10:12:23Z</time>
      </trkpt>
      <trkpt lat="45.22609" lon="1.89814">
        <ele>476.47</ele>
        <time>2012-08-30T10:12:28Z</time>
      </trkpt>
      <trkpt lat="45.22606" lon="1.89812">
        <ele>476.47</ele>
        <time>2012-08-30T10:12:31Z</time>
      </trkpt>
      <trkpt lat="45.22604" lon="1.89811">
        <ele>476.95</ele>
        <time>2012-08-30T10:12:37Z</time>
      </trkpt>
      <trkpt lat="45.22603" lon="1.89809">
        <ele>476.47</ele>
        <time>2012-08-30T10:12:41Z</time>
      </trkpt>
      <trkpt lat="45.22599" lon="1.89804">
        <ele>476.47</ele>
        <time>2012-08-30T10:12:46Z</time>
      </trkpt>
      <trkpt lat="45.22578" lon="1.89808">
        <ele>477.91</ele>
        <time>2012-08-30T10:12:54Z</time>
      </trkpt>
      <trkpt lat="45.22565" lon="1.8981">
        <ele>477.91</ele>
        <time>2012-08-30T10:13:00Z</time>
      </trkpt>
      <trkpt lat="45.22551" lon="1.89809">
        <ele>477.91</ele>
        <time>2012-08-30T10:13:06Z</time>
      </trkpt>
      <trkpt lat="45.22537" lon="1.89811">
        <ele>478.39</ele>
        <time>2012-08-30T10:13:12Z</time>
      </trkpt>
      <trkpt lat="45.22535" lon="1.89809">
        <ele>477.91</ele>
        <time>2012-08-30T10:13:14Z</time>
      </trkpt>
      <trkpt lat="45.22533" lon="1.89808">
        <ele>477.91</ele>
        <time>2012-08-30T10:13:16Z</time>
      </trkpt>
      <trkpt lat="45.22527" lon="1.89802">
        <ele>478.39</ele>
        <time>2012-08-30T10:13:25Z</time>
      </trkpt>
      <trkpt lat="45.22527" lon="1.89801">
        <ele>478.39</ele>
        <time>2012-08-30T10:13:33Z</time>
      </trkpt>
      <trkpt lat="45.22518" lon="1.89799">
        <ele>478.87</ele>
        <time>2012-08-30T10:13:40Z</time>
      </trkpt>
      <trkpt lat="45.2251" lon="1.89799">
        <ele>478.87</ele>
        <time>2012-08-30T10:13:47Z</time>
      </trkpt>
      <trkpt lat="45.22506" lon="1.89798">
        <ele>479.84</ele>
        <time>2012-08-30T10:13:53Z</time>
      </trkpt>
      <trkpt lat="45.22499" lon="1.89796">
        <ele>480.8</ele>
        <time>2012-08-30T10:13:57Z</time>
      </trkpt>
      <trkpt lat="45.22482" lon="1.89796">
        <ele>480.32</ele>
        <time>2012-08-30T10:14:03Z</time>
      </trkpt>
      <trkpt lat="45.2247" lon="1.8979">
        <ele>479.84</ele>
        <time>2012-08-30T10:14:10Z</time>
      </trkpt>
      <trkpt lat="45.22466" lon="1.89786">
        <ele>480.32</ele>
        <time>2012-08-30T10:14:13Z</time>
      </trkpt>
      <trkpt lat="45.22459" lon="1.89773">
        <ele>481.76</ele>
        <time>2012-08-30T10:14:22Z</time>
      </trkpt>
      <trkpt lat="45.22454" lon="1.89767">
        <ele>482.24</ele>
        <time>2012-08-30T10:14:26Z</time>
      </trkpt>
      <trkpt lat="45.22453" lon="1.89767">
        <ele>482.72</ele>
        <time>2012-08-30T10:14:30Z</time>
      </trkpt>
      <trkpt lat="45.22452" lon="1.89758">
        <ele>483.68</ele>
        <time>2012-08-30T10:14:37Z</time>
      </trkpt>
      <trkpt lat="45.22448" lon="1.89755">
        <ele>484.64</ele>
        <time>2012-08-30T10:14:45Z</time>
      </trkpt>
      <trkpt lat="45.22446" lon="1.8975">
        <ele>486.56</ele>
        <time>2012-08-30T10:14:53Z</time>
      </trkpt>
      <trkpt lat="45.22445" lon="1.89746">
        <ele>487.53</ele>
        <time>2012-08-30T10:14:59Z</time>
      </trkpt>
      <trkpt lat="45.22445" lon="1.89745">
        <ele>487.53</ele>
        <time>2012-08-30T10:15:00Z</time>
      </trkpt>
      <trkpt lat="45.22443" lon="1.89732">
        <ele>488.49</ele>
        <time>2012-08-30T10:15:07Z</time>
      </trkpt>
      <trkpt lat="45.22442" lon="1.89718">
        <ele>489.45</ele>
        <time>2012-08-30T10:15:12Z</time>
      </trkpt>
      <trkpt lat="45.22441" lon="1.89706">
        <ele>490.89</ele>
        <time>2012-08-30T10:15:19Z</time>
      </trkpt>
      <trkpt lat="45.2244" lon="1.89701">
        <ele>491.85</ele>
        <time>2012-08-30T10:15:25Z</time>
      </trkpt>
      <trkpt lat="45.2244" lon="1.89697">
        <ele>492.33</ele>
        <time>2012-08-30T10:15:28Z</time>
      </trkpt>
      <trkpt lat="45.22436" lon="1.89686">
        <ele>492.81</ele>
        <time>2012-08-30T10:15:34Z</time>
      </trkpt>
      <trkpt lat="45.22434" lon="1.89675">
        <ele>493.77</ele>
        <time>2012-08-30T10:15:39Z</time>
      </trkpt>
      <trkpt lat="45.22434" lon="1.89672">
        <ele>493.77</ele>
        <time>2012-08-30T10:15:45Z</time>
      </trkpt>
      <trkpt lat="45.22431" lon="1.89667">
        <ele>494.26</ele>
        <time>2012-08-30T10:15:48Z</time>
      </trkpt>
      <trkpt lat="45.2243" lon="1.89658">
        <ele>494.74</ele>
        <time>2012-08-30T10:15:55Z</time>
      </trkpt>
      <trkpt lat="45.22429" lon="1.89646">
        <ele>495.7</ele>
        <time>2012-08-30T10:16:01Z</time>
      </trkpt>
      <trkpt lat="45.2243" lon="1.89642">
        <ele>496.18</ele>
        <time>2012-08-30T10:16:04Z</time>
      </trkpt>
      <trkpt lat="45.22427" lon="1.89634">
        <ele>497.14</ele>
        <time>2012-08-30T10:16:10Z</time>
      </trkpt>
      <trkpt lat="45.22419" lon="1.89631">
        <ele>498.58</ele>
        <time>2012-08-30T10:16:17Z</time>
      </trkpt>
      <trkpt lat="45.22413" lon="1.8963">
        <ele>498.58</ele>
        <time>2012-08-30T10:16:23Z</time>
      </trkpt>
      <trkpt lat="45.22408" lon="1.89628">
        <ele>500.5</ele>
        <time>2012-08-30T10:16:29Z</time>
      </trkpt>
      <trkpt lat="45.22401" lon="1.89622">
        <ele>500.98</ele>
        <time>2012-08-30T10:16:35Z</time>
      </trkpt>
      <trkpt lat="45.22399" lon="1.89618">
        <ele>501.95</ele>
        <time>2012-08-30T10:16:42Z</time>
      </trkpt>
      <trkpt lat="45.22397" lon="1.89619">
        <ele>502.43</ele>
        <time>2012-08-30T10:16:43Z</time>
      </trkpt>
      <trkpt lat="45.22389" lon="1.89616">
        <ele>502.43</ele>
        <time>2012-08-30T10:16:49Z</time>
      </trkpt>
      <trkpt lat="45.22387" lon="1.89615">
        <ele>502.91</ele>
        <time>2012-08-30T10:16:55Z</time>
      </trkpt>
      <trkpt lat="45.22385" lon="1.89614">
        <ele>503.39</ele>
        <time>2012-08-30T10:17:01Z</time>
      </trkpt>
      <trkpt lat="45.22379" lon="1.89615">
        <ele>503.39</ele>
        <time>2012-08-30T10:17:05Z</time>
      </trkpt>
      <trkpt lat="45.22361" lon="1.89619">
        <ele>503.39</ele>
        <time>2012-08-30T10:17:12Z</time>
      </trkpt>
      <trkpt lat="45.22356" lon="1.8962">
        <ele>507.23</ele>
        <time>2012-08-30T10:17:15Z</time>
      </trkpt>
      <trkpt lat="45.22355" lon="1.89621">
        <ele>503.87</ele>
        <time>2012-08-30T10:17:16Z</time>
      </trkpt>
      <trkpt lat="45.22353" lon="1.89621">
        <ele>506.75</ele>
        <time>2012-08-30T10:17:17Z</time>
      </trkpt>
      <trkpt lat="45.22352" lon="1.89621">
        <ele>500.02</ele>
        <time>2012-08-30T10:17:18Z</time>
      </trkpt>
      <trkpt lat="45.22349" lon="1.89622">
        <ele>510.12</ele>
        <time>2012-08-30T10:17:19Z</time>
      </trkpt>
      <trkpt lat="45.22348" lon="1.89622">
        <ele>496.18</ele>
        <time>2012-08-30T10:17:20Z</time>
      </trkpt>
      <trkpt lat="45.22346" lon="1.89622">
        <ele>506.27</ele>
        <time>2012-08-30T10:17:21Z</time>
      </trkpt>
      <trkpt lat="45.22342" lon="1.89625">
        <ele>501.46</ele>
        <time>2012-08-30T10:17:27Z</time>
      </trkpt>
      <trkpt lat="45.22339" lon="1.89626">
        <ele>504.83</ele>
        <time>2012-08-30T10:17:29Z</time>
      </trkpt>
      <trkpt lat="45.22332" lon="1.89624">
        <ele>503.87</ele>
        <time>2012-08-30T10:17:34Z</time>
      </trkpt>
      <trkpt lat="45.2232" lon="1.89624">
        <ele>503.87</ele>
        <time>2012-08-30T10:17:40Z</time>
      </trkpt>
      <trkpt lat="45.22308" lon="1.89625">
        <ele>503.87</ele>
        <time>2012-08-30T10:17:48Z</time>
      </trkpt>
      <trkpt lat="45.22296" lon="1.89626">
        <ele>504.83</ele>
        <time>2012-08-30T10:17:58Z</time>
      </trkpt>
      <trkpt lat="45.22278" lon="1.89633">
        <ele>506.27</ele>
        <time>2012-08-30T10:18:11Z</time>
      </trkpt>
      <trkpt lat="45.22274" lon="1.89633">
        <ele>506.27</ele>
        <time>2012-08-30T10:18:13Z</time>
      </trkpt>
      <trkpt lat="45.22266" lon="1.8963">
        <ele>505.79</ele>
        <time>2012-08-30T10:18:17Z</time>
      </trkpt>
      <trkpt lat="45.22258" lon="1.89632">
        <ele>505.79</ele>
        <time>2012-08-30T10:18:24Z</time>
      </trkpt>
      <trkpt lat="45.22254" lon="1.89636">
        <ele>506.75</ele>
        <time>2012-08-30T10:18:30Z</time>
      </trkpt>
      <trkpt lat="45.22244" lon="1.89639">
        <ele>507.71</ele>
        <time>2012-08-30T10:18:35Z</time>
      </trkpt>
      <trkpt lat="45.22241" lon="1.8964">
        <ele>509.64</ele>
        <time>2012-08-30T10:18:41Z</time>
      </trkpt>
      <trkpt lat="45.22241" lon="1.8964">
        <ele>509.64</ele>
        <time>2012-08-30T10:18:42Z</time>
      </trkpt>
      <trkpt lat="45.2224" lon="1.89639">
        <ele>510.12</ele>
        <time>2012-08-30T10:18:49Z</time>
      </trkpt>
      <trkpt lat="45.2223" lon="1.89643">
        <ele>511.08</ele>
        <time>2012-08-30T10:18:55Z</time>
      </trkpt>
      <trkpt lat="45.22228" lon="1.89643">
        <ele>511.56</ele>
        <time>2012-08-30T10:18:56Z</time>
      </trkpt>
      <trkpt lat="45.22221" lon="1.89643">
        <ele>512.04</ele>
        <time>2012-08-30T10:19:03Z</time>
      </trkpt>
      <trkpt lat="45.22212" lon="1.8964">
        <ele>513.48</ele>
        <time>2012-08-30T10:19:10Z</time>
      </trkpt>
      <trkpt lat="45.22203" lon="1.89637">
        <ele>514.44</ele>
        <time>2012-08-30T10:19:15Z</time>
      </trkpt>
      <trkpt lat="45.22193" lon="1.89633">
        <ele>515.4</ele>
        <time>2012-08-30T10:19:24Z</time>
      </trkpt>
      <trkpt lat="45.22185" lon="1.8963">
        <ele>517.33</ele>
        <time>2012-08-30T10:19:30Z</time>
      </trkpt>
      <trkpt lat="45.22183" lon="1.8963">
        <ele>518.29</ele>
        <time>2012-08-30T10:19:37Z</time>
      </trkpt>
      <trkpt lat="45.22178" lon="1.89639">
        <ele>518.29</ele>
        <time>2012-08-30T10:19:44Z</time>
      </trkpt>
      <trkpt lat="45.22175" lon="1.89642">
        <ele>518.29</ele>
        <time>2012-08-30T10:19:46Z</time>
      </trkpt>
      <trkpt lat="45.22166" lon="1.89648">
        <ele>518.77</ele>
        <time>2012-08-30T10:19:54Z</time>
      </trkpt>
      <trkpt lat="45.2216" lon="1.89646">
        <ele>519.73</ele>
        <time>2012-08-30T10:19:59Z</time>
      </trkpt>
      <trkpt lat="45.22144" lon="1.89644">
        <ele>520.21</ele>
        <time>2012-08-30T10:20:05Z</time>
      </trkpt>
      <trkpt lat="45.22135" lon="1.89645">
        <ele>520.21</ele>
        <time>2012-08-30T10:20:11Z</time>
      </trkpt>
      <trkpt lat="45.22131" lon="1.89643">
        <ele>520.69</ele>
        <time>2012-08-30T10:20:15Z</time>
      </trkpt>
      <trkpt lat="45.22124" lon="1.89639">
        <ele>520.69</ele>
        <time>2012-08-30T10:20:23Z</time>
      </trkpt>
      <trkpt lat="45.22117" lon="1.89637">
        <ele>520.69</ele>
        <time>2012-08-30T10:20:29Z</time>
      </trkpt>
      <trkpt lat="45.2211" lon="1.89633">
        <ele>519.73</ele>
        <time>2012-08-30T10:20:36Z</time>
      </trkpt>
      <trkpt lat="45.22105" lon="1.89633">
        <ele>519.73</ele>
        <time>2012-08-30T10:20:43Z</time>
      </trkpt>
      <trkpt lat="45.221" lon="1.89631">
        <ele>518.77</ele>
        <time>2012-08-30T10:20:49Z</time>
      </trkpt>
      <trkpt lat="45.22093" lon="1.89631">
        <ele>517.81</ele>
        <time>2012-08-30T10:20:54Z</time>
      </trkpt>
      <trkpt lat="45.22085" lon="1.89626">
        <ele>517.81</ele>
        <time>2012-08-30T10:21:00Z</time>
      </trkpt>
      <trkpt lat="45.22079" lon="1.89619">
        <ele>517.33</ele>
        <time>2012-08-30T10:21:04Z</time>
      </trkpt>
      <trkpt lat="45.22076" lon="1.89616">
        <ele>516.85</ele>
        <time>2012-08-30T10:21:07Z</time>
      </trkpt>
      <trkpt lat="45.22075" lon="1.89611">
        <ele>517.33</ele>
        <time>2012-08-30T10:21:12Z</time>
      </trkpt>
      <trkpt lat="45.22068" lon="1.89596">
        <ele>517.81</ele>
        <time>2012-08-30T10:21:20Z</time>
      </trkpt>
      <trkpt lat="45.22066" lon="1.89588">
        <ele>518.77</ele>
        <time>2012-08-30T10:21:27Z</time>
      </trkpt>
      <trkpt lat="45.22065" lon="1.89585">
        <ele>519.73</ele>
        <time>2012-08-30T10:21:34Z</time>
      </trkpt>
      <trkpt lat="45.2206" lon="1.89576">
        <ele>518.29</ele>
        <time>2012-08-30T10:21:41Z</time>
      </trkpt>
      <trkpt lat="45.22059" lon="1.89573">
        <ele>519.73</ele>
        <time>2012-08-30T10:21:43Z</time>
      </trkpt>
      <trkpt lat="45.22051" lon="1.89564">
        <ele>520.69</ele>
        <time>2012-08-30T10:21:50Z</time>
      </trkpt>
      <trkpt lat="45.22044" lon="1.89558">
        <ele>521.65</ele>
        <time>2012-08-30T10:21:57Z</time>
      </trkpt>
      <trkpt lat="45.22041" lon="1.89555">
        <ele>523.09</ele>
        <time>2012-08-30T10:22:04Z</time>
      </trkpt>
      <trkpt lat="45.22041" lon="1.89555">
        <ele>522.61</ele>
        <time>2012-08-30T10:22:14Z</time>
      </trkpt>
      <trkpt lat="45.22041" lon="1.89555">
        <ele>522.61</ele>
        <time>2012-08-30T10:22:22Z</time>
      </trkpt>
      <trkpt lat="45.2204" lon="1.89555">
        <ele>522.61</ele>
        <time>2012-08-30T10:22:27Z</time>
      </trkpt>
      <trkpt lat="45.22035" lon="1.89553">
        <ele>524.06</ele>
        <time>2012-08-30T10:22:31Z</time>
      </trkpt>
      <trkpt lat="45.22016" lon="1.8954">
        <ele>526.46</ele>
        <time>2012-08-30T10:22:39Z</time>
      </trkpt>
      <trkpt lat="45.21992" lon="1.89534">
        <ele>528.38</ele>
        <time>2012-08-30T10:22:49Z</time>
      </trkpt>
      <trkpt lat="45.21959" lon="1.89536">
        <ele>528.86</ele>
        <time>2012-08-30T10:22:57Z</time>
      </trkpt>
      <trkpt lat="45.21911" lon="1.89532">
        <ele>529.34</ele>
        <time>2012-08-30T10:23:06Z</time>
      </trkpt>
      <trkpt lat="45.2188" lon="1.89526">
        <ele>529.82</ele>
        <time>2012-08-30T10:23:14Z</time>
      </trkpt>
      <trkpt lat="45.21858" lon="1.89519">
        <ele>530.3</ele>
        <time>2012-08-30T10:23:23Z</time>
      </trkpt>
      <trkpt lat="45.21851" lon="1.89515">
        <ele>528.86</ele>
        <time>2012-08-30T10:23:25Z</time>
      </trkpt>
      <trkpt lat="45.21812" lon="1.89495">
        <ele>527.42</ele>
        <time>2012-08-30T10:23:34Z</time>
      </trkpt>
      <trkpt lat="45.21757" lon="1.89466">
        <ele>529.34</ele>
        <time>2012-08-30T10:23:40Z</time>
      </trkpt>
      <trkpt lat="45.21705" lon="1.89408">
        <ele>527.9</ele>
        <time>2012-08-30T10:23:45Z</time>
      </trkpt>
      <trkpt lat="45.2169" lon="1.89392">
        <ele>533.19</ele>
        <time>2012-08-30T10:23:47Z</time>
      </trkpt>
      <trkpt lat="45.21683" lon="1.89384">
        <ele>529.82</ele>
        <time>2012-08-30T10:23:48Z</time>
      </trkpt>
      <trkpt lat="45.21676" lon="1.89376">
        <ele>533.19</ele>
        <time>2012-08-30T10:23:49Z</time>
      </trkpt>
      <trkpt lat="45.21669" lon="1.89369">
        <ele>536.55</ele>
        <time>2012-08-30T10:23:50Z</time>
      </trkpt>
      <trkpt lat="45.21663" lon="1.89362">
        <ele>533.19</ele>
        <time>2012-08-30T10:23:51Z</time>
      </trkpt>
      <trkpt lat="45.21655" lon="1.89356">
        <ele>539.92</ele>
        <time>2012-08-30T10:23:52Z</time>
      </trkpt>
      <trkpt lat="45.21648" lon="1.8935">
        <ele>526.94</ele>
        <time>2012-08-30T10:23:53Z</time>
      </trkpt>
      <trkpt lat="45.21641" lon="1.89344">
        <ele>540.4</ele>
        <time>2012-08-30T10:23:54Z</time>
      </trkpt>
      <trkpt lat="45.21634" lon="1.89339">
        <ele>533.19</ele>
        <time>2012-08-30T10:23:55Z</time>
      </trkpt>
      <trkpt lat="45.21627" lon="1.89333">
        <ele>540.4</ele>
        <time>2012-08-30T10:23:56Z</time>
      </trkpt>
      <trkpt lat="45.21613" lon="1.89322">
        <ele>534.15</ele>
        <time>2012-08-30T10:23:58Z</time>
      </trkpt>
      <trkpt lat="45.21606" lon="1.89317">
        <ele>543.28</ele>
        <time>2012-08-30T10:23:59Z</time>
      </trkpt>
      <trkpt lat="45.21599" lon="1.89312">
        <ele>538.48</ele>
        <time>2012-08-30T10:24:00Z</time>
      </trkpt>
      <trkpt lat="45.21592" lon="1.89307">
        <ele>543.28</ele>
        <time>2012-08-30T10:24:01Z</time>
      </trkpt>
      <trkpt lat="45.21586" lon="1.89301">
        <ele>539.44</ele>
        <time>2012-08-30T10:24:02Z</time>
      </trkpt>
      <trkpt lat="45.21579" lon="1.89296">
        <ele>547.13</ele>
        <time>2012-08-30T10:24:03Z</time>
      </trkpt>
      <trkpt lat="45.21573" lon="1.89291">
        <ele>539.92</ele>
        <time>2012-08-30T10:24:04Z</time>
      </trkpt>
      <trkpt lat="45.21566" lon="1.89285">
        <ele>545.69</ele>
        <time>2012-08-30T10:24:05Z</time>
      </trkpt>
      <trkpt lat="45.21554" lon="1.89274">
        <ele>542.32</ele>
        <time>2012-08-30T10:24:07Z</time>
      </trkpt>
      <trkpt lat="45.21547" lon="1.89269">
        <ele>549.05</ele>
        <time>2012-08-30T10:24:08Z</time>
      </trkpt>
      <trkpt lat="45.21528" lon="1.89255">
        <ele>548.09</ele>
        <time>2012-08-30T10:24:11Z</time>
      </trkpt>
      <trkpt lat="45.21506" lon="1.89243">
        <ele>548.09</ele>
        <time>2012-08-30T10:24:16Z</time>
      </trkpt>
      <trkpt lat="45.21499" lon="1.89235">
        <ele>548.57</ele>
        <time>2012-08-30T10:24:19Z</time>
      </trkpt>
      <trkpt lat="45.21479" lon="1.89206">
        <ele>550.97</ele>
        <time>2012-08-30T10:24:23Z</time>
      </trkpt>
      <trkpt lat="45.21432" lon="1.89137">
        <ele>549.53</ele>
        <time>2012-08-30T10:24:30Z</time>
      </trkpt>
      <trkpt lat="45.21412" lon="1.89107">
        <ele>546.17</ele>
        <time>2012-08-30T10:24:34Z</time>
      </trkpt>
      <trkpt lat="45.21405" lon="1.89094">
        <ele>545.69</ele>
        <time>2012-08-30T10:24:36Z</time>
      </trkpt>
      <trkpt lat="45.21401" lon="1.89088">
        <ele>545.2</ele>
        <time>2012-08-30T10:24:37Z</time>
      </trkpt>
      <trkpt lat="45.21397" lon="1.89083">
        <ele>544.72</ele>
        <time>2012-08-30T10:24:38Z</time>
      </trkpt>
      <trkpt lat="45.21389" lon="1.89074">
        <ele>541.36</ele>
        <time>2012-08-30T10:24:40Z</time>
      </trkpt>
      <trkpt lat="45.21384" lon="1.89069">
        <ele>544.72</ele>
        <time>2012-08-30T10:24:41Z</time>
      </trkpt>
      <trkpt lat="45.21375" lon="1.8906">
        <ele>540.88</ele>
        <time>2012-08-30T10:24:43Z</time>
      </trkpt>
      <trkpt lat="45.21335" lon="1.89024">
        <ele>538.96</ele>
        <time>2012-08-30T10:24:51Z</time>
      </trkpt>
      <trkpt lat="45.21325" lon="1.89013">
        <ele>537.51</ele>
        <time>2012-08-30T10:24:53Z</time>
      </trkpt>
      <trkpt lat="45.21307" lon="1.88996">
        <ele>535.59</ele>
        <time>2012-08-30T10:24:56Z</time>
      </trkpt>
      <trkpt lat="45.21294" lon="1.88987">
        <ele>533.67</ele>
        <time>2012-08-30T10:24:58Z</time>
      </trkpt>
      <trkpt lat="45.21259" lon="1.88966">
        <ele>532.71</ele>
        <time>2012-08-30T10:25:04Z</time>
      </trkpt>
      <trkpt lat="45.21226" lon="1.88952">
        <ele>534.63</ele>
        <time>2012-08-30T10:25:10Z</time>
      </trkpt>
      <trkpt lat="45.21221" lon="1.88949">
        <ele>536.07</ele>
        <time>2012-08-30T10:25:11Z</time>
      </trkpt>
      <trkpt lat="45.21216" lon="1.88945">
        <ele>535.59</ele>
        <time>2012-08-30T10:25:12Z</time>
      </trkpt>
      <trkpt lat="45.21207" lon="1.88933">
        <ele>538.48</ele>
        <time>2012-08-30T10:25:14Z</time>
      </trkpt>
      <trkpt lat="45.21202" lon="1.88926">
        <ele>535.11</ele>
        <time>2012-08-30T10:25:15Z</time>
      </trkpt>
      <trkpt lat="45.21192" lon="1.88911">
        <ele>534.63</ele>
        <time>2012-08-30T10:25:17Z</time>
      </trkpt>
      <trkpt lat="45.21152" lon="1.88873">
        <ele>532.71</ele>
        <time>2012-08-30T10:25:24Z</time>
      </trkpt>
      <trkpt lat="45.21133" lon="1.88854">
        <ele>532.23</ele>
        <time>2012-08-30T10:25:28Z</time>
      </trkpt>
      <trkpt lat="45.2113" lon="1.88849">
        <ele>531.27</ele>
        <time>2012-08-30T10:25:29Z</time>
      </trkpt>
      <trkpt lat="45.21127" lon="1.88844">
        <ele>531.75</ele>
        <time>2012-08-30T10:25:30Z</time>
      </trkpt>
      <trkpt lat="45.21125" lon="1.88839">
        <ele>532.23</ele>
        <time>2012-08-30T10:25:31Z</time>
      </trkpt>
      <trkpt lat="45.21121" lon="1.88834">
        <ele>532.23</ele>
        <time>2012-08-30T10:25:32Z</time>
      </trkpt>
      <trkpt lat="45.21117" lon="1.88831">
        <ele>532.23</ele>
        <time>2012-08-30T10:25:33Z</time>
      </trkpt>
      <trkpt lat="45.21113" lon="1.88827">
        <ele>532.71</ele>
        <time>2012-08-30T10:25:34Z</time>
      </trkpt>
      <trkpt lat="45.21077" lon="1.88791">
        <ele>532.71</ele>
        <time>2012-08-30T10:25:43Z</time>
      </trkpt>
      <trkpt lat="45.21062" lon="1.88776">
        <ele>533.67</ele>
        <time>2012-08-30T10:25:47Z</time>
      </trkpt>
      <trkpt lat="45.21028" lon="1.88732">
        <ele>536.07</ele>
        <time>2012-08-30T10:25:57Z</time>
      </trkpt>
      <trkpt lat="45.21006" lon="1.88692">
        <ele>537.99</ele>
        <time>2012-08-30T10:26:05Z</time>
      </trkpt>
      <trkpt lat="45.21003" lon="1.88687">
        <ele>538.48</ele>
        <time>2012-08-30T10:26:06Z</time>
      </trkpt>
      <trkpt lat="45.21" lon="1.88681">
        <ele>538.48</ele>
        <time>2012-08-30T10:26:07Z</time>
      </trkpt>
      <trkpt lat="45.20997" lon="1.88675">
        <ele>537.99</ele>
        <time>2012-08-30T10:26:08Z</time>
      </trkpt>
      <trkpt lat="45.20978" lon="1.8863">
        <ele>539.44</ele>
        <time>2012-08-30T10:26:15Z</time>
      </trkpt>
      <trkpt lat="45.20953" lon="1.88581">
        <ele>541.36</ele>
        <time>2012-08-30T10:26:23Z</time>
      </trkpt>
      <trkpt lat="45.20928" lon="1.88539">
        <ele>544.24</ele>
        <time>2012-08-30T10:26:31Z</time>
      </trkpt>
      <trkpt lat="45.20912" lon="1.88511">
        <ele>545.2</ele>
        <time>2012-08-30T10:26:37Z</time>
      </trkpt>
      <trkpt lat="45.2089" lon="1.88479">
        <ele>545.69</ele>
        <time>2012-08-30T10:26:43Z</time>
      </trkpt>
      <trkpt lat="45.20868" lon="1.88444">
        <ele>546.65</ele>
        <time>2012-08-30T10:26:50Z</time>
      </trkpt>
      <trkpt lat="45.20844" lon="1.8842">
        <ele>546.65</ele>
        <time>2012-08-30T10:26:58Z</time>
      </trkpt>
      <trkpt lat="45.20826" lon="1.88393">
        <ele>548.57</ele>
        <time>2012-08-30T10:27:05Z</time>
      </trkpt>
      <trkpt lat="45.20813" lon="1.88359">
        <ele>551.93</ele>
        <time>2012-08-30T10:27:11Z</time>
      </trkpt>
      <trkpt lat="45.2081" lon="1.88355">
        <ele>551.93</ele>
        <time>2012-08-30T10:27:12Z</time>
      </trkpt>
      <trkpt lat="45.20791" lon="1.88318">
        <ele>554.82</ele>
        <time>2012-08-30T10:27:21Z</time>
      </trkpt>
      <trkpt lat="45.20774" lon="1.88273">
        <ele>557.22</ele>
        <time>2012-08-30T10:27:30Z</time>
      </trkpt>
      <trkpt lat="45.20759" lon="1.88244">
        <ele>560.11</ele>
        <time>2012-08-30T10:27:37Z</time>
      </trkpt>
      <trkpt lat="45.20743" lon="1.88235">
        <ele>560.11</ele>
        <time>2012-08-30T10:27:43Z</time>
      </trkpt>
      <trkpt lat="45.20732" lon="1.8823">
        <ele>560.11</ele>
        <time>2012-08-30T10:27:49Z</time>
      </trkpt>
      <trkpt lat="45.20723" lon="1.88233">
        <ele>560.59</ele>
        <time>2012-08-30T10:27:52Z</time>
      </trkpt>
      <trkpt lat="45.20718" lon="1.88238">
        <ele>561.55</ele>
        <time>2012-08-30T10:27:53Z</time>
      </trkpt>
      <trkpt lat="45.20709" lon="1.88249">
        <ele>560.59</ele>
        <time>2012-08-30T10:27:55Z</time>
      </trkpt>
      <trkpt lat="45.20703" lon="1.88253">
        <ele>560.59</ele>
        <time>2012-08-30T10:27:56Z</time>
      </trkpt>
      <trkpt lat="45.20696" lon="1.88255">
        <ele>560.11</ele>
        <time>2012-08-30T10:27:57Z</time>
      </trkpt>
      <trkpt lat="45.20689" lon="1.88255">
        <ele>560.11</ele>
        <time>2012-08-30T10:27:58Z</time>
      </trkpt>
      <trkpt lat="45.20682" lon="1.88253">
        <ele>559.14</ele>
        <time>2012-08-30T10:27:59Z</time>
      </trkpt>
      <trkpt lat="45.20674" lon="1.8825">
        <ele>559.14</ele>
        <time>2012-08-30T10:28:00Z</time>
      </trkpt>
      <trkpt lat="45.20665" lon="1.88246">
        <ele>560.59</ele>
        <time>2012-08-30T10:28:01Z</time>
      </trkpt>
      <trkpt lat="45.20656" lon="1.88241">
        <ele>561.55</ele>
        <time>2012-08-30T10:28:02Z</time>
      </trkpt>
      <trkpt lat="45.20647" lon="1.88236">
        <ele>564.43</ele>
        <time>2012-08-30T10:28:03Z</time>
      </trkpt>
      <trkpt lat="45.20639" lon="1.8823">
        <ele>557.22</ele>
        <time>2012-08-30T10:28:04Z</time>
      </trkpt>
      <trkpt lat="45.2063" lon="1.88224">
        <ele>562.03</ele>
        <time>2012-08-30T10:28:05Z</time>
      </trkpt>
      <trkpt lat="45.20602" lon="1.88207">
        <ele>562.03</ele>
        <time>2012-08-30T10:28:08Z</time>
      </trkpt>
      <trkpt lat="45.20592" lon="1.88203">
        <ele>561.55</ele>
        <time>2012-08-30T10:28:09Z</time>
      </trkpt>
      <trkpt lat="45.20581" lon="1.88202">
        <ele>560.59</ele>
        <time>2012-08-30T10:28:10Z</time>
      </trkpt>
      <trkpt lat="45.2057" lon="1.88203">
        <ele>559.62</ele>
        <time>2012-08-30T10:28:11Z</time>
      </trkpt>
      <trkpt lat="45.20558" lon="1.88204">
        <ele>561.07</ele>
        <time>2012-08-30T10:28:12Z</time>
      </trkpt>
      <trkpt lat="45.20493" lon="1.8821">
        <ele>559.14</ele>
        <time>2012-08-30T10:28:18Z</time>
      </trkpt>
      <trkpt lat="45.2044" lon="1.88191">
        <ele>557.22</ele>
        <time>2012-08-30T10:28:23Z</time>
      </trkpt>
      <trkpt lat="45.20431" lon="1.88185">
        <ele>558.18</ele>
        <time>2012-08-30T10:28:24Z</time>
      </trkpt>
      <trkpt lat="45.20423" lon="1.88178">
        <ele>558.18</ele>
        <time>2012-08-30T10:28:25Z</time>
      </trkpt>
      <trkpt lat="45.20416" lon="1.88169">
        <ele>558.18</ele>
        <time>2012-08-30T10:28:26Z</time>
      </trkpt>
      <trkpt lat="45.20409" lon="1.8816">
        <ele>557.7</ele>
        <time>2012-08-30T10:28:27Z</time>
      </trkpt>
      <trkpt lat="45.20404" lon="1.88151">
        <ele>558.18</ele>
        <time>2012-08-30T10:28:28Z</time>
      </trkpt>
      <trkpt lat="45.204" lon="1.88141">
        <ele>558.66</ele>
        <time>2012-08-30T10:28:29Z</time>
      </trkpt>
      <trkpt lat="45.20397" lon="1.88132">
        <ele>557.7</ele>
        <time>2012-08-30T10:28:30Z</time>
      </trkpt>
      <trkpt lat="45.20394" lon="1.88123">
        <ele>556.26</ele>
        <time>2012-08-30T10:28:31Z</time>
      </trkpt>
      <trkpt lat="45.20393" lon="1.88115">
        <ele>555.3</ele>
        <time>2012-08-30T10:28:32Z</time>
      </trkpt>
      <trkpt lat="45.20392" lon="1.88109">
        <ele>555.3</ele>
        <time>2012-08-30T10:28:33Z</time>
      </trkpt>
      <trkpt lat="45.20387" lon="1.88083">
        <ele>553.86</ele>
        <time>2012-08-30T10:28:39Z</time>
      </trkpt>
      <trkpt lat="45.20385" lon="1.8808">
        <ele>553.38</ele>
        <time>2012-08-30T10:28:42Z</time>
      </trkpt>
      <trkpt lat="45.20384" lon="1.8808">
        <ele>553.38</ele>
        <time>2012-08-30T10:28:43Z</time>
      </trkpt>
      <trkpt lat="45.20382" lon="1.8808">
        <ele>552.9</ele>
        <time>2012-08-30T10:28:44Z</time>
      </trkpt>
      <trkpt lat="45.20381" lon="1.88081">
        <ele>552.9</ele>
        <time>2012-08-30T10:28:45Z</time>
      </trkpt>
      <trkpt lat="45.20374" lon="1.88097">
        <ele>553.38</ele>
        <time>2012-08-30T10:28:52Z</time>
      </trkpt>
      <trkpt lat="45.20363" lon="1.88132">
        <ele>552.9</ele>
        <time>2012-08-30T10:28:58Z</time>
      </trkpt>
      <trkpt lat="45.20356" lon="1.88161">
        <ele>551.93</ele>
        <time>2012-08-30T10:29:03Z</time>
      </trkpt>
      <trkpt lat="45.20355" lon="1.88167">
        <ele>551.45</ele>
        <time>2012-08-30T10:29:04Z</time>
      </trkpt>
      <trkpt lat="45.2035" lon="1.88202">
        <ele>550.97</ele>
        <time>2012-08-30T10:29:11Z</time>
      </trkpt>
      <trkpt lat="45.20343" lon="1.88238">
        <ele>550.01</ele>
        <time>2012-08-30T10:29:20Z</time>
      </trkpt>
      <trkpt lat="45.2034" lon="1.88261">
        <ele>546.17</ele>
        <time>2012-08-30T10:29:25Z</time>
      </trkpt>
      <trkpt lat="45.2034" lon="1.88265">
        <ele>554.34</ele>
        <time>2012-08-30T10:29:26Z</time>
      </trkpt>
      <trkpt lat="45.20339" lon="1.88268">
        <ele>546.65</ele>
        <time>2012-08-30T10:29:27Z</time>
      </trkpt>
      <trkpt lat="45.20338" lon="1.8827">
        <ele>551.93</ele>
        <time>2012-08-30T10:29:28Z</time>
      </trkpt>
      <trkpt lat="45.20337" lon="1.88273">
        <ele>541.84</ele>
        <time>2012-08-30T10:29:29Z</time>
      </trkpt>
      <trkpt lat="45.20336" lon="1.88276">
        <ele>546.65</ele>
        <time>2012-08-30T10:29:30Z</time>
      </trkpt>
      <trkpt lat="45.20325" lon="1.88296">
        <ele>541.36</ele>
        <time>2012-08-30T10:29:35Z</time>
      </trkpt>
      <trkpt lat="45.20322" lon="1.88301">
        <ele>544.24</ele>
        <time>2012-08-30T10:29:36Z</time>
      </trkpt>
      <trkpt lat="45.20316" lon="1.88315">
        <ele>534.63</ele>
        <time>2012-08-30T10:29:39Z</time>
      </trkpt>
      <trkpt lat="45.20314" lon="1.8832">
        <ele>541.36</ele>
        <time>2012-08-30T10:29:40Z</time>
      </trkpt>
      <trkpt lat="45.20311" lon="1.88325">
        <ele>546.17</ele>
        <time>2012-08-30T10:29:41Z</time>
      </trkpt>
      <trkpt lat="45.20309" lon="1.8833">
        <ele>540.88</ele>
        <time>2012-08-30T10:29:42Z</time>
      </trkpt>
      <trkpt lat="45.20306" lon="1.88334">
        <ele>534.63</ele>
        <time>2012-08-30T10:29:43Z</time>
      </trkpt>
      <trkpt lat="45.20303" lon="1.88338">
        <ele>539.92</ele>
        <time>2012-08-30T10:29:44Z</time>
      </trkpt>
      <trkpt lat="45.20297" lon="1.88345">
        <ele>535.11</ele>
        <time>2012-08-30T10:29:46Z</time>
      </trkpt>
      <trkpt lat="45.20293" lon="1.88348">
        <ele>540.4</ele>
        <time>2012-08-30T10:29:47Z</time>
      </trkpt>
      <trkpt lat="45.20282" lon="1.88354">
        <ele>536.55</ele>
        <time>2012-08-30T10:29:50Z</time>
      </trkpt>
      <trkpt lat="45.20279" lon="1.88355">
        <ele>541.36</ele>
        <time>2012-08-30T10:29:51Z</time>
      </trkpt>
      <trkpt lat="45.20276" lon="1.88357">
        <ele>537.03</ele>
        <time>2012-08-30T10:29:52Z</time>
      </trkpt>
      <trkpt lat="45.20256" lon="1.88358">
        <ele>532.71</ele>
        <time>2012-08-30T10:29:58Z</time>
      </trkpt>
      <trkpt lat="45.20237" lon="1.88376">
        <ele>534.15</ele>
        <time>2012-08-30T10:30:05Z</time>
      </trkpt>
      <trkpt lat="45.20227" lon="1.88382">
        <ele>534.15</ele>
        <time>2012-08-30T10:30:07Z</time>
      </trkpt>
      <trkpt lat="45.20222" lon="1.88384">
        <ele>534.15</ele>
        <time>2012-08-30T10:30:08Z</time>
      </trkpt>
      <trkpt lat="45.20216" lon="1.88386">
        <ele>534.63</ele>
        <time>2012-08-30T10:30:09Z</time>
      </trkpt>
      <trkpt lat="45.20197" lon="1.88389">
        <ele>534.63</ele>
        <time>2012-08-30T10:30:13Z</time>
      </trkpt>
      <trkpt lat="45.20193" lon="1.88391">
        <ele>534.63</ele>
        <time>2012-08-30T10:30:14Z</time>
      </trkpt>
      <trkpt lat="45.20189" lon="1.88393">
        <ele>534.63</ele>
        <time>2012-08-30T10:30:15Z</time>
      </trkpt>
      <trkpt lat="45.20186" lon="1.88397">
        <ele>535.11</ele>
        <time>2012-08-30T10:30:16Z</time>
      </trkpt>
      <trkpt lat="45.20184" lon="1.88403">
        <ele>535.59</ele>
        <time>2012-08-30T10:30:17Z</time>
      </trkpt>
      <trkpt lat="45.20183" lon="1.88409">
        <ele>535.59</ele>
        <time>2012-08-30T10:30:18Z</time>
      </trkpt>
      <trkpt lat="45.20182" lon="1.88416">
        <ele>536.55</ele>
        <time>2012-08-30T10:30:19Z</time>
      </trkpt>
      <trkpt lat="45.20181" lon="1.88423">
        <ele>536.55</ele>
        <time>2012-08-30T10:30:20Z</time>
      </trkpt>
      <trkpt lat="45.20181" lon="1.8843">
        <ele>537.03</ele>
        <time>2012-08-30T10:30:21Z</time>
      </trkpt>
      <trkpt lat="45.20182" lon="1.88491">
        <ele>540.88</ele>
        <time>2012-08-30T10:30:29Z</time>
      </trkpt>
      <trkpt lat="45.20181" lon="1.885">
        <ele>541.84</ele>
        <time>2012-08-30T10:30:30Z</time>
      </trkpt>
      <trkpt lat="45.20179" lon="1.88509">
        <ele>542.32</ele>
        <time>2012-08-30T10:30:31Z</time>
      </trkpt>
      <trkpt lat="45.20176" lon="1.88517">
        <ele>543.28</ele>
        <time>2012-08-30T10:30:32Z</time>
      </trkpt>
      <trkpt lat="45.20172" lon="1.88524">
        <ele>544.72</ele>
        <time>2012-08-30T10:30:33Z</time>
      </trkpt>
      <trkpt lat="45.20168" lon="1.88532">
        <ele>544.72</ele>
        <time>2012-08-30T10:30:34Z</time>
      </trkpt>
      <trkpt lat="45.20152" lon="1.88557">
        <ele>548.09</ele>
        <time>2012-08-30T10:30:37Z</time>
      </trkpt>
      <trkpt lat="45.20128" lon="1.88599">
        <ele>549.05</ele>
        <time>2012-08-30T10:30:43Z</time>
      </trkpt>
      <trkpt lat="45.20105" lon="1.88641">
        <ele>552.9</ele>
        <time>2012-08-30T10:30:50Z</time>
      </trkpt>
      <trkpt lat="45.20089" lon="1.88679">
        <ele>553.86</ele>
        <time>2012-08-30T10:30:55Z</time>
      </trkpt>
      <trkpt lat="45.20082" lon="1.88694">
        <ele>553.86</ele>
        <time>2012-08-30T10:30:57Z</time>
      </trkpt>
      <trkpt lat="45.20077" lon="1.887">
        <ele>553.86</ele>
        <time>2012-08-30T10:30:58Z</time>
      </trkpt>
      <trkpt lat="45.20046" lon="1.88748">
        <ele>555.3</ele>
        <time>2012-08-30T10:31:04Z</time>
      </trkpt>
      <trkpt lat="45.20029" lon="1.88776">
        <ele>554.34</ele>
        <time>2012-08-30T10:31:09Z</time>
      </trkpt>
      <trkpt lat="45.20027" lon="1.88778">
        <ele>554.34</ele>
        <time>2012-08-30T10:31:10Z</time>
      </trkpt>
      <trkpt lat="45.20023" lon="1.8878">
        <ele>554.82</ele>
        <time>2012-08-30T10:31:12Z</time>
      </trkpt>
      <trkpt lat="45.20021" lon="1.8878">
        <ele>555.3</ele>
        <time>2012-08-30T10:31:13Z</time>
      </trkpt>
      <trkpt lat="45.20018" lon="1.88779">
        <ele>555.3</ele>
        <time>2012-08-30T10:31:14Z</time>
      </trkpt>
      <trkpt lat="45.20015" lon="1.88777">
        <ele>555.3</ele>
        <time>2012-08-30T10:31:15Z</time>
      </trkpt>
      <trkpt lat="45.2001" lon="1.88774">
        <ele>554.34</ele>
        <time>2012-08-30T10:31:16Z</time>
      </trkpt>
      <trkpt lat="45.20004" lon="1.88771">
        <ele>554.82</ele>
        <time>2012-08-30T10:31:17Z</time>
      </trkpt>
      <trkpt lat="45.19997" lon="1.88765">
        <ele>554.34</ele>
        <time>2012-08-30T10:31:18Z</time>
      </trkpt>
      <trkpt lat="45.1999" lon="1.88759">
        <ele>554.34</ele>
        <time>2012-08-30T10:31:19Z</time>
      </trkpt>
      <trkpt lat="45.19982" lon="1.8875">
        <ele>553.86</ele>
        <time>2012-08-30T10:31:20Z</time>
      </trkpt>
      <trkpt lat="45.19975" lon="1.88739">
        <ele>553.38</ele>
        <time>2012-08-30T10:31:21Z</time>
      </trkpt>
      <trkpt lat="45.19967" lon="1.88728">
        <ele>553.38</ele>
        <time>2012-08-30T10:31:22Z</time>
      </trkpt>
      <trkpt lat="45.19952" lon="1.88706">
        <ele>551.45</ele>
        <time>2012-08-30T10:31:24Z</time>
      </trkpt>
      <trkpt lat="45.1991" lon="1.88656">
        <ele>548.57</ele>
        <time>2012-08-30T10:31:29Z</time>
      </trkpt>
      <trkpt lat="45.19893" lon="1.88636">
        <ele>544.72</ele>
        <time>2012-08-30T10:31:31Z</time>
      </trkpt>
      <trkpt lat="45.19869" lon="1.8861">
        <ele>541.36</ele>
        <time>2012-08-30T10:31:34Z</time>
      </trkpt>
      <trkpt lat="45.19846" lon="1.88587">
        <ele>545.2</ele>
        <time>2012-08-30T10:31:37Z</time>
      </trkpt>
      <trkpt lat="45.19838" lon="1.88582">
        <ele>539.44</ele>
        <time>2012-08-30T10:31:38Z</time>
      </trkpt>
      <trkpt lat="45.19827" lon="1.88572">
        <ele>536.07</ele>
        <time>2012-08-30T10:31:40Z</time>
      </trkpt>
      <trkpt lat="45.19823" lon="1.88568">
        <ele>532.71</ele>
        <time>2012-08-30T10:31:41Z</time>
      </trkpt>
      <trkpt lat="45.1982" lon="1.88565">
        <ele>537.03</ele>
        <time>2012-08-30T10:31:42Z</time>
      </trkpt>
      <trkpt lat="45.19815" lon="1.88561">
        <ele>534.15</ele>
        <time>2012-08-30T10:31:44Z</time>
      </trkpt>
      <trkpt lat="45.19812" lon="1.88562">
        <ele>534.15</ele>
        <time>2012-08-30T10:31:45Z</time>
      </trkpt>
      <trkpt lat="45.19809" lon="1.88565">
        <ele>534.63</ele>
        <time>2012-08-30T10:31:46Z</time>
      </trkpt>
      <trkpt lat="45.19806" lon="1.88569">
        <ele>534.63</ele>
        <time>2012-08-30T10:31:47Z</time>
      </trkpt>
      <trkpt lat="45.19803" lon="1.88574">
        <ele>534.15</ele>
        <time>2012-08-30T10:31:48Z</time>
      </trkpt>
      <trkpt lat="45.19802" lon="1.88582">
        <ele>534.15</ele>
        <time>2012-08-30T10:31:49Z</time>
      </trkpt>
      <trkpt lat="45.19801" lon="1.8859">
        <ele>534.15</ele>
        <time>2012-08-30T10:31:50Z</time>
      </trkpt>
      <trkpt lat="45.19801" lon="1.88596">
        <ele>534.15</ele>
        <time>2012-08-30T10:31:51Z</time>
      </trkpt>
      <trkpt lat="45.198" lon="1.88603">
        <ele>534.15</ele>
        <time>2012-08-30T10:31:52Z</time>
      </trkpt>
      <trkpt lat="45.19801" lon="1.8861">
        <ele>534.63</ele>
        <time>2012-08-30T10:31:53Z</time>
      </trkpt>
      <trkpt lat="45.19801" lon="1.88616">
        <ele>534.63</ele>
        <time>2012-08-30T10:31:54Z</time>
      </trkpt>
      <trkpt lat="45.19802" lon="1.88622">
        <ele>534.63</ele>
        <time>2012-08-30T10:31:55Z</time>
      </trkpt>
      <trkpt lat="45.19807" lon="1.88655">
        <ele>534.15</ele>
        <time>2012-08-30T10:32:01Z</time>
      </trkpt>
      <trkpt lat="45.19808" lon="1.8866">
        <ele>534.15</ele>
        <time>2012-08-30T10:32:02Z</time>
      </trkpt>
      <trkpt lat="45.19807" lon="1.88666">
        <ele>534.15</ele>
        <time>2012-08-30T10:32:03Z</time>
      </trkpt>
      <trkpt lat="45.19806" lon="1.88671">
        <ele>534.15</ele>
        <time>2012-08-30T10:32:04Z</time>
      </trkpt>
      <trkpt lat="45.19804" lon="1.88675">
        <ele>534.63</ele>
        <time>2012-08-30T10:32:05Z</time>
      </trkpt>
      <trkpt lat="45.19802" lon="1.88679">
        <ele>534.63</ele>
        <time>2012-08-30T10:32:06Z</time>
      </trkpt>
      <trkpt lat="45.19799" lon="1.88682">
        <ele>533.19</ele>
        <time>2012-08-30T10:32:07Z</time>
      </trkpt>
      <trkpt lat="45.19795" lon="1.88684">
        <ele>534.15</ele>
        <time>2012-08-30T10:32:08Z</time>
      </trkpt>
      <trkpt lat="45.19764" lon="1.887">
        <ele>534.15</ele>
        <time>2012-08-30T10:32:17Z</time>
      </trkpt>
      <trkpt lat="45.19729" lon="1.88714">
        <ele>534.15</ele>
        <time>2012-08-30T10:32:26Z</time>
      </trkpt>
      <trkpt lat="45.19728" lon="1.88712">
        <ele>534.15</ele>
        <time>2012-08-30T10:32:31Z</time>
      </trkpt>
      <trkpt lat="45.19725" lon="1.88714">
        <ele>533.67</ele>
        <time>2012-08-30T10:32:38Z</time>
      </trkpt>
      <trkpt lat="45.19704" lon="1.88726">
        <ele>535.59</ele>
        <time>2012-08-30T10:32:46Z</time>
      </trkpt>
      <trkpt lat="45.19689" lon="1.88733">
        <ele>536.55</ele>
        <time>2012-08-30T10:32:52Z</time>
      </trkpt>
      <trkpt lat="45.19672" lon="1.88744">
        <ele>536.55</ele>
        <time>2012-08-30T10:32:59Z</time>
      </trkpt>
      <trkpt lat="45.19651" lon="1.88766">
        <ele>535.11</ele>
        <time>2012-08-30T10:33:06Z</time>
      </trkpt>
      <trkpt lat="45.19632" lon="1.88792">
        <ele>534.63</ele>
        <time>2012-08-30T10:33:14Z</time>
      </trkpt>
      <trkpt lat="45.1962" lon="1.88811">
        <ele>534.63</ele>
        <time>2012-08-30T10:33:22Z</time>
      </trkpt>
      <trkpt lat="45.19604" lon="1.88827">
        <ele>534.63</ele>
        <time>2012-08-30T10:33:30Z</time>
      </trkpt>
      <trkpt lat="45.19581" lon="1.88843">
        <ele>534.15</ele>
        <time>2012-08-30T10:33:39Z</time>
      </trkpt>
      <trkpt lat="45.1957" lon="1.88863">
        <ele>534.63</ele>
        <time>2012-08-30T10:33:46Z</time>
      </trkpt>
      <trkpt lat="45.19549" lon="1.88885">
        <ele>535.59</ele>
        <time>2012-08-30T10:33:54Z</time>
      </trkpt>
      <trkpt lat="45.19527" lon="1.88911">
        <ele>537.51</ele>
        <time>2012-08-30T10:34:02Z</time>
      </trkpt>
      <trkpt lat="45.19524" lon="1.88915">
        <ele>537.99</ele>
        <time>2012-08-30T10:34:03Z</time>
      </trkpt>
      <trkpt lat="45.19508" lon="1.88934">
        <ele>537.51</ele>
        <time>2012-08-30T10:34:10Z</time>
      </trkpt>
      <trkpt lat="45.19506" lon="1.88937">
        <ele>544.72</ele>
        <time>2012-08-30T10:34:11Z</time>
      </trkpt>
      <trkpt lat="45.19504" lon="1.8894">
        <ele>538.96</ele>
        <time>2012-08-30T10:34:12Z</time>
      </trkpt>
      <trkpt lat="45.19494" lon="1.88954">
        <ele>540.4</ele>
        <time>2012-08-30T10:34:18Z</time>
      </trkpt>
      <trkpt lat="45.19492" lon="1.88954">
        <ele>541.36</ele>
        <time>2012-08-30T10:34:19Z</time>
      </trkpt>
      <trkpt lat="45.19489" lon="1.88954">
        <ele>540.88</ele>
        <time>2012-08-30T10:34:20Z</time>
      </trkpt>
      <trkpt lat="45.19465" lon="1.88946">
        <ele>544.24</ele>
        <time>2012-08-30T10:34:27Z</time>
      </trkpt>
      <trkpt lat="45.19455" lon="1.88944">
        <ele>543.28</ele>
        <time>2012-08-30T10:34:29Z</time>
      </trkpt>
      <trkpt lat="45.19439" lon="1.88944">
        <ele>545.69</ele>
        <time>2012-08-30T10:34:32Z</time>
      </trkpt>
      <trkpt lat="45.19433" lon="1.88948">
        <ele>544.72</ele>
        <time>2012-08-30T10:34:33Z</time>
      </trkpt>
      <trkpt lat="45.19395" lon="1.88976">
        <ele>543.76</ele>
        <time>2012-08-30T10:34:37Z</time>
      </trkpt>
      <trkpt lat="45.19371" lon="1.88975">
        <ele>545.2</ele>
        <time>2012-08-30T10:34:38Z</time>
      </trkpt>
      <trkpt lat="45.19246" lon="1.89006">
        <ele>545.69</ele>
        <time>2012-08-30T10:34:44Z</time>
      </trkpt>
      <trkpt lat="45.19108" lon="1.89057">
        <ele>541.84</ele>
        <time>2012-08-30T10:34:52Z</time>
      </trkpt>
      <trkpt lat="45.19037" lon="1.89087">
        <ele>540.88</ele>
        <time>2012-08-30T10:34:56Z</time>
      </trkpt>
      <trkpt lat="45.19022" lon="1.89098">
        <ele>540.4</ele>
        <time>2012-08-30T10:34:57Z</time>
      </trkpt>
      <trkpt lat="45.18984" lon="1.89134">
        <ele>537.03</ele>
        <time>2012-08-30T10:35:00Z</time>
      </trkpt>
      <trkpt lat="45.18919" lon="1.89198">
        <ele>535.59</ele>
        <time>2012-08-30T10:35:06Z</time>
      </trkpt>
      <trkpt lat="45.18898" lon="1.89218">
        <ele>533.19</ele>
        <time>2012-08-30T10:35:09Z</time>
      </trkpt>
      <trkpt lat="45.18893" lon="1.89221">
        <ele>532.23</ele>
        <time>2012-08-30T10:35:10Z</time>
      </trkpt>
      <trkpt lat="45.1889" lon="1.89222">
        <ele>533.19</ele>
        <time>2012-08-30T10:35:11Z</time>
      </trkpt>
      <trkpt lat="45.18887" lon="1.89222">
        <ele>533.19</ele>
        <time>2012-08-30T10:35:12Z</time>
      </trkpt>
      <trkpt lat="45.18861" lon="1.89222">
        <ele>534.63</ele>
        <time>2012-08-30T10:35:20Z</time>
      </trkpt>
      <trkpt lat="45.18824" lon="1.8923">
        <ele>536.07</ele>
        <time>2012-08-30T10:35:29Z</time>
      </trkpt>
      <trkpt lat="45.18812" lon="1.89233">
        <ele>536.55</ele>
        <time>2012-08-30T10:35:32Z</time>
      </trkpt>
      <trkpt lat="45.18781" lon="1.89243">
        <ele>537.51</ele>
        <time>2012-08-30T10:35:40Z</time>
      </trkpt>
      <trkpt lat="45.18772" lon="1.89243">
        <ele>537.51</ele>
        <time>2012-08-30T10:35:42Z</time>
      </trkpt>
      <trkpt lat="45.18767" lon="1.89243">
        <ele>537.99</ele>
        <time>2012-08-30T10:35:43Z</time>
      </trkpt>
      <trkpt lat="45.18734" lon="1.89241">
        <ele>539.92</ele>
        <time>2012-08-30T10:35:50Z</time>
      </trkpt>
      <trkpt lat="45.1873" lon="1.89242">
        <ele>539.92</ele>
        <time>2012-08-30T10:35:51Z</time>
      </trkpt>
      <trkpt lat="45.18706" lon="1.89244">
        <ele>540.88</ele>
        <time>2012-08-30T10:35:58Z</time>
      </trkpt>
      <trkpt lat="45.1868" lon="1.89238">
        <ele>540.4</ele>
        <time>2012-08-30T10:36:07Z</time>
      </trkpt>
      <trkpt lat="45.18642" lon="1.8923">
        <ele>539.92</ele>
        <time>2012-08-30T10:36:16Z</time>
      </trkpt>
      <trkpt lat="45.18606" lon="1.89234">
        <ele>539.92</ele>
        <time>2012-08-30T10:36:23Z</time>
      </trkpt>
      <trkpt lat="45.18569" lon="1.89238">
        <ele>538.48</ele>
        <time>2012-08-30T10:36:32Z</time>
      </trkpt>
      <trkpt lat="45.18536" lon="1.89242">
        <ele>537.03</ele>
        <time>2012-08-30T10:36:40Z</time>
      </trkpt>
      <trkpt lat="45.1852" lon="1.89248">
        <ele>537.03</ele>
        <time>2012-08-30T10:36:46Z</time>
      </trkpt>
      <trkpt lat="45.18508" lon="1.89259">
        <ele>537.51</ele>
        <time>2012-08-30T10:36:55Z</time>
      </trkpt>
      <trkpt lat="45.18496" lon="1.8927">
        <ele>536.55</ele>
        <time>2012-08-30T10:37:05Z</time>
      </trkpt>
      <trkpt lat="45.18485" lon="1.89284">
        <ele>535.59</ele>
        <time>2012-08-30T10:37:13Z</time>
      </trkpt>
      <trkpt lat="45.18475" lon="1.89295">
        <ele>533.67</ele>
        <time>2012-08-30T10:37:21Z</time>
      </trkpt>
      <trkpt lat="45.18464" lon="1.89297">
        <ele>533.19</ele>
        <time>2012-08-30T10:37:26Z</time>
      </trkpt>
      <trkpt lat="45.1846" lon="1.89296">
        <ele>532.71</ele>
        <time>2012-08-30T10:37:27Z</time>
      </trkpt>
      <trkpt lat="45.18444" lon="1.89287">
        <ele>531.75</ele>
        <time>2012-08-30T10:37:30Z</time>
      </trkpt>
      <trkpt lat="45.18421" lon="1.89271">
        <ele>531.75</ele>
        <time>2012-08-30T10:37:34Z</time>
      </trkpt>
      <trkpt lat="45.18416" lon="1.89265">
        <ele>530.79</ele>
        <time>2012-08-30T10:37:35Z</time>
      </trkpt>
      <trkpt lat="45.18393" lon="1.89232">
        <ele>528.86</ele>
        <time>2012-08-30T10:37:39Z</time>
      </trkpt>
      <trkpt lat="45.1837" lon="1.89189">
        <ele>526.46</ele>
        <time>2012-08-30T10:37:43Z</time>
      </trkpt>
      <trkpt lat="45.18366" lon="1.89176">
        <ele>525.98</ele>
        <time>2012-08-30T10:37:44Z</time>
      </trkpt>
      <trkpt lat="45.18363" lon="1.89163">
        <ele>525.5</ele>
        <time>2012-08-30T10:37:45Z</time>
      </trkpt>
      <trkpt lat="45.18354" lon="1.89107">
        <ele>523.58</ele>
        <time>2012-08-30T10:37:49Z</time>
      </trkpt>
      <trkpt lat="45.1835" lon="1.89077">
        <ele>516.85</ele>
        <time>2012-08-30T10:37:51Z</time>
      </trkpt>
      <trkpt lat="45.18348" lon="1.89062">
        <ele>525.02</ele>
        <time>2012-08-30T10:37:52Z</time>
      </trkpt>
      <trkpt lat="45.18346" lon="1.89047">
        <ele>519.25</ele>
        <time>2012-08-30T10:37:53Z</time>
      </trkpt>
      <trkpt lat="45.18345" lon="1.89013">
        <ele>522.61</ele>
        <time>2012-08-30T10:37:55Z</time>
      </trkpt>
      <trkpt lat="45.18345" lon="1.88995">
        <ele>525.98</ele>
        <time>2012-08-30T10:37:56Z</time>
      </trkpt>
      <trkpt lat="45.18347" lon="1.88958">
        <ele>520.21</ele>
        <time>2012-08-30T10:37:58Z</time>
      </trkpt>
      <trkpt lat="45.18348" lon="1.88939">
        <ele>522.13</ele>
        <time>2012-08-30T10:37:59Z</time>
      </trkpt>
      <trkpt lat="45.18348" lon="1.88921">
        <ele>525.5</ele>
        <time>2012-08-30T10:38:00Z</time>
      </trkpt>
      <trkpt lat="45.18348" lon="1.88903">
        <ele>518.29</ele>
        <time>2012-08-30T10:38:01Z</time>
      </trkpt>
      <trkpt lat="45.18349" lon="1.88885">
        <ele>526.94</ele>
        <time>2012-08-30T10:38:02Z</time>
      </trkpt>
      <trkpt lat="45.18349" lon="1.88868">
        <ele>520.69</ele>
        <time>2012-08-30T10:38:03Z</time>
      </trkpt>
      <trkpt lat="45.18348" lon="1.88837">
        <ele>519.25</ele>
        <time>2012-08-30T10:38:05Z</time>
      </trkpt>
      <trkpt lat="45.18345" lon="1.88823">
        <ele>518.77</ele>
        <time>2012-08-30T10:38:06Z</time>
      </trkpt>
      <trkpt lat="45.1834" lon="1.8881">
        <ele>518.77</ele>
        <time>2012-08-30T10:38:07Z</time>
      </trkpt>
      <trkpt lat="45.18335" lon="1.88797">
        <ele>519.25</ele>
        <time>2012-08-30T10:38:08Z</time>
      </trkpt>
      <trkpt lat="45.18332" lon="1.88784">
        <ele>518.77</ele>
        <time>2012-08-30T10:38:09Z</time>
      </trkpt>
      <trkpt lat="45.1833" lon="1.88769">
        <ele>519.25</ele>
        <time>2012-08-30T10:38:10Z</time>
      </trkpt>
      <trkpt lat="45.1833" lon="1.88754">
        <ele>519.25</ele>
        <time>2012-08-30T10:38:11Z</time>
      </trkpt>
      <trkpt lat="45.1833" lon="1.88739">
        <ele>519.73</ele>
        <time>2012-08-30T10:38:12Z</time>
      </trkpt>
      <trkpt lat="45.18331" lon="1.88723">
        <ele>519.25</ele>
        <time>2012-08-30T10:38:13Z</time>
      </trkpt>
      <trkpt lat="45.18331" lon="1.88707">
        <ele>518.77</ele>
        <time>2012-08-30T10:38:14Z</time>
      </trkpt>
      <trkpt lat="45.18334" lon="1.88646">
        <ele>516.85</ele>
        <time>2012-08-30T10:38:18Z</time>
      </trkpt>
      <trkpt lat="45.18338" lon="1.88633">
        <ele>512.52</ele>
        <time>2012-08-30T10:38:19Z</time>
      </trkpt>
      <trkpt lat="45.18341" lon="1.8862">
        <ele>517.33</ele>
        <time>2012-08-30T10:38:20Z</time>
      </trkpt>
      <trkpt lat="45.18345" lon="1.88605">
        <ele>516.37</ele>
        <time>2012-08-30T10:38:21Z</time>
      </trkpt>
      <trkpt lat="45.18347" lon="1.88591">
        <ele>517.81</ele>
        <time>2012-08-30T10:38:22Z</time>
      </trkpt>
      <trkpt lat="45.18348" lon="1.88577">
        <ele>513.96</ele>
        <time>2012-08-30T10:38:23Z</time>
      </trkpt>
      <trkpt lat="45.18347" lon="1.88563">
        <ele>513</ele>
        <time>2012-08-30T10:38:24Z</time>
      </trkpt>
      <trkpt lat="45.18347" lon="1.88549">
        <ele>512.04</ele>
        <time>2012-08-30T10:38:25Z</time>
      </trkpt>
      <trkpt lat="45.18346" lon="1.88524">
        <ele>510.6</ele>
        <time>2012-08-30T10:38:27Z</time>
      </trkpt>
      <trkpt lat="45.18346" lon="1.88494">
        <ele>507.71</ele>
        <time>2012-08-30T10:38:30Z</time>
      </trkpt>
      <trkpt lat="45.18348" lon="1.8847">
        <ele>504.35</ele>
        <time>2012-08-30T10:38:33Z</time>
      </trkpt>
      <trkpt lat="45.18351" lon="1.88449">
        <ele>503.39</ele>
        <time>2012-08-30T10:38:36Z</time>
      </trkpt>
      <trkpt lat="45.18351" lon="1.88431">
        <ele>501.46</ele>
        <time>2012-08-30T10:38:39Z</time>
      </trkpt>
      <trkpt lat="45.18352" lon="1.88418">
        <ele>499.54</ele>
        <time>2012-08-30T10:38:41Z</time>
      </trkpt>
      <trkpt lat="45.18351" lon="1.88406">
        <ele>498.1</ele>
        <time>2012-08-30T10:38:43Z</time>
      </trkpt>
      <trkpt lat="45.1835" lon="1.88401">
        <ele>497.62</ele>
        <time>2012-08-30T10:38:44Z</time>
      </trkpt>
      <trkpt lat="45.18348" lon="1.88395">
        <ele>496.66</ele>
        <time>2012-08-30T10:38:45Z</time>
      </trkpt>
      <trkpt lat="45.18343" lon="1.88386">
        <ele>495.7</ele>
        <time>2012-08-30T10:38:47Z</time>
      </trkpt>
      <trkpt lat="45.18335" lon="1.88377">
        <ele>494.26</ele>
        <time>2012-08-30T10:38:49Z</time>
      </trkpt>
      <trkpt lat="45.18333" lon="1.88372">
        <ele>493.29</ele>
        <time>2012-08-30T10:38:50Z</time>
      </trkpt>
      <trkpt lat="45.18331" lon="1.88367">
        <ele>492.81</ele>
        <time>2012-08-30T10:38:51Z</time>
      </trkpt>
      <trkpt lat="45.18329" lon="1.88362">
        <ele>491.37</ele>
        <time>2012-08-30T10:38:52Z</time>
      </trkpt>
      <trkpt lat="45.18327" lon="1.88358">
        <ele>490.89</ele>
        <time>2012-08-30T10:38:53Z</time>
      </trkpt>
      <trkpt lat="45.18318" lon="1.88351">
        <ele>489.45</ele>
        <time>2012-08-30T10:38:57Z</time>
      </trkpt>
      <trkpt lat="45.18315" lon="1.88352">
        <ele>489.45</ele>
        <time>2012-08-30T10:38:58Z</time>
      </trkpt>
      <trkpt lat="45.18313" lon="1.88354">
        <ele>488.97</ele>
        <time>2012-08-30T10:38:59Z</time>
      </trkpt>
      <trkpt lat="45.1831" lon="1.88356">
        <ele>488.49</ele>
        <time>2012-08-30T10:39:00Z</time>
      </trkpt>
      <trkpt lat="45.18307" lon="1.88357">
        <ele>488.49</ele>
        <time>2012-08-30T10:39:01Z</time>
      </trkpt>
      <trkpt lat="45.18295" lon="1.88368">
        <ele>487.05</ele>
        <time>2012-08-30T10:39:08Z</time>
      </trkpt>
      <trkpt lat="45.18292" lon="1.88369">
        <ele>487.53</ele>
        <time>2012-08-30T10:39:18Z</time>
      </trkpt>
      <trkpt lat="45.18292" lon="1.88369">
        <ele>483.68</ele>
        <time>2012-08-30T10:39:20Z</time>
      </trkpt>
      <trkpt lat="45.18292" lon="1.88369">
        <ele>487.53</ele>
        <time>2012-08-30T10:39:21Z</time>
      </trkpt>
      <trkpt lat="45.18292" lon="1.88369">
        <ele>487.53</ele>
        <time>2012-08-30T10:39:29Z</time>
      </trkpt>
      <trkpt lat="45.18292" lon="1.88369">
        <ele>488.01</ele>
        <time>2012-08-30T10:39:35Z</time>
      </trkpt>
      <trkpt lat="45.1829" lon="1.88369">
        <ele>487.05</ele>
        <time>2012-08-30T10:39:40Z</time>
      </trkpt>
      <trkpt lat="45.18286" lon="1.88369">
        <ele>486.56</ele>
        <time>2012-08-30T10:39:44Z</time>
      </trkpt>
      <trkpt lat="45.18281" lon="1.88369">
        <ele>482.24</ele>
        <time>2012-08-30T10:39:49Z</time>
      </trkpt>
      <trkpt lat="45.1828" lon="1.88369">
        <ele>486.56</ele>
        <time>2012-08-30T10:39:50Z</time>
      </trkpt>
      <trkpt lat="45.18279" lon="1.88368">
        <ele>486.08</ele>
        <time>2012-08-30T10:39:51Z</time>
      </trkpt>
      <trkpt lat="45.18278" lon="1.88367">
        <ele>486.08</ele>
        <time>2012-08-30T10:39:52Z</time>
      </trkpt>
      <trkpt lat="45.18274" lon="1.88366">
        <ele>486.08</ele>
        <time>2012-08-30T10:39:54Z</time>
      </trkpt>
      <trkpt lat="45.18266" lon="1.88368">
        <ele>485.12</ele>
        <time>2012-08-30T10:40:00Z</time>
      </trkpt>
      <trkpt lat="45.18257" lon="1.88366">
        <ele>484.16</ele>
        <time>2012-08-30T10:40:07Z</time>
      </trkpt>
      <trkpt lat="45.18254" lon="1.88366">
        <ele>482.72</ele>
        <time>2012-08-30T10:40:09Z</time>
      </trkpt>
      <trkpt lat="45.18242" lon="1.88365">
        <ele>481.76</ele>
        <time>2012-08-30T10:40:15Z</time>
      </trkpt>
      <trkpt lat="45.18239" lon="1.88364">
        <ele>481.28</ele>
        <time>2012-08-30T10:40:16Z</time>
      </trkpt>
      <trkpt lat="45.18237" lon="1.88363">
        <ele>481.76</ele>
        <time>2012-08-30T10:40:17Z</time>
      </trkpt>
      <trkpt lat="45.18227" lon="1.88358">
        <ele>480.32</ele>
        <time>2012-08-30T10:40:23Z</time>
      </trkpt>
      <trkpt lat="45.18218" lon="1.88358">
        <ele>479.35</ele>
        <time>2012-08-30T10:40:30Z</time>
      </trkpt>
      <trkpt lat="45.18215" lon="1.8836">
        <ele>477.91</ele>
        <time>2012-08-30T10:40:38Z</time>
      </trkpt>
      <trkpt lat="45.18209" lon="1.8836">
        <ele>476.95</ele>
        <time>2012-08-30T10:40:45Z</time>
      </trkpt>
      <trkpt lat="45.182" lon="1.88359">
        <ele>475.51</ele>
        <time>2012-08-30T10:40:52Z</time>
      </trkpt>
      <trkpt lat="45.18195" lon="1.88357">
        <ele>474.55</ele>
        <time>2012-08-30T10:40:55Z</time>
      </trkpt>
      <trkpt lat="45.18182" lon="1.88352">
        <ele>473.59</ele>
        <time>2012-08-30T10:41:03Z</time>
      </trkpt>
      <trkpt lat="45.18172" lon="1.88347">
        <ele>472.14</ele>
        <time>2012-08-30T10:41:10Z</time>
      </trkpt>
      <trkpt lat="45.18164" lon="1.88346">
        <ele>470.22</ele>
        <time>2012-08-30T10:41:15Z</time>
      </trkpt>
      <trkpt lat="45.18161" lon="1.88345">
        <ele>471.18</ele>
        <time>2012-08-30T10:41:17Z</time>
      </trkpt>
      <trkpt lat="45.18149" lon="1.88346">
        <ele>469.74</ele>
        <time>2012-08-30T10:41:24Z</time>
      </trkpt>
      <trkpt lat="45.18143" lon="1.88345">
        <ele>468.78</ele>
        <time>2012-08-30T10:41:29Z</time>
      </trkpt>
      <trkpt lat="45.18138" lon="1.88342">
        <ele>466.86</ele>
        <time>2012-08-30T10:41:35Z</time>
      </trkpt>
      <trkpt lat="45.18128" lon="1.88343">
        <ele>466.38</ele>
        <time>2012-08-30T10:41:40Z</time>
      </trkpt>
      <trkpt lat="45.18121" lon="1.88344">
        <ele>465.42</ele>
        <time>2012-08-30T10:41:44Z</time>
      </trkpt>
      <trkpt lat="45.18108" lon="1.88344">
        <ele>464.45</ele>
        <time>2012-08-30T10:41:50Z</time>
      </trkpt>
      <trkpt lat="45.18101" lon="1.88341">
        <ele>463.49</ele>
        <time>2012-08-30T10:41:54Z</time>
      </trkpt>
      <trkpt lat="45.18096" lon="1.88334">
        <ele>463.01</ele>
        <time>2012-08-30T10:42:00Z</time>
      </trkpt>
      <trkpt lat="45.18095" lon="1.88328">
        <ele>462.05</ele>
        <time>2012-08-30T10:42:04Z</time>
      </trkpt>
      <trkpt lat="45.18097" lon="1.88323">
        <ele>461.09</ele>
        <time>2012-08-30T10:42:10Z</time>
      </trkpt>
      <trkpt lat="45.18086" lon="1.88309">
        <ele>460.13</ele>
        <time>2012-08-30T10:42:16Z</time>
      </trkpt>
      <trkpt lat="45.18084" lon="1.88307">
        <ele>459.65</ele>
        <time>2012-08-30T10:42:17Z</time>
      </trkpt>
      <trkpt lat="45.18078" lon="1.88298">
        <ele>459.17</ele>
        <time>2012-08-30T10:42:22Z</time>
      </trkpt>
      <trkpt lat="45.18078" lon="1.88294">
        <ele>458.69</ele>
        <time>2012-08-30T10:42:27Z</time>
      </trkpt>
      <trkpt lat="45.18073" lon="1.88284">
        <ele>458.21</ele>
        <time>2012-08-30T10:42:33Z</time>
      </trkpt>
      <trkpt lat="45.1807" lon="1.88276">
        <ele>457.72</ele>
        <time>2012-08-30T10:42:36Z</time>
      </trkpt>
      <trkpt lat="45.18062" lon="1.88265">
        <ele>455.8</ele>
        <time>2012-08-30T10:42:44Z</time>
      </trkpt>
      <trkpt lat="45.18062" lon="1.88264">
        <ele>455.32</ele>
        <time>2012-08-30T10:42:45Z</time>
      </trkpt>
      <trkpt lat="45.18055" lon="1.88256">
        <ele>454.84</ele>
        <time>2012-08-30T10:42:53Z</time>
      </trkpt>
      <trkpt lat="45.18053" lon="1.88254">
        <ele>452.92</ele>
        <time>2012-08-30T10:43:00Z</time>
      </trkpt>
      <trkpt lat="45.18052" lon="1.88253">
        <ele>451.96</ele>
        <time>2012-08-30T10:43:03Z</time>
      </trkpt>
      <trkpt lat="45.18047" lon="1.88245">
        <ele>451.48</ele>
        <time>2012-08-30T10:43:08Z</time>
      </trkpt>
      <trkpt lat="45.18044" lon="1.88242">
        <ele>449.07</ele>
        <time>2012-08-30T10:43:11Z</time>
      </trkpt>
      <trkpt lat="45.18041" lon="1.88234">
        <ele>449.55</ele>
        <time>2012-08-30T10:43:15Z</time>
      </trkpt>
      <trkpt lat="45.18038" lon="1.8823">
        <ele>449.07</ele>
        <time>2012-08-30T10:43:20Z</time>
      </trkpt>
      <trkpt lat="45.18034" lon="1.88224">
        <ele>448.11</ele>
        <time>2012-08-30T10:43:26Z</time>
      </trkpt>
      <trkpt lat="45.18029" lon="1.88218">
        <ele>445.71</ele>
        <time>2012-08-30T10:43:32Z</time>
      </trkpt>
      <trkpt lat="45.18027" lon="1.88211">
        <ele>444.75</ele>
        <time>2012-08-30T10:43:41Z</time>
      </trkpt>
      <trkpt lat="45.18024" lon="1.8821">
        <ele>444.75</ele>
        <time>2012-08-30T10:43:44Z</time>
      </trkpt>
      <trkpt lat="45.18016" lon="1.88206">
        <ele>442.82</ele>
        <time>2012-08-30T10:43:49Z</time>
      </trkpt>
      <trkpt lat="45.18005" lon="1.882">
        <ele>440.9</ele>
        <time>2012-08-30T10:43:58Z</time>
      </trkpt>
      <trkpt lat="45.18005" lon="1.882">
        <ele>440.9</ele>
        <time>2012-08-30T10:44:05Z</time>
      </trkpt>
      <trkpt lat="45.18005" lon="1.88199">
        <ele>440.42</ele>
        <time>2012-08-30T10:44:06Z</time>
      </trkpt>
      <trkpt lat="45.17994" lon="1.88191">
        <ele>439.94</ele>
        <time>2012-08-30T10:44:10Z</time>
      </trkpt>
      <trkpt lat="45.17987" lon="1.88185">
        <ele>439.46</ele>
        <time>2012-08-30T10:44:13Z</time>
      </trkpt>
      <trkpt lat="45.17975" lon="1.88175">
        <ele>438.98</ele>
        <time>2012-08-30T10:44:20Z</time>
      </trkpt>
      <trkpt lat="45.17964" lon="1.8817">
        <ele>437.54</ele>
        <time>2012-08-30T10:44:25Z</time>
      </trkpt>
      <trkpt lat="45.17955" lon="1.88165">
        <ele>438.02</ele>
        <time>2012-08-30T10:44:30Z</time>
      </trkpt>
      <trkpt lat="45.17952" lon="1.8816">
        <ele>436.58</ele>
        <time>2012-08-30T10:44:33Z</time>
      </trkpt>
      <trkpt lat="45.17942" lon="1.88156">
        <ele>436.1</ele>
        <time>2012-08-30T10:44:38Z</time>
      </trkpt>
      <trkpt lat="45.17935" lon="1.88152">
        <ele>434.65</ele>
        <time>2012-08-30T10:44:43Z</time>
      </trkpt>
      <trkpt lat="45.17932" lon="1.88152">
        <ele>434.17</ele>
        <time>2012-08-30T10:44:46Z</time>
      </trkpt>
      <trkpt lat="45.17923" lon="1.88144">
        <ele>432.25</ele>
        <time>2012-08-30T10:44:52Z</time>
      </trkpt>
      <trkpt lat="45.17913" lon="1.8814">
        <ele>431.29</ele>
        <time>2012-08-30T10:44:56Z</time>
      </trkpt>
      <trkpt lat="45.17901" lon="1.88137">
        <ele>430.81</ele>
        <time>2012-08-30T10:45:02Z</time>
      </trkpt>
      <trkpt lat="45.17895" lon="1.88133">
        <ele>429.85</ele>
        <time>2012-08-30T10:45:07Z</time>
      </trkpt>
      <trkpt lat="45.17896" lon="1.88128">
        <ele>428.4</ele>
        <time>2012-08-30T10:45:12Z</time>
      </trkpt>
      <trkpt lat="45.17897" lon="1.88127">
        <ele>427.44</ele>
        <time>2012-08-30T10:45:14Z</time>
      </trkpt>
      <trkpt lat="45.17897" lon="1.88128">
        <ele>427.44</ele>
        <time>2012-08-30T10:45:16Z</time>
      </trkpt>
      <trkpt lat="45.179" lon="1.88125">
        <ele>426</ele>
        <time>2012-08-30T10:45:22Z</time>
      </trkpt>
      <trkpt lat="45.179" lon="1.88126">
        <ele>426</ele>
        <time>2012-08-30T10:45:23Z</time>
      </trkpt>
      <trkpt lat="45.179" lon="1.88126">
        <ele>425.04</ele>
        <time>2012-08-30T10:45:25Z</time>
      </trkpt>
      <trkpt lat="45.17896" lon="1.88127">
        <ele>425.04</ele>
        <time>2012-08-30T10:45:27Z</time>
      </trkpt>
      <trkpt lat="45.1789" lon="1.88126">
        <ele>424.56</ele>
        <time>2012-08-30T10:45:30Z</time>
      </trkpt>
      <trkpt lat="45.17886" lon="1.88125">
        <ele>424.08</ele>
        <time>2012-08-30T10:45:34Z</time>
      </trkpt>
      <trkpt lat="45.17883" lon="1.88121">
        <ele>423.6</ele>
        <time>2012-08-30T10:45:39Z</time>
      </trkpt>
      <trkpt lat="45.17888" lon="1.8812">
        <ele>422.16</ele>
        <time>2012-08-30T10:45:45Z</time>
      </trkpt>
      <trkpt lat="45.17894" lon="1.88118">
        <ele>421.19</ele>
        <time>2012-08-30T10:45:50Z</time>
      </trkpt>
      <trkpt lat="45.17909" lon="1.88112">
        <ele>419.27</ele>
        <time>2012-08-30T10:45:56Z</time>
      </trkpt>
      <trkpt lat="45.1791" lon="1.88111">
        <ele>420.23</ele>
        <time>2012-08-30T10:45:57Z</time>
      </trkpt>
      <trkpt lat="45.17912" lon="1.88107">
        <ele>419.27</ele>
        <time>2012-08-30T10:46:02Z</time>
      </trkpt>
      <trkpt lat="45.17911" lon="1.88105">
        <ele>417.35</ele>
        <time>2012-08-30T10:46:09Z</time>
      </trkpt>
      <trkpt lat="45.17914" lon="1.88105">
        <ele>416.39</ele>
        <time>2012-08-30T10:46:11Z</time>
      </trkpt>
      <trkpt lat="45.17918" lon="1.88103">
        <ele>415.91</ele>
        <time>2012-08-30T10:46:17Z</time>
      </trkpt>
      <trkpt lat="45.17918" lon="1.88103">
        <ele>414.95</ele>
        <time>2012-08-30T10:46:20Z</time>
      </trkpt>
      <trkpt lat="45.17921" lon="1.88101">
        <ele>414.47</ele>
        <time>2012-08-30T10:46:24Z</time>
      </trkpt>
      <trkpt lat="45.17933" lon="1.88099">
        <ele>413.5</ele>
        <time>2012-08-30T10:46:29Z</time>
      </trkpt>
      <trkpt lat="45.17944" lon="1.88101">
        <ele>412.06</ele>
        <time>2012-08-30T10:46:35Z</time>
      </trkpt>
      <trkpt lat="45.17945" lon="1.88101">
        <ele>410.62</ele>
        <time>2012-08-30T10:46:37Z</time>
      </trkpt>
      <trkpt lat="45.17949" lon="1.88104">
        <ele>410.62</ele>
        <time>2012-08-30T10:46:41Z</time>
      </trkpt>
      <trkpt lat="45.17962" lon="1.88102">
        <ele>408.22</ele>
        <time>2012-08-30T10:46:46Z</time>
      </trkpt>
      <trkpt lat="45.17965" lon="1.88101">
        <ele>408.22</ele>
        <time>2012-08-30T10:46:47Z</time>
      </trkpt>
      <trkpt lat="45.17983" lon="1.88102">
        <ele>406.77</ele>
        <time>2012-08-30T10:46:54Z</time>
      </trkpt>
      <trkpt lat="45.17987" lon="1.88099">
        <ele>405.33</ele>
        <time>2012-08-30T10:46:57Z</time>
      </trkpt>
      <trkpt lat="45.17992" lon="1.88098">
        <ele>404.37</ele>
        <time>2012-08-30T10:47:02Z</time>
      </trkpt>
      <trkpt lat="45.18002" lon="1.88095">
        <ele>403.89</ele>
        <time>2012-08-30T10:47:09Z</time>
      </trkpt>
      <trkpt lat="45.18012" lon="1.8809">
        <ele>401.01</ele>
        <time>2012-08-30T10:47:16Z</time>
      </trkpt>
      <trkpt lat="45.18021" lon="1.88088">
        <ele>400.53</ele>
        <time>2012-08-30T10:47:21Z</time>
      </trkpt>
      <trkpt lat="45.18028" lon="1.88087">
        <ele>399.08</ele>
        <time>2012-08-30T10:47:26Z</time>
      </trkpt>
      <trkpt lat="45.18031" lon="1.88086">
        <ele>399.08</ele>
        <time>2012-08-30T10:47:29Z</time>
      </trkpt>
      <trkpt lat="45.18036" lon="1.88083">
        <ele>397.64</ele>
        <time>2012-08-30T10:47:34Z</time>
      </trkpt>
      <trkpt lat="45.18043" lon="1.88081">
        <ele>396.2</ele>
        <time>2012-08-30T10:47:41Z</time>
      </trkpt>
      <trkpt lat="45.18046" lon="1.88081">
        <ele>395.24</ele>
        <time>2012-08-30T10:47:49Z</time>
      </trkpt>
      <trkpt lat="45.1805" lon="1.88086">
        <ele>393.8</ele>
        <time>2012-08-30T10:47:56Z</time>
      </trkpt>
      <trkpt lat="45.18054" lon="1.88091">
        <ele>392.84</ele>
        <time>2012-08-30T10:48:02Z</time>
      </trkpt>
      <trkpt lat="45.18055" lon="1.88092">
        <ele>391.87</ele>
        <time>2012-08-30T10:48:04Z</time>
      </trkpt>
      <trkpt lat="45.18064" lon="1.881">
        <ele>391.39</ele>
        <time>2012-08-30T10:48:10Z</time>
      </trkpt>
      <trkpt lat="45.18067" lon="1.88102">
        <ele>389.95</ele>
        <time>2012-08-30T10:48:14Z</time>
      </trkpt>
      <trkpt lat="45.1807" lon="1.88104">
        <ele>388.99</ele>
        <time>2012-08-30T10:48:18Z</time>
      </trkpt>
      <trkpt lat="45.18079" lon="1.88112">
        <ele>388.51</ele>
        <time>2012-08-30T10:48:22Z</time>
      </trkpt>
      <trkpt lat="45.1809" lon="1.88122">
        <ele>386.11</ele>
        <time>2012-08-30T10:48:28Z</time>
      </trkpt>
      <trkpt lat="45.18096" lon="1.88132">
        <ele>386.11</ele>
        <time>2012-08-30T10:48:33Z</time>
      </trkpt>
      <trkpt lat="45.18097" lon="1.88135">
        <ele>385.63</ele>
        <time>2012-08-30T10:48:34Z</time>
      </trkpt>
      <trkpt lat="45.18105" lon="1.88134">
        <ele>385.15</ele>
        <time>2012-08-30T10:48:41Z</time>
      </trkpt>
      <trkpt lat="45.18105" lon="1.88129">
        <ele>383.22</ele>
        <time>2012-08-30T10:48:45Z</time>
      </trkpt>
      <trkpt lat="45.18104" lon="1.88127">
        <ele>383.22</ele>
        <time>2012-08-30T10:48:47Z</time>
      </trkpt>
      <trkpt lat="45.18101" lon="1.88126">
        <ele>382.74</ele>
        <time>2012-08-30T10:48:50Z</time>
      </trkpt>
      <trkpt lat="45.18097" lon="1.88111">
        <ele>381.3</ele>
        <time>2012-08-30T10:48:55Z</time>
      </trkpt>
      <trkpt lat="45.18092" lon="1.88099">
        <ele>379.86</ele>
        <time>2012-08-30T10:49:01Z</time>
      </trkpt>
      <trkpt lat="45.18092" lon="1.88097">
        <ele>379.38</ele>
        <time>2012-08-30T10:49:02Z</time>
      </trkpt>
      <trkpt lat="45.18089" lon="1.8809">
        <ele>378.9</ele>
        <time>2012-08-30T10:49:06Z</time>
      </trkpt>
      <trkpt lat="45.18084" lon="1.88079">
        <ele>377.45</ele>
        <time>2012-08-30T10:49:13Z</time>
      </trkpt>
      <trkpt lat="45.18082" lon="1.88075">
        <ele>376.49</ele>
        <time>2012-08-30T10:49:15Z</time>
      </trkpt>
      <trkpt lat="45.18081" lon="1.88067">
        <ele>376.01</ele>
        <time>2012-08-30T10:49:19Z</time>
      </trkpt>
      <trkpt lat="45.18079" lon="1.88066">
        <ele>374.57</ele>
        <time>2012-08-30T10:49:21Z</time>
      </trkpt>
      <trkpt lat="45.1808" lon="1.88061">
        <ele>375.53</ele>
        <time>2012-08-30T10:49:23Z</time>
      </trkpt>
      <trkpt lat="45.18077" lon="1.88057">
        <ele>374.09</ele>
        <time>2012-08-30T10:49:29Z</time>
      </trkpt>
      <trkpt lat="45.18078" lon="1.88054">
        <ele>372.17</ele>
        <time>2012-08-30T10:49:34Z</time>
      </trkpt>
      <trkpt lat="45.18077" lon="1.88047">
        <ele>371.69</ele>
        <time>2012-08-30T10:49:38Z</time>
      </trkpt>
      <trkpt lat="45.18074" lon="1.88038">
        <ele>370.24</ele>
        <time>2012-08-30T10:49:45Z</time>
      </trkpt>
      <trkpt lat="45.18072" lon="1.88032">
        <ele>369.28</ele>
        <time>2012-08-30T10:49:50Z</time>
      </trkpt>
      <trkpt lat="45.18069" lon="1.88022">
        <ele>367.84</ele>
        <time>2012-08-30T10:49:57Z</time>
      </trkpt>
      <trkpt lat="45.18068" lon="1.88017">
        <ele>366.4</ele>
        <time>2012-08-30T10:49:59Z</time>
      </trkpt>
      <trkpt lat="45.18066" lon="1.88011">
        <ele>366.88</ele>
        <time>2012-08-30T10:50:01Z</time>
      </trkpt>
      <trkpt lat="45.18061" lon="1.88002">
        <ele>366.4</ele>
        <time>2012-08-30T10:50:06Z</time>
      </trkpt>
      <trkpt lat="45.18056" lon="1.87997">
        <ele>364.96</ele>
        <time>2012-08-30T10:50:12Z</time>
      </trkpt>
      <trkpt lat="45.1805" lon="1.87992">
        <ele>363.52</ele>
        <time>2012-08-30T10:50:16Z</time>
      </trkpt>
      <trkpt lat="45.18049" lon="1.87991">
        <ele>364</ele>
        <time>2012-08-30T10:50:18Z</time>
      </trkpt>
      <trkpt lat="45.18049" lon="1.87991">
        <ele>363.04</ele>
        <time>2012-08-30T10:50:21Z</time>
      </trkpt>
      <trkpt lat="45.18042" lon="1.87987">
        <ele>361.59</ele>
        <time>2012-08-30T10:50:27Z</time>
      </trkpt>
      <trkpt lat="45.18038" lon="1.87987">
        <ele>360.15</ele>
        <time>2012-08-30T10:50:32Z</time>
      </trkpt>
      <trkpt lat="45.18035" lon="1.87987">
        <ele>360.15</ele>
        <time>2012-08-30T10:50:37Z</time>
      </trkpt>
      <trkpt lat="45.18034" lon="1.87987">
        <ele>360.15</ele>
        <time>2012-08-30T10:50:39Z</time>
      </trkpt>
      <trkpt lat="45.18027" lon="1.87991">
        <ele>359.19</ele>
        <time>2012-08-30T10:50:43Z</time>
      </trkpt>
      <trkpt lat="45.18008" lon="1.87982">
        <ele>357.75</ele>
        <time>2012-08-30T10:50:50Z</time>
      </trkpt>
      <trkpt lat="45.18005" lon="1.87981">
        <ele>357.27</ele>
        <time>2012-08-30T10:50:56Z</time>
      </trkpt>
      <trkpt lat="45.18002" lon="1.87979">
        <ele>358.23</ele>
        <time>2012-08-30T10:51:00Z</time>
      </trkpt>
      <trkpt lat="45.18002" lon="1.87979">
        <ele>354.86</ele>
        <time>2012-08-30T10:51:03Z</time>
      </trkpt>
      <trkpt lat="45.18002" lon="1.87979">
        <ele>361.59</ele>
        <time>2012-08-30T10:51:06Z</time>
      </trkpt>
      <trkpt lat="45.18002" lon="1.87978">
        <ele>360.63</ele>
        <time>2012-08-30T10:51:07Z</time>
      </trkpt>
      <trkpt lat="45.18002" lon="1.87978">
        <ele>360.15</ele>
        <time>2012-08-30T10:51:08Z</time>
      </trkpt>
      <trkpt lat="45.18002" lon="1.87979">
        <ele>355.83</ele>
        <time>2012-08-30T10:51:10Z</time>
      </trkpt>
      <trkpt lat="45.18002" lon="1.87979">
        <ele>358.23</ele>
        <time>2012-08-30T10:51:11Z</time>
      </trkpt>
      <trkpt lat="45.17999" lon="1.87975">
        <ele>353.9</ele>
        <time>2012-08-30T10:51:17Z</time>
      </trkpt>
      <trkpt lat="45.17998" lon="1.87974">
        <ele>350.06</ele>
        <time>2012-08-30T10:51:18Z</time>
      </trkpt>
      <trkpt lat="45.17997" lon="1.87973">
        <ele>357.27</ele>
        <time>2012-08-30T10:51:19Z</time>
      </trkpt>
      <trkpt lat="45.17996" lon="1.87972">
        <ele>355.83</ele>
        <time>2012-08-30T10:51:20Z</time>
      </trkpt>
      <trkpt lat="45.17992" lon="1.87971">
        <ele>349.58</ele>
        <time>2012-08-30T10:51:24Z</time>
      </trkpt>
      <trkpt lat="45.17992" lon="1.87969">
        <ele>354.86</ele>
        <time>2012-08-30T10:51:25Z</time>
      </trkpt>
      <trkpt lat="45.17987" lon="1.87961">
        <ele>353.42</ele>
        <time>2012-08-30T10:51:30Z</time>
      </trkpt>
      <trkpt lat="45.17984" lon="1.87956">
        <ele>352.94</ele>
        <time>2012-08-30T10:51:36Z</time>
      </trkpt>
      <trkpt lat="45.17977" lon="1.8795">
        <ele>351.98</ele>
        <time>2012-08-30T10:51:41Z</time>
      </trkpt>
      <trkpt lat="45.17975" lon="1.87946">
        <ele>351.02</ele>
        <time>2012-08-30T10:51:43Z</time>
      </trkpt>
      <trkpt lat="45.17962" lon="1.87939">
        <ele>350.06</ele>
        <time>2012-08-30T10:51:49Z</time>
      </trkpt>
      <trkpt lat="45.17954" lon="1.87931">
        <ele>349.1</ele>
        <time>2012-08-30T10:51:55Z</time>
      </trkpt>
      <trkpt lat="45.17948" lon="1.87925">
        <ele>348.62</ele>
        <time>2012-08-30T10:51:59Z</time>
      </trkpt>
      <trkpt lat="45.17946" lon="1.87924">
        <ele>348.13</ele>
        <time>2012-08-30T10:52:00Z</time>
      </trkpt>
      <trkpt lat="45.17941" lon="1.87919">
        <ele>346.21</ele>
        <time>2012-08-30T10:52:07Z</time>
      </trkpt>
      <trkpt lat="45.17938" lon="1.87915">
        <ele>346.21</ele>
        <time>2012-08-30T10:52:10Z</time>
      </trkpt>
      <trkpt lat="45.1793" lon="1.87903">
        <ele>343.81</ele>
        <time>2012-08-30T10:52:18Z</time>
      </trkpt>
      <trkpt lat="45.17926" lon="1.87895">
        <ele>342.37</ele>
        <time>2012-08-30T10:52:23Z</time>
      </trkpt>
      <trkpt lat="45.17922" lon="1.87895">
        <ele>342.37</ele>
        <time>2012-08-30T10:52:26Z</time>
      </trkpt>
      <trkpt lat="45.17918" lon="1.87888">
        <ele>340.92</ele>
        <time>2012-08-30T10:52:30Z</time>
      </trkpt>
      <trkpt lat="45.17917" lon="1.87884">
        <ele>340.44</ele>
        <time>2012-08-30T10:52:33Z</time>
      </trkpt>
      <trkpt lat="45.17919" lon="1.87877">
        <ele>339.48</ele>
        <time>2012-08-30T10:52:38Z</time>
      </trkpt>
      <trkpt lat="45.17918" lon="1.87869">
        <ele>338.52</ele>
        <time>2012-08-30T10:52:41Z</time>
      </trkpt>
      <trkpt lat="45.17919" lon="1.87863">
        <ele>338.04</ele>
        <time>2012-08-30T10:52:45Z</time>
      </trkpt>
      <trkpt lat="45.17912" lon="1.87852">
        <ele>336.6</ele>
        <time>2012-08-30T10:52:50Z</time>
      </trkpt>
      <trkpt lat="45.17906" lon="1.87845">
        <ele>337.08</ele>
        <time>2012-08-30T10:52:55Z</time>
      </trkpt>
      <trkpt lat="45.17899" lon="1.87841">
        <ele>334.68</ele>
        <time>2012-08-30T10:53:01Z</time>
      </trkpt>
      <trkpt lat="45.17898" lon="1.87839">
        <ele>334.2</ele>
        <time>2012-08-30T10:53:04Z</time>
      </trkpt>
      <trkpt lat="45.17893" lon="1.87833">
        <ele>331.79</ele>
        <time>2012-08-30T10:53:10Z</time>
      </trkpt>
      <trkpt lat="45.17893" lon="1.87831">
        <ele>331.79</ele>
        <time>2012-08-30T10:53:12Z</time>
      </trkpt>
      <trkpt lat="45.17892" lon="1.8783">
        <ele>330.83</ele>
        <time>2012-08-30T10:53:17Z</time>
      </trkpt>
      <trkpt lat="45.17902" lon="1.87832">
        <ele>328.91</ele>
        <time>2012-08-30T10:53:24Z</time>
      </trkpt>
      <trkpt lat="45.17909" lon="1.87841">
        <ele>326.99</ele>
        <time>2012-08-30T10:53:31Z</time>
      </trkpt>
      <trkpt lat="45.17881" lon="1.87837">
        <ele>326.5</ele>
        <time>2012-08-30T10:53:37Z</time>
      </trkpt>
      <trkpt lat="45.17865" lon="1.87836">
        <ele>325.06</ele>
        <time>2012-08-30T10:53:42Z</time>
      </trkpt>
      <trkpt lat="45.17857" lon="1.87834">
        <ele>323.62</ele>
        <time>2012-08-30T10:53:47Z</time>
      </trkpt>
      <trkpt lat="45.17855" lon="1.87833">
        <ele>323.62</ele>
        <time>2012-08-30T10:53:54Z</time>
      </trkpt>
      <trkpt lat="45.17851" lon="1.87828">
        <ele>322.66</ele>
        <time>2012-08-30T10:54:00Z</time>
      </trkpt>
      <trkpt lat="45.17852" lon="1.87824">
        <ele>321.22</ele>
        <time>2012-08-30T10:54:03Z</time>
      </trkpt>
      <trkpt lat="45.17856" lon="1.87814">
        <ele>320.26</ele>
        <time>2012-08-30T10:54:08Z</time>
      </trkpt>
      <trkpt lat="45.17863" lon="1.87802">
        <ele>318.81</ele>
        <time>2012-08-30T10:54:14Z</time>
      </trkpt>
      <trkpt lat="45.17863" lon="1.87799">
        <ele>317.85</ele>
        <time>2012-08-30T10:54:19Z</time>
      </trkpt>
      <trkpt lat="45.17861" lon="1.87803">
        <ele>316.89</ele>
        <time>2012-08-30T10:54:24Z</time>
      </trkpt>
      <trkpt lat="45.17858" lon="1.87805">
        <ele>314.97</ele>
        <time>2012-08-30T10:54:29Z</time>
      </trkpt>
      <trkpt lat="45.17849" lon="1.87814">
        <ele>314.49</ele>
        <time>2012-08-30T10:54:33Z</time>
      </trkpt>
      <trkpt lat="45.17845" lon="1.87814">
        <ele>313.53</ele>
        <time>2012-08-30T10:54:36Z</time>
      </trkpt>
      <trkpt lat="45.17836" lon="1.87806">
        <ele>312.09</ele>
        <time>2012-08-30T10:54:41Z</time>
      </trkpt>
      <trkpt lat="45.17835" lon="1.87804">
        <ele>311.6</ele>
        <time>2012-08-30T10:54:46Z</time>
      </trkpt>
      <trkpt lat="45.17826" lon="1.87781">
        <ele>310.64</ele>
        <time>2012-08-30T10:54:51Z</time>
      </trkpt>
      <trkpt lat="45.17825" lon="1.87774">
        <ele>309.68</ele>
        <time>2012-08-30T10:54:53Z</time>
      </trkpt>
      <trkpt lat="45.17819" lon="1.87758">
        <ele>308.24</ele>
        <time>2012-08-30T10:55:00Z</time>
      </trkpt>
      <trkpt lat="45.17813" lon="1.87743">
        <ele>306.32</ele>
        <time>2012-08-30T10:55:05Z</time>
      </trkpt>
      <trkpt lat="45.17812" lon="1.87742">
        <ele>306.8</ele>
        <time>2012-08-30T10:55:09Z</time>
      </trkpt>
      <trkpt lat="45.17814" lon="1.8774">
        <ele>305.84</ele>
        <time>2012-08-30T10:55:14Z</time>
      </trkpt>
      <trkpt lat="45.17812" lon="1.87737">
        <ele>305.36</ele>
        <time>2012-08-30T10:55:16Z</time>
      </trkpt>
      <trkpt lat="45.17806" lon="1.87726">
        <ele>303.43</ele>
        <time>2012-08-30T10:55:21Z</time>
      </trkpt>
      <trkpt lat="45.17799" lon="1.87719">
        <ele>302.47</ele>
        <time>2012-08-30T10:55:27Z</time>
      </trkpt>
      <trkpt lat="45.17798" lon="1.87711">
        <ele>300.07</ele>
        <time>2012-08-30T10:55:33Z</time>
      </trkpt>
      <trkpt lat="45.17792" lon="1.87704">
        <ele>298.15</ele>
        <time>2012-08-30T10:55:39Z</time>
      </trkpt>
      <trkpt lat="45.17788" lon="1.87699">
        <ele>296.7</ele>
        <time>2012-08-30T10:55:46Z</time>
      </trkpt>
      <trkpt lat="45.17785" lon="1.87696">
        <ele>294.3</ele>
        <time>2012-08-30T10:55:54Z</time>
      </trkpt>
      <trkpt lat="45.17778" lon="1.87691">
        <ele>292.86</ele>
        <time>2012-08-30T10:56:00Z</time>
      </trkpt>
      <trkpt lat="45.17776" lon="1.87688">
        <ele>290.94</ele>
        <time>2012-08-30T10:56:06Z</time>
      </trkpt>
      <trkpt lat="45.17775" lon="1.87686">
        <ele>290.46</ele>
        <time>2012-08-30T10:56:07Z</time>
      </trkpt>
      <trkpt lat="45.17771" lon="1.87686">
        <ele>289.97</ele>
        <time>2012-08-30T10:56:12Z</time>
      </trkpt>
      <trkpt lat="45.17769" lon="1.87683">
        <ele>288.05</ele>
        <time>2012-08-30T10:56:14Z</time>
      </trkpt>
      <trkpt lat="45.17766" lon="1.87681">
        <ele>288.05</ele>
        <time>2012-08-30T10:56:15Z</time>
      </trkpt>
      <trkpt lat="45.17754" lon="1.8767">
        <ele>286.61</ele>
        <time>2012-08-30T10:56:20Z</time>
      </trkpt>
      <trkpt lat="45.17738" lon="1.87658">
        <ele>285.17</ele>
        <time>2012-08-30T10:56:26Z</time>
      </trkpt>
      <trkpt lat="45.17725" lon="1.8765">
        <ele>284.69</ele>
        <time>2012-08-30T10:56:29Z</time>
      </trkpt>
      <trkpt lat="45.17714" lon="1.87646">
        <ele>284.21</ele>
        <time>2012-08-30T10:56:33Z</time>
      </trkpt>
      <trkpt lat="45.17717" lon="1.87646">
        <ele>284.21</ele>
        <time>2012-08-30T10:56:37Z</time>
      </trkpt>
      <trkpt lat="45.17717" lon="1.87646">
        <ele>284.21</ele>
        <time>2012-08-30T10:56:43Z</time>
      </trkpt>
      <trkpt lat="45.17716" lon="1.87646">
        <ele>283.73</ele>
        <time>2012-08-30T10:56:49Z</time>
      </trkpt>
      <trkpt lat="45.17717" lon="1.87646">
        <ele>288.53</ele>
        <time>2012-08-30T10:56:54Z</time>
      </trkpt>
      <trkpt lat="45.17717" lon="1.87646">
        <ele>280.84</ele>
        <time>2012-08-30T10:56:55Z</time>
      </trkpt>
      <trkpt lat="45.17717" lon="1.87646">
        <ele>285.17</ele>
        <time>2012-08-30T10:56:56Z</time>
      </trkpt>
      <trkpt lat="45.17717" lon="1.87646">
        <ele>278.92</ele>
        <time>2012-08-30T10:56:59Z</time>
      </trkpt>
      <trkpt lat="45.17717" lon="1.87646">
        <ele>285.65</ele>
        <time>2012-08-30T10:57:00Z</time>
      </trkpt>
      <trkpt lat="45.17717" lon="1.87646">
        <ele>282.28</ele>
        <time>2012-08-30T10:57:02Z</time>
      </trkpt>
      <trkpt lat="45.17717" lon="1.87646">
        <ele>285.65</ele>
        <time>2012-08-30T10:57:03Z</time>
      </trkpt>
      <trkpt lat="45.17717" lon="1.87646">
        <ele>285.17</ele>
        <time>2012-08-30T10:57:04Z</time>
      </trkpt>
      <trkpt lat="45.17717" lon="1.87646">
        <ele>282.28</ele>
        <time>2012-08-30T10:57:11Z</time>
      </trkpt>
      <trkpt lat="45.17717" lon="1.87646">
        <ele>284.69</ele>
        <time>2012-08-30T10:57:13Z</time>
      </trkpt>
      <trkpt lat="45.17717" lon="1.87646">
        <ele>280.84</ele>
        <time>2012-08-30T10:57:24Z</time>
      </trkpt>
      <trkpt lat="45.17717" lon="1.87646">
        <ele>285.17</ele>
        <time>2012-08-30T10:57:25Z</time>
      </trkpt>
      <trkpt lat="45.17716" lon="1.87646">
        <ele>283.73</ele>
        <time>2012-08-30T10:57:30Z</time>
      </trkpt>
      <trkpt lat="45.17714" lon="1.87645">
        <ele>283.25</ele>
        <time>2012-08-30T10:57:32Z</time>
      </trkpt>
      <trkpt lat="45.17693" lon="1.87626">
        <ele>278.92</ele>
        <time>2012-08-30T10:57:43Z</time>
      </trkpt>
      <trkpt lat="45.1769" lon="1.87625">
        <ele>278.92</ele>
        <time>2012-08-30T10:57:44Z</time>
      </trkpt>
      <trkpt lat="45.17675" lon="1.87612">
        <ele>276.52</ele>
        <time>2012-08-30T10:57:49Z</time>
      </trkpt>
      <trkpt lat="45.1767" lon="1.87609">
        <ele>276.52</ele>
        <time>2012-08-30T10:57:50Z</time>
      </trkpt>
      <trkpt lat="45.1766" lon="1.87606">
        <ele>275.56</ele>
        <time>2012-08-30T10:57:51Z</time>
      </trkpt>
      <trkpt lat="45.17654" lon="1.87605">
        <ele>275.56</ele>
        <time>2012-08-30T10:57:52Z</time>
      </trkpt>
      <trkpt lat="45.17648" lon="1.87605">
        <ele>275.07</ele>
        <time>2012-08-30T10:57:53Z</time>
      </trkpt>
      <trkpt lat="45.17644" lon="1.87605">
        <ele>274.11</ele>
        <time>2012-08-30T10:57:54Z</time>
      </trkpt>
      <trkpt lat="45.17622" lon="1.87598">
        <ele>271.23</ele>
        <time>2012-08-30T10:58:00Z</time>
      </trkpt>
      <trkpt lat="45.17599" lon="1.87579">
        <ele>267.38</ele>
        <time>2012-08-30T10:58:07Z</time>
      </trkpt>
      <trkpt lat="45.17592" lon="1.87571">
        <ele>266.9</ele>
        <time>2012-08-30T10:58:13Z</time>
      </trkpt>
      <trkpt lat="45.17584" lon="1.87566">
        <ele>266.9</ele>
        <time>2012-08-30T10:58:16Z</time>
      </trkpt>
      <trkpt lat="45.17576" lon="1.87561">
        <ele>266.9</ele>
        <time>2012-08-30T10:58:18Z</time>
      </trkpt>
      <trkpt lat="45.17572" lon="1.87557">
        <ele>266.42</ele>
        <time>2012-08-30T10:58:19Z</time>
      </trkpt>
      <trkpt lat="45.17567" lon="1.87553">
        <ele>267.86</ele>
        <time>2012-08-30T10:58:20Z</time>
      </trkpt>
      <trkpt lat="45.17561" lon="1.87551">
        <ele>268.83</ele>
        <time>2012-08-30T10:58:21Z</time>
      </trkpt>
      <trkpt lat="45.17556" lon="1.87547">
        <ele>271.23</ele>
        <time>2012-08-30T10:58:22Z</time>
      </trkpt>
      <trkpt lat="45.1755" lon="1.87544">
        <ele>264.02</ele>
        <time>2012-08-30T10:58:23Z</time>
      </trkpt>
      <trkpt lat="45.1754" lon="1.87538">
        <ele>271.71</ele>
        <time>2012-08-30T10:58:24Z</time>
      </trkpt>
      <trkpt lat="45.17531" lon="1.87531">
        <ele>266.9</ele>
        <time>2012-08-30T10:58:25Z</time>
      </trkpt>
      <trkpt lat="45.17501" lon="1.87507">
        <ele>265.46</ele>
        <time>2012-08-30T10:58:29Z</time>
      </trkpt>
      <trkpt lat="45.17493" lon="1.87504">
        <ele>264.98</ele>
        <time>2012-08-30T10:58:30Z</time>
      </trkpt>
      <trkpt lat="45.17442" lon="1.87501">
        <ele>264.02</ele>
        <time>2012-08-30T10:58:35Z</time>
      </trkpt>
      <trkpt lat="45.17372" lon="1.8751">
        <ele>264.5</ele>
        <time>2012-08-30T10:58:41Z</time>
      </trkpt>
      <trkpt lat="45.17332" lon="1.87516">
        <ele>261.14</ele>
        <time>2012-08-30T10:58:45Z</time>
      </trkpt>
      <trkpt lat="45.17309" lon="1.87523">
        <ele>261.62</ele>
        <time>2012-08-30T10:58:48Z</time>
      </trkpt>
      <trkpt lat="45.17302" lon="1.87528">
        <ele>261.14</ele>
        <time>2012-08-30T10:58:49Z</time>
      </trkpt>
      <trkpt lat="45.17296" lon="1.87533">
        <ele>261.62</ele>
        <time>2012-08-30T10:58:50Z</time>
      </trkpt>
      <trkpt lat="45.17289" lon="1.87537">
        <ele>262.1</ele>
        <time>2012-08-30T10:58:51Z</time>
      </trkpt>
      <trkpt lat="45.17282" lon="1.87538">
        <ele>261.62</ele>
        <time>2012-08-30T10:58:52Z</time>
      </trkpt>
      <trkpt lat="45.17274" lon="1.87537">
        <ele>261.62</ele>
        <time>2012-08-30T10:58:53Z</time>
      </trkpt>
      <trkpt lat="45.17266" lon="1.87533">
        <ele>262.1</ele>
        <time>2012-08-30T10:58:54Z</time>
      </trkpt>
      <trkpt lat="45.17258" lon="1.87529">
        <ele>262.58</ele>
        <time>2012-08-30T10:58:55Z</time>
      </trkpt>
      <trkpt lat="45.17194" lon="1.875">
        <ele>260.65</ele>
        <time>2012-08-30T10:59:02Z</time>
      </trkpt>
      <trkpt lat="45.17142" lon="1.8748">
        <ele>259.21</ele>
        <time>2012-08-30T10:59:07Z</time>
      </trkpt>
      <trkpt lat="45.17062" lon="1.87452">
        <ele>255.37</ele>
        <time>2012-08-30T10:59:15Z</time>
      </trkpt>
      <trkpt lat="45.17054" lon="1.87451">
        <ele>254.89</ele>
        <time>2012-08-30T10:59:16Z</time>
      </trkpt>
      <trkpt lat="45.17047" lon="1.87451">
        <ele>254.41</ele>
        <time>2012-08-30T10:59:17Z</time>
      </trkpt>
      <trkpt lat="45.1704" lon="1.87452">
        <ele>254.41</ele>
        <time>2012-08-30T10:59:18Z</time>
      </trkpt>
      <trkpt lat="45.17035" lon="1.87455">
        <ele>254.41</ele>
        <time>2012-08-30T10:59:19Z</time>
      </trkpt>
      <trkpt lat="45.17031" lon="1.8746">
        <ele>254.89</ele>
        <time>2012-08-30T10:59:20Z</time>
      </trkpt>
      <trkpt lat="45.17027" lon="1.87465">
        <ele>255.37</ele>
        <time>2012-08-30T10:59:21Z</time>
      </trkpt>
      <trkpt lat="45.17022" lon="1.87468">
        <ele>255.85</ele>
        <time>2012-08-30T10:59:22Z</time>
      </trkpt>
      <trkpt lat="45.17016" lon="1.87472">
        <ele>256.33</ele>
        <time>2012-08-30T10:59:23Z</time>
      </trkpt>
      <trkpt lat="45.17004" lon="1.87478">
        <ele>257.29</ele>
        <time>2012-08-30T10:59:25Z</time>
      </trkpt>
      <trkpt lat="45.16992" lon="1.87483">
        <ele>258.25</ele>
        <time>2012-08-30T10:59:27Z</time>
      </trkpt>
      <trkpt lat="45.16974" lon="1.87491">
        <ele>259.69</ele>
        <time>2012-08-30T10:59:30Z</time>
      </trkpt>
      <trkpt lat="45.1697" lon="1.87494">
        <ele>260.65</ele>
        <time>2012-08-30T10:59:31Z</time>
      </trkpt>
      <trkpt lat="45.16966" lon="1.87498">
        <ele>260.65</ele>
        <time>2012-08-30T10:59:32Z</time>
      </trkpt>
      <trkpt lat="45.16962" lon="1.87503">
        <ele>261.14</ele>
        <time>2012-08-30T10:59:33Z</time>
      </trkpt>
      <trkpt lat="45.16961" lon="1.87511">
        <ele>262.1</ele>
        <time>2012-08-30T10:59:34Z</time>
      </trkpt>
      <trkpt lat="45.1696" lon="1.87519">
        <ele>262.1</ele>
        <time>2012-08-30T10:59:35Z</time>
      </trkpt>
      <trkpt lat="45.16958" lon="1.87544">
        <ele>264.02</ele>
        <time>2012-08-30T10:59:38Z</time>
      </trkpt>
      <trkpt lat="45.16951" lon="1.87606">
        <ele>264.5</ele>
        <time>2012-08-30T10:59:45Z</time>
      </trkpt>
      <trkpt lat="45.16949" lon="1.87614">
        <ele>264.5</ele>
        <time>2012-08-30T10:59:46Z</time>
      </trkpt>
      <trkpt lat="45.16922" lon="1.87658">
        <ele>264.5</ele>
        <time>2012-08-30T10:59:53Z</time>
      </trkpt>
      <trkpt lat="45.16908" lon="1.87677">
        <ele>264.02</ele>
        <time>2012-08-30T10:59:57Z</time>
      </trkpt>
      <trkpt lat="45.16906" lon="1.87683">
        <ele>264.02</ele>
        <time>2012-08-30T10:59:58Z</time>
      </trkpt>
      <trkpt lat="45.16887" lon="1.87718">
        <ele>262.1</ele>
        <time>2012-08-30T11:00:06Z</time>
      </trkpt>
      <trkpt lat="45.16866" lon="1.87736">
        <ele>259.21</ele>
        <time>2012-08-30T11:00:13Z</time>
      </trkpt>
      <trkpt lat="45.16834" lon="1.87751">
        <ele>259.21</ele>
        <time>2012-08-30T11:00:20Z</time>
      </trkpt>
      <trkpt lat="45.16831" lon="1.87754">
        <ele>259.21</ele>
        <time>2012-08-30T11:00:21Z</time>
      </trkpt>
      <trkpt lat="45.16827" lon="1.87758">
        <ele>260.17</ele>
        <time>2012-08-30T11:00:22Z</time>
      </trkpt>
      <trkpt lat="45.16825" lon="1.87761">
        <ele>259.69</ele>
        <time>2012-08-30T11:00:23Z</time>
      </trkpt>
      <trkpt lat="45.16809" lon="1.87781">
        <ele>262.1</ele>
        <time>2012-08-30T11:00:30Z</time>
      </trkpt>
      <trkpt lat="45.16802" lon="1.8779">
        <ele>263.54</ele>
        <time>2012-08-30T11:00:34Z</time>
      </trkpt>
      <trkpt lat="45.16789" lon="1.87804">
        <ele>264.98</ele>
        <time>2012-08-30T11:00:41Z</time>
      </trkpt>
      <trkpt lat="45.16776" lon="1.87813">
        <ele>266.9</ele>
        <time>2012-08-30T11:00:45Z</time>
      </trkpt>
      <trkpt lat="45.16752" lon="1.87827">
        <ele>268.83</ele>
        <time>2012-08-30T11:00:53Z</time>
      </trkpt>
      <trkpt lat="45.16725" lon="1.87846">
        <ele>270.75</ele>
        <time>2012-08-30T11:01:01Z</time>
      </trkpt>
      <trkpt lat="45.16724" lon="1.87849">
        <ele>270.75</ele>
        <time>2012-08-30T11:01:02Z</time>
      </trkpt>
      <trkpt lat="45.16723" lon="1.87853">
        <ele>271.23</ele>
        <time>2012-08-30T11:01:03Z</time>
      </trkpt>
      <trkpt lat="45.16723" lon="1.87857">
        <ele>270.75</ele>
        <time>2012-08-30T11:01:04Z</time>
      </trkpt>
      <trkpt lat="45.16721" lon="1.8788">
        <ele>271.71</ele>
        <time>2012-08-30T11:01:10Z</time>
      </trkpt>
      <trkpt lat="45.16723" lon="1.87901">
        <ele>273.63</ele>
        <time>2012-08-30T11:01:16Z</time>
      </trkpt>
      <trkpt lat="45.16719" lon="1.87924">
        <ele>276.04</ele>
        <time>2012-08-30T11:01:22Z</time>
      </trkpt>
      <trkpt lat="45.16701" lon="1.87954">
        <ele>279.4</ele>
        <time>2012-08-30T11:01:30Z</time>
      </trkpt>
      <trkpt lat="45.16682" lon="1.87979">
        <ele>282.28</ele>
        <time>2012-08-30T11:01:38Z</time>
      </trkpt>
      <trkpt lat="45.16679" lon="1.87982">
        <ele>282.28</ele>
        <time>2012-08-30T11:01:39Z</time>
      </trkpt>
      <trkpt lat="45.1666" lon="1.8801">
        <ele>285.65</ele>
        <time>2012-08-30T11:01:48Z</time>
      </trkpt>
      <trkpt lat="45.16637" lon="1.88037">
        <ele>288.53</ele>
        <time>2012-08-30T11:01:57Z</time>
      </trkpt>
      <trkpt lat="45.1661" lon="1.88067">
        <ele>291.9</ele>
        <time>2012-08-30T11:02:06Z</time>
      </trkpt>
      <trkpt lat="45.16603" lon="1.88069">
        <ele>292.38</ele>
        <time>2012-08-30T11:02:08Z</time>
      </trkpt>
      <trkpt lat="45.16584" lon="1.88062">
        <ele>294.3</ele>
        <time>2012-08-30T11:02:12Z</time>
      </trkpt>
      <trkpt lat="45.16538" lon="1.88041">
        <ele>295.74</ele>
        <time>2012-08-30T11:02:19Z</time>
      </trkpt>
      <trkpt lat="45.16496" lon="1.88027">
        <ele>294.78</ele>
        <time>2012-08-30T11:02:26Z</time>
      </trkpt>
      <trkpt lat="45.16475" lon="1.88022">
        <ele>295.74</ele>
        <time>2012-08-30T11:02:30Z</time>
      </trkpt>
      <trkpt lat="45.1647" lon="1.88019">
        <ele>295.74</ele>
        <time>2012-08-30T11:02:31Z</time>
      </trkpt>
      <trkpt lat="45.16465" lon="1.88016">
        <ele>296.22</ele>
        <time>2012-08-30T11:02:32Z</time>
      </trkpt>
      <trkpt lat="45.16462" lon="1.8801">
        <ele>291.42</ele>
        <time>2012-08-30T11:02:33Z</time>
      </trkpt>
      <trkpt lat="45.16459" lon="1.88006">
        <ele>298.15</ele>
        <time>2012-08-30T11:02:34Z</time>
      </trkpt>
      <trkpt lat="45.16455" lon="1.88003">
        <ele>296.22</ele>
        <time>2012-08-30T11:02:35Z</time>
      </trkpt>
      <trkpt lat="45.16452" lon="1.88001">
        <ele>299.11</ele>
        <time>2012-08-30T11:02:36Z</time>
      </trkpt>
      <trkpt lat="45.16449" lon="1.88001">
        <ele>301.99</ele>
        <time>2012-08-30T11:02:37Z</time>
      </trkpt>
      <trkpt lat="45.16446" lon="1.88002">
        <ele>296.7</ele>
        <time>2012-08-30T11:02:38Z</time>
      </trkpt>
      <trkpt lat="45.16444" lon="1.88003">
        <ele>293.82</ele>
        <time>2012-08-30T11:02:39Z</time>
      </trkpt>
      <trkpt lat="45.16441" lon="1.88005">
        <ele>299.11</ele>
        <time>2012-08-30T11:02:40Z</time>
      </trkpt>
      <trkpt lat="45.16438" lon="1.88007">
        <ele>292.38</ele>
        <time>2012-08-30T11:02:41Z</time>
      </trkpt>
      <trkpt lat="45.16436" lon="1.8801">
        <ele>302.95</ele>
        <time>2012-08-30T11:02:42Z</time>
      </trkpt>
      <trkpt lat="45.16434" lon="1.88012">
        <ele>298.15</ele>
        <time>2012-08-30T11:02:43Z</time>
      </trkpt>
      <trkpt lat="45.1643" lon="1.88016">
        <ele>304.88</ele>
        <time>2012-08-30T11:02:45Z</time>
      </trkpt>
      <trkpt lat="45.16428" lon="1.88018">
        <ele>301.51</ele>
        <time>2012-08-30T11:02:46Z</time>
      </trkpt>
      <trkpt lat="45.16427" lon="1.88018">
        <ele>304.88</ele>
        <time>2012-08-30T11:02:47Z</time>
      </trkpt>
      <trkpt lat="45.16425" lon="1.88018">
        <ele>302.95</ele>
        <time>2012-08-30T11:02:48Z</time>
      </trkpt>
      <trkpt lat="45.16424" lon="1.88016">
        <ele>301.51</ele>
        <time>2012-08-30T11:02:54Z</time>
      </trkpt>
      <trkpt lat="45.16424" lon="1.88016">
        <ele>304.88</ele>
        <time>2012-08-30T11:02:55Z</time>
      </trkpt>
      <trkpt lat="45.16425" lon="1.88014">
        <ele>303.43</ele>
        <time>2012-08-30T11:03:02Z</time>
      </trkpt>
      <trkpt lat="45.16434" lon="1.87998">
        <ele>303.43</ele>
        <time>2012-08-30T11:03:07Z</time>
      </trkpt>
      <trkpt lat="45.16448" lon="1.87969">
        <ele>303.91</ele>
        <time>2012-08-30T11:03:15Z</time>
      </trkpt>
      <trkpt lat="45.16446" lon="1.87952">
        <ele>304.88</ele>
        <time>2012-08-30T11:03:21Z</time>
      </trkpt>
      <trkpt lat="45.16445" lon="1.87953">
        <ele>305.36</ele>
        <time>2012-08-30T11:03:23Z</time>
      </trkpt>
      <trkpt lat="45.16433" lon="1.87963">
        <ele>306.8</ele>
        <time>2012-08-30T11:03:27Z</time>
      </trkpt>
      <trkpt lat="45.16412" lon="1.87981">
        <ele>309.68</ele>
        <time>2012-08-30T11:03:33Z</time>
      </trkpt>
      <trkpt lat="45.16398" lon="1.87997">
        <ele>311.12</ele>
        <time>2012-08-30T11:03:41Z</time>
      </trkpt>
      <trkpt lat="45.16398" lon="1.87997">
        <ele>310.64</ele>
        <time>2012-08-30T11:03:52Z</time>
      </trkpt>
      <trkpt lat="45.16398" lon="1.87997">
        <ele>311.12</ele>
        <time>2012-08-30T11:04:00Z</time>
      </trkpt>
      <trkpt lat="45.16398" lon="1.87997">
        <ele>310.64</ele>
        <time>2012-08-30T11:04:11Z</time>
      </trkpt>
      <trkpt lat="45.16398" lon="1.87997">
        <ele>310.64</ele>
        <time>2012-08-30T11:04:18Z</time>
      </trkpt>
      <trkpt lat="45.16398" lon="1.87997">
        <ele>310.16</ele>
        <time>2012-08-30T11:04:21Z</time>
      </trkpt>
      <trkpt lat="45.16396" lon="1.88001">
        <ele>310.64</ele>
        <time>2012-08-30T11:04:26Z</time>
      </trkpt>
      <trkpt lat="45.16389" lon="1.88006">
        <ele>305.36</ele>
        <time>2012-08-30T11:04:33Z</time>
      </trkpt>
      <trkpt lat="45.16388" lon="1.88006">
        <ele>311.6</ele>
        <time>2012-08-30T11:04:34Z</time>
      </trkpt>
      <trkpt lat="45.16386" lon="1.88006">
        <ele>312.57</ele>
        <time>2012-08-30T11:04:36Z</time>
      </trkpt>
      <trkpt lat="45.16383" lon="1.88008">
        <ele>313.05</ele>
        <time>2012-08-30T11:04:42Z</time>
      </trkpt>
      <trkpt lat="45.16373" lon="1.88007">
        <ele>314.01</ele>
        <time>2012-08-30T11:04:49Z</time>
      </trkpt>
      <trkpt lat="45.16365" lon="1.88004">
        <ele>313.53</ele>
        <time>2012-08-30T11:04:56Z</time>
      </trkpt>
      <trkpt lat="45.16354" lon="1.88004">
        <ele>312.57</ele>
        <time>2012-08-30T11:05:03Z</time>
      </trkpt>
      <trkpt lat="45.16339" lon="1.87999">
        <ele>312.57</ele>
        <time>2012-08-30T11:05:12Z</time>
      </trkpt>
      <trkpt lat="45.16337" lon="1.87995">
        <ele>313.53</ele>
        <time>2012-08-30T11:05:19Z</time>
      </trkpt>
      <trkpt lat="45.16333" lon="1.87991">
        <ele>314.49</ele>
        <time>2012-08-30T11:05:27Z</time>
      </trkpt>
      <trkpt lat="45.16326" lon="1.87994">
        <ele>316.41</ele>
        <time>2012-08-30T11:05:34Z</time>
      </trkpt>
      <trkpt lat="45.16325" lon="1.87994">
        <ele>316.89</ele>
        <time>2012-08-30T11:05:39Z</time>
      </trkpt>
      <trkpt lat="45.16309" lon="1.87999">
        <ele>317.85</ele>
        <time>2012-08-30T11:05:46Z</time>
      </trkpt>
      <trkpt lat="45.16306" lon="1.87998">
        <ele>318.81</ele>
        <time>2012-08-30T11:05:53Z</time>
      </trkpt>
      <trkpt lat="45.16305" lon="1.87999">
        <ele>319.3</ele>
        <time>2012-08-30T11:05:58Z</time>
      </trkpt>
      <trkpt lat="45.16298" lon="1.87993">
        <ele>321.22</ele>
        <time>2012-08-30T11:06:03Z</time>
      </trkpt>
      <trkpt lat="45.1629" lon="1.87992">
        <ele>321.7</ele>
        <time>2012-08-30T11:06:10Z</time>
      </trkpt>
      <trkpt lat="45.16288" lon="1.87996">
        <ele>322.18</ele>
        <time>2012-08-30T11:06:14Z</time>
      </trkpt>
      <trkpt lat="45.16283" lon="1.88">
        <ele>323.14</ele>
        <time>2012-08-30T11:06:19Z</time>
      </trkpt>
      <trkpt lat="45.16281" lon="1.88007">
        <ele>323.62</ele>
        <time>2012-08-30T11:06:26Z</time>
      </trkpt>
      <trkpt lat="45.16278" lon="1.88013">
        <ele>324.58</ele>
        <time>2012-08-30T11:06:33Z</time>
      </trkpt>
      <trkpt lat="45.16274" lon="1.88024">
        <ele>325.06</ele>
        <time>2012-08-30T11:06:40Z</time>
      </trkpt>
      <trkpt lat="45.16274" lon="1.88026">
        <ele>326.02</ele>
        <time>2012-08-30T11:06:41Z</time>
      </trkpt>
      <trkpt lat="45.16272" lon="1.88031">
        <ele>326.02</ele>
        <time>2012-08-30T11:06:43Z</time>
      </trkpt>
      <trkpt lat="45.16267" lon="1.88037">
        <ele>326.02</ele>
        <time>2012-08-30T11:06:46Z</time>
      </trkpt>
      <trkpt lat="45.16262" lon="1.88045">
        <ele>326.99</ele>
        <time>2012-08-30T11:06:52Z</time>
      </trkpt>
      <trkpt lat="45.16258" lon="1.88051">
        <ele>327.95</ele>
        <time>2012-08-30T11:06:57Z</time>
      </trkpt>
      <trkpt lat="45.16253" lon="1.88061">
        <ele>327.95</ele>
        <time>2012-08-30T11:07:04Z</time>
      </trkpt>
      <trkpt lat="45.16251" lon="1.88066">
        <ele>329.39</ele>
        <time>2012-08-30T11:07:11Z</time>
      </trkpt>
      <trkpt lat="45.16246" lon="1.88073">
        <ele>330.35</ele>
        <time>2012-08-30T11:07:17Z</time>
      </trkpt>
      <trkpt lat="45.16241" lon="1.88081">
        <ele>331.79</ele>
        <time>2012-08-30T11:07:24Z</time>
      </trkpt>
      <trkpt lat="45.16235" lon="1.88087">
        <ele>332.27</ele>
        <time>2012-08-30T11:07:30Z</time>
      </trkpt>
      <trkpt lat="45.16232" lon="1.88093">
        <ele>332.75</ele>
        <time>2012-08-30T11:07:37Z</time>
      </trkpt>
      <trkpt lat="45.16225" lon="1.88106">
        <ele>333.71</ele>
        <time>2012-08-30T11:07:44Z</time>
      </trkpt>
      <trkpt lat="45.16226" lon="1.88116">
        <ele>333.71</ele>
        <time>2012-08-30T11:07:51Z</time>
      </trkpt>
      <trkpt lat="45.16226" lon="1.88118">
        <ele>333.23</ele>
        <time>2012-08-30T11:07:52Z</time>
      </trkpt>
      <trkpt lat="45.16227" lon="1.8812">
        <ele>334.2</ele>
        <time>2012-08-30T11:07:53Z</time>
      </trkpt>
      <trkpt lat="45.16222" lon="1.88136">
        <ele>335.16</ele>
        <time>2012-08-30T11:08:01Z</time>
      </trkpt>
      <trkpt lat="45.16221" lon="1.88146">
        <ele>336.12</ele>
        <time>2012-08-30T11:08:07Z</time>
      </trkpt>
      <trkpt lat="45.16221" lon="1.88151">
        <ele>336.6</ele>
        <time>2012-08-30T11:08:09Z</time>
      </trkpt>
      <trkpt lat="45.16221" lon="1.88158">
        <ele>336.12</ele>
        <time>2012-08-30T11:08:13Z</time>
      </trkpt>
      <trkpt lat="45.1622" lon="1.88171">
        <ele>335.16</ele>
        <time>2012-08-30T11:08:21Z</time>
      </trkpt>
      <trkpt lat="45.16215" lon="1.88182">
        <ele>334.2</ele>
        <time>2012-08-30T11:08:29Z</time>
      </trkpt>
      <trkpt lat="45.16213" lon="1.88188">
        <ele>334.2</ele>
        <time>2012-08-30T11:08:37Z</time>
      </trkpt>
      <trkpt lat="45.16208" lon="1.88196">
        <ele>334.2</ele>
        <time>2012-08-30T11:08:44Z</time>
      </trkpt>
      <trkpt lat="45.16206" lon="1.88197">
        <ele>333.71</ele>
        <time>2012-08-30T11:08:46Z</time>
      </trkpt>
      <trkpt lat="45.16195" lon="1.8821">
        <ele>334.2</ele>
        <time>2012-08-30T11:08:53Z</time>
      </trkpt>
      <trkpt lat="45.16188" lon="1.88215">
        <ele>334.2</ele>
        <time>2012-08-30T11:09:01Z</time>
      </trkpt>
      <trkpt lat="45.16185" lon="1.88217">
        <ele>334.68</ele>
        <time>2012-08-30T11:09:03Z</time>
      </trkpt>
      <trkpt lat="45.16171" lon="1.88226">
        <ele>336.12</ele>
        <time>2012-08-30T11:09:12Z</time>
      </trkpt>
      <trkpt lat="45.16163" lon="1.88227">
        <ele>338.04</ele>
        <time>2012-08-30T11:09:20Z</time>
      </trkpt>
      <trkpt lat="45.16161" lon="1.88227">
        <ele>338.04</ele>
        <time>2012-08-30T11:09:22Z</time>
      </trkpt>
      <trkpt lat="45.16152" lon="1.88222">
        <ele>339</ele>
        <time>2012-08-30T11:09:31Z</time>
      </trkpt>
      <trkpt lat="45.16143" lon="1.88214">
        <ele>340.44</ele>
        <time>2012-08-30T11:09:41Z</time>
      </trkpt>
      <trkpt lat="45.16132" lon="1.88207">
        <ele>341.89</ele>
        <time>2012-08-30T11:09:49Z</time>
      </trkpt>
      <trkpt lat="45.16127" lon="1.88204">
        <ele>342.85</ele>
        <time>2012-08-30T11:09:54Z</time>
      </trkpt>
      <trkpt lat="45.16119" lon="1.88193">
        <ele>343.81</ele>
        <time>2012-08-30T11:10:03Z</time>
      </trkpt>
      <trkpt lat="45.16113" lon="1.88183">
        <ele>345.25</ele>
        <time>2012-08-30T11:10:11Z</time>
      </trkpt>
      <trkpt lat="45.16113" lon="1.8818">
        <ele>344.77</ele>
        <time>2012-08-30T11:10:13Z</time>
      </trkpt>
      <trkpt lat="45.16107" lon="1.88171">
        <ele>346.21</ele>
        <time>2012-08-30T11:10:22Z</time>
      </trkpt>
      <trkpt lat="45.16105" lon="1.88176">
        <ele>346.69</ele>
        <time>2012-08-30T11:10:26Z</time>
      </trkpt>
      <trkpt lat="45.16105" lon="1.88185">
        <ele>348.13</ele>
        <time>2012-08-30T11:10:34Z</time>
      </trkpt>
      <trkpt lat="45.16107" lon="1.88188">
        <ele>348.13</ele>
        <time>2012-08-30T11:10:36Z</time>
      </trkpt>
      <trkpt lat="45.16105" lon="1.88199">
        <ele>349.1</ele>
        <time>2012-08-30T11:10:44Z</time>
      </trkpt>
      <trkpt lat="45.16102" lon="1.88209">
        <ele>350.54</ele>
        <time>2012-08-30T11:10:50Z</time>
      </trkpt>
      <trkpt lat="45.16102" lon="1.88219">
        <ele>351.02</ele>
        <time>2012-08-30T11:10:57Z</time>
      </trkpt>
      <trkpt lat="45.16103" lon="1.88228">
        <ele>343.33</ele>
        <time>2012-08-30T11:11:03Z</time>
      </trkpt>
      <trkpt lat="45.16103" lon="1.88229">
        <ele>354.86</ele>
        <time>2012-08-30T11:11:04Z</time>
      </trkpt>
      <trkpt lat="45.16102" lon="1.8823">
        <ele>348.62</ele>
        <time>2012-08-30T11:11:05Z</time>
      </trkpt>
      <trkpt lat="45.16102" lon="1.88232">
        <ele>354.38</ele>
        <time>2012-08-30T11:11:06Z</time>
      </trkpt>
      <trkpt lat="45.16101" lon="1.88237">
        <ele>344.77</ele>
        <time>2012-08-30T11:11:10Z</time>
      </trkpt>
      <trkpt lat="45.16101" lon="1.88237">
        <ele>355.83</ele>
        <time>2012-08-30T11:11:11Z</time>
      </trkpt>
      <trkpt lat="45.161" lon="1.88244">
        <ele>359.67</ele>
        <time>2012-08-30T11:11:17Z</time>
      </trkpt>
      <trkpt lat="45.161" lon="1.88246">
        <ele>354.86</ele>
        <time>2012-08-30T11:11:18Z</time>
      </trkpt>
      <trkpt lat="45.16097" lon="1.88249">
        <ele>358.23</ele>
        <time>2012-08-30T11:11:23Z</time>
      </trkpt>
      <trkpt lat="45.16095" lon="1.88251">
        <ele>349.1</ele>
        <time>2012-08-30T11:11:25Z</time>
      </trkpt>
      <trkpt lat="45.16094" lon="1.88251">
        <ele>356.79</ele>
        <time>2012-08-30T11:11:26Z</time>
      </trkpt>
      <trkpt lat="45.16093" lon="1.88253">
        <ele>356.31</ele>
        <time>2012-08-30T11:11:27Z</time>
      </trkpt>
      <trkpt lat="45.16092" lon="1.88255">
        <ele>356.31</ele>
        <time>2012-08-30T11:11:29Z</time>
      </trkpt>
      <trkpt lat="45.16091" lon="1.88257">
        <ele>356.31</ele>
        <time>2012-08-30T11:11:31Z</time>
      </trkpt>
      <trkpt lat="45.1609" lon="1.88258">
        <ele>351.98</ele>
        <time>2012-08-30T11:11:32Z</time>
      </trkpt>
      <trkpt lat="45.1609" lon="1.88259">
        <ele>356.79</ele>
        <time>2012-08-30T11:11:33Z</time>
      </trkpt>
      <trkpt lat="45.16087" lon="1.8826">
        <ele>352.94</ele>
        <time>2012-08-30T11:11:35Z</time>
      </trkpt>
      <trkpt lat="45.16086" lon="1.88261">
        <ele>356.79</ele>
        <time>2012-08-30T11:11:36Z</time>
      </trkpt>
      <trkpt lat="45.16085" lon="1.88261">
        <ele>352.46</ele>
        <time>2012-08-30T11:11:37Z</time>
      </trkpt>
      <trkpt lat="45.16084" lon="1.88261">
        <ele>356.31</ele>
        <time>2012-08-30T11:11:38Z</time>
      </trkpt>
      <trkpt lat="45.16083" lon="1.88263">
        <ele>361.11</ele>
        <time>2012-08-30T11:11:41Z</time>
      </trkpt>
      <trkpt lat="45.16082" lon="1.88264">
        <ele>356.31</ele>
        <time>2012-08-30T11:11:42Z</time>
      </trkpt>
      <trkpt lat="45.16082" lon="1.88265">
        <ele>360.15</ele>
        <time>2012-08-30T11:11:43Z</time>
      </trkpt>
      <trkpt lat="45.16082" lon="1.88266">
        <ele>356.79</ele>
        <time>2012-08-30T11:11:44Z</time>
      </trkpt>
      <trkpt lat="45.16079" lon="1.88268">
        <ele>351.02</ele>
        <time>2012-08-30T11:11:48Z</time>
      </trkpt>
      <trkpt lat="45.16079" lon="1.88268">
        <ele>357.27</ele>
        <time>2012-08-30T11:11:49Z</time>
      </trkpt>
      <trkpt lat="45.16079" lon="1.88268">
        <ele>358.71</ele>
        <time>2012-08-30T11:11:52Z</time>
      </trkpt>
      <trkpt lat="45.16079" lon="1.88268">
        <ele>353.9</ele>
        <time>2012-08-30T11:11:53Z</time>
      </trkpt>
      <trkpt lat="45.16079" lon="1.88268">
        <ele>355.83</ele>
        <time>2012-08-30T11:11:54Z</time>
      </trkpt>
      <trkpt lat="45.16079" lon="1.88268">
        <ele>359.67</ele>
        <time>2012-08-30T11:12:03Z</time>
      </trkpt>
      <trkpt lat="45.16079" lon="1.88268">
        <ele>355.34</ele>
        <time>2012-08-30T11:12:04Z</time>
      </trkpt>
      <trkpt lat="45.16073" lon="1.88275">
        <ele>356.31</ele>
        <time>2012-08-30T11:12:10Z</time>
      </trkpt>
      <trkpt lat="45.16069" lon="1.88279">
        <ele>356.31</ele>
        <time>2012-08-30T11:12:13Z</time>
      </trkpt>
      <trkpt lat="45.16061" lon="1.88283">
        <ele>356.79</ele>
        <time>2012-08-30T11:12:21Z</time>
      </trkpt>
      <trkpt lat="45.16061" lon="1.88284">
        <ele>356.31</ele>
        <time>2012-08-30T11:12:22Z</time>
      </trkpt>
      <trkpt lat="45.16055" lon="1.8829">
        <ele>352.94</ele>
        <time>2012-08-30T11:12:27Z</time>
      </trkpt>
      <trkpt lat="45.16054" lon="1.88291">
        <ele>360.15</ele>
        <time>2012-08-30T11:12:28Z</time>
      </trkpt>
      <trkpt lat="45.16053" lon="1.88292">
        <ele>358.23</ele>
        <time>2012-08-30T11:12:29Z</time>
      </trkpt>
      <trkpt lat="45.16048" lon="1.88299">
        <ele>358.71</ele>
        <time>2012-08-30T11:12:36Z</time>
      </trkpt>
      <trkpt lat="45.16044" lon="1.88308">
        <ele>360.63</ele>
        <time>2012-08-30T11:12:45Z</time>
      </trkpt>
      <trkpt lat="45.16039" lon="1.88314">
        <ele>362.55</ele>
        <time>2012-08-30T11:12:51Z</time>
      </trkpt>
      <trkpt lat="45.16037" lon="1.88318">
        <ele>363.52</ele>
        <time>2012-08-30T11:12:58Z</time>
      </trkpt>
      <trkpt lat="45.16036" lon="1.88325">
        <ele>364.96</ele>
        <time>2012-08-30T11:13:04Z</time>
      </trkpt>
      <trkpt lat="45.16036" lon="1.88327">
        <ele>365.92</ele>
        <time>2012-08-30T11:13:09Z</time>
      </trkpt>
      <trkpt lat="45.16035" lon="1.88328">
        <ele>366.88</ele>
        <time>2012-08-30T11:13:12Z</time>
      </trkpt>
      <trkpt lat="45.16029" lon="1.88335">
        <ele>367.36</ele>
        <time>2012-08-30T11:13:19Z</time>
      </trkpt>
      <trkpt lat="45.16024" lon="1.88343">
        <ele>368.32</ele>
        <time>2012-08-30T11:13:26Z</time>
      </trkpt>
      <trkpt lat="45.16016" lon="1.8835">
        <ele>368.8</ele>
        <time>2012-08-30T11:13:34Z</time>
      </trkpt>
      <trkpt lat="45.16" lon="1.88366">
        <ele>369.76</ele>
        <time>2012-08-30T11:13:42Z</time>
      </trkpt>
      <trkpt lat="45.15994" lon="1.88371">
        <ele>370.24</ele>
        <time>2012-08-30T11:13:48Z</time>
      </trkpt>
      <trkpt lat="45.15988" lon="1.88374">
        <ele>370.24</ele>
        <time>2012-08-30T11:13:53Z</time>
      </trkpt>
      <trkpt lat="45.15987" lon="1.88375">
        <ele>369.76</ele>
        <time>2012-08-30T11:13:54Z</time>
      </trkpt>
      <trkpt lat="45.1598" lon="1.88377">
        <ele>370.24</ele>
        <time>2012-08-30T11:13:59Z</time>
      </trkpt>
      <trkpt lat="45.1597" lon="1.88379">
        <ele>369.76</ele>
        <time>2012-08-30T11:14:06Z</time>
      </trkpt>
      <trkpt lat="45.15958" lon="1.88383">
        <ele>369.28</ele>
        <time>2012-08-30T11:14:13Z</time>
      </trkpt>
      <trkpt lat="45.15949" lon="1.88383">
        <ele>368.8</ele>
        <time>2012-08-30T11:14:21Z</time>
      </trkpt>
      <trkpt lat="45.15943" lon="1.88384">
        <ele>368.32</ele>
        <time>2012-08-30T11:14:28Z</time>
      </trkpt>
      <trkpt lat="45.15939" lon="1.88388">
        <ele>367.36</ele>
        <time>2012-08-30T11:14:33Z</time>
      </trkpt>
      <trkpt lat="45.15928" lon="1.88393">
        <ele>366.4</ele>
        <time>2012-08-30T11:14:40Z</time>
      </trkpt>
      <trkpt lat="45.15923" lon="1.88397">
        <ele>365.44</ele>
        <time>2012-08-30T11:14:46Z</time>
      </trkpt>
      <trkpt lat="45.15922" lon="1.88398">
        <ele>365.92</ele>
        <time>2012-08-30T11:14:48Z</time>
      </trkpt>
      <trkpt lat="45.15909" lon="1.88405">
        <ele>364.48</ele>
        <time>2012-08-30T11:14:55Z</time>
      </trkpt>
      <trkpt lat="45.15902" lon="1.88408">
        <ele>364</ele>
        <time>2012-08-30T11:15:00Z</time>
      </trkpt>
      <trkpt lat="45.15897" lon="1.88413">
        <ele>364.48</ele>
        <time>2012-08-30T11:15:06Z</time>
      </trkpt>
      <trkpt lat="45.15897" lon="1.88413">
        <ele>364</ele>
        <time>2012-08-30T11:15:07Z</time>
      </trkpt>
      <trkpt lat="45.15889" lon="1.88425">
        <ele>364.96</ele>
        <time>2012-08-30T11:15:15Z</time>
      </trkpt>
      <trkpt lat="45.15889" lon="1.88431">
        <ele>364.96</ele>
        <time>2012-08-30T11:15:19Z</time>
      </trkpt>
      <trkpt lat="45.15892" lon="1.88443">
        <ele>365.44</ele>
        <time>2012-08-30T11:15:25Z</time>
      </trkpt>
      <trkpt lat="45.15896" lon="1.88459">
        <ele>366.4</ele>
        <time>2012-08-30T11:15:33Z</time>
      </trkpt>
      <trkpt lat="45.15898" lon="1.88467">
        <ele>366.4</ele>
        <time>2012-08-30T11:15:37Z</time>
      </trkpt>
      <trkpt lat="45.159" lon="1.88476">
        <ele>367.84</ele>
        <time>2012-08-30T11:15:43Z</time>
      </trkpt>
      <trkpt lat="45.15899" lon="1.88479">
        <ele>367.84</ele>
        <time>2012-08-30T11:15:45Z</time>
      </trkpt>
      <trkpt lat="45.15898" lon="1.88483">
        <ele>368.32</ele>
        <time>2012-08-30T11:15:47Z</time>
      </trkpt>
      <trkpt lat="45.159" lon="1.88496">
        <ele>368.32</ele>
        <time>2012-08-30T11:15:52Z</time>
      </trkpt>
      <trkpt lat="45.159" lon="1.88502">
        <ele>368.8</ele>
        <time>2012-08-30T11:15:55Z</time>
      </trkpt>
      <trkpt lat="45.159" lon="1.88512">
        <ele>368.8</ele>
        <time>2012-08-30T11:16:01Z</time>
      </trkpt>
      <trkpt lat="45.159" lon="1.88519">
        <ele>369.28</ele>
        <time>2012-08-30T11:16:08Z</time>
      </trkpt>
      <trkpt lat="45.15897" lon="1.88528">
        <ele>368.8</ele>
        <time>2012-08-30T11:16:13Z</time>
      </trkpt>
      <trkpt lat="45.15894" lon="1.88541">
        <ele>368.32</ele>
        <time>2012-08-30T11:16:20Z</time>
      </trkpt>
      <trkpt lat="45.15893" lon="1.88561">
        <ele>366.4</ele>
        <time>2012-08-30T11:16:30Z</time>
      </trkpt>
      <trkpt lat="45.15897" lon="1.88569">
        <ele>364.96</ele>
        <time>2012-08-30T11:16:37Z</time>
      </trkpt>
      <trkpt lat="45.15899" lon="1.88577">
        <ele>364</ele>
        <time>2012-08-30T11:16:41Z</time>
      </trkpt>
      <trkpt lat="45.15903" lon="1.88588">
        <ele>364.48</ele>
        <time>2012-08-30T11:16:48Z</time>
      </trkpt>
      <trkpt lat="45.15903" lon="1.88595">
        <ele>365.44</ele>
        <time>2012-08-30T11:16:52Z</time>
      </trkpt>
      <trkpt lat="45.15903" lon="1.88602">
        <ele>365.92</ele>
        <time>2012-08-30T11:16:56Z</time>
      </trkpt>
      <trkpt lat="45.15904" lon="1.88619">
        <ele>366.4</ele>
        <time>2012-08-30T11:17:04Z</time>
      </trkpt>
      <trkpt lat="45.15908" lon="1.88627">
        <ele>366.4</ele>
        <time>2012-08-30T11:17:09Z</time>
      </trkpt>
      <trkpt lat="45.15909" lon="1.88633">
        <ele>366.4</ele>
        <time>2012-08-30T11:17:12Z</time>
      </trkpt>
      <trkpt lat="45.15905" lon="1.88644">
        <ele>366.4</ele>
        <time>2012-08-30T11:17:19Z</time>
      </trkpt>
      <trkpt lat="45.15902" lon="1.88647">
        <ele>365.92</ele>
        <time>2012-08-30T11:17:22Z</time>
      </trkpt>
      <trkpt lat="45.15892" lon="1.88654">
        <ele>365.44</ele>
        <time>2012-08-30T11:17:29Z</time>
      </trkpt>
      <trkpt lat="45.15889" lon="1.88655">
        <ele>364.48</ele>
        <time>2012-08-30T11:17:36Z</time>
      </trkpt>
      <trkpt lat="45.15885" lon="1.88658">
        <ele>363.52</ele>
        <time>2012-08-30T11:17:43Z</time>
      </trkpt>
      <trkpt lat="45.15877" lon="1.88663">
        <ele>362.55</ele>
        <time>2012-08-30T11:17:49Z</time>
      </trkpt>
      <trkpt lat="45.15871" lon="1.88668">
        <ele>362.55</ele>
        <time>2012-08-30T11:17:52Z</time>
      </trkpt>
      <trkpt lat="45.15866" lon="1.88671">
        <ele>361.59</ele>
        <time>2012-08-30T11:17:58Z</time>
      </trkpt>
      <trkpt lat="45.15857" lon="1.88678">
        <ele>361.11</ele>
        <time>2012-08-30T11:18:04Z</time>
      </trkpt>
      <trkpt lat="45.15856" lon="1.88678">
        <ele>360.63</ele>
        <time>2012-08-30T11:18:12Z</time>
      </trkpt>
      <trkpt lat="45.15853" lon="1.8868">
        <ele>360.63</ele>
        <time>2012-08-30T11:18:23Z</time>
      </trkpt>
      <trkpt lat="45.15853" lon="1.88681">
        <ele>360.63</ele>
        <time>2012-08-30T11:18:24Z</time>
      </trkpt>
      <trkpt lat="45.1585" lon="1.88692">
        <ele>360.15</ele>
        <time>2012-08-30T11:18:28Z</time>
      </trkpt>
      <trkpt lat="45.15845" lon="1.8873">
        <ele>357.75</ele>
        <time>2012-08-30T11:18:35Z</time>
      </trkpt>
      <trkpt lat="45.15846" lon="1.88742">
        <ele>357.75</ele>
        <time>2012-08-30T11:18:37Z</time>
      </trkpt>
      <trkpt lat="45.15855" lon="1.88773">
        <ele>358.71</ele>
        <time>2012-08-30T11:18:41Z</time>
      </trkpt>
      <trkpt lat="45.15862" lon="1.88789">
        <ele>354.38</ele>
        <time>2012-08-30T11:18:43Z</time>
      </trkpt>
      <trkpt lat="45.15879" lon="1.88826">
        <ele>351.5</ele>
        <time>2012-08-30T11:18:49Z</time>
      </trkpt>
      <trkpt lat="45.15882" lon="1.88841">
        <ele>351.02</ele>
        <time>2012-08-30T11:18:55Z</time>
      </trkpt>
      <trkpt lat="45.15879" lon="1.88846">
        <ele>349.58</ele>
        <time>2012-08-30T11:19:00Z</time>
      </trkpt>
      <trkpt lat="45.15878" lon="1.88847">
        <ele>349.1</ele>
        <time>2012-08-30T11:19:01Z</time>
      </trkpt>
      <trkpt lat="45.15868" lon="1.88857">
        <ele>346.69</ele>
        <time>2012-08-30T11:19:10Z</time>
      </trkpt>
      <trkpt lat="45.15858" lon="1.8887">
        <ele>344.77</ele>
        <time>2012-08-30T11:19:19Z</time>
      </trkpt>
      <trkpt lat="45.15846" lon="1.88879">
        <ele>341.89</ele>
        <time>2012-08-30T11:19:28Z</time>
      </trkpt>
      <trkpt lat="45.15842" lon="1.88881">
        <ele>341.41</ele>
        <time>2012-08-30T11:19:30Z</time>
      </trkpt>
      <trkpt lat="45.15822" lon="1.8889">
        <ele>339</ele>
        <time>2012-08-30T11:19:39Z</time>
      </trkpt>
      <trkpt lat="45.15799" lon="1.88905">
        <ele>335.64</ele>
        <time>2012-08-30T11:19:48Z</time>
      </trkpt>
      <trkpt lat="45.15772" lon="1.88915">
        <ele>332.75</ele>
        <time>2012-08-30T11:19:57Z</time>
      </trkpt>
      <trkpt lat="45.15759" lon="1.88902">
        <ele>331.79</ele>
        <time>2012-08-30T11:20:03Z</time>
      </trkpt>
      <trkpt lat="45.15754" lon="1.88877">
        <ele>330.35</ele>
        <time>2012-08-30T11:20:12Z</time>
      </trkpt>
      <trkpt lat="45.15746" lon="1.88868">
        <ele>328.91</ele>
        <time>2012-08-30T11:20:21Z</time>
      </trkpt>
      <trkpt lat="45.15741" lon="1.88871">
        <ele>329.87</ele>
        <time>2012-08-30T11:20:32Z</time>
      </trkpt>
      <trkpt lat="45.15741" lon="1.88866">
        <ele>329.39</ele>
        <time>2012-08-30T11:20:39Z</time>
      </trkpt>
      <trkpt lat="45.15733" lon="1.88862">
        <ele>326.99</ele>
        <time>2012-08-30T11:20:46Z</time>
      </trkpt>
      <trkpt lat="45.15731" lon="1.88863">
        <ele>326.99</ele>
        <time>2012-08-30T11:20:47Z</time>
      </trkpt>
      <trkpt lat="45.1573" lon="1.88864">
        <ele>326.5</ele>
        <time>2012-08-30T11:20:48Z</time>
      </trkpt>
      <trkpt lat="45.15729" lon="1.88866">
        <ele>326.02</ele>
        <time>2012-08-30T11:20:49Z</time>
      </trkpt>
      <trkpt lat="45.15727" lon="1.88868">
        <ele>326.5</ele>
        <time>2012-08-30T11:20:50Z</time>
      </trkpt>
      <trkpt lat="45.1572" lon="1.88878">
        <ele>323.14</ele>
        <time>2012-08-30T11:20:53Z</time>
      </trkpt>
      <trkpt lat="45.15715" lon="1.88885">
        <ele>329.39</ele>
        <time>2012-08-30T11:20:55Z</time>
      </trkpt>
      <trkpt lat="45.15712" lon="1.88888">
        <ele>325.54</ele>
        <time>2012-08-30T11:20:56Z</time>
      </trkpt>
      <trkpt lat="45.15702" lon="1.88912">
        <ele>323.14</ele>
        <time>2012-08-30T11:21:02Z</time>
      </trkpt>
      <trkpt lat="45.15689" lon="1.88929">
        <ele>319.78</ele>
        <time>2012-08-30T11:21:09Z</time>
      </trkpt>
      <trkpt lat="45.15674" lon="1.88954">
        <ele>317.85</ele>
        <time>2012-08-30T11:21:17Z</time>
      </trkpt>
      <trkpt lat="45.15654" lon="1.88979">
        <ele>315.45</ele>
        <time>2012-08-30T11:21:25Z</time>
      </trkpt>
      <trkpt lat="45.1564" lon="1.88996">
        <ele>312.09</ele>
        <time>2012-08-30T11:21:30Z</time>
      </trkpt>
      <trkpt lat="45.15632" lon="1.89005">
        <ele>311.12</ele>
        <time>2012-08-30T11:21:33Z</time>
      </trkpt>
      <trkpt lat="45.15619" lon="1.89017">
        <ele>308.72</ele>
        <time>2012-08-30T11:21:38Z</time>
      </trkpt>
      <trkpt lat="45.15595" lon="1.89041">
        <ele>305.84</ele>
        <time>2012-08-30T11:21:46Z</time>
      </trkpt>
      <trkpt lat="45.1558" lon="1.89054">
        <ele>302.47</ele>
        <time>2012-08-30T11:21:53Z</time>
      </trkpt>
      <trkpt lat="45.15568" lon="1.89062">
        <ele>300.07</ele>
        <time>2012-08-30T11:21:59Z</time>
      </trkpt>
      <trkpt lat="45.15545" lon="1.89073">
        <ele>298.15</ele>
        <time>2012-08-30T11:22:05Z</time>
      </trkpt>
      <trkpt lat="45.15515" lon="1.89089">
        <ele>294.78</ele>
        <time>2012-08-30T11:22:12Z</time>
      </trkpt>
      <trkpt lat="45.155" lon="1.89099">
        <ele>292.86</ele>
        <time>2012-08-30T11:22:16Z</time>
      </trkpt>
      <trkpt lat="45.15492" lon="1.89104">
        <ele>291.42</ele>
        <time>2012-08-30T11:22:19Z</time>
      </trkpt>
      <trkpt lat="45.15464" lon="1.89105">
        <ele>289.97</ele>
        <time>2012-08-30T11:22:28Z</time>
      </trkpt>
      <trkpt lat="45.15431" lon="1.89096">
        <ele>287.57</ele>
        <time>2012-08-30T11:22:37Z</time>
      </trkpt>
      <trkpt lat="45.15397" lon="1.89094">
        <ele>287.09</ele>
        <time>2012-08-30T11:22:46Z</time>
      </trkpt>
      <trkpt lat="45.1536" lon="1.89101">
        <ele>286.61</ele>
        <time>2012-08-30T11:22:56Z</time>
      </trkpt>
      <trkpt lat="45.15332" lon="1.891">
        <ele>285.17</ele>
        <time>2012-08-30T11:23:05Z</time>
      </trkpt>
      <trkpt lat="45.15301" lon="1.89094">
        <ele>284.21</ele>
        <time>2012-08-30T11:23:14Z</time>
      </trkpt>
      <trkpt lat="45.15274" lon="1.891">
        <ele>284.21</ele>
        <time>2012-08-30T11:23:22Z</time>
      </trkpt>
      <trkpt lat="45.15259" lon="1.89108">
        <ele>284.21</ele>
        <time>2012-08-30T11:23:30Z</time>
      </trkpt>
      <trkpt lat="45.15231" lon="1.8912">
        <ele>283.73</ele>
        <time>2012-08-30T11:23:40Z</time>
      </trkpt>
      <trkpt lat="45.15204" lon="1.89131">
        <ele>280.36</ele>
        <time>2012-08-30T11:23:49Z</time>
      </trkpt>
      <trkpt lat="45.15166" lon="1.89155">
        <ele>277.48</ele>
        <time>2012-08-30T11:24:00Z</time>
      </trkpt>
      <trkpt lat="45.15144" lon="1.89167">
        <ele>276.52</ele>
        <time>2012-08-30T11:24:06Z</time>
      </trkpt>
      <trkpt lat="45.15116" lon="1.89175">
        <ele>274.11</ele>
        <time>2012-08-30T11:24:15Z</time>
      </trkpt>
      <trkpt lat="45.1508" lon="1.89183">
        <ele>272.67</ele>
        <time>2012-08-30T11:24:25Z</time>
      </trkpt>
      <trkpt lat="45.15044" lon="1.89182">
        <ele>271.71</ele>
        <time>2012-08-30T11:24:33Z</time>
      </trkpt>
      <trkpt lat="45.15002" lon="1.89192">
        <ele>270.27</ele>
        <time>2012-08-30T11:24:39Z</time>
      </trkpt>
      <trkpt lat="45.14956" lon="1.89203">
        <ele>266.9</ele>
        <time>2012-08-30T11:24:45Z</time>
      </trkpt>
      <trkpt lat="45.14935" lon="1.89207">
        <ele>265.46</ele>
        <time>2012-08-30T11:24:48Z</time>
      </trkpt>
      <trkpt lat="45.14929" lon="1.89209">
        <ele>264.98</ele>
        <time>2012-08-30T11:24:49Z</time>
      </trkpt>
      <trkpt lat="45.14923" lon="1.89213">
        <ele>264.98</ele>
        <time>2012-08-30T11:24:50Z</time>
      </trkpt>
      <trkpt lat="45.14886" lon="1.89233">
        <ele>264.02</ele>
        <time>2012-08-30T11:24:55Z</time>
      </trkpt>
      <trkpt lat="45.14835" lon="1.89256">
        <ele>264.5</ele>
        <time>2012-08-30T11:25:01Z</time>
      </trkpt>
      <trkpt lat="45.14827" lon="1.89257">
        <ele>264.98</ele>
        <time>2012-08-30T11:25:02Z</time>
      </trkpt>
      <trkpt lat="45.14764" lon="1.89262">
        <ele>262.1</ele>
        <time>2012-08-30T11:25:09Z</time>
      </trkpt>
      <trkpt lat="45.14711" lon="1.89271">
        <ele>258.73</ele>
        <time>2012-08-30T11:25:15Z</time>
      </trkpt>
      <trkpt lat="45.14704" lon="1.89271">
        <ele>258.25</ele>
        <time>2012-08-30T11:25:16Z</time>
      </trkpt>
      <trkpt lat="45.14684" lon="1.89277">
        <ele>257.77</ele>
        <time>2012-08-30T11:25:19Z</time>
      </trkpt>
      <trkpt lat="45.14657" lon="1.89296">
        <ele>257.77</ele>
        <time>2012-08-30T11:25:25Z</time>
      </trkpt>
      <trkpt lat="45.14657" lon="1.89303">
        <ele>256.33</ele>
        <time>2012-08-30T11:25:30Z</time>
      </trkpt>
      <trkpt lat="45.14655" lon="1.89291">
        <ele>255.37</ele>
        <time>2012-08-30T11:25:33Z</time>
      </trkpt>
      <trkpt lat="45.14655" lon="1.89285">
        <ele>254.89</ele>
        <time>2012-08-30T11:25:34Z</time>
      </trkpt>
      <trkpt lat="45.14655" lon="1.89278">
        <ele>254.41</ele>
        <time>2012-08-30T11:25:35Z</time>
      </trkpt>
      <trkpt lat="45.14656" lon="1.89258">
        <ele>252.96</ele>
        <time>2012-08-30T11:25:38Z</time>
      </trkpt>
      <trkpt lat="45.14655" lon="1.89253">
        <ele>252.48</ele>
        <time>2012-08-30T11:25:39Z</time>
      </trkpt>
      <trkpt lat="45.14652" lon="1.8925">
        <ele>252</ele>
        <time>2012-08-30T11:25:40Z</time>
      </trkpt>
      <trkpt lat="45.14645" lon="1.8924">
        <ele>250.08</ele>
        <time>2012-08-30T11:25:43Z</time>
      </trkpt>
      <trkpt lat="45.14642" lon="1.89235">
        <ele>250.56</ele>
        <time>2012-08-30T11:25:44Z</time>
      </trkpt>
      <trkpt lat="45.14639" lon="1.89228">
        <ele>249.6</ele>
        <time>2012-08-30T11:25:45Z</time>
      </trkpt>
      <trkpt lat="45.14628" lon="1.89194">
        <ele>249.12</ele>
        <time>2012-08-30T11:25:51Z</time>
      </trkpt>
      <trkpt lat="45.14623" lon="1.89164">
        <ele>251.52</ele>
        <time>2012-08-30T11:25:57Z</time>
      </trkpt>
      <trkpt lat="45.14622" lon="1.89157">
        <ele>252</ele>
        <time>2012-08-30T11:25:58Z</time>
      </trkpt>
      <trkpt lat="45.1462" lon="1.89151">
        <ele>253.44</ele>
        <time>2012-08-30T11:25:59Z</time>
      </trkpt>
      <trkpt lat="45.14618" lon="1.89146">
        <ele>255.85</ele>
        <time>2012-08-30T11:26:00Z</time>
      </trkpt>
      <trkpt lat="45.14616" lon="1.89141">
        <ele>249.12</ele>
        <time>2012-08-30T11:26:01Z</time>
      </trkpt>
      <trkpt lat="45.14613" lon="1.89137">
        <ele>257.77</ele>
        <time>2012-08-30T11:26:02Z</time>
      </trkpt>
      <trkpt lat="45.14597" lon="1.89117">
        <ele>256.33</ele>
        <time>2012-08-30T11:26:07Z</time>
      </trkpt>
      <trkpt lat="45.14594" lon="1.89114">
        <ele>255.85</ele>
        <time>2012-08-30T11:26:08Z</time>
      </trkpt>
      <trkpt lat="45.1459" lon="1.89113">
        <ele>256.33</ele>
        <time>2012-08-30T11:26:09Z</time>
      </trkpt>
      <trkpt lat="45.14586" lon="1.89112">
        <ele>256.33</ele>
        <time>2012-08-30T11:26:10Z</time>
      </trkpt>
      <trkpt lat="45.14582" lon="1.89112">
        <ele>256.81</ele>
        <time>2012-08-30T11:26:11Z</time>
      </trkpt>
      <trkpt lat="45.14579" lon="1.89113">
        <ele>257.29</ele>
        <time>2012-08-30T11:26:12Z</time>
      </trkpt>
      <trkpt lat="45.14576" lon="1.89114">
        <ele>257.77</ele>
        <time>2012-08-30T11:26:13Z</time>
      </trkpt>
      <trkpt lat="45.14573" lon="1.89116">
        <ele>258.73</ele>
        <time>2012-08-30T11:26:14Z</time>
      </trkpt>
      <trkpt lat="45.14571" lon="1.89119">
        <ele>258.73</ele>
        <time>2012-08-30T11:26:15Z</time>
      </trkpt>
      <trkpt lat="45.14571" lon="1.89121">
        <ele>259.69</ele>
        <time>2012-08-30T11:26:16Z</time>
      </trkpt>
      <trkpt lat="45.14571" lon="1.89124">
        <ele>260.17</ele>
        <time>2012-08-30T11:26:17Z</time>
      </trkpt>
      <trkpt lat="45.14563" lon="1.89146">
        <ele>263.54</ele>
        <time>2012-08-30T11:26:24Z</time>
      </trkpt>
      <trkpt lat="45.14546" lon="1.8916">
        <ele>266.9</ele>
        <time>2012-08-30T11:26:30Z</time>
      </trkpt>
      <trkpt lat="45.14538" lon="1.89165">
        <ele>267.86</ele>
        <time>2012-08-30T11:26:33Z</time>
      </trkpt>
      <trkpt lat="45.14531" lon="1.89166">
        <ele>268.83</ele>
        <time>2012-08-30T11:26:36Z</time>
      </trkpt>
      <trkpt lat="45.14526" lon="1.89167">
        <ele>268.83</ele>
        <time>2012-08-30T11:26:44Z</time>
      </trkpt>
      <trkpt lat="45.14526" lon="1.89166">
        <ele>268.83</ele>
        <time>2012-08-30T11:26:46Z</time>
      </trkpt>
      <trkpt lat="45.14531" lon="1.89158">
        <ele>271.23</ele>
        <time>2012-08-30T11:26:51Z</time>
      </trkpt>
      <trkpt lat="45.14536" lon="1.89133">
        <ele>273.15</ele>
        <time>2012-08-30T11:26:58Z</time>
      </trkpt>
      <trkpt lat="45.14532" lon="1.89122">
        <ele>274.59</ele>
        <time>2012-08-30T11:27:02Z</time>
      </trkpt>
      <trkpt lat="45.14523" lon="1.89108">
        <ele>277.48</ele>
        <time>2012-08-30T11:27:10Z</time>
      </trkpt>
      <trkpt lat="45.14515" lon="1.89102">
        <ele>278.44</ele>
        <time>2012-08-30T11:27:14Z</time>
      </trkpt>
      <trkpt lat="45.1451" lon="1.89093">
        <ele>274.11</ele>
        <time>2012-08-30T11:27:16Z</time>
      </trkpt>
      <trkpt lat="45.14508" lon="1.89087">
        <ele>280.36</ele>
        <time>2012-08-30T11:27:17Z</time>
      </trkpt>
      <trkpt lat="45.14504" lon="1.89076">
        <ele>279.4</ele>
        <time>2012-08-30T11:27:19Z</time>
      </trkpt>
      <trkpt lat="45.14503" lon="1.89069">
        <ele>278.92</ele>
        <time>2012-08-30T11:27:20Z</time>
      </trkpt>
      <trkpt lat="45.14501" lon="1.89062">
        <ele>279.4</ele>
        <time>2012-08-30T11:27:21Z</time>
      </trkpt>
      <trkpt lat="45.145" lon="1.89054">
        <ele>281.8</ele>
        <time>2012-08-30T11:27:22Z</time>
      </trkpt>
      <trkpt lat="45.145" lon="1.89045">
        <ele>279.88</ele>
        <time>2012-08-30T11:27:23Z</time>
      </trkpt>
      <trkpt lat="45.14501" lon="1.89036">
        <ele>275.56</ele>
        <time>2012-08-30T11:27:24Z</time>
      </trkpt>
      <trkpt lat="45.14494" lon="1.89024">
        <ele>281.8</ele>
        <time>2012-08-30T11:27:25Z</time>
      </trkpt>
      <trkpt lat="45.14494" lon="1.89016">
        <ele>281.8</ele>
        <time>2012-08-30T11:27:26Z</time>
      </trkpt>
      <trkpt lat="45.14498" lon="1.88984">
        <ele>276.04</ele>
        <time>2012-08-30T11:27:32Z</time>
      </trkpt>
      <trkpt lat="45.14499" lon="1.8898">
        <ele>284.21</ele>
        <time>2012-08-30T11:27:33Z</time>
      </trkpt>
      <trkpt lat="45.14505" lon="1.88968">
        <ele>283.25</ele>
        <time>2012-08-30T11:27:39Z</time>
      </trkpt>
      <trkpt lat="45.14505" lon="1.88968">
        <ele>283.25</ele>
        <time>2012-08-30T11:27:48Z</time>
      </trkpt>
      <trkpt lat="45.14505" lon="1.88968">
        <ele>283.25</ele>
        <time>2012-08-30T11:28:02Z</time>
      </trkpt>
      <trkpt lat="45.14512" lon="1.88979">
        <ele>282.77</ele>
        <time>2012-08-30T11:28:10Z</time>
      </trkpt>
      <trkpt lat="45.14516" lon="1.88976">
        <ele>282.77</ele>
        <time>2012-08-30T11:28:19Z</time>
      </trkpt>
      <trkpt lat="45.14516" lon="1.88977">
        <ele>283.25</ele>
        <time>2012-08-30T11:28:26Z</time>
      </trkpt>
      <trkpt lat="45.14516" lon="1.88975">
        <ele>284.21</ele>
        <time>2012-08-30T11:28:32Z</time>
      </trkpt>
      <trkpt lat="45.14521" lon="1.88968">
        <ele>282.77</ele>
        <time>2012-08-30T11:28:37Z</time>
      </trkpt>
      <trkpt lat="45.14523" lon="1.88967">
        <ele>282.77</ele>
        <time>2012-08-30T11:28:42Z</time>
      </trkpt>
      <trkpt lat="45.14524" lon="1.88968">
        <ele>282.77</ele>
        <time>2012-08-30T11:28:47Z</time>
      </trkpt>
      <trkpt lat="45.14528" lon="1.88965">
        <ele>283.25</ele>
        <time>2012-08-30T11:28:53Z</time>
      </trkpt>
      <trkpt lat="45.14527" lon="1.88963">
        <ele>283.73</ele>
        <time>2012-08-30T11:29:00Z</time>
      </trkpt>
      <trkpt lat="45.14526" lon="1.88963">
        <ele>284.21</ele>
        <time>2012-08-30T11:29:06Z</time>
      </trkpt>
      <trkpt lat="45.14525" lon="1.88965">
        <ele>283.73</ele>
        <time>2012-08-30T11:29:11Z</time>
      </trkpt>
      <trkpt lat="45.14521" lon="1.88966">
        <ele>283.25</ele>
        <time>2012-08-30T11:29:15Z</time>
      </trkpt>
      <trkpt lat="45.14518" lon="1.88968">
        <ele>282.77</ele>
        <time>2012-08-30T11:29:22Z</time>
      </trkpt>
      <trkpt lat="45.14518" lon="1.88968">
        <ele>283.25</ele>
        <time>2012-08-30T11:29:30Z</time>
      </trkpt>
      <trkpt lat="45.14518" lon="1.88968">
        <ele>283.25</ele>
        <time>2012-08-30T11:29:38Z</time>
      </trkpt>
      <trkpt lat="45.14515" lon="1.8897">
        <ele>282.77</ele>
        <time>2012-08-30T11:29:41Z</time>
      </trkpt>
      <trkpt lat="45.14514" lon="1.88971">
        <ele>284.21</ele>
        <time>2012-08-30T11:29:48Z</time>
      </trkpt>
      <trkpt lat="45.14513" lon="1.88972">
        <ele>284.21</ele>
        <time>2012-08-30T11:30:01Z</time>
      </trkpt>
      <trkpt lat="45.1451" lon="1.88979">
        <ele>286.13</ele>
        <time>2012-08-30T11:30:06Z</time>
      </trkpt>
      <trkpt lat="45.14495" lon="1.88992">
        <ele>289.49</ele>
        <time>2012-08-30T11:30:16Z</time>
      </trkpt>
      <trkpt lat="45.14493" lon="1.88993">
        <ele>289.49</ele>
        <time>2012-08-30T11:30:17Z</time>
      </trkpt>
      <trkpt lat="45.14492" lon="1.88992">
        <ele>289.97</ele>
        <time>2012-08-30T11:30:18Z</time>
      </trkpt>
      <trkpt lat="45.14481" lon="1.88991">
        <ele>292.38</ele>
        <time>2012-08-30T11:30:24Z</time>
      </trkpt>
      <trkpt lat="45.14468" lon="1.89004">
        <ele>295.74</ele>
        <time>2012-08-30T11:30:31Z</time>
      </trkpt>
      <trkpt lat="45.14464" lon="1.89008">
        <ele>296.7</ele>
        <time>2012-08-30T11:30:33Z</time>
      </trkpt>
      <trkpt lat="45.14446" lon="1.89022">
        <ele>300.55</ele>
        <time>2012-08-30T11:30:40Z</time>
      </trkpt>
      <trkpt lat="45.14442" lon="1.89024">
        <ele>300.55</ele>
        <time>2012-08-30T11:30:41Z</time>
      </trkpt>
      <trkpt lat="45.14436" lon="1.89027">
        <ele>301.99</ele>
        <time>2012-08-30T11:30:43Z</time>
      </trkpt>
      <trkpt lat="45.14427" lon="1.89031">
        <ele>303.43</ele>
        <time>2012-08-30T11:30:46Z</time>
      </trkpt>
      <trkpt lat="45.14417" lon="1.89033">
        <ele>306.8</ele>
        <time>2012-08-30T11:30:50Z</time>
      </trkpt>
      <trkpt lat="45.14402" lon="1.89033">
        <ele>309.68</ele>
        <time>2012-08-30T11:30:57Z</time>
      </trkpt>
      <trkpt lat="45.14395" lon="1.89032">
        <ele>311.12</ele>
        <time>2012-08-30T11:31:00Z</time>
      </trkpt>
      <trkpt lat="45.14373" lon="1.89026">
        <ele>312.09</ele>
        <time>2012-08-30T11:31:13Z</time>
      </trkpt>
      <trkpt lat="45.14343" lon="1.89027">
        <ele>310.64</ele>
        <time>2012-08-30T11:31:22Z</time>
      </trkpt>
      <trkpt lat="45.14315" lon="1.89031">
        <ele>308.24</ele>
        <time>2012-08-30T11:31:35Z</time>
      </trkpt>
      <trkpt lat="45.14307" lon="1.89004">
        <ele>307.28</ele>
        <time>2012-08-30T11:31:51Z</time>
      </trkpt>
      <trkpt lat="45.14306" lon="1.89004">
        <ele>308.24</ele>
        <time>2012-08-30T11:31:56Z</time>
      </trkpt>
      <trkpt lat="45.14304" lon="1.89003">
        <ele>315.93</ele>
        <time>2012-08-30T11:32:04Z</time>
      </trkpt>
      <trkpt lat="45.1424" lon="1.89006">
        <ele>309.68</ele>
        <time>2012-08-30T11:32:05Z</time>
      </trkpt>
      <trkpt lat="45.14218" lon="1.89018">
        <ele>310.16</ele>
        <time>2012-08-30T11:32:12Z</time>
      </trkpt>
      <trkpt lat="45.14197" lon="1.89024">
        <ele>311.12</ele>
        <time>2012-08-30T11:32:20Z</time>
      </trkpt>
      <trkpt lat="45.14177" lon="1.89031">
        <ele>312.09</ele>
        <time>2012-08-30T11:32:28Z</time>
      </trkpt>
      <trkpt lat="45.14158" lon="1.89041">
        <ele>314.49</ele>
        <time>2012-08-30T11:32:36Z</time>
      </trkpt>
      <trkpt lat="45.14137" lon="1.89045">
        <ele>315.45</ele>
        <time>2012-08-30T11:32:43Z</time>
      </trkpt>
      <trkpt lat="45.1411" lon="1.89056">
        <ele>316.41</ele>
        <time>2012-08-30T11:32:51Z</time>
      </trkpt>
      <trkpt lat="45.14086" lon="1.89062">
        <ele>315.45</ele>
        <time>2012-08-30T11:32:59Z</time>
      </trkpt>
      <trkpt lat="45.14061" lon="1.8907">
        <ele>315.45</ele>
        <time>2012-08-30T11:33:07Z</time>
      </trkpt>
      <trkpt lat="45.14033" lon="1.89079">
        <ele>314.49</ele>
        <time>2012-08-30T11:33:15Z</time>
      </trkpt>
      <trkpt lat="45.14002" lon="1.89083">
        <ele>313.05</ele>
        <time>2012-08-30T11:33:24Z</time>
      </trkpt>
      <trkpt lat="45.1398" lon="1.89089">
        <ele>313.05</ele>
        <time>2012-08-30T11:33:31Z</time>
      </trkpt>
      <trkpt lat="45.13947" lon="1.89093">
        <ele>312.09</ele>
        <time>2012-08-30T11:33:40Z</time>
      </trkpt>
      <trkpt lat="45.13916" lon="1.89094">
        <ele>312.09</ele>
        <time>2012-08-30T11:33:48Z</time>
      </trkpt>
      <trkpt lat="45.13887" lon="1.89099">
        <ele>311.6</ele>
        <time>2012-08-30T11:33:56Z</time>
      </trkpt>
      <trkpt lat="45.13862" lon="1.89103">
        <ele>310.16</ele>
        <time>2012-08-30T11:34:03Z</time>
      </trkpt>
      <trkpt lat="45.1383" lon="1.89107">
        <ele>309.68</ele>
        <time>2012-08-30T11:34:11Z</time>
      </trkpt>
      <trkpt lat="45.13805" lon="1.89112">
        <ele>308.24</ele>
        <time>2012-08-30T11:34:19Z</time>
      </trkpt>
      <trkpt lat="45.13783" lon="1.89111">
        <ele>306.32</ele>
        <time>2012-08-30T11:34:27Z</time>
      </trkpt>
      <trkpt lat="45.13761" lon="1.89113">
        <ele>304.88</ele>
        <time>2012-08-30T11:34:33Z</time>
      </trkpt>
      <trkpt lat="45.13732" lon="1.89113">
        <ele>303.91</ele>
        <time>2012-08-30T11:34:41Z</time>
      </trkpt>
      <trkpt lat="45.1371" lon="1.8912">
        <ele>301.51</ele>
        <time>2012-08-30T11:34:49Z</time>
      </trkpt>
      <trkpt lat="45.13682" lon="1.89123">
        <ele>299.11</ele>
        <time>2012-08-30T11:34:58Z</time>
      </trkpt>
      <trkpt lat="45.13667" lon="1.89126">
        <ele>295.74</ele>
        <time>2012-08-30T11:35:03Z</time>
      </trkpt>
      <trkpt lat="45.13663" lon="1.89126">
        <ele>299.59</ele>
        <time>2012-08-30T11:35:04Z</time>
      </trkpt>
      <trkpt lat="45.13647" lon="1.89128">
        <ele>296.7</ele>
        <time>2012-08-30T11:35:10Z</time>
      </trkpt>
      <trkpt lat="45.1363" lon="1.89129">
        <ele>296.22</ele>
        <time>2012-08-30T11:35:17Z</time>
      </trkpt>
      <trkpt lat="45.1361" lon="1.89133">
        <ele>296.7</ele>
        <time>2012-08-30T11:35:24Z</time>
      </trkpt>
      <trkpt lat="45.13589" lon="1.89136">
        <ele>294.78</ele>
        <time>2012-08-30T11:35:31Z</time>
      </trkpt>
      <trkpt lat="45.13567" lon="1.8914">
        <ele>292.38</ele>
        <time>2012-08-30T11:35:38Z</time>
      </trkpt>
      <trkpt lat="45.13549" lon="1.89142">
        <ele>289.49</ele>
        <time>2012-08-30T11:35:46Z</time>
      </trkpt>
      <trkpt lat="45.13546" lon="1.89143">
        <ele>289.01</ele>
        <time>2012-08-30T11:35:48Z</time>
      </trkpt>
      <trkpt lat="45.13544" lon="1.89143">
        <ele>289.01</ele>
        <time>2012-08-30T11:35:49Z</time>
      </trkpt>
      <trkpt lat="45.1354" lon="1.89146">
        <ele>281.8</ele>
        <time>2012-08-30T11:35:52Z</time>
      </trkpt>
      <trkpt lat="45.13538" lon="1.89148">
        <ele>290.94</ele>
        <time>2012-08-30T11:35:53Z</time>
      </trkpt>
      <trkpt lat="45.13531" lon="1.8915">
        <ele>287.57</ele>
        <time>2012-08-30T11:35:56Z</time>
      </trkpt>
      <trkpt lat="45.13511" lon="1.8916">
        <ele>288.53</ele>
        <time>2012-08-30T11:36:06Z</time>
      </trkpt>
      <trkpt lat="45.13487" lon="1.89168">
        <ele>290.46</ele>
        <time>2012-08-30T11:36:12Z</time>
      </trkpt>
      <trkpt lat="45.13469" lon="1.8918">
        <ele>289.49</ele>
        <time>2012-08-30T11:36:19Z</time>
      </trkpt>
      <trkpt lat="45.13457" lon="1.89188">
        <ele>288.53</ele>
        <time>2012-08-30T11:36:26Z</time>
      </trkpt>
      <trkpt lat="45.1345" lon="1.89187">
        <ele>288.05</ele>
        <time>2012-08-30T11:36:34Z</time>
      </trkpt>
      <trkpt lat="45.1345" lon="1.89187">
        <ele>288.53</ele>
        <time>2012-08-30T11:36:46Z</time>
      </trkpt>
      <trkpt lat="45.1344" lon="1.89192">
        <ele>288.05</ele>
        <time>2012-08-30T11:36:53Z</time>
      </trkpt>
      <trkpt lat="45.13435" lon="1.89194">
        <ele>287.57</ele>
        <time>2012-08-30T11:37:00Z</time>
      </trkpt>
      <trkpt lat="45.13433" lon="1.89196">
        <ele>287.57</ele>
        <time>2012-08-30T11:37:03Z</time>
      </trkpt>
      <trkpt lat="45.13427" lon="1.89199">
        <ele>287.09</ele>
        <time>2012-08-30T11:37:10Z</time>
      </trkpt>
      <trkpt lat="45.13422" lon="1.89202">
        <ele>286.61</ele>
        <time>2012-08-30T11:37:17Z</time>
      </trkpt>
      <trkpt lat="45.13415" lon="1.89205">
        <ele>288.05</ele>
        <time>2012-08-30T11:37:25Z</time>
      </trkpt>
      <trkpt lat="45.1341" lon="1.89206">
        <ele>288.05</ele>
        <time>2012-08-30T11:37:31Z</time>
      </trkpt>
      <trkpt lat="45.134" lon="1.89212">
        <ele>289.97</ele>
        <time>2012-08-30T11:37:39Z</time>
      </trkpt>
      <trkpt lat="45.13391" lon="1.89216">
        <ele>290.46</ele>
        <time>2012-08-30T11:37:44Z</time>
      </trkpt>
      <trkpt lat="45.13385" lon="1.89221">
        <ele>291.42</ele>
        <time>2012-08-30T11:37:50Z</time>
      </trkpt>
      <trkpt lat="45.13379" lon="1.89226">
        <ele>291.9</ele>
        <time>2012-08-30T11:37:57Z</time>
      </trkpt>
      <trkpt lat="45.13371" lon="1.89231">
        <ele>292.38</ele>
        <time>2012-08-30T11:38:05Z</time>
      </trkpt>
      <trkpt lat="45.13365" lon="1.89236">
        <ele>293.34</ele>
        <time>2012-08-30T11:38:12Z</time>
      </trkpt>
      <trkpt lat="45.13362" lon="1.8924">
        <ele>292.86</ele>
        <time>2012-08-30T11:38:17Z</time>
      </trkpt>
      <trkpt lat="45.13354" lon="1.89245">
        <ele>293.34</ele>
        <time>2012-08-30T11:38:23Z</time>
      </trkpt>
      <trkpt lat="45.13349" lon="1.89248">
        <ele>293.34</ele>
        <time>2012-08-30T11:38:30Z</time>
      </trkpt>
      <trkpt lat="45.13339" lon="1.8925">
        <ele>292.86</ele>
        <time>2012-08-30T11:38:38Z</time>
      </trkpt>
      <trkpt lat="45.13329" lon="1.89256">
        <ele>292.86</ele>
        <time>2012-08-30T11:38:46Z</time>
      </trkpt>
      <trkpt lat="45.1332" lon="1.89261">
        <ele>293.34</ele>
        <time>2012-08-30T11:38:54Z</time>
      </trkpt>
      <trkpt lat="45.1331" lon="1.89265">
        <ele>293.34</ele>
        <time>2012-08-30T11:39:03Z</time>
      </trkpt>
      <trkpt lat="45.13301" lon="1.89273">
        <ele>293.34</ele>
        <time>2012-08-30T11:39:12Z</time>
      </trkpt>
      <trkpt lat="45.13293" lon="1.89275">
        <ele>294.3</ele>
        <time>2012-08-30T11:39:20Z</time>
      </trkpt>
      <trkpt lat="45.13289" lon="1.89276">
        <ele>294.3</ele>
        <time>2012-08-30T11:39:28Z</time>
      </trkpt>
      <trkpt lat="45.13285" lon="1.8928">
        <ele>293.82</ele>
        <time>2012-08-30T11:39:34Z</time>
      </trkpt>
      <trkpt lat="45.13277" lon="1.89286">
        <ele>294.3</ele>
        <time>2012-08-30T11:39:41Z</time>
      </trkpt>
      <trkpt lat="45.13269" lon="1.89291">
        <ele>294.3</ele>
        <time>2012-08-30T11:39:48Z</time>
      </trkpt>
      <trkpt lat="45.13264" lon="1.89297">
        <ele>294.3</ele>
        <time>2012-08-30T11:39:54Z</time>
      </trkpt>
      <trkpt lat="45.13258" lon="1.89299">
        <ele>293.82</ele>
        <time>2012-08-30T11:40:00Z</time>
      </trkpt>
      <trkpt lat="45.1325" lon="1.89305">
        <ele>293.82</ele>
        <time>2012-08-30T11:40:07Z</time>
      </trkpt>
      <trkpt lat="45.13248" lon="1.89307">
        <ele>293.82</ele>
        <time>2012-08-30T11:40:15Z</time>
      </trkpt>
      <trkpt lat="45.13248" lon="1.89307">
        <ele>293.34</ele>
        <time>2012-08-30T11:40:30Z</time>
      </trkpt>
      <trkpt lat="45.13245" lon="1.89309">
        <ele>289.97</ele>
        <time>2012-08-30T11:40:40Z</time>
      </trkpt>
      <trkpt lat="45.13244" lon="1.8931">
        <ele>293.82</ele>
        <time>2012-08-30T11:40:41Z</time>
      </trkpt>
      <trkpt lat="45.13238" lon="1.89315">
        <ele>290.46</ele>
        <time>2012-08-30T11:40:48Z</time>
      </trkpt>
      <trkpt lat="45.13238" lon="1.89315">
        <ele>286.13</ele>
        <time>2012-08-30T11:40:51Z</time>
      </trkpt>
      <trkpt lat="45.13238" lon="1.89315">
        <ele>293.82</ele>
        <time>2012-08-30T11:40:52Z</time>
      </trkpt>
      <trkpt lat="45.13238" lon="1.89315">
        <ele>296.7</ele>
        <time>2012-08-30T11:40:53Z</time>
      </trkpt>
      <trkpt lat="45.13238" lon="1.89315">
        <ele>292.38</ele>
        <time>2012-08-30T11:40:54Z</time>
      </trkpt>
      <trkpt lat="45.13238" lon="1.89315">
        <ele>287.57</ele>
        <time>2012-08-30T11:40:55Z</time>
      </trkpt>
      <trkpt lat="45.13238" lon="1.89315">
        <ele>292.86</ele>
        <time>2012-08-30T11:40:56Z</time>
      </trkpt>
      <trkpt lat="45.13239" lon="1.89315">
        <ele>292.86</ele>
        <time>2012-08-30T11:41:08Z</time>
      </trkpt>
      <trkpt lat="45.1324" lon="1.89314">
        <ele>292.38</ele>
        <time>2012-08-30T11:41:18Z</time>
      </trkpt>
      <trkpt lat="45.1324" lon="1.89314">
        <ele>289.01</ele>
        <time>2012-08-30T11:41:25Z</time>
      </trkpt>
      <trkpt lat="45.1324" lon="1.89314">
        <ele>293.34</ele>
        <time>2012-08-30T11:41:26Z</time>
      </trkpt>
      <trkpt lat="45.1324" lon="1.89314">
        <ele>292.38</ele>
        <time>2012-08-30T11:41:37Z</time>
      </trkpt>
      <trkpt lat="45.1324" lon="1.89314">
        <ele>295.26</ele>
        <time>2012-08-30T11:41:50Z</time>
      </trkpt>
      <trkpt lat="45.1324" lon="1.89314">
        <ele>295.26</ele>
        <time>2012-08-30T11:41:51Z</time>
      </trkpt>
      <trkpt lat="45.1324" lon="1.89314">
        <ele>292.38</ele>
        <time>2012-08-30T11:41:54Z</time>
      </trkpt>
      <trkpt lat="45.1324" lon="1.89314">
        <ele>292.38</ele>
        <time>2012-08-30T11:42:06Z</time>
      </trkpt>
      <trkpt lat="45.13239" lon="1.89314">
        <ele>292.38</ele>
        <time>2012-08-30T11:42:13Z</time>
      </trkpt>
      <trkpt lat="45.13239" lon="1.89314">
        <ele>292.38</ele>
        <time>2012-08-30T11:42:30Z</time>
      </trkpt>
      <trkpt lat="45.13239" lon="1.89314">
        <ele>292.86</ele>
        <time>2012-08-30T11:42:46Z</time>
      </trkpt>
      <trkpt lat="45.13239" lon="1.89314">
        <ele>292.38</ele>
        <time>2012-08-30T11:42:59Z</time>
      </trkpt>
      <trkpt lat="45.13239" lon="1.89314">
        <ele>292.38</ele>
        <time>2012-08-30T11:43:14Z</time>
      </trkpt>
      <trkpt lat="45.13239" lon="1.89314">
        <ele>292.38</ele>
        <time>2012-08-30T11:43:25Z</time>
      </trkpt>
      <trkpt lat="45.13237" lon="1.89315">
        <ele>292.86</ele>
        <time>2012-08-30T11:43:34Z</time>
      </trkpt>
      <trkpt lat="45.13238" lon="1.89315">
        <ele>292.86</ele>
        <time>2012-08-30T11:43:42Z</time>
      </trkpt>
      <trkpt lat="45.13239" lon="1.89315">
        <ele>293.34</ele>
        <time>2012-08-30T11:43:49Z</time>
      </trkpt>
      <trkpt lat="45.13239" lon="1.89315">
        <ele>292.38</ele>
        <time>2012-08-30T11:43:54Z</time>
      </trkpt>
      <trkpt lat="45.13237" lon="1.89316">
        <ele>292.86</ele>
        <time>2012-08-30T11:44:03Z</time>
      </trkpt>
      <trkpt lat="45.13228" lon="1.89326">
        <ele>291.42</ele>
        <time>2012-08-30T11:44:11Z</time>
      </trkpt>
      <trkpt lat="45.13209" lon="1.8934">
        <ele>289.49</ele>
        <time>2012-08-30T11:44:22Z</time>
      </trkpt>
      <trkpt lat="45.13203" lon="1.89345">
        <ele>288.53</ele>
        <time>2012-08-30T11:44:30Z</time>
      </trkpt>
      <trkpt lat="45.13195" lon="1.89353">
        <ele>287.57</ele>
        <time>2012-08-30T11:44:39Z</time>
      </trkpt>
      <trkpt lat="45.13191" lon="1.89351">
        <ele>287.09</ele>
        <time>2012-08-30T11:44:50Z</time>
      </trkpt>
      <trkpt lat="45.13191" lon="1.89351">
        <ele>287.57</ele>
        <time>2012-08-30T11:45:00Z</time>
      </trkpt>
      <trkpt lat="45.13196" lon="1.89349">
        <ele>288.05</ele>
        <time>2012-08-30T11:45:05Z</time>
      </trkpt>
      <trkpt lat="45.13195" lon="1.89348">
        <ele>287.57</ele>
        <time>2012-08-30T11:45:10Z</time>
      </trkpt>
      <trkpt lat="45.13193" lon="1.89354">
        <ele>285.17</ele>
        <time>2012-08-30T11:45:17Z</time>
      </trkpt>
      <trkpt lat="45.13192" lon="1.89355">
        <ele>284.69</ele>
        <time>2012-08-30T11:45:28Z</time>
      </trkpt>
      <trkpt lat="45.13188" lon="1.89362">
        <ele>283.25</ele>
        <time>2012-08-30T11:45:36Z</time>
      </trkpt>
      <trkpt lat="45.13186" lon="1.89364">
        <ele>282.28</ele>
        <time>2012-08-30T11:45:43Z</time>
      </trkpt>
      <trkpt lat="45.13182" lon="1.89374">
        <ele>279.88</ele>
        <time>2012-08-30T11:45:50Z</time>
      </trkpt>
      <trkpt lat="45.13181" lon="1.89375">
        <ele>279.4</ele>
        <time>2012-08-30T11:45:58Z</time>
      </trkpt>
      <trkpt lat="45.13178" lon="1.89378">
        <ele>278.44</ele>
        <time>2012-08-30T11:46:07Z</time>
      </trkpt>
      <trkpt lat="45.13166" lon="1.89388">
        <ele>276.04</ele>
        <time>2012-08-30T11:46:16Z</time>
      </trkpt>
      <trkpt lat="45.13151" lon="1.89402">
        <ele>275.07</ele>
        <time>2012-08-30T11:46:26Z</time>
      </trkpt>
      <trkpt lat="45.13146" lon="1.8941">
        <ele>275.07</ele>
        <time>2012-08-30T11:46:36Z</time>
      </trkpt>
      <trkpt lat="45.13134" lon="1.89419">
        <ele>273.63</ele>
        <time>2012-08-30T11:46:45Z</time>
      </trkpt>
      <trkpt lat="45.13113" lon="1.89429">
        <ele>270.27</ele>
        <time>2012-08-30T11:46:53Z</time>
      </trkpt>
      <trkpt lat="45.13102" lon="1.89436">
        <ele>267.86</ele>
        <time>2012-08-30T11:46:57Z</time>
      </trkpt>
      <trkpt lat="45.13087" lon="1.89445">
        <ele>265.46</ele>
        <time>2012-08-30T11:47:03Z</time>
      </trkpt>
      <trkpt lat="45.13076" lon="1.89448">
        <ele>263.54</ele>
        <time>2012-08-30T11:47:07Z</time>
      </trkpt>
      <trkpt lat="45.13064" lon="1.89454">
        <ele>261.62</ele>
        <time>2012-08-30T11:47:12Z</time>
      </trkpt>
      <trkpt lat="45.13047" lon="1.89469">
        <ele>259.21</ele>
        <time>2012-08-30T11:47:19Z</time>
      </trkpt>
      <trkpt lat="45.1303" lon="1.89481">
        <ele>256.81</ele>
        <time>2012-08-30T11:47:25Z</time>
      </trkpt>
      <trkpt lat="45.13014" lon="1.8949">
        <ele>253.44</ele>
        <time>2012-08-30T11:47:31Z</time>
      </trkpt>
      <trkpt lat="45.13005" lon="1.89494">
        <ele>251.52</ele>
        <time>2012-08-30T11:47:35Z</time>
      </trkpt>
      <trkpt lat="45.13002" lon="1.89494">
        <ele>252.48</ele>
        <time>2012-08-30T11:47:41Z</time>
      </trkpt>
      <trkpt lat="45.13002" lon="1.89494">
        <ele>253.44</ele>
        <time>2012-08-30T11:47:55Z</time>
      </trkpt>
      <trkpt lat="45.13002" lon="1.89494">
        <ele>251.52</ele>
        <time>2012-08-30T11:47:58Z</time>
      </trkpt>
      <trkpt lat="45.12998" lon="1.89495">
        <ele>240.95</ele>
        <time>2012-08-30T12:23:41Z</time>
      </trkpt>
      <trkpt lat="45.12998" lon="1.89495">
        <ele>251.52</ele>
        <time>2012-08-30T12:23:42Z</time>
      </trkpt>
      <trkpt lat="45.12998" lon="1.89495">
        <ele>250.08</ele>
        <time>2012-08-30T12:23:43Z</time>
      </trkpt>
      <trkpt lat="45.12997" lon="1.89492">
        <ele>250.08</ele>
        <time>2012-08-30T12:23:58Z</time>
      </trkpt>
      <trkpt lat="45.12995" lon="1.89498">
        <ele>249.12</ele>
        <time>2012-08-30T12:24:06Z</time>
      </trkpt>
      <trkpt lat="45.12985" lon="1.89507">
        <ele>246.72</ele>
        <time>2012-08-30T12:24:14Z</time>
      </trkpt>
      <trkpt lat="45.12971" lon="1.89519">
        <ele>247.2</ele>
        <time>2012-08-30T12:24:22Z</time>
      </trkpt>
      <trkpt lat="45.12954" lon="1.89529">
        <ele>245.75</ele>
        <time>2012-08-30T12:24:30Z</time>
      </trkpt>
      <trkpt lat="45.12937" lon="1.89534">
        <ele>244.79</ele>
        <time>2012-08-30T12:24:36Z</time>
      </trkpt>
      <trkpt lat="45.12919" lon="1.89534">
        <ele>242.39</ele>
        <time>2012-08-30T12:24:43Z</time>
      </trkpt>
      <trkpt lat="45.12895" lon="1.89545">
        <ele>242.39</ele>
        <time>2012-08-30T12:24:51Z</time>
      </trkpt>
      <trkpt lat="45.12868" lon="1.89554">
        <ele>240.47</ele>
        <time>2012-08-30T12:25:01Z</time>
      </trkpt>
      <trkpt lat="45.12844" lon="1.89555">
        <ele>237.58</ele>
        <time>2012-08-30T12:25:09Z</time>
      </trkpt>
      <trkpt lat="45.12824" lon="1.89558">
        <ele>234.22</ele>
        <time>2012-08-30T12:25:15Z</time>
      </trkpt>
      <trkpt lat="45.12813" lon="1.89558">
        <ele>232.3</ele>
        <time>2012-08-30T12:25:19Z</time>
      </trkpt>
      <trkpt lat="45.12808" lon="1.89549">
        <ele>231.33</ele>
        <time>2012-08-30T12:25:25Z</time>
      </trkpt>
      <trkpt lat="45.12807" lon="1.89543">
        <ele>230.85</ele>
        <time>2012-08-30T12:25:30Z</time>
      </trkpt>
      <trkpt lat="45.12809" lon="1.89517">
        <ele>227.49</ele>
        <time>2012-08-30T12:25:38Z</time>
      </trkpt>
      <trkpt lat="45.12812" lon="1.89511">
        <ele>227.01</ele>
        <time>2012-08-30T12:25:40Z</time>
      </trkpt>
      <trkpt lat="45.12833" lon="1.8949">
        <ele>223.64</ele>
        <time>2012-08-30T12:25:49Z</time>
      </trkpt>
      <trkpt lat="45.12843" lon="1.89486">
        <ele>221.24</ele>
        <time>2012-08-30T12:25:53Z</time>
      </trkpt>
      <trkpt lat="45.12844" lon="1.89475">
        <ele>219.8</ele>
        <time>2012-08-30T12:25:58Z</time>
      </trkpt>
      <trkpt lat="45.12843" lon="1.89476">
        <ele>220.28</ele>
        <time>2012-08-30T12:26:03Z</time>
      </trkpt>
      <trkpt lat="45.1284" lon="1.89474">
        <ele>220.28</ele>
        <time>2012-08-30T12:26:07Z</time>
      </trkpt>
      <trkpt lat="45.12831" lon="1.89476">
        <ele>218.84</ele>
        <time>2012-08-30T12:26:10Z</time>
      </trkpt>
      <trkpt lat="45.12812" lon="1.89484">
        <ele>218.36</ele>
        <time>2012-08-30T12:26:15Z</time>
      </trkpt>
      <trkpt lat="45.12808" lon="1.89486">
        <ele>217.88</ele>
        <time>2012-08-30T12:26:16Z</time>
      </trkpt>
      <trkpt lat="45.12803" lon="1.89486">
        <ele>217.4</ele>
        <time>2012-08-30T12:26:17Z</time>
      </trkpt>
      <trkpt lat="45.12799" lon="1.89486">
        <ele>217.4</ele>
        <time>2012-08-30T12:26:18Z</time>
      </trkpt>
      <trkpt lat="45.12795" lon="1.89486">
        <ele>216.91</ele>
        <time>2012-08-30T12:26:19Z</time>
      </trkpt>
      <trkpt lat="45.12786" lon="1.89485">
        <ele>220.28</ele>
        <time>2012-08-30T12:26:21Z</time>
      </trkpt>
      <trkpt lat="45.12782" lon="1.89485">
        <ele>218.36</ele>
        <time>2012-08-30T12:26:22Z</time>
      </trkpt>
      <trkpt lat="45.12778" lon="1.89483">
        <ele>217.88</ele>
        <time>2012-08-30T12:26:23Z</time>
      </trkpt>
      <trkpt lat="45.1277" lon="1.89479">
        <ele>214.99</ele>
        <time>2012-08-30T12:26:25Z</time>
      </trkpt>
      <trkpt lat="45.12766" lon="1.89478">
        <ele>217.4</ele>
        <time>2012-08-30T12:26:26Z</time>
      </trkpt>
      <trkpt lat="45.12763" lon="1.89476">
        <ele>216.91</ele>
        <time>2012-08-30T12:26:27Z</time>
      </trkpt>
      <trkpt lat="45.12759" lon="1.89474">
        <ele>212.59</ele>
        <time>2012-08-30T12:26:28Z</time>
      </trkpt>
      <trkpt lat="45.12755" lon="1.89472">
        <ele>216.43</ele>
        <time>2012-08-30T12:26:29Z</time>
      </trkpt>
      <trkpt lat="45.12745" lon="1.89465">
        <ele>212.59</ele>
        <time>2012-08-30T12:26:32Z</time>
      </trkpt>
      <trkpt lat="45.12727" lon="1.89443">
        <ele>214.03</ele>
        <time>2012-08-30T12:26:39Z</time>
      </trkpt>
      <trkpt lat="45.12725" lon="1.89441">
        <ele>211.15</ele>
        <time>2012-08-30T12:26:40Z</time>
      </trkpt>
      <trkpt lat="45.12723" lon="1.89439">
        <ele>214.03</ele>
        <time>2012-08-30T12:26:41Z</time>
      </trkpt>
      <trkpt lat="45.12719" lon="1.89438">
        <ele>214.03</ele>
        <time>2012-08-30T12:26:42Z</time>
      </trkpt>
      <trkpt lat="45.12692" lon="1.89432">
        <ele>213.07</ele>
        <time>2012-08-30T12:26:50Z</time>
      </trkpt>
      <trkpt lat="45.12687" lon="1.8944">
        <ele>209.7</ele>
        <time>2012-08-30T12:26:53Z</time>
      </trkpt>
      <trkpt lat="45.12684" lon="1.89447">
        <ele>212.59</ele>
        <time>2012-08-30T12:26:55Z</time>
      </trkpt>
      <trkpt lat="45.12679" lon="1.89463">
        <ele>212.59</ele>
        <time>2012-08-30T12:26:58Z</time>
      </trkpt>
      <trkpt lat="45.12663" lon="1.89498">
        <ele>211.63</ele>
        <time>2012-08-30T12:27:04Z</time>
      </trkpt>
      <trkpt lat="45.12651" lon="1.89524">
        <ele>211.63</ele>
        <time>2012-08-30T12:27:10Z</time>
      </trkpt>
      <trkpt lat="45.12644" lon="1.89553">
        <ele>212.11</ele>
        <time>2012-08-30T12:27:17Z</time>
      </trkpt>
      <trkpt lat="45.12642" lon="1.89557">
        <ele>212.11</ele>
        <time>2012-08-30T12:27:22Z</time>
      </trkpt>
      <trkpt lat="45.12642" lon="1.89557">
        <ele>211.15</ele>
        <time>2012-08-30T12:27:33Z</time>
      </trkpt>
      <trkpt lat="45.12642" lon="1.89557">
        <ele>211.15</ele>
        <time>2012-08-30T12:27:50Z</time>
      </trkpt>
      <trkpt lat="45.12642" lon="1.89556">
        <ele>211.63</ele>
        <time>2012-08-30T12:28:06Z</time>
      </trkpt>
      <trkpt lat="45.12642" lon="1.89556">
        <ele>211.63</ele>
        <time>2012-08-30T12:28:21Z</time>
      </trkpt>
      <trkpt lat="45.12642" lon="1.89556">
        <ele>211.63</ele>
        <time>2012-08-30T12:28:37Z</time>
      </trkpt>
      <trkpt lat="45.12642" lon="1.89556">
        <ele>211.15</ele>
        <time>2012-08-30T12:28:53Z</time>
      </trkpt>
      <trkpt lat="45.12642" lon="1.89556">
        <ele>211.15</ele>
        <time>2012-08-30T12:29:08Z</time>
      </trkpt>
      <trkpt lat="45.12643" lon="1.89556">
        <ele>211.15</ele>
        <time>2012-08-30T12:29:22Z</time>
      </trkpt>
      <trkpt lat="45.12643" lon="1.89556">
        <ele>211.63</ele>
        <time>2012-08-30T12:29:38Z</time>
      </trkpt>
      <trkpt lat="45.12643" lon="1.89556">
        <ele>211.63</ele>
        <time>2012-08-30T12:29:52Z</time>
      </trkpt>
      <trkpt lat="45.12643" lon="1.89557">
        <ele>211.63</ele>
        <time>2012-08-30T12:30:08Z</time>
      </trkpt>
      <trkpt lat="45.12643" lon="1.89557">
        <ele>211.63</ele>
        <time>2012-08-30T12:30:24Z</time>
      </trkpt>
      <trkpt lat="45.12643" lon="1.89557">
        <ele>211.63</ele>
        <time>2012-08-30T12:30:41Z</time>
      </trkpt>
      <trkpt lat="45.12643" lon="1.89557">
        <ele>212.11</ele>
        <time>2012-08-30T12:30:57Z</time>
      </trkpt>
      <trkpt lat="45.12643" lon="1.89557">
        <ele>211.63</ele>
        <time>2012-08-30T12:31:14Z</time>
      </trkpt>
      <trkpt lat="45.12643" lon="1.89557">
        <ele>211.63</ele>
        <time>2012-08-30T12:31:34Z</time>
      </trkpt>
      <trkpt lat="45.12643" lon="1.89557">
        <ele>211.63</ele>
        <time>2012-08-30T12:31:50Z</time>
      </trkpt>
      <trkpt lat="45.12643" lon="1.89556">
        <ele>211.63</ele>
        <time>2012-08-30T12:32:04Z</time>
      </trkpt>
      <trkpt lat="45.12643" lon="1.89556">
        <ele>211.63</ele>
        <time>2012-08-30T12:32:20Z</time>
      </trkpt>
      <trkpt lat="45.12643" lon="1.89556">
        <ele>211.63</ele>
        <time>2012-08-30T12:32:35Z</time>
      </trkpt>
      <trkpt lat="45.12643" lon="1.89556">
        <ele>211.63</ele>
        <time>2012-08-30T12:32:52Z</time>
      </trkpt>
      <trkpt lat="45.12643" lon="1.89556">
        <ele>211.63</ele>
        <time>2012-08-30T12:33:06Z</time>
      </trkpt>
      <trkpt lat="45.12643" lon="1.89556">
        <ele>213.07</ele>
        <time>2012-08-30T12:33:21Z</time>
      </trkpt>
      <trkpt lat="45.12645" lon="1.89551">
        <ele>211.63</ele>
        <time>2012-08-30T12:33:29Z</time>
      </trkpt>
      <trkpt lat="45.12645" lon="1.89553">
        <ele>211.63</ele>
        <time>2012-08-30T12:33:31Z</time>
      </trkpt>
      <trkpt lat="45.12643" lon="1.89558">
        <ele>211.63</ele>
        <time>2012-08-30T12:33:40Z</time>
      </trkpt>
      <trkpt lat="45.12643" lon="1.89558">
        <ele>212.11</ele>
        <time>2012-08-30T12:33:58Z</time>
      </trkpt>
      <trkpt lat="45.12643" lon="1.89558">
        <ele>212.11</ele>
        <time>2012-08-30T12:34:07Z</time>
      </trkpt>
      <trkpt lat="45.12643" lon="1.89558">
        <ele>211.63</ele>
        <time>2012-08-30T12:34:21Z</time>
      </trkpt>
      <trkpt lat="45.12643" lon="1.89558">
        <ele>211.63</ele>
        <time>2012-08-30T12:34:41Z</time>
      </trkpt>
      <trkpt lat="45.12643" lon="1.89558">
        <ele>211.63</ele>
        <time>2012-08-30T12:34:58Z</time>
      </trkpt>
      <trkpt lat="45.12643" lon="1.89558">
        <ele>211.63</ele>
        <time>2012-08-30T12:35:12Z</time>
      </trkpt>
      <trkpt lat="45.12643" lon="1.89558">
        <ele>211.63</ele>
        <time>2012-08-30T12:35:28Z</time>
      </trkpt>
      <trkpt lat="45.12643" lon="1.89558">
        <ele>211.15</ele>
        <time>2012-08-30T12:35:44Z</time>
      </trkpt>
      <trkpt lat="45.12643" lon="1.89558">
        <ele>211.15</ele>
        <time>2012-08-30T12:35:59Z</time>
      </trkpt>
      <trkpt lat="45.12643" lon="1.89558">
        <ele>211.15</ele>
        <time>2012-08-30T12:36:15Z</time>
      </trkpt>
      <trkpt lat="45.12643" lon="1.89558">
        <ele>211.63</ele>
        <time>2012-08-30T12:36:32Z</time>
      </trkpt>
      <trkpt lat="45.12643" lon="1.89557">
        <ele>211.63</ele>
        <time>2012-08-30T12:36:47Z</time>
      </trkpt>
      <trkpt lat="45.12643" lon="1.89557">
        <ele>211.63</ele>
        <time>2012-08-30T12:37:02Z</time>
      </trkpt>
      <trkpt lat="45.12643" lon="1.89557">
        <ele>211.15</ele>
        <time>2012-08-30T12:37:22Z</time>
      </trkpt>
      <trkpt lat="45.12643" lon="1.89557">
        <ele>211.63</ele>
        <time>2012-08-30T12:37:37Z</time>
      </trkpt>
      <trkpt lat="45.12643" lon="1.89557">
        <ele>211.15</ele>
        <time>2012-08-30T12:37:54Z</time>
      </trkpt>
      <trkpt lat="45.12643" lon="1.89557">
        <ele>211.15</ele>
        <time>2012-08-30T12:38:11Z</time>
      </trkpt>
      <trkpt lat="45.12643" lon="1.89557">
        <ele>211.63</ele>
        <time>2012-08-30T12:38:28Z</time>
      </trkpt>
      <trkpt lat="45.12643" lon="1.89557">
        <ele>211.63</ele>
        <time>2012-08-30T12:38:46Z</time>
      </trkpt>
      <trkpt lat="45.12643" lon="1.89557">
        <ele>211.15</ele>
        <time>2012-08-30T12:39:02Z</time>
      </trkpt>
      <trkpt lat="45.12643" lon="1.89557">
        <ele>211.15</ele>
        <time>2012-08-30T12:39:19Z</time>
      </trkpt>
      <trkpt lat="45.12643" lon="1.89557">
        <ele>211.15</ele>
        <time>2012-08-30T12:39:37Z</time>
      </trkpt>
      <trkpt lat="45.12643" lon="1.89557">
        <ele>211.15</ele>
        <time>2012-08-30T12:39:53Z</time>
      </trkpt>
      <trkpt lat="45.12643" lon="1.89557">
        <ele>211.15</ele>
        <time>2012-08-30T12:40:10Z</time>
      </trkpt>
      <trkpt lat="45.12643" lon="1.89557">
        <ele>211.15</ele>
        <time>2012-08-30T12:40:23Z</time>
      </trkpt>
      <trkpt lat="45.12643" lon="1.89557">
        <ele>210.67</ele>
        <time>2012-08-30T12:40:39Z</time>
      </trkpt>
      <trkpt lat="45.12643" lon="1.89557">
        <ele>211.15</ele>
        <time>2012-08-30T12:40:55Z</time>
      </trkpt>
      <trkpt lat="45.12643" lon="1.89557">
        <ele>210.67</ele>
        <time>2012-08-30T12:41:13Z</time>
      </trkpt>
      <trkpt lat="45.12643" lon="1.89557">
        <ele>210.67</ele>
        <time>2012-08-30T12:41:32Z</time>
      </trkpt>
      <trkpt lat="45.12643" lon="1.89557">
        <ele>210.19</ele>
        <time>2012-08-30T12:41:48Z</time>
      </trkpt>
      <trkpt lat="45.12643" lon="1.89557">
        <ele>210.19</ele>
        <time>2012-08-30T12:42:08Z</time>
      </trkpt>
      <trkpt lat="45.12643" lon="1.89557">
        <ele>210.67</ele>
        <time>2012-08-30T12:42:28Z</time>
      </trkpt>
      <trkpt lat="45.12643" lon="1.89558">
        <ele>210.19</ele>
        <time>2012-08-30T12:42:44Z</time>
      </trkpt>
      <trkpt lat="45.12643" lon="1.89558">
        <ele>210.19</ele>
        <time>2012-08-30T12:43:00Z</time>
      </trkpt>
      <trkpt lat="45.12643" lon="1.89558">
        <ele>210.19</ele>
        <time>2012-08-30T12:43:16Z</time>
      </trkpt>
      <trkpt lat="45.12643" lon="1.89558">
        <ele>210.19</ele>
        <time>2012-08-30T12:43:31Z</time>
      </trkpt>
      <trkpt lat="45.12643" lon="1.89558">
        <ele>209.7</ele>
        <time>2012-08-30T12:43:48Z</time>
      </trkpt>
      <trkpt lat="45.12643" lon="1.89558">
        <ele>209.7</ele>
        <time>2012-08-30T12:44:10Z</time>
      </trkpt>
      <trkpt lat="45.12643" lon="1.89558">
        <ele>209.7</ele>
        <time>2012-08-30T12:44:22Z</time>
      </trkpt>
      <trkpt lat="45.12644" lon="1.89557">
        <ele>210.19</ele>
        <time>2012-08-30T12:44:35Z</time>
      </trkpt>
      <trkpt lat="45.12644" lon="1.89562">
        <ele>209.7</ele>
        <time>2012-08-30T12:44:41Z</time>
      </trkpt>
      <trkpt lat="45.12643" lon="1.89564">
        <ele>210.19</ele>
        <time>2012-08-30T12:44:42Z</time>
      </trkpt>
      <trkpt lat="45.12643" lon="1.89567">
        <ele>209.7</ele>
        <time>2012-08-30T12:44:43Z</time>
      </trkpt>
      <trkpt lat="45.12642" lon="1.89571">
        <ele>210.19</ele>
        <time>2012-08-30T12:44:44Z</time>
      </trkpt>
      <trkpt lat="45.12641" lon="1.89575">
        <ele>210.67</ele>
        <time>2012-08-30T12:44:45Z</time>
      </trkpt>
      <trkpt lat="45.1264" lon="1.89579">
        <ele>210.67</ele>
        <time>2012-08-30T12:44:46Z</time>
      </trkpt>
      <trkpt lat="45.12639" lon="1.89582">
        <ele>211.15</ele>
        <time>2012-08-30T12:44:47Z</time>
      </trkpt>
      <trkpt lat="45.12637" lon="1.89585">
        <ele>211.15</ele>
        <time>2012-08-30T12:44:48Z</time>
      </trkpt>
      <trkpt lat="45.12637" lon="1.89587">
        <ele>210.67</ele>
        <time>2012-08-30T12:44:49Z</time>
      </trkpt>
      <trkpt lat="45.12623" lon="1.89613">
        <ele>210.19</ele>
        <time>2012-08-30T12:44:58Z</time>
      </trkpt>
    </trkseg>
  </trk>
</gpx>